<?xml version="1.0" encoding="UTF-8" standalone="no" ?>
<gpx xmlns="http://www.topografix.com/GPX/1/1" xmlns:xsi="http://www.w3.org/2001/XMLSchema-instance" xsi:schemaLocation="http://www.topografix.com/GPX/1/1 http://www.topografix.com/GPX/1/1/gpx.xsd" version="1.1" creator="VisuGPX - https://www.visugpx.com">
  <metadata>
    <name>Hautes Rivières 2022_06_17</name>
  </metadata>
  <trk>
    <name><![CDATA[Hautes Rivières 2022_06_17_1]]></name>
    <trkseg>
      <trkpt lat="49.75378" lon="4.82171">
        <ele>225</ele>
        <time>2022-06-17T12:47:36.000Z</time>
      </trkpt>
      <trkpt lat="49.75378" lon="4.82171">
        <ele>225</ele>
        <time>2022-06-17T12:47:37.000Z</time>
      </trkpt>
      <trkpt lat="49.75379" lon="4.82168">
        <ele>224</ele>
        <time>2022-06-17T12:47:38.000Z</time>
      </trkpt>
      <trkpt lat="49.75381" lon="4.82166">
        <ele>224</ele>
        <time>2022-06-17T12:47:39.000Z</time>
      </trkpt>
      <trkpt lat="49.75384" lon="4.82164">
        <ele>223</ele>
        <time>2022-06-17T12:47:40.000Z</time>
      </trkpt>
      <trkpt lat="49.75387" lon="4.82163">
        <ele>222</ele>
        <time>2022-06-17T12:47:41.000Z</time>
      </trkpt>
      <trkpt lat="49.75392" lon="4.82165">
        <ele>221</ele>
        <time>2022-06-17T12:47:42.000Z</time>
      </trkpt>
      <trkpt lat="49.75397" lon="4.82167">
        <ele>220</ele>
        <time>2022-06-17T12:47:43.000Z</time>
      </trkpt>
      <trkpt lat="49.75402" lon="4.8217">
        <ele>219</ele>
        <time>2022-06-17T12:47:44.000Z</time>
      </trkpt>
      <trkpt lat="49.75408" lon="4.82173">
        <ele>218</ele>
        <time>2022-06-17T12:47:45.000Z</time>
      </trkpt>
      <trkpt lat="49.75414" lon="4.82177">
        <ele>217</ele>
        <time>2022-06-17T12:47:46.000Z</time>
      </trkpt>
      <trkpt lat="49.75419" lon="4.8218">
        <ele>216</ele>
        <time>2022-06-17T12:47:47.000Z</time>
      </trkpt>
      <trkpt lat="49.75425" lon="4.82183">
        <ele>215</ele>
        <time>2022-06-17T12:47:48.000Z</time>
      </trkpt>
      <trkpt lat="49.7543" lon="4.82187">
        <ele>214</ele>
        <time>2022-06-17T12:47:49.000Z</time>
      </trkpt>
      <trkpt lat="49.75432" lon="4.82191">
        <ele>214</ele>
        <time>2022-06-17T12:47:50.000Z</time>
      </trkpt>
      <trkpt lat="49.75435" lon="4.82195">
        <ele>213</ele>
        <time>2022-06-17T12:47:51.000Z</time>
      </trkpt>
      <trkpt lat="49.75438" lon="4.82199">
        <ele>212</ele>
        <time>2022-06-17T12:47:52.000Z</time>
      </trkpt>
      <trkpt lat="49.75442" lon="4.82202">
        <ele>212</ele>
        <time>2022-06-17T12:47:53.000Z</time>
      </trkpt>
      <trkpt lat="49.75448" lon="4.82203">
        <ele>211</ele>
        <time>2022-06-17T12:47:54.000Z</time>
      </trkpt>
      <trkpt lat="49.75454" lon="4.82204">
        <ele>210</ele>
        <time>2022-06-17T12:47:55.000Z</time>
      </trkpt>
      <trkpt lat="49.7546" lon="4.82207">
        <ele>210</ele>
        <time>2022-06-17T12:47:56.000Z</time>
      </trkpt>
      <trkpt lat="49.75466" lon="4.82212">
        <ele>209</ele>
        <time>2022-06-17T12:47:57.000Z</time>
      </trkpt>
      <trkpt lat="49.75471" lon="4.82218">
        <ele>209</ele>
        <time>2022-06-17T12:47:58.000Z</time>
      </trkpt>
      <trkpt lat="49.75476" lon="4.82225">
        <ele>208</ele>
        <time>2022-06-17T12:47:59.000Z</time>
      </trkpt>
      <trkpt lat="49.75481" lon="4.82232">
        <ele>208</ele>
        <time>2022-06-17T12:48:00.000Z</time>
      </trkpt>
      <trkpt lat="49.75486" lon="4.82237">
        <ele>207</ele>
        <time>2022-06-17T12:48:01.000Z</time>
      </trkpt>
      <trkpt lat="49.75491" lon="4.82243">
        <ele>207</ele>
        <time>2022-06-17T12:48:02.000Z</time>
      </trkpt>
      <trkpt lat="49.75497" lon="4.82247">
        <ele>206</ele>
        <time>2022-06-17T12:48:03.000Z</time>
      </trkpt>
      <trkpt lat="49.75502" lon="4.82251">
        <ele>205</ele>
        <time>2022-06-17T12:48:04.000Z</time>
      </trkpt>
      <trkpt lat="49.75508" lon="4.82254">
        <ele>205</ele>
        <time>2022-06-17T12:48:05.000Z</time>
      </trkpt>
      <trkpt lat="49.75513" lon="4.82258">
        <ele>205</ele>
        <time>2022-06-17T12:48:06.000Z</time>
      </trkpt>
      <trkpt lat="49.75518" lon="4.8226">
        <ele>204</ele>
        <time>2022-06-17T12:48:07.000Z</time>
      </trkpt>
      <trkpt lat="49.75523" lon="4.82263">
        <ele>204</ele>
        <time>2022-06-17T12:48:08.000Z</time>
      </trkpt>
      <trkpt lat="49.75529" lon="4.82266">
        <ele>204</ele>
        <time>2022-06-17T12:48:09.000Z</time>
      </trkpt>
      <trkpt lat="49.75534" lon="4.8227">
        <ele>203</ele>
        <time>2022-06-17T12:48:10.000Z</time>
      </trkpt>
      <trkpt lat="49.75539" lon="4.82272">
        <ele>203</ele>
        <time>2022-06-17T12:48:11.000Z</time>
      </trkpt>
      <trkpt lat="49.75544" lon="4.8227">
        <ele>202</ele>
        <time>2022-06-17T12:48:12.000Z</time>
      </trkpt>
      <trkpt lat="49.75548" lon="4.82265">
        <ele>202</ele>
        <time>2022-06-17T12:48:13.000Z</time>
      </trkpt>
      <trkpt lat="49.7555" lon="4.82259">
        <ele>202</ele>
        <time>2022-06-17T12:48:14.000Z</time>
      </trkpt>
      <trkpt lat="49.75551" lon="4.82251">
        <ele>202</ele>
        <time>2022-06-17T12:48:15.000Z</time>
      </trkpt>
      <trkpt lat="49.75549" lon="4.82244">
        <ele>201</ele>
        <time>2022-06-17T12:48:16.000Z</time>
      </trkpt>
      <trkpt lat="49.75547" lon="4.82238">
        <ele>201</ele>
        <time>2022-06-17T12:48:17.000Z</time>
      </trkpt>
      <trkpt lat="49.75544" lon="4.82232">
        <ele>201</ele>
        <time>2022-06-17T12:48:18.000Z</time>
      </trkpt>
      <trkpt lat="49.75541" lon="4.82225">
        <ele>201</ele>
        <time>2022-06-17T12:48:19.000Z</time>
      </trkpt>
      <trkpt lat="49.75538" lon="4.82219">
        <ele>200</ele>
        <time>2022-06-17T12:48:20.000Z</time>
      </trkpt>
      <trkpt lat="49.75534" lon="4.82213">
        <ele>200</ele>
        <time>2022-06-17T12:48:21.000Z</time>
      </trkpt>
      <trkpt lat="49.75531" lon="4.82206">
        <ele>200</ele>
        <time>2022-06-17T12:48:22.000Z</time>
      </trkpt>
      <trkpt lat="49.75528" lon="4.822">
        <ele>200</ele>
        <time>2022-06-17T12:48:23.000Z</time>
      </trkpt>
      <trkpt lat="49.75525" lon="4.82193">
        <ele>199</ele>
        <time>2022-06-17T12:48:24.000Z</time>
      </trkpt>
      <trkpt lat="49.75522" lon="4.82187">
        <ele>199</ele>
        <time>2022-06-17T12:48:25.000Z</time>
      </trkpt>
      <trkpt lat="49.75518" lon="4.82181">
        <ele>199</ele>
        <time>2022-06-17T12:48:26.000Z</time>
      </trkpt>
      <trkpt lat="49.75515" lon="4.82174">
        <ele>199</ele>
        <time>2022-06-17T12:48:27.000Z</time>
      </trkpt>
      <trkpt lat="49.75512" lon="4.82168">
        <ele>199</ele>
        <time>2022-06-17T12:48:28.000Z</time>
      </trkpt>
      <trkpt lat="49.75509" lon="4.82161">
        <ele>198</ele>
        <time>2022-06-17T12:48:29.000Z</time>
      </trkpt>
      <trkpt lat="49.75506" lon="4.82155">
        <ele>198</ele>
        <time>2022-06-17T12:48:30.000Z</time>
      </trkpt>
      <trkpt lat="49.75502" lon="4.82149">
        <ele>198</ele>
        <time>2022-06-17T12:48:31.000Z</time>
      </trkpt>
      <trkpt lat="49.75498" lon="4.82143">
        <ele>197</ele>
        <time>2022-06-17T12:48:32.000Z</time>
      </trkpt>
      <trkpt lat="49.75495" lon="4.82137">
        <ele>197</ele>
        <time>2022-06-17T12:48:33.000Z</time>
      </trkpt>
      <trkpt lat="49.75491" lon="4.82132">
        <ele>197</ele>
        <time>2022-06-17T12:48:34.000Z</time>
      </trkpt>
      <trkpt lat="49.75487" lon="4.82126">
        <ele>197</ele>
        <time>2022-06-17T12:48:35.000Z</time>
      </trkpt>
      <trkpt lat="49.75483" lon="4.82121">
        <ele>197</ele>
        <time>2022-06-17T12:48:36.000Z</time>
      </trkpt>
      <trkpt lat="49.75479" lon="4.82115">
        <ele>196</ele>
        <time>2022-06-17T12:48:37.000Z</time>
      </trkpt>
      <trkpt lat="49.75475" lon="4.8211">
        <ele>196</ele>
        <time>2022-06-17T12:48:38.000Z</time>
      </trkpt>
      <trkpt lat="49.7547" lon="4.82105">
        <ele>196</ele>
        <time>2022-06-17T12:48:39.000Z</time>
      </trkpt>
      <trkpt lat="49.75466" lon="4.821">
        <ele>196</ele>
        <time>2022-06-17T12:48:40.000Z</time>
      </trkpt>
      <trkpt lat="49.75462" lon="4.82096">
        <ele>196</ele>
        <time>2022-06-17T12:48:41.000Z</time>
      </trkpt>
      <trkpt lat="49.75458" lon="4.82092">
        <ele>196</ele>
        <time>2022-06-17T12:48:42.000Z</time>
      </trkpt>
      <trkpt lat="49.75453" lon="4.82088">
        <ele>196</ele>
        <time>2022-06-17T12:48:43.000Z</time>
      </trkpt>
      <trkpt lat="49.75449" lon="4.82084">
        <ele>196</ele>
        <time>2022-06-17T12:48:44.000Z</time>
      </trkpt>
      <trkpt lat="49.75444" lon="4.82079">
        <ele>196</ele>
        <time>2022-06-17T12:48:45.000Z</time>
      </trkpt>
      <trkpt lat="49.7544" lon="4.82075">
        <ele>196</ele>
        <time>2022-06-17T12:48:46.000Z</time>
      </trkpt>
      <trkpt lat="49.75435" lon="4.8207">
        <ele>196</ele>
        <time>2022-06-17T12:48:47.000Z</time>
      </trkpt>
      <trkpt lat="49.75431" lon="4.82066">
        <ele>196</ele>
        <time>2022-06-17T12:48:48.000Z</time>
      </trkpt>
      <trkpt lat="49.75426" lon="4.82061">
        <ele>196</ele>
        <time>2022-06-17T12:48:49.000Z</time>
      </trkpt>
      <trkpt lat="49.75421" lon="4.82057">
        <ele>196</ele>
        <time>2022-06-17T12:48:50.000Z</time>
      </trkpt>
      <trkpt lat="49.75417" lon="4.82053">
        <ele>196</ele>
        <time>2022-06-17T12:48:51.000Z</time>
      </trkpt>
      <trkpt lat="49.75412" lon="4.82048">
        <ele>196</ele>
        <time>2022-06-17T12:48:52.000Z</time>
      </trkpt>
      <trkpt lat="49.75407" lon="4.82044">
        <ele>196</ele>
        <time>2022-06-17T12:48:53.000Z</time>
      </trkpt>
      <trkpt lat="49.75403" lon="4.8204">
        <ele>196</ele>
        <time>2022-06-17T12:48:54.000Z</time>
      </trkpt>
      <trkpt lat="49.75398" lon="4.82036">
        <ele>196</ele>
        <time>2022-06-17T12:48:55.000Z</time>
      </trkpt>
      <trkpt lat="49.75393" lon="4.82033">
        <ele>196</ele>
        <time>2022-06-17T12:48:56.000Z</time>
      </trkpt>
      <trkpt lat="49.75388" lon="4.82029">
        <ele>196</ele>
        <time>2022-06-17T12:48:57.000Z</time>
      </trkpt>
      <trkpt lat="49.75383" lon="4.82026">
        <ele>196</ele>
        <time>2022-06-17T12:48:58.000Z</time>
      </trkpt>
      <trkpt lat="49.75379" lon="4.82023">
        <ele>196</ele>
        <time>2022-06-17T12:48:59.000Z</time>
      </trkpt>
      <trkpt lat="49.75374" lon="4.8202">
        <ele>196</ele>
        <time>2022-06-17T12:49:00.000Z</time>
      </trkpt>
      <trkpt lat="49.75369" lon="4.82018">
        <ele>196</ele>
        <time>2022-06-17T12:49:01.000Z</time>
      </trkpt>
      <trkpt lat="49.75364" lon="4.82015">
        <ele>196</ele>
        <time>2022-06-17T12:49:02.000Z</time>
      </trkpt>
      <trkpt lat="49.75359" lon="4.82013">
        <ele>196</ele>
        <time>2022-06-17T12:49:03.000Z</time>
      </trkpt>
      <trkpt lat="49.75355" lon="4.8201">
        <ele>196</ele>
        <time>2022-06-17T12:49:04.000Z</time>
      </trkpt>
      <trkpt lat="49.7535" lon="4.82007">
        <ele>196</ele>
        <time>2022-06-17T12:49:05.000Z</time>
      </trkpt>
      <trkpt lat="49.75346" lon="4.82005">
        <ele>196</ele>
        <time>2022-06-17T12:49:06.000Z</time>
      </trkpt>
      <trkpt lat="49.75342" lon="4.82002">
        <ele>196</ele>
        <time>2022-06-17T12:49:07.000Z</time>
      </trkpt>
      <trkpt lat="49.75337" lon="4.82">
        <ele>196</ele>
        <time>2022-06-17T12:49:08.000Z</time>
      </trkpt>
      <trkpt lat="49.75333" lon="4.81997">
        <ele>196</ele>
        <time>2022-06-17T12:49:09.000Z</time>
      </trkpt>
      <trkpt lat="49.75329" lon="4.81994">
        <ele>196</ele>
        <time>2022-06-17T12:49:10.000Z</time>
      </trkpt>
      <trkpt lat="49.75325" lon="4.81991">
        <ele>196</ele>
        <time>2022-06-17T12:49:11.000Z</time>
      </trkpt>
      <trkpt lat="49.75321" lon="4.81988">
        <ele>196</ele>
        <time>2022-06-17T12:49:12.000Z</time>
      </trkpt>
      <trkpt lat="49.75317" lon="4.81986">
        <ele>196</ele>
        <time>2022-06-17T12:49:13.000Z</time>
      </trkpt>
      <trkpt lat="49.75313" lon="4.81983">
        <ele>196</ele>
        <time>2022-06-17T12:49:14.000Z</time>
      </trkpt>
      <trkpt lat="49.75309" lon="4.81981">
        <ele>197</ele>
        <time>2022-06-17T12:49:15.000Z</time>
      </trkpt>
      <trkpt lat="49.75306" lon="4.81978">
        <ele>197</ele>
        <time>2022-06-17T12:49:16.000Z</time>
      </trkpt>
      <trkpt lat="49.75302" lon="4.81976">
        <ele>197</ele>
        <time>2022-06-17T12:49:17.000Z</time>
      </trkpt>
      <trkpt lat="49.75299" lon="4.81974">
        <ele>197</ele>
        <time>2022-06-17T12:49:18.000Z</time>
      </trkpt>
      <trkpt lat="49.75295" lon="4.81971">
        <ele>197</ele>
        <time>2022-06-17T12:49:19.000Z</time>
      </trkpt>
      <trkpt lat="49.75291" lon="4.81969">
        <ele>197</ele>
        <time>2022-06-17T12:49:20.000Z</time>
      </trkpt>
      <trkpt lat="49.75288" lon="4.81967">
        <ele>197</ele>
        <time>2022-06-17T12:49:21.000Z</time>
      </trkpt>
      <trkpt lat="49.75284" lon="4.81964">
        <ele>197</ele>
        <time>2022-06-17T12:49:22.000Z</time>
      </trkpt>
      <trkpt lat="49.75281" lon="4.81961">
        <ele>197</ele>
        <time>2022-06-17T12:49:23.000Z</time>
      </trkpt>
      <trkpt lat="49.75277" lon="4.81958">
        <ele>198</ele>
        <time>2022-06-17T12:49:24.000Z</time>
      </trkpt>
      <trkpt lat="49.75274" lon="4.81955">
        <ele>198</ele>
        <time>2022-06-17T12:49:25.000Z</time>
      </trkpt>
      <trkpt lat="49.75271" lon="4.81951">
        <ele>198</ele>
        <time>2022-06-17T12:49:26.000Z</time>
      </trkpt>
      <trkpt lat="49.75267" lon="4.81948">
        <ele>198</ele>
        <time>2022-06-17T12:49:27.000Z</time>
      </trkpt>
      <trkpt lat="49.75264" lon="4.81945">
        <ele>198</ele>
        <time>2022-06-17T12:49:28.000Z</time>
      </trkpt>
      <trkpt lat="49.75261" lon="4.81941">
        <ele>198</ele>
        <time>2022-06-17T12:49:29.000Z</time>
      </trkpt>
      <trkpt lat="49.75258" lon="4.81937">
        <ele>198</ele>
        <time>2022-06-17T12:49:30.000Z</time>
      </trkpt>
      <trkpt lat="49.75255" lon="4.81934">
        <ele>198</ele>
        <time>2022-06-17T12:49:31.000Z</time>
      </trkpt>
      <trkpt lat="49.75252" lon="4.81929">
        <ele>199</ele>
        <time>2022-06-17T12:49:32.000Z</time>
      </trkpt>
      <trkpt lat="49.7525" lon="4.81925">
        <ele>199</ele>
        <time>2022-06-17T12:49:33.000Z</time>
      </trkpt>
      <trkpt lat="49.75247" lon="4.81921">
        <ele>199</ele>
        <time>2022-06-17T12:49:34.000Z</time>
      </trkpt>
      <trkpt lat="49.75244" lon="4.81917">
        <ele>199</ele>
        <time>2022-06-17T12:49:35.000Z</time>
      </trkpt>
      <trkpt lat="49.75241" lon="4.81913">
        <ele>199</ele>
        <time>2022-06-17T12:49:36.000Z</time>
      </trkpt>
      <trkpt lat="49.75237" lon="4.8191">
        <ele>199</ele>
        <time>2022-06-17T12:49:37.000Z</time>
      </trkpt>
      <trkpt lat="49.75234" lon="4.81906">
        <ele>200</ele>
        <time>2022-06-17T12:49:38.000Z</time>
      </trkpt>
      <trkpt lat="49.7523" lon="4.81902">
        <ele>200</ele>
        <time>2022-06-17T12:49:39.000Z</time>
      </trkpt>
      <trkpt lat="49.75227" lon="4.81898">
        <ele>200</ele>
        <time>2022-06-17T12:49:40.000Z</time>
      </trkpt>
      <trkpt lat="49.75223" lon="4.81894">
        <ele>200</ele>
        <time>2022-06-17T12:49:41.000Z</time>
      </trkpt>
      <trkpt lat="49.7522" lon="4.8189">
        <ele>200</ele>
        <time>2022-06-17T12:49:42.000Z</time>
      </trkpt>
      <trkpt lat="49.75217" lon="4.81885">
        <ele>200</ele>
        <time>2022-06-17T12:49:43.000Z</time>
      </trkpt>
      <trkpt lat="49.75213" lon="4.81881">
        <ele>200</ele>
        <time>2022-06-17T12:49:44.000Z</time>
      </trkpt>
      <trkpt lat="49.7521" lon="4.81877">
        <ele>200</ele>
        <time>2022-06-17T12:49:45.000Z</time>
      </trkpt>
      <trkpt lat="49.75206" lon="4.81872">
        <ele>201</ele>
        <time>2022-06-17T12:49:46.000Z</time>
      </trkpt>
      <trkpt lat="49.75203" lon="4.81868">
        <ele>201</ele>
        <time>2022-06-17T12:49:47.000Z</time>
      </trkpt>
      <trkpt lat="49.752" lon="4.81863">
        <ele>201</ele>
        <time>2022-06-17T12:49:48.000Z</time>
      </trkpt>
      <trkpt lat="49.75197" lon="4.81858">
        <ele>201</ele>
        <time>2022-06-17T12:49:49.000Z</time>
      </trkpt>
      <trkpt lat="49.75194" lon="4.81854">
        <ele>201</ele>
        <time>2022-06-17T12:49:50.000Z</time>
      </trkpt>
      <trkpt lat="49.75191" lon="4.81849">
        <ele>201</ele>
        <time>2022-06-17T12:49:51.000Z</time>
      </trkpt>
      <trkpt lat="49.75187" lon="4.81843">
        <ele>201</ele>
        <time>2022-06-17T12:49:52.000Z</time>
      </trkpt>
      <trkpt lat="49.75185" lon="4.81838">
        <ele>201</ele>
        <time>2022-06-17T12:49:53.000Z</time>
      </trkpt>
      <trkpt lat="49.75181" lon="4.81833">
        <ele>202</ele>
        <time>2022-06-17T12:49:54.000Z</time>
      </trkpt>
      <trkpt lat="49.75178" lon="4.81827">
        <ele>202</ele>
        <time>2022-06-17T12:49:55.000Z</time>
      </trkpt>
      <trkpt lat="49.75175" lon="4.81822">
        <ele>202</ele>
        <time>2022-06-17T12:49:56.000Z</time>
      </trkpt>
      <trkpt lat="49.75172" lon="4.81816">
        <ele>202</ele>
        <time>2022-06-17T12:49:57.000Z</time>
      </trkpt>
      <trkpt lat="49.75168" lon="4.81811">
        <ele>202</ele>
        <time>2022-06-17T12:49:58.000Z</time>
      </trkpt>
      <trkpt lat="49.75165" lon="4.81806">
        <ele>202</ele>
        <time>2022-06-17T12:49:59.000Z</time>
      </trkpt>
      <trkpt lat="49.75162" lon="4.81801">
        <ele>202</ele>
        <time>2022-06-17T12:50:00.000Z</time>
      </trkpt>
      <trkpt lat="49.75159" lon="4.81796">
        <ele>202</ele>
        <time>2022-06-17T12:50:01.000Z</time>
      </trkpt>
      <trkpt lat="49.75156" lon="4.81791">
        <ele>202</ele>
        <time>2022-06-17T12:50:02.000Z</time>
      </trkpt>
      <trkpt lat="49.75152" lon="4.81785">
        <ele>202</ele>
        <time>2022-06-17T12:50:03.000Z</time>
      </trkpt>
      <trkpt lat="49.75149" lon="4.8178">
        <ele>202</ele>
        <time>2022-06-17T12:50:04.000Z</time>
      </trkpt>
      <trkpt lat="49.75146" lon="4.81775">
        <ele>202</ele>
        <time>2022-06-17T12:50:05.000Z</time>
      </trkpt>
      <trkpt lat="49.75143" lon="4.8177">
        <ele>201</ele>
        <time>2022-06-17T12:50:06.000Z</time>
      </trkpt>
      <trkpt lat="49.75141" lon="4.81765">
        <ele>201</ele>
        <time>2022-06-17T12:50:07.000Z</time>
      </trkpt>
      <trkpt lat="49.75139" lon="4.8176">
        <ele>201</ele>
        <time>2022-06-17T12:50:08.000Z</time>
      </trkpt>
      <trkpt lat="49.75139" lon="4.81754">
        <ele>201</ele>
        <time>2022-06-17T12:50:09.000Z</time>
      </trkpt>
      <trkpt lat="49.7514" lon="4.81749">
        <ele>201</ele>
        <time>2022-06-17T12:50:10.000Z</time>
      </trkpt>
      <trkpt lat="49.75141" lon="4.81746">
        <ele>201</ele>
        <time>2022-06-17T12:50:11.000Z</time>
      </trkpt>
      <trkpt lat="49.75144" lon="4.81742">
        <ele>201</ele>
        <time>2022-06-17T12:50:12.000Z</time>
      </trkpt>
      <trkpt lat="49.75146" lon="4.81739">
        <ele>201</ele>
        <time>2022-06-17T12:50:13.000Z</time>
      </trkpt>
      <trkpt lat="49.75148" lon="4.81736">
        <ele>201</ele>
        <time>2022-06-17T12:50:14.000Z</time>
      </trkpt>
      <trkpt lat="49.75151" lon="4.81733">
        <ele>201</ele>
        <time>2022-06-17T12:50:15.000Z</time>
      </trkpt>
      <trkpt lat="49.75153" lon="4.8173">
        <ele>201</ele>
        <time>2022-06-17T12:50:16.000Z</time>
      </trkpt>
      <trkpt lat="49.75155" lon="4.81727">
        <ele>201</ele>
        <time>2022-06-17T12:50:17.000Z</time>
      </trkpt>
      <trkpt lat="49.75158" lon="4.81725">
        <ele>201</ele>
        <time>2022-06-17T12:50:18.000Z</time>
      </trkpt>
      <trkpt lat="49.7516" lon="4.81723">
        <ele>201</ele>
        <time>2022-06-17T12:50:19.000Z</time>
      </trkpt>
      <trkpt lat="49.75162" lon="4.81721">
        <ele>201</ele>
        <time>2022-06-17T12:50:20.000Z</time>
      </trkpt>
      <trkpt lat="49.75164" lon="4.81719">
        <ele>201</ele>
        <time>2022-06-17T12:50:21.000Z</time>
      </trkpt>
      <trkpt lat="49.75166" lon="4.81717">
        <ele>202</ele>
        <time>2022-06-17T12:50:22.000Z</time>
      </trkpt>
      <trkpt lat="49.75169" lon="4.81715">
        <ele>202</ele>
        <time>2022-06-17T12:50:23.000Z</time>
      </trkpt>
      <trkpt lat="49.75171" lon="4.81713">
        <ele>202</ele>
        <time>2022-06-17T12:50:24.000Z</time>
      </trkpt>
      <trkpt lat="49.75173" lon="4.81711">
        <ele>202</ele>
        <time>2022-06-17T12:50:25.000Z</time>
      </trkpt>
      <trkpt lat="49.75176" lon="4.8171">
        <ele>202</ele>
        <time>2022-06-17T12:50:26.000Z</time>
      </trkpt>
      <trkpt lat="49.75178" lon="4.81707">
        <ele>202</ele>
        <time>2022-06-17T12:50:27.000Z</time>
      </trkpt>
      <trkpt lat="49.7518" lon="4.81706">
        <ele>202</ele>
        <time>2022-06-17T12:50:28.000Z</time>
      </trkpt>
      <trkpt lat="49.75182" lon="4.81704">
        <ele>202</ele>
        <time>2022-06-17T12:50:29.000Z</time>
      </trkpt>
      <trkpt lat="49.75184" lon="4.81703">
        <ele>202</ele>
        <time>2022-06-17T12:50:30.000Z</time>
      </trkpt>
      <trkpt lat="49.75187" lon="4.81702">
        <ele>203</ele>
        <time>2022-06-17T12:50:31.000Z</time>
      </trkpt>
      <trkpt lat="49.75189" lon="4.81701">
        <ele>203</ele>
        <time>2022-06-17T12:50:32.000Z</time>
      </trkpt>
      <trkpt lat="49.75191" lon="4.817">
        <ele>203</ele>
        <time>2022-06-17T12:50:33.000Z</time>
      </trkpt>
      <trkpt lat="49.75194" lon="4.81699">
        <ele>203</ele>
        <time>2022-06-17T12:50:34.000Z</time>
      </trkpt>
      <trkpt lat="49.75196" lon="4.81699">
        <ele>203</ele>
        <time>2022-06-17T12:50:35.000Z</time>
      </trkpt>
      <trkpt lat="49.75199" lon="4.81699">
        <ele>203</ele>
        <time>2022-06-17T12:50:36.000Z</time>
      </trkpt>
      <trkpt lat="49.75201" lon="4.81699">
        <ele>203</ele>
        <time>2022-06-17T12:50:37.000Z</time>
      </trkpt>
      <trkpt lat="49.75204" lon="4.817">
        <ele>203</ele>
        <time>2022-06-17T12:50:38.000Z</time>
      </trkpt>
      <trkpt lat="49.75207" lon="4.81701">
        <ele>203</ele>
        <time>2022-06-17T12:50:39.000Z</time>
      </trkpt>
      <trkpt lat="49.75209" lon="4.81702">
        <ele>203</ele>
        <time>2022-06-17T12:50:40.000Z</time>
      </trkpt>
      <trkpt lat="49.75211" lon="4.81704">
        <ele>203</ele>
        <time>2022-06-17T12:50:41.000Z</time>
      </trkpt>
      <trkpt lat="49.75214" lon="4.81706">
        <ele>203</ele>
        <time>2022-06-17T12:50:42.000Z</time>
      </trkpt>
      <trkpt lat="49.75216" lon="4.81708">
        <ele>203</ele>
        <time>2022-06-17T12:50:43.000Z</time>
      </trkpt>
      <trkpt lat="49.75218" lon="4.8171">
        <ele>203</ele>
        <time>2022-06-17T12:50:44.000Z</time>
      </trkpt>
      <trkpt lat="49.75221" lon="4.81711">
        <ele>203</ele>
        <time>2022-06-17T12:50:45.000Z</time>
      </trkpt>
      <trkpt lat="49.75224" lon="4.81713">
        <ele>202</ele>
        <time>2022-06-17T12:50:46.000Z</time>
      </trkpt>
      <trkpt lat="49.75227" lon="4.81715">
        <ele>202</ele>
        <time>2022-06-17T12:50:47.000Z</time>
      </trkpt>
      <trkpt lat="49.7523" lon="4.81717">
        <ele>202</ele>
        <time>2022-06-17T12:50:48.000Z</time>
      </trkpt>
      <trkpt lat="49.75233" lon="4.81719">
        <ele>202</ele>
        <time>2022-06-17T12:50:49.000Z</time>
      </trkpt>
      <trkpt lat="49.75236" lon="4.81721">
        <ele>203</ele>
        <time>2022-06-17T12:50:50.000Z</time>
      </trkpt>
      <trkpt lat="49.75239" lon="4.81724">
        <ele>203</ele>
        <time>2022-06-17T12:50:51.000Z</time>
      </trkpt>
      <trkpt lat="49.75242" lon="4.81726">
        <ele>203</ele>
        <time>2022-06-17T12:50:52.000Z</time>
      </trkpt>
      <trkpt lat="49.75245" lon="4.81729">
        <ele>203</ele>
        <time>2022-06-17T12:50:53.000Z</time>
      </trkpt>
      <trkpt lat="49.75248" lon="4.81731">
        <ele>203</ele>
        <time>2022-06-17T12:50:54.000Z</time>
      </trkpt>
      <trkpt lat="49.7525" lon="4.81734">
        <ele>203</ele>
        <time>2022-06-17T12:50:55.000Z</time>
      </trkpt>
      <trkpt lat="49.75253" lon="4.81736">
        <ele>203</ele>
        <time>2022-06-17T12:50:56.000Z</time>
      </trkpt>
      <trkpt lat="49.75256" lon="4.81738">
        <ele>204</ele>
        <time>2022-06-17T12:50:57.000Z</time>
      </trkpt>
      <trkpt lat="49.75258" lon="4.81741">
        <ele>204</ele>
        <time>2022-06-17T12:50:58.000Z</time>
      </trkpt>
      <trkpt lat="49.75261" lon="4.81743">
        <ele>204</ele>
        <time>2022-06-17T12:50:59.000Z</time>
      </trkpt>
      <trkpt lat="49.75263" lon="4.81745">
        <ele>204</ele>
        <time>2022-06-17T12:51:00.000Z</time>
      </trkpt>
      <trkpt lat="49.75265" lon="4.81747">
        <ele>205</ele>
        <time>2022-06-17T12:51:01.000Z</time>
      </trkpt>
      <trkpt lat="49.75267" lon="4.81749">
        <ele>205</ele>
        <time>2022-06-17T12:51:02.000Z</time>
      </trkpt>
      <trkpt lat="49.7527" lon="4.81751">
        <ele>205</ele>
        <time>2022-06-17T12:51:03.000Z</time>
      </trkpt>
      <trkpt lat="49.75273" lon="4.81752">
        <ele>206</ele>
        <time>2022-06-17T12:51:04.000Z</time>
      </trkpt>
      <trkpt lat="49.75275" lon="4.81753">
        <ele>206</ele>
        <time>2022-06-17T12:51:05.000Z</time>
      </trkpt>
      <trkpt lat="49.75278" lon="4.81754">
        <ele>206</ele>
        <time>2022-06-17T12:51:06.000Z</time>
      </trkpt>
      <trkpt lat="49.75281" lon="4.81755">
        <ele>207</ele>
        <time>2022-06-17T12:51:07.000Z</time>
      </trkpt>
      <trkpt lat="49.75284" lon="4.81755">
        <ele>207</ele>
        <time>2022-06-17T12:51:08.000Z</time>
      </trkpt>
      <trkpt lat="49.75286" lon="4.81756">
        <ele>208</ele>
        <time>2022-06-17T12:51:09.000Z</time>
      </trkpt>
      <trkpt lat="49.75289" lon="4.81756">
        <ele>208</ele>
        <time>2022-06-17T12:51:10.000Z</time>
      </trkpt>
      <trkpt lat="49.75292" lon="4.81756">
        <ele>209</ele>
        <time>2022-06-17T12:51:11.000Z</time>
      </trkpt>
      <trkpt lat="49.75295" lon="4.81757">
        <ele>209</ele>
        <time>2022-06-17T12:51:12.000Z</time>
      </trkpt>
      <trkpt lat="49.75298" lon="4.81757">
        <ele>209</ele>
        <time>2022-06-17T12:51:13.000Z</time>
      </trkpt>
      <trkpt lat="49.75301" lon="4.81757">
        <ele>210</ele>
        <time>2022-06-17T12:51:14.000Z</time>
      </trkpt>
      <trkpt lat="49.75304" lon="4.81758">
        <ele>210</ele>
        <time>2022-06-17T12:51:15.000Z</time>
      </trkpt>
      <trkpt lat="49.75306" lon="4.81758">
        <ele>210</ele>
        <time>2022-06-17T12:51:16.000Z</time>
      </trkpt>
      <trkpt lat="49.75309" lon="4.81758">
        <ele>210</ele>
        <time>2022-06-17T12:51:17.000Z</time>
      </trkpt>
      <trkpt lat="49.75312" lon="4.81758">
        <ele>210</ele>
        <time>2022-06-17T12:51:18.000Z</time>
      </trkpt>
      <trkpt lat="49.75315" lon="4.81758">
        <ele>211</ele>
        <time>2022-06-17T12:51:19.000Z</time>
      </trkpt>
      <trkpt lat="49.75318" lon="4.81758">
        <ele>211</ele>
        <time>2022-06-17T12:51:20.000Z</time>
      </trkpt>
      <trkpt lat="49.75321" lon="4.81758">
        <ele>211</ele>
        <time>2022-06-17T12:51:21.000Z</time>
      </trkpt>
      <trkpt lat="49.75324" lon="4.81757">
        <ele>211</ele>
        <time>2022-06-17T12:51:22.000Z</time>
      </trkpt>
      <trkpt lat="49.75327" lon="4.81757">
        <ele>212</ele>
        <time>2022-06-17T12:51:23.000Z</time>
      </trkpt>
      <trkpt lat="49.75329" lon="4.81756">
        <ele>212</ele>
        <time>2022-06-17T12:51:24.000Z</time>
      </trkpt>
      <trkpt lat="49.75332" lon="4.81756">
        <ele>212</ele>
        <time>2022-06-17T12:51:25.000Z</time>
      </trkpt>
      <trkpt lat="49.75334" lon="4.81756">
        <ele>212</ele>
        <time>2022-06-17T12:51:26.000Z</time>
      </trkpt>
      <trkpt lat="49.75337" lon="4.81756">
        <ele>213</ele>
        <time>2022-06-17T12:51:27.000Z</time>
      </trkpt>
      <trkpt lat="49.7534" lon="4.81755">
        <ele>213</ele>
        <time>2022-06-17T12:51:28.000Z</time>
      </trkpt>
      <trkpt lat="49.75342" lon="4.81755">
        <ele>213</ele>
        <time>2022-06-17T12:51:29.000Z</time>
      </trkpt>
      <trkpt lat="49.75345" lon="4.81754">
        <ele>214</ele>
        <time>2022-06-17T12:51:30.000Z</time>
      </trkpt>
      <trkpt lat="49.75347" lon="4.81753">
        <ele>214</ele>
        <time>2022-06-17T12:51:31.000Z</time>
      </trkpt>
      <trkpt lat="49.7535" lon="4.81752">
        <ele>214</ele>
        <time>2022-06-17T12:51:32.000Z</time>
      </trkpt>
      <trkpt lat="49.75352" lon="4.81751">
        <ele>215</ele>
        <time>2022-06-17T12:51:33.000Z</time>
      </trkpt>
      <trkpt lat="49.75354" lon="4.81748">
        <ele>215</ele>
        <time>2022-06-17T12:51:34.000Z</time>
      </trkpt>
      <trkpt lat="49.75357" lon="4.81746">
        <ele>215</ele>
        <time>2022-06-17T12:51:35.000Z</time>
      </trkpt>
      <trkpt lat="49.75359" lon="4.81744">
        <ele>216</ele>
        <time>2022-06-17T12:51:36.000Z</time>
      </trkpt>
      <trkpt lat="49.75361" lon="4.81742">
        <ele>216</ele>
        <time>2022-06-17T12:51:37.000Z</time>
      </trkpt>
      <trkpt lat="49.75364" lon="4.81741">
        <ele>216</ele>
        <time>2022-06-17T12:51:38.000Z</time>
      </trkpt>
      <trkpt lat="49.75366" lon="4.81739">
        <ele>217</ele>
        <time>2022-06-17T12:51:39.000Z</time>
      </trkpt>
      <trkpt lat="49.75368" lon="4.81738">
        <ele>217</ele>
        <time>2022-06-17T12:51:40.000Z</time>
      </trkpt>
      <trkpt lat="49.75369" lon="4.81736">
        <ele>217</ele>
        <time>2022-06-17T12:51:41.000Z</time>
      </trkpt>
      <trkpt lat="49.75371" lon="4.81734">
        <ele>217</ele>
        <time>2022-06-17T12:51:42.000Z</time>
      </trkpt>
      <trkpt lat="49.75373" lon="4.81732">
        <ele>218</ele>
        <time>2022-06-17T12:51:43.000Z</time>
      </trkpt>
      <trkpt lat="49.75375" lon="4.81731">
        <ele>218</ele>
        <time>2022-06-17T12:51:44.000Z</time>
      </trkpt>
      <trkpt lat="49.75376" lon="4.81729">
        <ele>218</ele>
        <time>2022-06-17T12:51:45.000Z</time>
      </trkpt>
      <trkpt lat="49.75378" lon="4.81727">
        <ele>218</ele>
        <time>2022-06-17T12:51:46.000Z</time>
      </trkpt>
      <trkpt lat="49.75379" lon="4.81725">
        <ele>219</ele>
        <time>2022-06-17T12:51:47.000Z</time>
      </trkpt>
      <trkpt lat="49.75381" lon="4.81723">
        <ele>219</ele>
        <time>2022-06-17T12:51:48.000Z</time>
      </trkpt>
      <trkpt lat="49.75383" lon="4.81721">
        <ele>219</ele>
        <time>2022-06-17T12:51:49.000Z</time>
      </trkpt>
      <trkpt lat="49.75384" lon="4.81719">
        <ele>219</ele>
        <time>2022-06-17T12:51:50.000Z</time>
      </trkpt>
      <trkpt lat="49.75386" lon="4.81718">
        <ele>220</ele>
        <time>2022-06-17T12:51:51.000Z</time>
      </trkpt>
      <trkpt lat="49.75388" lon="4.81716">
        <ele>220</ele>
        <time>2022-06-17T12:51:52.000Z</time>
      </trkpt>
      <trkpt lat="49.7539" lon="4.81714">
        <ele>220</ele>
        <time>2022-06-17T12:51:53.000Z</time>
      </trkpt>
      <trkpt lat="49.75392" lon="4.81713">
        <ele>220</ele>
        <time>2022-06-17T12:51:54.000Z</time>
      </trkpt>
      <trkpt lat="49.75394" lon="4.81711">
        <ele>221</ele>
        <time>2022-06-17T12:51:55.000Z</time>
      </trkpt>
      <trkpt lat="49.75396" lon="4.81709">
        <ele>221</ele>
        <time>2022-06-17T12:51:56.000Z</time>
      </trkpt>
      <trkpt lat="49.75398" lon="4.81708">
        <ele>221</ele>
        <time>2022-06-17T12:51:57.000Z</time>
      </trkpt>
      <trkpt lat="49.754" lon="4.81706">
        <ele>221</ele>
        <time>2022-06-17T12:51:58.000Z</time>
      </trkpt>
      <trkpt lat="49.75403" lon="4.81705">
        <ele>221</ele>
        <time>2022-06-17T12:51:59.000Z</time>
      </trkpt>
      <trkpt lat="49.75406" lon="4.81703">
        <ele>222</ele>
        <time>2022-06-17T12:52:00.000Z</time>
      </trkpt>
      <trkpt lat="49.75408" lon="4.81701">
        <ele>222</ele>
        <time>2022-06-17T12:52:01.000Z</time>
      </trkpt>
      <trkpt lat="49.75411" lon="4.817">
        <ele>222</ele>
        <time>2022-06-17T12:52:02.000Z</time>
      </trkpt>
      <trkpt lat="49.75413" lon="4.81698">
        <ele>222</ele>
        <time>2022-06-17T12:52:03.000Z</time>
      </trkpt>
      <trkpt lat="49.75416" lon="4.81696">
        <ele>222</ele>
        <time>2022-06-17T12:52:04.000Z</time>
      </trkpt>
      <trkpt lat="49.75418" lon="4.81694">
        <ele>223</ele>
        <time>2022-06-17T12:52:05.000Z</time>
      </trkpt>
      <trkpt lat="49.7542" lon="4.81693">
        <ele>223</ele>
        <time>2022-06-17T12:52:06.000Z</time>
      </trkpt>
      <trkpt lat="49.75423" lon="4.81691">
        <ele>223</ele>
        <time>2022-06-17T12:52:07.000Z</time>
      </trkpt>
      <trkpt lat="49.75425" lon="4.81689">
        <ele>224</ele>
        <time>2022-06-17T12:52:08.000Z</time>
      </trkpt>
      <trkpt lat="49.75428" lon="4.81689">
        <ele>224</ele>
        <time>2022-06-17T12:52:09.000Z</time>
      </trkpt>
      <trkpt lat="49.7543" lon="4.81687">
        <ele>224</ele>
        <time>2022-06-17T12:52:10.000Z</time>
      </trkpt>
      <trkpt lat="49.75432" lon="4.81686">
        <ele>224</ele>
        <time>2022-06-17T12:52:11.000Z</time>
      </trkpt>
      <trkpt lat="49.75434" lon="4.81685">
        <ele>224</ele>
        <time>2022-06-17T12:52:12.000Z</time>
      </trkpt>
      <trkpt lat="49.75437" lon="4.81683">
        <ele>225</ele>
        <time>2022-06-17T12:52:13.000Z</time>
      </trkpt>
      <trkpt lat="49.75439" lon="4.81682">
        <ele>225</ele>
        <time>2022-06-17T12:52:14.000Z</time>
      </trkpt>
      <trkpt lat="49.75442" lon="4.8168">
        <ele>225</ele>
        <time>2022-06-17T12:52:15.000Z</time>
      </trkpt>
      <trkpt lat="49.75444" lon="4.81678">
        <ele>225</ele>
        <time>2022-06-17T12:52:16.000Z</time>
      </trkpt>
      <trkpt lat="49.75446" lon="4.81676">
        <ele>226</ele>
        <time>2022-06-17T12:52:17.000Z</time>
      </trkpt>
      <trkpt lat="49.75449" lon="4.81675">
        <ele>226</ele>
        <time>2022-06-17T12:52:18.000Z</time>
      </trkpt>
      <trkpt lat="49.75451" lon="4.81673">
        <ele>226</ele>
        <time>2022-06-17T12:52:19.000Z</time>
      </trkpt>
      <trkpt lat="49.75454" lon="4.81671">
        <ele>227</ele>
        <time>2022-06-17T12:52:20.000Z</time>
      </trkpt>
      <trkpt lat="49.75456" lon="4.81669">
        <ele>227</ele>
        <time>2022-06-17T12:52:21.000Z</time>
      </trkpt>
      <trkpt lat="49.75459" lon="4.81668">
        <ele>227</ele>
        <time>2022-06-17T12:52:22.000Z</time>
      </trkpt>
      <trkpt lat="49.75462" lon="4.81667">
        <ele>227</ele>
        <time>2022-06-17T12:52:23.000Z</time>
      </trkpt>
      <trkpt lat="49.75464" lon="4.81665">
        <ele>228</ele>
        <time>2022-06-17T12:52:24.000Z</time>
      </trkpt>
      <trkpt lat="49.75467" lon="4.81664">
        <ele>228</ele>
        <time>2022-06-17T12:52:25.000Z</time>
      </trkpt>
      <trkpt lat="49.75469" lon="4.81663">
        <ele>228</ele>
        <time>2022-06-17T12:52:26.000Z</time>
      </trkpt>
      <trkpt lat="49.75472" lon="4.81662">
        <ele>228</ele>
        <time>2022-06-17T12:52:27.000Z</time>
      </trkpt>
      <trkpt lat="49.75474" lon="4.81661">
        <ele>229</ele>
        <time>2022-06-17T12:52:28.000Z</time>
      </trkpt>
      <trkpt lat="49.75477" lon="4.81661">
        <ele>229</ele>
        <time>2022-06-17T12:52:29.000Z</time>
      </trkpt>
      <trkpt lat="49.75479" lon="4.81659">
        <ele>229</ele>
        <time>2022-06-17T12:52:30.000Z</time>
      </trkpt>
      <trkpt lat="49.75482" lon="4.81658">
        <ele>229</ele>
        <time>2022-06-17T12:52:31.000Z</time>
      </trkpt>
      <trkpt lat="49.75485" lon="4.81657">
        <ele>229</ele>
        <time>2022-06-17T12:52:32.000Z</time>
      </trkpt>
      <trkpt lat="49.75488" lon="4.81655">
        <ele>229</ele>
        <time>2022-06-17T12:52:33.000Z</time>
      </trkpt>
      <trkpt lat="49.75491" lon="4.81653">
        <ele>230</ele>
        <time>2022-06-17T12:52:34.000Z</time>
      </trkpt>
      <trkpt lat="49.75494" lon="4.81651">
        <ele>230</ele>
        <time>2022-06-17T12:52:35.000Z</time>
      </trkpt>
      <trkpt lat="49.75496" lon="4.81649">
        <ele>230</ele>
        <time>2022-06-17T12:52:36.000Z</time>
      </trkpt>
      <trkpt lat="49.75499" lon="4.81647">
        <ele>230</ele>
        <time>2022-06-17T12:52:37.000Z</time>
      </trkpt>
      <trkpt lat="49.75501" lon="4.81645">
        <ele>230</ele>
        <time>2022-06-17T12:52:38.000Z</time>
      </trkpt>
      <trkpt lat="49.75504" lon="4.81643">
        <ele>230</ele>
        <time>2022-06-17T12:52:39.000Z</time>
      </trkpt>
      <trkpt lat="49.75506" lon="4.81641">
        <ele>230</ele>
        <time>2022-06-17T12:52:40.000Z</time>
      </trkpt>
      <trkpt lat="49.75508" lon="4.81639">
        <ele>230</ele>
        <time>2022-06-17T12:52:41.000Z</time>
      </trkpt>
      <trkpt lat="49.7551" lon="4.81637">
        <ele>230</ele>
        <time>2022-06-17T12:52:42.000Z</time>
      </trkpt>
      <trkpt lat="49.75512" lon="4.81635">
        <ele>230</ele>
        <time>2022-06-17T12:52:43.000Z</time>
      </trkpt>
      <trkpt lat="49.75515" lon="4.81632">
        <ele>230</ele>
        <time>2022-06-17T12:52:44.000Z</time>
      </trkpt>
      <trkpt lat="49.75517" lon="4.8163">
        <ele>231</ele>
        <time>2022-06-17T12:52:45.000Z</time>
      </trkpt>
      <trkpt lat="49.75519" lon="4.81628">
        <ele>231</ele>
        <time>2022-06-17T12:52:46.000Z</time>
      </trkpt>
      <trkpt lat="49.75522" lon="4.81626">
        <ele>231</ele>
        <time>2022-06-17T12:52:47.000Z</time>
      </trkpt>
      <trkpt lat="49.75524" lon="4.81624">
        <ele>231</ele>
        <time>2022-06-17T12:52:48.000Z</time>
      </trkpt>
      <trkpt lat="49.75527" lon="4.81622">
        <ele>231</ele>
        <time>2022-06-17T12:52:49.000Z</time>
      </trkpt>
      <trkpt lat="49.75529" lon="4.81619">
        <ele>231</ele>
        <time>2022-06-17T12:52:50.000Z</time>
      </trkpt>
      <trkpt lat="49.75531" lon="4.81617">
        <ele>231</ele>
        <time>2022-06-17T12:52:51.000Z</time>
      </trkpt>
      <trkpt lat="49.75533" lon="4.81615">
        <ele>232</ele>
        <time>2022-06-17T12:52:52.000Z</time>
      </trkpt>
      <trkpt lat="49.75535" lon="4.81613">
        <ele>232</ele>
        <time>2022-06-17T12:52:53.000Z</time>
      </trkpt>
      <trkpt lat="49.75537" lon="4.81611">
        <ele>232</ele>
        <time>2022-06-17T12:52:54.000Z</time>
      </trkpt>
      <trkpt lat="49.75539" lon="4.81609">
        <ele>232</ele>
        <time>2022-06-17T12:52:55.000Z</time>
      </trkpt>
      <trkpt lat="49.75542" lon="4.81607">
        <ele>232</ele>
        <time>2022-06-17T12:52:56.000Z</time>
      </trkpt>
      <trkpt lat="49.75544" lon="4.81605">
        <ele>232</ele>
        <time>2022-06-17T12:52:57.000Z</time>
      </trkpt>
      <trkpt lat="49.75546" lon="4.81602">
        <ele>232</ele>
        <time>2022-06-17T12:52:58.000Z</time>
      </trkpt>
      <trkpt lat="49.75548" lon="4.81599">
        <ele>233</ele>
        <time>2022-06-17T12:52:59.000Z</time>
      </trkpt>
      <trkpt lat="49.7555" lon="4.81596">
        <ele>233</ele>
        <time>2022-06-17T12:53:00.000Z</time>
      </trkpt>
      <trkpt lat="49.75552" lon="4.81593">
        <ele>233</ele>
        <time>2022-06-17T12:53:01.000Z</time>
      </trkpt>
      <trkpt lat="49.75554" lon="4.8159">
        <ele>233</ele>
        <time>2022-06-17T12:53:02.000Z</time>
      </trkpt>
      <trkpt lat="49.75556" lon="4.81587">
        <ele>233</ele>
        <time>2022-06-17T12:53:03.000Z</time>
      </trkpt>
      <trkpt lat="49.75558" lon="4.81584">
        <ele>233</ele>
        <time>2022-06-17T12:53:04.000Z</time>
      </trkpt>
      <trkpt lat="49.7556" lon="4.81581">
        <ele>233</ele>
        <time>2022-06-17T12:53:05.000Z</time>
      </trkpt>
      <trkpt lat="49.75562" lon="4.81578">
        <ele>234</ele>
        <time>2022-06-17T12:53:06.000Z</time>
      </trkpt>
      <trkpt lat="49.75564" lon="4.81574">
        <ele>234</ele>
        <time>2022-06-17T12:53:07.000Z</time>
      </trkpt>
      <trkpt lat="49.75566" lon="4.81571">
        <ele>234</ele>
        <time>2022-06-17T12:53:08.000Z</time>
      </trkpt>
      <trkpt lat="49.75569" lon="4.81567">
        <ele>234</ele>
        <time>2022-06-17T12:53:09.000Z</time>
      </trkpt>
      <trkpt lat="49.75571" lon="4.81564">
        <ele>234</ele>
        <time>2022-06-17T12:53:10.000Z</time>
      </trkpt>
      <trkpt lat="49.75574" lon="4.8156">
        <ele>235</ele>
        <time>2022-06-17T12:53:11.000Z</time>
      </trkpt>
      <trkpt lat="49.75576" lon="4.81557">
        <ele>235</ele>
        <time>2022-06-17T12:53:12.000Z</time>
      </trkpt>
      <trkpt lat="49.75579" lon="4.81554">
        <ele>235</ele>
        <time>2022-06-17T12:53:13.000Z</time>
      </trkpt>
      <trkpt lat="49.75581" lon="4.81551">
        <ele>235</ele>
        <time>2022-06-17T12:53:14.000Z</time>
      </trkpt>
      <trkpt lat="49.75584" lon="4.81548">
        <ele>236</ele>
        <time>2022-06-17T12:53:15.000Z</time>
      </trkpt>
      <trkpt lat="49.75586" lon="4.81545">
        <ele>236</ele>
        <time>2022-06-17T12:53:16.000Z</time>
      </trkpt>
      <trkpt lat="49.75588" lon="4.81542">
        <ele>236</ele>
        <time>2022-06-17T12:53:17.000Z</time>
      </trkpt>
      <trkpt lat="49.75591" lon="4.81539">
        <ele>237</ele>
        <time>2022-06-17T12:53:18.000Z</time>
      </trkpt>
      <trkpt lat="49.75593" lon="4.81536">
        <ele>237</ele>
        <time>2022-06-17T12:53:19.000Z</time>
      </trkpt>
      <trkpt lat="49.75595" lon="4.81534">
        <ele>237</ele>
        <time>2022-06-17T12:53:20.000Z</time>
      </trkpt>
      <trkpt lat="49.75598" lon="4.81531">
        <ele>237</ele>
        <time>2022-06-17T12:53:21.000Z</time>
      </trkpt>
      <trkpt lat="49.756" lon="4.81529">
        <ele>238</ele>
        <time>2022-06-17T12:53:22.000Z</time>
      </trkpt>
      <trkpt lat="49.75603" lon="4.81526">
        <ele>238</ele>
        <time>2022-06-17T12:53:23.000Z</time>
      </trkpt>
      <trkpt lat="49.75605" lon="4.81524">
        <ele>238</ele>
        <time>2022-06-17T12:53:24.000Z</time>
      </trkpt>
      <trkpt lat="49.75607" lon="4.81522">
        <ele>238</ele>
        <time>2022-06-17T12:53:25.000Z</time>
      </trkpt>
      <trkpt lat="49.7561" lon="4.81519">
        <ele>239</ele>
        <time>2022-06-17T12:53:26.000Z</time>
      </trkpt>
      <trkpt lat="49.75612" lon="4.81517">
        <ele>239</ele>
        <time>2022-06-17T12:53:27.000Z</time>
      </trkpt>
      <trkpt lat="49.75615" lon="4.81515">
        <ele>239</ele>
        <time>2022-06-17T12:53:28.000Z</time>
      </trkpt>
      <trkpt lat="49.75618" lon="4.81513">
        <ele>239</ele>
        <time>2022-06-17T12:53:29.000Z</time>
      </trkpt>
      <trkpt lat="49.7562" lon="4.81511">
        <ele>239</ele>
        <time>2022-06-17T12:53:30.000Z</time>
      </trkpt>
      <trkpt lat="49.75623" lon="4.81509">
        <ele>240</ele>
        <time>2022-06-17T12:53:31.000Z</time>
      </trkpt>
      <trkpt lat="49.75626" lon="4.81507">
        <ele>240</ele>
        <time>2022-06-17T12:53:32.000Z</time>
      </trkpt>
      <trkpt lat="49.75628" lon="4.81505">
        <ele>240</ele>
        <time>2022-06-17T12:53:33.000Z</time>
      </trkpt>
      <trkpt lat="49.75631" lon="4.81503">
        <ele>240</ele>
        <time>2022-06-17T12:53:34.000Z</time>
      </trkpt>
      <trkpt lat="49.75634" lon="4.81502">
        <ele>241</ele>
        <time>2022-06-17T12:53:35.000Z</time>
      </trkpt>
      <trkpt lat="49.75637" lon="4.815">
        <ele>241</ele>
        <time>2022-06-17T12:53:36.000Z</time>
      </trkpt>
      <trkpt lat="49.7564" lon="4.81499">
        <ele>241</ele>
        <time>2022-06-17T12:53:37.000Z</time>
      </trkpt>
      <trkpt lat="49.75643" lon="4.81497">
        <ele>241</ele>
        <time>2022-06-17T12:53:38.000Z</time>
      </trkpt>
      <trkpt lat="49.75646" lon="4.81495">
        <ele>241</ele>
        <time>2022-06-17T12:53:39.000Z</time>
      </trkpt>
      <trkpt lat="49.75649" lon="4.81494">
        <ele>242</ele>
        <time>2022-06-17T12:53:40.000Z</time>
      </trkpt>
      <trkpt lat="49.75652" lon="4.81493">
        <ele>242</ele>
        <time>2022-06-17T12:53:41.000Z</time>
      </trkpt>
      <trkpt lat="49.75655" lon="4.81492">
        <ele>242</ele>
        <time>2022-06-17T12:53:42.000Z</time>
      </trkpt>
      <trkpt lat="49.75658" lon="4.81491">
        <ele>242</ele>
        <time>2022-06-17T12:53:43.000Z</time>
      </trkpt>
      <trkpt lat="49.75661" lon="4.8149">
        <ele>242</ele>
        <time>2022-06-17T12:53:44.000Z</time>
      </trkpt>
      <trkpt lat="49.75664" lon="4.81489">
        <ele>242</ele>
        <time>2022-06-17T12:53:45.000Z</time>
      </trkpt>
      <trkpt lat="49.75667" lon="4.81488">
        <ele>243</ele>
        <time>2022-06-17T12:53:46.000Z</time>
      </trkpt>
      <trkpt lat="49.7567" lon="4.81487">
        <ele>243</ele>
        <time>2022-06-17T12:53:47.000Z</time>
      </trkpt>
      <trkpt lat="49.75673" lon="4.81485">
        <ele>243</ele>
        <time>2022-06-17T12:53:48.000Z</time>
      </trkpt>
      <trkpt lat="49.75676" lon="4.81484">
        <ele>244</ele>
        <time>2022-06-17T12:53:49.000Z</time>
      </trkpt>
      <trkpt lat="49.75679" lon="4.81483">
        <ele>244</ele>
        <time>2022-06-17T12:53:50.000Z</time>
      </trkpt>
      <trkpt lat="49.75682" lon="4.81482">
        <ele>244</ele>
        <time>2022-06-17T12:53:51.000Z</time>
      </trkpt>
      <trkpt lat="49.75685" lon="4.81481">
        <ele>244</ele>
        <time>2022-06-17T12:53:52.000Z</time>
      </trkpt>
      <trkpt lat="49.75688" lon="4.8148">
        <ele>245</ele>
        <time>2022-06-17T12:53:53.000Z</time>
      </trkpt>
      <trkpt lat="49.7569" lon="4.81479">
        <ele>245</ele>
        <time>2022-06-17T12:53:54.000Z</time>
      </trkpt>
      <trkpt lat="49.75693" lon="4.81478">
        <ele>245</ele>
        <time>2022-06-17T12:53:55.000Z</time>
      </trkpt>
      <trkpt lat="49.75696" lon="4.81477">
        <ele>246</ele>
        <time>2022-06-17T12:53:56.000Z</time>
      </trkpt>
      <trkpt lat="49.75699" lon="4.81475">
        <ele>246</ele>
        <time>2022-06-17T12:53:57.000Z</time>
      </trkpt>
      <trkpt lat="49.75702" lon="4.81474">
        <ele>246</ele>
        <time>2022-06-17T12:53:58.000Z</time>
      </trkpt>
      <trkpt lat="49.75705" lon="4.81473">
        <ele>246</ele>
        <time>2022-06-17T12:53:59.000Z</time>
      </trkpt>
      <trkpt lat="49.75708" lon="4.81471">
        <ele>247</ele>
        <time>2022-06-17T12:54:00.000Z</time>
      </trkpt>
      <trkpt lat="49.75711" lon="4.8147">
        <ele>247</ele>
        <time>2022-06-17T12:54:01.000Z</time>
      </trkpt>
      <trkpt lat="49.75714" lon="4.81468">
        <ele>247</ele>
        <time>2022-06-17T12:54:02.000Z</time>
      </trkpt>
      <trkpt lat="49.75717" lon="4.81467">
        <ele>247</ele>
        <time>2022-06-17T12:54:03.000Z</time>
      </trkpt>
      <trkpt lat="49.7572" lon="4.81466">
        <ele>247</ele>
        <time>2022-06-17T12:54:04.000Z</time>
      </trkpt>
      <trkpt lat="49.75723" lon="4.81465">
        <ele>248</ele>
        <time>2022-06-17T12:54:05.000Z</time>
      </trkpt>
      <trkpt lat="49.75726" lon="4.81463">
        <ele>248</ele>
        <time>2022-06-17T12:54:06.000Z</time>
      </trkpt>
      <trkpt lat="49.75729" lon="4.81462">
        <ele>248</ele>
        <time>2022-06-17T12:54:07.000Z</time>
      </trkpt>
      <trkpt lat="49.75732" lon="4.81461">
        <ele>248</ele>
        <time>2022-06-17T12:54:08.000Z</time>
      </trkpt>
      <trkpt lat="49.75735" lon="4.81459">
        <ele>248</ele>
        <time>2022-06-17T12:54:09.000Z</time>
      </trkpt>
      <trkpt lat="49.75738" lon="4.81458">
        <ele>249</ele>
        <time>2022-06-17T12:54:10.000Z</time>
      </trkpt>
      <trkpt lat="49.75741" lon="4.81456">
        <ele>249</ele>
        <time>2022-06-17T12:54:11.000Z</time>
      </trkpt>
      <trkpt lat="49.75744" lon="4.81455">
        <ele>249</ele>
        <time>2022-06-17T12:54:12.000Z</time>
      </trkpt>
      <trkpt lat="49.75747" lon="4.81453">
        <ele>249</ele>
        <time>2022-06-17T12:54:13.000Z</time>
      </trkpt>
      <trkpt lat="49.7575" lon="4.81451">
        <ele>249</ele>
        <time>2022-06-17T12:54:14.000Z</time>
      </trkpt>
      <trkpt lat="49.75753" lon="4.8145">
        <ele>249</ele>
        <time>2022-06-17T12:54:15.000Z</time>
      </trkpt>
      <trkpt lat="49.75756" lon="4.81448">
        <ele>250</ele>
        <time>2022-06-17T12:54:16.000Z</time>
      </trkpt>
      <trkpt lat="49.75759" lon="4.81447">
        <ele>250</ele>
        <time>2022-06-17T12:54:17.000Z</time>
      </trkpt>
      <trkpt lat="49.75761" lon="4.81445">
        <ele>250</ele>
        <time>2022-06-17T12:54:18.000Z</time>
      </trkpt>
      <trkpt lat="49.75763" lon="4.81443">
        <ele>250</ele>
        <time>2022-06-17T12:54:19.000Z</time>
      </trkpt>
      <trkpt lat="49.75766" lon="4.81441">
        <ele>250</ele>
        <time>2022-06-17T12:54:20.000Z</time>
      </trkpt>
      <trkpt lat="49.75768" lon="4.8144">
        <ele>251</ele>
        <time>2022-06-17T12:54:21.000Z</time>
      </trkpt>
      <trkpt lat="49.75771" lon="4.81438">
        <ele>251</ele>
        <time>2022-06-17T12:54:22.000Z</time>
      </trkpt>
      <trkpt lat="49.75774" lon="4.81436">
        <ele>251</ele>
        <time>2022-06-17T12:54:23.000Z</time>
      </trkpt>
      <trkpt lat="49.75777" lon="4.81434">
        <ele>251</ele>
        <time>2022-06-17T12:54:24.000Z</time>
      </trkpt>
      <trkpt lat="49.75779" lon="4.81432">
        <ele>251</ele>
        <time>2022-06-17T12:54:25.000Z</time>
      </trkpt>
      <trkpt lat="49.75782" lon="4.8143">
        <ele>251</ele>
        <time>2022-06-17T12:54:26.000Z</time>
      </trkpt>
      <trkpt lat="49.75784" lon="4.81428">
        <ele>252</ele>
        <time>2022-06-17T12:54:27.000Z</time>
      </trkpt>
      <trkpt lat="49.75787" lon="4.81427">
        <ele>252</ele>
        <time>2022-06-17T12:54:28.000Z</time>
      </trkpt>
      <trkpt lat="49.75789" lon="4.81425">
        <ele>252</ele>
        <time>2022-06-17T12:54:29.000Z</time>
      </trkpt>
      <trkpt lat="49.75791" lon="4.81424">
        <ele>252</ele>
        <time>2022-06-17T12:54:30.000Z</time>
      </trkpt>
      <trkpt lat="49.75792" lon="4.81423">
        <ele>252</ele>
        <time>2022-06-17T12:54:31.000Z</time>
      </trkpt>
      <trkpt lat="49.75793" lon="4.81422">
        <ele>252</ele>
        <time>2022-06-17T12:54:32.000Z</time>
      </trkpt>
      <trkpt lat="49.75793" lon="4.81422">
        <ele>252</ele>
        <time>2022-06-17T12:54:33.000Z</time>
      </trkpt>
      <trkpt lat="49.75793" lon="4.81422">
        <ele>253</ele>
        <time>2022-06-17T12:54:34.000Z</time>
      </trkpt>
      <trkpt lat="49.75793" lon="4.81422">
        <ele>253</ele>
        <time>2022-06-17T12:54:35.000Z</time>
      </trkpt>
      <trkpt lat="49.75793" lon="4.81422">
        <ele>253</ele>
        <time>2022-06-17T12:54:36.000Z</time>
      </trkpt>
      <trkpt lat="49.75792" lon="4.81421">
        <ele>253</ele>
        <time>2022-06-17T12:54:37.000Z</time>
      </trkpt>
      <trkpt lat="49.75793" lon="4.81421">
        <ele>253</ele>
        <time>2022-06-17T12:54:38.000Z</time>
      </trkpt>
      <trkpt lat="49.75793" lon="4.81421">
        <ele>253</ele>
        <time>2022-06-17T12:54:39.000Z</time>
      </trkpt>
      <trkpt lat="49.75793" lon="4.8142">
        <ele>253</ele>
        <time>2022-06-17T12:54:40.000Z</time>
      </trkpt>
      <trkpt lat="49.75794" lon="4.81418">
        <ele>253</ele>
        <time>2022-06-17T12:54:41.000Z</time>
      </trkpt>
      <trkpt lat="49.75795" lon="4.81417">
        <ele>253</ele>
        <time>2022-06-17T12:54:42.000Z</time>
      </trkpt>
      <trkpt lat="49.75796" lon="4.81416">
        <ele>253</ele>
        <time>2022-06-17T12:54:43.000Z</time>
      </trkpt>
      <trkpt lat="49.75797" lon="4.81414">
        <ele>254</ele>
        <time>2022-06-17T12:54:44.000Z</time>
      </trkpt>
      <trkpt lat="49.75799" lon="4.81412">
        <ele>254</ele>
        <time>2022-06-17T12:54:45.000Z</time>
      </trkpt>
      <trkpt lat="49.75802" lon="4.8141">
        <ele>254</ele>
        <time>2022-06-17T12:54:46.000Z</time>
      </trkpt>
      <trkpt lat="49.75804" lon="4.81407">
        <ele>254</ele>
        <time>2022-06-17T12:54:47.000Z</time>
      </trkpt>
      <trkpt lat="49.75807" lon="4.81404">
        <ele>254</ele>
        <time>2022-06-17T12:54:48.000Z</time>
      </trkpt>
      <trkpt lat="49.7581" lon="4.81401">
        <ele>254</ele>
        <time>2022-06-17T12:54:49.000Z</time>
      </trkpt>
      <trkpt lat="49.75812" lon="4.81398">
        <ele>254</ele>
        <time>2022-06-17T12:54:50.000Z</time>
      </trkpt>
      <trkpt lat="49.75815" lon="4.81394">
        <ele>254</ele>
        <time>2022-06-17T12:54:51.000Z</time>
      </trkpt>
      <trkpt lat="49.75818" lon="4.81391">
        <ele>254</ele>
        <time>2022-06-17T12:54:52.000Z</time>
      </trkpt>
      <trkpt lat="49.7582" lon="4.81388">
        <ele>254</ele>
        <time>2022-06-17T12:54:53.000Z</time>
      </trkpt>
      <trkpt lat="49.75823" lon="4.81385">
        <ele>255</ele>
        <time>2022-06-17T12:54:54.000Z</time>
      </trkpt>
      <trkpt lat="49.75825" lon="4.81382">
        <ele>255</ele>
        <time>2022-06-17T12:54:55.000Z</time>
      </trkpt>
      <trkpt lat="49.75828" lon="4.81379">
        <ele>255</ele>
        <time>2022-06-17T12:54:56.000Z</time>
      </trkpt>
      <trkpt lat="49.7583" lon="4.81376">
        <ele>255</ele>
        <time>2022-06-17T12:54:57.000Z</time>
      </trkpt>
      <trkpt lat="49.75832" lon="4.81373">
        <ele>255</ele>
        <time>2022-06-17T12:54:58.000Z</time>
      </trkpt>
      <trkpt lat="49.75835" lon="4.81371">
        <ele>255</ele>
        <time>2022-06-17T12:54:59.000Z</time>
      </trkpt>
      <trkpt lat="49.75837" lon="4.81368">
        <ele>256</ele>
        <time>2022-06-17T12:55:00.000Z</time>
      </trkpt>
      <trkpt lat="49.75839" lon="4.81366">
        <ele>256</ele>
        <time>2022-06-17T12:55:01.000Z</time>
      </trkpt>
      <trkpt lat="49.75841" lon="4.81364">
        <ele>256</ele>
        <time>2022-06-17T12:55:02.000Z</time>
      </trkpt>
      <trkpt lat="49.75843" lon="4.81362">
        <ele>256</ele>
        <time>2022-06-17T12:55:03.000Z</time>
      </trkpt>
      <trkpt lat="49.75846" lon="4.81359">
        <ele>256</ele>
        <time>2022-06-17T12:55:04.000Z</time>
      </trkpt>
      <trkpt lat="49.75848" lon="4.81357">
        <ele>256</ele>
        <time>2022-06-17T12:55:05.000Z</time>
      </trkpt>
      <trkpt lat="49.75851" lon="4.81355">
        <ele>256</ele>
        <time>2022-06-17T12:55:06.000Z</time>
      </trkpt>
      <trkpt lat="49.75853" lon="4.81353">
        <ele>256</ele>
        <time>2022-06-17T12:55:07.000Z</time>
      </trkpt>
      <trkpt lat="49.75856" lon="4.81351">
        <ele>256</ele>
        <time>2022-06-17T12:55:08.000Z</time>
      </trkpt>
      <trkpt lat="49.75859" lon="4.81349">
        <ele>257</ele>
        <time>2022-06-17T12:55:09.000Z</time>
      </trkpt>
      <trkpt lat="49.75861" lon="4.81347">
        <ele>257</ele>
        <time>2022-06-17T12:55:10.000Z</time>
      </trkpt>
      <trkpt lat="49.75864" lon="4.81346">
        <ele>257</ele>
        <time>2022-06-17T12:55:11.000Z</time>
      </trkpt>
      <trkpt lat="49.75867" lon="4.81344">
        <ele>257</ele>
        <time>2022-06-17T12:55:12.000Z</time>
      </trkpt>
      <trkpt lat="49.7587" lon="4.81343">
        <ele>257</ele>
        <time>2022-06-17T12:55:13.000Z</time>
      </trkpt>
      <trkpt lat="49.75873" lon="4.81341">
        <ele>258</ele>
        <time>2022-06-17T12:55:14.000Z</time>
      </trkpt>
      <trkpt lat="49.75876" lon="4.81339">
        <ele>258</ele>
        <time>2022-06-17T12:55:15.000Z</time>
      </trkpt>
      <trkpt lat="49.7588" lon="4.81338">
        <ele>258</ele>
        <time>2022-06-17T12:55:16.000Z</time>
      </trkpt>
      <trkpt lat="49.75883" lon="4.81336">
        <ele>258</ele>
        <time>2022-06-17T12:55:17.000Z</time>
      </trkpt>
      <trkpt lat="49.75887" lon="4.81334">
        <ele>258</ele>
        <time>2022-06-17T12:55:18.000Z</time>
      </trkpt>
      <trkpt lat="49.7589" lon="4.81333">
        <ele>258</ele>
        <time>2022-06-17T12:55:19.000Z</time>
      </trkpt>
      <trkpt lat="49.75893" lon="4.81331">
        <ele>259</ele>
        <time>2022-06-17T12:55:20.000Z</time>
      </trkpt>
      <trkpt lat="49.75896" lon="4.8133">
        <ele>259</ele>
        <time>2022-06-17T12:55:21.000Z</time>
      </trkpt>
      <trkpt lat="49.759" lon="4.81329">
        <ele>259</ele>
        <time>2022-06-17T12:55:22.000Z</time>
      </trkpt>
      <trkpt lat="49.75903" lon="4.81328">
        <ele>259</ele>
        <time>2022-06-17T12:55:23.000Z</time>
      </trkpt>
      <trkpt lat="49.75906" lon="4.81327">
        <ele>259</ele>
        <time>2022-06-17T12:55:24.000Z</time>
      </trkpt>
      <trkpt lat="49.7591" lon="4.81326">
        <ele>260</ele>
        <time>2022-06-17T12:55:25.000Z</time>
      </trkpt>
      <trkpt lat="49.75913" lon="4.81326">
        <ele>260</ele>
        <time>2022-06-17T12:55:26.000Z</time>
      </trkpt>
      <trkpt lat="49.75917" lon="4.81326">
        <ele>260</ele>
        <time>2022-06-17T12:55:27.000Z</time>
      </trkpt>
      <trkpt lat="49.7592" lon="4.81326">
        <ele>260</ele>
        <time>2022-06-17T12:55:28.000Z</time>
      </trkpt>
      <trkpt lat="49.75924" lon="4.81327">
        <ele>260</ele>
        <time>2022-06-17T12:55:29.000Z</time>
      </trkpt>
      <trkpt lat="49.75927" lon="4.81328">
        <ele>260</ele>
        <time>2022-06-17T12:55:30.000Z</time>
      </trkpt>
      <trkpt lat="49.75931" lon="4.81329">
        <ele>260</ele>
        <time>2022-06-17T12:55:31.000Z</time>
      </trkpt>
      <trkpt lat="49.75934" lon="4.8133">
        <ele>261</ele>
        <time>2022-06-17T12:55:32.000Z</time>
      </trkpt>
      <trkpt lat="49.75937" lon="4.81331">
        <ele>261</ele>
        <time>2022-06-17T12:55:33.000Z</time>
      </trkpt>
      <trkpt lat="49.75941" lon="4.81332">
        <ele>261</ele>
        <time>2022-06-17T12:55:34.000Z</time>
      </trkpt>
      <trkpt lat="49.75944" lon="4.81333">
        <ele>261</ele>
        <time>2022-06-17T12:55:35.000Z</time>
      </trkpt>
      <trkpt lat="49.75948" lon="4.81334">
        <ele>261</ele>
        <time>2022-06-17T12:55:36.000Z</time>
      </trkpt>
      <trkpt lat="49.75952" lon="4.81335">
        <ele>261</ele>
        <time>2022-06-17T12:55:37.000Z</time>
      </trkpt>
      <trkpt lat="49.75955" lon="4.81336">
        <ele>261</ele>
        <time>2022-06-17T12:55:38.000Z</time>
      </trkpt>
      <trkpt lat="49.75959" lon="4.81337">
        <ele>261</ele>
        <time>2022-06-17T12:55:39.000Z</time>
      </trkpt>
      <trkpt lat="49.75962" lon="4.81338">
        <ele>262</ele>
        <time>2022-06-17T12:55:40.000Z</time>
      </trkpt>
      <trkpt lat="49.75966" lon="4.81339">
        <ele>262</ele>
        <time>2022-06-17T12:55:41.000Z</time>
      </trkpt>
      <trkpt lat="49.7597" lon="4.81341">
        <ele>262</ele>
        <time>2022-06-17T12:55:42.000Z</time>
      </trkpt>
      <trkpt lat="49.75973" lon="4.81342">
        <ele>262</ele>
        <time>2022-06-17T12:55:43.000Z</time>
      </trkpt>
      <trkpt lat="49.75977" lon="4.81344">
        <ele>262</ele>
        <time>2022-06-17T12:55:44.000Z</time>
      </trkpt>
      <trkpt lat="49.75981" lon="4.81345">
        <ele>262</ele>
        <time>2022-06-17T12:55:45.000Z</time>
      </trkpt>
      <trkpt lat="49.75984" lon="4.81347">
        <ele>262</ele>
        <time>2022-06-17T12:55:46.000Z</time>
      </trkpt>
      <trkpt lat="49.75987" lon="4.81349">
        <ele>262</ele>
        <time>2022-06-17T12:55:47.000Z</time>
      </trkpt>
      <trkpt lat="49.7599" lon="4.81352">
        <ele>262</ele>
        <time>2022-06-17T12:55:48.000Z</time>
      </trkpt>
      <trkpt lat="49.75993" lon="4.81354">
        <ele>262</ele>
        <time>2022-06-17T12:55:49.000Z</time>
      </trkpt>
      <trkpt lat="49.75996" lon="4.81356">
        <ele>263</ele>
        <time>2022-06-17T12:55:50.000Z</time>
      </trkpt>
      <trkpt lat="49.76" lon="4.81359">
        <ele>263</ele>
        <time>2022-06-17T12:55:51.000Z</time>
      </trkpt>
      <trkpt lat="49.76004" lon="4.81361">
        <ele>263</ele>
        <time>2022-06-17T12:55:52.000Z</time>
      </trkpt>
      <trkpt lat="49.76007" lon="4.81364">
        <ele>263</ele>
        <time>2022-06-17T12:55:53.000Z</time>
      </trkpt>
      <trkpt lat="49.76011" lon="4.81366">
        <ele>263</ele>
        <time>2022-06-17T12:55:54.000Z</time>
      </trkpt>
      <trkpt lat="49.76014" lon="4.81368">
        <ele>263</ele>
        <time>2022-06-17T12:55:55.000Z</time>
      </trkpt>
      <trkpt lat="49.76018" lon="4.81371">
        <ele>263</ele>
        <time>2022-06-17T12:55:56.000Z</time>
      </trkpt>
      <trkpt lat="49.76021" lon="4.81374">
        <ele>263</ele>
        <time>2022-06-17T12:55:57.000Z</time>
      </trkpt>
      <trkpt lat="49.76025" lon="4.81376">
        <ele>263</ele>
        <time>2022-06-17T12:55:58.000Z</time>
      </trkpt>
      <trkpt lat="49.76028" lon="4.81379">
        <ele>263</ele>
        <time>2022-06-17T12:55:59.000Z</time>
      </trkpt>
      <trkpt lat="49.76032" lon="4.81381">
        <ele>263</ele>
        <time>2022-06-17T12:56:00.000Z</time>
      </trkpt>
      <trkpt lat="49.76035" lon="4.81383">
        <ele>263</ele>
        <time>2022-06-17T12:56:01.000Z</time>
      </trkpt>
      <trkpt lat="49.76039" lon="4.81386">
        <ele>263</ele>
        <time>2022-06-17T12:56:02.000Z</time>
      </trkpt>
      <trkpt lat="49.76042" lon="4.81389">
        <ele>263</ele>
        <time>2022-06-17T12:56:03.000Z</time>
      </trkpt>
      <trkpt lat="49.76046" lon="4.81391">
        <ele>263</ele>
        <time>2022-06-17T12:56:04.000Z</time>
      </trkpt>
      <trkpt lat="49.76049" lon="4.81394">
        <ele>263</ele>
        <time>2022-06-17T12:56:05.000Z</time>
      </trkpt>
      <trkpt lat="49.76053" lon="4.81396">
        <ele>263</ele>
        <time>2022-06-17T12:56:06.000Z</time>
      </trkpt>
      <trkpt lat="49.76057" lon="4.81399">
        <ele>263</ele>
        <time>2022-06-17T12:56:07.000Z</time>
      </trkpt>
      <trkpt lat="49.7606" lon="4.81402">
        <ele>263</ele>
        <time>2022-06-17T12:56:08.000Z</time>
      </trkpt>
      <trkpt lat="49.76064" lon="4.81404">
        <ele>263</ele>
        <time>2022-06-17T12:56:09.000Z</time>
      </trkpt>
      <trkpt lat="49.76067" lon="4.81407">
        <ele>263</ele>
        <time>2022-06-17T12:56:10.000Z</time>
      </trkpt>
      <trkpt lat="49.76071" lon="4.8141">
        <ele>264</ele>
        <time>2022-06-17T12:56:11.000Z</time>
      </trkpt>
      <trkpt lat="49.76074" lon="4.81412">
        <ele>264</ele>
        <time>2022-06-17T12:56:12.000Z</time>
      </trkpt>
      <trkpt lat="49.76078" lon="4.81414">
        <ele>264</ele>
        <time>2022-06-17T12:56:13.000Z</time>
      </trkpt>
      <trkpt lat="49.76081" lon="4.81417">
        <ele>264</ele>
        <time>2022-06-17T12:56:14.000Z</time>
      </trkpt>
      <trkpt lat="49.76085" lon="4.81419">
        <ele>264</ele>
        <time>2022-06-17T12:56:15.000Z</time>
      </trkpt>
      <trkpt lat="49.76088" lon="4.81421">
        <ele>264</ele>
        <time>2022-06-17T12:56:16.000Z</time>
      </trkpt>
      <trkpt lat="49.76091" lon="4.81423">
        <ele>264</ele>
        <time>2022-06-17T12:56:17.000Z</time>
      </trkpt>
      <trkpt lat="49.76095" lon="4.81426">
        <ele>264</ele>
        <time>2022-06-17T12:56:18.000Z</time>
      </trkpt>
      <trkpt lat="49.76099" lon="4.81428">
        <ele>264</ele>
        <time>2022-06-17T12:56:19.000Z</time>
      </trkpt>
      <trkpt lat="49.76103" lon="4.81429">
        <ele>264</ele>
        <time>2022-06-17T12:56:20.000Z</time>
      </trkpt>
      <trkpt lat="49.76106" lon="4.81431">
        <ele>264</ele>
        <time>2022-06-17T12:56:21.000Z</time>
      </trkpt>
      <trkpt lat="49.76109" lon="4.81433">
        <ele>264</ele>
        <time>2022-06-17T12:56:22.000Z</time>
      </trkpt>
      <trkpt lat="49.76112" lon="4.81434">
        <ele>264</ele>
        <time>2022-06-17T12:56:23.000Z</time>
      </trkpt>
      <trkpt lat="49.76116" lon="4.81435">
        <ele>264</ele>
        <time>2022-06-17T12:56:24.000Z</time>
      </trkpt>
      <trkpt lat="49.76119" lon="4.81436">
        <ele>264</ele>
        <time>2022-06-17T12:56:25.000Z</time>
      </trkpt>
      <trkpt lat="49.76122" lon="4.81437">
        <ele>264</ele>
        <time>2022-06-17T12:56:26.000Z</time>
      </trkpt>
      <trkpt lat="49.76126" lon="4.81437">
        <ele>264</ele>
        <time>2022-06-17T12:56:27.000Z</time>
      </trkpt>
      <trkpt lat="49.76129" lon="4.81437">
        <ele>264</ele>
        <time>2022-06-17T12:56:28.000Z</time>
      </trkpt>
      <trkpt lat="49.76133" lon="4.81437">
        <ele>265</ele>
        <time>2022-06-17T12:56:29.000Z</time>
      </trkpt>
      <trkpt lat="49.76136" lon="4.81438">
        <ele>265</ele>
        <time>2022-06-17T12:56:30.000Z</time>
      </trkpt>
      <trkpt lat="49.76139" lon="4.81438">
        <ele>265</ele>
        <time>2022-06-17T12:56:31.000Z</time>
      </trkpt>
      <trkpt lat="49.76142" lon="4.81438">
        <ele>265</ele>
        <time>2022-06-17T12:56:32.000Z</time>
      </trkpt>
      <trkpt lat="49.76145" lon="4.81439">
        <ele>265</ele>
        <time>2022-06-17T12:56:33.000Z</time>
      </trkpt>
      <trkpt lat="49.76149" lon="4.8144">
        <ele>265</ele>
        <time>2022-06-17T12:56:34.000Z</time>
      </trkpt>
      <trkpt lat="49.76152" lon="4.81441">
        <ele>265</ele>
        <time>2022-06-17T12:56:35.000Z</time>
      </trkpt>
      <trkpt lat="49.76155" lon="4.81441">
        <ele>265</ele>
        <time>2022-06-17T12:56:36.000Z</time>
      </trkpt>
      <trkpt lat="49.76158" lon="4.81442">
        <ele>265</ele>
        <time>2022-06-17T12:56:37.000Z</time>
      </trkpt>
      <trkpt lat="49.76161" lon="4.81443">
        <ele>266</ele>
        <time>2022-06-17T12:56:38.000Z</time>
      </trkpt>
      <trkpt lat="49.76164" lon="4.81443">
        <ele>266</ele>
        <time>2022-06-17T12:56:39.000Z</time>
      </trkpt>
      <trkpt lat="49.76168" lon="4.81444">
        <ele>266</ele>
        <time>2022-06-17T12:56:40.000Z</time>
      </trkpt>
      <trkpt lat="49.76171" lon="4.81444">
        <ele>266</ele>
        <time>2022-06-17T12:56:41.000Z</time>
      </trkpt>
      <trkpt lat="49.76174" lon="4.81444">
        <ele>266</ele>
        <time>2022-06-17T12:56:42.000Z</time>
      </trkpt>
      <trkpt lat="49.76177" lon="4.81443">
        <ele>266</ele>
        <time>2022-06-17T12:56:43.000Z</time>
      </trkpt>
      <trkpt lat="49.7618" lon="4.81441">
        <ele>266</ele>
        <time>2022-06-17T12:56:44.000Z</time>
      </trkpt>
      <trkpt lat="49.76182" lon="4.81437">
        <ele>266</ele>
        <time>2022-06-17T12:56:45.000Z</time>
      </trkpt>
      <trkpt lat="49.76184" lon="4.81432">
        <ele>266</ele>
        <time>2022-06-17T12:56:46.000Z</time>
      </trkpt>
      <trkpt lat="49.76185" lon="4.81426">
        <ele>266</ele>
        <time>2022-06-17T12:56:47.000Z</time>
      </trkpt>
      <trkpt lat="49.76187" lon="4.81418">
        <ele>265</ele>
        <time>2022-06-17T12:56:48.000Z</time>
      </trkpt>
      <trkpt lat="49.76188" lon="4.81409">
        <ele>265</ele>
        <time>2022-06-17T12:56:49.000Z</time>
      </trkpt>
      <trkpt lat="49.76189" lon="4.81398">
        <ele>265</ele>
        <time>2022-06-17T12:56:50.000Z</time>
      </trkpt>
      <trkpt lat="49.7619" lon="4.81386">
        <ele>265</ele>
        <time>2022-06-17T12:56:51.000Z</time>
      </trkpt>
      <trkpt lat="49.7619" lon="4.81373">
        <ele>265</ele>
        <time>2022-06-17T12:56:52.000Z</time>
      </trkpt>
      <trkpt lat="49.7619" lon="4.8136">
        <ele>264</ele>
        <time>2022-06-17T12:56:53.000Z</time>
      </trkpt>
      <trkpt lat="49.7619" lon="4.81346">
        <ele>264</ele>
        <time>2022-06-17T12:56:54.000Z</time>
      </trkpt>
      <trkpt lat="49.7619" lon="4.81332">
        <ele>264</ele>
        <time>2022-06-17T12:56:55.000Z</time>
      </trkpt>
      <trkpt lat="49.76191" lon="4.81319">
        <ele>264</ele>
        <time>2022-06-17T12:56:56.000Z</time>
      </trkpt>
      <trkpt lat="49.76191" lon="4.81307">
        <ele>264</ele>
        <time>2022-06-17T12:56:57.000Z</time>
      </trkpt>
      <trkpt lat="49.76192" lon="4.81297">
        <ele>264</ele>
        <time>2022-06-17T12:56:58.000Z</time>
      </trkpt>
      <trkpt lat="49.76192" lon="4.81288">
        <ele>264</ele>
        <time>2022-06-17T12:56:59.000Z</time>
      </trkpt>
      <trkpt lat="49.76191" lon="4.81279">
        <ele>264</ele>
        <time>2022-06-17T12:57:00.000Z</time>
      </trkpt>
      <trkpt lat="49.76192" lon="4.81272">
        <ele>264</ele>
        <time>2022-06-17T12:57:01.000Z</time>
      </trkpt>
      <trkpt lat="49.76192" lon="4.81264">
        <ele>264</ele>
        <time>2022-06-17T12:57:02.000Z</time>
      </trkpt>
      <trkpt lat="49.76191" lon="4.81257">
        <ele>265</ele>
        <time>2022-06-17T12:57:03.000Z</time>
      </trkpt>
      <trkpt lat="49.76191" lon="4.81249">
        <ele>265</ele>
        <time>2022-06-17T12:57:04.000Z</time>
      </trkpt>
      <trkpt lat="49.76192" lon="4.81241">
        <ele>265</ele>
        <time>2022-06-17T12:57:05.000Z</time>
      </trkpt>
      <trkpt lat="49.76192" lon="4.81233">
        <ele>266</ele>
        <time>2022-06-17T12:57:06.000Z</time>
      </trkpt>
      <trkpt lat="49.76192" lon="4.81225">
        <ele>266</ele>
        <time>2022-06-17T12:57:07.000Z</time>
      </trkpt>
      <trkpt lat="49.76192" lon="4.81218">
        <ele>266</ele>
        <time>2022-06-17T12:57:08.000Z</time>
      </trkpt>
      <trkpt lat="49.76193" lon="4.8121">
        <ele>267</ele>
        <time>2022-06-17T12:57:09.000Z</time>
      </trkpt>
      <trkpt lat="49.76193" lon="4.81203">
        <ele>267</ele>
        <time>2022-06-17T12:57:10.000Z</time>
      </trkpt>
      <trkpt lat="49.76193" lon="4.81195">
        <ele>267</ele>
        <time>2022-06-17T12:57:11.000Z</time>
      </trkpt>
      <trkpt lat="49.76193" lon="4.81188">
        <ele>268</ele>
        <time>2022-06-17T12:57:12.000Z</time>
      </trkpt>
      <trkpt lat="49.76194" lon="4.8118">
        <ele>268</ele>
        <time>2022-06-17T12:57:13.000Z</time>
      </trkpt>
      <trkpt lat="49.76194" lon="4.81173">
        <ele>268</ele>
        <time>2022-06-17T12:57:14.000Z</time>
      </trkpt>
      <trkpt lat="49.76193" lon="4.81165">
        <ele>268</ele>
        <time>2022-06-17T12:57:15.000Z</time>
      </trkpt>
      <trkpt lat="49.76193" lon="4.81157">
        <ele>268</ele>
        <time>2022-06-17T12:57:16.000Z</time>
      </trkpt>
      <trkpt lat="49.76193" lon="4.8115">
        <ele>269</ele>
        <time>2022-06-17T12:57:17.000Z</time>
      </trkpt>
      <trkpt lat="49.76193" lon="4.81141">
        <ele>269</ele>
        <time>2022-06-17T12:57:18.000Z</time>
      </trkpt>
      <trkpt lat="49.76194" lon="4.81134">
        <ele>269</ele>
        <time>2022-06-17T12:57:19.000Z</time>
      </trkpt>
      <trkpt lat="49.76194" lon="4.81126">
        <ele>269</ele>
        <time>2022-06-17T12:57:20.000Z</time>
      </trkpt>
      <trkpt lat="49.76195" lon="4.81118">
        <ele>269</ele>
        <time>2022-06-17T12:57:21.000Z</time>
      </trkpt>
      <trkpt lat="49.76196" lon="4.81109">
        <ele>269</ele>
        <time>2022-06-17T12:57:22.000Z</time>
      </trkpt>
      <trkpt lat="49.76196" lon="4.811">
        <ele>269</ele>
        <time>2022-06-17T12:57:23.000Z</time>
      </trkpt>
      <trkpt lat="49.76196" lon="4.81091">
        <ele>270</ele>
        <time>2022-06-17T12:57:24.000Z</time>
      </trkpt>
      <trkpt lat="49.76196" lon="4.8108">
        <ele>270</ele>
        <time>2022-06-17T12:57:25.000Z</time>
      </trkpt>
      <trkpt lat="49.76196" lon="4.8107">
        <ele>270</ele>
        <time>2022-06-17T12:57:26.000Z</time>
      </trkpt>
      <trkpt lat="49.76196" lon="4.8106">
        <ele>270</ele>
        <time>2022-06-17T12:57:27.000Z</time>
      </trkpt>
      <trkpt lat="49.76196" lon="4.81049">
        <ele>270</ele>
        <time>2022-06-17T12:57:28.000Z</time>
      </trkpt>
      <trkpt lat="49.76197" lon="4.81038">
        <ele>270</ele>
        <time>2022-06-17T12:57:29.000Z</time>
      </trkpt>
      <trkpt lat="49.76197" lon="4.81028">
        <ele>270</ele>
        <time>2022-06-17T12:57:30.000Z</time>
      </trkpt>
      <trkpt lat="49.76197" lon="4.81019">
        <ele>270</ele>
        <time>2022-06-17T12:57:31.000Z</time>
      </trkpt>
      <trkpt lat="49.76198" lon="4.81009">
        <ele>270</ele>
        <time>2022-06-17T12:57:32.000Z</time>
      </trkpt>
      <trkpt lat="49.76199" lon="4.81">
        <ele>270</ele>
        <time>2022-06-17T12:57:33.000Z</time>
      </trkpt>
      <trkpt lat="49.76199" lon="4.80991">
        <ele>270</ele>
        <time>2022-06-17T12:57:34.000Z</time>
      </trkpt>
      <trkpt lat="49.762" lon="4.80982">
        <ele>270</ele>
        <time>2022-06-17T12:57:35.000Z</time>
      </trkpt>
      <trkpt lat="49.762" lon="4.80974">
        <ele>270</ele>
        <time>2022-06-17T12:57:36.000Z</time>
      </trkpt>
      <trkpt lat="49.76201" lon="4.80965">
        <ele>270</ele>
        <time>2022-06-17T12:57:37.000Z</time>
      </trkpt>
      <trkpt lat="49.762" lon="4.80957">
        <ele>270</ele>
        <time>2022-06-17T12:57:38.000Z</time>
      </trkpt>
      <trkpt lat="49.762" lon="4.80949">
        <ele>270</ele>
        <time>2022-06-17T12:57:39.000Z</time>
      </trkpt>
      <trkpt lat="49.76199" lon="4.80941">
        <ele>270</ele>
        <time>2022-06-17T12:57:40.000Z</time>
      </trkpt>
      <trkpt lat="49.76197" lon="4.80932">
        <ele>270</ele>
        <time>2022-06-17T12:57:41.000Z</time>
      </trkpt>
      <trkpt lat="49.76197" lon="4.80924">
        <ele>270</ele>
        <time>2022-06-17T12:57:42.000Z</time>
      </trkpt>
      <trkpt lat="49.76198" lon="4.80916">
        <ele>270</ele>
        <time>2022-06-17T12:57:43.000Z</time>
      </trkpt>
      <trkpt lat="49.76201" lon="4.8091">
        <ele>270</ele>
        <time>2022-06-17T12:57:44.000Z</time>
      </trkpt>
      <trkpt lat="49.76204" lon="4.80907">
        <ele>270</ele>
        <time>2022-06-17T12:57:45.000Z</time>
      </trkpt>
      <trkpt lat="49.76208" lon="4.80906">
        <ele>270</ele>
        <time>2022-06-17T12:57:46.000Z</time>
      </trkpt>
      <trkpt lat="49.76213" lon="4.80907">
        <ele>270</ele>
        <time>2022-06-17T12:57:47.000Z</time>
      </trkpt>
      <trkpt lat="49.76216" lon="4.80908">
        <ele>270</ele>
        <time>2022-06-17T12:57:48.000Z</time>
      </trkpt>
      <trkpt lat="49.76218" lon="4.80909">
        <ele>270</ele>
        <time>2022-06-17T12:57:49.000Z</time>
      </trkpt>
      <trkpt lat="49.7622" lon="4.8091">
        <ele>270</ele>
        <time>2022-06-17T12:57:50.000Z</time>
      </trkpt>
      <trkpt lat="49.76222" lon="4.8091">
        <ele>270</ele>
        <time>2022-06-17T12:57:51.000Z</time>
      </trkpt>
      <trkpt lat="49.76224" lon="4.80911">
        <ele>270</ele>
        <time>2022-06-17T12:57:52.000Z</time>
      </trkpt>
      <trkpt lat="49.76227" lon="4.80912">
        <ele>270</ele>
        <time>2022-06-17T12:57:53.000Z</time>
      </trkpt>
      <trkpt lat="49.7623" lon="4.80913">
        <ele>270</ele>
        <time>2022-06-17T12:57:54.000Z</time>
      </trkpt>
      <trkpt lat="49.76233" lon="4.80914">
        <ele>270</ele>
        <time>2022-06-17T12:57:55.000Z</time>
      </trkpt>
      <trkpt lat="49.76236" lon="4.80915">
        <ele>270</ele>
        <time>2022-06-17T12:57:56.000Z</time>
      </trkpt>
      <trkpt lat="49.76238" lon="4.80916">
        <ele>270</ele>
        <time>2022-06-17T12:57:57.000Z</time>
      </trkpt>
      <trkpt lat="49.76241" lon="4.80917">
        <ele>270</ele>
        <time>2022-06-17T12:57:58.000Z</time>
      </trkpt>
      <trkpt lat="49.76244" lon="4.80919">
        <ele>270</ele>
        <time>2022-06-17T12:57:59.000Z</time>
      </trkpt>
      <trkpt lat="49.76247" lon="4.8092">
        <ele>270</ele>
        <time>2022-06-17T12:58:00.000Z</time>
      </trkpt>
      <trkpt lat="49.76249" lon="4.80921">
        <ele>270</ele>
        <time>2022-06-17T12:58:01.000Z</time>
      </trkpt>
      <trkpt lat="49.76252" lon="4.80923">
        <ele>270</ele>
        <time>2022-06-17T12:58:02.000Z</time>
      </trkpt>
      <trkpt lat="49.76255" lon="4.80924">
        <ele>270</ele>
        <time>2022-06-17T12:58:03.000Z</time>
      </trkpt>
      <trkpt lat="49.76258" lon="4.80925">
        <ele>270</ele>
        <time>2022-06-17T12:58:04.000Z</time>
      </trkpt>
      <trkpt lat="49.76261" lon="4.80926">
        <ele>270</ele>
        <time>2022-06-17T12:58:05.000Z</time>
      </trkpt>
      <trkpt lat="49.76264" lon="4.80927">
        <ele>270</ele>
        <time>2022-06-17T12:58:06.000Z</time>
      </trkpt>
      <trkpt lat="49.76267" lon="4.80928">
        <ele>270</ele>
        <time>2022-06-17T12:58:07.000Z</time>
      </trkpt>
      <trkpt lat="49.76269" lon="4.8093">
        <ele>270</ele>
        <time>2022-06-17T12:58:08.000Z</time>
      </trkpt>
      <trkpt lat="49.76272" lon="4.8093">
        <ele>270</ele>
        <time>2022-06-17T12:58:09.000Z</time>
      </trkpt>
      <trkpt lat="49.76275" lon="4.80931">
        <ele>270</ele>
        <time>2022-06-17T12:58:10.000Z</time>
      </trkpt>
      <trkpt lat="49.76277" lon="4.80932">
        <ele>270</ele>
        <time>2022-06-17T12:58:11.000Z</time>
      </trkpt>
      <trkpt lat="49.7628" lon="4.80934">
        <ele>270</ele>
        <time>2022-06-17T12:58:12.000Z</time>
      </trkpt>
      <trkpt lat="49.76282" lon="4.80935">
        <ele>270</ele>
        <time>2022-06-17T12:58:13.000Z</time>
      </trkpt>
      <trkpt lat="49.76285" lon="4.80936">
        <ele>270</ele>
        <time>2022-06-17T12:58:14.000Z</time>
      </trkpt>
      <trkpt lat="49.76287" lon="4.80937">
        <ele>270</ele>
        <time>2022-06-17T12:58:15.000Z</time>
      </trkpt>
      <trkpt lat="49.7629" lon="4.80938">
        <ele>270</ele>
        <time>2022-06-17T12:58:16.000Z</time>
      </trkpt>
      <trkpt lat="49.76292" lon="4.80939">
        <ele>270</ele>
        <time>2022-06-17T12:58:17.000Z</time>
      </trkpt>
      <trkpt lat="49.76295" lon="4.8094">
        <ele>270</ele>
        <time>2022-06-17T12:58:18.000Z</time>
      </trkpt>
      <trkpt lat="49.76297" lon="4.80941">
        <ele>270</ele>
        <time>2022-06-17T12:58:19.000Z</time>
      </trkpt>
      <trkpt lat="49.76299" lon="4.80941">
        <ele>270</ele>
        <time>2022-06-17T12:58:20.000Z</time>
      </trkpt>
      <trkpt lat="49.76301" lon="4.8094">
        <ele>270</ele>
        <time>2022-06-17T12:58:21.000Z</time>
      </trkpt>
      <trkpt lat="49.76304" lon="4.80939">
        <ele>270</ele>
        <time>2022-06-17T12:58:22.000Z</time>
      </trkpt>
      <trkpt lat="49.76306" lon="4.80936">
        <ele>271</ele>
        <time>2022-06-17T12:58:23.000Z</time>
      </trkpt>
      <trkpt lat="49.76307" lon="4.80931">
        <ele>271</ele>
        <time>2022-06-17T12:58:24.000Z</time>
      </trkpt>
      <trkpt lat="49.76308" lon="4.80925">
        <ele>271</ele>
        <time>2022-06-17T12:58:25.000Z</time>
      </trkpt>
      <trkpt lat="49.76309" lon="4.80919">
        <ele>271</ele>
        <time>2022-06-17T12:58:26.000Z</time>
      </trkpt>
      <trkpt lat="49.7631" lon="4.80913">
        <ele>271</ele>
        <time>2022-06-17T12:58:27.000Z</time>
      </trkpt>
      <trkpt lat="49.76311" lon="4.80907">
        <ele>271</ele>
        <time>2022-06-17T12:58:28.000Z</time>
      </trkpt>
      <trkpt lat="49.76312" lon="4.80901">
        <ele>271</ele>
        <time>2022-06-17T12:58:29.000Z</time>
      </trkpt>
      <trkpt lat="49.76313" lon="4.80896">
        <ele>272</ele>
        <time>2022-06-17T12:58:30.000Z</time>
      </trkpt>
      <trkpt lat="49.76314" lon="4.8089">
        <ele>272</ele>
        <time>2022-06-17T12:58:31.000Z</time>
      </trkpt>
      <trkpt lat="49.76315" lon="4.80884">
        <ele>272</ele>
        <time>2022-06-17T12:58:32.000Z</time>
      </trkpt>
      <trkpt lat="49.76315" lon="4.80878">
        <ele>272</ele>
        <time>2022-06-17T12:58:33.000Z</time>
      </trkpt>
      <trkpt lat="49.76316" lon="4.80872">
        <ele>272</ele>
        <time>2022-06-17T12:58:34.000Z</time>
      </trkpt>
      <trkpt lat="49.76316" lon="4.80866">
        <ele>272</ele>
        <time>2022-06-17T12:58:35.000Z</time>
      </trkpt>
      <trkpt lat="49.76317" lon="4.8086">
        <ele>273</ele>
        <time>2022-06-17T12:58:36.000Z</time>
      </trkpt>
      <trkpt lat="49.76317" lon="4.80855">
        <ele>273</ele>
        <time>2022-06-17T12:58:37.000Z</time>
      </trkpt>
      <trkpt lat="49.76317" lon="4.80849">
        <ele>273</ele>
        <time>2022-06-17T12:58:38.000Z</time>
      </trkpt>
      <trkpt lat="49.76316" lon="4.80843">
        <ele>273</ele>
        <time>2022-06-17T12:58:39.000Z</time>
      </trkpt>
      <trkpt lat="49.76316" lon="4.80836">
        <ele>273</ele>
        <time>2022-06-17T12:58:40.000Z</time>
      </trkpt>
      <trkpt lat="49.76316" lon="4.8083">
        <ele>273</ele>
        <time>2022-06-17T12:58:41.000Z</time>
      </trkpt>
      <trkpt lat="49.76315" lon="4.80823">
        <ele>273</ele>
        <time>2022-06-17T12:58:42.000Z</time>
      </trkpt>
      <trkpt lat="49.76314" lon="4.80817">
        <ele>273</ele>
        <time>2022-06-17T12:58:43.000Z</time>
      </trkpt>
      <trkpt lat="49.76314" lon="4.8081">
        <ele>273</ele>
        <time>2022-06-17T12:58:44.000Z</time>
      </trkpt>
      <trkpt lat="49.76313" lon="4.80804">
        <ele>273</ele>
        <time>2022-06-17T12:58:45.000Z</time>
      </trkpt>
      <trkpt lat="49.76313" lon="4.80797">
        <ele>273</ele>
        <time>2022-06-17T12:58:46.000Z</time>
      </trkpt>
      <trkpt lat="49.76313" lon="4.8079">
        <ele>273</ele>
        <time>2022-06-17T12:58:47.000Z</time>
      </trkpt>
      <trkpt lat="49.76313" lon="4.80784">
        <ele>273</ele>
        <time>2022-06-17T12:58:48.000Z</time>
      </trkpt>
      <trkpt lat="49.76313" lon="4.80778">
        <ele>273</ele>
        <time>2022-06-17T12:58:49.000Z</time>
      </trkpt>
      <trkpt lat="49.76313" lon="4.80772">
        <ele>273</ele>
        <time>2022-06-17T12:58:50.000Z</time>
      </trkpt>
      <trkpt lat="49.76313" lon="4.80765">
        <ele>273</ele>
        <time>2022-06-17T12:58:51.000Z</time>
      </trkpt>
      <trkpt lat="49.76314" lon="4.80759">
        <ele>273</ele>
        <time>2022-06-17T12:58:52.000Z</time>
      </trkpt>
      <trkpt lat="49.76315" lon="4.80752">
        <ele>273</ele>
        <time>2022-06-17T12:58:53.000Z</time>
      </trkpt>
      <trkpt lat="49.76317" lon="4.80745">
        <ele>273</ele>
        <time>2022-06-17T12:58:54.000Z</time>
      </trkpt>
      <trkpt lat="49.76319" lon="4.80739">
        <ele>273</ele>
        <time>2022-06-17T12:58:55.000Z</time>
      </trkpt>
      <trkpt lat="49.76321" lon="4.80733">
        <ele>273</ele>
        <time>2022-06-17T12:58:56.000Z</time>
      </trkpt>
      <trkpt lat="49.76324" lon="4.80727">
        <ele>273</ele>
        <time>2022-06-17T12:58:57.000Z</time>
      </trkpt>
      <trkpt lat="49.76327" lon="4.80722">
        <ele>274</ele>
        <time>2022-06-17T12:58:58.000Z</time>
      </trkpt>
      <trkpt lat="49.7633" lon="4.80716">
        <ele>274</ele>
        <time>2022-06-17T12:58:59.000Z</time>
      </trkpt>
      <trkpt lat="49.76333" lon="4.8071">
        <ele>274</ele>
        <time>2022-06-17T12:59:00.000Z</time>
      </trkpt>
      <trkpt lat="49.76336" lon="4.80704">
        <ele>274</ele>
        <time>2022-06-17T12:59:01.000Z</time>
      </trkpt>
      <trkpt lat="49.76338" lon="4.80699">
        <ele>274</ele>
        <time>2022-06-17T12:59:02.000Z</time>
      </trkpt>
      <trkpt lat="49.76341" lon="4.80694">
        <ele>274</ele>
        <time>2022-06-17T12:59:03.000Z</time>
      </trkpt>
      <trkpt lat="49.76344" lon="4.80689">
        <ele>274</ele>
        <time>2022-06-17T12:59:04.000Z</time>
      </trkpt>
      <trkpt lat="49.76348" lon="4.80683">
        <ele>274</ele>
        <time>2022-06-17T12:59:05.000Z</time>
      </trkpt>
      <trkpt lat="49.76351" lon="4.80678">
        <ele>274</ele>
        <time>2022-06-17T12:59:06.000Z</time>
      </trkpt>
      <trkpt lat="49.76354" lon="4.80673">
        <ele>274</ele>
        <time>2022-06-17T12:59:07.000Z</time>
      </trkpt>
      <trkpt lat="49.76358" lon="4.80667">
        <ele>274</ele>
        <time>2022-06-17T12:59:08.000Z</time>
      </trkpt>
      <trkpt lat="49.76362" lon="4.80661">
        <ele>274</ele>
        <time>2022-06-17T12:59:09.000Z</time>
      </trkpt>
      <trkpt lat="49.76366" lon="4.80657">
        <ele>274</ele>
        <time>2022-06-17T12:59:10.000Z</time>
      </trkpt>
      <trkpt lat="49.76371" lon="4.80652">
        <ele>274</ele>
        <time>2022-06-17T12:59:11.000Z</time>
      </trkpt>
      <trkpt lat="49.76375" lon="4.80648">
        <ele>274</ele>
        <time>2022-06-17T12:59:12.000Z</time>
      </trkpt>
      <trkpt lat="49.76379" lon="4.80644">
        <ele>274</ele>
        <time>2022-06-17T12:59:13.000Z</time>
      </trkpt>
      <trkpt lat="49.76384" lon="4.8064">
        <ele>274</ele>
        <time>2022-06-17T12:59:14.000Z</time>
      </trkpt>
      <trkpt lat="49.76388" lon="4.80637">
        <ele>274</ele>
        <time>2022-06-17T12:59:15.000Z</time>
      </trkpt>
      <trkpt lat="49.76392" lon="4.80634">
        <ele>274</ele>
        <time>2022-06-17T12:59:16.000Z</time>
      </trkpt>
      <trkpt lat="49.76397" lon="4.8063">
        <ele>274</ele>
        <time>2022-06-17T12:59:17.000Z</time>
      </trkpt>
      <trkpt lat="49.76402" lon="4.80626">
        <ele>274</ele>
        <time>2022-06-17T12:59:18.000Z</time>
      </trkpt>
      <trkpt lat="49.76407" lon="4.80623">
        <ele>274</ele>
        <time>2022-06-17T12:59:19.000Z</time>
      </trkpt>
      <trkpt lat="49.76412" lon="4.80619">
        <ele>274</ele>
        <time>2022-06-17T12:59:20.000Z</time>
      </trkpt>
      <trkpt lat="49.76417" lon="4.80615">
        <ele>274</ele>
        <time>2022-06-17T12:59:21.000Z</time>
      </trkpt>
      <trkpt lat="49.76422" lon="4.80612">
        <ele>274</ele>
        <time>2022-06-17T12:59:22.000Z</time>
      </trkpt>
      <trkpt lat="49.76428" lon="4.80609">
        <ele>274</ele>
        <time>2022-06-17T12:59:23.000Z</time>
      </trkpt>
      <trkpt lat="49.76433" lon="4.80605">
        <ele>273</ele>
        <time>2022-06-17T12:59:24.000Z</time>
      </trkpt>
      <trkpt lat="49.76438" lon="4.80601">
        <ele>273</ele>
        <time>2022-06-17T12:59:25.000Z</time>
      </trkpt>
      <trkpt lat="49.76442" lon="4.80597">
        <ele>273</ele>
        <time>2022-06-17T12:59:26.000Z</time>
      </trkpt>
      <trkpt lat="49.76447" lon="4.80594">
        <ele>273</ele>
        <time>2022-06-17T12:59:27.000Z</time>
      </trkpt>
      <trkpt lat="49.76452" lon="4.8059">
        <ele>273</ele>
        <time>2022-06-17T12:59:28.000Z</time>
      </trkpt>
      <trkpt lat="49.76457" lon="4.80586">
        <ele>273</ele>
        <time>2022-06-17T12:59:29.000Z</time>
      </trkpt>
      <trkpt lat="49.76462" lon="4.80582">
        <ele>273</ele>
        <time>2022-06-17T12:59:30.000Z</time>
      </trkpt>
      <trkpt lat="49.76467" lon="4.80578">
        <ele>273</ele>
        <time>2022-06-17T12:59:31.000Z</time>
      </trkpt>
      <trkpt lat="49.76472" lon="4.80574">
        <ele>272</ele>
        <time>2022-06-17T12:59:32.000Z</time>
      </trkpt>
      <trkpt lat="49.76477" lon="4.80569">
        <ele>272</ele>
        <time>2022-06-17T12:59:33.000Z</time>
      </trkpt>
      <trkpt lat="49.76482" lon="4.80565">
        <ele>272</ele>
        <time>2022-06-17T12:59:34.000Z</time>
      </trkpt>
      <trkpt lat="49.76487" lon="4.80561">
        <ele>272</ele>
        <time>2022-06-17T12:59:35.000Z</time>
      </trkpt>
      <trkpt lat="49.76491" lon="4.80557">
        <ele>272</ele>
        <time>2022-06-17T12:59:36.000Z</time>
      </trkpt>
      <trkpt lat="49.76496" lon="4.80553">
        <ele>272</ele>
        <time>2022-06-17T12:59:37.000Z</time>
      </trkpt>
      <trkpt lat="49.765" lon="4.80548">
        <ele>272</ele>
        <time>2022-06-17T12:59:38.000Z</time>
      </trkpt>
      <trkpt lat="49.76505" lon="4.80544">
        <ele>272</ele>
        <time>2022-06-17T12:59:39.000Z</time>
      </trkpt>
      <trkpt lat="49.76509" lon="4.8054">
        <ele>272</ele>
        <time>2022-06-17T12:59:40.000Z</time>
      </trkpt>
      <trkpt lat="49.76513" lon="4.80536">
        <ele>272</ele>
        <time>2022-06-17T12:59:41.000Z</time>
      </trkpt>
      <trkpt lat="49.76517" lon="4.80532">
        <ele>273</ele>
        <time>2022-06-17T12:59:42.000Z</time>
      </trkpt>
      <trkpt lat="49.76521" lon="4.80528">
        <ele>273</ele>
        <time>2022-06-17T12:59:43.000Z</time>
      </trkpt>
      <trkpt lat="49.76525" lon="4.80525">
        <ele>273</ele>
        <time>2022-06-17T12:59:44.000Z</time>
      </trkpt>
      <trkpt lat="49.7653" lon="4.80522">
        <ele>273</ele>
        <time>2022-06-17T12:59:45.000Z</time>
      </trkpt>
      <trkpt lat="49.76534" lon="4.80521">
        <ele>273</ele>
        <time>2022-06-17T12:59:46.000Z</time>
      </trkpt>
      <trkpt lat="49.76538" lon="4.8052">
        <ele>273</ele>
        <time>2022-06-17T12:59:47.000Z</time>
      </trkpt>
      <trkpt lat="49.76542" lon="4.80519">
        <ele>273</ele>
        <time>2022-06-17T12:59:48.000Z</time>
      </trkpt>
      <trkpt lat="49.76545" lon="4.80519">
        <ele>273</ele>
        <time>2022-06-17T12:59:49.000Z</time>
      </trkpt>
      <trkpt lat="49.76547" lon="4.80518">
        <ele>273</ele>
        <time>2022-06-17T12:59:50.000Z</time>
      </trkpt>
      <trkpt lat="49.7655" lon="4.80518">
        <ele>273</ele>
        <time>2022-06-17T12:59:51.000Z</time>
      </trkpt>
      <trkpt lat="49.76553" lon="4.80517">
        <ele>273</ele>
        <time>2022-06-17T12:59:52.000Z</time>
      </trkpt>
      <trkpt lat="49.76556" lon="4.80516">
        <ele>274</ele>
        <time>2022-06-17T12:59:53.000Z</time>
      </trkpt>
      <trkpt lat="49.7656" lon="4.80515">
        <ele>274</ele>
        <time>2022-06-17T12:59:54.000Z</time>
      </trkpt>
      <trkpt lat="49.76563" lon="4.80513">
        <ele>274</ele>
        <time>2022-06-17T12:59:55.000Z</time>
      </trkpt>
      <trkpt lat="49.76567" lon="4.80512">
        <ele>274</ele>
        <time>2022-06-17T12:59:56.000Z</time>
      </trkpt>
      <trkpt lat="49.76571" lon="4.8051">
        <ele>275</ele>
        <time>2022-06-17T12:59:57.000Z</time>
      </trkpt>
      <trkpt lat="49.76574" lon="4.8051">
        <ele>275</ele>
        <time>2022-06-17T12:59:58.000Z</time>
      </trkpt>
      <trkpt lat="49.76577" lon="4.80509">
        <ele>275</ele>
        <time>2022-06-17T12:59:59.000Z</time>
      </trkpt>
      <trkpt lat="49.76581" lon="4.80508">
        <ele>275</ele>
        <time>2022-06-17T13:00:00.000Z</time>
      </trkpt>
      <trkpt lat="49.76584" lon="4.80507">
        <ele>276</ele>
        <time>2022-06-17T13:00:01.000Z</time>
      </trkpt>
      <trkpt lat="49.76587" lon="4.80506">
        <ele>276</ele>
        <time>2022-06-17T13:00:02.000Z</time>
      </trkpt>
      <trkpt lat="49.76591" lon="4.80504">
        <ele>276</ele>
        <time>2022-06-17T13:00:03.000Z</time>
      </trkpt>
      <trkpt lat="49.76594" lon="4.80502">
        <ele>277</ele>
        <time>2022-06-17T13:00:04.000Z</time>
      </trkpt>
      <trkpt lat="49.76597" lon="4.80501">
        <ele>277</ele>
        <time>2022-06-17T13:00:05.000Z</time>
      </trkpt>
      <trkpt lat="49.76601" lon="4.80499">
        <ele>277</ele>
        <time>2022-06-17T13:00:06.000Z</time>
      </trkpt>
      <trkpt lat="49.76605" lon="4.80497">
        <ele>278</ele>
        <time>2022-06-17T13:00:07.000Z</time>
      </trkpt>
      <trkpt lat="49.76608" lon="4.80495">
        <ele>278</ele>
        <time>2022-06-17T13:00:08.000Z</time>
      </trkpt>
      <trkpt lat="49.76612" lon="4.80493">
        <ele>278</ele>
        <time>2022-06-17T13:00:09.000Z</time>
      </trkpt>
      <trkpt lat="49.76614" lon="4.80491">
        <ele>279</ele>
        <time>2022-06-17T13:00:10.000Z</time>
      </trkpt>
      <trkpt lat="49.76618" lon="4.80491">
        <ele>279</ele>
        <time>2022-06-17T13:00:11.000Z</time>
      </trkpt>
      <trkpt lat="49.76621" lon="4.8049">
        <ele>280</ele>
        <time>2022-06-17T13:00:12.000Z</time>
      </trkpt>
      <trkpt lat="49.76624" lon="4.8049">
        <ele>280</ele>
        <time>2022-06-17T13:00:13.000Z</time>
      </trkpt>
      <trkpt lat="49.76627" lon="4.80489">
        <ele>280</ele>
        <time>2022-06-17T13:00:14.000Z</time>
      </trkpt>
      <trkpt lat="49.76631" lon="4.80488">
        <ele>281</ele>
        <time>2022-06-17T13:00:15.000Z</time>
      </trkpt>
      <trkpt lat="49.76636" lon="4.80488">
        <ele>281</ele>
        <time>2022-06-17T13:00:16.000Z</time>
      </trkpt>
      <trkpt lat="49.7664" lon="4.80488">
        <ele>281</ele>
        <time>2022-06-17T13:00:17.000Z</time>
      </trkpt>
      <trkpt lat="49.76645" lon="4.80487">
        <ele>281</ele>
        <time>2022-06-17T13:00:18.000Z</time>
      </trkpt>
      <trkpt lat="49.76649" lon="4.80487">
        <ele>282</ele>
        <time>2022-06-17T13:00:19.000Z</time>
      </trkpt>
      <trkpt lat="49.76652" lon="4.80486">
        <ele>282</ele>
        <time>2022-06-17T13:00:20.000Z</time>
      </trkpt>
      <trkpt lat="49.76656" lon="4.80487">
        <ele>282</ele>
        <time>2022-06-17T13:00:21.000Z</time>
      </trkpt>
      <trkpt lat="49.76659" lon="4.80487">
        <ele>282</ele>
        <time>2022-06-17T13:00:22.000Z</time>
      </trkpt>
      <trkpt lat="49.76663" lon="4.80487">
        <ele>282</ele>
        <time>2022-06-17T13:00:23.000Z</time>
      </trkpt>
      <trkpt lat="49.76667" lon="4.80487">
        <ele>283</ele>
        <time>2022-06-17T13:00:24.000Z</time>
      </trkpt>
      <trkpt lat="49.76671" lon="4.80487">
        <ele>283</ele>
        <time>2022-06-17T13:00:25.000Z</time>
      </trkpt>
      <trkpt lat="49.76675" lon="4.80487">
        <ele>283</ele>
        <time>2022-06-17T13:00:26.000Z</time>
      </trkpt>
      <trkpt lat="49.76679" lon="4.80486">
        <ele>283</ele>
        <time>2022-06-17T13:00:27.000Z</time>
      </trkpt>
      <trkpt lat="49.76684" lon="4.80484">
        <ele>283</ele>
        <time>2022-06-17T13:00:28.000Z</time>
      </trkpt>
      <trkpt lat="49.76689" lon="4.80482">
        <ele>283</ele>
        <time>2022-06-17T13:00:29.000Z</time>
      </trkpt>
      <trkpt lat="49.76694" lon="4.8048">
        <ele>283</ele>
        <time>2022-06-17T13:00:30.000Z</time>
      </trkpt>
      <trkpt lat="49.76699" lon="4.80479">
        <ele>283</ele>
        <time>2022-06-17T13:00:31.000Z</time>
      </trkpt>
      <trkpt lat="49.76704" lon="4.80477">
        <ele>283</ele>
        <time>2022-06-17T13:00:32.000Z</time>
      </trkpt>
      <trkpt lat="49.76709" lon="4.80475">
        <ele>283</ele>
        <time>2022-06-17T13:00:33.000Z</time>
      </trkpt>
      <trkpt lat="49.76714" lon="4.80473">
        <ele>283</ele>
        <time>2022-06-17T13:00:34.000Z</time>
      </trkpt>
      <trkpt lat="49.7672" lon="4.80472">
        <ele>283</ele>
        <time>2022-06-17T13:00:35.000Z</time>
      </trkpt>
      <trkpt lat="49.76725" lon="4.8047">
        <ele>283</ele>
        <time>2022-06-17T13:00:36.000Z</time>
      </trkpt>
      <trkpt lat="49.76731" lon="4.80469">
        <ele>283</ele>
        <time>2022-06-17T13:00:37.000Z</time>
      </trkpt>
      <trkpt lat="49.76736" lon="4.80467">
        <ele>283</ele>
        <time>2022-06-17T13:00:38.000Z</time>
      </trkpt>
      <trkpt lat="49.76741" lon="4.80465">
        <ele>283</ele>
        <time>2022-06-17T13:00:39.000Z</time>
      </trkpt>
      <trkpt lat="49.76747" lon="4.80464">
        <ele>283</ele>
        <time>2022-06-17T13:00:40.000Z</time>
      </trkpt>
      <trkpt lat="49.76752" lon="4.80462">
        <ele>283</ele>
        <time>2022-06-17T13:00:41.000Z</time>
      </trkpt>
      <trkpt lat="49.76758" lon="4.80461">
        <ele>283</ele>
        <time>2022-06-17T13:00:42.000Z</time>
      </trkpt>
      <trkpt lat="49.76763" lon="4.8046">
        <ele>283</ele>
        <time>2022-06-17T13:00:43.000Z</time>
      </trkpt>
      <trkpt lat="49.76769" lon="4.80459">
        <ele>283</ele>
        <time>2022-06-17T13:00:44.000Z</time>
      </trkpt>
      <trkpt lat="49.76774" lon="4.80458">
        <ele>282</ele>
        <time>2022-06-17T13:00:45.000Z</time>
      </trkpt>
      <trkpt lat="49.76779" lon="4.80457">
        <ele>282</ele>
        <time>2022-06-17T13:00:46.000Z</time>
      </trkpt>
      <trkpt lat="49.76784" lon="4.80455">
        <ele>282</ele>
        <time>2022-06-17T13:00:47.000Z</time>
      </trkpt>
      <trkpt lat="49.76789" lon="4.80453">
        <ele>282</ele>
        <time>2022-06-17T13:00:48.000Z</time>
      </trkpt>
      <trkpt lat="49.76794" lon="4.80451">
        <ele>282</ele>
        <time>2022-06-17T13:00:49.000Z</time>
      </trkpt>
      <trkpt lat="49.768" lon="4.80448">
        <ele>282</ele>
        <time>2022-06-17T13:00:50.000Z</time>
      </trkpt>
      <trkpt lat="49.76805" lon="4.80446">
        <ele>282</ele>
        <time>2022-06-17T13:00:51.000Z</time>
      </trkpt>
      <trkpt lat="49.7681" lon="4.80443">
        <ele>282</ele>
        <time>2022-06-17T13:00:52.000Z</time>
      </trkpt>
      <trkpt lat="49.76815" lon="4.8044">
        <ele>281</ele>
        <time>2022-06-17T13:00:53.000Z</time>
      </trkpt>
      <trkpt lat="49.7682" lon="4.80436">
        <ele>281</ele>
        <time>2022-06-17T13:00:54.000Z</time>
      </trkpt>
      <trkpt lat="49.76824" lon="4.80433">
        <ele>281</ele>
        <time>2022-06-17T13:00:55.000Z</time>
      </trkpt>
      <trkpt lat="49.76829" lon="4.80429">
        <ele>281</ele>
        <time>2022-06-17T13:00:56.000Z</time>
      </trkpt>
      <trkpt lat="49.76834" lon="4.80425">
        <ele>281</ele>
        <time>2022-06-17T13:00:57.000Z</time>
      </trkpt>
      <trkpt lat="49.76839" lon="4.80421">
        <ele>281</ele>
        <time>2022-06-17T13:00:58.000Z</time>
      </trkpt>
      <trkpt lat="49.76843" lon="4.80417">
        <ele>281</ele>
        <time>2022-06-17T13:00:59.000Z</time>
      </trkpt>
      <trkpt lat="49.76848" lon="4.80414">
        <ele>281</ele>
        <time>2022-06-17T13:01:00.000Z</time>
      </trkpt>
      <trkpt lat="49.76853" lon="4.8041">
        <ele>281</ele>
        <time>2022-06-17T13:01:01.000Z</time>
      </trkpt>
      <trkpt lat="49.76858" lon="4.80407">
        <ele>281</ele>
        <time>2022-06-17T13:01:02.000Z</time>
      </trkpt>
      <trkpt lat="49.76864" lon="4.80405">
        <ele>281</ele>
        <time>2022-06-17T13:01:03.000Z</time>
      </trkpt>
      <trkpt lat="49.76868" lon="4.80402">
        <ele>282</ele>
        <time>2022-06-17T13:01:04.000Z</time>
      </trkpt>
      <trkpt lat="49.76873" lon="4.80399">
        <ele>282</ele>
        <time>2022-06-17T13:01:05.000Z</time>
      </trkpt>
      <trkpt lat="49.76878" lon="4.80397">
        <ele>282</ele>
        <time>2022-06-17T13:01:06.000Z</time>
      </trkpt>
      <trkpt lat="49.76883" lon="4.80395">
        <ele>282</ele>
        <time>2022-06-17T13:01:07.000Z</time>
      </trkpt>
      <trkpt lat="49.76887" lon="4.80392">
        <ele>282</ele>
        <time>2022-06-17T13:01:08.000Z</time>
      </trkpt>
      <trkpt lat="49.76891" lon="4.80389">
        <ele>282</ele>
        <time>2022-06-17T13:01:09.000Z</time>
      </trkpt>
      <trkpt lat="49.76895" lon="4.80386">
        <ele>282</ele>
        <time>2022-06-17T13:01:10.000Z</time>
      </trkpt>
      <trkpt lat="49.769" lon="4.80382">
        <ele>282</ele>
        <time>2022-06-17T13:01:11.000Z</time>
      </trkpt>
      <trkpt lat="49.76904" lon="4.80377">
        <ele>283</ele>
        <time>2022-06-17T13:01:12.000Z</time>
      </trkpt>
      <trkpt lat="49.76908" lon="4.80372">
        <ele>283</ele>
        <time>2022-06-17T13:01:13.000Z</time>
      </trkpt>
      <trkpt lat="49.76912" lon="4.80366">
        <ele>283</ele>
        <time>2022-06-17T13:01:14.000Z</time>
      </trkpt>
      <trkpt lat="49.76916" lon="4.8036">
        <ele>283</ele>
        <time>2022-06-17T13:01:15.000Z</time>
      </trkpt>
      <trkpt lat="49.7692" lon="4.80355">
        <ele>283</ele>
        <time>2022-06-17T13:01:16.000Z</time>
      </trkpt>
      <trkpt lat="49.76924" lon="4.8035">
        <ele>283</ele>
        <time>2022-06-17T13:01:17.000Z</time>
      </trkpt>
      <trkpt lat="49.76928" lon="4.80345">
        <ele>283</ele>
        <time>2022-06-17T13:01:18.000Z</time>
      </trkpt>
      <trkpt lat="49.76932" lon="4.80341">
        <ele>283</ele>
        <time>2022-06-17T13:01:19.000Z</time>
      </trkpt>
      <trkpt lat="49.76936" lon="4.80338">
        <ele>283</ele>
        <time>2022-06-17T13:01:20.000Z</time>
      </trkpt>
      <trkpt lat="49.76939" lon="4.80334">
        <ele>284</ele>
        <time>2022-06-17T13:01:21.000Z</time>
      </trkpt>
      <trkpt lat="49.76943" lon="4.80332">
        <ele>284</ele>
        <time>2022-06-17T13:01:22.000Z</time>
      </trkpt>
      <trkpt lat="49.76946" lon="4.80328">
        <ele>284</ele>
        <time>2022-06-17T13:01:23.000Z</time>
      </trkpt>
      <trkpt lat="49.76949" lon="4.80326">
        <ele>284</ele>
        <time>2022-06-17T13:01:24.000Z</time>
      </trkpt>
      <trkpt lat="49.76952" lon="4.80323">
        <ele>284</ele>
        <time>2022-06-17T13:01:25.000Z</time>
      </trkpt>
      <trkpt lat="49.76954" lon="4.80319">
        <ele>285</ele>
        <time>2022-06-17T13:01:26.000Z</time>
      </trkpt>
      <trkpt lat="49.76956" lon="4.80316">
        <ele>285</ele>
        <time>2022-06-17T13:01:27.000Z</time>
      </trkpt>
      <trkpt lat="49.76959" lon="4.80313">
        <ele>285</ele>
        <time>2022-06-17T13:01:28.000Z</time>
      </trkpt>
      <trkpt lat="49.76961" lon="4.8031">
        <ele>285</ele>
        <time>2022-06-17T13:01:29.000Z</time>
      </trkpt>
      <trkpt lat="49.76963" lon="4.80307">
        <ele>286</ele>
        <time>2022-06-17T13:01:30.000Z</time>
      </trkpt>
      <trkpt lat="49.76965" lon="4.80303">
        <ele>286</ele>
        <time>2022-06-17T13:01:31.000Z</time>
      </trkpt>
      <trkpt lat="49.76968" lon="4.80299">
        <ele>286</ele>
        <time>2022-06-17T13:01:32.000Z</time>
      </trkpt>
      <trkpt lat="49.76971" lon="4.80296">
        <ele>286</ele>
        <time>2022-06-17T13:01:33.000Z</time>
      </trkpt>
      <trkpt lat="49.76973" lon="4.80293">
        <ele>287</ele>
        <time>2022-06-17T13:01:34.000Z</time>
      </trkpt>
      <trkpt lat="49.76974" lon="4.8029">
        <ele>287</ele>
        <time>2022-06-17T13:01:35.000Z</time>
      </trkpt>
      <trkpt lat="49.76976" lon="4.80287">
        <ele>287</ele>
        <time>2022-06-17T13:01:36.000Z</time>
      </trkpt>
      <trkpt lat="49.76978" lon="4.80283">
        <ele>288</ele>
        <time>2022-06-17T13:01:37.000Z</time>
      </trkpt>
      <trkpt lat="49.7698" lon="4.80279">
        <ele>288</ele>
        <time>2022-06-17T13:01:38.000Z</time>
      </trkpt>
      <trkpt lat="49.76982" lon="4.80276">
        <ele>288</ele>
        <time>2022-06-17T13:01:39.000Z</time>
      </trkpt>
      <trkpt lat="49.76984" lon="4.80273">
        <ele>289</ele>
        <time>2022-06-17T13:01:40.000Z</time>
      </trkpt>
      <trkpt lat="49.76986" lon="4.8027">
        <ele>289</ele>
        <time>2022-06-17T13:01:41.000Z</time>
      </trkpt>
      <trkpt lat="49.76989" lon="4.80267">
        <ele>289</ele>
        <time>2022-06-17T13:01:42.000Z</time>
      </trkpt>
      <trkpt lat="49.76991" lon="4.80265">
        <ele>290</ele>
        <time>2022-06-17T13:01:43.000Z</time>
      </trkpt>
      <trkpt lat="49.76993" lon="4.80262">
        <ele>290</ele>
        <time>2022-06-17T13:01:44.000Z</time>
      </trkpt>
      <trkpt lat="49.76995" lon="4.8026">
        <ele>291</ele>
        <time>2022-06-17T13:01:45.000Z</time>
      </trkpt>
      <trkpt lat="49.76998" lon="4.80257">
        <ele>292</ele>
        <time>2022-06-17T13:01:46.000Z</time>
      </trkpt>
      <trkpt lat="49.77" lon="4.80254">
        <ele>292</ele>
        <time>2022-06-17T13:01:47.000Z</time>
      </trkpt>
      <trkpt lat="49.77002" lon="4.80251">
        <ele>293</ele>
        <time>2022-06-17T13:01:48.000Z</time>
      </trkpt>
      <trkpt lat="49.77004" lon="4.80248">
        <ele>293</ele>
        <time>2022-06-17T13:01:49.000Z</time>
      </trkpt>
      <trkpt lat="49.77007" lon="4.80245">
        <ele>294</ele>
        <time>2022-06-17T13:01:50.000Z</time>
      </trkpt>
      <trkpt lat="49.77009" lon="4.80241">
        <ele>294</ele>
        <time>2022-06-17T13:01:51.000Z</time>
      </trkpt>
      <trkpt lat="49.77011" lon="4.80238">
        <ele>295</ele>
        <time>2022-06-17T13:01:52.000Z</time>
      </trkpt>
      <trkpt lat="49.77014" lon="4.80235">
        <ele>295</ele>
        <time>2022-06-17T13:01:53.000Z</time>
      </trkpt>
      <trkpt lat="49.77016" lon="4.80231">
        <ele>296</ele>
        <time>2022-06-17T13:01:54.000Z</time>
      </trkpt>
      <trkpt lat="49.77019" lon="4.80228">
        <ele>296</ele>
        <time>2022-06-17T13:01:55.000Z</time>
      </trkpt>
      <trkpt lat="49.77022" lon="4.80224">
        <ele>296</ele>
        <time>2022-06-17T13:01:56.000Z</time>
      </trkpt>
      <trkpt lat="49.77024" lon="4.80222">
        <ele>297</ele>
        <time>2022-06-17T13:01:57.000Z</time>
      </trkpt>
      <trkpt lat="49.77027" lon="4.80219">
        <ele>297</ele>
        <time>2022-06-17T13:01:58.000Z</time>
      </trkpt>
      <trkpt lat="49.7703" lon="4.80216">
        <ele>298</ele>
        <time>2022-06-17T13:01:59.000Z</time>
      </trkpt>
      <trkpt lat="49.77033" lon="4.80213">
        <ele>298</ele>
        <time>2022-06-17T13:02:00.000Z</time>
      </trkpt>
      <trkpt lat="49.77035" lon="4.80211">
        <ele>298</ele>
        <time>2022-06-17T13:02:01.000Z</time>
      </trkpt>
      <trkpt lat="49.77037" lon="4.80207">
        <ele>299</ele>
        <time>2022-06-17T13:02:02.000Z</time>
      </trkpt>
      <trkpt lat="49.7704" lon="4.80204">
        <ele>299</ele>
        <time>2022-06-17T13:02:03.000Z</time>
      </trkpt>
      <trkpt lat="49.77042" lon="4.802">
        <ele>299</ele>
        <time>2022-06-17T13:02:04.000Z</time>
      </trkpt>
      <trkpt lat="49.77045" lon="4.80196">
        <ele>299</ele>
        <time>2022-06-17T13:02:05.000Z</time>
      </trkpt>
      <trkpt lat="49.77047" lon="4.80191">
        <ele>300</ele>
        <time>2022-06-17T13:02:06.000Z</time>
      </trkpt>
      <trkpt lat="49.7705" lon="4.80186">
        <ele>300</ele>
        <time>2022-06-17T13:02:07.000Z</time>
      </trkpt>
      <trkpt lat="49.77053" lon="4.80182">
        <ele>300</ele>
        <time>2022-06-17T13:02:08.000Z</time>
      </trkpt>
      <trkpt lat="49.77056" lon="4.80178">
        <ele>300</ele>
        <time>2022-06-17T13:02:09.000Z</time>
      </trkpt>
      <trkpt lat="49.77059" lon="4.80173">
        <ele>301</ele>
        <time>2022-06-17T13:02:10.000Z</time>
      </trkpt>
      <trkpt lat="49.77062" lon="4.80169">
        <ele>301</ele>
        <time>2022-06-17T13:02:11.000Z</time>
      </trkpt>
      <trkpt lat="49.77065" lon="4.80164">
        <ele>301</ele>
        <time>2022-06-17T13:02:12.000Z</time>
      </trkpt>
      <trkpt lat="49.77069" lon="4.80161">
        <ele>301</ele>
        <time>2022-06-17T13:02:13.000Z</time>
      </trkpt>
      <trkpt lat="49.77073" lon="4.80159">
        <ele>301</ele>
        <time>2022-06-17T13:02:14.000Z</time>
      </trkpt>
      <trkpt lat="49.77077" lon="4.80159">
        <ele>301</ele>
        <time>2022-06-17T13:02:15.000Z</time>
      </trkpt>
      <trkpt lat="49.7708" lon="4.80161">
        <ele>301</ele>
        <time>2022-06-17T13:02:16.000Z</time>
      </trkpt>
      <trkpt lat="49.77084" lon="4.80165">
        <ele>301</ele>
        <time>2022-06-17T13:02:17.000Z</time>
      </trkpt>
      <trkpt lat="49.77087" lon="4.80168">
        <ele>301</ele>
        <time>2022-06-17T13:02:18.000Z</time>
      </trkpt>
      <trkpt lat="49.77089" lon="4.80171">
        <ele>301</ele>
        <time>2022-06-17T13:02:19.000Z</time>
      </trkpt>
      <trkpt lat="49.77093" lon="4.80174">
        <ele>301</ele>
        <time>2022-06-17T13:02:20.000Z</time>
      </trkpt>
      <trkpt lat="49.77096" lon="4.80177">
        <ele>301</ele>
        <time>2022-06-17T13:02:21.000Z</time>
      </trkpt>
      <trkpt lat="49.771" lon="4.80179">
        <ele>301</ele>
        <time>2022-06-17T13:02:22.000Z</time>
      </trkpt>
      <trkpt lat="49.77103" lon="4.80182">
        <ele>301</ele>
        <time>2022-06-17T13:02:23.000Z</time>
      </trkpt>
      <trkpt lat="49.77106" lon="4.80183">
        <ele>301</ele>
        <time>2022-06-17T13:02:24.000Z</time>
      </trkpt>
      <trkpt lat="49.77109" lon="4.80184">
        <ele>301</ele>
        <time>2022-06-17T13:02:25.000Z</time>
      </trkpt>
      <trkpt lat="49.77112" lon="4.80183">
        <ele>301</ele>
        <time>2022-06-17T13:02:26.000Z</time>
      </trkpt>
      <trkpt lat="49.77116" lon="4.80182">
        <ele>300</ele>
        <time>2022-06-17T13:02:27.000Z</time>
      </trkpt>
      <trkpt lat="49.7712" lon="4.80182">
        <ele>300</ele>
        <time>2022-06-17T13:02:28.000Z</time>
      </trkpt>
      <trkpt lat="49.77124" lon="4.8018">
        <ele>300</ele>
        <time>2022-06-17T13:02:29.000Z</time>
      </trkpt>
      <trkpt lat="49.77128" lon="4.80179">
        <ele>300</ele>
        <time>2022-06-17T13:02:30.000Z</time>
      </trkpt>
      <trkpt lat="49.77133" lon="4.80177">
        <ele>300</ele>
        <time>2022-06-17T13:02:31.000Z</time>
      </trkpt>
      <trkpt lat="49.77137" lon="4.80176">
        <ele>300</ele>
        <time>2022-06-17T13:02:32.000Z</time>
      </trkpt>
      <trkpt lat="49.77141" lon="4.80175">
        <ele>300</ele>
        <time>2022-06-17T13:02:33.000Z</time>
      </trkpt>
      <trkpt lat="49.77144" lon="4.80174">
        <ele>300</ele>
        <time>2022-06-17T13:02:34.000Z</time>
      </trkpt>
      <trkpt lat="49.77148" lon="4.80174">
        <ele>299</ele>
        <time>2022-06-17T13:02:35.000Z</time>
      </trkpt>
      <trkpt lat="49.77152" lon="4.80175">
        <ele>299</ele>
        <time>2022-06-17T13:02:36.000Z</time>
      </trkpt>
      <trkpt lat="49.77157" lon="4.80175">
        <ele>299</ele>
        <time>2022-06-17T13:02:37.000Z</time>
      </trkpt>
      <trkpt lat="49.77162" lon="4.80174">
        <ele>299</ele>
        <time>2022-06-17T13:02:38.000Z</time>
      </trkpt>
      <trkpt lat="49.77168" lon="4.80173">
        <ele>298</ele>
        <time>2022-06-17T13:02:39.000Z</time>
      </trkpt>
      <trkpt lat="49.77174" lon="4.80173">
        <ele>298</ele>
        <time>2022-06-17T13:02:40.000Z</time>
      </trkpt>
      <trkpt lat="49.7718" lon="4.80172">
        <ele>298</ele>
        <time>2022-06-17T13:02:41.000Z</time>
      </trkpt>
      <trkpt lat="49.77186" lon="4.80171">
        <ele>298</ele>
        <time>2022-06-17T13:02:42.000Z</time>
      </trkpt>
      <trkpt lat="49.77193" lon="4.8017">
        <ele>297</ele>
        <time>2022-06-17T13:02:43.000Z</time>
      </trkpt>
      <trkpt lat="49.77199" lon="4.80169">
        <ele>297</ele>
        <time>2022-06-17T13:02:44.000Z</time>
      </trkpt>
      <trkpt lat="49.77205" lon="4.80168">
        <ele>297</ele>
        <time>2022-06-17T13:02:45.000Z</time>
      </trkpt>
      <trkpt lat="49.77212" lon="4.80168">
        <ele>297</ele>
        <time>2022-06-17T13:02:46.000Z</time>
      </trkpt>
      <trkpt lat="49.77218" lon="4.80167">
        <ele>297</ele>
        <time>2022-06-17T13:02:47.000Z</time>
      </trkpt>
      <trkpt lat="49.77224" lon="4.80166">
        <ele>297</ele>
        <time>2022-06-17T13:02:48.000Z</time>
      </trkpt>
      <trkpt lat="49.77231" lon="4.80164">
        <ele>296</ele>
        <time>2022-06-17T13:02:49.000Z</time>
      </trkpt>
      <trkpt lat="49.77237" lon="4.80164">
        <ele>296</ele>
        <time>2022-06-17T13:02:50.000Z</time>
      </trkpt>
      <trkpt lat="49.77243" lon="4.80163">
        <ele>296</ele>
        <time>2022-06-17T13:02:51.000Z</time>
      </trkpt>
      <trkpt lat="49.7725" lon="4.80162">
        <ele>296</ele>
        <time>2022-06-17T13:02:52.000Z</time>
      </trkpt>
      <trkpt lat="49.77256" lon="4.80161">
        <ele>295</ele>
        <time>2022-06-17T13:02:53.000Z</time>
      </trkpt>
      <trkpt lat="49.77263" lon="4.80159">
        <ele>295</ele>
        <time>2022-06-17T13:02:54.000Z</time>
      </trkpt>
      <trkpt lat="49.7727" lon="4.80158">
        <ele>295</ele>
        <time>2022-06-17T13:02:55.000Z</time>
      </trkpt>
      <trkpt lat="49.77277" lon="4.80157">
        <ele>295</ele>
        <time>2022-06-17T13:02:56.000Z</time>
      </trkpt>
      <trkpt lat="49.77284" lon="4.80156">
        <ele>294</ele>
        <time>2022-06-17T13:02:57.000Z</time>
      </trkpt>
      <trkpt lat="49.77291" lon="4.80155">
        <ele>294</ele>
        <time>2022-06-17T13:02:58.000Z</time>
      </trkpt>
      <trkpt lat="49.77298" lon="4.80153">
        <ele>294</ele>
        <time>2022-06-17T13:02:59.000Z</time>
      </trkpt>
      <trkpt lat="49.77305" lon="4.80152">
        <ele>293</ele>
        <time>2022-06-17T13:03:00.000Z</time>
      </trkpt>
      <trkpt lat="49.77312" lon="4.8015">
        <ele>293</ele>
        <time>2022-06-17T13:03:01.000Z</time>
      </trkpt>
      <trkpt lat="49.77319" lon="4.80148">
        <ele>293</ele>
        <time>2022-06-17T13:03:02.000Z</time>
      </trkpt>
      <trkpt lat="49.77325" lon="4.80145">
        <ele>292</ele>
        <time>2022-06-17T13:03:03.000Z</time>
      </trkpt>
      <trkpt lat="49.77332" lon="4.80142">
        <ele>292</ele>
        <time>2022-06-17T13:03:04.000Z</time>
      </trkpt>
      <trkpt lat="49.77339" lon="4.80138">
        <ele>292</ele>
        <time>2022-06-17T13:03:05.000Z</time>
      </trkpt>
      <trkpt lat="49.77345" lon="4.80133">
        <ele>292</ele>
        <time>2022-06-17T13:03:06.000Z</time>
      </trkpt>
      <trkpt lat="49.77351" lon="4.80128">
        <ele>291</ele>
        <time>2022-06-17T13:03:07.000Z</time>
      </trkpt>
      <trkpt lat="49.77356" lon="4.80122">
        <ele>291</ele>
        <time>2022-06-17T13:03:08.000Z</time>
      </trkpt>
      <trkpt lat="49.77362" lon="4.80116">
        <ele>291</ele>
        <time>2022-06-17T13:03:09.000Z</time>
      </trkpt>
      <trkpt lat="49.77368" lon="4.80109">
        <ele>291</ele>
        <time>2022-06-17T13:03:10.000Z</time>
      </trkpt>
      <trkpt lat="49.77373" lon="4.80102">
        <ele>290</ele>
        <time>2022-06-17T13:03:11.000Z</time>
      </trkpt>
      <trkpt lat="49.77378" lon="4.80094">
        <ele>290</ele>
        <time>2022-06-17T13:03:12.000Z</time>
      </trkpt>
      <trkpt lat="49.77383" lon="4.80086">
        <ele>290</ele>
        <time>2022-06-17T13:03:13.000Z</time>
      </trkpt>
      <trkpt lat="49.77388" lon="4.80077">
        <ele>289</ele>
        <time>2022-06-17T13:03:14.000Z</time>
      </trkpt>
      <trkpt lat="49.77392" lon="4.80069">
        <ele>289</ele>
        <time>2022-06-17T13:03:15.000Z</time>
      </trkpt>
      <trkpt lat="49.77396" lon="4.8006">
        <ele>289</ele>
        <time>2022-06-17T13:03:16.000Z</time>
      </trkpt>
      <trkpt lat="49.77401" lon="4.80051">
        <ele>288</ele>
        <time>2022-06-17T13:03:17.000Z</time>
      </trkpt>
      <trkpt lat="49.77405" lon="4.80044">
        <ele>288</ele>
        <time>2022-06-17T13:03:18.000Z</time>
      </trkpt>
      <trkpt lat="49.77411" lon="4.80039">
        <ele>288</ele>
        <time>2022-06-17T13:03:19.000Z</time>
      </trkpt>
      <trkpt lat="49.77418" lon="4.80036">
        <ele>288</ele>
        <time>2022-06-17T13:03:20.000Z</time>
      </trkpt>
      <trkpt lat="49.77426" lon="4.80036">
        <ele>287</ele>
        <time>2022-06-17T13:03:21.000Z</time>
      </trkpt>
      <trkpt lat="49.77434" lon="4.80037">
        <ele>287</ele>
        <time>2022-06-17T13:03:22.000Z</time>
      </trkpt>
      <trkpt lat="49.77441" lon="4.80037">
        <ele>287</ele>
        <time>2022-06-17T13:03:23.000Z</time>
      </trkpt>
      <trkpt lat="49.77449" lon="4.80037">
        <ele>286</ele>
        <time>2022-06-17T13:03:24.000Z</time>
      </trkpt>
      <trkpt lat="49.77456" lon="4.80035">
        <ele>285</ele>
        <time>2022-06-17T13:03:25.000Z</time>
      </trkpt>
      <trkpt lat="49.77463" lon="4.80031">
        <ele>285</ele>
        <time>2022-06-17T13:03:26.000Z</time>
      </trkpt>
      <trkpt lat="49.77469" lon="4.80026">
        <ele>284</ele>
        <time>2022-06-17T13:03:27.000Z</time>
      </trkpt>
      <trkpt lat="49.77476" lon="4.8002">
        <ele>283</ele>
        <time>2022-06-17T13:03:28.000Z</time>
      </trkpt>
      <trkpt lat="49.77483" lon="4.80015">
        <ele>282</ele>
        <time>2022-06-17T13:03:29.000Z</time>
      </trkpt>
      <trkpt lat="49.77489" lon="4.80009">
        <ele>281</ele>
        <time>2022-06-17T13:03:30.000Z</time>
      </trkpt>
      <trkpt lat="49.77496" lon="4.80005">
        <ele>280</ele>
        <time>2022-06-17T13:03:31.000Z</time>
      </trkpt>
      <trkpt lat="49.77503" lon="4.8">
        <ele>279</ele>
        <time>2022-06-17T13:03:32.000Z</time>
      </trkpt>
      <trkpt lat="49.77511" lon="4.79997">
        <ele>278</ele>
        <time>2022-06-17T13:03:33.000Z</time>
      </trkpt>
      <trkpt lat="49.77519" lon="4.79994">
        <ele>277</ele>
        <time>2022-06-17T13:03:34.000Z</time>
      </trkpt>
      <trkpt lat="49.77528" lon="4.79992">
        <ele>275</ele>
        <time>2022-06-17T13:03:35.000Z</time>
      </trkpt>
      <trkpt lat="49.77537" lon="4.79991">
        <ele>274</ele>
        <time>2022-06-17T13:03:36.000Z</time>
      </trkpt>
      <trkpt lat="49.77546" lon="4.79989">
        <ele>273</ele>
        <time>2022-06-17T13:03:37.000Z</time>
      </trkpt>
      <trkpt lat="49.77555" lon="4.79987">
        <ele>272</ele>
        <time>2022-06-17T13:03:38.000Z</time>
      </trkpt>
      <trkpt lat="49.77564" lon="4.79986">
        <ele>271</ele>
        <time>2022-06-17T13:03:39.000Z</time>
      </trkpt>
      <trkpt lat="49.77574" lon="4.79985">
        <ele>270</ele>
        <time>2022-06-17T13:03:40.000Z</time>
      </trkpt>
      <trkpt lat="49.77583" lon="4.79984">
        <ele>269</ele>
        <time>2022-06-17T13:03:41.000Z</time>
      </trkpt>
      <trkpt lat="49.77593" lon="4.79983">
        <ele>268</ele>
        <time>2022-06-17T13:03:42.000Z</time>
      </trkpt>
      <trkpt lat="49.77602" lon="4.79982">
        <ele>267</ele>
        <time>2022-06-17T13:03:43.000Z</time>
      </trkpt>
      <trkpt lat="49.77611" lon="4.79981">
        <ele>267</ele>
        <time>2022-06-17T13:03:44.000Z</time>
      </trkpt>
      <trkpt lat="49.7762" lon="4.79979">
        <ele>266</ele>
        <time>2022-06-17T13:03:45.000Z</time>
      </trkpt>
      <trkpt lat="49.77628" lon="4.79977">
        <ele>266</ele>
        <time>2022-06-17T13:03:46.000Z</time>
      </trkpt>
      <trkpt lat="49.77636" lon="4.79973">
        <ele>265</ele>
        <time>2022-06-17T13:03:47.000Z</time>
      </trkpt>
      <trkpt lat="49.77643" lon="4.79969">
        <ele>265</ele>
        <time>2022-06-17T13:03:48.000Z</time>
      </trkpt>
      <trkpt lat="49.7765" lon="4.79964">
        <ele>265</ele>
        <time>2022-06-17T13:03:49.000Z</time>
      </trkpt>
      <trkpt lat="49.77656" lon="4.79959">
        <ele>264</ele>
        <time>2022-06-17T13:03:50.000Z</time>
      </trkpt>
      <trkpt lat="49.77663" lon="4.79954">
        <ele>264</ele>
        <time>2022-06-17T13:03:51.000Z</time>
      </trkpt>
      <trkpt lat="49.77668" lon="4.79949">
        <ele>264</ele>
        <time>2022-06-17T13:03:52.000Z</time>
      </trkpt>
      <trkpt lat="49.77674" lon="4.79943">
        <ele>263</ele>
        <time>2022-06-17T13:03:53.000Z</time>
      </trkpt>
      <trkpt lat="49.77679" lon="4.79936">
        <ele>263</ele>
        <time>2022-06-17T13:03:54.000Z</time>
      </trkpt>
      <trkpt lat="49.77685" lon="4.7993">
        <ele>262</ele>
        <time>2022-06-17T13:03:55.000Z</time>
      </trkpt>
      <trkpt lat="49.7769" lon="4.79923">
        <ele>262</ele>
        <time>2022-06-17T13:03:56.000Z</time>
      </trkpt>
      <trkpt lat="49.77696" lon="4.79917">
        <ele>261</ele>
        <time>2022-06-17T13:03:57.000Z</time>
      </trkpt>
      <trkpt lat="49.77702" lon="4.7991">
        <ele>261</ele>
        <time>2022-06-17T13:03:58.000Z</time>
      </trkpt>
      <trkpt lat="49.77708" lon="4.79904">
        <ele>261</ele>
        <time>2022-06-17T13:03:59.000Z</time>
      </trkpt>
      <trkpt lat="49.77714" lon="4.79897">
        <ele>260</ele>
        <time>2022-06-17T13:04:00.000Z</time>
      </trkpt>
      <trkpt lat="49.7772" lon="4.79892">
        <ele>260</ele>
        <time>2022-06-17T13:04:01.000Z</time>
      </trkpt>
      <trkpt lat="49.77726" lon="4.79886">
        <ele>260</ele>
        <time>2022-06-17T13:04:02.000Z</time>
      </trkpt>
      <trkpt lat="49.77733" lon="4.79882">
        <ele>260</ele>
        <time>2022-06-17T13:04:03.000Z</time>
      </trkpt>
      <trkpt lat="49.77739" lon="4.79877">
        <ele>259</ele>
        <time>2022-06-17T13:04:04.000Z</time>
      </trkpt>
      <trkpt lat="49.77745" lon="4.79872">
        <ele>259</ele>
        <time>2022-06-17T13:04:05.000Z</time>
      </trkpt>
      <trkpt lat="49.77751" lon="4.79867">
        <ele>259</ele>
        <time>2022-06-17T13:04:06.000Z</time>
      </trkpt>
      <trkpt lat="49.77757" lon="4.79862">
        <ele>259</ele>
        <time>2022-06-17T13:04:07.000Z</time>
      </trkpt>
      <trkpt lat="49.77763" lon="4.79858">
        <ele>259</ele>
        <time>2022-06-17T13:04:08.000Z</time>
      </trkpt>
      <trkpt lat="49.77768" lon="4.79853">
        <ele>258</ele>
        <time>2022-06-17T13:04:09.000Z</time>
      </trkpt>
      <trkpt lat="49.77774" lon="4.79847">
        <ele>258</ele>
        <time>2022-06-17T13:04:10.000Z</time>
      </trkpt>
      <trkpt lat="49.77779" lon="4.79842">
        <ele>258</ele>
        <time>2022-06-17T13:04:11.000Z</time>
      </trkpt>
      <trkpt lat="49.77783" lon="4.79836">
        <ele>258</ele>
        <time>2022-06-17T13:04:12.000Z</time>
      </trkpt>
      <trkpt lat="49.77788" lon="4.7983">
        <ele>258</ele>
        <time>2022-06-17T13:04:13.000Z</time>
      </trkpt>
      <trkpt lat="49.77793" lon="4.79824">
        <ele>258</ele>
        <time>2022-06-17T13:04:14.000Z</time>
      </trkpt>
      <trkpt lat="49.77798" lon="4.79819">
        <ele>258</ele>
        <time>2022-06-17T13:04:15.000Z</time>
      </trkpt>
      <trkpt lat="49.77803" lon="4.79815">
        <ele>258</ele>
        <time>2022-06-17T13:04:16.000Z</time>
      </trkpt>
      <trkpt lat="49.77808" lon="4.79811">
        <ele>258</ele>
        <time>2022-06-17T13:04:17.000Z</time>
      </trkpt>
      <trkpt lat="49.77814" lon="4.79808">
        <ele>258</ele>
        <time>2022-06-17T13:04:18.000Z</time>
      </trkpt>
      <trkpt lat="49.77819" lon="4.79805">
        <ele>258</ele>
        <time>2022-06-17T13:04:19.000Z</time>
      </trkpt>
      <trkpt lat="49.77824" lon="4.79803">
        <ele>258</ele>
        <time>2022-06-17T13:04:20.000Z</time>
      </trkpt>
      <trkpt lat="49.77829" lon="4.79801">
        <ele>258</ele>
        <time>2022-06-17T13:04:21.000Z</time>
      </trkpt>
      <trkpt lat="49.77834" lon="4.79799">
        <ele>258</ele>
        <time>2022-06-17T13:04:22.000Z</time>
      </trkpt>
      <trkpt lat="49.77839" lon="4.79797">
        <ele>258</ele>
        <time>2022-06-17T13:04:23.000Z</time>
      </trkpt>
      <trkpt lat="49.77844" lon="4.79793">
        <ele>257</ele>
        <time>2022-06-17T13:04:24.000Z</time>
      </trkpt>
      <trkpt lat="49.77849" lon="4.79789">
        <ele>257</ele>
        <time>2022-06-17T13:04:25.000Z</time>
      </trkpt>
      <trkpt lat="49.77854" lon="4.79785">
        <ele>257</ele>
        <time>2022-06-17T13:04:26.000Z</time>
      </trkpt>
      <trkpt lat="49.7786" lon="4.7978">
        <ele>257</ele>
        <time>2022-06-17T13:04:27.000Z</time>
      </trkpt>
      <trkpt lat="49.77866" lon="4.79775">
        <ele>257</ele>
        <time>2022-06-17T13:04:28.000Z</time>
      </trkpt>
      <trkpt lat="49.77872" lon="4.7977">
        <ele>257</ele>
        <time>2022-06-17T13:04:29.000Z</time>
      </trkpt>
      <trkpt lat="49.77877" lon="4.79765">
        <ele>257</ele>
        <time>2022-06-17T13:04:30.000Z</time>
      </trkpt>
      <trkpt lat="49.77883" lon="4.7976">
        <ele>256</ele>
        <time>2022-06-17T13:04:31.000Z</time>
      </trkpt>
      <trkpt lat="49.7789" lon="4.79755">
        <ele>256</ele>
        <time>2022-06-17T13:04:32.000Z</time>
      </trkpt>
      <trkpt lat="49.77896" lon="4.7975">
        <ele>256</ele>
        <time>2022-06-17T13:04:33.000Z</time>
      </trkpt>
      <trkpt lat="49.77903" lon="4.79746">
        <ele>256</ele>
        <time>2022-06-17T13:04:34.000Z</time>
      </trkpt>
      <trkpt lat="49.7791" lon="4.79742">
        <ele>255</ele>
        <time>2022-06-17T13:04:35.000Z</time>
      </trkpt>
      <trkpt lat="49.77917" lon="4.79738">
        <ele>255</ele>
        <time>2022-06-17T13:04:36.000Z</time>
      </trkpt>
      <trkpt lat="49.77925" lon="4.79734">
        <ele>255</ele>
        <time>2022-06-17T13:04:37.000Z</time>
      </trkpt>
      <trkpt lat="49.77933" lon="4.79731">
        <ele>254</ele>
        <time>2022-06-17T13:04:38.000Z</time>
      </trkpt>
      <trkpt lat="49.77942" lon="4.79729">
        <ele>254</ele>
        <time>2022-06-17T13:04:39.000Z</time>
      </trkpt>
      <trkpt lat="49.7795" lon="4.79728">
        <ele>254</ele>
        <time>2022-06-17T13:04:40.000Z</time>
      </trkpt>
      <trkpt lat="49.77958" lon="4.79728">
        <ele>253</ele>
        <time>2022-06-17T13:04:41.000Z</time>
      </trkpt>
      <trkpt lat="49.77964" lon="4.79729">
        <ele>253</ele>
        <time>2022-06-17T13:04:42.000Z</time>
      </trkpt>
      <trkpt lat="49.77971" lon="4.79731">
        <ele>253</ele>
        <time>2022-06-17T13:04:43.000Z</time>
      </trkpt>
      <trkpt lat="49.77978" lon="4.79737">
        <ele>253</ele>
        <time>2022-06-17T13:04:44.000Z</time>
      </trkpt>
      <trkpt lat="49.77983" lon="4.79744">
        <ele>252</ele>
        <time>2022-06-17T13:04:45.000Z</time>
      </trkpt>
      <trkpt lat="49.77986" lon="4.79752">
        <ele>252</ele>
        <time>2022-06-17T13:04:46.000Z</time>
      </trkpt>
      <trkpt lat="49.7799" lon="4.79759">
        <ele>253</ele>
        <time>2022-06-17T13:04:47.000Z</time>
      </trkpt>
      <trkpt lat="49.77994" lon="4.79765">
        <ele>253</ele>
        <time>2022-06-17T13:04:48.000Z</time>
      </trkpt>
      <trkpt lat="49.77999" lon="4.7977">
        <ele>253</ele>
        <time>2022-06-17T13:04:49.000Z</time>
      </trkpt>
      <trkpt lat="49.78004" lon="4.79773">
        <ele>253</ele>
        <time>2022-06-17T13:04:50.000Z</time>
      </trkpt>
      <trkpt lat="49.78009" lon="4.79775">
        <ele>254</ele>
        <time>2022-06-17T13:04:51.000Z</time>
      </trkpt>
      <trkpt lat="49.78014" lon="4.79777">
        <ele>254</ele>
        <time>2022-06-17T13:04:52.000Z</time>
      </trkpt>
      <trkpt lat="49.78019" lon="4.79778">
        <ele>254</ele>
        <time>2022-06-17T13:04:53.000Z</time>
      </trkpt>
      <trkpt lat="49.78025" lon="4.79779">
        <ele>254</ele>
        <time>2022-06-17T13:04:54.000Z</time>
      </trkpt>
      <trkpt lat="49.7803" lon="4.7978">
        <ele>254</ele>
        <time>2022-06-17T13:04:55.000Z</time>
      </trkpt>
      <trkpt lat="49.78035" lon="4.7978">
        <ele>254</ele>
        <time>2022-06-17T13:04:56.000Z</time>
      </trkpt>
      <trkpt lat="49.78041" lon="4.7978">
        <ele>254</ele>
        <time>2022-06-17T13:04:57.000Z</time>
      </trkpt>
      <trkpt lat="49.78046" lon="4.79781">
        <ele>254</ele>
        <time>2022-06-17T13:04:58.000Z</time>
      </trkpt>
      <trkpt lat="49.78051" lon="4.7978">
        <ele>254</ele>
        <time>2022-06-17T13:04:59.000Z</time>
      </trkpt>
      <trkpt lat="49.78056" lon="4.79779">
        <ele>254</ele>
        <time>2022-06-17T13:05:00.000Z</time>
      </trkpt>
      <trkpt lat="49.78062" lon="4.79777">
        <ele>254</ele>
        <time>2022-06-17T13:05:01.000Z</time>
      </trkpt>
      <trkpt lat="49.78067" lon="4.79775">
        <ele>254</ele>
        <time>2022-06-17T13:05:02.000Z</time>
      </trkpt>
      <trkpt lat="49.78072" lon="4.79773">
        <ele>253</ele>
        <time>2022-06-17T13:05:03.000Z</time>
      </trkpt>
      <trkpt lat="49.78077" lon="4.79769">
        <ele>253</ele>
        <time>2022-06-17T13:05:04.000Z</time>
      </trkpt>
      <trkpt lat="49.78082" lon="4.79765">
        <ele>253</ele>
        <time>2022-06-17T13:05:05.000Z</time>
      </trkpt>
      <trkpt lat="49.78086" lon="4.79761">
        <ele>253</ele>
        <time>2022-06-17T13:05:06.000Z</time>
      </trkpt>
      <trkpt lat="49.78089" lon="4.79756">
        <ele>253</ele>
        <time>2022-06-17T13:05:07.000Z</time>
      </trkpt>
      <trkpt lat="49.78093" lon="4.79749">
        <ele>253</ele>
        <time>2022-06-17T13:05:08.000Z</time>
      </trkpt>
      <trkpt lat="49.78096" lon="4.79742">
        <ele>252</ele>
        <time>2022-06-17T13:05:09.000Z</time>
      </trkpt>
      <trkpt lat="49.781" lon="4.79735">
        <ele>252</ele>
        <time>2022-06-17T13:05:10.000Z</time>
      </trkpt>
      <trkpt lat="49.78104" lon="4.79728">
        <ele>253</ele>
        <time>2022-06-17T13:05:11.000Z</time>
      </trkpt>
      <trkpt lat="49.78107" lon="4.79722">
        <ele>253</ele>
        <time>2022-06-17T13:05:12.000Z</time>
      </trkpt>
      <trkpt lat="49.78111" lon="4.79716">
        <ele>253</ele>
        <time>2022-06-17T13:05:13.000Z</time>
      </trkpt>
      <trkpt lat="49.78114" lon="4.7971">
        <ele>253</ele>
        <time>2022-06-17T13:05:14.000Z</time>
      </trkpt>
      <trkpt lat="49.78118" lon="4.79705">
        <ele>254</ele>
        <time>2022-06-17T13:05:15.000Z</time>
      </trkpt>
      <trkpt lat="49.78122" lon="4.79701">
        <ele>254</ele>
        <time>2022-06-17T13:05:16.000Z</time>
      </trkpt>
      <trkpt lat="49.78126" lon="4.79698">
        <ele>254</ele>
        <time>2022-06-17T13:05:17.000Z</time>
      </trkpt>
      <trkpt lat="49.7813" lon="4.79696">
        <ele>254</ele>
        <time>2022-06-17T13:05:18.000Z</time>
      </trkpt>
      <trkpt lat="49.78134" lon="4.79694">
        <ele>255</ele>
        <time>2022-06-17T13:05:19.000Z</time>
      </trkpt>
      <trkpt lat="49.78138" lon="4.79691">
        <ele>255</ele>
        <time>2022-06-17T13:05:20.000Z</time>
      </trkpt>
      <trkpt lat="49.78143" lon="4.79689">
        <ele>255</ele>
        <time>2022-06-17T13:05:21.000Z</time>
      </trkpt>
      <trkpt lat="49.78147" lon="4.79686">
        <ele>255</ele>
        <time>2022-06-17T13:05:22.000Z</time>
      </trkpt>
      <trkpt lat="49.78152" lon="4.79683">
        <ele>255</ele>
        <time>2022-06-17T13:05:23.000Z</time>
      </trkpt>
      <trkpt lat="49.78156" lon="4.79679">
        <ele>255</ele>
        <time>2022-06-17T13:05:24.000Z</time>
      </trkpt>
      <trkpt lat="49.78161" lon="4.79676">
        <ele>256</ele>
        <time>2022-06-17T13:05:25.000Z</time>
      </trkpt>
      <trkpt lat="49.78166" lon="4.79672">
        <ele>256</ele>
        <time>2022-06-17T13:05:26.000Z</time>
      </trkpt>
      <trkpt lat="49.78171" lon="4.79668">
        <ele>256</ele>
        <time>2022-06-17T13:05:27.000Z</time>
      </trkpt>
      <trkpt lat="49.78175" lon="4.79665">
        <ele>256</ele>
        <time>2022-06-17T13:05:28.000Z</time>
      </trkpt>
      <trkpt lat="49.7818" lon="4.79661">
        <ele>256</ele>
        <time>2022-06-17T13:05:29.000Z</time>
      </trkpt>
      <trkpt lat="49.78184" lon="4.79657">
        <ele>256</ele>
        <time>2022-06-17T13:05:30.000Z</time>
      </trkpt>
      <trkpt lat="49.78188" lon="4.79653">
        <ele>256</ele>
        <time>2022-06-17T13:05:31.000Z</time>
      </trkpt>
      <trkpt lat="49.78193" lon="4.7965">
        <ele>256</ele>
        <time>2022-06-17T13:05:32.000Z</time>
      </trkpt>
      <trkpt lat="49.78197" lon="4.79645">
        <ele>256</ele>
        <time>2022-06-17T13:05:33.000Z</time>
      </trkpt>
      <trkpt lat="49.78202" lon="4.79641">
        <ele>256</ele>
        <time>2022-06-17T13:05:34.000Z</time>
      </trkpt>
      <trkpt lat="49.78207" lon="4.79637">
        <ele>256</ele>
        <time>2022-06-17T13:05:35.000Z</time>
      </trkpt>
      <trkpt lat="49.78212" lon="4.79632">
        <ele>256</ele>
        <time>2022-06-17T13:05:36.000Z</time>
      </trkpt>
      <trkpt lat="49.78218" lon="4.79628">
        <ele>256</ele>
        <time>2022-06-17T13:05:37.000Z</time>
      </trkpt>
      <trkpt lat="49.78223" lon="4.79625">
        <ele>256</ele>
        <time>2022-06-17T13:05:38.000Z</time>
      </trkpt>
      <trkpt lat="49.78229" lon="4.79621">
        <ele>256</ele>
        <time>2022-06-17T13:05:39.000Z</time>
      </trkpt>
      <trkpt lat="49.78236" lon="4.79617">
        <ele>255</ele>
        <time>2022-06-17T13:05:40.000Z</time>
      </trkpt>
      <trkpt lat="49.78243" lon="4.79614">
        <ele>255</ele>
        <time>2022-06-17T13:05:41.000Z</time>
      </trkpt>
      <trkpt lat="49.7825" lon="4.79611">
        <ele>255</ele>
        <time>2022-06-17T13:05:42.000Z</time>
      </trkpt>
      <trkpt lat="49.78257" lon="4.79607">
        <ele>255</ele>
        <time>2022-06-17T13:05:43.000Z</time>
      </trkpt>
      <trkpt lat="49.78264" lon="4.79604">
        <ele>254</ele>
        <time>2022-06-17T13:05:44.000Z</time>
      </trkpt>
      <trkpt lat="49.78271" lon="4.79602">
        <ele>254</ele>
        <time>2022-06-17T13:05:45.000Z</time>
      </trkpt>
      <trkpt lat="49.78278" lon="4.796">
        <ele>254</ele>
        <time>2022-06-17T13:05:46.000Z</time>
      </trkpt>
      <trkpt lat="49.78286" lon="4.79598">
        <ele>253</ele>
        <time>2022-06-17T13:05:47.000Z</time>
      </trkpt>
      <trkpt lat="49.78294" lon="4.79596">
        <ele>253</ele>
        <time>2022-06-17T13:05:48.000Z</time>
      </trkpt>
      <trkpt lat="49.78302" lon="4.79596">
        <ele>253</ele>
        <time>2022-06-17T13:05:49.000Z</time>
      </trkpt>
      <trkpt lat="49.7831" lon="4.79598">
        <ele>252</ele>
        <time>2022-06-17T13:05:50.000Z</time>
      </trkpt>
      <trkpt lat="49.78317" lon="4.79602">
        <ele>252</ele>
        <time>2022-06-17T13:05:51.000Z</time>
      </trkpt>
      <trkpt lat="49.78324" lon="4.79605">
        <ele>252</ele>
        <time>2022-06-17T13:05:52.000Z</time>
      </trkpt>
      <trkpt lat="49.78331" lon="4.79609">
        <ele>252</ele>
        <time>2022-06-17T13:05:53.000Z</time>
      </trkpt>
      <trkpt lat="49.78337" lon="4.79613">
        <ele>252</ele>
        <time>2022-06-17T13:05:54.000Z</time>
      </trkpt>
      <trkpt lat="49.78344" lon="4.79617">
        <ele>252</ele>
        <time>2022-06-17T13:05:55.000Z</time>
      </trkpt>
      <trkpt lat="49.7835" lon="4.79621">
        <ele>252</ele>
        <time>2022-06-17T13:05:56.000Z</time>
      </trkpt>
      <trkpt lat="49.78356" lon="4.79626">
        <ele>252</ele>
        <time>2022-06-17T13:05:57.000Z</time>
      </trkpt>
      <trkpt lat="49.78362" lon="4.7963">
        <ele>252</ele>
        <time>2022-06-17T13:05:58.000Z</time>
      </trkpt>
      <trkpt lat="49.78368" lon="4.79634">
        <ele>253</ele>
        <time>2022-06-17T13:05:59.000Z</time>
      </trkpt>
      <trkpt lat="49.78374" lon="4.79638">
        <ele>253</ele>
        <time>2022-06-17T13:06:00.000Z</time>
      </trkpt>
      <trkpt lat="49.7838" lon="4.79642">
        <ele>253</ele>
        <time>2022-06-17T13:06:01.000Z</time>
      </trkpt>
      <trkpt lat="49.78386" lon="4.79646">
        <ele>253</ele>
        <time>2022-06-17T13:06:02.000Z</time>
      </trkpt>
      <trkpt lat="49.78392" lon="4.79649">
        <ele>253</ele>
        <time>2022-06-17T13:06:03.000Z</time>
      </trkpt>
      <trkpt lat="49.78398" lon="4.79652">
        <ele>253</ele>
        <time>2022-06-17T13:06:04.000Z</time>
      </trkpt>
      <trkpt lat="49.78404" lon="4.79655">
        <ele>253</ele>
        <time>2022-06-17T13:06:05.000Z</time>
      </trkpt>
      <trkpt lat="49.7841" lon="4.79658">
        <ele>253</ele>
        <time>2022-06-17T13:06:06.000Z</time>
      </trkpt>
      <trkpt lat="49.78416" lon="4.79661">
        <ele>254</ele>
        <time>2022-06-17T13:06:07.000Z</time>
      </trkpt>
      <trkpt lat="49.78422" lon="4.79663">
        <ele>254</ele>
        <time>2022-06-17T13:06:08.000Z</time>
      </trkpt>
      <trkpt lat="49.78427" lon="4.79665">
        <ele>254</ele>
        <time>2022-06-17T13:06:09.000Z</time>
      </trkpt>
      <trkpt lat="49.78433" lon="4.79668">
        <ele>254</ele>
        <time>2022-06-17T13:06:10.000Z</time>
      </trkpt>
      <trkpt lat="49.78438" lon="4.7967">
        <ele>255</ele>
        <time>2022-06-17T13:06:11.000Z</time>
      </trkpt>
      <trkpt lat="49.78444" lon="4.79672">
        <ele>255</ele>
        <time>2022-06-17T13:06:12.000Z</time>
      </trkpt>
      <trkpt lat="49.78449" lon="4.79674">
        <ele>255</ele>
        <time>2022-06-17T13:06:13.000Z</time>
      </trkpt>
      <trkpt lat="49.78455" lon="4.79676">
        <ele>255</ele>
        <time>2022-06-17T13:06:14.000Z</time>
      </trkpt>
      <trkpt lat="49.7846" lon="4.79678">
        <ele>256</ele>
        <time>2022-06-17T13:06:15.000Z</time>
      </trkpt>
      <trkpt lat="49.78466" lon="4.7968">
        <ele>256</ele>
        <time>2022-06-17T13:06:16.000Z</time>
      </trkpt>
      <trkpt lat="49.78471" lon="4.79682">
        <ele>256</ele>
        <time>2022-06-17T13:06:17.000Z</time>
      </trkpt>
      <trkpt lat="49.78476" lon="4.79685">
        <ele>256</ele>
        <time>2022-06-17T13:06:18.000Z</time>
      </trkpt>
      <trkpt lat="49.78482" lon="4.79686">
        <ele>256</ele>
        <time>2022-06-17T13:06:19.000Z</time>
      </trkpt>
      <trkpt lat="49.78487" lon="4.79688">
        <ele>256</ele>
        <time>2022-06-17T13:06:20.000Z</time>
      </trkpt>
      <trkpt lat="49.78492" lon="4.79691">
        <ele>257</ele>
        <time>2022-06-17T13:06:21.000Z</time>
      </trkpt>
      <trkpt lat="49.78497" lon="4.79693">
        <ele>257</ele>
        <time>2022-06-17T13:06:22.000Z</time>
      </trkpt>
      <trkpt lat="49.78502" lon="4.79695">
        <ele>257</ele>
        <time>2022-06-17T13:06:23.000Z</time>
      </trkpt>
      <trkpt lat="49.78507" lon="4.79697">
        <ele>257</ele>
        <time>2022-06-17T13:06:24.000Z</time>
      </trkpt>
      <trkpt lat="49.78512" lon="4.797">
        <ele>257</ele>
        <time>2022-06-17T13:06:25.000Z</time>
      </trkpt>
      <trkpt lat="49.78518" lon="4.79702">
        <ele>258</ele>
        <time>2022-06-17T13:06:26.000Z</time>
      </trkpt>
      <trkpt lat="49.78523" lon="4.79703">
        <ele>258</ele>
        <time>2022-06-17T13:06:27.000Z</time>
      </trkpt>
      <trkpt lat="49.78528" lon="4.79705">
        <ele>258</ele>
        <time>2022-06-17T13:06:28.000Z</time>
      </trkpt>
      <trkpt lat="49.78533" lon="4.79706">
        <ele>259</ele>
        <time>2022-06-17T13:06:29.000Z</time>
      </trkpt>
      <trkpt lat="49.78538" lon="4.79708">
        <ele>259</ele>
        <time>2022-06-17T13:06:30.000Z</time>
      </trkpt>
      <trkpt lat="49.78543" lon="4.7971">
        <ele>259</ele>
        <time>2022-06-17T13:06:31.000Z</time>
      </trkpt>
      <trkpt lat="49.78548" lon="4.79712">
        <ele>260</ele>
        <time>2022-06-17T13:06:32.000Z</time>
      </trkpt>
      <trkpt lat="49.78553" lon="4.79713">
        <ele>260</ele>
        <time>2022-06-17T13:06:33.000Z</time>
      </trkpt>
      <trkpt lat="49.78558" lon="4.79715">
        <ele>260</ele>
        <time>2022-06-17T13:06:34.000Z</time>
      </trkpt>
      <trkpt lat="49.78563" lon="4.79717">
        <ele>260</ele>
        <time>2022-06-17T13:06:35.000Z</time>
      </trkpt>
      <trkpt lat="49.78568" lon="4.79718">
        <ele>261</ele>
        <time>2022-06-17T13:06:36.000Z</time>
      </trkpt>
      <trkpt lat="49.78572" lon="4.7972">
        <ele>261</ele>
        <time>2022-06-17T13:06:37.000Z</time>
      </trkpt>
      <trkpt lat="49.78577" lon="4.79722">
        <ele>261</ele>
        <time>2022-06-17T13:06:38.000Z</time>
      </trkpt>
      <trkpt lat="49.78582" lon="4.79723">
        <ele>261</ele>
        <time>2022-06-17T13:06:39.000Z</time>
      </trkpt>
      <trkpt lat="49.78586" lon="4.79725">
        <ele>261</ele>
        <time>2022-06-17T13:06:40.000Z</time>
      </trkpt>
      <trkpt lat="49.78591" lon="4.79727">
        <ele>262</ele>
        <time>2022-06-17T13:06:41.000Z</time>
      </trkpt>
      <trkpt lat="49.78596" lon="4.79729">
        <ele>262</ele>
        <time>2022-06-17T13:06:42.000Z</time>
      </trkpt>
      <trkpt lat="49.786" lon="4.7973">
        <ele>262</ele>
        <time>2022-06-17T13:06:43.000Z</time>
      </trkpt>
      <trkpt lat="49.78605" lon="4.79732">
        <ele>262</ele>
        <time>2022-06-17T13:06:44.000Z</time>
      </trkpt>
      <trkpt lat="49.78609" lon="4.79733">
        <ele>262</ele>
        <time>2022-06-17T13:06:45.000Z</time>
      </trkpt>
      <trkpt lat="49.78614" lon="4.79735">
        <ele>263</ele>
        <time>2022-06-17T13:06:46.000Z</time>
      </trkpt>
      <trkpt lat="49.78619" lon="4.79737">
        <ele>263</ele>
        <time>2022-06-17T13:06:47.000Z</time>
      </trkpt>
      <trkpt lat="49.78624" lon="4.79738">
        <ele>263</ele>
        <time>2022-06-17T13:06:48.000Z</time>
      </trkpt>
      <trkpt lat="49.78628" lon="4.7974">
        <ele>263</ele>
        <time>2022-06-17T13:06:49.000Z</time>
      </trkpt>
      <trkpt lat="49.78633" lon="4.79742">
        <ele>263</ele>
        <time>2022-06-17T13:06:50.000Z</time>
      </trkpt>
      <trkpt lat="49.78638" lon="4.79744">
        <ele>263</ele>
        <time>2022-06-17T13:06:51.000Z</time>
      </trkpt>
      <trkpt lat="49.78643" lon="4.79746">
        <ele>263</ele>
        <time>2022-06-17T13:06:52.000Z</time>
      </trkpt>
      <trkpt lat="49.78648" lon="4.79747">
        <ele>263</ele>
        <time>2022-06-17T13:06:53.000Z</time>
      </trkpt>
      <trkpt lat="49.78653" lon="4.79749">
        <ele>264</ele>
        <time>2022-06-17T13:06:54.000Z</time>
      </trkpt>
      <trkpt lat="49.78658" lon="4.79751">
        <ele>264</ele>
        <time>2022-06-17T13:06:55.000Z</time>
      </trkpt>
      <trkpt lat="49.78664" lon="4.79753">
        <ele>264</ele>
        <time>2022-06-17T13:06:56.000Z</time>
      </trkpt>
      <trkpt lat="49.78669" lon="4.79755">
        <ele>264</ele>
        <time>2022-06-17T13:06:57.000Z</time>
      </trkpt>
      <trkpt lat="49.78674" lon="4.79757">
        <ele>264</ele>
        <time>2022-06-17T13:06:58.000Z</time>
      </trkpt>
      <trkpt lat="49.78679" lon="4.79759">
        <ele>264</ele>
        <time>2022-06-17T13:06:59.000Z</time>
      </trkpt>
      <trkpt lat="49.78685" lon="4.7976">
        <ele>265</ele>
        <time>2022-06-17T13:07:00.000Z</time>
      </trkpt>
      <trkpt lat="49.7869" lon="4.79762">
        <ele>265</ele>
        <time>2022-06-17T13:07:01.000Z</time>
      </trkpt>
      <trkpt lat="49.78696" lon="4.79764">
        <ele>265</ele>
        <time>2022-06-17T13:07:02.000Z</time>
      </trkpt>
      <trkpt lat="49.787" lon="4.79767">
        <ele>265</ele>
        <time>2022-06-17T13:07:03.000Z</time>
      </trkpt>
      <trkpt lat="49.78704" lon="4.79768">
        <ele>266</ele>
        <time>2022-06-17T13:07:04.000Z</time>
      </trkpt>
      <trkpt lat="49.78708" lon="4.79769">
        <ele>266</ele>
        <time>2022-06-17T13:07:05.000Z</time>
      </trkpt>
      <trkpt lat="49.78713" lon="4.79771">
        <ele>266</ele>
        <time>2022-06-17T13:07:06.000Z</time>
      </trkpt>
      <trkpt lat="49.78718" lon="4.79772">
        <ele>266</ele>
        <time>2022-06-17T13:07:07.000Z</time>
      </trkpt>
      <trkpt lat="49.78723" lon="4.79774">
        <ele>266</ele>
        <time>2022-06-17T13:07:08.000Z</time>
      </trkpt>
      <trkpt lat="49.78727" lon="4.79776">
        <ele>266</ele>
        <time>2022-06-17T13:07:09.000Z</time>
      </trkpt>
      <trkpt lat="49.78732" lon="4.79778">
        <ele>267</ele>
        <time>2022-06-17T13:07:10.000Z</time>
      </trkpt>
      <trkpt lat="49.78736" lon="4.7978">
        <ele>267</ele>
        <time>2022-06-17T13:07:11.000Z</time>
      </trkpt>
      <trkpt lat="49.78741" lon="4.79782">
        <ele>267</ele>
        <time>2022-06-17T13:07:12.000Z</time>
      </trkpt>
      <trkpt lat="49.78746" lon="4.79785">
        <ele>267</ele>
        <time>2022-06-17T13:07:13.000Z</time>
      </trkpt>
      <trkpt lat="49.78752" lon="4.79787">
        <ele>267</ele>
        <time>2022-06-17T13:07:14.000Z</time>
      </trkpt>
      <trkpt lat="49.78758" lon="4.7979">
        <ele>267</ele>
        <time>2022-06-17T13:07:15.000Z</time>
      </trkpt>
      <trkpt lat="49.78764" lon="4.79793">
        <ele>267</ele>
        <time>2022-06-17T13:07:16.000Z</time>
      </trkpt>
      <trkpt lat="49.78769" lon="4.79795">
        <ele>267</ele>
        <time>2022-06-17T13:07:17.000Z</time>
      </trkpt>
      <trkpt lat="49.78776" lon="4.79798">
        <ele>268</ele>
        <time>2022-06-17T13:07:18.000Z</time>
      </trkpt>
      <trkpt lat="49.78781" lon="4.79801">
        <ele>268</ele>
        <time>2022-06-17T13:07:19.000Z</time>
      </trkpt>
      <trkpt lat="49.78787" lon="4.79803">
        <ele>268</ele>
        <time>2022-06-17T13:07:20.000Z</time>
      </trkpt>
      <trkpt lat="49.78793" lon="4.79806">
        <ele>268</ele>
        <time>2022-06-17T13:07:21.000Z</time>
      </trkpt>
      <trkpt lat="49.78799" lon="4.79808">
        <ele>268</ele>
        <time>2022-06-17T13:07:22.000Z</time>
      </trkpt>
      <trkpt lat="49.78804" lon="4.79811">
        <ele>269</ele>
        <time>2022-06-17T13:07:23.000Z</time>
      </trkpt>
      <trkpt lat="49.78811" lon="4.79815">
        <ele>269</ele>
        <time>2022-06-17T13:07:24.000Z</time>
      </trkpt>
      <trkpt lat="49.78817" lon="4.79818">
        <ele>269</ele>
        <time>2022-06-17T13:07:25.000Z</time>
      </trkpt>
      <trkpt lat="49.78823" lon="4.79822">
        <ele>269</ele>
        <time>2022-06-17T13:07:26.000Z</time>
      </trkpt>
      <trkpt lat="49.7883" lon="4.79826">
        <ele>269</ele>
        <time>2022-06-17T13:07:27.000Z</time>
      </trkpt>
      <trkpt lat="49.78836" lon="4.7983">
        <ele>269</ele>
        <time>2022-06-17T13:07:28.000Z</time>
      </trkpt>
      <trkpt lat="49.78842" lon="4.79834">
        <ele>269</ele>
        <time>2022-06-17T13:07:29.000Z</time>
      </trkpt>
      <trkpt lat="49.78848" lon="4.79837">
        <ele>269</ele>
        <time>2022-06-17T13:07:30.000Z</time>
      </trkpt>
      <trkpt lat="49.78854" lon="4.79841">
        <ele>269</ele>
        <time>2022-06-17T13:07:31.000Z</time>
      </trkpt>
      <trkpt lat="49.7886" lon="4.79845">
        <ele>269</ele>
        <time>2022-06-17T13:07:32.000Z</time>
      </trkpt>
      <trkpt lat="49.78867" lon="4.79849">
        <ele>269</ele>
        <time>2022-06-17T13:07:33.000Z</time>
      </trkpt>
      <trkpt lat="49.78873" lon="4.79854">
        <ele>269</ele>
        <time>2022-06-17T13:07:34.000Z</time>
      </trkpt>
      <trkpt lat="49.78878" lon="4.79858">
        <ele>269</ele>
        <time>2022-06-17T13:07:35.000Z</time>
      </trkpt>
      <trkpt lat="49.78883" lon="4.79863">
        <ele>269</ele>
        <time>2022-06-17T13:07:36.000Z</time>
      </trkpt>
      <trkpt lat="49.78889" lon="4.79868">
        <ele>269</ele>
        <time>2022-06-17T13:07:37.000Z</time>
      </trkpt>
      <trkpt lat="49.78896" lon="4.79873">
        <ele>269</ele>
        <time>2022-06-17T13:07:38.000Z</time>
      </trkpt>
      <trkpt lat="49.78902" lon="4.79878">
        <ele>268</ele>
        <time>2022-06-17T13:07:39.000Z</time>
      </trkpt>
      <trkpt lat="49.78908" lon="4.79883">
        <ele>268</ele>
        <time>2022-06-17T13:07:40.000Z</time>
      </trkpt>
      <trkpt lat="49.78915" lon="4.79888">
        <ele>268</ele>
        <time>2022-06-17T13:07:41.000Z</time>
      </trkpt>
      <trkpt lat="49.78921" lon="4.79893">
        <ele>268</ele>
        <time>2022-06-17T13:07:42.000Z</time>
      </trkpt>
      <trkpt lat="49.78927" lon="4.79898">
        <ele>268</ele>
        <time>2022-06-17T13:07:43.000Z</time>
      </trkpt>
      <trkpt lat="49.78933" lon="4.79904">
        <ele>267</ele>
        <time>2022-06-17T13:07:44.000Z</time>
      </trkpt>
      <trkpt lat="49.7894" lon="4.79909">
        <ele>267</ele>
        <time>2022-06-17T13:07:45.000Z</time>
      </trkpt>
      <trkpt lat="49.78946" lon="4.79915">
        <ele>267</ele>
        <time>2022-06-17T13:07:46.000Z</time>
      </trkpt>
      <trkpt lat="49.78952" lon="4.7992">
        <ele>267</ele>
        <time>2022-06-17T13:07:47.000Z</time>
      </trkpt>
      <trkpt lat="49.78959" lon="4.79926">
        <ele>267</ele>
        <time>2022-06-17T13:07:48.000Z</time>
      </trkpt>
      <trkpt lat="49.78965" lon="4.79931">
        <ele>267</ele>
        <time>2022-06-17T13:07:49.000Z</time>
      </trkpt>
      <trkpt lat="49.78971" lon="4.79936">
        <ele>266</ele>
        <time>2022-06-17T13:07:50.000Z</time>
      </trkpt>
      <trkpt lat="49.78978" lon="4.79942">
        <ele>266</ele>
        <time>2022-06-17T13:07:51.000Z</time>
      </trkpt>
      <trkpt lat="49.78984" lon="4.79947">
        <ele>266</ele>
        <time>2022-06-17T13:07:52.000Z</time>
      </trkpt>
      <trkpt lat="49.7899" lon="4.79953">
        <ele>266</ele>
        <time>2022-06-17T13:07:53.000Z</time>
      </trkpt>
      <trkpt lat="49.78996" lon="4.79958">
        <ele>266</ele>
        <time>2022-06-17T13:07:54.000Z</time>
      </trkpt>
      <trkpt lat="49.79003" lon="4.79964">
        <ele>266</ele>
        <time>2022-06-17T13:07:55.000Z</time>
      </trkpt>
      <trkpt lat="49.79009" lon="4.79969">
        <ele>266</ele>
        <time>2022-06-17T13:07:56.000Z</time>
      </trkpt>
      <trkpt lat="49.79015" lon="4.79975">
        <ele>266</ele>
        <time>2022-06-17T13:07:57.000Z</time>
      </trkpt>
      <trkpt lat="49.79021" lon="4.7998">
        <ele>265</ele>
        <time>2022-06-17T13:07:58.000Z</time>
      </trkpt>
      <trkpt lat="49.79027" lon="4.79986">
        <ele>265</ele>
        <time>2022-06-17T13:07:59.000Z</time>
      </trkpt>
      <trkpt lat="49.79032" lon="4.79991">
        <ele>265</ele>
        <time>2022-06-17T13:08:00.000Z</time>
      </trkpt>
      <trkpt lat="49.79037" lon="4.79997">
        <ele>265</ele>
        <time>2022-06-17T13:08:01.000Z</time>
      </trkpt>
      <trkpt lat="49.79043" lon="4.80002">
        <ele>265</ele>
        <time>2022-06-17T13:08:02.000Z</time>
      </trkpt>
      <trkpt lat="49.79048" lon="4.80008">
        <ele>265</ele>
        <time>2022-06-17T13:08:03.000Z</time>
      </trkpt>
      <trkpt lat="49.79054" lon="4.80013">
        <ele>265</ele>
        <time>2022-06-17T13:08:04.000Z</time>
      </trkpt>
      <trkpt lat="49.7906" lon="4.80019">
        <ele>265</ele>
        <time>2022-06-17T13:08:05.000Z</time>
      </trkpt>
      <trkpt lat="49.79067" lon="4.80025">
        <ele>265</ele>
        <time>2022-06-17T13:08:06.000Z</time>
      </trkpt>
      <trkpt lat="49.79073" lon="4.8003">
        <ele>265</ele>
        <time>2022-06-17T13:08:07.000Z</time>
      </trkpt>
      <trkpt lat="49.79079" lon="4.80036">
        <ele>265</ele>
        <time>2022-06-17T13:08:08.000Z</time>
      </trkpt>
      <trkpt lat="49.79085" lon="4.80041">
        <ele>265</ele>
        <time>2022-06-17T13:08:09.000Z</time>
      </trkpt>
      <trkpt lat="49.79091" lon="4.80047">
        <ele>265</ele>
        <time>2022-06-17T13:08:10.000Z</time>
      </trkpt>
      <trkpt lat="49.79098" lon="4.80051">
        <ele>265</ele>
        <time>2022-06-17T13:08:11.000Z</time>
      </trkpt>
      <trkpt lat="49.79104" lon="4.80054">
        <ele>265</ele>
        <time>2022-06-17T13:08:12.000Z</time>
      </trkpt>
      <trkpt lat="49.79111" lon="4.80057">
        <ele>265</ele>
        <time>2022-06-17T13:08:13.000Z</time>
      </trkpt>
      <trkpt lat="49.79118" lon="4.80061">
        <ele>265</ele>
        <time>2022-06-17T13:08:14.000Z</time>
      </trkpt>
      <trkpt lat="49.79124" lon="4.80065">
        <ele>265</ele>
        <time>2022-06-17T13:08:15.000Z</time>
      </trkpt>
      <trkpt lat="49.7913" lon="4.8007">
        <ele>265</ele>
        <time>2022-06-17T13:08:16.000Z</time>
      </trkpt>
      <trkpt lat="49.79135" lon="4.80073">
        <ele>265</ele>
        <time>2022-06-17T13:08:17.000Z</time>
      </trkpt>
      <trkpt lat="49.7914" lon="4.80075">
        <ele>265</ele>
        <time>2022-06-17T13:08:18.000Z</time>
      </trkpt>
      <trkpt lat="49.79146" lon="4.80075">
        <ele>265</ele>
        <time>2022-06-17T13:08:19.000Z</time>
      </trkpt>
      <trkpt lat="49.79153" lon="4.80074">
        <ele>265</ele>
        <time>2022-06-17T13:08:20.000Z</time>
      </trkpt>
      <trkpt lat="49.79159" lon="4.80072">
        <ele>265</ele>
        <time>2022-06-17T13:08:21.000Z</time>
      </trkpt>
      <trkpt lat="49.79165" lon="4.80071">
        <ele>265</ele>
        <time>2022-06-17T13:08:22.000Z</time>
      </trkpt>
      <trkpt lat="49.7917" lon="4.8007">
        <ele>266</ele>
        <time>2022-06-17T13:08:23.000Z</time>
      </trkpt>
      <trkpt lat="49.79176" lon="4.80068">
        <ele>266</ele>
        <time>2022-06-17T13:08:24.000Z</time>
      </trkpt>
      <trkpt lat="49.79181" lon="4.80067">
        <ele>266</ele>
        <time>2022-06-17T13:08:25.000Z</time>
      </trkpt>
      <trkpt lat="49.79185" lon="4.80066">
        <ele>266</ele>
        <time>2022-06-17T13:08:26.000Z</time>
      </trkpt>
      <trkpt lat="49.79189" lon="4.80067">
        <ele>266</ele>
        <time>2022-06-17T13:08:27.000Z</time>
      </trkpt>
      <trkpt lat="49.79193" lon="4.80067">
        <ele>267</ele>
        <time>2022-06-17T13:08:28.000Z</time>
      </trkpt>
      <trkpt lat="49.79197" lon="4.80067">
        <ele>267</ele>
        <time>2022-06-17T13:08:29.000Z</time>
      </trkpt>
      <trkpt lat="49.79201" lon="4.80068">
        <ele>267</ele>
        <time>2022-06-17T13:08:30.000Z</time>
      </trkpt>
      <trkpt lat="49.79204" lon="4.80068">
        <ele>268</ele>
        <time>2022-06-17T13:08:31.000Z</time>
      </trkpt>
      <trkpt lat="49.79206" lon="4.80067">
        <ele>268</ele>
        <time>2022-06-17T13:08:32.000Z</time>
      </trkpt>
      <trkpt lat="49.79207" lon="4.80066">
        <ele>268</ele>
        <time>2022-06-17T13:08:33.000Z</time>
      </trkpt>
      <trkpt lat="49.79209" lon="4.80065">
        <ele>269</ele>
        <time>2022-06-17T13:08:34.000Z</time>
      </trkpt>
      <trkpt lat="49.79211" lon="4.80064">
        <ele>269</ele>
        <time>2022-06-17T13:08:35.000Z</time>
      </trkpt>
      <trkpt lat="49.79214" lon="4.80062">
        <ele>270</ele>
        <time>2022-06-17T13:08:36.000Z</time>
      </trkpt>
      <trkpt lat="49.79217" lon="4.80061">
        <ele>270</ele>
        <time>2022-06-17T13:08:37.000Z</time>
      </trkpt>
      <trkpt lat="49.7922" lon="4.8006">
        <ele>271</ele>
        <time>2022-06-17T13:08:38.000Z</time>
      </trkpt>
      <trkpt lat="49.79223" lon="4.80059">
        <ele>271</ele>
        <time>2022-06-17T13:08:39.000Z</time>
      </trkpt>
      <trkpt lat="49.79226" lon="4.80058">
        <ele>272</ele>
        <time>2022-06-17T13:08:40.000Z</time>
      </trkpt>
      <trkpt lat="49.7923" lon="4.80057">
        <ele>272</ele>
        <time>2022-06-17T13:08:41.000Z</time>
      </trkpt>
      <trkpt lat="49.79233" lon="4.80055">
        <ele>272</ele>
        <time>2022-06-17T13:08:42.000Z</time>
      </trkpt>
      <trkpt lat="49.79236" lon="4.80055">
        <ele>273</ele>
        <time>2022-06-17T13:08:43.000Z</time>
      </trkpt>
      <trkpt lat="49.7924" lon="4.80053">
        <ele>273</ele>
        <time>2022-06-17T13:08:44.000Z</time>
      </trkpt>
      <trkpt lat="49.79243" lon="4.80053">
        <ele>274</ele>
        <time>2022-06-17T13:08:45.000Z</time>
      </trkpt>
      <trkpt lat="49.79247" lon="4.80052">
        <ele>274</ele>
        <time>2022-06-17T13:08:46.000Z</time>
      </trkpt>
      <trkpt lat="49.79251" lon="4.80051">
        <ele>275</ele>
        <time>2022-06-17T13:08:47.000Z</time>
      </trkpt>
      <trkpt lat="49.79256" lon="4.8005">
        <ele>275</ele>
        <time>2022-06-17T13:08:48.000Z</time>
      </trkpt>
      <trkpt lat="49.79259" lon="4.80049">
        <ele>275</ele>
        <time>2022-06-17T13:08:49.000Z</time>
      </trkpt>
      <trkpt lat="49.79263" lon="4.80048">
        <ele>276</ele>
        <time>2022-06-17T13:08:50.000Z</time>
      </trkpt>
      <trkpt lat="49.79267" lon="4.80047">
        <ele>276</ele>
        <time>2022-06-17T13:08:51.000Z</time>
      </trkpt>
      <trkpt lat="49.79271" lon="4.80046">
        <ele>277</ele>
        <time>2022-06-17T13:08:52.000Z</time>
      </trkpt>
      <trkpt lat="49.79275" lon="4.80046">
        <ele>277</ele>
        <time>2022-06-17T13:08:53.000Z</time>
      </trkpt>
      <trkpt lat="49.79279" lon="4.80045">
        <ele>277</ele>
        <time>2022-06-17T13:08:54.000Z</time>
      </trkpt>
      <trkpt lat="49.79282" lon="4.80044">
        <ele>278</ele>
        <time>2022-06-17T13:08:55.000Z</time>
      </trkpt>
      <trkpt lat="49.79285" lon="4.80044">
        <ele>278</ele>
        <time>2022-06-17T13:08:56.000Z</time>
      </trkpt>
      <trkpt lat="49.79288" lon="4.80043">
        <ele>278</ele>
        <time>2022-06-17T13:08:57.000Z</time>
      </trkpt>
      <trkpt lat="49.79291" lon="4.80042">
        <ele>279</ele>
        <time>2022-06-17T13:08:58.000Z</time>
      </trkpt>
      <trkpt lat="49.79294" lon="4.80042">
        <ele>279</ele>
        <time>2022-06-17T13:08:59.000Z</time>
      </trkpt>
      <trkpt lat="49.79297" lon="4.80041">
        <ele>279</ele>
        <time>2022-06-17T13:09:00.000Z</time>
      </trkpt>
      <trkpt lat="49.793" lon="4.80041">
        <ele>279</ele>
        <time>2022-06-17T13:09:01.000Z</time>
      </trkpt>
      <trkpt lat="49.79303" lon="4.80039">
        <ele>280</ele>
        <time>2022-06-17T13:09:02.000Z</time>
      </trkpt>
      <trkpt lat="49.79306" lon="4.80036">
        <ele>280</ele>
        <time>2022-06-17T13:09:03.000Z</time>
      </trkpt>
      <trkpt lat="49.79309" lon="4.80033">
        <ele>280</ele>
        <time>2022-06-17T13:09:04.000Z</time>
      </trkpt>
      <trkpt lat="49.79313" lon="4.80029">
        <ele>281</ele>
        <time>2022-06-17T13:09:05.000Z</time>
      </trkpt>
      <trkpt lat="49.79315" lon="4.80024">
        <ele>281</ele>
        <time>2022-06-17T13:09:06.000Z</time>
      </trkpt>
      <trkpt lat="49.79317" lon="4.80021">
        <ele>281</ele>
        <time>2022-06-17T13:09:07.000Z</time>
      </trkpt>
      <trkpt lat="49.79319" lon="4.80018">
        <ele>281</ele>
        <time>2022-06-17T13:09:08.000Z</time>
      </trkpt>
      <trkpt lat="49.79321" lon="4.80016">
        <ele>281</ele>
        <time>2022-06-17T13:09:09.000Z</time>
      </trkpt>
      <trkpt lat="49.79322" lon="4.80013">
        <ele>282</ele>
        <time>2022-06-17T13:09:10.000Z</time>
      </trkpt>
      <trkpt lat="49.79325" lon="4.8001">
        <ele>282</ele>
        <time>2022-06-17T13:09:11.000Z</time>
      </trkpt>
      <trkpt lat="49.79328" lon="4.80006">
        <ele>282</ele>
        <time>2022-06-17T13:09:12.000Z</time>
      </trkpt>
      <trkpt lat="49.7933" lon="4.80001">
        <ele>282</ele>
        <time>2022-06-17T13:09:13.000Z</time>
      </trkpt>
      <trkpt lat="49.79333" lon="4.79997">
        <ele>282</ele>
        <time>2022-06-17T13:09:14.000Z</time>
      </trkpt>
      <trkpt lat="49.79336" lon="4.79992">
        <ele>282</ele>
        <time>2022-06-17T13:09:15.000Z</time>
      </trkpt>
      <trkpt lat="49.79338" lon="4.79987">
        <ele>283</ele>
        <time>2022-06-17T13:09:16.000Z</time>
      </trkpt>
      <trkpt lat="49.7934" lon="4.79982">
        <ele>283</ele>
        <time>2022-06-17T13:09:17.000Z</time>
      </trkpt>
      <trkpt lat="49.79342" lon="4.79978">
        <ele>283</ele>
        <time>2022-06-17T13:09:18.000Z</time>
      </trkpt>
      <trkpt lat="49.79344" lon="4.79973">
        <ele>283</ele>
        <time>2022-06-17T13:09:19.000Z</time>
      </trkpt>
      <trkpt lat="49.79346" lon="4.79968">
        <ele>282</ele>
        <time>2022-06-17T13:09:20.000Z</time>
      </trkpt>
      <trkpt lat="49.79348" lon="4.79963">
        <ele>282</ele>
        <time>2022-06-17T13:09:21.000Z</time>
      </trkpt>
      <trkpt lat="49.7935" lon="4.79958">
        <ele>282</ele>
        <time>2022-06-17T13:09:22.000Z</time>
      </trkpt>
      <trkpt lat="49.79352" lon="4.79953">
        <ele>282</ele>
        <time>2022-06-17T13:09:23.000Z</time>
      </trkpt>
      <trkpt lat="49.79354" lon="4.79949">
        <ele>282</ele>
        <time>2022-06-17T13:09:24.000Z</time>
      </trkpt>
      <trkpt lat="49.79356" lon="4.79945">
        <ele>282</ele>
        <time>2022-06-17T13:09:25.000Z</time>
      </trkpt>
      <trkpt lat="49.79359" lon="4.79941">
        <ele>282</ele>
        <time>2022-06-17T13:09:26.000Z</time>
      </trkpt>
      <trkpt lat="49.79361" lon="4.79936">
        <ele>282</ele>
        <time>2022-06-17T13:09:27.000Z</time>
      </trkpt>
      <trkpt lat="49.79363" lon="4.79931">
        <ele>282</ele>
        <time>2022-06-17T13:09:28.000Z</time>
      </trkpt>
      <trkpt lat="49.79364" lon="4.79928">
        <ele>282</ele>
        <time>2022-06-17T13:09:29.000Z</time>
      </trkpt>
      <trkpt lat="49.79365" lon="4.79924">
        <ele>281</ele>
        <time>2022-06-17T13:09:30.000Z</time>
      </trkpt>
      <trkpt lat="49.79366" lon="4.79921">
        <ele>281</ele>
        <time>2022-06-17T13:09:31.000Z</time>
      </trkpt>
      <trkpt lat="49.79367" lon="4.79917">
        <ele>281</ele>
        <time>2022-06-17T13:09:32.000Z</time>
      </trkpt>
      <trkpt lat="49.79369" lon="4.79914">
        <ele>282</ele>
        <time>2022-06-17T13:09:33.000Z</time>
      </trkpt>
      <trkpt lat="49.79371" lon="4.7991">
        <ele>282</ele>
        <time>2022-06-17T13:09:34.000Z</time>
      </trkpt>
      <trkpt lat="49.79372" lon="4.79906">
        <ele>282</ele>
        <time>2022-06-17T13:09:35.000Z</time>
      </trkpt>
      <trkpt lat="49.79374" lon="4.79902">
        <ele>282</ele>
        <time>2022-06-17T13:09:36.000Z</time>
      </trkpt>
      <trkpt lat="49.79375" lon="4.79898">
        <ele>282</ele>
        <time>2022-06-17T13:09:37.000Z</time>
      </trkpt>
      <trkpt lat="49.79378" lon="4.79894">
        <ele>282</ele>
        <time>2022-06-17T13:09:38.000Z</time>
      </trkpt>
      <trkpt lat="49.7938" lon="4.7989">
        <ele>283</ele>
        <time>2022-06-17T13:09:39.000Z</time>
      </trkpt>
      <trkpt lat="49.79381" lon="4.79886">
        <ele>283</ele>
        <time>2022-06-17T13:09:40.000Z</time>
      </trkpt>
      <trkpt lat="49.79383" lon="4.79883">
        <ele>283</ele>
        <time>2022-06-17T13:09:41.000Z</time>
      </trkpt>
      <trkpt lat="49.79384" lon="4.79879">
        <ele>283</ele>
        <time>2022-06-17T13:09:42.000Z</time>
      </trkpt>
      <trkpt lat="49.79385" lon="4.79874">
        <ele>283</ele>
        <time>2022-06-17T13:09:43.000Z</time>
      </trkpt>
      <trkpt lat="49.79386" lon="4.7987">
        <ele>284</ele>
        <time>2022-06-17T13:09:44.000Z</time>
      </trkpt>
      <trkpt lat="49.79387" lon="4.79866">
        <ele>284</ele>
        <time>2022-06-17T13:09:45.000Z</time>
      </trkpt>
      <trkpt lat="49.79389" lon="4.79862">
        <ele>284</ele>
        <time>2022-06-17T13:09:46.000Z</time>
      </trkpt>
      <trkpt lat="49.79391" lon="4.79859">
        <ele>284</ele>
        <time>2022-06-17T13:09:47.000Z</time>
      </trkpt>
      <trkpt lat="49.79393" lon="4.79858">
        <ele>284</ele>
        <time>2022-06-17T13:09:48.000Z</time>
      </trkpt>
      <trkpt lat="49.79395" lon="4.79857">
        <ele>284</ele>
        <time>2022-06-17T13:09:49.000Z</time>
      </trkpt>
      <trkpt lat="49.79397" lon="4.79856">
        <ele>284</ele>
        <time>2022-06-17T13:09:50.000Z</time>
      </trkpt>
      <trkpt lat="49.79398" lon="4.79855">
        <ele>284</ele>
        <time>2022-06-17T13:09:51.000Z</time>
      </trkpt>
      <trkpt lat="49.794" lon="4.79855">
        <ele>284</ele>
        <time>2022-06-17T13:09:52.000Z</time>
      </trkpt>
      <trkpt lat="49.79401" lon="4.79854">
        <ele>284</ele>
        <time>2022-06-17T13:09:53.000Z</time>
      </trkpt>
      <trkpt lat="49.79403" lon="4.79852">
        <ele>284</ele>
        <time>2022-06-17T13:09:54.000Z</time>
      </trkpt>
      <trkpt lat="49.79405" lon="4.79851">
        <ele>284</ele>
        <time>2022-06-17T13:09:55.000Z</time>
      </trkpt>
      <trkpt lat="49.79406" lon="4.7985">
        <ele>284</ele>
        <time>2022-06-17T13:09:56.000Z</time>
      </trkpt>
      <trkpt lat="49.79408" lon="4.7985">
        <ele>284</ele>
        <time>2022-06-17T13:09:57.000Z</time>
      </trkpt>
      <trkpt lat="49.79409" lon="4.7985">
        <ele>284</ele>
        <time>2022-06-17T13:09:58.000Z</time>
      </trkpt>
      <trkpt lat="49.79411" lon="4.79849">
        <ele>284</ele>
        <time>2022-06-17T13:09:59.000Z</time>
      </trkpt>
      <trkpt lat="49.79412" lon="4.79848">
        <ele>285</ele>
        <time>2022-06-17T13:10:00.000Z</time>
      </trkpt>
      <trkpt lat="49.79414" lon="4.79847">
        <ele>285</ele>
        <time>2022-06-17T13:10:01.000Z</time>
      </trkpt>
      <trkpt lat="49.79416" lon="4.79847">
        <ele>285</ele>
        <time>2022-06-17T13:10:02.000Z</time>
      </trkpt>
      <trkpt lat="49.79418" lon="4.79846">
        <ele>285</ele>
        <time>2022-06-17T13:10:03.000Z</time>
      </trkpt>
      <trkpt lat="49.7942" lon="4.79845">
        <ele>285</ele>
        <time>2022-06-17T13:10:04.000Z</time>
      </trkpt>
      <trkpt lat="49.79422" lon="4.79845">
        <ele>285</ele>
        <time>2022-06-17T13:10:05.000Z</time>
      </trkpt>
      <trkpt lat="49.79424" lon="4.79844">
        <ele>285</ele>
        <time>2022-06-17T13:10:06.000Z</time>
      </trkpt>
      <trkpt lat="49.79426" lon="4.79844">
        <ele>286</ele>
        <time>2022-06-17T13:10:07.000Z</time>
      </trkpt>
      <trkpt lat="49.79429" lon="4.79843">
        <ele>286</ele>
        <time>2022-06-17T13:10:08.000Z</time>
      </trkpt>
      <trkpt lat="49.79432" lon="4.79843">
        <ele>286</ele>
        <time>2022-06-17T13:10:09.000Z</time>
      </trkpt>
      <trkpt lat="49.79435" lon="4.79842">
        <ele>286</ele>
        <time>2022-06-17T13:10:10.000Z</time>
      </trkpt>
      <trkpt lat="49.79438" lon="4.79841">
        <ele>287</ele>
        <time>2022-06-17T13:10:11.000Z</time>
      </trkpt>
      <trkpt lat="49.79441" lon="4.79841">
        <ele>287</ele>
        <time>2022-06-17T13:10:12.000Z</time>
      </trkpt>
      <trkpt lat="49.79444" lon="4.7984">
        <ele>287</ele>
        <time>2022-06-17T13:10:13.000Z</time>
      </trkpt>
      <trkpt lat="49.79448" lon="4.79839">
        <ele>287</ele>
        <time>2022-06-17T13:10:14.000Z</time>
      </trkpt>
      <trkpt lat="49.79451" lon="4.7984">
        <ele>288</ele>
        <time>2022-06-17T13:10:15.000Z</time>
      </trkpt>
      <trkpt lat="49.79454" lon="4.7984">
        <ele>288</ele>
        <time>2022-06-17T13:10:16.000Z</time>
      </trkpt>
      <trkpt lat="49.79457" lon="4.7984">
        <ele>288</ele>
        <time>2022-06-17T13:10:17.000Z</time>
      </trkpt>
      <trkpt lat="49.79459" lon="4.7984">
        <ele>288</ele>
        <time>2022-06-17T13:10:18.000Z</time>
      </trkpt>
      <trkpt lat="49.79461" lon="4.79839">
        <ele>289</ele>
        <time>2022-06-17T13:10:19.000Z</time>
      </trkpt>
      <trkpt lat="49.79463" lon="4.79839">
        <ele>289</ele>
        <time>2022-06-17T13:10:20.000Z</time>
      </trkpt>
      <trkpt lat="49.79466" lon="4.79839">
        <ele>289</ele>
        <time>2022-06-17T13:10:21.000Z</time>
      </trkpt>
      <trkpt lat="49.79468" lon="4.79839">
        <ele>289</ele>
        <time>2022-06-17T13:10:22.000Z</time>
      </trkpt>
      <trkpt lat="49.79472" lon="4.7984">
        <ele>290</ele>
        <time>2022-06-17T13:10:23.000Z</time>
      </trkpt>
      <trkpt lat="49.79475" lon="4.79839">
        <ele>290</ele>
        <time>2022-06-17T13:10:24.000Z</time>
      </trkpt>
      <trkpt lat="49.79479" lon="4.7984">
        <ele>290</ele>
        <time>2022-06-17T13:10:25.000Z</time>
      </trkpt>
      <trkpt lat="49.79482" lon="4.79839">
        <ele>290</ele>
        <time>2022-06-17T13:10:26.000Z</time>
      </trkpt>
      <trkpt lat="49.79485" lon="4.79839">
        <ele>290</ele>
        <time>2022-06-17T13:10:27.000Z</time>
      </trkpt>
      <trkpt lat="49.79488" lon="4.79838">
        <ele>291</ele>
        <time>2022-06-17T13:10:28.000Z</time>
      </trkpt>
      <trkpt lat="49.79491" lon="4.79837">
        <ele>291</ele>
        <time>2022-06-17T13:10:29.000Z</time>
      </trkpt>
      <trkpt lat="49.79494" lon="4.79837">
        <ele>291</ele>
        <time>2022-06-17T13:10:30.000Z</time>
      </trkpt>
      <trkpt lat="49.79497" lon="4.79838">
        <ele>292</ele>
        <time>2022-06-17T13:10:31.000Z</time>
      </trkpt>
      <trkpt lat="49.79499" lon="4.79838">
        <ele>292</ele>
        <time>2022-06-17T13:10:32.000Z</time>
      </trkpt>
      <trkpt lat="49.79503" lon="4.79837">
        <ele>292</ele>
        <time>2022-06-17T13:10:33.000Z</time>
      </trkpt>
      <trkpt lat="49.79506" lon="4.79837">
        <ele>292</ele>
        <time>2022-06-17T13:10:34.000Z</time>
      </trkpt>
      <trkpt lat="49.7951" lon="4.79837">
        <ele>292</ele>
        <time>2022-06-17T13:10:35.000Z</time>
      </trkpt>
      <trkpt lat="49.79513" lon="4.79836">
        <ele>293</ele>
        <time>2022-06-17T13:10:36.000Z</time>
      </trkpt>
      <trkpt lat="49.79516" lon="4.79836">
        <ele>293</ele>
        <time>2022-06-17T13:10:37.000Z</time>
      </trkpt>
      <trkpt lat="49.7952" lon="4.79836">
        <ele>293</ele>
        <time>2022-06-17T13:10:38.000Z</time>
      </trkpt>
      <trkpt lat="49.79523" lon="4.79835">
        <ele>294</ele>
        <time>2022-06-17T13:10:39.000Z</time>
      </trkpt>
      <trkpt lat="49.79526" lon="4.79835">
        <ele>294</ele>
        <time>2022-06-17T13:10:40.000Z</time>
      </trkpt>
      <trkpt lat="49.79528" lon="4.79834">
        <ele>294</ele>
        <time>2022-06-17T13:10:41.000Z</time>
      </trkpt>
      <trkpt lat="49.79531" lon="4.79834">
        <ele>294</ele>
        <time>2022-06-17T13:10:42.000Z</time>
      </trkpt>
      <trkpt lat="49.79535" lon="4.79833">
        <ele>295</ele>
        <time>2022-06-17T13:10:43.000Z</time>
      </trkpt>
      <trkpt lat="49.79538" lon="4.79834">
        <ele>295</ele>
        <time>2022-06-17T13:10:44.000Z</time>
      </trkpt>
      <trkpt lat="49.79541" lon="4.79833">
        <ele>295</ele>
        <time>2022-06-17T13:10:45.000Z</time>
      </trkpt>
      <trkpt lat="49.79544" lon="4.79833">
        <ele>296</ele>
        <time>2022-06-17T13:10:46.000Z</time>
      </trkpt>
      <trkpt lat="49.79547" lon="4.79833">
        <ele>296</ele>
        <time>2022-06-17T13:10:47.000Z</time>
      </trkpt>
      <trkpt lat="49.7955" lon="4.79833">
        <ele>296</ele>
        <time>2022-06-17T13:10:48.000Z</time>
      </trkpt>
      <trkpt lat="49.79553" lon="4.79832">
        <ele>296</ele>
        <time>2022-06-17T13:10:49.000Z</time>
      </trkpt>
      <trkpt lat="49.79555" lon="4.79832">
        <ele>296</ele>
        <time>2022-06-17T13:10:50.000Z</time>
      </trkpt>
      <trkpt lat="49.79558" lon="4.79831">
        <ele>296</ele>
        <time>2022-06-17T13:10:51.000Z</time>
      </trkpt>
      <trkpt lat="49.79561" lon="4.79831">
        <ele>297</ele>
        <time>2022-06-17T13:10:52.000Z</time>
      </trkpt>
      <trkpt lat="49.79565" lon="4.7983">
        <ele>297</ele>
        <time>2022-06-17T13:10:53.000Z</time>
      </trkpt>
      <trkpt lat="49.79568" lon="4.7983">
        <ele>297</ele>
        <time>2022-06-17T13:10:54.000Z</time>
      </trkpt>
      <trkpt lat="49.79571" lon="4.79829">
        <ele>298</ele>
        <time>2022-06-17T13:10:55.000Z</time>
      </trkpt>
      <trkpt lat="49.79575" lon="4.79829">
        <ele>298</ele>
        <time>2022-06-17T13:10:56.000Z</time>
      </trkpt>
      <trkpt lat="49.79578" lon="4.79828">
        <ele>298</ele>
        <time>2022-06-17T13:10:57.000Z</time>
      </trkpt>
      <trkpt lat="49.79581" lon="4.79828">
        <ele>299</ele>
        <time>2022-06-17T13:10:58.000Z</time>
      </trkpt>
      <trkpt lat="49.79584" lon="4.79827">
        <ele>299</ele>
        <time>2022-06-17T13:10:59.000Z</time>
      </trkpt>
      <trkpt lat="49.79588" lon="4.79826">
        <ele>300</ele>
        <time>2022-06-17T13:11:00.000Z</time>
      </trkpt>
      <trkpt lat="49.7959" lon="4.79825">
        <ele>300</ele>
        <time>2022-06-17T13:11:01.000Z</time>
      </trkpt>
      <trkpt lat="49.79592" lon="4.79825">
        <ele>300</ele>
        <time>2022-06-17T13:11:02.000Z</time>
      </trkpt>
      <trkpt lat="49.79595" lon="4.79825">
        <ele>300</ele>
        <time>2022-06-17T13:11:03.000Z</time>
      </trkpt>
      <trkpt lat="49.79599" lon="4.79825">
        <ele>300</ele>
        <time>2022-06-17T13:11:04.000Z</time>
      </trkpt>
      <trkpt lat="49.79602" lon="4.79825">
        <ele>301</ele>
        <time>2022-06-17T13:11:05.000Z</time>
      </trkpt>
      <trkpt lat="49.79606" lon="4.79824">
        <ele>301</ele>
        <time>2022-06-17T13:11:06.000Z</time>
      </trkpt>
      <trkpt lat="49.79609" lon="4.79824">
        <ele>301</ele>
        <time>2022-06-17T13:11:07.000Z</time>
      </trkpt>
      <trkpt lat="49.79612" lon="4.79823">
        <ele>301</ele>
        <time>2022-06-17T13:11:08.000Z</time>
      </trkpt>
      <trkpt lat="49.79614" lon="4.79823">
        <ele>301</ele>
        <time>2022-06-17T13:11:09.000Z</time>
      </trkpt>
      <trkpt lat="49.79617" lon="4.79823">
        <ele>301</ele>
        <time>2022-06-17T13:11:10.000Z</time>
      </trkpt>
      <trkpt lat="49.79619" lon="4.79822">
        <ele>302</ele>
        <time>2022-06-17T13:11:11.000Z</time>
      </trkpt>
      <trkpt lat="49.79622" lon="4.79822">
        <ele>302</ele>
        <time>2022-06-17T13:11:12.000Z</time>
      </trkpt>
      <trkpt lat="49.79624" lon="4.79823">
        <ele>302</ele>
        <time>2022-06-17T13:11:13.000Z</time>
      </trkpt>
      <trkpt lat="49.79628" lon="4.79823">
        <ele>302</ele>
        <time>2022-06-17T13:11:14.000Z</time>
      </trkpt>
      <trkpt lat="49.79631" lon="4.79823">
        <ele>302</ele>
        <time>2022-06-17T13:11:15.000Z</time>
      </trkpt>
      <trkpt lat="49.79634" lon="4.79823">
        <ele>303</ele>
        <time>2022-06-17T13:11:16.000Z</time>
      </trkpt>
      <trkpt lat="49.79638" lon="4.79823">
        <ele>303</ele>
        <time>2022-06-17T13:11:17.000Z</time>
      </trkpt>
      <trkpt lat="49.79641" lon="4.79823">
        <ele>303</ele>
        <time>2022-06-17T13:11:18.000Z</time>
      </trkpt>
      <trkpt lat="49.79645" lon="4.79824">
        <ele>302</ele>
        <time>2022-06-17T13:11:19.000Z</time>
      </trkpt>
      <trkpt lat="49.79648" lon="4.79825">
        <ele>302</ele>
        <time>2022-06-17T13:11:20.000Z</time>
      </trkpt>
      <trkpt lat="49.79652" lon="4.79825">
        <ele>302</ele>
        <time>2022-06-17T13:11:21.000Z</time>
      </trkpt>
      <trkpt lat="49.79656" lon="4.79826">
        <ele>302</ele>
        <time>2022-06-17T13:11:22.000Z</time>
      </trkpt>
      <trkpt lat="49.7966" lon="4.79826">
        <ele>302</ele>
        <time>2022-06-17T13:11:23.000Z</time>
      </trkpt>
      <trkpt lat="49.79664" lon="4.79825">
        <ele>302</ele>
        <time>2022-06-17T13:11:24.000Z</time>
      </trkpt>
      <trkpt lat="49.79668" lon="4.79825">
        <ele>302</ele>
        <time>2022-06-17T13:11:25.000Z</time>
      </trkpt>
      <trkpt lat="49.79673" lon="4.79824">
        <ele>302</ele>
        <time>2022-06-17T13:11:26.000Z</time>
      </trkpt>
      <trkpt lat="49.79678" lon="4.79823">
        <ele>302</ele>
        <time>2022-06-17T13:11:27.000Z</time>
      </trkpt>
      <trkpt lat="49.79683" lon="4.79823">
        <ele>302</ele>
        <time>2022-06-17T13:11:28.000Z</time>
      </trkpt>
      <trkpt lat="49.79687" lon="4.79823">
        <ele>302</ele>
        <time>2022-06-17T13:11:29.000Z</time>
      </trkpt>
      <trkpt lat="49.79692" lon="4.79823">
        <ele>302</ele>
        <time>2022-06-17T13:11:30.000Z</time>
      </trkpt>
      <trkpt lat="49.79696" lon="4.79824">
        <ele>302</ele>
        <time>2022-06-17T13:11:31.000Z</time>
      </trkpt>
      <trkpt lat="49.797" lon="4.79824">
        <ele>302</ele>
        <time>2022-06-17T13:11:32.000Z</time>
      </trkpt>
      <trkpt lat="49.79705" lon="4.79824">
        <ele>302</ele>
        <time>2022-06-17T13:11:33.000Z</time>
      </trkpt>
      <trkpt lat="49.79709" lon="4.79824">
        <ele>302</ele>
        <time>2022-06-17T13:11:34.000Z</time>
      </trkpt>
      <trkpt lat="49.79714" lon="4.79823">
        <ele>302</ele>
        <time>2022-06-17T13:11:35.000Z</time>
      </trkpt>
      <trkpt lat="49.79719" lon="4.79822">
        <ele>302</ele>
        <time>2022-06-17T13:11:36.000Z</time>
      </trkpt>
      <trkpt lat="49.79725" lon="4.79822">
        <ele>302</ele>
        <time>2022-06-17T13:11:37.000Z</time>
      </trkpt>
      <trkpt lat="49.7973" lon="4.79821">
        <ele>303</ele>
        <time>2022-06-17T13:11:38.000Z</time>
      </trkpt>
      <trkpt lat="49.79736" lon="4.7982">
        <ele>303</ele>
        <time>2022-06-17T13:11:39.000Z</time>
      </trkpt>
      <trkpt lat="49.79741" lon="4.79819">
        <ele>303</ele>
        <time>2022-06-17T13:11:40.000Z</time>
      </trkpt>
      <trkpt lat="49.79746" lon="4.79819">
        <ele>303</ele>
        <time>2022-06-17T13:11:41.000Z</time>
      </trkpt>
      <trkpt lat="49.7975" lon="4.7982">
        <ele>303</ele>
        <time>2022-06-17T13:11:42.000Z</time>
      </trkpt>
      <trkpt lat="49.79755" lon="4.7982">
        <ele>303</ele>
        <time>2022-06-17T13:11:43.000Z</time>
      </trkpt>
      <trkpt lat="49.7976" lon="4.79821">
        <ele>303</ele>
        <time>2022-06-17T13:11:44.000Z</time>
      </trkpt>
      <trkpt lat="49.79764" lon="4.7982">
        <ele>303</ele>
        <time>2022-06-17T13:11:45.000Z</time>
      </trkpt>
      <trkpt lat="49.79768" lon="4.7982">
        <ele>304</ele>
        <time>2022-06-17T13:11:46.000Z</time>
      </trkpt>
      <trkpt lat="49.79772" lon="4.7982">
        <ele>304</ele>
        <time>2022-06-17T13:11:47.000Z</time>
      </trkpt>
      <trkpt lat="49.79775" lon="4.79819">
        <ele>304</ele>
        <time>2022-06-17T13:11:48.000Z</time>
      </trkpt>
      <trkpt lat="49.7978" lon="4.79819">
        <ele>304</ele>
        <time>2022-06-17T13:11:49.000Z</time>
      </trkpt>
      <trkpt lat="49.79785" lon="4.7982">
        <ele>304</ele>
        <time>2022-06-17T13:11:50.000Z</time>
      </trkpt>
      <trkpt lat="49.79791" lon="4.7982">
        <ele>304</ele>
        <time>2022-06-17T13:11:51.000Z</time>
      </trkpt>
      <trkpt lat="49.79795" lon="4.7982">
        <ele>304</ele>
        <time>2022-06-17T13:11:52.000Z</time>
      </trkpt>
      <trkpt lat="49.798" lon="4.7982">
        <ele>304</ele>
        <time>2022-06-17T13:11:53.000Z</time>
      </trkpt>
      <trkpt lat="49.79805" lon="4.79819">
        <ele>304</ele>
        <time>2022-06-17T13:11:54.000Z</time>
      </trkpt>
      <trkpt lat="49.79811" lon="4.79819">
        <ele>304</ele>
        <time>2022-06-17T13:11:55.000Z</time>
      </trkpt>
      <trkpt lat="49.79816" lon="4.79818">
        <ele>304</ele>
        <time>2022-06-17T13:11:56.000Z</time>
      </trkpt>
      <trkpt lat="49.79822" lon="4.79816">
        <ele>304</ele>
        <time>2022-06-17T13:11:57.000Z</time>
      </trkpt>
      <trkpt lat="49.79827" lon="4.79816">
        <ele>304</ele>
        <time>2022-06-17T13:11:58.000Z</time>
      </trkpt>
      <trkpt lat="49.79832" lon="4.79815">
        <ele>304</ele>
        <time>2022-06-17T13:11:59.000Z</time>
      </trkpt>
      <trkpt lat="49.79837" lon="4.79815">
        <ele>304</ele>
        <time>2022-06-17T13:12:00.000Z</time>
      </trkpt>
      <trkpt lat="49.79842" lon="4.79815">
        <ele>304</ele>
        <time>2022-06-17T13:12:01.000Z</time>
      </trkpt>
      <trkpt lat="49.79847" lon="4.79815">
        <ele>304</ele>
        <time>2022-06-17T13:12:02.000Z</time>
      </trkpt>
      <trkpt lat="49.79853" lon="4.79814">
        <ele>304</ele>
        <time>2022-06-17T13:12:03.000Z</time>
      </trkpt>
      <trkpt lat="49.79859" lon="4.79813">
        <ele>304</ele>
        <time>2022-06-17T13:12:04.000Z</time>
      </trkpt>
      <trkpt lat="49.79864" lon="4.79813">
        <ele>304</ele>
        <time>2022-06-17T13:12:05.000Z</time>
      </trkpt>
      <trkpt lat="49.79868" lon="4.79814">
        <ele>304</ele>
        <time>2022-06-17T13:12:06.000Z</time>
      </trkpt>
      <trkpt lat="49.79873" lon="4.79813">
        <ele>304</ele>
        <time>2022-06-17T13:12:07.000Z</time>
      </trkpt>
      <trkpt lat="49.79879" lon="4.79811">
        <ele>304</ele>
        <time>2022-06-17T13:12:08.000Z</time>
      </trkpt>
      <trkpt lat="49.79885" lon="4.79809">
        <ele>304</ele>
        <time>2022-06-17T13:12:09.000Z</time>
      </trkpt>
      <trkpt lat="49.7989" lon="4.79809">
        <ele>304</ele>
        <time>2022-06-17T13:12:10.000Z</time>
      </trkpt>
      <trkpt lat="49.79895" lon="4.79809">
        <ele>304</ele>
        <time>2022-06-17T13:12:11.000Z</time>
      </trkpt>
      <trkpt lat="49.79899" lon="4.79809">
        <ele>304</ele>
        <time>2022-06-17T13:12:12.000Z</time>
      </trkpt>
      <trkpt lat="49.79904" lon="4.79809">
        <ele>304</ele>
        <time>2022-06-17T13:12:13.000Z</time>
      </trkpt>
      <trkpt lat="49.79908" lon="4.7981">
        <ele>304</ele>
        <time>2022-06-17T13:12:14.000Z</time>
      </trkpt>
      <trkpt lat="49.79912" lon="4.7981">
        <ele>304</ele>
        <time>2022-06-17T13:12:15.000Z</time>
      </trkpt>
      <trkpt lat="49.79917" lon="4.79809">
        <ele>304</ele>
        <time>2022-06-17T13:12:16.000Z</time>
      </trkpt>
      <trkpt lat="49.79922" lon="4.79809">
        <ele>304</ele>
        <time>2022-06-17T13:12:17.000Z</time>
      </trkpt>
      <trkpt lat="49.79927" lon="4.79809">
        <ele>304</ele>
        <time>2022-06-17T13:12:18.000Z</time>
      </trkpt>
      <trkpt lat="49.79931" lon="4.79808">
        <ele>304</ele>
        <time>2022-06-17T13:12:19.000Z</time>
      </trkpt>
      <trkpt lat="49.79936" lon="4.79808">
        <ele>304</ele>
        <time>2022-06-17T13:12:20.000Z</time>
      </trkpt>
      <trkpt lat="49.79942" lon="4.79808">
        <ele>304</ele>
        <time>2022-06-17T13:12:21.000Z</time>
      </trkpt>
      <trkpt lat="49.79947" lon="4.79808">
        <ele>304</ele>
        <time>2022-06-17T13:12:22.000Z</time>
      </trkpt>
      <trkpt lat="49.79954" lon="4.79807">
        <ele>304</ele>
        <time>2022-06-17T13:12:23.000Z</time>
      </trkpt>
      <trkpt lat="49.7996" lon="4.79807">
        <ele>304</ele>
        <time>2022-06-17T13:12:24.000Z</time>
      </trkpt>
      <trkpt lat="49.79966" lon="4.79806">
        <ele>304</ele>
        <time>2022-06-17T13:12:25.000Z</time>
      </trkpt>
      <trkpt lat="49.79973" lon="4.79805">
        <ele>304</ele>
        <time>2022-06-17T13:12:26.000Z</time>
      </trkpt>
      <trkpt lat="49.79979" lon="4.79805">
        <ele>304</ele>
        <time>2022-06-17T13:12:27.000Z</time>
      </trkpt>
      <trkpt lat="49.79985" lon="4.79804">
        <ele>304</ele>
        <time>2022-06-17T13:12:28.000Z</time>
      </trkpt>
      <trkpt lat="49.79991" lon="4.79803">
        <ele>304</ele>
        <time>2022-06-17T13:12:29.000Z</time>
      </trkpt>
      <trkpt lat="49.79996" lon="4.79803">
        <ele>304</ele>
        <time>2022-06-17T13:12:30.000Z</time>
      </trkpt>
      <trkpt lat="49.80002" lon="4.79802">
        <ele>305</ele>
        <time>2022-06-17T13:12:31.000Z</time>
      </trkpt>
      <trkpt lat="49.80008" lon="4.79801">
        <ele>305</ele>
        <time>2022-06-17T13:12:32.000Z</time>
      </trkpt>
      <trkpt lat="49.80014" lon="4.79801">
        <ele>305</ele>
        <time>2022-06-17T13:12:33.000Z</time>
      </trkpt>
      <trkpt lat="49.8002" lon="4.798">
        <ele>305</ele>
        <time>2022-06-17T13:12:34.000Z</time>
      </trkpt>
      <trkpt lat="49.80027" lon="4.79798">
        <ele>305</ele>
        <time>2022-06-17T13:12:35.000Z</time>
      </trkpt>
      <trkpt lat="49.80033" lon="4.79797">
        <ele>305</ele>
        <time>2022-06-17T13:12:36.000Z</time>
      </trkpt>
      <trkpt lat="49.80039" lon="4.79797">
        <ele>305</ele>
        <time>2022-06-17T13:12:37.000Z</time>
      </trkpt>
      <trkpt lat="49.80046" lon="4.79797">
        <ele>305</ele>
        <time>2022-06-17T13:12:38.000Z</time>
      </trkpt>
      <trkpt lat="49.80052" lon="4.79796">
        <ele>305</ele>
        <time>2022-06-17T13:12:39.000Z</time>
      </trkpt>
      <trkpt lat="49.80058" lon="4.79794">
        <ele>305</ele>
        <time>2022-06-17T13:12:40.000Z</time>
      </trkpt>
      <trkpt lat="49.80064" lon="4.79794">
        <ele>305</ele>
        <time>2022-06-17T13:12:41.000Z</time>
      </trkpt>
      <trkpt lat="49.80069" lon="4.79793">
        <ele>305</ele>
        <time>2022-06-17T13:12:42.000Z</time>
      </trkpt>
      <trkpt lat="49.80075" lon="4.79792">
        <ele>305</ele>
        <time>2022-06-17T13:12:43.000Z</time>
      </trkpt>
      <trkpt lat="49.8008" lon="4.79792">
        <ele>305</ele>
        <time>2022-06-17T13:12:44.000Z</time>
      </trkpt>
      <trkpt lat="49.80086" lon="4.79792">
        <ele>305</ele>
        <time>2022-06-17T13:12:45.000Z</time>
      </trkpt>
      <trkpt lat="49.80091" lon="4.79793">
        <ele>304</ele>
        <time>2022-06-17T13:12:46.000Z</time>
      </trkpt>
      <trkpt lat="49.80097" lon="4.79792">
        <ele>304</ele>
        <time>2022-06-17T13:12:47.000Z</time>
      </trkpt>
      <trkpt lat="49.80102" lon="4.79791">
        <ele>304</ele>
        <time>2022-06-17T13:12:48.000Z</time>
      </trkpt>
      <trkpt lat="49.80107" lon="4.7979">
        <ele>303</ele>
        <time>2022-06-17T13:12:49.000Z</time>
      </trkpt>
      <trkpt lat="49.80113" lon="4.79789">
        <ele>303</ele>
        <time>2022-06-17T13:12:50.000Z</time>
      </trkpt>
      <trkpt lat="49.80119" lon="4.79788">
        <ele>302</ele>
        <time>2022-06-17T13:12:51.000Z</time>
      </trkpt>
      <trkpt lat="49.80124" lon="4.79787">
        <ele>302</ele>
        <time>2022-06-17T13:12:52.000Z</time>
      </trkpt>
      <trkpt lat="49.80129" lon="4.79786">
        <ele>302</ele>
        <time>2022-06-17T13:12:53.000Z</time>
      </trkpt>
      <trkpt lat="49.80133" lon="4.79785">
        <ele>301</ele>
        <time>2022-06-17T13:12:54.000Z</time>
      </trkpt>
      <trkpt lat="49.80137" lon="4.79784">
        <ele>301</ele>
        <time>2022-06-17T13:12:55.000Z</time>
      </trkpt>
      <trkpt lat="49.8014" lon="4.79784">
        <ele>300</ele>
        <time>2022-06-17T13:12:56.000Z</time>
      </trkpt>
      <trkpt lat="49.80143" lon="4.79784">
        <ele>300</ele>
        <time>2022-06-17T13:12:57.000Z</time>
      </trkpt>
      <trkpt lat="49.80145" lon="4.79783">
        <ele>299</ele>
        <time>2022-06-17T13:12:58.000Z</time>
      </trkpt>
      <trkpt lat="49.80148" lon="4.79783">
        <ele>299</ele>
        <time>2022-06-17T13:12:59.000Z</time>
      </trkpt>
      <trkpt lat="49.80151" lon="4.79784">
        <ele>299</ele>
        <time>2022-06-17T13:13:00.000Z</time>
      </trkpt>
      <trkpt lat="49.80154" lon="4.79786">
        <ele>298</ele>
        <time>2022-06-17T13:13:01.000Z</time>
      </trkpt>
      <trkpt lat="49.80157" lon="4.79788">
        <ele>298</ele>
        <time>2022-06-17T13:13:02.000Z</time>
      </trkpt>
      <trkpt lat="49.8016" lon="4.79791">
        <ele>297</ele>
        <time>2022-06-17T13:13:03.000Z</time>
      </trkpt>
      <trkpt lat="49.80163" lon="4.79795">
        <ele>297</ele>
        <time>2022-06-17T13:13:04.000Z</time>
      </trkpt>
      <trkpt lat="49.80166" lon="4.79799">
        <ele>297</ele>
        <time>2022-06-17T13:13:05.000Z</time>
      </trkpt>
      <trkpt lat="49.80169" lon="4.79801">
        <ele>296</ele>
        <time>2022-06-17T13:13:06.000Z</time>
      </trkpt>
      <trkpt lat="49.80171" lon="4.79805">
        <ele>296</ele>
        <time>2022-06-17T13:13:07.000Z</time>
      </trkpt>
      <trkpt lat="49.80173" lon="4.79808">
        <ele>296</ele>
        <time>2022-06-17T13:13:08.000Z</time>
      </trkpt>
      <trkpt lat="49.80176" lon="4.79812">
        <ele>295</ele>
        <time>2022-06-17T13:13:09.000Z</time>
      </trkpt>
      <trkpt lat="49.80179" lon="4.79816">
        <ele>295</ele>
        <time>2022-06-17T13:13:10.000Z</time>
      </trkpt>
      <trkpt lat="49.80181" lon="4.7982">
        <ele>295</ele>
        <time>2022-06-17T13:13:11.000Z</time>
      </trkpt>
      <trkpt lat="49.80183" lon="4.79822">
        <ele>295</ele>
        <time>2022-06-17T13:13:12.000Z</time>
      </trkpt>
      <trkpt lat="49.80185" lon="4.79823">
        <ele>294</ele>
        <time>2022-06-17T13:13:13.000Z</time>
      </trkpt>
      <trkpt lat="49.80188" lon="4.79823">
        <ele>294</ele>
        <time>2022-06-17T13:13:14.000Z</time>
      </trkpt>
      <trkpt lat="49.80191" lon="4.79823">
        <ele>294</ele>
        <time>2022-06-17T13:13:15.000Z</time>
      </trkpt>
      <trkpt lat="49.80194" lon="4.79825">
        <ele>294</ele>
        <time>2022-06-17T13:13:16.000Z</time>
      </trkpt>
      <trkpt lat="49.80197" lon="4.79825">
        <ele>293</ele>
        <time>2022-06-17T13:13:17.000Z</time>
      </trkpt>
      <trkpt lat="49.802" lon="4.79826">
        <ele>293</ele>
        <time>2022-06-17T13:13:18.000Z</time>
      </trkpt>
      <trkpt lat="49.80203" lon="4.79826">
        <ele>293</ele>
        <time>2022-06-17T13:13:19.000Z</time>
      </trkpt>
      <trkpt lat="49.80205" lon="4.79827">
        <ele>293</ele>
        <time>2022-06-17T13:13:20.000Z</time>
      </trkpt>
      <trkpt lat="49.80209" lon="4.79827">
        <ele>293</ele>
        <time>2022-06-17T13:13:21.000Z</time>
      </trkpt>
      <trkpt lat="49.80212" lon="4.79827">
        <ele>293</ele>
        <time>2022-06-17T13:13:22.000Z</time>
      </trkpt>
      <trkpt lat="49.80215" lon="4.79827">
        <ele>293</ele>
        <time>2022-06-17T13:13:23.000Z</time>
      </trkpt>
      <trkpt lat="49.80218" lon="4.79827">
        <ele>292</ele>
        <time>2022-06-17T13:13:24.000Z</time>
      </trkpt>
      <trkpt lat="49.80222" lon="4.79827">
        <ele>292</ele>
        <time>2022-06-17T13:13:25.000Z</time>
      </trkpt>
      <trkpt lat="49.80225" lon="4.79827">
        <ele>292</ele>
        <time>2022-06-17T13:13:26.000Z</time>
      </trkpt>
      <trkpt lat="49.80229" lon="4.79828">
        <ele>292</ele>
        <time>2022-06-17T13:13:27.000Z</time>
      </trkpt>
      <trkpt lat="49.80233" lon="4.79829">
        <ele>292</ele>
        <time>2022-06-17T13:13:28.000Z</time>
      </trkpt>
      <trkpt lat="49.80236" lon="4.7983">
        <ele>292</ele>
        <time>2022-06-17T13:13:29.000Z</time>
      </trkpt>
      <trkpt lat="49.8024" lon="4.7983">
        <ele>292</ele>
        <time>2022-06-17T13:13:30.000Z</time>
      </trkpt>
      <trkpt lat="49.80244" lon="4.79831">
        <ele>292</ele>
        <time>2022-06-17T13:13:31.000Z</time>
      </trkpt>
      <trkpt lat="49.80248" lon="4.79832">
        <ele>292</ele>
        <time>2022-06-17T13:13:32.000Z</time>
      </trkpt>
      <trkpt lat="49.80251" lon="4.79832">
        <ele>292</ele>
        <time>2022-06-17T13:13:33.000Z</time>
      </trkpt>
      <trkpt lat="49.80255" lon="4.79833">
        <ele>292</ele>
        <time>2022-06-17T13:13:34.000Z</time>
      </trkpt>
      <trkpt lat="49.80258" lon="4.79833">
        <ele>292</ele>
        <time>2022-06-17T13:13:35.000Z</time>
      </trkpt>
      <trkpt lat="49.80262" lon="4.79833">
        <ele>292</ele>
        <time>2022-06-17T13:13:36.000Z</time>
      </trkpt>
      <trkpt lat="49.80265" lon="4.79833">
        <ele>292</ele>
        <time>2022-06-17T13:13:37.000Z</time>
      </trkpt>
      <trkpt lat="49.80268" lon="4.79834">
        <ele>293</ele>
        <time>2022-06-17T13:13:38.000Z</time>
      </trkpt>
      <trkpt lat="49.8027" lon="4.79835">
        <ele>293</ele>
        <time>2022-06-17T13:13:39.000Z</time>
      </trkpt>
      <trkpt lat="49.80273" lon="4.79835">
        <ele>293</ele>
        <time>2022-06-17T13:13:40.000Z</time>
      </trkpt>
      <trkpt lat="49.80275" lon="4.79835">
        <ele>293</ele>
        <time>2022-06-17T13:13:41.000Z</time>
      </trkpt>
      <trkpt lat="49.80278" lon="4.79835">
        <ele>293</ele>
        <time>2022-06-17T13:13:42.000Z</time>
      </trkpt>
      <trkpt lat="49.8028" lon="4.79835">
        <ele>293</ele>
        <time>2022-06-17T13:13:43.000Z</time>
      </trkpt>
      <trkpt lat="49.80282" lon="4.79837">
        <ele>293</ele>
        <time>2022-06-17T13:13:44.000Z</time>
      </trkpt>
      <trkpt lat="49.80284" lon="4.79839">
        <ele>293</ele>
        <time>2022-06-17T13:13:45.000Z</time>
      </trkpt>
      <trkpt lat="49.80286" lon="4.7984">
        <ele>294</ele>
        <time>2022-06-17T13:13:46.000Z</time>
      </trkpt>
      <trkpt lat="49.80287" lon="4.79841">
        <ele>294</ele>
        <time>2022-06-17T13:13:47.000Z</time>
      </trkpt>
      <trkpt lat="49.80289" lon="4.79843">
        <ele>294</ele>
        <time>2022-06-17T13:13:48.000Z</time>
      </trkpt>
      <trkpt lat="49.8029" lon="4.79845">
        <ele>294</ele>
        <time>2022-06-17T13:13:49.000Z</time>
      </trkpt>
      <trkpt lat="49.80291" lon="4.79847">
        <ele>294</ele>
        <time>2022-06-17T13:13:50.000Z</time>
      </trkpt>
      <trkpt lat="49.80292" lon="4.79849">
        <ele>294</ele>
        <time>2022-06-17T13:13:51.000Z</time>
      </trkpt>
      <trkpt lat="49.80294" lon="4.79851">
        <ele>294</ele>
        <time>2022-06-17T13:13:52.000Z</time>
      </trkpt>
      <trkpt lat="49.80297" lon="4.79853">
        <ele>294</ele>
        <time>2022-06-17T13:13:53.000Z</time>
      </trkpt>
      <trkpt lat="49.80299" lon="4.79855">
        <ele>294</ele>
        <time>2022-06-17T13:13:54.000Z</time>
      </trkpt>
      <trkpt lat="49.80301" lon="4.79858">
        <ele>294</ele>
        <time>2022-06-17T13:13:55.000Z</time>
      </trkpt>
      <trkpt lat="49.80303" lon="4.7986">
        <ele>294</ele>
        <time>2022-06-17T13:13:56.000Z</time>
      </trkpt>
      <trkpt lat="49.80305" lon="4.79863">
        <ele>294</ele>
        <time>2022-06-17T13:13:57.000Z</time>
      </trkpt>
      <trkpt lat="49.80307" lon="4.79866">
        <ele>294</ele>
        <time>2022-06-17T13:13:58.000Z</time>
      </trkpt>
      <trkpt lat="49.80309" lon="4.7987">
        <ele>294</ele>
        <time>2022-06-17T13:13:59.000Z</time>
      </trkpt>
      <trkpt lat="49.8031" lon="4.79874">
        <ele>294</ele>
        <time>2022-06-17T13:14:00.000Z</time>
      </trkpt>
      <trkpt lat="49.80311" lon="4.79878">
        <ele>294</ele>
        <time>2022-06-17T13:14:01.000Z</time>
      </trkpt>
      <trkpt lat="49.80311" lon="4.79882">
        <ele>294</ele>
        <time>2022-06-17T13:14:02.000Z</time>
      </trkpt>
      <trkpt lat="49.8031" lon="4.79887">
        <ele>294</ele>
        <time>2022-06-17T13:14:03.000Z</time>
      </trkpt>
      <trkpt lat="49.8031" lon="4.79892">
        <ele>294</ele>
        <time>2022-06-17T13:14:04.000Z</time>
      </trkpt>
      <trkpt lat="49.80309" lon="4.79897">
        <ele>293</ele>
        <time>2022-06-17T13:14:05.000Z</time>
      </trkpt>
      <trkpt lat="49.80309" lon="4.79903">
        <ele>293</ele>
        <time>2022-06-17T13:14:06.000Z</time>
      </trkpt>
      <trkpt lat="49.80309" lon="4.79909">
        <ele>293</ele>
        <time>2022-06-17T13:14:07.000Z</time>
      </trkpt>
      <trkpt lat="49.80308" lon="4.79914">
        <ele>293</ele>
        <time>2022-06-17T13:14:08.000Z</time>
      </trkpt>
      <trkpt lat="49.80307" lon="4.79919">
        <ele>293</ele>
        <time>2022-06-17T13:14:09.000Z</time>
      </trkpt>
      <trkpt lat="49.80307" lon="4.79924">
        <ele>293</ele>
        <time>2022-06-17T13:14:10.000Z</time>
      </trkpt>
      <trkpt lat="49.80306" lon="4.7993">
        <ele>293</ele>
        <time>2022-06-17T13:14:11.000Z</time>
      </trkpt>
      <trkpt lat="49.80306" lon="4.79935">
        <ele>293</ele>
        <time>2022-06-17T13:14:12.000Z</time>
      </trkpt>
      <trkpt lat="49.80305" lon="4.79941">
        <ele>293</ele>
        <time>2022-06-17T13:14:13.000Z</time>
      </trkpt>
      <trkpt lat="49.80305" lon="4.79946">
        <ele>293</ele>
        <time>2022-06-17T13:14:14.000Z</time>
      </trkpt>
      <trkpt lat="49.80304" lon="4.79951">
        <ele>294</ele>
        <time>2022-06-17T13:14:15.000Z</time>
      </trkpt>
      <trkpt lat="49.80303" lon="4.79957">
        <ele>294</ele>
        <time>2022-06-17T13:14:16.000Z</time>
      </trkpt>
      <trkpt lat="49.80303" lon="4.79963">
        <ele>294</ele>
        <time>2022-06-17T13:14:17.000Z</time>
      </trkpt>
      <trkpt lat="49.80302" lon="4.7997">
        <ele>294</ele>
        <time>2022-06-17T13:14:18.000Z</time>
      </trkpt>
      <trkpt lat="49.80301" lon="4.79977">
        <ele>294</ele>
        <time>2022-06-17T13:14:19.000Z</time>
      </trkpt>
      <trkpt lat="49.803" lon="4.79984">
        <ele>294</ele>
        <time>2022-06-17T13:14:20.000Z</time>
      </trkpt>
      <trkpt lat="49.80299" lon="4.7999">
        <ele>294</ele>
        <time>2022-06-17T13:14:21.000Z</time>
      </trkpt>
      <trkpt lat="49.80298" lon="4.79996">
        <ele>294</ele>
        <time>2022-06-17T13:14:22.000Z</time>
      </trkpt>
      <trkpt lat="49.80298" lon="4.80002">
        <ele>294</ele>
        <time>2022-06-17T13:14:23.000Z</time>
      </trkpt>
      <trkpt lat="49.80296" lon="4.80007">
        <ele>294</ele>
        <time>2022-06-17T13:14:24.000Z</time>
      </trkpt>
      <trkpt lat="49.80295" lon="4.80012">
        <ele>294</ele>
        <time>2022-06-17T13:14:25.000Z</time>
      </trkpt>
      <trkpt lat="49.80294" lon="4.80018">
        <ele>294</ele>
        <time>2022-06-17T13:14:26.000Z</time>
      </trkpt>
      <trkpt lat="49.80293" lon="4.80023">
        <ele>294</ele>
        <time>2022-06-17T13:14:27.000Z</time>
      </trkpt>
      <trkpt lat="49.80293" lon="4.8003">
        <ele>294</ele>
        <time>2022-06-17T13:14:28.000Z</time>
      </trkpt>
      <trkpt lat="49.80294" lon="4.80036">
        <ele>294</ele>
        <time>2022-06-17T13:14:29.000Z</time>
      </trkpt>
      <trkpt lat="49.80296" lon="4.80044">
        <ele>294</ele>
        <time>2022-06-17T13:14:30.000Z</time>
      </trkpt>
      <trkpt lat="49.80297" lon="4.8005">
        <ele>294</ele>
        <time>2022-06-17T13:14:31.000Z</time>
      </trkpt>
      <trkpt lat="49.80299" lon="4.80057">
        <ele>294</ele>
        <time>2022-06-17T13:14:32.000Z</time>
      </trkpt>
      <trkpt lat="49.803" lon="4.80064">
        <ele>294</ele>
        <time>2022-06-17T13:14:33.000Z</time>
      </trkpt>
      <trkpt lat="49.80302" lon="4.80071">
        <ele>294</ele>
        <time>2022-06-17T13:14:34.000Z</time>
      </trkpt>
      <trkpt lat="49.80304" lon="4.80078">
        <ele>294</ele>
        <time>2022-06-17T13:14:35.000Z</time>
      </trkpt>
      <trkpt lat="49.80306" lon="4.80085">
        <ele>293</ele>
        <time>2022-06-17T13:14:36.000Z</time>
      </trkpt>
      <trkpt lat="49.80308" lon="4.80092">
        <ele>293</ele>
        <time>2022-06-17T13:14:37.000Z</time>
      </trkpt>
      <trkpt lat="49.80309" lon="4.801">
        <ele>293</ele>
        <time>2022-06-17T13:14:38.000Z</time>
      </trkpt>
      <trkpt lat="49.80312" lon="4.80107">
        <ele>293</ele>
        <time>2022-06-17T13:14:39.000Z</time>
      </trkpt>
      <trkpt lat="49.80315" lon="4.80114">
        <ele>293</ele>
        <time>2022-06-17T13:14:40.000Z</time>
      </trkpt>
      <trkpt lat="49.80317" lon="4.80121">
        <ele>292</ele>
        <time>2022-06-17T13:14:41.000Z</time>
      </trkpt>
      <trkpt lat="49.80318" lon="4.80128">
        <ele>292</ele>
        <time>2022-06-17T13:14:42.000Z</time>
      </trkpt>
      <trkpt lat="49.8032" lon="4.80134">
        <ele>292</ele>
        <time>2022-06-17T13:14:43.000Z</time>
      </trkpt>
      <trkpt lat="49.80323" lon="4.80141">
        <ele>292</ele>
        <time>2022-06-17T13:14:44.000Z</time>
      </trkpt>
      <trkpt lat="49.80325" lon="4.80148">
        <ele>291</ele>
        <time>2022-06-17T13:14:45.000Z</time>
      </trkpt>
      <trkpt lat="49.80327" lon="4.80155">
        <ele>291</ele>
        <time>2022-06-17T13:14:46.000Z</time>
      </trkpt>
      <trkpt lat="49.80328" lon="4.80162">
        <ele>291</ele>
        <time>2022-06-17T13:14:47.000Z</time>
      </trkpt>
      <trkpt lat="49.80329" lon="4.8017">
        <ele>290</ele>
        <time>2022-06-17T13:14:48.000Z</time>
      </trkpt>
      <trkpt lat="49.8033" lon="4.80177">
        <ele>290</ele>
        <time>2022-06-17T13:14:49.000Z</time>
      </trkpt>
      <trkpt lat="49.80331" lon="4.80185">
        <ele>289</ele>
        <time>2022-06-17T13:14:50.000Z</time>
      </trkpt>
      <trkpt lat="49.80332" lon="4.80191">
        <ele>289</ele>
        <time>2022-06-17T13:14:51.000Z</time>
      </trkpt>
      <trkpt lat="49.80331" lon="4.80198">
        <ele>289</ele>
        <time>2022-06-17T13:14:52.000Z</time>
      </trkpt>
      <trkpt lat="49.80331" lon="4.80206">
        <ele>288</ele>
        <time>2022-06-17T13:14:53.000Z</time>
      </trkpt>
      <trkpt lat="49.80331" lon="4.80212">
        <ele>288</ele>
        <time>2022-06-17T13:14:54.000Z</time>
      </trkpt>
      <trkpt lat="49.80331" lon="4.80219">
        <ele>288</ele>
        <time>2022-06-17T13:14:55.000Z</time>
      </trkpt>
      <trkpt lat="49.80331" lon="4.80227">
        <ele>287</ele>
        <time>2022-06-17T13:14:56.000Z</time>
      </trkpt>
      <trkpt lat="49.80332" lon="4.80235">
        <ele>287</ele>
        <time>2022-06-17T13:14:57.000Z</time>
      </trkpt>
      <trkpt lat="49.80332" lon="4.80242">
        <ele>287</ele>
        <time>2022-06-17T13:14:58.000Z</time>
      </trkpt>
      <trkpt lat="49.80331" lon="4.80249">
        <ele>287</ele>
        <time>2022-06-17T13:14:59.000Z</time>
      </trkpt>
      <trkpt lat="49.80331" lon="4.80256">
        <ele>287</ele>
        <time>2022-06-17T13:15:00.000Z</time>
      </trkpt>
      <trkpt lat="49.80329" lon="4.80263">
        <ele>286</ele>
        <time>2022-06-17T13:15:01.000Z</time>
      </trkpt>
      <trkpt lat="49.80328" lon="4.8027">
        <ele>286</ele>
        <time>2022-06-17T13:15:02.000Z</time>
      </trkpt>
      <trkpt lat="49.80326" lon="4.80276">
        <ele>286</ele>
        <time>2022-06-17T13:15:03.000Z</time>
      </trkpt>
      <trkpt lat="49.80325" lon="4.80281">
        <ele>286</ele>
        <time>2022-06-17T13:15:04.000Z</time>
      </trkpt>
      <trkpt lat="49.80322" lon="4.80287">
        <ele>286</ele>
        <time>2022-06-17T13:15:05.000Z</time>
      </trkpt>
      <trkpt lat="49.80319" lon="4.80293">
        <ele>285</ele>
        <time>2022-06-17T13:15:06.000Z</time>
      </trkpt>
      <trkpt lat="49.80317" lon="4.803">
        <ele>285</ele>
        <time>2022-06-17T13:15:07.000Z</time>
      </trkpt>
      <trkpt lat="49.80316" lon="4.80307">
        <ele>285</ele>
        <time>2022-06-17T13:15:08.000Z</time>
      </trkpt>
      <trkpt lat="49.80313" lon="4.80314">
        <ele>284</ele>
        <time>2022-06-17T13:15:09.000Z</time>
      </trkpt>
      <trkpt lat="49.80311" lon="4.80322">
        <ele>284</ele>
        <time>2022-06-17T13:15:10.000Z</time>
      </trkpt>
      <trkpt lat="49.80308" lon="4.80329">
        <ele>284</ele>
        <time>2022-06-17T13:15:11.000Z</time>
      </trkpt>
      <trkpt lat="49.80307" lon="4.80336">
        <ele>283</ele>
        <time>2022-06-17T13:15:12.000Z</time>
      </trkpt>
      <trkpt lat="49.80305" lon="4.80343">
        <ele>283</ele>
        <time>2022-06-17T13:15:13.000Z</time>
      </trkpt>
      <trkpt lat="49.80302" lon="4.80349">
        <ele>283</ele>
        <time>2022-06-17T13:15:14.000Z</time>
      </trkpt>
      <trkpt lat="49.803" lon="4.80355">
        <ele>282</ele>
        <time>2022-06-17T13:15:15.000Z</time>
      </trkpt>
      <trkpt lat="49.80298" lon="4.80359">
        <ele>282</ele>
        <time>2022-06-17T13:15:16.000Z</time>
      </trkpt>
      <trkpt lat="49.80295" lon="4.80361">
        <ele>281</ele>
        <time>2022-06-17T13:15:17.000Z</time>
      </trkpt>
      <trkpt lat="49.80292" lon="4.80362">
        <ele>281</ele>
        <time>2022-06-17T13:15:18.000Z</time>
      </trkpt>
      <trkpt lat="49.8029" lon="4.8036">
        <ele>281</ele>
        <time>2022-06-17T13:15:19.000Z</time>
      </trkpt>
      <trkpt lat="49.80288" lon="4.80359">
        <ele>280</ele>
        <time>2022-06-17T13:15:20.000Z</time>
      </trkpt>
      <trkpt lat="49.80286" lon="4.8036">
        <ele>280</ele>
        <time>2022-06-17T13:15:21.000Z</time>
      </trkpt>
      <trkpt lat="49.80285" lon="4.80362">
        <ele>280</ele>
        <time>2022-06-17T13:15:22.000Z</time>
      </trkpt>
      <trkpt lat="49.80284" lon="4.80364">
        <ele>279</ele>
        <time>2022-06-17T13:15:23.000Z</time>
      </trkpt>
      <trkpt lat="49.80285" lon="4.80367">
        <ele>279</ele>
        <time>2022-06-17T13:15:24.000Z</time>
      </trkpt>
      <trkpt lat="49.80286" lon="4.8037">
        <ele>279</ele>
        <time>2022-06-17T13:15:25.000Z</time>
      </trkpt>
      <trkpt lat="49.80286" lon="4.80373">
        <ele>278</ele>
        <time>2022-06-17T13:15:26.000Z</time>
      </trkpt>
      <trkpt lat="49.80287" lon="4.80377">
        <ele>278</ele>
        <time>2022-06-17T13:15:27.000Z</time>
      </trkpt>
      <trkpt lat="49.80287" lon="4.80381">
        <ele>278</ele>
        <time>2022-06-17T13:15:28.000Z</time>
      </trkpt>
      <trkpt lat="49.80286" lon="4.80385">
        <ele>277</ele>
        <time>2022-06-17T13:15:29.000Z</time>
      </trkpt>
      <trkpt lat="49.80284" lon="4.8039">
        <ele>277</ele>
        <time>2022-06-17T13:15:30.000Z</time>
      </trkpt>
      <trkpt lat="49.80281" lon="4.80394">
        <ele>277</ele>
        <time>2022-06-17T13:15:31.000Z</time>
      </trkpt>
      <trkpt lat="49.80278" lon="4.80398">
        <ele>276</ele>
        <time>2022-06-17T13:15:32.000Z</time>
      </trkpt>
      <trkpt lat="49.80276" lon="4.80401">
        <ele>276</ele>
        <time>2022-06-17T13:15:33.000Z</time>
      </trkpt>
      <trkpt lat="49.80273" lon="4.80404">
        <ele>276</ele>
        <time>2022-06-17T13:15:34.000Z</time>
      </trkpt>
      <trkpt lat="49.80271" lon="4.80406">
        <ele>276</ele>
        <time>2022-06-17T13:15:35.000Z</time>
      </trkpt>
      <trkpt lat="49.8027" lon="4.80408">
        <ele>275</ele>
        <time>2022-06-17T13:15:36.000Z</time>
      </trkpt>
      <trkpt lat="49.80269" lon="4.80408">
        <ele>275</ele>
        <time>2022-06-17T13:15:37.000Z</time>
      </trkpt>
      <trkpt lat="49.80268" lon="4.80408">
        <ele>275</ele>
        <time>2022-06-17T13:15:38.000Z</time>
      </trkpt>
      <trkpt lat="49.80268" lon="4.8041">
        <ele>275</ele>
        <time>2022-06-17T13:15:39.000Z</time>
      </trkpt>
      <trkpt lat="49.80267" lon="4.80411">
        <ele>275</ele>
        <time>2022-06-17T13:15:40.000Z</time>
      </trkpt>
      <trkpt lat="49.80268" lon="4.80414">
        <ele>275</ele>
        <time>2022-06-17T13:15:41.000Z</time>
      </trkpt>
      <trkpt lat="49.80268" lon="4.80416">
        <ele>275</ele>
        <time>2022-06-17T13:15:42.000Z</time>
      </trkpt>
      <trkpt lat="49.80267" lon="4.80418">
        <ele>275</ele>
        <time>2022-06-17T13:15:43.000Z</time>
      </trkpt>
      <trkpt lat="49.80267" lon="4.8042">
        <ele>275</ele>
        <time>2022-06-17T13:15:44.000Z</time>
      </trkpt>
      <trkpt lat="49.80267" lon="4.80423">
        <ele>275</ele>
        <time>2022-06-17T13:15:45.000Z</time>
      </trkpt>
      <trkpt lat="49.80266" lon="4.80426">
        <ele>275</ele>
        <time>2022-06-17T13:15:46.000Z</time>
      </trkpt>
      <trkpt lat="49.80265" lon="4.80429">
        <ele>275</ele>
        <time>2022-06-17T13:15:47.000Z</time>
      </trkpt>
      <trkpt lat="49.80265" lon="4.80432">
        <ele>274</ele>
        <time>2022-06-17T13:15:48.000Z</time>
      </trkpt>
      <trkpt lat="49.80264" lon="4.80434">
        <ele>274</ele>
        <time>2022-06-17T13:15:49.000Z</time>
      </trkpt>
      <trkpt lat="49.80264" lon="4.80436">
        <ele>274</ele>
        <time>2022-06-17T13:15:50.000Z</time>
      </trkpt>
      <trkpt lat="49.80263" lon="4.80439">
        <ele>274</ele>
        <time>2022-06-17T13:15:51.000Z</time>
      </trkpt>
      <trkpt lat="49.80262" lon="4.80442">
        <ele>274</ele>
        <time>2022-06-17T13:15:52.000Z</time>
      </trkpt>
      <trkpt lat="49.80262" lon="4.80444">
        <ele>274</ele>
        <time>2022-06-17T13:15:53.000Z</time>
      </trkpt>
      <trkpt lat="49.80262" lon="4.80447">
        <ele>274</ele>
        <time>2022-06-17T13:15:54.000Z</time>
      </trkpt>
      <trkpt lat="49.80261" lon="4.80448">
        <ele>274</ele>
        <time>2022-06-17T13:15:55.000Z</time>
      </trkpt>
      <trkpt lat="49.80261" lon="4.8045">
        <ele>274</ele>
        <time>2022-06-17T13:15:56.000Z</time>
      </trkpt>
      <trkpt lat="49.80261" lon="4.80452">
        <ele>274</ele>
        <time>2022-06-17T13:15:57.000Z</time>
      </trkpt>
      <trkpt lat="49.80261" lon="4.80454">
        <ele>274</ele>
        <time>2022-06-17T13:15:58.000Z</time>
      </trkpt>
      <trkpt lat="49.8026" lon="4.80457">
        <ele>274</ele>
        <time>2022-06-17T13:15:59.000Z</time>
      </trkpt>
      <trkpt lat="49.8026" lon="4.80459">
        <ele>274</ele>
        <time>2022-06-17T13:16:00.000Z</time>
      </trkpt>
      <trkpt lat="49.80259" lon="4.80461">
        <ele>274</ele>
        <time>2022-06-17T13:16:01.000Z</time>
      </trkpt>
      <trkpt lat="49.80258" lon="4.80464">
        <ele>274</ele>
        <time>2022-06-17T13:16:02.000Z</time>
      </trkpt>
      <trkpt lat="49.80258" lon="4.80467">
        <ele>274</ele>
        <time>2022-06-17T13:16:03.000Z</time>
      </trkpt>
      <trkpt lat="49.80257" lon="4.8047">
        <ele>274</ele>
        <time>2022-06-17T13:16:04.000Z</time>
      </trkpt>
      <trkpt lat="49.80257" lon="4.80472">
        <ele>274</ele>
        <time>2022-06-17T13:16:05.000Z</time>
      </trkpt>
      <trkpt lat="49.80257" lon="4.80475">
        <ele>274</ele>
        <time>2022-06-17T13:16:06.000Z</time>
      </trkpt>
      <trkpt lat="49.80257" lon="4.80478">
        <ele>274</ele>
        <time>2022-06-17T13:16:07.000Z</time>
      </trkpt>
      <trkpt lat="49.80257" lon="4.80481">
        <ele>274</ele>
        <time>2022-06-17T13:16:08.000Z</time>
      </trkpt>
      <trkpt lat="49.80257" lon="4.80483">
        <ele>274</ele>
        <time>2022-06-17T13:16:09.000Z</time>
      </trkpt>
      <trkpt lat="49.80256" lon="4.80487">
        <ele>274</ele>
        <time>2022-06-17T13:16:10.000Z</time>
      </trkpt>
      <trkpt lat="49.80256" lon="4.8049">
        <ele>274</ele>
        <time>2022-06-17T13:16:11.000Z</time>
      </trkpt>
      <trkpt lat="49.80255" lon="4.80492">
        <ele>274</ele>
        <time>2022-06-17T13:16:12.000Z</time>
      </trkpt>
      <trkpt lat="49.80255" lon="4.80496">
        <ele>274</ele>
        <time>2022-06-17T13:16:13.000Z</time>
      </trkpt>
      <trkpt lat="49.80255" lon="4.80501">
        <ele>274</ele>
        <time>2022-06-17T13:16:14.000Z</time>
      </trkpt>
      <trkpt lat="49.80256" lon="4.80505">
        <ele>274</ele>
        <time>2022-06-17T13:16:15.000Z</time>
      </trkpt>
      <trkpt lat="49.80256" lon="4.80509">
        <ele>274</ele>
        <time>2022-06-17T13:16:16.000Z</time>
      </trkpt>
      <trkpt lat="49.80257" lon="4.80512">
        <ele>274</ele>
        <time>2022-06-17T13:16:17.000Z</time>
      </trkpt>
      <trkpt lat="49.80257" lon="4.80515">
        <ele>274</ele>
        <time>2022-06-17T13:16:18.000Z</time>
      </trkpt>
      <trkpt lat="49.80257" lon="4.80519">
        <ele>274</ele>
        <time>2022-06-17T13:16:19.000Z</time>
      </trkpt>
      <trkpt lat="49.80257" lon="4.80522">
        <ele>274</ele>
        <time>2022-06-17T13:16:20.000Z</time>
      </trkpt>
      <trkpt lat="49.80257" lon="4.80525">
        <ele>275</ele>
        <time>2022-06-17T13:16:21.000Z</time>
      </trkpt>
      <trkpt lat="49.80256" lon="4.80528">
        <ele>275</ele>
        <time>2022-06-17T13:16:22.000Z</time>
      </trkpt>
      <trkpt lat="49.80256" lon="4.80532">
        <ele>275</ele>
        <time>2022-06-17T13:16:23.000Z</time>
      </trkpt>
      <trkpt lat="49.80256" lon="4.80536">
        <ele>275</ele>
        <time>2022-06-17T13:16:24.000Z</time>
      </trkpt>
      <trkpt lat="49.80256" lon="4.80539">
        <ele>275</ele>
        <time>2022-06-17T13:16:25.000Z</time>
      </trkpt>
      <trkpt lat="49.80255" lon="4.80544">
        <ele>275</ele>
        <time>2022-06-17T13:16:26.000Z</time>
      </trkpt>
      <trkpt lat="49.80255" lon="4.80547">
        <ele>275</ele>
        <time>2022-06-17T13:16:27.000Z</time>
      </trkpt>
      <trkpt lat="49.80254" lon="4.80551">
        <ele>275</ele>
        <time>2022-06-17T13:16:28.000Z</time>
      </trkpt>
      <trkpt lat="49.80254" lon="4.80554">
        <ele>275</ele>
        <time>2022-06-17T13:16:29.000Z</time>
      </trkpt>
      <trkpt lat="49.80254" lon="4.80557">
        <ele>275</ele>
        <time>2022-06-17T13:16:30.000Z</time>
      </trkpt>
      <trkpt lat="49.80254" lon="4.80561">
        <ele>275</ele>
        <time>2022-06-17T13:16:31.000Z</time>
      </trkpt>
      <trkpt lat="49.80254" lon="4.80565">
        <ele>275</ele>
        <time>2022-06-17T13:16:32.000Z</time>
      </trkpt>
      <trkpt lat="49.80253" lon="4.80568">
        <ele>275</ele>
        <time>2022-06-17T13:16:33.000Z</time>
      </trkpt>
      <trkpt lat="49.80252" lon="4.80572">
        <ele>275</ele>
        <time>2022-06-17T13:16:34.000Z</time>
      </trkpt>
      <trkpt lat="49.80252" lon="4.80576">
        <ele>275</ele>
        <time>2022-06-17T13:16:35.000Z</time>
      </trkpt>
      <trkpt lat="49.80251" lon="4.8058">
        <ele>275</ele>
        <time>2022-06-17T13:16:36.000Z</time>
      </trkpt>
      <trkpt lat="49.80251" lon="4.80584">
        <ele>275</ele>
        <time>2022-06-17T13:16:37.000Z</time>
      </trkpt>
      <trkpt lat="49.8025" lon="4.80588">
        <ele>275</ele>
        <time>2022-06-17T13:16:38.000Z</time>
      </trkpt>
      <trkpt lat="49.80249" lon="4.80592">
        <ele>275</ele>
        <time>2022-06-17T13:16:39.000Z</time>
      </trkpt>
      <trkpt lat="49.80248" lon="4.80597">
        <ele>275</ele>
        <time>2022-06-17T13:16:40.000Z</time>
      </trkpt>
      <trkpt lat="49.80247" lon="4.80601">
        <ele>275</ele>
        <time>2022-06-17T13:16:41.000Z</time>
      </trkpt>
      <trkpt lat="49.80247" lon="4.80606">
        <ele>275</ele>
        <time>2022-06-17T13:16:42.000Z</time>
      </trkpt>
      <trkpt lat="49.80246" lon="4.80609">
        <ele>275</ele>
        <time>2022-06-17T13:16:43.000Z</time>
      </trkpt>
      <trkpt lat="49.80246" lon="4.80613">
        <ele>275</ele>
        <time>2022-06-17T13:16:44.000Z</time>
      </trkpt>
      <trkpt lat="49.80245" lon="4.80617">
        <ele>275</ele>
        <time>2022-06-17T13:16:45.000Z</time>
      </trkpt>
      <trkpt lat="49.80245" lon="4.80621">
        <ele>276</ele>
        <time>2022-06-17T13:16:46.000Z</time>
      </trkpt>
      <trkpt lat="49.80244" lon="4.80625">
        <ele>276</ele>
        <time>2022-06-17T13:16:47.000Z</time>
      </trkpt>
      <trkpt lat="49.80244" lon="4.80629">
        <ele>276</ele>
        <time>2022-06-17T13:16:48.000Z</time>
      </trkpt>
      <trkpt lat="49.80244" lon="4.80633">
        <ele>276</ele>
        <time>2022-06-17T13:16:49.000Z</time>
      </trkpt>
      <trkpt lat="49.80244" lon="4.80637">
        <ele>276</ele>
        <time>2022-06-17T13:16:50.000Z</time>
      </trkpt>
      <trkpt lat="49.80243" lon="4.80641">
        <ele>276</ele>
        <time>2022-06-17T13:16:51.000Z</time>
      </trkpt>
      <trkpt lat="49.80242" lon="4.80646">
        <ele>277</ele>
        <time>2022-06-17T13:16:52.000Z</time>
      </trkpt>
      <trkpt lat="49.80241" lon="4.8065">
        <ele>277</ele>
        <time>2022-06-17T13:16:53.000Z</time>
      </trkpt>
      <trkpt lat="49.80241" lon="4.80655">
        <ele>277</ele>
        <time>2022-06-17T13:16:54.000Z</time>
      </trkpt>
      <trkpt lat="49.80241" lon="4.8066">
        <ele>277</ele>
        <time>2022-06-17T13:16:55.000Z</time>
      </trkpt>
      <trkpt lat="49.8024" lon="4.80665">
        <ele>277</ele>
        <time>2022-06-17T13:16:56.000Z</time>
      </trkpt>
      <trkpt lat="49.8024" lon="4.8067">
        <ele>277</ele>
        <time>2022-06-17T13:16:57.000Z</time>
      </trkpt>
      <trkpt lat="49.80239" lon="4.80674">
        <ele>278</ele>
        <time>2022-06-17T13:16:58.000Z</time>
      </trkpt>
      <trkpt lat="49.80238" lon="4.80679">
        <ele>278</ele>
        <time>2022-06-17T13:16:59.000Z</time>
      </trkpt>
      <trkpt lat="49.80237" lon="4.80684">
        <ele>278</ele>
        <time>2022-06-17T13:17:00.000Z</time>
      </trkpt>
      <trkpt lat="49.80236" lon="4.80689">
        <ele>278</ele>
        <time>2022-06-17T13:17:01.000Z</time>
      </trkpt>
      <trkpt lat="49.80235" lon="4.80693">
        <ele>278</ele>
        <time>2022-06-17T13:17:02.000Z</time>
      </trkpt>
      <trkpt lat="49.80234" lon="4.80698">
        <ele>278</ele>
        <time>2022-06-17T13:17:03.000Z</time>
      </trkpt>
      <trkpt lat="49.80233" lon="4.80702">
        <ele>278</ele>
        <time>2022-06-17T13:17:04.000Z</time>
      </trkpt>
      <trkpt lat="49.80232" lon="4.80706">
        <ele>278</ele>
        <time>2022-06-17T13:17:05.000Z</time>
      </trkpt>
      <trkpt lat="49.80232" lon="4.80711">
        <ele>278</ele>
        <time>2022-06-17T13:17:06.000Z</time>
      </trkpt>
      <trkpt lat="49.80232" lon="4.80715">
        <ele>278</ele>
        <time>2022-06-17T13:17:07.000Z</time>
      </trkpt>
      <trkpt lat="49.80232" lon="4.80721">
        <ele>278</ele>
        <time>2022-06-17T13:17:08.000Z</time>
      </trkpt>
      <trkpt lat="49.80232" lon="4.80727">
        <ele>278</ele>
        <time>2022-06-17T13:17:09.000Z</time>
      </trkpt>
      <trkpt lat="49.80233" lon="4.80733">
        <ele>278</ele>
        <time>2022-06-17T13:17:10.000Z</time>
      </trkpt>
      <trkpt lat="49.80233" lon="4.80739">
        <ele>278</ele>
        <time>2022-06-17T13:17:11.000Z</time>
      </trkpt>
      <trkpt lat="49.80232" lon="4.80744">
        <ele>278</ele>
        <time>2022-06-17T13:17:12.000Z</time>
      </trkpt>
      <trkpt lat="49.80231" lon="4.80749">
        <ele>278</ele>
        <time>2022-06-17T13:17:13.000Z</time>
      </trkpt>
      <trkpt lat="49.80232" lon="4.80755">
        <ele>278</ele>
        <time>2022-06-17T13:17:14.000Z</time>
      </trkpt>
      <trkpt lat="49.80232" lon="4.8076">
        <ele>278</ele>
        <time>2022-06-17T13:17:15.000Z</time>
      </trkpt>
      <trkpt lat="49.80233" lon="4.80767">
        <ele>278</ele>
        <time>2022-06-17T13:17:16.000Z</time>
      </trkpt>
      <trkpt lat="49.80233" lon="4.80773">
        <ele>278</ele>
        <time>2022-06-17T13:17:17.000Z</time>
      </trkpt>
      <trkpt lat="49.80233" lon="4.80778">
        <ele>278</ele>
        <time>2022-06-17T13:17:18.000Z</time>
      </trkpt>
      <trkpt lat="49.80233" lon="4.80783">
        <ele>278</ele>
        <time>2022-06-17T13:17:19.000Z</time>
      </trkpt>
      <trkpt lat="49.80233" lon="4.80789">
        <ele>278</ele>
        <time>2022-06-17T13:17:20.000Z</time>
      </trkpt>
      <trkpt lat="49.80233" lon="4.80795">
        <ele>277</ele>
        <time>2022-06-17T13:17:21.000Z</time>
      </trkpt>
      <trkpt lat="49.80234" lon="4.80801">
        <ele>277</ele>
        <time>2022-06-17T13:17:22.000Z</time>
      </trkpt>
      <trkpt lat="49.80235" lon="4.80808">
        <ele>277</ele>
        <time>2022-06-17T13:17:23.000Z</time>
      </trkpt>
      <trkpt lat="49.80235" lon="4.80814">
        <ele>277</ele>
        <time>2022-06-17T13:17:24.000Z</time>
      </trkpt>
      <trkpt lat="49.80236" lon="4.80819">
        <ele>277</ele>
        <time>2022-06-17T13:17:25.000Z</time>
      </trkpt>
      <trkpt lat="49.80236" lon="4.80824">
        <ele>277</ele>
        <time>2022-06-17T13:17:26.000Z</time>
      </trkpt>
      <trkpt lat="49.80237" lon="4.8083">
        <ele>277</ele>
        <time>2022-06-17T13:17:27.000Z</time>
      </trkpt>
      <trkpt lat="49.80237" lon="4.80835">
        <ele>277</ele>
        <time>2022-06-17T13:17:28.000Z</time>
      </trkpt>
      <trkpt lat="49.80237" lon="4.80841">
        <ele>277</ele>
        <time>2022-06-17T13:17:29.000Z</time>
      </trkpt>
      <trkpt lat="49.80237" lon="4.80847">
        <ele>277</ele>
        <time>2022-06-17T13:17:30.000Z</time>
      </trkpt>
      <trkpt lat="49.80237" lon="4.80853">
        <ele>277</ele>
        <time>2022-06-17T13:17:31.000Z</time>
      </trkpt>
      <trkpt lat="49.80237" lon="4.80858">
        <ele>276</ele>
        <time>2022-06-17T13:17:32.000Z</time>
      </trkpt>
      <trkpt lat="49.80237" lon="4.80861">
        <ele>276</ele>
        <time>2022-06-17T13:17:33.000Z</time>
      </trkpt>
      <trkpt lat="49.80237" lon="4.80863">
        <ele>276</ele>
        <time>2022-06-17T13:17:34.000Z</time>
      </trkpt>
      <trkpt lat="49.80238" lon="4.80864">
        <ele>276</ele>
        <time>2022-06-17T13:17:35.000Z</time>
      </trkpt>
      <trkpt lat="49.80239" lon="4.80865">
        <ele>276</ele>
        <time>2022-06-17T13:17:36.000Z</time>
      </trkpt>
      <trkpt lat="49.80241" lon="4.80864">
        <ele>276</ele>
        <time>2022-06-17T13:17:37.000Z</time>
      </trkpt>
      <trkpt lat="49.80243" lon="4.80863">
        <ele>276</ele>
        <time>2022-06-17T13:17:38.000Z</time>
      </trkpt>
      <trkpt lat="49.80246" lon="4.80861">
        <ele>276</ele>
        <time>2022-06-17T13:17:39.000Z</time>
      </trkpt>
      <trkpt lat="49.80249" lon="4.8086">
        <ele>275</ele>
        <time>2022-06-17T13:17:40.000Z</time>
      </trkpt>
      <trkpt lat="49.80252" lon="4.80859">
        <ele>275</ele>
        <time>2022-06-17T13:17:41.000Z</time>
      </trkpt>
      <trkpt lat="49.80254" lon="4.80856">
        <ele>275</ele>
        <time>2022-06-17T13:17:42.000Z</time>
      </trkpt>
      <trkpt lat="49.80257" lon="4.80853">
        <ele>275</ele>
        <time>2022-06-17T13:17:43.000Z</time>
      </trkpt>
      <trkpt lat="49.8026" lon="4.80849">
        <ele>275</ele>
        <time>2022-06-17T13:17:44.000Z</time>
      </trkpt>
      <trkpt lat="49.80261" lon="4.80846">
        <ele>275</ele>
        <time>2022-06-17T13:17:45.000Z</time>
      </trkpt>
      <trkpt lat="49.80263" lon="4.80842">
        <ele>275</ele>
        <time>2022-06-17T13:17:46.000Z</time>
      </trkpt>
      <trkpt lat="49.80265" lon="4.80838">
        <ele>274</ele>
        <time>2022-06-17T13:17:47.000Z</time>
      </trkpt>
      <trkpt lat="49.80268" lon="4.80834">
        <ele>274</ele>
        <time>2022-06-17T13:17:48.000Z</time>
      </trkpt>
      <trkpt lat="49.80271" lon="4.80829">
        <ele>274</ele>
        <time>2022-06-17T13:17:49.000Z</time>
      </trkpt>
      <trkpt lat="49.80273" lon="4.80825">
        <ele>273</ele>
        <time>2022-06-17T13:17:50.000Z</time>
      </trkpt>
      <trkpt lat="49.80275" lon="4.8082">
        <ele>273</ele>
        <time>2022-06-17T13:17:51.000Z</time>
      </trkpt>
      <trkpt lat="49.80277" lon="4.80817">
        <ele>273</ele>
        <time>2022-06-17T13:17:52.000Z</time>
      </trkpt>
      <trkpt lat="49.80279" lon="4.80812">
        <ele>273</ele>
        <time>2022-06-17T13:17:53.000Z</time>
      </trkpt>
      <trkpt lat="49.8028" lon="4.80806">
        <ele>272</ele>
        <time>2022-06-17T13:17:54.000Z</time>
      </trkpt>
      <trkpt lat="49.80282" lon="4.808">
        <ele>272</ele>
        <time>2022-06-17T13:17:55.000Z</time>
      </trkpt>
      <trkpt lat="49.80284" lon="4.80794">
        <ele>272</ele>
        <time>2022-06-17T13:17:56.000Z</time>
      </trkpt>
      <trkpt lat="49.80287" lon="4.80788">
        <ele>271</ele>
        <time>2022-06-17T13:17:57.000Z</time>
      </trkpt>
      <trkpt lat="49.8029" lon="4.80783">
        <ele>271</ele>
        <time>2022-06-17T13:17:58.000Z</time>
      </trkpt>
      <trkpt lat="49.80293" lon="4.80778">
        <ele>270</ele>
        <time>2022-06-17T13:17:59.000Z</time>
      </trkpt>
      <trkpt lat="49.80296" lon="4.80774">
        <ele>270</ele>
        <time>2022-06-17T13:18:00.000Z</time>
      </trkpt>
      <trkpt lat="49.80299" lon="4.8077">
        <ele>270</ele>
        <time>2022-06-17T13:18:01.000Z</time>
      </trkpt>
      <trkpt lat="49.80301" lon="4.80764">
        <ele>270</ele>
        <time>2022-06-17T13:18:02.000Z</time>
      </trkpt>
      <trkpt lat="49.80304" lon="4.80757">
        <ele>269</ele>
        <time>2022-06-17T13:18:03.000Z</time>
      </trkpt>
      <trkpt lat="49.80305" lon="4.8075">
        <ele>269</ele>
        <time>2022-06-17T13:18:04.000Z</time>
      </trkpt>
      <trkpt lat="49.80307" lon="4.80742">
        <ele>269</ele>
        <time>2022-06-17T13:18:05.000Z</time>
      </trkpt>
      <trkpt lat="49.80308" lon="4.80735">
        <ele>268</ele>
        <time>2022-06-17T13:18:06.000Z</time>
      </trkpt>
      <trkpt lat="49.80309" lon="4.80727">
        <ele>268</ele>
        <time>2022-06-17T13:18:07.000Z</time>
      </trkpt>
      <trkpt lat="49.8031" lon="4.8072">
        <ele>268</ele>
        <time>2022-06-17T13:18:08.000Z</time>
      </trkpt>
      <trkpt lat="49.80312" lon="4.80713">
        <ele>267</ele>
        <time>2022-06-17T13:18:09.000Z</time>
      </trkpt>
      <trkpt lat="49.80313" lon="4.80706">
        <ele>267</ele>
        <time>2022-06-17T13:18:10.000Z</time>
      </trkpt>
      <trkpt lat="49.80315" lon="4.80699">
        <ele>266</ele>
        <time>2022-06-17T13:18:11.000Z</time>
      </trkpt>
      <trkpt lat="49.80317" lon="4.80691">
        <ele>266</ele>
        <time>2022-06-17T13:18:12.000Z</time>
      </trkpt>
      <trkpt lat="49.80319" lon="4.80684">
        <ele>266</ele>
        <time>2022-06-17T13:18:13.000Z</time>
      </trkpt>
      <trkpt lat="49.80321" lon="4.80677">
        <ele>266</ele>
        <time>2022-06-17T13:18:14.000Z</time>
      </trkpt>
      <trkpt lat="49.80323" lon="4.80671">
        <ele>265</ele>
        <time>2022-06-17T13:18:15.000Z</time>
      </trkpt>
      <trkpt lat="49.80325" lon="4.80666">
        <ele>265</ele>
        <time>2022-06-17T13:18:16.000Z</time>
      </trkpt>
      <trkpt lat="49.80328" lon="4.80661">
        <ele>265</ele>
        <time>2022-06-17T13:18:17.000Z</time>
      </trkpt>
      <trkpt lat="49.80331" lon="4.80656">
        <ele>265</ele>
        <time>2022-06-17T13:18:18.000Z</time>
      </trkpt>
      <trkpt lat="49.80334" lon="4.80651">
        <ele>264</ele>
        <time>2022-06-17T13:18:19.000Z</time>
      </trkpt>
      <trkpt lat="49.80337" lon="4.80647">
        <ele>264</ele>
        <time>2022-06-17T13:18:20.000Z</time>
      </trkpt>
      <trkpt lat="49.8034" lon="4.80642">
        <ele>264</ele>
        <time>2022-06-17T13:18:21.000Z</time>
      </trkpt>
      <trkpt lat="49.80343" lon="4.80636">
        <ele>263</ele>
        <time>2022-06-17T13:18:22.000Z</time>
      </trkpt>
      <trkpt lat="49.80347" lon="4.80631">
        <ele>263</ele>
        <time>2022-06-17T13:18:23.000Z</time>
      </trkpt>
      <trkpt lat="49.80351" lon="4.80625">
        <ele>263</ele>
        <time>2022-06-17T13:18:24.000Z</time>
      </trkpt>
      <trkpt lat="49.80354" lon="4.8062">
        <ele>262</ele>
        <time>2022-06-17T13:18:25.000Z</time>
      </trkpt>
      <trkpt lat="49.80357" lon="4.80615">
        <ele>262</ele>
        <time>2022-06-17T13:18:26.000Z</time>
      </trkpt>
      <trkpt lat="49.8036" lon="4.80612">
        <ele>262</ele>
        <time>2022-06-17T13:18:27.000Z</time>
      </trkpt>
      <trkpt lat="49.80362" lon="4.80607">
        <ele>261</ele>
        <time>2022-06-17T13:18:28.000Z</time>
      </trkpt>
      <trkpt lat="49.80364" lon="4.80603">
        <ele>261</ele>
        <time>2022-06-17T13:18:29.000Z</time>
      </trkpt>
      <trkpt lat="49.80366" lon="4.80598">
        <ele>260</ele>
        <time>2022-06-17T13:18:30.000Z</time>
      </trkpt>
      <trkpt lat="49.80368" lon="4.80593">
        <ele>260</ele>
        <time>2022-06-17T13:18:31.000Z</time>
      </trkpt>
      <trkpt lat="49.80371" lon="4.80587">
        <ele>259</ele>
        <time>2022-06-17T13:18:32.000Z</time>
      </trkpt>
      <trkpt lat="49.80374" lon="4.80583">
        <ele>259</ele>
        <time>2022-06-17T13:18:33.000Z</time>
      </trkpt>
      <trkpt lat="49.80377" lon="4.80579">
        <ele>258</ele>
        <time>2022-06-17T13:18:34.000Z</time>
      </trkpt>
      <trkpt lat="49.8038" lon="4.80576">
        <ele>257</ele>
        <time>2022-06-17T13:18:35.000Z</time>
      </trkpt>
      <trkpt lat="49.80383" lon="4.80573">
        <ele>257</ele>
        <time>2022-06-17T13:18:36.000Z</time>
      </trkpt>
      <trkpt lat="49.80386" lon="4.8057">
        <ele>257</ele>
        <time>2022-06-17T13:18:37.000Z</time>
      </trkpt>
      <trkpt lat="49.80388" lon="4.80567">
        <ele>256</ele>
        <time>2022-06-17T13:18:38.000Z</time>
      </trkpt>
      <trkpt lat="49.80391" lon="4.80564">
        <ele>256</ele>
        <time>2022-06-17T13:18:39.000Z</time>
      </trkpt>
      <trkpt lat="49.80394" lon="4.80562">
        <ele>256</ele>
        <time>2022-06-17T13:18:40.000Z</time>
      </trkpt>
      <trkpt lat="49.80397" lon="4.8056">
        <ele>256</ele>
        <time>2022-06-17T13:18:41.000Z</time>
      </trkpt>
      <trkpt lat="49.804" lon="4.80557">
        <ele>256</ele>
        <time>2022-06-17T13:18:42.000Z</time>
      </trkpt>
      <trkpt lat="49.80402" lon="4.80553">
        <ele>256</ele>
        <time>2022-06-17T13:18:43.000Z</time>
      </trkpt>
      <trkpt lat="49.80404" lon="4.80549">
        <ele>256</ele>
        <time>2022-06-17T13:18:44.000Z</time>
      </trkpt>
      <trkpt lat="49.80407" lon="4.80546">
        <ele>256</ele>
        <time>2022-06-17T13:18:45.000Z</time>
      </trkpt>
      <trkpt lat="49.8041" lon="4.80543">
        <ele>256</ele>
        <time>2022-06-17T13:18:46.000Z</time>
      </trkpt>
      <trkpt lat="49.80413" lon="4.8054">
        <ele>256</ele>
        <time>2022-06-17T13:18:47.000Z</time>
      </trkpt>
      <trkpt lat="49.80416" lon="4.80537">
        <ele>256</ele>
        <time>2022-06-17T13:18:48.000Z</time>
      </trkpt>
      <trkpt lat="49.80419" lon="4.80534">
        <ele>256</ele>
        <time>2022-06-17T13:18:49.000Z</time>
      </trkpt>
      <trkpt lat="49.80422" lon="4.80532">
        <ele>256</ele>
        <time>2022-06-17T13:18:50.000Z</time>
      </trkpt>
      <trkpt lat="49.80425" lon="4.8053">
        <ele>256</ele>
        <time>2022-06-17T13:18:51.000Z</time>
      </trkpt>
      <trkpt lat="49.80427" lon="4.80528">
        <ele>255</ele>
        <time>2022-06-17T13:18:52.000Z</time>
      </trkpt>
      <trkpt lat="49.8043" lon="4.80526">
        <ele>255</ele>
        <time>2022-06-17T13:18:53.000Z</time>
      </trkpt>
      <trkpt lat="49.80433" lon="4.80524">
        <ele>255</ele>
        <time>2022-06-17T13:18:54.000Z</time>
      </trkpt>
      <trkpt lat="49.80437" lon="4.80521">
        <ele>255</ele>
        <time>2022-06-17T13:18:55.000Z</time>
      </trkpt>
      <trkpt lat="49.8044" lon="4.8052">
        <ele>255</ele>
        <time>2022-06-17T13:18:56.000Z</time>
      </trkpt>
      <trkpt lat="49.80443" lon="4.80518">
        <ele>255</ele>
        <time>2022-06-17T13:18:57.000Z</time>
      </trkpt>
      <trkpt lat="49.80445" lon="4.80517">
        <ele>255</ele>
        <time>2022-06-17T13:18:58.000Z</time>
      </trkpt>
      <trkpt lat="49.80448" lon="4.80515">
        <ele>255</ele>
        <time>2022-06-17T13:18:59.000Z</time>
      </trkpt>
      <trkpt lat="49.8045" lon="4.80513">
        <ele>254</ele>
        <time>2022-06-17T13:19:00.000Z</time>
      </trkpt>
      <trkpt lat="49.80452" lon="4.80512">
        <ele>254</ele>
        <time>2022-06-17T13:19:01.000Z</time>
      </trkpt>
      <trkpt lat="49.80454" lon="4.8051">
        <ele>254</ele>
        <time>2022-06-17T13:19:02.000Z</time>
      </trkpt>
      <trkpt lat="49.80457" lon="4.80508">
        <ele>254</ele>
        <time>2022-06-17T13:19:03.000Z</time>
      </trkpt>
      <trkpt lat="49.8046" lon="4.80506">
        <ele>254</ele>
        <time>2022-06-17T13:19:04.000Z</time>
      </trkpt>
      <trkpt lat="49.80463" lon="4.80504">
        <ele>253</ele>
        <time>2022-06-17T13:19:05.000Z</time>
      </trkpt>
      <trkpt lat="49.80466" lon="4.805">
        <ele>253</ele>
        <time>2022-06-17T13:19:06.000Z</time>
      </trkpt>
      <trkpt lat="49.80471" lon="4.80496">
        <ele>253</ele>
        <time>2022-06-17T13:19:07.000Z</time>
      </trkpt>
      <trkpt lat="49.80475" lon="4.80491">
        <ele>253</ele>
        <time>2022-06-17T13:19:08.000Z</time>
      </trkpt>
      <trkpt lat="49.80479" lon="4.80485">
        <ele>252</ele>
        <time>2022-06-17T13:19:09.000Z</time>
      </trkpt>
      <trkpt lat="49.80484" lon="4.80478">
        <ele>252</ele>
        <time>2022-06-17T13:19:10.000Z</time>
      </trkpt>
      <trkpt lat="49.80489" lon="4.80472">
        <ele>251</ele>
        <time>2022-06-17T13:19:11.000Z</time>
      </trkpt>
      <trkpt lat="49.80494" lon="4.80465">
        <ele>251</ele>
        <time>2022-06-17T13:19:12.000Z</time>
      </trkpt>
      <trkpt lat="49.80498" lon="4.80459">
        <ele>250</ele>
        <time>2022-06-17T13:19:13.000Z</time>
      </trkpt>
      <trkpt lat="49.80502" lon="4.80452">
        <ele>250</ele>
        <time>2022-06-17T13:19:14.000Z</time>
      </trkpt>
      <trkpt lat="49.80505" lon="4.80447">
        <ele>249</ele>
        <time>2022-06-17T13:19:15.000Z</time>
      </trkpt>
      <trkpt lat="49.80509" lon="4.80442">
        <ele>249</ele>
        <time>2022-06-17T13:19:16.000Z</time>
      </trkpt>
      <trkpt lat="49.80513" lon="4.80436">
        <ele>248</ele>
        <time>2022-06-17T13:19:17.000Z</time>
      </trkpt>
      <trkpt lat="49.80518" lon="4.80429">
        <ele>248</ele>
        <time>2022-06-17T13:19:18.000Z</time>
      </trkpt>
      <trkpt lat="49.80521" lon="4.80422">
        <ele>248</ele>
        <time>2022-06-17T13:19:19.000Z</time>
      </trkpt>
      <trkpt lat="49.80525" lon="4.80415">
        <ele>247</ele>
        <time>2022-06-17T13:19:20.000Z</time>
      </trkpt>
      <trkpt lat="49.80528" lon="4.80409">
        <ele>247</ele>
        <time>2022-06-17T13:19:21.000Z</time>
      </trkpt>
      <trkpt lat="49.80532" lon="4.80403">
        <ele>246</ele>
        <time>2022-06-17T13:19:22.000Z</time>
      </trkpt>
      <trkpt lat="49.80536" lon="4.80397">
        <ele>246</ele>
        <time>2022-06-17T13:19:23.000Z</time>
      </trkpt>
      <trkpt lat="49.8054" lon="4.80391">
        <ele>245</ele>
        <time>2022-06-17T13:19:24.000Z</time>
      </trkpt>
      <trkpt lat="49.80543" lon="4.80384">
        <ele>245</ele>
        <time>2022-06-17T13:19:25.000Z</time>
      </trkpt>
      <trkpt lat="49.80547" lon="4.80377">
        <ele>244</ele>
        <time>2022-06-17T13:19:26.000Z</time>
      </trkpt>
      <trkpt lat="49.80551" lon="4.80369">
        <ele>244</ele>
        <time>2022-06-17T13:19:27.000Z</time>
      </trkpt>
      <trkpt lat="49.80556" lon="4.80362">
        <ele>243</ele>
        <time>2022-06-17T13:19:28.000Z</time>
      </trkpt>
      <trkpt lat="49.8056" lon="4.80355">
        <ele>243</ele>
        <time>2022-06-17T13:19:29.000Z</time>
      </trkpt>
      <trkpt lat="49.80564" lon="4.80347">
        <ele>242</ele>
        <time>2022-06-17T13:19:30.000Z</time>
      </trkpt>
      <trkpt lat="49.80568" lon="4.8034">
        <ele>242</ele>
        <time>2022-06-17T13:19:31.000Z</time>
      </trkpt>
      <trkpt lat="49.80572" lon="4.80333">
        <ele>241</ele>
        <time>2022-06-17T13:19:32.000Z</time>
      </trkpt>
      <trkpt lat="49.80576" lon="4.80327">
        <ele>241</ele>
        <time>2022-06-17T13:19:33.000Z</time>
      </trkpt>
      <trkpt lat="49.80581" lon="4.8032">
        <ele>240</ele>
        <time>2022-06-17T13:19:34.000Z</time>
      </trkpt>
      <trkpt lat="49.80585" lon="4.80313">
        <ele>240</ele>
        <time>2022-06-17T13:19:35.000Z</time>
      </trkpt>
      <trkpt lat="49.80589" lon="4.80306">
        <ele>239</ele>
        <time>2022-06-17T13:19:36.000Z</time>
      </trkpt>
      <trkpt lat="49.80593" lon="4.80301">
        <ele>239</ele>
        <time>2022-06-17T13:19:37.000Z</time>
      </trkpt>
      <trkpt lat="49.80598" lon="4.80295">
        <ele>238</ele>
        <time>2022-06-17T13:19:38.000Z</time>
      </trkpt>
      <trkpt lat="49.80603" lon="4.80289">
        <ele>238</ele>
        <time>2022-06-17T13:19:39.000Z</time>
      </trkpt>
      <trkpt lat="49.80608" lon="4.80282">
        <ele>237</ele>
        <time>2022-06-17T13:19:40.000Z</time>
      </trkpt>
      <trkpt lat="49.80612" lon="4.80275">
        <ele>237</ele>
        <time>2022-06-17T13:19:41.000Z</time>
      </trkpt>
      <trkpt lat="49.80617" lon="4.80268">
        <ele>236</ele>
        <time>2022-06-17T13:19:42.000Z</time>
      </trkpt>
      <trkpt lat="49.80621" lon="4.8026">
        <ele>235</ele>
        <time>2022-06-17T13:19:43.000Z</time>
      </trkpt>
      <trkpt lat="49.80625" lon="4.80253">
        <ele>234</ele>
        <time>2022-06-17T13:19:44.000Z</time>
      </trkpt>
      <trkpt lat="49.80629" lon="4.80245">
        <ele>234</ele>
        <time>2022-06-17T13:19:45.000Z</time>
      </trkpt>
      <trkpt lat="49.80634" lon="4.80237">
        <ele>233</ele>
        <time>2022-06-17T13:19:46.000Z</time>
      </trkpt>
      <trkpt lat="49.80638" lon="4.80229">
        <ele>232</ele>
        <time>2022-06-17T13:19:47.000Z</time>
      </trkpt>
      <trkpt lat="49.80643" lon="4.80222">
        <ele>231</ele>
        <time>2022-06-17T13:19:48.000Z</time>
      </trkpt>
      <trkpt lat="49.80648" lon="4.80215">
        <ele>230</ele>
        <time>2022-06-17T13:19:49.000Z</time>
      </trkpt>
      <trkpt lat="49.80653" lon="4.80209">
        <ele>229</ele>
        <time>2022-06-17T13:19:50.000Z</time>
      </trkpt>
      <trkpt lat="49.80658" lon="4.80202">
        <ele>228</ele>
        <time>2022-06-17T13:19:51.000Z</time>
      </trkpt>
      <trkpt lat="49.80663" lon="4.80195">
        <ele>227</ele>
        <time>2022-06-17T13:19:52.000Z</time>
      </trkpt>
      <trkpt lat="49.80668" lon="4.80188">
        <ele>226</ele>
        <time>2022-06-17T13:19:53.000Z</time>
      </trkpt>
      <trkpt lat="49.80673" lon="4.80181">
        <ele>226</ele>
        <time>2022-06-17T13:19:54.000Z</time>
      </trkpt>
      <trkpt lat="49.80678" lon="4.80173">
        <ele>225</ele>
        <time>2022-06-17T13:19:55.000Z</time>
      </trkpt>
      <trkpt lat="49.80683" lon="4.80166">
        <ele>224</ele>
        <time>2022-06-17T13:19:56.000Z</time>
      </trkpt>
      <trkpt lat="49.80688" lon="4.80158">
        <ele>223</ele>
        <time>2022-06-17T13:19:57.000Z</time>
      </trkpt>
      <trkpt lat="49.80693" lon="4.8015">
        <ele>222</ele>
        <time>2022-06-17T13:19:58.000Z</time>
      </trkpt>
      <trkpt lat="49.80698" lon="4.80142">
        <ele>221</ele>
        <time>2022-06-17T13:19:59.000Z</time>
      </trkpt>
      <trkpt lat="49.80704" lon="4.80134">
        <ele>221</ele>
        <time>2022-06-17T13:20:00.000Z</time>
      </trkpt>
      <trkpt lat="49.8071" lon="4.80127">
        <ele>220</ele>
        <time>2022-06-17T13:20:01.000Z</time>
      </trkpt>
      <trkpt lat="49.80716" lon="4.80121">
        <ele>219</ele>
        <time>2022-06-17T13:20:02.000Z</time>
      </trkpt>
      <trkpt lat="49.80723" lon="4.80117">
        <ele>218</ele>
        <time>2022-06-17T13:20:03.000Z</time>
      </trkpt>
      <trkpt lat="49.80729" lon="4.80114">
        <ele>218</ele>
        <time>2022-06-17T13:20:04.000Z</time>
      </trkpt>
      <trkpt lat="49.80735" lon="4.80111">
        <ele>217</ele>
        <time>2022-06-17T13:20:05.000Z</time>
      </trkpt>
      <trkpt lat="49.80741" lon="4.80108">
        <ele>216</ele>
        <time>2022-06-17T13:20:06.000Z</time>
      </trkpt>
      <trkpt lat="49.80748" lon="4.80105">
        <ele>216</ele>
        <time>2022-06-17T13:20:07.000Z</time>
      </trkpt>
      <trkpt lat="49.80753" lon="4.80101">
        <ele>215</ele>
        <time>2022-06-17T13:20:08.000Z</time>
      </trkpt>
      <trkpt lat="49.80758" lon="4.80095">
        <ele>215</ele>
        <time>2022-06-17T13:20:09.000Z</time>
      </trkpt>
      <trkpt lat="49.80763" lon="4.80088">
        <ele>214</ele>
        <time>2022-06-17T13:20:10.000Z</time>
      </trkpt>
      <trkpt lat="49.80766" lon="4.8008">
        <ele>214</ele>
        <time>2022-06-17T13:20:11.000Z</time>
      </trkpt>
      <trkpt lat="49.8077" lon="4.80072">
        <ele>213</ele>
        <time>2022-06-17T13:20:12.000Z</time>
      </trkpt>
      <trkpt lat="49.80774" lon="4.80062">
        <ele>213</ele>
        <time>2022-06-17T13:20:13.000Z</time>
      </trkpt>
      <trkpt lat="49.80777" lon="4.80052">
        <ele>212</ele>
        <time>2022-06-17T13:20:14.000Z</time>
      </trkpt>
      <trkpt lat="49.8078" lon="4.8004">
        <ele>211</ele>
        <time>2022-06-17T13:20:15.000Z</time>
      </trkpt>
      <trkpt lat="49.80783" lon="4.80029">
        <ele>211</ele>
        <time>2022-06-17T13:20:16.000Z</time>
      </trkpt>
      <trkpt lat="49.80787" lon="4.80017">
        <ele>210</ele>
        <time>2022-06-17T13:20:17.000Z</time>
      </trkpt>
      <trkpt lat="49.8079" lon="4.80006">
        <ele>209</ele>
        <time>2022-06-17T13:20:18.000Z</time>
      </trkpt>
      <trkpt lat="49.80793" lon="4.79994">
        <ele>208</ele>
        <time>2022-06-17T13:20:19.000Z</time>
      </trkpt>
      <trkpt lat="49.80796" lon="4.79983">
        <ele>208</ele>
        <time>2022-06-17T13:20:20.000Z</time>
      </trkpt>
      <trkpt lat="49.808" lon="4.79971">
        <ele>207</ele>
        <time>2022-06-17T13:20:21.000Z</time>
      </trkpt>
      <trkpt lat="49.80803" lon="4.79959">
        <ele>206</ele>
        <time>2022-06-17T13:20:22.000Z</time>
      </trkpt>
      <trkpt lat="49.80807" lon="4.79947">
        <ele>205</ele>
        <time>2022-06-17T13:20:23.000Z</time>
      </trkpt>
      <trkpt lat="49.80811" lon="4.79935">
        <ele>204</ele>
        <time>2022-06-17T13:20:24.000Z</time>
      </trkpt>
      <trkpt lat="49.80815" lon="4.79922">
        <ele>203</ele>
        <time>2022-06-17T13:20:25.000Z</time>
      </trkpt>
      <trkpt lat="49.80819" lon="4.79911">
        <ele>202</ele>
        <time>2022-06-17T13:20:26.000Z</time>
      </trkpt>
      <trkpt lat="49.80824" lon="4.79901">
        <ele>201</ele>
        <time>2022-06-17T13:20:27.000Z</time>
      </trkpt>
      <trkpt lat="49.80829" lon="4.79891">
        <ele>200</ele>
        <time>2022-06-17T13:20:28.000Z</time>
      </trkpt>
      <trkpt lat="49.80836" lon="4.79882">
        <ele>199</ele>
        <time>2022-06-17T13:20:29.000Z</time>
      </trkpt>
      <trkpt lat="49.80843" lon="4.79873">
        <ele>198</ele>
        <time>2022-06-17T13:20:30.000Z</time>
      </trkpt>
      <trkpt lat="49.8085" lon="4.79865">
        <ele>197</ele>
        <time>2022-06-17T13:20:31.000Z</time>
      </trkpt>
      <trkpt lat="49.80858" lon="4.79856">
        <ele>195</ele>
        <time>2022-06-17T13:20:32.000Z</time>
      </trkpt>
      <trkpt lat="49.80866" lon="4.79848">
        <ele>194</ele>
        <time>2022-06-17T13:20:33.000Z</time>
      </trkpt>
      <trkpt lat="49.80874" lon="4.79841">
        <ele>193</ele>
        <time>2022-06-17T13:20:34.000Z</time>
      </trkpt>
      <trkpt lat="49.80883" lon="4.79834">
        <ele>192</ele>
        <time>2022-06-17T13:20:35.000Z</time>
      </trkpt>
      <trkpt lat="49.80891" lon="4.79827">
        <ele>190</ele>
        <time>2022-06-17T13:20:36.000Z</time>
      </trkpt>
      <trkpt lat="49.80899" lon="4.79819">
        <ele>189</ele>
        <time>2022-06-17T13:20:37.000Z</time>
      </trkpt>
      <trkpt lat="49.80907" lon="4.79812">
        <ele>188</ele>
        <time>2022-06-17T13:20:38.000Z</time>
      </trkpt>
      <trkpt lat="49.80915" lon="4.79803">
        <ele>187</ele>
        <time>2022-06-17T13:20:39.000Z</time>
      </trkpt>
      <trkpt lat="49.80922" lon="4.79795">
        <ele>185</ele>
        <time>2022-06-17T13:20:40.000Z</time>
      </trkpt>
      <trkpt lat="49.8093" lon="4.79788">
        <ele>184</ele>
        <time>2022-06-17T13:20:41.000Z</time>
      </trkpt>
      <trkpt lat="49.80937" lon="4.79781">
        <ele>184</ele>
        <time>2022-06-17T13:20:42.000Z</time>
      </trkpt>
      <trkpt lat="49.80945" lon="4.79775">
        <ele>183</ele>
        <time>2022-06-17T13:20:43.000Z</time>
      </trkpt>
      <trkpt lat="49.80953" lon="4.7977">
        <ele>182</ele>
        <time>2022-06-17T13:20:44.000Z</time>
      </trkpt>
      <trkpt lat="49.8096" lon="4.79765">
        <ele>182</ele>
        <time>2022-06-17T13:20:45.000Z</time>
      </trkpt>
      <trkpt lat="49.80968" lon="4.79761">
        <ele>182</ele>
        <time>2022-06-17T13:20:46.000Z</time>
      </trkpt>
      <trkpt lat="49.80975" lon="4.79756">
        <ele>182</ele>
        <time>2022-06-17T13:20:47.000Z</time>
      </trkpt>
      <trkpt lat="49.80982" lon="4.79751">
        <ele>182</ele>
        <time>2022-06-17T13:20:48.000Z</time>
      </trkpt>
      <trkpt lat="49.80988" lon="4.79745">
        <ele>181</ele>
        <time>2022-06-17T13:20:49.000Z</time>
      </trkpt>
      <trkpt lat="49.80994" lon="4.7974">
        <ele>181</ele>
        <time>2022-06-17T13:20:50.000Z</time>
      </trkpt>
      <trkpt lat="49.81" lon="4.79734">
        <ele>181</ele>
        <time>2022-06-17T13:20:51.000Z</time>
      </trkpt>
      <trkpt lat="49.81006" lon="4.79729">
        <ele>181</ele>
        <time>2022-06-17T13:20:52.000Z</time>
      </trkpt>
      <trkpt lat="49.81011" lon="4.79725">
        <ele>181</ele>
        <time>2022-06-17T13:20:53.000Z</time>
      </trkpt>
      <trkpt lat="49.81016" lon="4.79726">
        <ele>181</ele>
        <time>2022-06-17T13:20:54.000Z</time>
      </trkpt>
      <trkpt lat="49.81021" lon="4.7973">
        <ele>181</ele>
        <time>2022-06-17T13:20:55.000Z</time>
      </trkpt>
      <trkpt lat="49.81025" lon="4.79737">
        <ele>181</ele>
        <time>2022-06-17T13:20:56.000Z</time>
      </trkpt>
      <trkpt lat="49.8103" lon="4.79743">
        <ele>181</ele>
        <time>2022-06-17T13:20:57.000Z</time>
      </trkpt>
      <trkpt lat="49.81035" lon="4.7975">
        <ele>181</ele>
        <time>2022-06-17T13:20:58.000Z</time>
      </trkpt>
      <trkpt lat="49.81039" lon="4.79757">
        <ele>180</ele>
        <time>2022-06-17T13:20:59.000Z</time>
      </trkpt>
      <trkpt lat="49.81044" lon="4.79764">
        <ele>180</ele>
        <time>2022-06-17T13:21:00.000Z</time>
      </trkpt>
      <trkpt lat="49.81049" lon="4.79772">
        <ele>180</ele>
        <time>2022-06-17T13:21:01.000Z</time>
      </trkpt>
      <trkpt lat="49.81053" lon="4.79781">
        <ele>180</ele>
        <time>2022-06-17T13:21:02.000Z</time>
      </trkpt>
      <trkpt lat="49.81057" lon="4.7979">
        <ele>180</ele>
        <time>2022-06-17T13:21:03.000Z</time>
      </trkpt>
      <trkpt lat="49.81062" lon="4.798">
        <ele>180</ele>
        <time>2022-06-17T13:21:04.000Z</time>
      </trkpt>
      <trkpt lat="49.81065" lon="4.7981">
        <ele>179</ele>
        <time>2022-06-17T13:21:05.000Z</time>
      </trkpt>
      <trkpt lat="49.81069" lon="4.7982">
        <ele>179</ele>
        <time>2022-06-17T13:21:06.000Z</time>
      </trkpt>
      <trkpt lat="49.81072" lon="4.7983">
        <ele>179</ele>
        <time>2022-06-17T13:21:07.000Z</time>
      </trkpt>
      <trkpt lat="49.81076" lon="4.79839">
        <ele>179</ele>
        <time>2022-06-17T13:21:08.000Z</time>
      </trkpt>
      <trkpt lat="49.81079" lon="4.79849">
        <ele>179</ele>
        <time>2022-06-17T13:21:09.000Z</time>
      </trkpt>
      <trkpt lat="49.81083" lon="4.79858">
        <ele>178</ele>
        <time>2022-06-17T13:21:10.000Z</time>
      </trkpt>
      <trkpt lat="49.81087" lon="4.79868">
        <ele>178</ele>
        <time>2022-06-17T13:21:11.000Z</time>
      </trkpt>
      <trkpt lat="49.8109" lon="4.79877">
        <ele>178</ele>
        <time>2022-06-17T13:21:12.000Z</time>
      </trkpt>
      <trkpt lat="49.81094" lon="4.79886">
        <ele>178</ele>
        <time>2022-06-17T13:21:13.000Z</time>
      </trkpt>
      <trkpt lat="49.81098" lon="4.79894">
        <ele>178</ele>
        <time>2022-06-17T13:21:14.000Z</time>
      </trkpt>
      <trkpt lat="49.81102" lon="4.79903">
        <ele>178</ele>
        <time>2022-06-17T13:21:15.000Z</time>
      </trkpt>
      <trkpt lat="49.81106" lon="4.79911">
        <ele>178</ele>
        <time>2022-06-17T13:21:16.000Z</time>
      </trkpt>
      <trkpt lat="49.8111" lon="4.79919">
        <ele>178</ele>
        <time>2022-06-17T13:21:17.000Z</time>
      </trkpt>
      <trkpt lat="49.81114" lon="4.79927">
        <ele>178</ele>
        <time>2022-06-17T13:21:18.000Z</time>
      </trkpt>
      <trkpt lat="49.81119" lon="4.79934">
        <ele>178</ele>
        <time>2022-06-17T13:21:19.000Z</time>
      </trkpt>
      <trkpt lat="49.81123" lon="4.79941">
        <ele>177</ele>
        <time>2022-06-17T13:21:20.000Z</time>
      </trkpt>
      <trkpt lat="49.81128" lon="4.79947">
        <ele>177</ele>
        <time>2022-06-17T13:21:21.000Z</time>
      </trkpt>
      <trkpt lat="49.81132" lon="4.79954">
        <ele>177</ele>
        <time>2022-06-17T13:21:22.000Z</time>
      </trkpt>
      <trkpt lat="49.81137" lon="4.79962">
        <ele>177</ele>
        <time>2022-06-17T13:21:23.000Z</time>
      </trkpt>
      <trkpt lat="49.8114" lon="4.7997">
        <ele>177</ele>
        <time>2022-06-17T13:21:24.000Z</time>
      </trkpt>
      <trkpt lat="49.81143" lon="4.79979">
        <ele>177</ele>
        <time>2022-06-17T13:21:25.000Z</time>
      </trkpt>
      <trkpt lat="49.81145" lon="4.79987">
        <ele>177</ele>
        <time>2022-06-17T13:21:26.000Z</time>
      </trkpt>
      <trkpt lat="49.81146" lon="4.79996">
        <ele>177</ele>
        <time>2022-06-17T13:21:27.000Z</time>
      </trkpt>
      <trkpt lat="49.81146" lon="4.80003">
        <ele>177</ele>
        <time>2022-06-17T13:21:28.000Z</time>
      </trkpt>
      <trkpt lat="49.81147" lon="4.80008">
        <ele>177</ele>
        <time>2022-06-17T13:21:29.000Z</time>
      </trkpt>
      <trkpt lat="49.81147" lon="4.80013">
        <ele>177</ele>
        <time>2022-06-17T13:21:30.000Z</time>
      </trkpt>
      <trkpt lat="49.81148" lon="4.80018">
        <ele>178</ele>
        <time>2022-06-17T13:21:31.000Z</time>
      </trkpt>
      <trkpt lat="49.81147" lon="4.80022">
        <ele>178</ele>
        <time>2022-06-17T13:21:32.000Z</time>
      </trkpt>
      <trkpt lat="49.81147" lon="4.80027">
        <ele>178</ele>
        <time>2022-06-17T13:21:33.000Z</time>
      </trkpt>
      <trkpt lat="49.81147" lon="4.80032">
        <ele>178</ele>
        <time>2022-06-17T13:21:34.000Z</time>
      </trkpt>
      <trkpt lat="49.81147" lon="4.80036">
        <ele>178</ele>
        <time>2022-06-17T13:21:35.000Z</time>
      </trkpt>
      <trkpt lat="49.81147" lon="4.8004">
        <ele>178</ele>
        <time>2022-06-17T13:21:36.000Z</time>
      </trkpt>
      <trkpt lat="49.81146" lon="4.80045">
        <ele>178</ele>
        <time>2022-06-17T13:21:37.000Z</time>
      </trkpt>
      <trkpt lat="49.81146" lon="4.80049">
        <ele>178</ele>
        <time>2022-06-17T13:21:38.000Z</time>
      </trkpt>
      <trkpt lat="49.81146" lon="4.80054">
        <ele>178</ele>
        <time>2022-06-17T13:21:39.000Z</time>
      </trkpt>
      <trkpt lat="49.81146" lon="4.80058">
        <ele>178</ele>
        <time>2022-06-17T13:21:40.000Z</time>
      </trkpt>
      <trkpt lat="49.81146" lon="4.80063">
        <ele>178</ele>
        <time>2022-06-17T13:21:41.000Z</time>
      </trkpt>
      <trkpt lat="49.81146" lon="4.80067">
        <ele>178</ele>
        <time>2022-06-17T13:21:42.000Z</time>
      </trkpt>
      <trkpt lat="49.81146" lon="4.80071">
        <ele>178</ele>
        <time>2022-06-17T13:21:43.000Z</time>
      </trkpt>
      <trkpt lat="49.81146" lon="4.80075">
        <ele>178</ele>
        <time>2022-06-17T13:21:44.000Z</time>
      </trkpt>
      <trkpt lat="49.81145" lon="4.8008">
        <ele>179</ele>
        <time>2022-06-17T13:21:45.000Z</time>
      </trkpt>
      <trkpt lat="49.81144" lon="4.80083">
        <ele>179</ele>
        <time>2022-06-17T13:21:46.000Z</time>
      </trkpt>
      <trkpt lat="49.81143" lon="4.80087">
        <ele>179</ele>
        <time>2022-06-17T13:21:47.000Z</time>
      </trkpt>
      <trkpt lat="49.81142" lon="4.80091">
        <ele>179</ele>
        <time>2022-06-17T13:21:48.000Z</time>
      </trkpt>
      <trkpt lat="49.81142" lon="4.80095">
        <ele>179</ele>
        <time>2022-06-17T13:21:49.000Z</time>
      </trkpt>
      <trkpt lat="49.81142" lon="4.801">
        <ele>180</ele>
        <time>2022-06-17T13:21:50.000Z</time>
      </trkpt>
      <trkpt lat="49.81142" lon="4.80104">
        <ele>180</ele>
        <time>2022-06-17T13:21:51.000Z</time>
      </trkpt>
      <trkpt lat="49.81141" lon="4.80109">
        <ele>180</ele>
        <time>2022-06-17T13:21:52.000Z</time>
      </trkpt>
      <trkpt lat="49.81141" lon="4.80114">
        <ele>180</ele>
        <time>2022-06-17T13:21:53.000Z</time>
      </trkpt>
      <trkpt lat="49.8114" lon="4.80119">
        <ele>180</ele>
        <time>2022-06-17T13:21:54.000Z</time>
      </trkpt>
      <trkpt lat="49.8114" lon="4.80124">
        <ele>181</ele>
        <time>2022-06-17T13:21:55.000Z</time>
      </trkpt>
      <trkpt lat="49.8114" lon="4.80129">
        <ele>181</ele>
        <time>2022-06-17T13:21:56.000Z</time>
      </trkpt>
      <trkpt lat="49.81139" lon="4.80134">
        <ele>181</ele>
        <time>2022-06-17T13:21:57.000Z</time>
      </trkpt>
      <trkpt lat="49.81139" lon="4.80139">
        <ele>181</ele>
        <time>2022-06-17T13:21:58.000Z</time>
      </trkpt>
      <trkpt lat="49.81139" lon="4.80144">
        <ele>182</ele>
        <time>2022-06-17T13:21:59.000Z</time>
      </trkpt>
      <trkpt lat="49.81138" lon="4.80148">
        <ele>182</ele>
        <time>2022-06-17T13:22:00.000Z</time>
      </trkpt>
      <trkpt lat="49.81139" lon="4.80152">
        <ele>182</ele>
        <time>2022-06-17T13:22:01.000Z</time>
      </trkpt>
      <trkpt lat="49.81139" lon="4.80156">
        <ele>182</ele>
        <time>2022-06-17T13:22:02.000Z</time>
      </trkpt>
      <trkpt lat="49.81139" lon="4.8016">
        <ele>182</ele>
        <time>2022-06-17T13:22:03.000Z</time>
      </trkpt>
      <trkpt lat="49.81138" lon="4.80165">
        <ele>182</ele>
        <time>2022-06-17T13:22:04.000Z</time>
      </trkpt>
      <trkpt lat="49.81138" lon="4.80169">
        <ele>182</ele>
        <time>2022-06-17T13:22:05.000Z</time>
      </trkpt>
      <trkpt lat="49.81138" lon="4.80174">
        <ele>183</ele>
        <time>2022-06-17T13:22:06.000Z</time>
      </trkpt>
      <trkpt lat="49.81138" lon="4.80178">
        <ele>183</ele>
        <time>2022-06-17T13:22:07.000Z</time>
      </trkpt>
      <trkpt lat="49.81138" lon="4.80183">
        <ele>183</ele>
        <time>2022-06-17T13:22:08.000Z</time>
      </trkpt>
      <trkpt lat="49.81138" lon="4.80187">
        <ele>183</ele>
        <time>2022-06-17T13:22:09.000Z</time>
      </trkpt>
      <trkpt lat="49.81138" lon="4.80192">
        <ele>183</ele>
        <time>2022-06-17T13:22:10.000Z</time>
      </trkpt>
      <trkpt lat="49.81138" lon="4.80196">
        <ele>183</ele>
        <time>2022-06-17T13:22:11.000Z</time>
      </trkpt>
      <trkpt lat="49.81138" lon="4.802">
        <ele>184</ele>
        <time>2022-06-17T13:22:12.000Z</time>
      </trkpt>
      <trkpt lat="49.81139" lon="4.80204">
        <ele>184</ele>
        <time>2022-06-17T13:22:13.000Z</time>
      </trkpt>
      <trkpt lat="49.81139" lon="4.80209">
        <ele>184</ele>
        <time>2022-06-17T13:22:14.000Z</time>
      </trkpt>
      <trkpt lat="49.81139" lon="4.80213">
        <ele>184</ele>
        <time>2022-06-17T13:22:15.000Z</time>
      </trkpt>
      <trkpt lat="49.81139" lon="4.80217">
        <ele>184</ele>
        <time>2022-06-17T13:22:16.000Z</time>
      </trkpt>
      <trkpt lat="49.81139" lon="4.80221">
        <ele>184</ele>
        <time>2022-06-17T13:22:17.000Z</time>
      </trkpt>
      <trkpt lat="49.81139" lon="4.80225">
        <ele>184</ele>
        <time>2022-06-17T13:22:18.000Z</time>
      </trkpt>
      <trkpt lat="49.81139" lon="4.8023">
        <ele>185</ele>
        <time>2022-06-17T13:22:19.000Z</time>
      </trkpt>
      <trkpt lat="49.81139" lon="4.80234">
        <ele>185</ele>
        <time>2022-06-17T13:22:20.000Z</time>
      </trkpt>
      <trkpt lat="49.8114" lon="4.80238">
        <ele>185</ele>
        <time>2022-06-17T13:22:21.000Z</time>
      </trkpt>
      <trkpt lat="49.8114" lon="4.80243">
        <ele>185</ele>
        <time>2022-06-17T13:22:22.000Z</time>
      </trkpt>
      <trkpt lat="49.81139" lon="4.80248">
        <ele>186</ele>
        <time>2022-06-17T13:22:23.000Z</time>
      </trkpt>
      <trkpt lat="49.81139" lon="4.80253">
        <ele>186</ele>
        <time>2022-06-17T13:22:24.000Z</time>
      </trkpt>
      <trkpt lat="49.81139" lon="4.80257">
        <ele>186</ele>
        <time>2022-06-17T13:22:25.000Z</time>
      </trkpt>
      <trkpt lat="49.8114" lon="4.80261">
        <ele>186</ele>
        <time>2022-06-17T13:22:26.000Z</time>
      </trkpt>
      <trkpt lat="49.81141" lon="4.80266">
        <ele>186</ele>
        <time>2022-06-17T13:22:27.000Z</time>
      </trkpt>
      <trkpt lat="49.81142" lon="4.80269">
        <ele>187</ele>
        <time>2022-06-17T13:22:28.000Z</time>
      </trkpt>
      <trkpt lat="49.81142" lon="4.80273">
        <ele>187</ele>
        <time>2022-06-17T13:22:29.000Z</time>
      </trkpt>
      <trkpt lat="49.81143" lon="4.80276">
        <ele>187</ele>
        <time>2022-06-17T13:22:30.000Z</time>
      </trkpt>
      <trkpt lat="49.81143" lon="4.8028">
        <ele>187</ele>
        <time>2022-06-17T13:22:31.000Z</time>
      </trkpt>
      <trkpt lat="49.81144" lon="4.80285">
        <ele>187</ele>
        <time>2022-06-17T13:22:32.000Z</time>
      </trkpt>
      <trkpt lat="49.81144" lon="4.8029">
        <ele>187</ele>
        <time>2022-06-17T13:22:33.000Z</time>
      </trkpt>
      <trkpt lat="49.81144" lon="4.80293">
        <ele>187</ele>
        <time>2022-06-17T13:22:34.000Z</time>
      </trkpt>
      <trkpt lat="49.81145" lon="4.80297">
        <ele>188</ele>
        <time>2022-06-17T13:22:35.000Z</time>
      </trkpt>
      <trkpt lat="49.81146" lon="4.80302">
        <ele>188</ele>
        <time>2022-06-17T13:22:36.000Z</time>
      </trkpt>
      <trkpt lat="49.81146" lon="4.80306">
        <ele>188</ele>
        <time>2022-06-17T13:22:37.000Z</time>
      </trkpt>
      <trkpt lat="49.81147" lon="4.80311">
        <ele>188</ele>
        <time>2022-06-17T13:22:38.000Z</time>
      </trkpt>
      <trkpt lat="49.81147" lon="4.80315">
        <ele>188</ele>
        <time>2022-06-17T13:22:39.000Z</time>
      </trkpt>
      <trkpt lat="49.81147" lon="4.80319">
        <ele>189</ele>
        <time>2022-06-17T13:22:40.000Z</time>
      </trkpt>
      <trkpt lat="49.81148" lon="4.80323">
        <ele>189</ele>
        <time>2022-06-17T13:22:41.000Z</time>
      </trkpt>
      <trkpt lat="49.81148" lon="4.80328">
        <ele>189</ele>
        <time>2022-06-17T13:22:42.000Z</time>
      </trkpt>
      <trkpt lat="49.81148" lon="4.80331">
        <ele>189</ele>
        <time>2022-06-17T13:22:43.000Z</time>
      </trkpt>
      <trkpt lat="49.81148" lon="4.80334">
        <ele>189</ele>
        <time>2022-06-17T13:22:44.000Z</time>
      </trkpt>
      <trkpt lat="49.81149" lon="4.80336">
        <ele>190</ele>
        <time>2022-06-17T13:22:45.000Z</time>
      </trkpt>
      <trkpt lat="49.8115" lon="4.80338">
        <ele>190</ele>
        <time>2022-06-17T13:22:46.000Z</time>
      </trkpt>
      <trkpt lat="49.81151" lon="4.80341">
        <ele>190</ele>
        <time>2022-06-17T13:22:47.000Z</time>
      </trkpt>
      <trkpt lat="49.81152" lon="4.80343">
        <ele>191</ele>
        <time>2022-06-17T13:22:48.000Z</time>
      </trkpt>
      <trkpt lat="49.81154" lon="4.80345">
        <ele>191</ele>
        <time>2022-06-17T13:22:49.000Z</time>
      </trkpt>
      <trkpt lat="49.81155" lon="4.80345">
        <ele>192</ele>
        <time>2022-06-17T13:22:50.000Z</time>
      </trkpt>
      <trkpt lat="49.81156" lon="4.80345">
        <ele>192</ele>
        <time>2022-06-17T13:22:51.000Z</time>
      </trkpt>
      <trkpt lat="49.81157" lon="4.80344">
        <ele>193</ele>
        <time>2022-06-17T13:22:52.000Z</time>
      </trkpt>
      <trkpt lat="49.81159" lon="4.80343">
        <ele>193</ele>
        <time>2022-06-17T13:22:53.000Z</time>
      </trkpt>
      <trkpt lat="49.81162" lon="4.80341">
        <ele>193</ele>
        <time>2022-06-17T13:22:54.000Z</time>
      </trkpt>
      <trkpt lat="49.81163" lon="4.80338">
        <ele>194</ele>
        <time>2022-06-17T13:22:55.000Z</time>
      </trkpt>
      <trkpt lat="49.81165" lon="4.80335">
        <ele>194</ele>
        <time>2022-06-17T13:22:56.000Z</time>
      </trkpt>
      <trkpt lat="49.81167" lon="4.80331">
        <ele>194</ele>
        <time>2022-06-17T13:22:57.000Z</time>
      </trkpt>
      <trkpt lat="49.81169" lon="4.80327">
        <ele>194</ele>
        <time>2022-06-17T13:22:58.000Z</time>
      </trkpt>
      <trkpt lat="49.81171" lon="4.80322">
        <ele>195</ele>
        <time>2022-06-17T13:22:59.000Z</time>
      </trkpt>
      <trkpt lat="49.81173" lon="4.80318">
        <ele>195</ele>
        <time>2022-06-17T13:23:00.000Z</time>
      </trkpt>
      <trkpt lat="49.81175" lon="4.80314">
        <ele>195</ele>
        <time>2022-06-17T13:23:01.000Z</time>
      </trkpt>
      <trkpt lat="49.81178" lon="4.80309">
        <ele>195</ele>
        <time>2022-06-17T13:23:02.000Z</time>
      </trkpt>
      <trkpt lat="49.81181" lon="4.80304">
        <ele>196</ele>
        <time>2022-06-17T13:23:03.000Z</time>
      </trkpt>
      <trkpt lat="49.81183" lon="4.80299">
        <ele>196</ele>
        <time>2022-06-17T13:23:04.000Z</time>
      </trkpt>
      <trkpt lat="49.81185" lon="4.80294">
        <ele>196</ele>
        <time>2022-06-17T13:23:05.000Z</time>
      </trkpt>
      <trkpt lat="49.81188" lon="4.80289">
        <ele>196</ele>
        <time>2022-06-17T13:23:06.000Z</time>
      </trkpt>
      <trkpt lat="49.81191" lon="4.80283">
        <ele>197</ele>
        <time>2022-06-17T13:23:07.000Z</time>
      </trkpt>
      <trkpt lat="49.81194" lon="4.80276">
        <ele>197</ele>
        <time>2022-06-17T13:23:08.000Z</time>
      </trkpt>
      <trkpt lat="49.81196" lon="4.8027">
        <ele>197</ele>
        <time>2022-06-17T13:23:09.000Z</time>
      </trkpt>
      <trkpt lat="49.81199" lon="4.80265">
        <ele>197</ele>
        <time>2022-06-17T13:23:10.000Z</time>
      </trkpt>
      <trkpt lat="49.81202" lon="4.8026">
        <ele>198</ele>
        <time>2022-06-17T13:23:11.000Z</time>
      </trkpt>
      <trkpt lat="49.81205" lon="4.80255">
        <ele>198</ele>
        <time>2022-06-17T13:23:12.000Z</time>
      </trkpt>
      <trkpt lat="49.81207" lon="4.80248">
        <ele>198</ele>
        <time>2022-06-17T13:23:13.000Z</time>
      </trkpt>
      <trkpt lat="49.81209" lon="4.80242">
        <ele>198</ele>
        <time>2022-06-17T13:23:14.000Z</time>
      </trkpt>
      <trkpt lat="49.8121" lon="4.80235">
        <ele>198</ele>
        <time>2022-06-17T13:23:15.000Z</time>
      </trkpt>
      <trkpt lat="49.81212" lon="4.80228">
        <ele>198</ele>
        <time>2022-06-17T13:23:16.000Z</time>
      </trkpt>
      <trkpt lat="49.81215" lon="4.80222">
        <ele>198</ele>
        <time>2022-06-17T13:23:17.000Z</time>
      </trkpt>
      <trkpt lat="49.81217" lon="4.80215">
        <ele>198</ele>
        <time>2022-06-17T13:23:18.000Z</time>
      </trkpt>
      <trkpt lat="49.8122" lon="4.80209">
        <ele>198</ele>
        <time>2022-06-17T13:23:19.000Z</time>
      </trkpt>
      <trkpt lat="49.81223" lon="4.80202">
        <ele>199</ele>
        <time>2022-06-17T13:23:20.000Z</time>
      </trkpt>
      <trkpt lat="49.81226" lon="4.80195">
        <ele>199</ele>
        <time>2022-06-17T13:23:21.000Z</time>
      </trkpt>
      <trkpt lat="49.81228" lon="4.80188">
        <ele>199</ele>
        <time>2022-06-17T13:23:22.000Z</time>
      </trkpt>
      <trkpt lat="49.8123" lon="4.80181">
        <ele>199</ele>
        <time>2022-06-17T13:23:23.000Z</time>
      </trkpt>
      <trkpt lat="49.81232" lon="4.80173">
        <ele>199</ele>
        <time>2022-06-17T13:23:24.000Z</time>
      </trkpt>
      <trkpt lat="49.81235" lon="4.80167">
        <ele>199</ele>
        <time>2022-06-17T13:23:25.000Z</time>
      </trkpt>
      <trkpt lat="49.81237" lon="4.8016">
        <ele>199</ele>
        <time>2022-06-17T13:23:26.000Z</time>
      </trkpt>
      <trkpt lat="49.8124" lon="4.80154">
        <ele>200</ele>
        <time>2022-06-17T13:23:27.000Z</time>
      </trkpt>
      <trkpt lat="49.81243" lon="4.80147">
        <ele>200</ele>
        <time>2022-06-17T13:23:28.000Z</time>
      </trkpt>
      <trkpt lat="49.81246" lon="4.8014">
        <ele>200</ele>
        <time>2022-06-17T13:23:29.000Z</time>
      </trkpt>
      <trkpt lat="49.81249" lon="4.80134">
        <ele>200</ele>
        <time>2022-06-17T13:23:30.000Z</time>
      </trkpt>
      <trkpt lat="49.81252" lon="4.80128">
        <ele>200</ele>
        <time>2022-06-17T13:23:31.000Z</time>
      </trkpt>
      <trkpt lat="49.81254" lon="4.80122">
        <ele>200</ele>
        <time>2022-06-17T13:23:32.000Z</time>
      </trkpt>
      <trkpt lat="49.81257" lon="4.80116">
        <ele>201</ele>
        <time>2022-06-17T13:23:33.000Z</time>
      </trkpt>
      <trkpt lat="49.8126" lon="4.80109">
        <ele>201</ele>
        <time>2022-06-17T13:23:34.000Z</time>
      </trkpt>
      <trkpt lat="49.81263" lon="4.80102">
        <ele>201</ele>
        <time>2022-06-17T13:23:35.000Z</time>
      </trkpt>
      <trkpt lat="49.81266" lon="4.80096">
        <ele>201</ele>
        <time>2022-06-17T13:23:36.000Z</time>
      </trkpt>
      <trkpt lat="49.81269" lon="4.80089">
        <ele>201</ele>
        <time>2022-06-17T13:23:37.000Z</time>
      </trkpt>
      <trkpt lat="49.81272" lon="4.80083">
        <ele>201</ele>
        <time>2022-06-17T13:23:38.000Z</time>
      </trkpt>
      <trkpt lat="49.81275" lon="4.80076">
        <ele>201</ele>
        <time>2022-06-17T13:23:39.000Z</time>
      </trkpt>
      <trkpt lat="49.81278" lon="4.80069">
        <ele>202</ele>
        <time>2022-06-17T13:23:40.000Z</time>
      </trkpt>
      <trkpt lat="49.81281" lon="4.80062">
        <ele>202</ele>
        <time>2022-06-17T13:23:41.000Z</time>
      </trkpt>
      <trkpt lat="49.81284" lon="4.80054">
        <ele>202</ele>
        <time>2022-06-17T13:23:42.000Z</time>
      </trkpt>
      <trkpt lat="49.81287" lon="4.80047">
        <ele>202</ele>
        <time>2022-06-17T13:23:43.000Z</time>
      </trkpt>
      <trkpt lat="49.8129" lon="4.80039">
        <ele>203</ele>
        <time>2022-06-17T13:23:44.000Z</time>
      </trkpt>
      <trkpt lat="49.81293" lon="4.80031">
        <ele>203</ele>
        <time>2022-06-17T13:23:45.000Z</time>
      </trkpt>
      <trkpt lat="49.81295" lon="4.80023">
        <ele>203</ele>
        <time>2022-06-17T13:23:46.000Z</time>
      </trkpt>
      <trkpt lat="49.81297" lon="4.80015">
        <ele>203</ele>
        <time>2022-06-17T13:23:47.000Z</time>
      </trkpt>
      <trkpt lat="49.813" lon="4.80008">
        <ele>203</ele>
        <time>2022-06-17T13:23:48.000Z</time>
      </trkpt>
      <trkpt lat="49.81301" lon="4.80001">
        <ele>204</ele>
        <time>2022-06-17T13:23:49.000Z</time>
      </trkpt>
      <trkpt lat="49.81303" lon="4.79996">
        <ele>204</ele>
        <time>2022-06-17T13:23:50.000Z</time>
      </trkpt>
      <trkpt lat="49.81306" lon="4.7999">
        <ele>204</ele>
        <time>2022-06-17T13:23:51.000Z</time>
      </trkpt>
      <trkpt lat="49.81307" lon="4.79984">
        <ele>204</ele>
        <time>2022-06-17T13:23:52.000Z</time>
      </trkpt>
      <trkpt lat="49.8131" lon="4.79978">
        <ele>205</ele>
        <time>2022-06-17T13:23:53.000Z</time>
      </trkpt>
      <trkpt lat="49.81313" lon="4.79972">
        <ele>205</ele>
        <time>2022-06-17T13:23:54.000Z</time>
      </trkpt>
      <trkpt lat="49.81316" lon="4.79966">
        <ele>205</ele>
        <time>2022-06-17T13:23:55.000Z</time>
      </trkpt>
      <trkpt lat="49.8132" lon="4.7996">
        <ele>205</ele>
        <time>2022-06-17T13:23:56.000Z</time>
      </trkpt>
      <trkpt lat="49.81324" lon="4.79954">
        <ele>205</ele>
        <time>2022-06-17T13:23:57.000Z</time>
      </trkpt>
      <trkpt lat="49.81328" lon="4.79949">
        <ele>205</ele>
        <time>2022-06-17T13:23:58.000Z</time>
      </trkpt>
      <trkpt lat="49.81332" lon="4.79943">
        <ele>205</ele>
        <time>2022-06-17T13:23:59.000Z</time>
      </trkpt>
      <trkpt lat="49.81336" lon="4.79938">
        <ele>205</ele>
        <time>2022-06-17T13:24:00.000Z</time>
      </trkpt>
      <trkpt lat="49.8134" lon="4.79931">
        <ele>205</ele>
        <time>2022-06-17T13:24:01.000Z</time>
      </trkpt>
      <trkpt lat="49.81342" lon="4.79923">
        <ele>205</ele>
        <time>2022-06-17T13:24:02.000Z</time>
      </trkpt>
      <trkpt lat="49.81344" lon="4.79916">
        <ele>205</ele>
        <time>2022-06-17T13:24:03.000Z</time>
      </trkpt>
      <trkpt lat="49.81346" lon="4.79909">
        <ele>205</ele>
        <time>2022-06-17T13:24:04.000Z</time>
      </trkpt>
      <trkpt lat="49.81347" lon="4.79902">
        <ele>205</ele>
        <time>2022-06-17T13:24:05.000Z</time>
      </trkpt>
      <trkpt lat="49.81349" lon="4.79896">
        <ele>205</ele>
        <time>2022-06-17T13:24:06.000Z</time>
      </trkpt>
      <trkpt lat="49.81351" lon="4.79889">
        <ele>205</ele>
        <time>2022-06-17T13:24:07.000Z</time>
      </trkpt>
      <trkpt lat="49.81353" lon="4.79882">
        <ele>205</ele>
        <time>2022-06-17T13:24:08.000Z</time>
      </trkpt>
      <trkpt lat="49.81354" lon="4.79875">
        <ele>205</ele>
        <time>2022-06-17T13:24:09.000Z</time>
      </trkpt>
      <trkpt lat="49.81356" lon="4.79869">
        <ele>205</ele>
        <time>2022-06-17T13:24:10.000Z</time>
      </trkpt>
      <trkpt lat="49.81358" lon="4.79863">
        <ele>205</ele>
        <time>2022-06-17T13:24:11.000Z</time>
      </trkpt>
      <trkpt lat="49.8136" lon="4.79856">
        <ele>205</ele>
        <time>2022-06-17T13:24:12.000Z</time>
      </trkpt>
      <trkpt lat="49.81362" lon="4.79848">
        <ele>205</ele>
        <time>2022-06-17T13:24:13.000Z</time>
      </trkpt>
      <trkpt lat="49.81364" lon="4.79839">
        <ele>205</ele>
        <time>2022-06-17T13:24:14.000Z</time>
      </trkpt>
      <trkpt lat="49.81367" lon="4.79829">
        <ele>204</ele>
        <time>2022-06-17T13:24:15.000Z</time>
      </trkpt>
      <trkpt lat="49.81369" lon="4.7982">
        <ele>204</ele>
        <time>2022-06-17T13:24:16.000Z</time>
      </trkpt>
      <trkpt lat="49.81372" lon="4.79812">
        <ele>204</ele>
        <time>2022-06-17T13:24:17.000Z</time>
      </trkpt>
      <trkpt lat="49.81375" lon="4.79804">
        <ele>204</ele>
        <time>2022-06-17T13:24:18.000Z</time>
      </trkpt>
      <trkpt lat="49.81378" lon="4.79797">
        <ele>204</ele>
        <time>2022-06-17T13:24:19.000Z</time>
      </trkpt>
      <trkpt lat="49.81381" lon="4.79789">
        <ele>204</ele>
        <time>2022-06-17T13:24:20.000Z</time>
      </trkpt>
      <trkpt lat="49.81384" lon="4.79781">
        <ele>204</ele>
        <time>2022-06-17T13:24:21.000Z</time>
      </trkpt>
      <trkpt lat="49.81387" lon="4.79773">
        <ele>203</ele>
        <time>2022-06-17T13:24:22.000Z</time>
      </trkpt>
      <trkpt lat="49.81389" lon="4.79763">
        <ele>203</ele>
        <time>2022-06-17T13:24:23.000Z</time>
      </trkpt>
      <trkpt lat="49.81391" lon="4.79754">
        <ele>203</ele>
        <time>2022-06-17T13:24:24.000Z</time>
      </trkpt>
      <trkpt lat="49.81394" lon="4.79745">
        <ele>203</ele>
        <time>2022-06-17T13:24:25.000Z</time>
      </trkpt>
      <trkpt lat="49.81396" lon="4.79736">
        <ele>203</ele>
        <time>2022-06-17T13:24:26.000Z</time>
      </trkpt>
      <trkpt lat="49.81398" lon="4.79728">
        <ele>203</ele>
        <time>2022-06-17T13:24:27.000Z</time>
      </trkpt>
      <trkpt lat="49.81401" lon="4.79721">
        <ele>203</ele>
        <time>2022-06-17T13:24:28.000Z</time>
      </trkpt>
      <trkpt lat="49.81404" lon="4.79714">
        <ele>203</ele>
        <time>2022-06-17T13:24:29.000Z</time>
      </trkpt>
      <trkpt lat="49.81407" lon="4.79707">
        <ele>203</ele>
        <time>2022-06-17T13:24:30.000Z</time>
      </trkpt>
      <trkpt lat="49.8141" lon="4.797">
        <ele>203</ele>
        <time>2022-06-17T13:24:31.000Z</time>
      </trkpt>
      <trkpt lat="49.81413" lon="4.79693">
        <ele>203</ele>
        <time>2022-06-17T13:24:32.000Z</time>
      </trkpt>
      <trkpt lat="49.81416" lon="4.79686">
        <ele>203</ele>
        <time>2022-06-17T13:24:33.000Z</time>
      </trkpt>
      <trkpt lat="49.81419" lon="4.7968">
        <ele>203</ele>
        <time>2022-06-17T13:24:34.000Z</time>
      </trkpt>
      <trkpt lat="49.8142" lon="4.79672">
        <ele>203</ele>
        <time>2022-06-17T13:24:35.000Z</time>
      </trkpt>
      <trkpt lat="49.81422" lon="4.79664">
        <ele>203</ele>
        <time>2022-06-17T13:24:36.000Z</time>
      </trkpt>
      <trkpt lat="49.81424" lon="4.79656">
        <ele>203</ele>
        <time>2022-06-17T13:24:37.000Z</time>
      </trkpt>
      <trkpt lat="49.81426" lon="4.79647">
        <ele>203</ele>
        <time>2022-06-17T13:24:38.000Z</time>
      </trkpt>
      <trkpt lat="49.81428" lon="4.79638">
        <ele>203</ele>
        <time>2022-06-17T13:24:39.000Z</time>
      </trkpt>
      <trkpt lat="49.81429" lon="4.79629">
        <ele>203</ele>
        <time>2022-06-17T13:24:40.000Z</time>
      </trkpt>
      <trkpt lat="49.8143" lon="4.7962">
        <ele>202</ele>
        <time>2022-06-17T13:24:41.000Z</time>
      </trkpt>
      <trkpt lat="49.81431" lon="4.79612">
        <ele>202</ele>
        <time>2022-06-17T13:24:42.000Z</time>
      </trkpt>
      <trkpt lat="49.81432" lon="4.79604">
        <ele>202</ele>
        <time>2022-06-17T13:24:43.000Z</time>
      </trkpt>
      <trkpt lat="49.81433" lon="4.79596">
        <ele>202</ele>
        <time>2022-06-17T13:24:44.000Z</time>
      </trkpt>
      <trkpt lat="49.81434" lon="4.79586">
        <ele>202</ele>
        <time>2022-06-17T13:24:45.000Z</time>
      </trkpt>
      <trkpt lat="49.81435" lon="4.79576">
        <ele>202</ele>
        <time>2022-06-17T13:24:46.000Z</time>
      </trkpt>
      <trkpt lat="49.81436" lon="4.79566">
        <ele>202</ele>
        <time>2022-06-17T13:24:47.000Z</time>
      </trkpt>
      <trkpt lat="49.81437" lon="4.79557">
        <ele>202</ele>
        <time>2022-06-17T13:24:48.000Z</time>
      </trkpt>
      <trkpt lat="49.81437" lon="4.79547">
        <ele>201</ele>
        <time>2022-06-17T13:24:49.000Z</time>
      </trkpt>
      <trkpt lat="49.81437" lon="4.79538">
        <ele>201</ele>
        <time>2022-06-17T13:24:50.000Z</time>
      </trkpt>
      <trkpt lat="49.81438" lon="4.79529">
        <ele>201</ele>
        <time>2022-06-17T13:24:51.000Z</time>
      </trkpt>
      <trkpt lat="49.81439" lon="4.7952">
        <ele>201</ele>
        <time>2022-06-17T13:24:52.000Z</time>
      </trkpt>
      <trkpt lat="49.81439" lon="4.7951">
        <ele>201</ele>
        <time>2022-06-17T13:24:53.000Z</time>
      </trkpt>
      <trkpt lat="49.81439" lon="4.79502">
        <ele>200</ele>
        <time>2022-06-17T13:24:54.000Z</time>
      </trkpt>
      <trkpt lat="49.8144" lon="4.79495">
        <ele>200</ele>
        <time>2022-06-17T13:24:55.000Z</time>
      </trkpt>
      <trkpt lat="49.8144" lon="4.79487">
        <ele>200</ele>
        <time>2022-06-17T13:24:56.000Z</time>
      </trkpt>
      <trkpt lat="49.81441" lon="4.79481">
        <ele>200</ele>
        <time>2022-06-17T13:24:57.000Z</time>
      </trkpt>
      <trkpt lat="49.81441" lon="4.79474">
        <ele>200</ele>
        <time>2022-06-17T13:24:58.000Z</time>
      </trkpt>
      <trkpt lat="49.81442" lon="4.79467">
        <ele>200</ele>
        <time>2022-06-17T13:24:59.000Z</time>
      </trkpt>
      <trkpt lat="49.81442" lon="4.79459">
        <ele>200</ele>
        <time>2022-06-17T13:25:00.000Z</time>
      </trkpt>
      <trkpt lat="49.81443" lon="4.79452">
        <ele>200</ele>
        <time>2022-06-17T13:25:01.000Z</time>
      </trkpt>
      <trkpt lat="49.81442" lon="4.79444">
        <ele>200</ele>
        <time>2022-06-17T13:25:02.000Z</time>
      </trkpt>
      <trkpt lat="49.81442" lon="4.79436">
        <ele>199</ele>
        <time>2022-06-17T13:25:03.000Z</time>
      </trkpt>
      <trkpt lat="49.81442" lon="4.79428">
        <ele>199</ele>
        <time>2022-06-17T13:25:04.000Z</time>
      </trkpt>
      <trkpt lat="49.81443" lon="4.7942">
        <ele>199</ele>
        <time>2022-06-17T13:25:05.000Z</time>
      </trkpt>
      <trkpt lat="49.81444" lon="4.79413">
        <ele>199</ele>
        <time>2022-06-17T13:25:06.000Z</time>
      </trkpt>
      <trkpt lat="49.81446" lon="4.79406">
        <ele>199</ele>
        <time>2022-06-17T13:25:07.000Z</time>
      </trkpt>
      <trkpt lat="49.81448" lon="4.79401">
        <ele>199</ele>
        <time>2022-06-17T13:25:08.000Z</time>
      </trkpt>
      <trkpt lat="49.8145" lon="4.79395">
        <ele>199</ele>
        <time>2022-06-17T13:25:09.000Z</time>
      </trkpt>
      <trkpt lat="49.81451" lon="4.79389">
        <ele>199</ele>
        <time>2022-06-17T13:25:10.000Z</time>
      </trkpt>
      <trkpt lat="49.81453" lon="4.79384">
        <ele>199</ele>
        <time>2022-06-17T13:25:11.000Z</time>
      </trkpt>
      <trkpt lat="49.81453" lon="4.79379">
        <ele>199</ele>
        <time>2022-06-17T13:25:12.000Z</time>
      </trkpt>
      <trkpt lat="49.81452" lon="4.79373">
        <ele>199</ele>
        <time>2022-06-17T13:25:13.000Z</time>
      </trkpt>
      <trkpt lat="49.81453" lon="4.79365">
        <ele>199</ele>
        <time>2022-06-17T13:25:14.000Z</time>
      </trkpt>
      <trkpt lat="49.81453" lon="4.79357">
        <ele>199</ele>
        <time>2022-06-17T13:25:15.000Z</time>
      </trkpt>
      <trkpt lat="49.81453" lon="4.79348">
        <ele>199</ele>
        <time>2022-06-17T13:25:16.000Z</time>
      </trkpt>
      <trkpt lat="49.81453" lon="4.7934">
        <ele>199</ele>
        <time>2022-06-17T13:25:17.000Z</time>
      </trkpt>
      <trkpt lat="49.81453" lon="4.79332">
        <ele>199</ele>
        <time>2022-06-17T13:25:18.000Z</time>
      </trkpt>
      <trkpt lat="49.81453" lon="4.79325">
        <ele>199</ele>
        <time>2022-06-17T13:25:19.000Z</time>
      </trkpt>
      <trkpt lat="49.81453" lon="4.79318">
        <ele>199</ele>
        <time>2022-06-17T13:25:20.000Z</time>
      </trkpt>
      <trkpt lat="49.81454" lon="4.7931">
        <ele>198</ele>
        <time>2022-06-17T13:25:21.000Z</time>
      </trkpt>
      <trkpt lat="49.81455" lon="4.79302">
        <ele>198</ele>
        <time>2022-06-17T13:25:22.000Z</time>
      </trkpt>
      <trkpt lat="49.81456" lon="4.79295">
        <ele>198</ele>
        <time>2022-06-17T13:25:23.000Z</time>
      </trkpt>
      <trkpt lat="49.81458" lon="4.79287">
        <ele>198</ele>
        <time>2022-06-17T13:25:24.000Z</time>
      </trkpt>
      <trkpt lat="49.81458" lon="4.79279">
        <ele>198</ele>
        <time>2022-06-17T13:25:25.000Z</time>
      </trkpt>
      <trkpt lat="49.8146" lon="4.79273">
        <ele>197</ele>
        <time>2022-06-17T13:25:26.000Z</time>
      </trkpt>
      <trkpt lat="49.8146" lon="4.79265">
        <ele>197</ele>
        <time>2022-06-17T13:25:27.000Z</time>
      </trkpt>
      <trkpt lat="49.81462" lon="4.79258">
        <ele>197</ele>
        <time>2022-06-17T13:25:28.000Z</time>
      </trkpt>
      <trkpt lat="49.81464" lon="4.79251">
        <ele>197</ele>
        <time>2022-06-17T13:25:29.000Z</time>
      </trkpt>
      <trkpt lat="49.81465" lon="4.79243">
        <ele>197</ele>
        <time>2022-06-17T13:25:30.000Z</time>
      </trkpt>
      <trkpt lat="49.81467" lon="4.79235">
        <ele>197</ele>
        <time>2022-06-17T13:25:31.000Z</time>
      </trkpt>
      <trkpt lat="49.81469" lon="4.79227">
        <ele>197</ele>
        <time>2022-06-17T13:25:32.000Z</time>
      </trkpt>
      <trkpt lat="49.8147" lon="4.7922">
        <ele>197</ele>
        <time>2022-06-17T13:25:33.000Z</time>
      </trkpt>
      <trkpt lat="49.81471" lon="4.79212">
        <ele>197</ele>
        <time>2022-06-17T13:25:34.000Z</time>
      </trkpt>
      <trkpt lat="49.81472" lon="4.79204">
        <ele>197</ele>
        <time>2022-06-17T13:25:35.000Z</time>
      </trkpt>
      <trkpt lat="49.81472" lon="4.79195">
        <ele>197</ele>
        <time>2022-06-17T13:25:36.000Z</time>
      </trkpt>
      <trkpt lat="49.81472" lon="4.79187">
        <ele>197</ele>
        <time>2022-06-17T13:25:37.000Z</time>
      </trkpt>
      <trkpt lat="49.81472" lon="4.79177">
        <ele>196</ele>
        <time>2022-06-17T13:25:38.000Z</time>
      </trkpt>
      <trkpt lat="49.81473" lon="4.79166">
        <ele>196</ele>
        <time>2022-06-17T13:25:39.000Z</time>
      </trkpt>
      <trkpt lat="49.81473" lon="4.79156">
        <ele>196</ele>
        <time>2022-06-17T13:25:40.000Z</time>
      </trkpt>
      <trkpt lat="49.81473" lon="4.79145">
        <ele>196</ele>
        <time>2022-06-17T13:25:41.000Z</time>
      </trkpt>
      <trkpt lat="49.81474" lon="4.79133">
        <ele>196</ele>
        <time>2022-06-17T13:25:42.000Z</time>
      </trkpt>
      <trkpt lat="49.81474" lon="4.79122">
        <ele>196</ele>
        <time>2022-06-17T13:25:43.000Z</time>
      </trkpt>
      <trkpt lat="49.81475" lon="4.79111">
        <ele>195</ele>
        <time>2022-06-17T13:25:44.000Z</time>
      </trkpt>
      <trkpt lat="49.81476" lon="4.79103">
        <ele>195</ele>
        <time>2022-06-17T13:25:45.000Z</time>
      </trkpt>
      <trkpt lat="49.81477" lon="4.79095">
        <ele>195</ele>
        <time>2022-06-17T13:25:46.000Z</time>
      </trkpt>
      <trkpt lat="49.81479" lon="4.79087">
        <ele>195</ele>
        <time>2022-06-17T13:25:47.000Z</time>
      </trkpt>
      <trkpt lat="49.8148" lon="4.79079">
        <ele>195</ele>
        <time>2022-06-17T13:25:48.000Z</time>
      </trkpt>
      <trkpt lat="49.8148" lon="4.79071">
        <ele>195</ele>
        <time>2022-06-17T13:25:49.000Z</time>
      </trkpt>
      <trkpt lat="49.8148" lon="4.79062">
        <ele>195</ele>
        <time>2022-06-17T13:25:50.000Z</time>
      </trkpt>
      <trkpt lat="49.81481" lon="4.79055">
        <ele>195</ele>
        <time>2022-06-17T13:25:51.000Z</time>
      </trkpt>
      <trkpt lat="49.81481" lon="4.79046">
        <ele>194</ele>
        <time>2022-06-17T13:25:52.000Z</time>
      </trkpt>
      <trkpt lat="49.81482" lon="4.79038">
        <ele>194</ele>
        <time>2022-06-17T13:25:53.000Z</time>
      </trkpt>
      <trkpt lat="49.81483" lon="4.7903">
        <ele>194</ele>
        <time>2022-06-17T13:25:54.000Z</time>
      </trkpt>
      <trkpt lat="49.81484" lon="4.79022">
        <ele>194</ele>
        <time>2022-06-17T13:25:55.000Z</time>
      </trkpt>
      <trkpt lat="49.81485" lon="4.79015">
        <ele>194</ele>
        <time>2022-06-17T13:25:56.000Z</time>
      </trkpt>
      <trkpt lat="49.81486" lon="4.79008">
        <ele>194</ele>
        <time>2022-06-17T13:25:57.000Z</time>
      </trkpt>
      <trkpt lat="49.81487" lon="4.79001">
        <ele>194</ele>
        <time>2022-06-17T13:25:58.000Z</time>
      </trkpt>
      <trkpt lat="49.81488" lon="4.78994">
        <ele>194</ele>
        <time>2022-06-17T13:25:59.000Z</time>
      </trkpt>
      <trkpt lat="49.8149" lon="4.78986">
        <ele>194</ele>
        <time>2022-06-17T13:26:00.000Z</time>
      </trkpt>
      <trkpt lat="49.81491" lon="4.78978">
        <ele>194</ele>
        <time>2022-06-17T13:26:01.000Z</time>
      </trkpt>
      <trkpt lat="49.81492" lon="4.7897">
        <ele>194</ele>
        <time>2022-06-17T13:26:02.000Z</time>
      </trkpt>
      <trkpt lat="49.81493" lon="4.78963">
        <ele>194</ele>
        <time>2022-06-17T13:26:03.000Z</time>
      </trkpt>
      <trkpt lat="49.81496" lon="4.78956">
        <ele>193</ele>
        <time>2022-06-17T13:26:04.000Z</time>
      </trkpt>
      <trkpt lat="49.81498" lon="4.78948">
        <ele>193</ele>
        <time>2022-06-17T13:26:05.000Z</time>
      </trkpt>
      <trkpt lat="49.815" lon="4.7894">
        <ele>193</ele>
        <time>2022-06-17T13:26:06.000Z</time>
      </trkpt>
      <trkpt lat="49.81501" lon="4.78932">
        <ele>193</ele>
        <time>2022-06-17T13:26:07.000Z</time>
      </trkpt>
      <trkpt lat="49.81504" lon="4.78923">
        <ele>193</ele>
        <time>2022-06-17T13:26:08.000Z</time>
      </trkpt>
      <trkpt lat="49.81506" lon="4.78916">
        <ele>193</ele>
        <time>2022-06-17T13:26:09.000Z</time>
      </trkpt>
      <trkpt lat="49.81508" lon="4.78908">
        <ele>193</ele>
        <time>2022-06-17T13:26:10.000Z</time>
      </trkpt>
      <trkpt lat="49.8151" lon="4.789">
        <ele>193</ele>
        <time>2022-06-17T13:26:11.000Z</time>
      </trkpt>
      <trkpt lat="49.81511" lon="4.78893">
        <ele>193</ele>
        <time>2022-06-17T13:26:12.000Z</time>
      </trkpt>
      <trkpt lat="49.81512" lon="4.78886">
        <ele>193</ele>
        <time>2022-06-17T13:26:13.000Z</time>
      </trkpt>
      <trkpt lat="49.81514" lon="4.78878">
        <ele>193</ele>
        <time>2022-06-17T13:26:14.000Z</time>
      </trkpt>
      <trkpt lat="49.81514" lon="4.7887">
        <ele>193</ele>
        <time>2022-06-17T13:26:15.000Z</time>
      </trkpt>
      <trkpt lat="49.81515" lon="4.78862">
        <ele>193</ele>
        <time>2022-06-17T13:26:16.000Z</time>
      </trkpt>
      <trkpt lat="49.81516" lon="4.78854">
        <ele>193</ele>
        <time>2022-06-17T13:26:17.000Z</time>
      </trkpt>
      <trkpt lat="49.81517" lon="4.78846">
        <ele>193</ele>
        <time>2022-06-17T13:26:18.000Z</time>
      </trkpt>
      <trkpt lat="49.81518" lon="4.78838">
        <ele>193</ele>
        <time>2022-06-17T13:26:19.000Z</time>
      </trkpt>
      <trkpt lat="49.81519" lon="4.7883">
        <ele>193</ele>
        <time>2022-06-17T13:26:20.000Z</time>
      </trkpt>
      <trkpt lat="49.8152" lon="4.78823">
        <ele>193</ele>
        <time>2022-06-17T13:26:21.000Z</time>
      </trkpt>
      <trkpt lat="49.81523" lon="4.78816">
        <ele>193</ele>
        <time>2022-06-17T13:26:22.000Z</time>
      </trkpt>
      <trkpt lat="49.81527" lon="4.78809">
        <ele>193</ele>
        <time>2022-06-17T13:26:23.000Z</time>
      </trkpt>
      <trkpt lat="49.8153" lon="4.78803">
        <ele>193</ele>
        <time>2022-06-17T13:26:24.000Z</time>
      </trkpt>
      <trkpt lat="49.81533" lon="4.78796">
        <ele>193</ele>
        <time>2022-06-17T13:26:25.000Z</time>
      </trkpt>
      <trkpt lat="49.81537" lon="4.78789">
        <ele>193</ele>
        <time>2022-06-17T13:26:26.000Z</time>
      </trkpt>
      <trkpt lat="49.81541" lon="4.78782">
        <ele>193</ele>
        <time>2022-06-17T13:26:27.000Z</time>
      </trkpt>
      <trkpt lat="49.81544" lon="4.78775">
        <ele>193</ele>
        <time>2022-06-17T13:26:28.000Z</time>
      </trkpt>
      <trkpt lat="49.81548" lon="4.78768">
        <ele>193</ele>
        <time>2022-06-17T13:26:29.000Z</time>
      </trkpt>
      <trkpt lat="49.8155" lon="4.78761">
        <ele>193</ele>
        <time>2022-06-17T13:26:30.000Z</time>
      </trkpt>
      <trkpt lat="49.81553" lon="4.78754">
        <ele>192</ele>
        <time>2022-06-17T13:26:31.000Z</time>
      </trkpt>
      <trkpt lat="49.81555" lon="4.78748">
        <ele>192</ele>
        <time>2022-06-17T13:26:32.000Z</time>
      </trkpt>
      <trkpt lat="49.81557" lon="4.78743">
        <ele>192</ele>
        <time>2022-06-17T13:26:33.000Z</time>
      </trkpt>
      <trkpt lat="49.81559" lon="4.78738">
        <ele>193</ele>
        <time>2022-06-17T13:26:34.000Z</time>
      </trkpt>
      <trkpt lat="49.81561" lon="4.78734">
        <ele>193</ele>
        <time>2022-06-17T13:26:35.000Z</time>
      </trkpt>
      <trkpt lat="49.81562" lon="4.78731">
        <ele>193</ele>
        <time>2022-06-17T13:26:36.000Z</time>
      </trkpt>
      <trkpt lat="49.81564" lon="4.78728">
        <ele>193</ele>
        <time>2022-06-17T13:26:37.000Z</time>
      </trkpt>
      <trkpt lat="49.81566" lon="4.78725">
        <ele>193</ele>
        <time>2022-06-17T13:26:38.000Z</time>
      </trkpt>
      <trkpt lat="49.81568" lon="4.78721">
        <ele>193</ele>
        <time>2022-06-17T13:26:39.000Z</time>
      </trkpt>
      <trkpt lat="49.8157" lon="4.78718">
        <ele>193</ele>
        <time>2022-06-17T13:26:40.000Z</time>
      </trkpt>
      <trkpt lat="49.81572" lon="4.78714">
        <ele>193</ele>
        <time>2022-06-17T13:26:41.000Z</time>
      </trkpt>
      <trkpt lat="49.81573" lon="4.78711">
        <ele>193</ele>
        <time>2022-06-17T13:26:42.000Z</time>
      </trkpt>
      <trkpt lat="49.81574" lon="4.78707">
        <ele>193</ele>
        <time>2022-06-17T13:26:43.000Z</time>
      </trkpt>
      <trkpt lat="49.81576" lon="4.78702">
        <ele>193</ele>
        <time>2022-06-17T13:26:44.000Z</time>
      </trkpt>
      <trkpt lat="49.81577" lon="4.78698">
        <ele>193</ele>
        <time>2022-06-17T13:26:45.000Z</time>
      </trkpt>
      <trkpt lat="49.81579" lon="4.78695">
        <ele>193</ele>
        <time>2022-06-17T13:26:46.000Z</time>
      </trkpt>
      <trkpt lat="49.81581" lon="4.7869">
        <ele>193</ele>
        <time>2022-06-17T13:26:47.000Z</time>
      </trkpt>
      <trkpt lat="49.81583" lon="4.78686">
        <ele>193</ele>
        <time>2022-06-17T13:26:48.000Z</time>
      </trkpt>
      <trkpt lat="49.81585" lon="4.78681">
        <ele>193</ele>
        <time>2022-06-17T13:26:49.000Z</time>
      </trkpt>
      <trkpt lat="49.81587" lon="4.78678">
        <ele>193</ele>
        <time>2022-06-17T13:26:50.000Z</time>
      </trkpt>
      <trkpt lat="49.81589" lon="4.78676">
        <ele>193</ele>
        <time>2022-06-17T13:26:51.000Z</time>
      </trkpt>
      <trkpt lat="49.81591" lon="4.78675">
        <ele>193</ele>
        <time>2022-06-17T13:26:52.000Z</time>
      </trkpt>
      <trkpt lat="49.81592" lon="4.78674">
        <ele>193</ele>
        <time>2022-06-17T13:26:53.000Z</time>
      </trkpt>
      <trkpt lat="49.81595" lon="4.78674">
        <ele>193</ele>
        <time>2022-06-17T13:26:54.000Z</time>
      </trkpt>
      <trkpt lat="49.81598" lon="4.78673">
        <ele>193</ele>
        <time>2022-06-17T13:26:55.000Z</time>
      </trkpt>
      <trkpt lat="49.81602" lon="4.78673">
        <ele>193</ele>
        <time>2022-06-17T13:26:56.000Z</time>
      </trkpt>
      <trkpt lat="49.81606" lon="4.78673">
        <ele>193</ele>
        <time>2022-06-17T13:26:57.000Z</time>
      </trkpt>
      <trkpt lat="49.81609" lon="4.78674">
        <ele>193</ele>
        <time>2022-06-17T13:26:58.000Z</time>
      </trkpt>
      <trkpt lat="49.81612" lon="4.78675">
        <ele>193</ele>
        <time>2022-06-17T13:26:59.000Z</time>
      </trkpt>
      <trkpt lat="49.81615" lon="4.78677">
        <ele>193</ele>
        <time>2022-06-17T13:27:00.000Z</time>
      </trkpt>
      <trkpt lat="49.81618" lon="4.78679">
        <ele>194</ele>
        <time>2022-06-17T13:27:01.000Z</time>
      </trkpt>
      <trkpt lat="49.81621" lon="4.78681">
        <ele>194</ele>
        <time>2022-06-17T13:27:02.000Z</time>
      </trkpt>
      <trkpt lat="49.81624" lon="4.78682">
        <ele>194</ele>
        <time>2022-06-17T13:27:03.000Z</time>
      </trkpt>
      <trkpt lat="49.81627" lon="4.78683">
        <ele>194</ele>
        <time>2022-06-17T13:27:04.000Z</time>
      </trkpt>
      <trkpt lat="49.81631" lon="4.78683">
        <ele>194</ele>
        <time>2022-06-17T13:27:05.000Z</time>
      </trkpt>
      <trkpt lat="49.81634" lon="4.78684">
        <ele>194</ele>
        <time>2022-06-17T13:27:06.000Z</time>
      </trkpt>
      <trkpt lat="49.81638" lon="4.78686">
        <ele>194</ele>
        <time>2022-06-17T13:27:07.000Z</time>
      </trkpt>
      <trkpt lat="49.81641" lon="4.78688">
        <ele>194</ele>
        <time>2022-06-17T13:27:08.000Z</time>
      </trkpt>
      <trkpt lat="49.81643" lon="4.7869">
        <ele>194</ele>
        <time>2022-06-17T13:27:09.000Z</time>
      </trkpt>
      <trkpt lat="49.81646" lon="4.78691">
        <ele>194</ele>
        <time>2022-06-17T13:27:10.000Z</time>
      </trkpt>
      <trkpt lat="49.81649" lon="4.78692">
        <ele>194</ele>
        <time>2022-06-17T13:27:11.000Z</time>
      </trkpt>
      <trkpt lat="49.81652" lon="4.78693">
        <ele>194</ele>
        <time>2022-06-17T13:27:12.000Z</time>
      </trkpt>
      <trkpt lat="49.81656" lon="4.78695">
        <ele>194</ele>
        <time>2022-06-17T13:27:13.000Z</time>
      </trkpt>
      <trkpt lat="49.81659" lon="4.78697">
        <ele>194</ele>
        <time>2022-06-17T13:27:14.000Z</time>
      </trkpt>
      <trkpt lat="49.81662" lon="4.78698">
        <ele>194</ele>
        <time>2022-06-17T13:27:15.000Z</time>
      </trkpt>
      <trkpt lat="49.81665" lon="4.787">
        <ele>194</ele>
        <time>2022-06-17T13:27:16.000Z</time>
      </trkpt>
      <trkpt lat="49.81669" lon="4.78702">
        <ele>194</ele>
        <time>2022-06-17T13:27:17.000Z</time>
      </trkpt>
      <trkpt lat="49.81673" lon="4.78703">
        <ele>194</ele>
        <time>2022-06-17T13:27:18.000Z</time>
      </trkpt>
      <trkpt lat="49.81676" lon="4.78705">
        <ele>195</ele>
        <time>2022-06-17T13:27:19.000Z</time>
      </trkpt>
      <trkpt lat="49.81679" lon="4.78706">
        <ele>195</ele>
        <time>2022-06-17T13:27:20.000Z</time>
      </trkpt>
      <trkpt lat="49.81682" lon="4.78708">
        <ele>195</ele>
        <time>2022-06-17T13:27:21.000Z</time>
      </trkpt>
      <trkpt lat="49.81685" lon="4.7871">
        <ele>195</ele>
        <time>2022-06-17T13:27:22.000Z</time>
      </trkpt>
      <trkpt lat="49.81689" lon="4.78712">
        <ele>194</ele>
        <time>2022-06-17T13:27:23.000Z</time>
      </trkpt>
      <trkpt lat="49.81692" lon="4.78714">
        <ele>194</ele>
        <time>2022-06-17T13:27:24.000Z</time>
      </trkpt>
      <trkpt lat="49.81695" lon="4.78717">
        <ele>194</ele>
        <time>2022-06-17T13:27:25.000Z</time>
      </trkpt>
      <trkpt lat="49.81698" lon="4.78719">
        <ele>194</ele>
        <time>2022-06-17T13:27:26.000Z</time>
      </trkpt>
      <trkpt lat="49.81702" lon="4.78722">
        <ele>194</ele>
        <time>2022-06-17T13:27:27.000Z</time>
      </trkpt>
      <trkpt lat="49.81705" lon="4.78723">
        <ele>194</ele>
        <time>2022-06-17T13:27:28.000Z</time>
      </trkpt>
      <trkpt lat="49.81708" lon="4.78725">
        <ele>194</ele>
        <time>2022-06-17T13:27:29.000Z</time>
      </trkpt>
      <trkpt lat="49.81711" lon="4.78727">
        <ele>194</ele>
        <time>2022-06-17T13:27:30.000Z</time>
      </trkpt>
      <trkpt lat="49.81714" lon="4.7873">
        <ele>195</ele>
        <time>2022-06-17T13:27:31.000Z</time>
      </trkpt>
      <trkpt lat="49.81718" lon="4.78732">
        <ele>195</ele>
        <time>2022-06-17T13:27:32.000Z</time>
      </trkpt>
      <trkpt lat="49.8172" lon="4.78735">
        <ele>195</ele>
        <time>2022-06-17T13:27:33.000Z</time>
      </trkpt>
      <trkpt lat="49.81723" lon="4.78737">
        <ele>195</ele>
        <time>2022-06-17T13:27:34.000Z</time>
      </trkpt>
      <trkpt lat="49.81727" lon="4.78739">
        <ele>195</ele>
        <time>2022-06-17T13:27:35.000Z</time>
      </trkpt>
      <trkpt lat="49.81731" lon="4.78741">
        <ele>195</ele>
        <time>2022-06-17T13:27:36.000Z</time>
      </trkpt>
      <trkpt lat="49.81735" lon="4.78744">
        <ele>195</ele>
        <time>2022-06-17T13:27:37.000Z</time>
      </trkpt>
      <trkpt lat="49.81738" lon="4.78747">
        <ele>195</ele>
        <time>2022-06-17T13:27:38.000Z</time>
      </trkpt>
      <trkpt lat="49.81742" lon="4.78751">
        <ele>195</ele>
        <time>2022-06-17T13:27:39.000Z</time>
      </trkpt>
      <trkpt lat="49.81745" lon="4.78755">
        <ele>195</ele>
        <time>2022-06-17T13:27:40.000Z</time>
      </trkpt>
      <trkpt lat="49.81748" lon="4.78758">
        <ele>196</ele>
        <time>2022-06-17T13:27:41.000Z</time>
      </trkpt>
      <trkpt lat="49.81752" lon="4.78761">
        <ele>195</ele>
        <time>2022-06-17T13:27:42.000Z</time>
      </trkpt>
      <trkpt lat="49.81756" lon="4.78764">
        <ele>195</ele>
        <time>2022-06-17T13:27:43.000Z</time>
      </trkpt>
      <trkpt lat="49.8176" lon="4.78765">
        <ele>195</ele>
        <time>2022-06-17T13:27:44.000Z</time>
      </trkpt>
      <trkpt lat="49.81764" lon="4.78765">
        <ele>195</ele>
        <time>2022-06-17T13:27:45.000Z</time>
      </trkpt>
      <trkpt lat="49.81769" lon="4.78763">
        <ele>195</ele>
        <time>2022-06-17T13:27:46.000Z</time>
      </trkpt>
      <trkpt lat="49.81773" lon="4.78761">
        <ele>195</ele>
        <time>2022-06-17T13:27:47.000Z</time>
      </trkpt>
      <trkpt lat="49.81776" lon="4.78759">
        <ele>195</ele>
        <time>2022-06-17T13:27:48.000Z</time>
      </trkpt>
      <trkpt lat="49.81778" lon="4.78756">
        <ele>196</ele>
        <time>2022-06-17T13:27:49.000Z</time>
      </trkpt>
      <trkpt lat="49.81778" lon="4.78754">
        <ele>196</ele>
        <time>2022-06-17T13:27:50.000Z</time>
      </trkpt>
      <trkpt lat="49.81776" lon="4.78751">
        <ele>196</ele>
        <time>2022-06-17T13:27:51.000Z</time>
      </trkpt>
      <trkpt lat="49.81772" lon="4.78748">
        <ele>196</ele>
        <time>2022-06-17T13:27:52.000Z</time>
      </trkpt>
      <trkpt lat="49.81768" lon="4.78744">
        <ele>196</ele>
        <time>2022-06-17T13:27:53.000Z</time>
      </trkpt>
      <trkpt lat="49.81764" lon="4.7874">
        <ele>196</ele>
        <time>2022-06-17T13:27:54.000Z</time>
      </trkpt>
      <trkpt lat="49.8176" lon="4.78735">
        <ele>196</ele>
        <time>2022-06-17T13:27:55.000Z</time>
      </trkpt>
      <trkpt lat="49.81755" lon="4.78731">
        <ele>196</ele>
        <time>2022-06-17T13:27:56.000Z</time>
      </trkpt>
      <trkpt lat="49.81751" lon="4.78727">
        <ele>196</ele>
        <time>2022-06-17T13:27:57.000Z</time>
      </trkpt>
      <trkpt lat="49.81746" lon="4.78722">
        <ele>196</ele>
        <time>2022-06-17T13:27:58.000Z</time>
      </trkpt>
      <trkpt lat="49.81741" lon="4.78717">
        <ele>195</ele>
        <time>2022-06-17T13:27:59.000Z</time>
      </trkpt>
      <trkpt lat="49.81736" lon="4.78712">
        <ele>195</ele>
        <time>2022-06-17T13:28:00.000Z</time>
      </trkpt>
      <trkpt lat="49.8173" lon="4.78707">
        <ele>195</ele>
        <time>2022-06-17T13:28:01.000Z</time>
      </trkpt>
      <trkpt lat="49.81726" lon="4.78702">
        <ele>195</ele>
        <time>2022-06-17T13:28:02.000Z</time>
      </trkpt>
      <trkpt lat="49.81721" lon="4.78698">
        <ele>195</ele>
        <time>2022-06-17T13:28:03.000Z</time>
      </trkpt>
      <trkpt lat="49.81716" lon="4.78693">
        <ele>194</ele>
        <time>2022-06-17T13:28:04.000Z</time>
      </trkpt>
      <trkpt lat="49.81711" lon="4.78688">
        <ele>194</ele>
        <time>2022-06-17T13:28:05.000Z</time>
      </trkpt>
      <trkpt lat="49.81705" lon="4.78684">
        <ele>194</ele>
        <time>2022-06-17T13:28:06.000Z</time>
      </trkpt>
      <trkpt lat="49.817" lon="4.7868">
        <ele>194</ele>
        <time>2022-06-17T13:28:07.000Z</time>
      </trkpt>
      <trkpt lat="49.81695" lon="4.78675">
        <ele>193</ele>
        <time>2022-06-17T13:28:08.000Z</time>
      </trkpt>
      <trkpt lat="49.8169" lon="4.78671">
        <ele>193</ele>
        <time>2022-06-17T13:28:09.000Z</time>
      </trkpt>
      <trkpt lat="49.81684" lon="4.78666">
        <ele>192</ele>
        <time>2022-06-17T13:28:10.000Z</time>
      </trkpt>
      <trkpt lat="49.81679" lon="4.78661">
        <ele>192</ele>
        <time>2022-06-17T13:28:11.000Z</time>
      </trkpt>
      <trkpt lat="49.81673" lon="4.78657">
        <ele>192</ele>
        <time>2022-06-17T13:28:12.000Z</time>
      </trkpt>
      <trkpt lat="49.81667" lon="4.78653">
        <ele>191</ele>
        <time>2022-06-17T13:28:13.000Z</time>
      </trkpt>
      <trkpt lat="49.8166" lon="4.7865">
        <ele>191</ele>
        <time>2022-06-17T13:28:14.000Z</time>
      </trkpt>
      <trkpt lat="49.81654" lon="4.78646">
        <ele>190</ele>
        <time>2022-06-17T13:28:15.000Z</time>
      </trkpt>
      <trkpt lat="49.81648" lon="4.78643">
        <ele>190</ele>
        <time>2022-06-17T13:28:16.000Z</time>
      </trkpt>
      <trkpt lat="49.81642" lon="4.78639">
        <ele>190</ele>
        <time>2022-06-17T13:28:17.000Z</time>
      </trkpt>
      <trkpt lat="49.81637" lon="4.78637">
        <ele>189</ele>
        <time>2022-06-17T13:28:18.000Z</time>
      </trkpt>
      <trkpt lat="49.81631" lon="4.78633">
        <ele>189</ele>
        <time>2022-06-17T13:28:19.000Z</time>
      </trkpt>
      <trkpt lat="49.81625" lon="4.7863">
        <ele>188</ele>
        <time>2022-06-17T13:28:20.000Z</time>
      </trkpt>
      <trkpt lat="49.8162" lon="4.78628">
        <ele>188</ele>
        <time>2022-06-17T13:28:21.000Z</time>
      </trkpt>
      <trkpt lat="49.81615" lon="4.78626">
        <ele>187</ele>
        <time>2022-06-17T13:28:22.000Z</time>
      </trkpt>
      <trkpt lat="49.8161" lon="4.78624">
        <ele>187</ele>
        <time>2022-06-17T13:28:23.000Z</time>
      </trkpt>
      <trkpt lat="49.81604" lon="4.78621">
        <ele>187</ele>
        <time>2022-06-17T13:28:24.000Z</time>
      </trkpt>
      <trkpt lat="49.81599" lon="4.7862">
        <ele>186</ele>
        <time>2022-06-17T13:28:25.000Z</time>
      </trkpt>
      <trkpt lat="49.81593" lon="4.78618">
        <ele>186</ele>
        <time>2022-06-17T13:28:26.000Z</time>
      </trkpt>
      <trkpt lat="49.81587" lon="4.78619">
        <ele>186</ele>
        <time>2022-06-17T13:28:27.000Z</time>
      </trkpt>
      <trkpt lat="49.81581" lon="4.7862">
        <ele>186</ele>
        <time>2022-06-17T13:28:28.000Z</time>
      </trkpt>
      <trkpt lat="49.81575" lon="4.78622">
        <ele>185</ele>
        <time>2022-06-17T13:28:29.000Z</time>
      </trkpt>
      <trkpt lat="49.81569" lon="4.78625">
        <ele>185</ele>
        <time>2022-06-17T13:28:30.000Z</time>
      </trkpt>
      <trkpt lat="49.81564" lon="4.78629">
        <ele>185</ele>
        <time>2022-06-17T13:28:31.000Z</time>
      </trkpt>
      <trkpt lat="49.81558" lon="4.78633">
        <ele>185</ele>
        <time>2022-06-17T13:28:32.000Z</time>
      </trkpt>
      <trkpt lat="49.81552" lon="4.78639">
        <ele>184</ele>
        <time>2022-06-17T13:28:33.000Z</time>
      </trkpt>
      <trkpt lat="49.81547" lon="4.78644">
        <ele>184</ele>
        <time>2022-06-17T13:28:34.000Z</time>
      </trkpt>
      <trkpt lat="49.81541" lon="4.78651">
        <ele>184</ele>
        <time>2022-06-17T13:28:35.000Z</time>
      </trkpt>
      <trkpt lat="49.81536" lon="4.78657">
        <ele>183</ele>
        <time>2022-06-17T13:28:36.000Z</time>
      </trkpt>
      <trkpt lat="49.81531" lon="4.78662">
        <ele>183</ele>
        <time>2022-06-17T13:28:37.000Z</time>
      </trkpt>
      <trkpt lat="49.81526" lon="4.78667">
        <ele>183</ele>
        <time>2022-06-17T13:28:38.000Z</time>
      </trkpt>
      <trkpt lat="49.81521" lon="4.78673">
        <ele>183</ele>
        <time>2022-06-17T13:28:39.000Z</time>
      </trkpt>
      <trkpt lat="49.81516" lon="4.78678">
        <ele>182</ele>
        <time>2022-06-17T13:28:40.000Z</time>
      </trkpt>
      <trkpt lat="49.81511" lon="4.78683">
        <ele>182</ele>
        <time>2022-06-17T13:28:41.000Z</time>
      </trkpt>
      <trkpt lat="49.81506" lon="4.78688">
        <ele>182</ele>
        <time>2022-06-17T13:28:42.000Z</time>
      </trkpt>
      <trkpt lat="49.81501" lon="4.78693">
        <ele>182</ele>
        <time>2022-06-17T13:28:43.000Z</time>
      </trkpt>
      <trkpt lat="49.81497" lon="4.78696">
        <ele>181</ele>
        <time>2022-06-17T13:28:44.000Z</time>
      </trkpt>
      <trkpt lat="49.81493" lon="4.78698">
        <ele>181</ele>
        <time>2022-06-17T13:28:45.000Z</time>
      </trkpt>
      <trkpt lat="49.8149" lon="4.78698">
        <ele>181</ele>
        <time>2022-06-17T13:28:46.000Z</time>
      </trkpt>
      <trkpt lat="49.81487" lon="4.78693">
        <ele>181</ele>
        <time>2022-06-17T13:28:47.000Z</time>
      </trkpt>
      <trkpt lat="49.81484" lon="4.78687">
        <ele>180</ele>
        <time>2022-06-17T13:28:48.000Z</time>
      </trkpt>
      <trkpt lat="49.81482" lon="4.78679">
        <ele>180</ele>
        <time>2022-06-17T13:28:49.000Z</time>
      </trkpt>
      <trkpt lat="49.81479" lon="4.7867">
        <ele>180</ele>
        <time>2022-06-17T13:28:50.000Z</time>
      </trkpt>
      <trkpt lat="49.81477" lon="4.78659">
        <ele>179</ele>
        <time>2022-06-17T13:28:51.000Z</time>
      </trkpt>
      <trkpt lat="49.81477" lon="4.78648">
        <ele>179</ele>
        <time>2022-06-17T13:28:52.000Z</time>
      </trkpt>
      <trkpt lat="49.81477" lon="4.78637">
        <ele>179</ele>
        <time>2022-06-17T13:28:53.000Z</time>
      </trkpt>
      <trkpt lat="49.81477" lon="4.78626">
        <ele>178</ele>
        <time>2022-06-17T13:28:54.000Z</time>
      </trkpt>
      <trkpt lat="49.81479" lon="4.78615">
        <ele>178</ele>
        <time>2022-06-17T13:28:55.000Z</time>
      </trkpt>
      <trkpt lat="49.81481" lon="4.78604">
        <ele>178</ele>
        <time>2022-06-17T13:28:56.000Z</time>
      </trkpt>
      <trkpt lat="49.81484" lon="4.78594">
        <ele>178</ele>
        <time>2022-06-17T13:28:57.000Z</time>
      </trkpt>
      <trkpt lat="49.81487" lon="4.78584">
        <ele>177</ele>
        <time>2022-06-17T13:28:58.000Z</time>
      </trkpt>
      <trkpt lat="49.8149" lon="4.78574">
        <ele>177</ele>
        <time>2022-06-17T13:28:59.000Z</time>
      </trkpt>
      <trkpt lat="49.81494" lon="4.78565">
        <ele>177</ele>
        <time>2022-06-17T13:29:00.000Z</time>
      </trkpt>
      <trkpt lat="49.81498" lon="4.78556">
        <ele>176</ele>
        <time>2022-06-17T13:29:01.000Z</time>
      </trkpt>
      <trkpt lat="49.81503" lon="4.78546">
        <ele>176</ele>
        <time>2022-06-17T13:29:02.000Z</time>
      </trkpt>
      <trkpt lat="49.81508" lon="4.78537">
        <ele>176</ele>
        <time>2022-06-17T13:29:03.000Z</time>
      </trkpt>
      <trkpt lat="49.81513" lon="4.78529">
        <ele>175</ele>
        <time>2022-06-17T13:29:04.000Z</time>
      </trkpt>
      <trkpt lat="49.81518" lon="4.7852">
        <ele>175</ele>
        <time>2022-06-17T13:29:05.000Z</time>
      </trkpt>
      <trkpt lat="49.81523" lon="4.78511">
        <ele>175</ele>
        <time>2022-06-17T13:29:06.000Z</time>
      </trkpt>
      <trkpt lat="49.81527" lon="4.78504">
        <ele>175</ele>
        <time>2022-06-17T13:29:07.000Z</time>
      </trkpt>
      <trkpt lat="49.8153" lon="4.78496">
        <ele>174</ele>
        <time>2022-06-17T13:29:08.000Z</time>
      </trkpt>
      <trkpt lat="49.81534" lon="4.78489">
        <ele>174</ele>
        <time>2022-06-17T13:29:09.000Z</time>
      </trkpt>
      <trkpt lat="49.81538" lon="4.78482">
        <ele>174</ele>
        <time>2022-06-17T13:29:10.000Z</time>
      </trkpt>
      <trkpt lat="49.8154" lon="4.78474">
        <ele>173</ele>
        <time>2022-06-17T13:29:11.000Z</time>
      </trkpt>
      <trkpt lat="49.81542" lon="4.78466">
        <ele>173</ele>
        <time>2022-06-17T13:29:12.000Z</time>
      </trkpt>
      <trkpt lat="49.81543" lon="4.78457">
        <ele>173</ele>
        <time>2022-06-17T13:29:13.000Z</time>
      </trkpt>
      <trkpt lat="49.81544" lon="4.78448">
        <ele>173</ele>
        <time>2022-06-17T13:29:14.000Z</time>
      </trkpt>
      <trkpt lat="49.81545" lon="4.78439">
        <ele>173</ele>
        <time>2022-06-17T13:29:15.000Z</time>
      </trkpt>
      <trkpt lat="49.81545" lon="4.78429">
        <ele>173</ele>
        <time>2022-06-17T13:29:16.000Z</time>
      </trkpt>
      <trkpt lat="49.81544" lon="4.78418">
        <ele>173</ele>
        <time>2022-06-17T13:29:17.000Z</time>
      </trkpt>
      <trkpt lat="49.81545" lon="4.78407">
        <ele>173</ele>
        <time>2022-06-17T13:29:18.000Z</time>
      </trkpt>
      <trkpt lat="49.81545" lon="4.78397">
        <ele>172</ele>
        <time>2022-06-17T13:29:19.000Z</time>
      </trkpt>
      <trkpt lat="49.81546" lon="4.78387">
        <ele>172</ele>
        <time>2022-06-17T13:29:20.000Z</time>
      </trkpt>
      <trkpt lat="49.81548" lon="4.78377">
        <ele>172</ele>
        <time>2022-06-17T13:29:21.000Z</time>
      </trkpt>
      <trkpt lat="49.8155" lon="4.78368">
        <ele>172</ele>
        <time>2022-06-17T13:29:22.000Z</time>
      </trkpt>
      <trkpt lat="49.81551" lon="4.7836">
        <ele>172</ele>
        <time>2022-06-17T13:29:23.000Z</time>
      </trkpt>
      <trkpt lat="49.81552" lon="4.78352">
        <ele>172</ele>
        <time>2022-06-17T13:29:24.000Z</time>
      </trkpt>
      <trkpt lat="49.81553" lon="4.78345">
        <ele>172</ele>
        <time>2022-06-17T13:29:25.000Z</time>
      </trkpt>
      <trkpt lat="49.81554" lon="4.78339">
        <ele>172</ele>
        <time>2022-06-17T13:29:26.000Z</time>
      </trkpt>
      <trkpt lat="49.81556" lon="4.78334">
        <ele>172</ele>
        <time>2022-06-17T13:29:27.000Z</time>
      </trkpt>
      <trkpt lat="49.81559" lon="4.7833">
        <ele>171</ele>
        <time>2022-06-17T13:29:28.000Z</time>
      </trkpt>
      <trkpt lat="49.81562" lon="4.78326">
        <ele>171</ele>
        <time>2022-06-17T13:29:29.000Z</time>
      </trkpt>
      <trkpt lat="49.81566" lon="4.78322">
        <ele>171</ele>
        <time>2022-06-17T13:29:30.000Z</time>
      </trkpt>
      <trkpt lat="49.81569" lon="4.78317">
        <ele>171</ele>
        <time>2022-06-17T13:29:31.000Z</time>
      </trkpt>
      <trkpt lat="49.81571" lon="4.78313">
        <ele>171</ele>
        <time>2022-06-17T13:29:32.000Z</time>
      </trkpt>
      <trkpt lat="49.81572" lon="4.78308">
        <ele>171</ele>
        <time>2022-06-17T13:29:33.000Z</time>
      </trkpt>
      <trkpt lat="49.81574" lon="4.78303">
        <ele>171</ele>
        <time>2022-06-17T13:29:34.000Z</time>
      </trkpt>
      <trkpt lat="49.81575" lon="4.78298">
        <ele>171</ele>
        <time>2022-06-17T13:29:35.000Z</time>
      </trkpt>
      <trkpt lat="49.81575" lon="4.78294">
        <ele>171</ele>
        <time>2022-06-17T13:29:36.000Z</time>
      </trkpt>
      <trkpt lat="49.81576" lon="4.78291">
        <ele>172</ele>
        <time>2022-06-17T13:29:37.000Z</time>
      </trkpt>
      <trkpt lat="49.81578" lon="4.78289">
        <ele>172</ele>
        <time>2022-06-17T13:29:38.000Z</time>
      </trkpt>
      <trkpt lat="49.81581" lon="4.78289">
        <ele>172</ele>
        <time>2022-06-17T13:29:39.000Z</time>
      </trkpt>
      <trkpt lat="49.81583" lon="4.7829">
        <ele>172</ele>
        <time>2022-06-17T13:29:40.000Z</time>
      </trkpt>
      <trkpt lat="49.81585" lon="4.78293">
        <ele>172</ele>
        <time>2022-06-17T13:29:41.000Z</time>
      </trkpt>
      <trkpt lat="49.81586" lon="4.78296">
        <ele>172</ele>
        <time>2022-06-17T13:29:42.000Z</time>
      </trkpt>
      <trkpt lat="49.81587" lon="4.78298">
        <ele>172</ele>
        <time>2022-06-17T13:29:43.000Z</time>
      </trkpt>
      <trkpt lat="49.81587" lon="4.78301">
        <ele>172</ele>
        <time>2022-06-17T13:29:44.000Z</time>
      </trkpt>
      <trkpt lat="49.81587" lon="4.78305">
        <ele>172</ele>
        <time>2022-06-17T13:29:45.000Z</time>
      </trkpt>
      <trkpt lat="49.81587" lon="4.78308">
        <ele>172</ele>
        <time>2022-06-17T13:29:46.000Z</time>
      </trkpt>
      <trkpt lat="49.81586" lon="4.78311">
        <ele>172</ele>
        <time>2022-06-17T13:29:47.000Z</time>
      </trkpt>
      <trkpt lat="49.81585" lon="4.78314">
        <ele>173</ele>
        <time>2022-06-17T13:29:48.000Z</time>
      </trkpt>
      <trkpt lat="49.81583" lon="4.78315">
        <ele>173</ele>
        <time>2022-06-17T13:29:49.000Z</time>
      </trkpt>
      <trkpt lat="49.81581" lon="4.78317">
        <ele>173</ele>
        <time>2022-06-17T13:29:50.000Z</time>
      </trkpt>
      <trkpt lat="49.81579" lon="4.78318">
        <ele>173</ele>
        <time>2022-06-17T13:29:51.000Z</time>
      </trkpt>
      <trkpt lat="49.81577" lon="4.7832">
        <ele>174</ele>
        <time>2022-06-17T13:29:52.000Z</time>
      </trkpt>
      <trkpt lat="49.81574" lon="4.78322">
        <ele>174</ele>
        <time>2022-06-17T13:29:53.000Z</time>
      </trkpt>
      <trkpt lat="49.81572" lon="4.78323">
        <ele>174</ele>
        <time>2022-06-17T13:29:54.000Z</time>
      </trkpt>
      <trkpt lat="49.8157" lon="4.78325">
        <ele>175</ele>
        <time>2022-06-17T13:29:55.000Z</time>
      </trkpt>
      <trkpt lat="49.81569" lon="4.78326">
        <ele>175</ele>
        <time>2022-06-17T13:29:56.000Z</time>
      </trkpt>
      <trkpt lat="49.81569" lon="4.78325">
        <ele>175</ele>
        <time>2022-06-17T13:29:57.000Z</time>
      </trkpt>
      <trkpt lat="49.8157" lon="4.78322">
        <ele>175</ele>
        <time>2022-06-17T13:29:58.000Z</time>
      </trkpt>
      <trkpt lat="49.81571" lon="4.78319">
        <ele>175</ele>
        <time>2022-06-17T13:29:59.000Z</time>
      </trkpt>
      <trkpt lat="49.81572" lon="4.78316">
        <ele>175</ele>
        <time>2022-06-17T13:30:00.000Z</time>
      </trkpt>
      <trkpt lat="49.81573" lon="4.78311">
        <ele>175</ele>
        <time>2022-06-17T13:30:01.000Z</time>
      </trkpt>
      <trkpt lat="49.81574" lon="4.78307">
        <ele>175</ele>
        <time>2022-06-17T13:30:02.000Z</time>
      </trkpt>
      <trkpt lat="49.81575" lon="4.78302">
        <ele>175</ele>
        <time>2022-06-17T13:30:03.000Z</time>
      </trkpt>
      <trkpt lat="49.81577" lon="4.78298">
        <ele>175</ele>
        <time>2022-06-17T13:30:04.000Z</time>
      </trkpt>
      <trkpt lat="49.81578" lon="4.78295">
        <ele>175</ele>
        <time>2022-06-17T13:30:05.000Z</time>
      </trkpt>
      <trkpt lat="49.81579" lon="4.78293">
        <ele>175</ele>
        <time>2022-06-17T13:30:06.000Z</time>
      </trkpt>
      <trkpt lat="49.81581" lon="4.78292">
        <ele>176</ele>
        <time>2022-06-17T13:30:07.000Z</time>
      </trkpt>
      <trkpt lat="49.81583" lon="4.78293">
        <ele>176</ele>
        <time>2022-06-17T13:30:08.000Z</time>
      </trkpt>
      <trkpt lat="49.81585" lon="4.78294">
        <ele>176</ele>
        <time>2022-06-17T13:30:09.000Z</time>
      </trkpt>
      <trkpt lat="49.81586" lon="4.78297">
        <ele>176</ele>
        <time>2022-06-17T13:30:10.000Z</time>
      </trkpt>
      <trkpt lat="49.81587" lon="4.78299">
        <ele>176</ele>
        <time>2022-06-17T13:30:11.000Z</time>
      </trkpt>
      <trkpt lat="49.81587" lon="4.78302">
        <ele>176</ele>
        <time>2022-06-17T13:30:12.000Z</time>
      </trkpt>
      <trkpt lat="49.81588" lon="4.78306">
        <ele>176</ele>
        <time>2022-06-17T13:30:13.000Z</time>
      </trkpt>
      <trkpt lat="49.81588" lon="4.78309">
        <ele>176</ele>
        <time>2022-06-17T13:30:14.000Z</time>
      </trkpt>
      <trkpt lat="49.81589" lon="4.78313">
        <ele>176</ele>
        <time>2022-06-17T13:30:15.000Z</time>
      </trkpt>
      <trkpt lat="49.8159" lon="4.78318">
        <ele>177</ele>
        <time>2022-06-17T13:30:16.000Z</time>
      </trkpt>
      <trkpt lat="49.81592" lon="4.78323">
        <ele>177</ele>
        <time>2022-06-17T13:30:17.000Z</time>
      </trkpt>
      <trkpt lat="49.81593" lon="4.78328">
        <ele>177</ele>
        <time>2022-06-17T13:30:18.000Z</time>
      </trkpt>
      <trkpt lat="49.81595" lon="4.78333">
        <ele>177</ele>
        <time>2022-06-17T13:30:19.000Z</time>
      </trkpt>
      <trkpt lat="49.81597" lon="4.78339">
        <ele>177</ele>
        <time>2022-06-17T13:30:20.000Z</time>
      </trkpt>
      <trkpt lat="49.816" lon="4.78345">
        <ele>177</ele>
        <time>2022-06-17T13:30:21.000Z</time>
      </trkpt>
      <trkpt lat="49.81603" lon="4.78351">
        <ele>177</ele>
        <time>2022-06-17T13:30:22.000Z</time>
      </trkpt>
      <trkpt lat="49.81606" lon="4.78358">
        <ele>176</ele>
        <time>2022-06-17T13:30:23.000Z</time>
      </trkpt>
      <trkpt lat="49.81609" lon="4.78364">
        <ele>176</ele>
        <time>2022-06-17T13:30:24.000Z</time>
      </trkpt>
      <trkpt lat="49.81613" lon="4.78371">
        <ele>176</ele>
        <time>2022-06-17T13:30:25.000Z</time>
      </trkpt>
      <trkpt lat="49.81616" lon="4.78377">
        <ele>176</ele>
        <time>2022-06-17T13:30:26.000Z</time>
      </trkpt>
      <trkpt lat="49.8162" lon="4.78383">
        <ele>176</ele>
        <time>2022-06-17T13:30:27.000Z</time>
      </trkpt>
      <trkpt lat="49.81623" lon="4.78389">
        <ele>175</ele>
        <time>2022-06-17T13:30:28.000Z</time>
      </trkpt>
      <trkpt lat="49.81626" lon="4.78395">
        <ele>175</ele>
        <time>2022-06-17T13:30:29.000Z</time>
      </trkpt>
      <trkpt lat="49.81629" lon="4.78401">
        <ele>175</ele>
        <time>2022-06-17T13:30:30.000Z</time>
      </trkpt>
      <trkpt lat="49.81633" lon="4.78407">
        <ele>175</ele>
        <time>2022-06-17T13:30:31.000Z</time>
      </trkpt>
      <trkpt lat="49.81636" lon="4.78412">
        <ele>175</ele>
        <time>2022-06-17T13:30:32.000Z</time>
      </trkpt>
      <trkpt lat="49.8164" lon="4.78418">
        <ele>175</ele>
        <time>2022-06-17T13:30:33.000Z</time>
      </trkpt>
      <trkpt lat="49.81644" lon="4.78423">
        <ele>175</ele>
        <time>2022-06-17T13:30:34.000Z</time>
      </trkpt>
      <trkpt lat="49.81648" lon="4.78428">
        <ele>175</ele>
        <time>2022-06-17T13:30:35.000Z</time>
      </trkpt>
      <trkpt lat="49.81652" lon="4.78432">
        <ele>175</ele>
        <time>2022-06-17T13:30:36.000Z</time>
      </trkpt>
      <trkpt lat="49.81657" lon="4.78436">
        <ele>175</ele>
        <time>2022-06-17T13:30:37.000Z</time>
      </trkpt>
      <trkpt lat="49.81661" lon="4.7844">
        <ele>174</ele>
        <time>2022-06-17T13:30:38.000Z</time>
      </trkpt>
      <trkpt lat="49.81665" lon="4.78445">
        <ele>174</ele>
        <time>2022-06-17T13:30:39.000Z</time>
      </trkpt>
      <trkpt lat="49.8167" lon="4.78449">
        <ele>174</ele>
        <time>2022-06-17T13:30:40.000Z</time>
      </trkpt>
      <trkpt lat="49.81675" lon="4.78453">
        <ele>174</ele>
        <time>2022-06-17T13:30:41.000Z</time>
      </trkpt>
      <trkpt lat="49.8168" lon="4.78458">
        <ele>174</ele>
        <time>2022-06-17T13:30:42.000Z</time>
      </trkpt>
      <trkpt lat="49.81685" lon="4.78462">
        <ele>174</ele>
        <time>2022-06-17T13:30:43.000Z</time>
      </trkpt>
      <trkpt lat="49.8169" lon="4.78467">
        <ele>174</ele>
        <time>2022-06-17T13:30:44.000Z</time>
      </trkpt>
      <trkpt lat="49.81694" lon="4.78473">
        <ele>174</ele>
        <time>2022-06-17T13:30:45.000Z</time>
      </trkpt>
      <trkpt lat="49.81699" lon="4.78478">
        <ele>174</ele>
        <time>2022-06-17T13:30:46.000Z</time>
      </trkpt>
      <trkpt lat="49.81703" lon="4.78483">
        <ele>174</ele>
        <time>2022-06-17T13:30:47.000Z</time>
      </trkpt>
      <trkpt lat="49.81708" lon="4.78488">
        <ele>174</ele>
        <time>2022-06-17T13:30:48.000Z</time>
      </trkpt>
      <trkpt lat="49.81713" lon="4.78493">
        <ele>175</ele>
        <time>2022-06-17T13:30:49.000Z</time>
      </trkpt>
      <trkpt lat="49.81718" lon="4.78497">
        <ele>175</ele>
        <time>2022-06-17T13:30:50.000Z</time>
      </trkpt>
      <trkpt lat="49.81723" lon="4.78501">
        <ele>175</ele>
        <time>2022-06-17T13:30:51.000Z</time>
      </trkpt>
      <trkpt lat="49.81728" lon="4.78505">
        <ele>175</ele>
        <time>2022-06-17T13:30:52.000Z</time>
      </trkpt>
      <trkpt lat="49.81733" lon="4.78509">
        <ele>175</ele>
        <time>2022-06-17T13:30:53.000Z</time>
      </trkpt>
      <trkpt lat="49.81738" lon="4.78512">
        <ele>175</ele>
        <time>2022-06-17T13:30:54.000Z</time>
      </trkpt>
      <trkpt lat="49.81743" lon="4.78514">
        <ele>175</ele>
        <time>2022-06-17T13:30:55.000Z</time>
      </trkpt>
      <trkpt lat="49.81747" lon="4.78517">
        <ele>175</ele>
        <time>2022-06-17T13:30:56.000Z</time>
      </trkpt>
      <trkpt lat="49.81752" lon="4.7852">
        <ele>175</ele>
        <time>2022-06-17T13:30:57.000Z</time>
      </trkpt>
      <trkpt lat="49.81756" lon="4.78522">
        <ele>176</ele>
        <time>2022-06-17T13:30:58.000Z</time>
      </trkpt>
      <trkpt lat="49.81761" lon="4.78525">
        <ele>176</ele>
        <time>2022-06-17T13:30:59.000Z</time>
      </trkpt>
      <trkpt lat="49.81765" lon="4.78527">
        <ele>176</ele>
        <time>2022-06-17T13:31:00.000Z</time>
      </trkpt>
      <trkpt lat="49.81769" lon="4.7853">
        <ele>176</ele>
        <time>2022-06-17T13:31:01.000Z</time>
      </trkpt>
      <trkpt lat="49.81774" lon="4.78532">
        <ele>176</ele>
        <time>2022-06-17T13:31:02.000Z</time>
      </trkpt>
      <trkpt lat="49.81778" lon="4.78535">
        <ele>176</ele>
        <time>2022-06-17T13:31:03.000Z</time>
      </trkpt>
      <trkpt lat="49.81782" lon="4.78537">
        <ele>177</ele>
        <time>2022-06-17T13:31:04.000Z</time>
      </trkpt>
      <trkpt lat="49.81785" lon="4.7854">
        <ele>177</ele>
        <time>2022-06-17T13:31:05.000Z</time>
      </trkpt>
      <trkpt lat="49.8179" lon="4.78543">
        <ele>177</ele>
        <time>2022-06-17T13:31:06.000Z</time>
      </trkpt>
      <trkpt lat="49.81794" lon="4.78546">
        <ele>177</ele>
        <time>2022-06-17T13:31:07.000Z</time>
      </trkpt>
      <trkpt lat="49.81798" lon="4.7855">
        <ele>178</ele>
        <time>2022-06-17T13:31:08.000Z</time>
      </trkpt>
      <trkpt lat="49.81802" lon="4.78554">
        <ele>178</ele>
        <time>2022-06-17T13:31:09.000Z</time>
      </trkpt>
      <trkpt lat="49.81807" lon="4.78558">
        <ele>178</ele>
        <time>2022-06-17T13:31:10.000Z</time>
      </trkpt>
      <trkpt lat="49.81811" lon="4.78562">
        <ele>179</ele>
        <time>2022-06-17T13:31:11.000Z</time>
      </trkpt>
      <trkpt lat="49.81815" lon="4.78566">
        <ele>179</ele>
        <time>2022-06-17T13:31:12.000Z</time>
      </trkpt>
      <trkpt lat="49.8182" lon="4.7857">
        <ele>179</ele>
        <time>2022-06-17T13:31:13.000Z</time>
      </trkpt>
      <trkpt lat="49.81824" lon="4.78573">
        <ele>180</ele>
        <time>2022-06-17T13:31:14.000Z</time>
      </trkpt>
      <trkpt lat="49.81829" lon="4.78578">
        <ele>180</ele>
        <time>2022-06-17T13:31:15.000Z</time>
      </trkpt>
      <trkpt lat="49.81833" lon="4.78581">
        <ele>181</ele>
        <time>2022-06-17T13:31:16.000Z</time>
      </trkpt>
      <trkpt lat="49.81837" lon="4.78586">
        <ele>181</ele>
        <time>2022-06-17T13:31:17.000Z</time>
      </trkpt>
      <trkpt lat="49.81841" lon="4.7859">
        <ele>181</ele>
        <time>2022-06-17T13:31:18.000Z</time>
      </trkpt>
      <trkpt lat="49.81845" lon="4.78594">
        <ele>182</ele>
        <time>2022-06-17T13:31:19.000Z</time>
      </trkpt>
      <trkpt lat="49.81849" lon="4.78598">
        <ele>182</ele>
        <time>2022-06-17T13:31:20.000Z</time>
      </trkpt>
      <trkpt lat="49.81853" lon="4.78603">
        <ele>183</ele>
        <time>2022-06-17T13:31:21.000Z</time>
      </trkpt>
      <trkpt lat="49.81857" lon="4.78608">
        <ele>183</ele>
        <time>2022-06-17T13:31:22.000Z</time>
      </trkpt>
      <trkpt lat="49.81861" lon="4.78612">
        <ele>183</ele>
        <time>2022-06-17T13:31:23.000Z</time>
      </trkpt>
      <trkpt lat="49.81865" lon="4.78617">
        <ele>184</ele>
        <time>2022-06-17T13:31:24.000Z</time>
      </trkpt>
      <trkpt lat="49.81869" lon="4.78621">
        <ele>184</ele>
        <time>2022-06-17T13:31:25.000Z</time>
      </trkpt>
      <trkpt lat="49.81873" lon="4.78626">
        <ele>184</ele>
        <time>2022-06-17T13:31:26.000Z</time>
      </trkpt>
      <trkpt lat="49.81877" lon="4.7863">
        <ele>185</ele>
        <time>2022-06-17T13:31:27.000Z</time>
      </trkpt>
      <trkpt lat="49.81881" lon="4.78635">
        <ele>185</ele>
        <time>2022-06-17T13:31:28.000Z</time>
      </trkpt>
      <trkpt lat="49.81886" lon="4.7864">
        <ele>185</ele>
        <time>2022-06-17T13:31:29.000Z</time>
      </trkpt>
      <trkpt lat="49.8189" lon="4.78645">
        <ele>186</ele>
        <time>2022-06-17T13:31:30.000Z</time>
      </trkpt>
      <trkpt lat="49.81895" lon="4.78649">
        <ele>186</ele>
        <time>2022-06-17T13:31:31.000Z</time>
      </trkpt>
      <trkpt lat="49.81899" lon="4.78654">
        <ele>186</ele>
        <time>2022-06-17T13:31:32.000Z</time>
      </trkpt>
      <trkpt lat="49.81904" lon="4.78658">
        <ele>187</ele>
        <time>2022-06-17T13:31:33.000Z</time>
      </trkpt>
      <trkpt lat="49.81908" lon="4.78663">
        <ele>187</ele>
        <time>2022-06-17T13:31:34.000Z</time>
      </trkpt>
      <trkpt lat="49.81911" lon="4.78668">
        <ele>187</ele>
        <time>2022-06-17T13:31:35.000Z</time>
      </trkpt>
      <trkpt lat="49.81915" lon="4.78672">
        <ele>187</ele>
        <time>2022-06-17T13:31:36.000Z</time>
      </trkpt>
      <trkpt lat="49.81919" lon="4.78676">
        <ele>187</ele>
        <time>2022-06-17T13:31:37.000Z</time>
      </trkpt>
      <trkpt lat="49.81923" lon="4.78681">
        <ele>188</ele>
        <time>2022-06-17T13:31:38.000Z</time>
      </trkpt>
      <trkpt lat="49.81927" lon="4.78685">
        <ele>188</ele>
        <time>2022-06-17T13:31:39.000Z</time>
      </trkpt>
      <trkpt lat="49.81932" lon="4.78689">
        <ele>188</ele>
        <time>2022-06-17T13:31:40.000Z</time>
      </trkpt>
      <trkpt lat="49.81936" lon="4.78693">
        <ele>188</ele>
        <time>2022-06-17T13:31:41.000Z</time>
      </trkpt>
      <trkpt lat="49.8194" lon="4.78697">
        <ele>188</ele>
        <time>2022-06-17T13:31:42.000Z</time>
      </trkpt>
      <trkpt lat="49.81945" lon="4.78701">
        <ele>188</ele>
        <time>2022-06-17T13:31:43.000Z</time>
      </trkpt>
      <trkpt lat="49.81949" lon="4.78705">
        <ele>189</ele>
        <time>2022-06-17T13:31:44.000Z</time>
      </trkpt>
      <trkpt lat="49.81953" lon="4.78709">
        <ele>189</ele>
        <time>2022-06-17T13:31:45.000Z</time>
      </trkpt>
      <trkpt lat="49.81957" lon="4.78713">
        <ele>189</ele>
        <time>2022-06-17T13:31:46.000Z</time>
      </trkpt>
      <trkpt lat="49.81961" lon="4.78717">
        <ele>189</ele>
        <time>2022-06-17T13:31:47.000Z</time>
      </trkpt>
      <trkpt lat="49.81966" lon="4.78721">
        <ele>189</ele>
        <time>2022-06-17T13:31:48.000Z</time>
      </trkpt>
      <trkpt lat="49.8197" lon="4.78725">
        <ele>189</ele>
        <time>2022-06-17T13:31:49.000Z</time>
      </trkpt>
      <trkpt lat="49.81975" lon="4.78729">
        <ele>189</ele>
        <time>2022-06-17T13:31:50.000Z</time>
      </trkpt>
      <trkpt lat="49.8198" lon="4.78733">
        <ele>189</ele>
        <time>2022-06-17T13:31:51.000Z</time>
      </trkpt>
      <trkpt lat="49.81985" lon="4.78737">
        <ele>189</ele>
        <time>2022-06-17T13:31:52.000Z</time>
      </trkpt>
      <trkpt lat="49.81989" lon="4.7874">
        <ele>189</ele>
        <time>2022-06-17T13:31:53.000Z</time>
      </trkpt>
      <trkpt lat="49.81993" lon="4.78744">
        <ele>189</ele>
        <time>2022-06-17T13:31:54.000Z</time>
      </trkpt>
      <trkpt lat="49.81997" lon="4.78747">
        <ele>189</ele>
        <time>2022-06-17T13:31:55.000Z</time>
      </trkpt>
      <trkpt lat="49.82002" lon="4.78751">
        <ele>189</ele>
        <time>2022-06-17T13:31:56.000Z</time>
      </trkpt>
      <trkpt lat="49.82006" lon="4.78755">
        <ele>190</ele>
        <time>2022-06-17T13:31:57.000Z</time>
      </trkpt>
      <trkpt lat="49.8201" lon="4.78759">
        <ele>190</ele>
        <time>2022-06-17T13:31:58.000Z</time>
      </trkpt>
      <trkpt lat="49.82014" lon="4.78762">
        <ele>190</ele>
        <time>2022-06-17T13:31:59.000Z</time>
      </trkpt>
      <trkpt lat="49.82018" lon="4.78765">
        <ele>190</ele>
        <time>2022-06-17T13:32:00.000Z</time>
      </trkpt>
      <trkpt lat="49.82022" lon="4.78768">
        <ele>191</ele>
        <time>2022-06-17T13:32:01.000Z</time>
      </trkpt>
      <trkpt lat="49.82026" lon="4.78771">
        <ele>191</ele>
        <time>2022-06-17T13:32:02.000Z</time>
      </trkpt>
      <trkpt lat="49.8203" lon="4.78774">
        <ele>191</ele>
        <time>2022-06-17T13:32:03.000Z</time>
      </trkpt>
      <trkpt lat="49.82034" lon="4.78778">
        <ele>191</ele>
        <time>2022-06-17T13:32:04.000Z</time>
      </trkpt>
      <trkpt lat="49.82037" lon="4.78781">
        <ele>192</ele>
        <time>2022-06-17T13:32:05.000Z</time>
      </trkpt>
      <trkpt lat="49.82041" lon="4.78785">
        <ele>192</ele>
        <time>2022-06-17T13:32:06.000Z</time>
      </trkpt>
      <trkpt lat="49.82045" lon="4.78788">
        <ele>192</ele>
        <time>2022-06-17T13:32:07.000Z</time>
      </trkpt>
      <trkpt lat="49.82049" lon="4.78791">
        <ele>192</ele>
        <time>2022-06-17T13:32:08.000Z</time>
      </trkpt>
      <trkpt lat="49.82053" lon="4.78794">
        <ele>192</ele>
        <time>2022-06-17T13:32:09.000Z</time>
      </trkpt>
      <trkpt lat="49.82057" lon="4.78798">
        <ele>192</ele>
        <time>2022-06-17T13:32:10.000Z</time>
      </trkpt>
      <trkpt lat="49.8206" lon="4.78802">
        <ele>192</ele>
        <time>2022-06-17T13:32:11.000Z</time>
      </trkpt>
      <trkpt lat="49.82064" lon="4.78806">
        <ele>193</ele>
        <time>2022-06-17T13:32:12.000Z</time>
      </trkpt>
      <trkpt lat="49.82068" lon="4.78809">
        <ele>193</ele>
        <time>2022-06-17T13:32:13.000Z</time>
      </trkpt>
      <trkpt lat="49.82071" lon="4.78813">
        <ele>193</ele>
        <time>2022-06-17T13:32:14.000Z</time>
      </trkpt>
      <trkpt lat="49.82075" lon="4.78817">
        <ele>193</ele>
        <time>2022-06-17T13:32:15.000Z</time>
      </trkpt>
      <trkpt lat="49.82078" lon="4.78822">
        <ele>193</ele>
        <time>2022-06-17T13:32:16.000Z</time>
      </trkpt>
      <trkpt lat="49.82081" lon="4.78826">
        <ele>193</ele>
        <time>2022-06-17T13:32:17.000Z</time>
      </trkpt>
      <trkpt lat="49.82084" lon="4.78832">
        <ele>193</ele>
        <time>2022-06-17T13:32:18.000Z</time>
      </trkpt>
      <trkpt lat="49.82087" lon="4.78838">
        <ele>193</ele>
        <time>2022-06-17T13:32:19.000Z</time>
      </trkpt>
      <trkpt lat="49.8209" lon="4.78843">
        <ele>193</ele>
        <time>2022-06-17T13:32:20.000Z</time>
      </trkpt>
      <trkpt lat="49.82093" lon="4.78849">
        <ele>193</ele>
        <time>2022-06-17T13:32:21.000Z</time>
      </trkpt>
      <trkpt lat="49.82096" lon="4.78855">
        <ele>194</ele>
        <time>2022-06-17T13:32:22.000Z</time>
      </trkpt>
      <trkpt lat="49.82099" lon="4.78861">
        <ele>194</ele>
        <time>2022-06-17T13:32:23.000Z</time>
      </trkpt>
      <trkpt lat="49.82101" lon="4.78867">
        <ele>194</ele>
        <time>2022-06-17T13:32:24.000Z</time>
      </trkpt>
      <trkpt lat="49.82103" lon="4.78873">
        <ele>194</ele>
        <time>2022-06-17T13:32:25.000Z</time>
      </trkpt>
      <trkpt lat="49.82105" lon="4.7888">
        <ele>194</ele>
        <time>2022-06-17T13:32:26.000Z</time>
      </trkpt>
      <trkpt lat="49.82107" lon="4.78886">
        <ele>194</ele>
        <time>2022-06-17T13:32:27.000Z</time>
      </trkpt>
      <trkpt lat="49.8211" lon="4.78892">
        <ele>194</ele>
        <time>2022-06-17T13:32:28.000Z</time>
      </trkpt>
      <trkpt lat="49.82112" lon="4.78897">
        <ele>194</ele>
        <time>2022-06-17T13:32:29.000Z</time>
      </trkpt>
      <trkpt lat="49.82114" lon="4.78902">
        <ele>195</ele>
        <time>2022-06-17T13:32:30.000Z</time>
      </trkpt>
      <trkpt lat="49.82116" lon="4.78906">
        <ele>195</ele>
        <time>2022-06-17T13:32:31.000Z</time>
      </trkpt>
      <trkpt lat="49.82117" lon="4.78908">
        <ele>195</ele>
        <time>2022-06-17T13:32:32.000Z</time>
      </trkpt>
      <trkpt lat="49.82117" lon="4.78909">
        <ele>195</ele>
        <time>2022-06-17T13:32:33.000Z</time>
      </trkpt>
      <trkpt lat="49.82117" lon="4.78909">
        <ele>196</ele>
        <time>2022-06-17T13:32:34.000Z</time>
      </trkpt>
      <trkpt lat="49.82117" lon="4.78908">
        <ele>196</ele>
        <time>2022-06-17T13:32:35.000Z</time>
      </trkpt>
      <trkpt lat="49.82117" lon="4.78909">
        <ele>196</ele>
        <time>2022-06-17T13:32:36.000Z</time>
      </trkpt>
      <trkpt lat="49.82116" lon="4.78909">
        <ele>196</ele>
        <time>2022-06-17T13:32:37.000Z</time>
      </trkpt>
      <trkpt lat="49.82116" lon="4.78909">
        <ele>196</ele>
        <time>2022-06-17T13:32:38.000Z</time>
      </trkpt>
      <trkpt lat="49.82116" lon="4.78909">
        <ele>197</ele>
        <time>2022-06-17T13:32:39.000Z</time>
      </trkpt>
      <trkpt lat="49.82116" lon="4.78909">
        <ele>197</ele>
        <time>2022-06-17T13:32:40.000Z</time>
      </trkpt>
      <trkpt lat="49.82116" lon="4.78909">
        <ele>197</ele>
        <time>2022-06-17T13:32:41.000Z</time>
      </trkpt>
      <trkpt lat="49.82116" lon="4.7891">
        <ele>197</ele>
        <time>2022-06-17T13:32:42.000Z</time>
      </trkpt>
      <trkpt lat="49.82116" lon="4.7891">
        <ele>197</ele>
        <time>2022-06-17T13:32:43.000Z</time>
      </trkpt>
      <trkpt lat="49.82116" lon="4.7891">
        <ele>197</ele>
        <time>2022-06-17T13:32:44.000Z</time>
      </trkpt>
      <trkpt lat="49.82116" lon="4.7891">
        <ele>197</ele>
        <time>2022-06-17T13:32:45.000Z</time>
      </trkpt>
      <trkpt lat="49.82115" lon="4.7891">
        <ele>198</ele>
        <time>2022-06-17T13:32:46.000Z</time>
      </trkpt>
      <trkpt lat="49.82115" lon="4.7891">
        <ele>198</ele>
        <time>2022-06-17T13:32:47.000Z</time>
      </trkpt>
      <trkpt lat="49.82115" lon="4.7891">
        <ele>198</ele>
        <time>2022-06-17T13:32:48.000Z</time>
      </trkpt>
      <trkpt lat="49.82115" lon="4.7891">
        <ele>198</ele>
        <time>2022-06-17T13:32:49.000Z</time>
      </trkpt>
      <trkpt lat="49.82115" lon="4.7891">
        <ele>198</ele>
        <time>2022-06-17T13:32:50.000Z</time>
      </trkpt>
      <trkpt lat="49.82115" lon="4.7891">
        <ele>198</ele>
        <time>2022-06-17T13:32:51.000Z</time>
      </trkpt>
      <trkpt lat="49.82115" lon="4.7891">
        <ele>198</ele>
        <time>2022-06-17T13:32:52.000Z</time>
      </trkpt>
      <trkpt lat="49.82115" lon="4.7891">
        <ele>198</ele>
        <time>2022-06-17T13:32:53.000Z</time>
      </trkpt>
      <trkpt lat="49.82115" lon="4.7891">
        <ele>198</ele>
        <time>2022-06-17T13:32:54.000Z</time>
      </trkpt>
      <trkpt lat="49.82115" lon="4.7891">
        <ele>198</ele>
        <time>2022-06-17T13:32:55.000Z</time>
      </trkpt>
      <trkpt lat="49.82114" lon="4.7891">
        <ele>198</ele>
        <time>2022-06-17T13:32:56.000Z</time>
      </trkpt>
      <trkpt lat="49.82114" lon="4.78911">
        <ele>198</ele>
        <time>2022-06-17T13:32:57.000Z</time>
      </trkpt>
      <trkpt lat="49.82114" lon="4.7891">
        <ele>198</ele>
        <time>2022-06-17T13:32:58.000Z</time>
      </trkpt>
      <trkpt lat="49.82113" lon="4.78909">
        <ele>199</ele>
        <time>2022-06-17T13:32:59.000Z</time>
      </trkpt>
      <trkpt lat="49.82113" lon="4.78909">
        <ele>199</ele>
        <time>2022-06-17T13:33:00.000Z</time>
      </trkpt>
      <trkpt lat="49.82113" lon="4.78909">
        <ele>199</ele>
        <time>2022-06-17T13:33:01.000Z</time>
      </trkpt>
      <trkpt lat="49.82113" lon="4.78909">
        <ele>199</ele>
        <time>2022-06-17T13:33:02.000Z</time>
      </trkpt>
      <trkpt lat="49.82112" lon="4.78909">
        <ele>199</ele>
        <time>2022-06-17T13:33:03.000Z</time>
      </trkpt>
      <trkpt lat="49.82113" lon="4.78909">
        <ele>199</ele>
        <time>2022-06-17T13:33:04.000Z</time>
      </trkpt>
      <trkpt lat="49.82113" lon="4.78909">
        <ele>199</ele>
        <time>2022-06-17T13:33:05.000Z</time>
      </trkpt>
      <trkpt lat="49.82113" lon="4.7891">
        <ele>199</ele>
        <time>2022-06-17T13:33:06.000Z</time>
      </trkpt>
      <trkpt lat="49.82113" lon="4.7891">
        <ele>199</ele>
        <time>2022-06-17T13:33:07.000Z</time>
      </trkpt>
      <trkpt lat="49.82112" lon="4.78909">
        <ele>199</ele>
        <time>2022-06-17T13:33:08.000Z</time>
      </trkpt>
      <trkpt lat="49.82112" lon="4.78909">
        <ele>199</ele>
        <time>2022-06-17T13:33:09.000Z</time>
      </trkpt>
      <trkpt lat="49.82112" lon="4.78909">
        <ele>199</ele>
        <time>2022-06-17T13:33:10.000Z</time>
      </trkpt>
      <trkpt lat="49.82112" lon="4.78909">
        <ele>199</ele>
        <time>2022-06-17T13:33:11.000Z</time>
      </trkpt>
      <trkpt lat="49.82112" lon="4.78909">
        <ele>200</ele>
        <time>2022-06-17T13:33:12.000Z</time>
      </trkpt>
      <trkpt lat="49.82112" lon="4.7891">
        <ele>200</ele>
        <time>2022-06-17T13:33:13.000Z</time>
      </trkpt>
      <trkpt lat="49.82112" lon="4.7891">
        <ele>200</ele>
        <time>2022-06-17T13:33:14.000Z</time>
      </trkpt>
      <trkpt lat="49.82112" lon="4.7891">
        <ele>200</ele>
        <time>2022-06-17T13:33:15.000Z</time>
      </trkpt>
      <trkpt lat="49.82112" lon="4.7891">
        <ele>200</ele>
        <time>2022-06-17T13:33:16.000Z</time>
      </trkpt>
      <trkpt lat="49.82112" lon="4.7891">
        <ele>200</ele>
        <time>2022-06-17T13:33:17.000Z</time>
      </trkpt>
      <trkpt lat="49.82111" lon="4.78909">
        <ele>200</ele>
        <time>2022-06-17T13:33:18.000Z</time>
      </trkpt>
      <trkpt lat="49.82111" lon="4.78909">
        <ele>200</ele>
        <time>2022-06-17T13:33:19.000Z</time>
      </trkpt>
      <trkpt lat="49.82111" lon="4.7891">
        <ele>200</ele>
        <time>2022-06-17T13:33:20.000Z</time>
      </trkpt>
      <trkpt lat="49.82111" lon="4.7891">
        <ele>200</ele>
        <time>2022-06-17T13:33:21.000Z</time>
      </trkpt>
      <trkpt lat="49.82111" lon="4.7891">
        <ele>200</ele>
        <time>2022-06-17T13:33:22.000Z</time>
      </trkpt>
      <trkpt lat="49.82111" lon="4.7891">
        <ele>200</ele>
        <time>2022-06-17T13:33:23.000Z</time>
      </trkpt>
      <trkpt lat="49.82112" lon="4.7891">
        <ele>200</ele>
        <time>2022-06-17T13:33:24.000Z</time>
      </trkpt>
      <trkpt lat="49.82112" lon="4.7891">
        <ele>200</ele>
        <time>2022-06-17T13:33:25.000Z</time>
      </trkpt>
      <trkpt lat="49.82112" lon="4.7891">
        <ele>200</ele>
        <time>2022-06-17T13:33:26.000Z</time>
      </trkpt>
      <trkpt lat="49.82112" lon="4.7891">
        <ele>200</ele>
        <time>2022-06-17T13:33:27.000Z</time>
      </trkpt>
      <trkpt lat="49.82112" lon="4.7891">
        <ele>200</ele>
        <time>2022-06-17T13:33:28.000Z</time>
      </trkpt>
      <trkpt lat="49.82112" lon="4.7891">
        <ele>200</ele>
        <time>2022-06-17T13:33:29.000Z</time>
      </trkpt>
      <trkpt lat="49.82112" lon="4.7891">
        <ele>200</ele>
        <time>2022-06-17T13:33:30.000Z</time>
      </trkpt>
      <trkpt lat="49.82112" lon="4.7891">
        <ele>200</ele>
        <time>2022-06-17T13:33:31.000Z</time>
      </trkpt>
      <trkpt lat="49.82112" lon="4.7891">
        <ele>200</ele>
        <time>2022-06-17T13:33:32.000Z</time>
      </trkpt>
      <trkpt lat="49.82112" lon="4.7891">
        <ele>200</ele>
        <time>2022-06-17T13:33:33.000Z</time>
      </trkpt>
      <trkpt lat="49.82112" lon="4.7891">
        <ele>200</ele>
        <time>2022-06-17T13:33:34.000Z</time>
      </trkpt>
      <trkpt lat="49.82112" lon="4.7891">
        <ele>200</ele>
        <time>2022-06-17T13:33:35.000Z</time>
      </trkpt>
      <trkpt lat="49.82112" lon="4.7891">
        <ele>200</ele>
        <time>2022-06-17T13:33:36.000Z</time>
      </trkpt>
      <trkpt lat="49.82112" lon="4.7891">
        <ele>200</ele>
        <time>2022-06-17T13:33:37.000Z</time>
      </trkpt>
      <trkpt lat="49.82112" lon="4.7891">
        <ele>200</ele>
        <time>2022-06-17T13:33:38.000Z</time>
      </trkpt>
      <trkpt lat="49.82112" lon="4.7891">
        <ele>200</ele>
        <time>2022-06-17T13:33:39.000Z</time>
      </trkpt>
      <trkpt lat="49.82112" lon="4.7891">
        <ele>200</ele>
        <time>2022-06-17T13:33:40.000Z</time>
      </trkpt>
      <trkpt lat="49.82112" lon="4.7891">
        <ele>200</ele>
        <time>2022-06-17T13:33:41.000Z</time>
      </trkpt>
      <trkpt lat="49.82112" lon="4.7891">
        <ele>200</ele>
        <time>2022-06-17T13:33:42.000Z</time>
      </trkpt>
      <trkpt lat="49.82112" lon="4.7891">
        <ele>200</ele>
        <time>2022-06-17T13:33:43.000Z</time>
      </trkpt>
      <trkpt lat="49.82112" lon="4.7891">
        <ele>200</ele>
        <time>2022-06-17T13:33:44.000Z</time>
      </trkpt>
      <trkpt lat="49.82112" lon="4.7891">
        <ele>200</ele>
        <time>2022-06-17T13:33:45.000Z</time>
      </trkpt>
      <trkpt lat="49.82112" lon="4.7891">
        <ele>200</ele>
        <time>2022-06-17T13:33:46.000Z</time>
      </trkpt>
      <trkpt lat="49.82112" lon="4.7891">
        <ele>200</ele>
        <time>2022-06-17T13:33:47.000Z</time>
      </trkpt>
      <trkpt lat="49.82112" lon="4.78911">
        <ele>201</ele>
        <time>2022-06-17T13:33:48.000Z</time>
      </trkpt>
      <trkpt lat="49.82112" lon="4.78911">
        <ele>201</ele>
        <time>2022-06-17T13:33:49.000Z</time>
      </trkpt>
      <trkpt lat="49.82112" lon="4.78911">
        <ele>201</ele>
        <time>2022-06-17T13:33:50.000Z</time>
      </trkpt>
      <trkpt lat="49.82112" lon="4.78911">
        <ele>201</ele>
        <time>2022-06-17T13:33:51.000Z</time>
      </trkpt>
      <trkpt lat="49.82112" lon="4.78911">
        <ele>201</ele>
        <time>2022-06-17T13:33:52.000Z</time>
      </trkpt>
      <trkpt lat="49.82112" lon="4.78912">
        <ele>201</ele>
        <time>2022-06-17T13:33:53.000Z</time>
      </trkpt>
      <trkpt lat="49.82112" lon="4.78912">
        <ele>201</ele>
        <time>2022-06-17T13:33:54.000Z</time>
      </trkpt>
      <trkpt lat="49.82112" lon="4.78912">
        <ele>202</ele>
        <time>2022-06-17T13:33:55.000Z</time>
      </trkpt>
      <trkpt lat="49.82113" lon="4.78912">
        <ele>202</ele>
        <time>2022-06-17T13:33:56.000Z</time>
      </trkpt>
      <trkpt lat="49.82113" lon="4.78913">
        <ele>202</ele>
        <time>2022-06-17T13:33:57.000Z</time>
      </trkpt>
      <trkpt lat="49.82113" lon="4.78913">
        <ele>202</ele>
        <time>2022-06-17T13:33:58.000Z</time>
      </trkpt>
      <trkpt lat="49.82113" lon="4.78913">
        <ele>202</ele>
        <time>2022-06-17T13:33:59.000Z</time>
      </trkpt>
      <trkpt lat="49.82113" lon="4.78913">
        <ele>202</ele>
        <time>2022-06-17T13:34:00.000Z</time>
      </trkpt>
      <trkpt lat="49.82113" lon="4.78913">
        <ele>202</ele>
        <time>2022-06-17T13:34:01.000Z</time>
      </trkpt>
      <trkpt lat="49.82113" lon="4.78913">
        <ele>203</ele>
        <time>2022-06-17T13:34:02.000Z</time>
      </trkpt>
      <trkpt lat="49.82113" lon="4.78913">
        <ele>203</ele>
        <time>2022-06-17T13:34:03.000Z</time>
      </trkpt>
      <trkpt lat="49.82113" lon="4.78914">
        <ele>203</ele>
        <time>2022-06-17T13:34:04.000Z</time>
      </trkpt>
      <trkpt lat="49.82113" lon="4.78914">
        <ele>203</ele>
        <time>2022-06-17T13:34:05.000Z</time>
      </trkpt>
      <trkpt lat="49.82113" lon="4.78914">
        <ele>203</ele>
        <time>2022-06-17T13:34:06.000Z</time>
      </trkpt>
      <trkpt lat="49.82113" lon="4.78914">
        <ele>203</ele>
        <time>2022-06-17T13:34:07.000Z</time>
      </trkpt>
      <trkpt lat="49.82113" lon="4.78914">
        <ele>203</ele>
        <time>2022-06-17T13:34:08.000Z</time>
      </trkpt>
      <trkpt lat="49.82113" lon="4.78914">
        <ele>203</ele>
        <time>2022-06-17T13:34:09.000Z</time>
      </trkpt>
      <trkpt lat="49.82113" lon="4.78914">
        <ele>203</ele>
        <time>2022-06-17T13:34:10.000Z</time>
      </trkpt>
      <trkpt lat="49.82113" lon="4.78914">
        <ele>203</ele>
        <time>2022-06-17T13:34:11.000Z</time>
      </trkpt>
      <trkpt lat="49.82114" lon="4.78914">
        <ele>203</ele>
        <time>2022-06-17T13:34:12.000Z</time>
      </trkpt>
      <trkpt lat="49.82114" lon="4.78914">
        <ele>204</ele>
        <time>2022-06-17T13:34:13.000Z</time>
      </trkpt>
      <trkpt lat="49.82114" lon="4.78914">
        <ele>204</ele>
        <time>2022-06-17T13:34:14.000Z</time>
      </trkpt>
      <trkpt lat="49.82114" lon="4.78914">
        <ele>204</ele>
        <time>2022-06-17T13:34:15.000Z</time>
      </trkpt>
      <trkpt lat="49.82114" lon="4.78914">
        <ele>204</ele>
        <time>2022-06-17T13:34:16.000Z</time>
      </trkpt>
      <trkpt lat="49.82114" lon="4.78914">
        <ele>204</ele>
        <time>2022-06-17T13:34:17.000Z</time>
      </trkpt>
      <trkpt lat="49.82114" lon="4.78914">
        <ele>204</ele>
        <time>2022-06-17T13:34:18.000Z</time>
      </trkpt>
      <trkpt lat="49.82114" lon="4.78914">
        <ele>204</ele>
        <time>2022-06-17T13:34:19.000Z</time>
      </trkpt>
      <trkpt lat="49.82114" lon="4.78914">
        <ele>204</ele>
        <time>2022-06-17T13:34:20.000Z</time>
      </trkpt>
      <trkpt lat="49.82114" lon="4.78914">
        <ele>204</ele>
        <time>2022-06-17T13:34:21.000Z</time>
      </trkpt>
      <trkpt lat="49.82113" lon="4.78914">
        <ele>204</ele>
        <time>2022-06-17T13:34:22.000Z</time>
      </trkpt>
      <trkpt lat="49.82114" lon="4.78914">
        <ele>204</ele>
        <time>2022-06-17T13:34:23.000Z</time>
      </trkpt>
      <trkpt lat="49.82113" lon="4.78914">
        <ele>205</ele>
        <time>2022-06-17T13:34:24.000Z</time>
      </trkpt>
      <trkpt lat="49.82113" lon="4.78914">
        <ele>204</ele>
        <time>2022-06-17T13:34:25.000Z</time>
      </trkpt>
      <trkpt lat="49.82113" lon="4.78914">
        <ele>204</ele>
        <time>2022-06-17T13:34:26.000Z</time>
      </trkpt>
      <trkpt lat="49.82113" lon="4.78914">
        <ele>204</ele>
        <time>2022-06-17T13:34:27.000Z</time>
      </trkpt>
      <trkpt lat="49.82113" lon="4.78914">
        <ele>204</ele>
        <time>2022-06-17T13:34:28.000Z</time>
      </trkpt>
      <trkpt lat="49.82113" lon="4.78914">
        <ele>204</ele>
        <time>2022-06-17T13:34:29.000Z</time>
      </trkpt>
      <trkpt lat="49.82113" lon="4.78914">
        <ele>204</ele>
        <time>2022-06-17T13:34:30.000Z</time>
      </trkpt>
      <trkpt lat="49.82113" lon="4.78914">
        <ele>204</ele>
        <time>2022-06-17T13:34:31.000Z</time>
      </trkpt>
      <trkpt lat="49.82113" lon="4.78914">
        <ele>205</ele>
        <time>2022-06-17T13:34:32.000Z</time>
      </trkpt>
      <trkpt lat="49.82113" lon="4.78914">
        <ele>205</ele>
        <time>2022-06-17T13:34:33.000Z</time>
      </trkpt>
      <trkpt lat="49.82112" lon="4.78914">
        <ele>205</ele>
        <time>2022-06-17T13:34:34.000Z</time>
      </trkpt>
      <trkpt lat="49.82113" lon="4.78914">
        <ele>205</ele>
        <time>2022-06-17T13:34:35.000Z</time>
      </trkpt>
      <trkpt lat="49.82113" lon="4.78914">
        <ele>205</ele>
        <time>2022-06-17T13:34:36.000Z</time>
      </trkpt>
      <trkpt lat="49.82113" lon="4.78914">
        <ele>205</ele>
        <time>2022-06-17T13:34:37.000Z</time>
      </trkpt>
      <trkpt lat="49.82113" lon="4.78914">
        <ele>205</ele>
        <time>2022-06-17T13:34:38.000Z</time>
      </trkpt>
      <trkpt lat="49.82113" lon="4.78914">
        <ele>205</ele>
        <time>2022-06-17T13:34:39.000Z</time>
      </trkpt>
      <trkpt lat="49.82113" lon="4.78914">
        <ele>205</ele>
        <time>2022-06-17T13:34:40.000Z</time>
      </trkpt>
      <trkpt lat="49.82113" lon="4.78915">
        <ele>205</ele>
        <time>2022-06-17T13:34:41.000Z</time>
      </trkpt>
      <trkpt lat="49.82113" lon="4.78915">
        <ele>205</ele>
        <time>2022-06-17T13:34:42.000Z</time>
      </trkpt>
      <trkpt lat="49.82113" lon="4.78915">
        <ele>205</ele>
        <time>2022-06-17T13:34:43.000Z</time>
      </trkpt>
      <trkpt lat="49.82113" lon="4.78915">
        <ele>205</ele>
        <time>2022-06-17T13:34:44.000Z</time>
      </trkpt>
      <trkpt lat="49.82113" lon="4.78915">
        <ele>205</ele>
        <time>2022-06-17T13:34:45.000Z</time>
      </trkpt>
      <trkpt lat="49.82113" lon="4.78915">
        <ele>205</ele>
        <time>2022-06-17T13:34:46.000Z</time>
      </trkpt>
      <trkpt lat="49.82113" lon="4.78915">
        <ele>205</ele>
        <time>2022-06-17T13:34:47.000Z</time>
      </trkpt>
      <trkpt lat="49.82113" lon="4.78914">
        <ele>205</ele>
        <time>2022-06-17T13:34:48.000Z</time>
      </trkpt>
      <trkpt lat="49.82113" lon="4.78915">
        <ele>205</ele>
        <time>2022-06-17T13:34:49.000Z</time>
      </trkpt>
      <trkpt lat="49.82113" lon="4.78915">
        <ele>205</ele>
        <time>2022-06-17T13:34:50.000Z</time>
      </trkpt>
      <trkpt lat="49.82113" lon="4.78915">
        <ele>205</ele>
        <time>2022-06-17T13:34:51.000Z</time>
      </trkpt>
      <trkpt lat="49.82114" lon="4.78915">
        <ele>205</ele>
        <time>2022-06-17T13:34:52.000Z</time>
      </trkpt>
      <trkpt lat="49.82114" lon="4.78915">
        <ele>205</ele>
        <time>2022-06-17T13:34:53.000Z</time>
      </trkpt>
      <trkpt lat="49.82114" lon="4.78915">
        <ele>205</ele>
        <time>2022-06-17T13:34:54.000Z</time>
      </trkpt>
      <trkpt lat="49.82114" lon="4.78915">
        <ele>205</ele>
        <time>2022-06-17T13:34:55.000Z</time>
      </trkpt>
      <trkpt lat="49.82114" lon="4.78915">
        <ele>205</ele>
        <time>2022-06-17T13:34:56.000Z</time>
      </trkpt>
      <trkpt lat="49.82114" lon="4.78915">
        <ele>205</ele>
        <time>2022-06-17T13:34:57.000Z</time>
      </trkpt>
      <trkpt lat="49.82113" lon="4.78915">
        <ele>205</ele>
        <time>2022-06-17T13:34:58.000Z</time>
      </trkpt>
      <trkpt lat="49.82114" lon="4.78915">
        <ele>205</ele>
        <time>2022-06-17T13:34:59.000Z</time>
      </trkpt>
      <trkpt lat="49.82113" lon="4.78915">
        <ele>205</ele>
        <time>2022-06-17T13:35:00.000Z</time>
      </trkpt>
      <trkpt lat="49.82114" lon="4.78915">
        <ele>205</ele>
        <time>2022-06-17T13:35:01.000Z</time>
      </trkpt>
      <trkpt lat="49.82114" lon="4.78914">
        <ele>205</ele>
        <time>2022-06-17T13:35:02.000Z</time>
      </trkpt>
      <trkpt lat="49.82114" lon="4.78914">
        <ele>204</ele>
        <time>2022-06-17T13:35:03.000Z</time>
      </trkpt>
      <trkpt lat="49.82114" lon="4.78914">
        <ele>204</ele>
        <time>2022-06-17T13:35:04.000Z</time>
      </trkpt>
      <trkpt lat="49.82114" lon="4.78914">
        <ele>204</ele>
        <time>2022-06-17T13:35:05.000Z</time>
      </trkpt>
      <trkpt lat="49.82113" lon="4.78914">
        <ele>204</ele>
        <time>2022-06-17T13:35:06.000Z</time>
      </trkpt>
      <trkpt lat="49.82113" lon="4.78914">
        <ele>204</ele>
        <time>2022-06-17T13:35:07.000Z</time>
      </trkpt>
      <trkpt lat="49.82113" lon="4.78914">
        <ele>204</ele>
        <time>2022-06-17T13:35:08.000Z</time>
      </trkpt>
      <trkpt lat="49.82113" lon="4.78914">
        <ele>204</ele>
        <time>2022-06-17T13:35:09.000Z</time>
      </trkpt>
      <trkpt lat="49.82113" lon="4.78914">
        <ele>204</ele>
        <time>2022-06-17T13:35:10.000Z</time>
      </trkpt>
      <trkpt lat="49.82113" lon="4.78914">
        <ele>204</ele>
        <time>2022-06-17T13:35:11.000Z</time>
      </trkpt>
      <trkpt lat="49.82113" lon="4.78914">
        <ele>204</ele>
        <time>2022-06-17T13:35:12.000Z</time>
      </trkpt>
      <trkpt lat="49.82113" lon="4.78914">
        <ele>204</ele>
        <time>2022-06-17T13:35:13.000Z</time>
      </trkpt>
      <trkpt lat="49.82113" lon="4.78914">
        <ele>204</ele>
        <time>2022-06-17T13:35:14.000Z</time>
      </trkpt>
      <trkpt lat="49.82113" lon="4.78914">
        <ele>205</ele>
        <time>2022-06-17T13:35:15.000Z</time>
      </trkpt>
      <trkpt lat="49.82113" lon="4.78914">
        <ele>205</ele>
        <time>2022-06-17T13:35:16.000Z</time>
      </trkpt>
      <trkpt lat="49.82113" lon="4.78914">
        <ele>205</ele>
        <time>2022-06-17T13:35:17.000Z</time>
      </trkpt>
      <trkpt lat="49.82113" lon="4.78914">
        <ele>205</ele>
        <time>2022-06-17T13:35:18.000Z</time>
      </trkpt>
      <trkpt lat="49.82113" lon="4.78914">
        <ele>205</ele>
        <time>2022-06-17T13:35:19.000Z</time>
      </trkpt>
      <trkpt lat="49.82113" lon="4.78914">
        <ele>205</ele>
        <time>2022-06-17T13:35:20.000Z</time>
      </trkpt>
      <trkpt lat="49.82113" lon="4.78914">
        <ele>205</ele>
        <time>2022-06-17T13:35:21.000Z</time>
      </trkpt>
      <trkpt lat="49.82113" lon="4.78914">
        <ele>205</ele>
        <time>2022-06-17T13:35:22.000Z</time>
      </trkpt>
      <trkpt lat="49.82113" lon="4.78914">
        <ele>205</ele>
        <time>2022-06-17T13:35:23.000Z</time>
      </trkpt>
      <trkpt lat="49.82113" lon="4.78914">
        <ele>205</ele>
        <time>2022-06-17T13:35:24.000Z</time>
      </trkpt>
      <trkpt lat="49.82112" lon="4.78914">
        <ele>205</ele>
        <time>2022-06-17T13:35:25.000Z</time>
      </trkpt>
      <trkpt lat="49.82112" lon="4.78914">
        <ele>205</ele>
        <time>2022-06-17T13:35:26.000Z</time>
      </trkpt>
      <trkpt lat="49.82112" lon="4.78914">
        <ele>205</ele>
        <time>2022-06-17T13:35:27.000Z</time>
      </trkpt>
      <trkpt lat="49.82112" lon="4.78913">
        <ele>205</ele>
        <time>2022-06-17T13:35:28.000Z</time>
      </trkpt>
      <trkpt lat="49.82112" lon="4.78913">
        <ele>205</ele>
        <time>2022-06-17T13:35:29.000Z</time>
      </trkpt>
      <trkpt lat="49.82112" lon="4.78913">
        <ele>205</ele>
        <time>2022-06-17T13:35:30.000Z</time>
      </trkpt>
      <trkpt lat="49.82112" lon="4.78913">
        <ele>205</ele>
        <time>2022-06-17T13:35:31.000Z</time>
      </trkpt>
      <trkpt lat="49.82112" lon="4.78913">
        <ele>205</ele>
        <time>2022-06-17T13:35:32.000Z</time>
      </trkpt>
      <trkpt lat="49.82112" lon="4.78913">
        <ele>205</ele>
        <time>2022-06-17T13:35:33.000Z</time>
      </trkpt>
      <trkpt lat="49.82112" lon="4.78913">
        <ele>205</ele>
        <time>2022-06-17T13:35:34.000Z</time>
      </trkpt>
      <trkpt lat="49.82112" lon="4.78913">
        <ele>205</ele>
        <time>2022-06-17T13:35:35.000Z</time>
      </trkpt>
      <trkpt lat="49.82112" lon="4.78913">
        <ele>205</ele>
        <time>2022-06-17T13:35:36.000Z</time>
      </trkpt>
      <trkpt lat="49.82112" lon="4.78913">
        <ele>205</ele>
        <time>2022-06-17T13:35:37.000Z</time>
      </trkpt>
      <trkpt lat="49.82112" lon="4.78912">
        <ele>205</ele>
        <time>2022-06-17T13:35:38.000Z</time>
      </trkpt>
      <trkpt lat="49.82112" lon="4.78912">
        <ele>205</ele>
        <time>2022-06-17T13:35:39.000Z</time>
      </trkpt>
      <trkpt lat="49.82112" lon="4.78912">
        <ele>205</ele>
        <time>2022-06-17T13:35:40.000Z</time>
      </trkpt>
      <trkpt lat="49.82112" lon="4.78912">
        <ele>205</ele>
        <time>2022-06-17T13:35:41.000Z</time>
      </trkpt>
      <trkpt lat="49.82112" lon="4.78912">
        <ele>205</ele>
        <time>2022-06-17T13:35:42.000Z</time>
      </trkpt>
      <trkpt lat="49.82112" lon="4.78912">
        <ele>205</ele>
        <time>2022-06-17T13:35:43.000Z</time>
      </trkpt>
      <trkpt lat="49.82112" lon="4.78912">
        <ele>205</ele>
        <time>2022-06-17T13:35:44.000Z</time>
      </trkpt>
      <trkpt lat="49.82112" lon="4.78912">
        <ele>205</ele>
        <time>2022-06-17T13:35:45.000Z</time>
      </trkpt>
      <trkpt lat="49.82112" lon="4.78911">
        <ele>205</ele>
        <time>2022-06-17T13:35:46.000Z</time>
      </trkpt>
      <trkpt lat="49.82112" lon="4.78912">
        <ele>205</ele>
        <time>2022-06-17T13:35:47.000Z</time>
      </trkpt>
      <trkpt lat="49.82112" lon="4.78912">
        <ele>205</ele>
        <time>2022-06-17T13:35:48.000Z</time>
      </trkpt>
      <trkpt lat="49.82112" lon="4.78912">
        <ele>205</ele>
        <time>2022-06-17T13:35:49.000Z</time>
      </trkpt>
      <trkpt lat="49.82112" lon="4.78912">
        <ele>205</ele>
        <time>2022-06-17T13:35:50.000Z</time>
      </trkpt>
      <trkpt lat="49.82112" lon="4.78912">
        <ele>205</ele>
        <time>2022-06-17T13:35:51.000Z</time>
      </trkpt>
      <trkpt lat="49.82112" lon="4.78912">
        <ele>205</ele>
        <time>2022-06-17T13:35:52.000Z</time>
      </trkpt>
      <trkpt lat="49.82112" lon="4.78912">
        <ele>205</ele>
        <time>2022-06-17T13:35:53.000Z</time>
      </trkpt>
      <trkpt lat="49.82112" lon="4.78912">
        <ele>205</ele>
        <time>2022-06-17T13:35:54.000Z</time>
      </trkpt>
      <trkpt lat="49.82112" lon="4.78912">
        <ele>205</ele>
        <time>2022-06-17T13:35:55.000Z</time>
      </trkpt>
      <trkpt lat="49.82112" lon="4.78912">
        <ele>205</ele>
        <time>2022-06-17T13:35:56.000Z</time>
      </trkpt>
      <trkpt lat="49.82112" lon="4.78912">
        <ele>205</ele>
        <time>2022-06-17T13:35:57.000Z</time>
      </trkpt>
      <trkpt lat="49.82112" lon="4.78912">
        <ele>205</ele>
        <time>2022-06-17T13:35:58.000Z</time>
      </trkpt>
      <trkpt lat="49.82112" lon="4.78912">
        <ele>205</ele>
        <time>2022-06-17T13:35:59.000Z</time>
      </trkpt>
      <trkpt lat="49.82112" lon="4.78912">
        <ele>205</ele>
        <time>2022-06-17T13:36:00.000Z</time>
      </trkpt>
      <trkpt lat="49.82112" lon="4.78912">
        <ele>205</ele>
        <time>2022-06-17T13:36:01.000Z</time>
      </trkpt>
      <trkpt lat="49.82112" lon="4.78912">
        <ele>205</ele>
        <time>2022-06-17T13:36:02.000Z</time>
      </trkpt>
      <trkpt lat="49.82112" lon="4.78912">
        <ele>205</ele>
        <time>2022-06-17T13:36:03.000Z</time>
      </trkpt>
      <trkpt lat="49.82112" lon="4.78912">
        <ele>205</ele>
        <time>2022-06-17T13:36:04.000Z</time>
      </trkpt>
      <trkpt lat="49.82112" lon="4.78912">
        <ele>205</ele>
        <time>2022-06-17T13:36:05.000Z</time>
      </trkpt>
      <trkpt lat="49.82112" lon="4.78912">
        <ele>205</ele>
        <time>2022-06-17T13:36:06.000Z</time>
      </trkpt>
      <trkpt lat="49.82112" lon="4.78912">
        <ele>205</ele>
        <time>2022-06-17T13:36:07.000Z</time>
      </trkpt>
      <trkpt lat="49.82112" lon="4.78912">
        <ele>205</ele>
        <time>2022-06-17T13:36:08.000Z</time>
      </trkpt>
      <trkpt lat="49.82112" lon="4.78912">
        <ele>205</ele>
        <time>2022-06-17T13:36:09.000Z</time>
      </trkpt>
      <trkpt lat="49.82112" lon="4.78911">
        <ele>205</ele>
        <time>2022-06-17T13:36:10.000Z</time>
      </trkpt>
      <trkpt lat="49.82111" lon="4.78911">
        <ele>205</ele>
        <time>2022-06-17T13:36:11.000Z</time>
      </trkpt>
      <trkpt lat="49.82111" lon="4.78911">
        <ele>205</ele>
        <time>2022-06-17T13:36:12.000Z</time>
      </trkpt>
      <trkpt lat="49.82111" lon="4.78911">
        <ele>205</ele>
        <time>2022-06-17T13:36:13.000Z</time>
      </trkpt>
      <trkpt lat="49.82111" lon="4.78911">
        <ele>205</ele>
        <time>2022-06-17T13:36:14.000Z</time>
      </trkpt>
      <trkpt lat="49.82111" lon="4.78911">
        <ele>205</ele>
        <time>2022-06-17T13:36:15.000Z</time>
      </trkpt>
      <trkpt lat="49.82111" lon="4.78911">
        <ele>205</ele>
        <time>2022-06-17T13:36:16.000Z</time>
      </trkpt>
      <trkpt lat="49.82111" lon="4.78911">
        <ele>205</ele>
        <time>2022-06-17T13:36:17.000Z</time>
      </trkpt>
      <trkpt lat="49.82111" lon="4.78911">
        <ele>205</ele>
        <time>2022-06-17T13:36:18.000Z</time>
      </trkpt>
      <trkpt lat="49.82111" lon="4.78911">
        <ele>205</ele>
        <time>2022-06-17T13:36:19.000Z</time>
      </trkpt>
      <trkpt lat="49.82111" lon="4.78911">
        <ele>205</ele>
        <time>2022-06-17T13:36:20.000Z</time>
      </trkpt>
      <trkpt lat="49.82111" lon="4.78911">
        <ele>205</ele>
        <time>2022-06-17T13:36:21.000Z</time>
      </trkpt>
      <trkpt lat="49.82111" lon="4.78911">
        <ele>205</ele>
        <time>2022-06-17T13:36:22.000Z</time>
      </trkpt>
      <trkpt lat="49.82111" lon="4.78911">
        <ele>206</ele>
        <time>2022-06-17T13:36:23.000Z</time>
      </trkpt>
      <trkpt lat="49.82111" lon="4.78911">
        <ele>206</ele>
        <time>2022-06-17T13:36:24.000Z</time>
      </trkpt>
      <trkpt lat="49.82111" lon="4.78911">
        <ele>206</ele>
        <time>2022-06-17T13:36:25.000Z</time>
      </trkpt>
      <trkpt lat="49.82111" lon="4.78911">
        <ele>206</ele>
        <time>2022-06-17T13:36:26.000Z</time>
      </trkpt>
      <trkpt lat="49.82111" lon="4.78911">
        <ele>206</ele>
        <time>2022-06-17T13:36:27.000Z</time>
      </trkpt>
      <trkpt lat="49.82111" lon="4.78911">
        <ele>206</ele>
        <time>2022-06-17T13:36:28.000Z</time>
      </trkpt>
      <trkpt lat="49.82111" lon="4.78911">
        <ele>206</ele>
        <time>2022-06-17T13:36:29.000Z</time>
      </trkpt>
      <trkpt lat="49.82111" lon="4.78911">
        <ele>206</ele>
        <time>2022-06-17T13:36:30.000Z</time>
      </trkpt>
      <trkpt lat="49.82111" lon="4.78911">
        <ele>206</ele>
        <time>2022-06-17T13:36:31.000Z</time>
      </trkpt>
      <trkpt lat="49.82111" lon="4.78911">
        <ele>206</ele>
        <time>2022-06-17T13:36:32.000Z</time>
      </trkpt>
      <trkpt lat="49.82111" lon="4.78911">
        <ele>206</ele>
        <time>2022-06-17T13:36:33.000Z</time>
      </trkpt>
      <trkpt lat="49.82111" lon="4.78911">
        <ele>206</ele>
        <time>2022-06-17T13:36:34.000Z</time>
      </trkpt>
      <trkpt lat="49.82111" lon="4.7891">
        <ele>206</ele>
        <time>2022-06-17T13:36:35.000Z</time>
      </trkpt>
      <trkpt lat="49.82111" lon="4.78911">
        <ele>206</ele>
        <time>2022-06-17T13:36:36.000Z</time>
      </trkpt>
      <trkpt lat="49.82111" lon="4.78911">
        <ele>206</ele>
        <time>2022-06-17T13:36:37.000Z</time>
      </trkpt>
      <trkpt lat="49.82111" lon="4.7891">
        <ele>206</ele>
        <time>2022-06-17T13:36:38.000Z</time>
      </trkpt>
      <trkpt lat="49.82111" lon="4.7891">
        <ele>206</ele>
        <time>2022-06-17T13:36:39.000Z</time>
      </trkpt>
      <trkpt lat="49.82111" lon="4.7891">
        <ele>206</ele>
        <time>2022-06-17T13:36:40.000Z</time>
      </trkpt>
      <trkpt lat="49.82111" lon="4.7891">
        <ele>206</ele>
        <time>2022-06-17T13:36:41.000Z</time>
      </trkpt>
      <trkpt lat="49.82112" lon="4.7891">
        <ele>206</ele>
        <time>2022-06-17T13:36:42.000Z</time>
      </trkpt>
      <trkpt lat="49.82112" lon="4.78911">
        <ele>206</ele>
        <time>2022-06-17T13:36:43.000Z</time>
      </trkpt>
      <trkpt lat="49.82113" lon="4.78911">
        <ele>206</ele>
        <time>2022-06-17T13:36:44.000Z</time>
      </trkpt>
      <trkpt lat="49.82113" lon="4.78911">
        <ele>206</ele>
        <time>2022-06-17T13:36:45.000Z</time>
      </trkpt>
      <trkpt lat="49.82114" lon="4.78911">
        <ele>206</ele>
        <time>2022-06-17T13:36:46.000Z</time>
      </trkpt>
      <trkpt lat="49.82115" lon="4.78913">
        <ele>206</ele>
        <time>2022-06-17T13:36:47.000Z</time>
      </trkpt>
      <trkpt lat="49.82116" lon="4.78914">
        <ele>206</ele>
        <time>2022-06-17T13:36:48.000Z</time>
      </trkpt>
      <trkpt lat="49.82118" lon="4.78918">
        <ele>206</ele>
        <time>2022-06-17T13:36:49.000Z</time>
      </trkpt>
      <trkpt lat="49.82119" lon="4.78921">
        <ele>206</ele>
        <time>2022-06-17T13:36:50.000Z</time>
      </trkpt>
      <trkpt lat="49.82121" lon="4.78925">
        <ele>206</ele>
        <time>2022-06-17T13:36:51.000Z</time>
      </trkpt>
      <trkpt lat="49.82124" lon="4.78929">
        <ele>206</ele>
        <time>2022-06-17T13:36:52.000Z</time>
      </trkpt>
      <trkpt lat="49.82127" lon="4.78934">
        <ele>206</ele>
        <time>2022-06-17T13:36:53.000Z</time>
      </trkpt>
      <trkpt lat="49.8213" lon="4.78938">
        <ele>206</ele>
        <time>2022-06-17T13:36:54.000Z</time>
      </trkpt>
      <trkpt lat="49.82133" lon="4.78941">
        <ele>206</ele>
        <time>2022-06-17T13:36:55.000Z</time>
      </trkpt>
      <trkpt lat="49.82135" lon="4.78945">
        <ele>205</ele>
        <time>2022-06-17T13:36:56.000Z</time>
      </trkpt>
      <trkpt lat="49.82137" lon="4.78949">
        <ele>205</ele>
        <time>2022-06-17T13:36:57.000Z</time>
      </trkpt>
      <trkpt lat="49.8214" lon="4.78952">
        <ele>205</ele>
        <time>2022-06-17T13:36:58.000Z</time>
      </trkpt>
      <trkpt lat="49.82143" lon="4.78956">
        <ele>205</ele>
        <time>2022-06-17T13:36:59.000Z</time>
      </trkpt>
      <trkpt lat="49.82146" lon="4.78962">
        <ele>205</ele>
        <time>2022-06-17T13:37:00.000Z</time>
      </trkpt>
      <trkpt lat="49.82149" lon="4.78967">
        <ele>205</ele>
        <time>2022-06-17T13:37:01.000Z</time>
      </trkpt>
      <trkpt lat="49.82153" lon="4.78973">
        <ele>205</ele>
        <time>2022-06-17T13:37:02.000Z</time>
      </trkpt>
      <trkpt lat="49.82157" lon="4.78978">
        <ele>205</ele>
        <time>2022-06-17T13:37:03.000Z</time>
      </trkpt>
      <trkpt lat="49.82161" lon="4.78984">
        <ele>205</ele>
        <time>2022-06-17T13:37:04.000Z</time>
      </trkpt>
      <trkpt lat="49.82165" lon="4.78989">
        <ele>205</ele>
        <time>2022-06-17T13:37:05.000Z</time>
      </trkpt>
      <trkpt lat="49.8217" lon="4.78994">
        <ele>205</ele>
        <time>2022-06-17T13:37:06.000Z</time>
      </trkpt>
      <trkpt lat="49.82174" lon="4.78999">
        <ele>205</ele>
        <time>2022-06-17T13:37:07.000Z</time>
      </trkpt>
      <trkpt lat="49.82179" lon="4.79003">
        <ele>205</ele>
        <time>2022-06-17T13:37:08.000Z</time>
      </trkpt>
      <trkpt lat="49.82184" lon="4.79006">
        <ele>205</ele>
        <time>2022-06-17T13:37:09.000Z</time>
      </trkpt>
      <trkpt lat="49.82189" lon="4.79008">
        <ele>205</ele>
        <time>2022-06-17T13:37:10.000Z</time>
      </trkpt>
      <trkpt lat="49.82194" lon="4.7901">
        <ele>205</ele>
        <time>2022-06-17T13:37:11.000Z</time>
      </trkpt>
      <trkpt lat="49.822" lon="4.79012">
        <ele>204</ele>
        <time>2022-06-17T13:37:12.000Z</time>
      </trkpt>
      <trkpt lat="49.82205" lon="4.79013">
        <ele>204</ele>
        <time>2022-06-17T13:37:13.000Z</time>
      </trkpt>
      <trkpt lat="49.82211" lon="4.79014">
        <ele>204</ele>
        <time>2022-06-17T13:37:14.000Z</time>
      </trkpt>
      <trkpt lat="49.82217" lon="4.79015">
        <ele>204</ele>
        <time>2022-06-17T13:37:15.000Z</time>
      </trkpt>
      <trkpt lat="49.82223" lon="4.79016">
        <ele>204</ele>
        <time>2022-06-17T13:37:16.000Z</time>
      </trkpt>
      <trkpt lat="49.82229" lon="4.79017">
        <ele>204</ele>
        <time>2022-06-17T13:37:17.000Z</time>
      </trkpt>
      <trkpt lat="49.82236" lon="4.79018">
        <ele>204</ele>
        <time>2022-06-17T13:37:18.000Z</time>
      </trkpt>
      <trkpt lat="49.82243" lon="4.7902">
        <ele>204</ele>
        <time>2022-06-17T13:37:19.000Z</time>
      </trkpt>
      <trkpt lat="49.8225" lon="4.79022">
        <ele>204</ele>
        <time>2022-06-17T13:37:20.000Z</time>
      </trkpt>
      <trkpt lat="49.82256" lon="4.79025">
        <ele>204</ele>
        <time>2022-06-17T13:37:21.000Z</time>
      </trkpt>
      <trkpt lat="49.82262" lon="4.79027">
        <ele>204</ele>
        <time>2022-06-17T13:37:22.000Z</time>
      </trkpt>
      <trkpt lat="49.82268" lon="4.7903">
        <ele>204</ele>
        <time>2022-06-17T13:37:23.000Z</time>
      </trkpt>
      <trkpt lat="49.82273" lon="4.79032">
        <ele>204</ele>
        <time>2022-06-17T13:37:24.000Z</time>
      </trkpt>
      <trkpt lat="49.82278" lon="4.79035">
        <ele>204</ele>
        <time>2022-06-17T13:37:25.000Z</time>
      </trkpt>
      <trkpt lat="49.82284" lon="4.79037">
        <ele>204</ele>
        <time>2022-06-17T13:37:26.000Z</time>
      </trkpt>
      <trkpt lat="49.82289" lon="4.7904">
        <ele>204</ele>
        <time>2022-06-17T13:37:27.000Z</time>
      </trkpt>
      <trkpt lat="49.82295" lon="4.79042">
        <ele>204</ele>
        <time>2022-06-17T13:37:28.000Z</time>
      </trkpt>
      <trkpt lat="49.823" lon="4.79044">
        <ele>204</ele>
        <time>2022-06-17T13:37:29.000Z</time>
      </trkpt>
      <trkpt lat="49.82306" lon="4.79046">
        <ele>204</ele>
        <time>2022-06-17T13:37:30.000Z</time>
      </trkpt>
      <trkpt lat="49.82312" lon="4.79048">
        <ele>204</ele>
        <time>2022-06-17T13:37:31.000Z</time>
      </trkpt>
      <trkpt lat="49.82318" lon="4.7905">
        <ele>204</ele>
        <time>2022-06-17T13:37:32.000Z</time>
      </trkpt>
      <trkpt lat="49.82323" lon="4.79052">
        <ele>204</ele>
        <time>2022-06-17T13:37:33.000Z</time>
      </trkpt>
      <trkpt lat="49.8233" lon="4.79053">
        <ele>203</ele>
        <time>2022-06-17T13:37:34.000Z</time>
      </trkpt>
      <trkpt lat="49.82335" lon="4.79055">
        <ele>203</ele>
        <time>2022-06-17T13:37:35.000Z</time>
      </trkpt>
      <trkpt lat="49.82341" lon="4.79056">
        <ele>203</ele>
        <time>2022-06-17T13:37:36.000Z</time>
      </trkpt>
      <trkpt lat="49.82348" lon="4.79057">
        <ele>203</ele>
        <time>2022-06-17T13:37:37.000Z</time>
      </trkpt>
      <trkpt lat="49.82355" lon="4.79058">
        <ele>203</ele>
        <time>2022-06-17T13:37:38.000Z</time>
      </trkpt>
      <trkpt lat="49.82361" lon="4.79058">
        <ele>203</ele>
        <time>2022-06-17T13:37:39.000Z</time>
      </trkpt>
      <trkpt lat="49.82368" lon="4.79058">
        <ele>203</ele>
        <time>2022-06-17T13:37:40.000Z</time>
      </trkpt>
      <trkpt lat="49.82373" lon="4.79059">
        <ele>204</ele>
        <time>2022-06-17T13:37:41.000Z</time>
      </trkpt>
      <trkpt lat="49.82379" lon="4.7906">
        <ele>204</ele>
        <time>2022-06-17T13:37:42.000Z</time>
      </trkpt>
      <trkpt lat="49.82385" lon="4.79061">
        <ele>204</ele>
        <time>2022-06-17T13:37:43.000Z</time>
      </trkpt>
      <trkpt lat="49.8239" lon="4.79062">
        <ele>204</ele>
        <time>2022-06-17T13:37:44.000Z</time>
      </trkpt>
      <trkpt lat="49.82396" lon="4.79064">
        <ele>204</ele>
        <time>2022-06-17T13:37:45.000Z</time>
      </trkpt>
      <trkpt lat="49.82402" lon="4.79067">
        <ele>204</ele>
        <time>2022-06-17T13:37:46.000Z</time>
      </trkpt>
      <trkpt lat="49.82407" lon="4.79069">
        <ele>204</ele>
        <time>2022-06-17T13:37:47.000Z</time>
      </trkpt>
      <trkpt lat="49.82413" lon="4.79071">
        <ele>204</ele>
        <time>2022-06-17T13:37:48.000Z</time>
      </trkpt>
      <trkpt lat="49.82418" lon="4.79074">
        <ele>204</ele>
        <time>2022-06-17T13:37:49.000Z</time>
      </trkpt>
      <trkpt lat="49.82424" lon="4.79075">
        <ele>204</ele>
        <time>2022-06-17T13:37:50.000Z</time>
      </trkpt>
      <trkpt lat="49.8243" lon="4.79077">
        <ele>204</ele>
        <time>2022-06-17T13:37:51.000Z</time>
      </trkpt>
      <trkpt lat="49.82435" lon="4.79079">
        <ele>204</ele>
        <time>2022-06-17T13:37:52.000Z</time>
      </trkpt>
      <trkpt lat="49.82441" lon="4.7908">
        <ele>204</ele>
        <time>2022-06-17T13:37:53.000Z</time>
      </trkpt>
      <trkpt lat="49.82446" lon="4.79081">
        <ele>204</ele>
        <time>2022-06-17T13:37:54.000Z</time>
      </trkpt>
      <trkpt lat="49.82452" lon="4.7908">
        <ele>204</ele>
        <time>2022-06-17T13:37:55.000Z</time>
      </trkpt>
      <trkpt lat="49.82458" lon="4.79079">
        <ele>204</ele>
        <time>2022-06-17T13:37:56.000Z</time>
      </trkpt>
      <trkpt lat="49.82464" lon="4.79076">
        <ele>204</ele>
        <time>2022-06-17T13:37:57.000Z</time>
      </trkpt>
      <trkpt lat="49.8247" lon="4.79073">
        <ele>204</ele>
        <time>2022-06-17T13:37:58.000Z</time>
      </trkpt>
      <trkpt lat="49.82476" lon="4.79071">
        <ele>204</ele>
        <time>2022-06-17T13:37:59.000Z</time>
      </trkpt>
      <trkpt lat="49.82482" lon="4.7907">
        <ele>204</ele>
        <time>2022-06-17T13:38:00.000Z</time>
      </trkpt>
      <trkpt lat="49.82487" lon="4.79069">
        <ele>204</ele>
        <time>2022-06-17T13:38:01.000Z</time>
      </trkpt>
      <trkpt lat="49.82493" lon="4.79068">
        <ele>205</ele>
        <time>2022-06-17T13:38:02.000Z</time>
      </trkpt>
      <trkpt lat="49.82498" lon="4.79069">
        <ele>205</ele>
        <time>2022-06-17T13:38:03.000Z</time>
      </trkpt>
      <trkpt lat="49.82504" lon="4.7907">
        <ele>205</ele>
        <time>2022-06-17T13:38:04.000Z</time>
      </trkpt>
      <trkpt lat="49.8251" lon="4.79071">
        <ele>205</ele>
        <time>2022-06-17T13:38:05.000Z</time>
      </trkpt>
      <trkpt lat="49.82516" lon="4.79072">
        <ele>206</ele>
        <time>2022-06-17T13:38:06.000Z</time>
      </trkpt>
      <trkpt lat="49.82522" lon="4.79073">
        <ele>206</ele>
        <time>2022-06-17T13:38:07.000Z</time>
      </trkpt>
      <trkpt lat="49.82528" lon="4.79075">
        <ele>206</ele>
        <time>2022-06-17T13:38:08.000Z</time>
      </trkpt>
      <trkpt lat="49.82534" lon="4.79077">
        <ele>206</ele>
        <time>2022-06-17T13:38:09.000Z</time>
      </trkpt>
      <trkpt lat="49.82541" lon="4.79078">
        <ele>206</ele>
        <time>2022-06-17T13:38:10.000Z</time>
      </trkpt>
      <trkpt lat="49.82548" lon="4.79078">
        <ele>206</ele>
        <time>2022-06-17T13:38:11.000Z</time>
      </trkpt>
      <trkpt lat="49.82555" lon="4.7908">
        <ele>207</ele>
        <time>2022-06-17T13:38:12.000Z</time>
      </trkpt>
      <trkpt lat="49.82561" lon="4.79081">
        <ele>207</ele>
        <time>2022-06-17T13:38:13.000Z</time>
      </trkpt>
      <trkpt lat="49.82567" lon="4.79082">
        <ele>207</ele>
        <time>2022-06-17T13:38:14.000Z</time>
      </trkpt>
      <trkpt lat="49.82572" lon="4.79083">
        <ele>207</ele>
        <time>2022-06-17T13:38:15.000Z</time>
      </trkpt>
      <trkpt lat="49.82578" lon="4.79084">
        <ele>207</ele>
        <time>2022-06-17T13:38:16.000Z</time>
      </trkpt>
      <trkpt lat="49.82584" lon="4.79086">
        <ele>207</ele>
        <time>2022-06-17T13:38:17.000Z</time>
      </trkpt>
      <trkpt lat="49.8259" lon="4.79087">
        <ele>207</ele>
        <time>2022-06-17T13:38:18.000Z</time>
      </trkpt>
      <trkpt lat="49.82596" lon="4.79089">
        <ele>207</ele>
        <time>2022-06-17T13:38:19.000Z</time>
      </trkpt>
      <trkpt lat="49.82602" lon="4.7909">
        <ele>206</ele>
        <time>2022-06-17T13:38:20.000Z</time>
      </trkpt>
      <trkpt lat="49.82608" lon="4.79093">
        <ele>206</ele>
        <time>2022-06-17T13:38:21.000Z</time>
      </trkpt>
      <trkpt lat="49.82614" lon="4.79095">
        <ele>206</ele>
        <time>2022-06-17T13:38:22.000Z</time>
      </trkpt>
      <trkpt lat="49.8262" lon="4.79098">
        <ele>206</ele>
        <time>2022-06-17T13:38:23.000Z</time>
      </trkpt>
      <trkpt lat="49.82626" lon="4.79101">
        <ele>206</ele>
        <time>2022-06-17T13:38:24.000Z</time>
      </trkpt>
      <trkpt lat="49.82632" lon="4.79105">
        <ele>206</ele>
        <time>2022-06-17T13:38:25.000Z</time>
      </trkpt>
      <trkpt lat="49.82638" lon="4.79108">
        <ele>206</ele>
        <time>2022-06-17T13:38:26.000Z</time>
      </trkpt>
      <trkpt lat="49.82644" lon="4.7911">
        <ele>206</ele>
        <time>2022-06-17T13:38:27.000Z</time>
      </trkpt>
      <trkpt lat="49.8265" lon="4.79112">
        <ele>206</ele>
        <time>2022-06-17T13:38:28.000Z</time>
      </trkpt>
      <trkpt lat="49.82655" lon="4.79113">
        <ele>206</ele>
        <time>2022-06-17T13:38:29.000Z</time>
      </trkpt>
      <trkpt lat="49.8266" lon="4.79114">
        <ele>206</ele>
        <time>2022-06-17T13:38:30.000Z</time>
      </trkpt>
      <trkpt lat="49.82665" lon="4.79115">
        <ele>206</ele>
        <time>2022-06-17T13:38:31.000Z</time>
      </trkpt>
      <trkpt lat="49.82669" lon="4.79116">
        <ele>206</ele>
        <time>2022-06-17T13:38:32.000Z</time>
      </trkpt>
      <trkpt lat="49.82674" lon="4.79116">
        <ele>206</ele>
        <time>2022-06-17T13:38:33.000Z</time>
      </trkpt>
      <trkpt lat="49.82679" lon="4.79116">
        <ele>206</ele>
        <time>2022-06-17T13:38:34.000Z</time>
      </trkpt>
      <trkpt lat="49.82683" lon="4.79115">
        <ele>206</ele>
        <time>2022-06-17T13:38:35.000Z</time>
      </trkpt>
      <trkpt lat="49.82689" lon="4.79116">
        <ele>206</ele>
        <time>2022-06-17T13:38:36.000Z</time>
      </trkpt>
      <trkpt lat="49.82694" lon="4.79117">
        <ele>206</ele>
        <time>2022-06-17T13:38:37.000Z</time>
      </trkpt>
      <trkpt lat="49.82699" lon="4.79118">
        <ele>206</ele>
        <time>2022-06-17T13:38:38.000Z</time>
      </trkpt>
      <trkpt lat="49.82704" lon="4.79121">
        <ele>206</ele>
        <time>2022-06-17T13:38:39.000Z</time>
      </trkpt>
      <trkpt lat="49.82709" lon="4.79124">
        <ele>206</ele>
        <time>2022-06-17T13:38:40.000Z</time>
      </trkpt>
      <trkpt lat="49.82714" lon="4.79128">
        <ele>206</ele>
        <time>2022-06-17T13:38:41.000Z</time>
      </trkpt>
      <trkpt lat="49.8272" lon="4.79132">
        <ele>206</ele>
        <time>2022-06-17T13:38:42.000Z</time>
      </trkpt>
      <trkpt lat="49.82725" lon="4.79136">
        <ele>206</ele>
        <time>2022-06-17T13:38:43.000Z</time>
      </trkpt>
      <trkpt lat="49.8273" lon="4.7914">
        <ele>206</ele>
        <time>2022-06-17T13:38:44.000Z</time>
      </trkpt>
      <trkpt lat="49.82736" lon="4.79144">
        <ele>206</ele>
        <time>2022-06-17T13:38:45.000Z</time>
      </trkpt>
      <trkpt lat="49.82741" lon="4.79149">
        <ele>206</ele>
        <time>2022-06-17T13:38:46.000Z</time>
      </trkpt>
      <trkpt lat="49.82746" lon="4.79153">
        <ele>206</ele>
        <time>2022-06-17T13:38:47.000Z</time>
      </trkpt>
      <trkpt lat="49.82752" lon="4.79157">
        <ele>206</ele>
        <time>2022-06-17T13:38:48.000Z</time>
      </trkpt>
      <trkpt lat="49.82757" lon="4.79161">
        <ele>206</ele>
        <time>2022-06-17T13:38:49.000Z</time>
      </trkpt>
      <trkpt lat="49.82762" lon="4.79165">
        <ele>206</ele>
        <time>2022-06-17T13:38:50.000Z</time>
      </trkpt>
      <trkpt lat="49.82767" lon="4.7917">
        <ele>206</ele>
        <time>2022-06-17T13:38:51.000Z</time>
      </trkpt>
      <trkpt lat="49.82773" lon="4.79175">
        <ele>206</ele>
        <time>2022-06-17T13:38:52.000Z</time>
      </trkpt>
      <trkpt lat="49.82777" lon="4.7918">
        <ele>205</ele>
        <time>2022-06-17T13:38:53.000Z</time>
      </trkpt>
      <trkpt lat="49.82782" lon="4.79186">
        <ele>205</ele>
        <time>2022-06-17T13:38:54.000Z</time>
      </trkpt>
      <trkpt lat="49.82786" lon="4.79193">
        <ele>205</ele>
        <time>2022-06-17T13:38:55.000Z</time>
      </trkpt>
      <trkpt lat="49.8279" lon="4.792">
        <ele>205</ele>
        <time>2022-06-17T13:38:56.000Z</time>
      </trkpt>
      <trkpt lat="49.82794" lon="4.79207">
        <ele>205</ele>
        <time>2022-06-17T13:38:57.000Z</time>
      </trkpt>
      <trkpt lat="49.82797" lon="4.79214">
        <ele>205</ele>
        <time>2022-06-17T13:38:58.000Z</time>
      </trkpt>
      <trkpt lat="49.82801" lon="4.79221">
        <ele>205</ele>
        <time>2022-06-17T13:38:59.000Z</time>
      </trkpt>
      <trkpt lat="49.82804" lon="4.79227">
        <ele>205</ele>
        <time>2022-06-17T13:39:00.000Z</time>
      </trkpt>
      <trkpt lat="49.82808" lon="4.79234">
        <ele>204</ele>
        <time>2022-06-17T13:39:01.000Z</time>
      </trkpt>
      <trkpt lat="49.82811" lon="4.79241">
        <ele>204</ele>
        <time>2022-06-17T13:39:02.000Z</time>
      </trkpt>
      <trkpt lat="49.82815" lon="4.79248">
        <ele>204</ele>
        <time>2022-06-17T13:39:03.000Z</time>
      </trkpt>
      <trkpt lat="49.82819" lon="4.79254">
        <ele>204</ele>
        <time>2022-06-17T13:39:04.000Z</time>
      </trkpt>
      <trkpt lat="49.82823" lon="4.7926">
        <ele>204</ele>
        <time>2022-06-17T13:39:05.000Z</time>
      </trkpt>
      <trkpt lat="49.82827" lon="4.79266">
        <ele>204</ele>
        <time>2022-06-17T13:39:06.000Z</time>
      </trkpt>
      <trkpt lat="49.82831" lon="4.7927">
        <ele>203</ele>
        <time>2022-06-17T13:39:07.000Z</time>
      </trkpt>
      <trkpt lat="49.82836" lon="4.79274">
        <ele>203</ele>
        <time>2022-06-17T13:39:08.000Z</time>
      </trkpt>
      <trkpt lat="49.82841" lon="4.79279">
        <ele>203</ele>
        <time>2022-06-17T13:39:09.000Z</time>
      </trkpt>
      <trkpt lat="49.82846" lon="4.79283">
        <ele>203</ele>
        <time>2022-06-17T13:39:10.000Z</time>
      </trkpt>
      <trkpt lat="49.82851" lon="4.79288">
        <ele>203</ele>
        <time>2022-06-17T13:39:11.000Z</time>
      </trkpt>
      <trkpt lat="49.82855" lon="4.79293">
        <ele>203</ele>
        <time>2022-06-17T13:39:12.000Z</time>
      </trkpt>
      <trkpt lat="49.8286" lon="4.79299">
        <ele>203</ele>
        <time>2022-06-17T13:39:13.000Z</time>
      </trkpt>
      <trkpt lat="49.82864" lon="4.79305">
        <ele>203</ele>
        <time>2022-06-17T13:39:14.000Z</time>
      </trkpt>
      <trkpt lat="49.82868" lon="4.79311">
        <ele>203</ele>
        <time>2022-06-17T13:39:15.000Z</time>
      </trkpt>
      <trkpt lat="49.82871" lon="4.79317">
        <ele>203</ele>
        <time>2022-06-17T13:39:16.000Z</time>
      </trkpt>
      <trkpt lat="49.82874" lon="4.79323">
        <ele>203</ele>
        <time>2022-06-17T13:39:17.000Z</time>
      </trkpt>
      <trkpt lat="49.82876" lon="4.79328">
        <ele>203</ele>
        <time>2022-06-17T13:39:18.000Z</time>
      </trkpt>
      <trkpt lat="49.82879" lon="4.79333">
        <ele>203</ele>
        <time>2022-06-17T13:39:19.000Z</time>
      </trkpt>
      <trkpt lat="49.82881" lon="4.79338">
        <ele>203</ele>
        <time>2022-06-17T13:39:20.000Z</time>
      </trkpt>
      <trkpt lat="49.82884" lon="4.79343">
        <ele>203</ele>
        <time>2022-06-17T13:39:21.000Z</time>
      </trkpt>
      <trkpt lat="49.82887" lon="4.79348">
        <ele>203</ele>
        <time>2022-06-17T13:39:22.000Z</time>
      </trkpt>
      <trkpt lat="49.82889" lon="4.79354">
        <ele>203</ele>
        <time>2022-06-17T13:39:23.000Z</time>
      </trkpt>
      <trkpt lat="49.82891" lon="4.7936">
        <ele>203</ele>
        <time>2022-06-17T13:39:24.000Z</time>
      </trkpt>
      <trkpt lat="49.82894" lon="4.79365">
        <ele>203</ele>
        <time>2022-06-17T13:39:25.000Z</time>
      </trkpt>
      <trkpt lat="49.82896" lon="4.79371">
        <ele>203</ele>
        <time>2022-06-17T13:39:26.000Z</time>
      </trkpt>
      <trkpt lat="49.82898" lon="4.79377">
        <ele>203</ele>
        <time>2022-06-17T13:39:27.000Z</time>
      </trkpt>
      <trkpt lat="49.82901" lon="4.79383">
        <ele>203</ele>
        <time>2022-06-17T13:39:28.000Z</time>
      </trkpt>
      <trkpt lat="49.82902" lon="4.7939">
        <ele>203</ele>
        <time>2022-06-17T13:39:29.000Z</time>
      </trkpt>
      <trkpt lat="49.82904" lon="4.79396">
        <ele>203</ele>
        <time>2022-06-17T13:39:30.000Z</time>
      </trkpt>
      <trkpt lat="49.82906" lon="4.79402">
        <ele>203</ele>
        <time>2022-06-17T13:39:31.000Z</time>
      </trkpt>
      <trkpt lat="49.82908" lon="4.79408">
        <ele>203</ele>
        <time>2022-06-17T13:39:32.000Z</time>
      </trkpt>
      <trkpt lat="49.8291" lon="4.79414">
        <ele>203</ele>
        <time>2022-06-17T13:39:33.000Z</time>
      </trkpt>
      <trkpt lat="49.82912" lon="4.7942">
        <ele>203</ele>
        <time>2022-06-17T13:39:34.000Z</time>
      </trkpt>
      <trkpt lat="49.82914" lon="4.79425">
        <ele>203</ele>
        <time>2022-06-17T13:39:35.000Z</time>
      </trkpt>
      <trkpt lat="49.82917" lon="4.79431">
        <ele>203</ele>
        <time>2022-06-17T13:39:36.000Z</time>
      </trkpt>
      <trkpt lat="49.82919" lon="4.79436">
        <ele>203</ele>
        <time>2022-06-17T13:39:37.000Z</time>
      </trkpt>
      <trkpt lat="49.82921" lon="4.79442">
        <ele>203</ele>
        <time>2022-06-17T13:39:38.000Z</time>
      </trkpt>
      <trkpt lat="49.82924" lon="4.79446">
        <ele>204</ele>
        <time>2022-06-17T13:39:39.000Z</time>
      </trkpt>
      <trkpt lat="49.82927" lon="4.79451">
        <ele>204</ele>
        <time>2022-06-17T13:39:40.000Z</time>
      </trkpt>
      <trkpt lat="49.8293" lon="4.79455">
        <ele>204</ele>
        <time>2022-06-17T13:39:41.000Z</time>
      </trkpt>
      <trkpt lat="49.82933" lon="4.7946">
        <ele>204</ele>
        <time>2022-06-17T13:39:42.000Z</time>
      </trkpt>
      <trkpt lat="49.82936" lon="4.79463">
        <ele>204</ele>
        <time>2022-06-17T13:39:43.000Z</time>
      </trkpt>
      <trkpt lat="49.82939" lon="4.79465">
        <ele>204</ele>
        <time>2022-06-17T13:39:44.000Z</time>
      </trkpt>
      <trkpt lat="49.82942" lon="4.79467">
        <ele>205</ele>
        <time>2022-06-17T13:39:45.000Z</time>
      </trkpt>
      <trkpt lat="49.82945" lon="4.79469">
        <ele>205</ele>
        <time>2022-06-17T13:39:46.000Z</time>
      </trkpt>
      <trkpt lat="49.82948" lon="4.79471">
        <ele>205</ele>
        <time>2022-06-17T13:39:47.000Z</time>
      </trkpt>
      <trkpt lat="49.82952" lon="4.79473">
        <ele>205</ele>
        <time>2022-06-17T13:39:48.000Z</time>
      </trkpt>
      <trkpt lat="49.82956" lon="4.79474">
        <ele>206</ele>
        <time>2022-06-17T13:39:49.000Z</time>
      </trkpt>
      <trkpt lat="49.8296" lon="4.79475">
        <ele>206</ele>
        <time>2022-06-17T13:39:50.000Z</time>
      </trkpt>
      <trkpt lat="49.82964" lon="4.79476">
        <ele>206</ele>
        <time>2022-06-17T13:39:51.000Z</time>
      </trkpt>
      <trkpt lat="49.82967" lon="4.79477">
        <ele>206</ele>
        <time>2022-06-17T13:39:52.000Z</time>
      </trkpt>
      <trkpt lat="49.82972" lon="4.79478">
        <ele>207</ele>
        <time>2022-06-17T13:39:53.000Z</time>
      </trkpt>
      <trkpt lat="49.82976" lon="4.79479">
        <ele>207</ele>
        <time>2022-06-17T13:39:54.000Z</time>
      </trkpt>
      <trkpt lat="49.82981" lon="4.79481">
        <ele>208</ele>
        <time>2022-06-17T13:39:55.000Z</time>
      </trkpt>
      <trkpt lat="49.82985" lon="4.79482">
        <ele>208</ele>
        <time>2022-06-17T13:39:56.000Z</time>
      </trkpt>
      <trkpt lat="49.82989" lon="4.79484">
        <ele>208</ele>
        <time>2022-06-17T13:39:57.000Z</time>
      </trkpt>
      <trkpt lat="49.82993" lon="4.79484">
        <ele>209</ele>
        <time>2022-06-17T13:39:58.000Z</time>
      </trkpt>
      <trkpt lat="49.82996" lon="4.79484">
        <ele>209</ele>
        <time>2022-06-17T13:39:59.000Z</time>
      </trkpt>
      <trkpt lat="49.82999" lon="4.79485">
        <ele>210</ele>
        <time>2022-06-17T13:40:00.000Z</time>
      </trkpt>
      <trkpt lat="49.83002" lon="4.79486">
        <ele>210</ele>
        <time>2022-06-17T13:40:01.000Z</time>
      </trkpt>
      <trkpt lat="49.83004" lon="4.79485">
        <ele>210</ele>
        <time>2022-06-17T13:40:02.000Z</time>
      </trkpt>
      <trkpt lat="49.83006" lon="4.79485">
        <ele>211</ele>
        <time>2022-06-17T13:40:03.000Z</time>
      </trkpt>
      <trkpt lat="49.83008" lon="4.79484">
        <ele>211</ele>
        <time>2022-06-17T13:40:04.000Z</time>
      </trkpt>
      <trkpt lat="49.8301" lon="4.79484">
        <ele>212</ele>
        <time>2022-06-17T13:40:05.000Z</time>
      </trkpt>
      <trkpt lat="49.83012" lon="4.79485">
        <ele>212</ele>
        <time>2022-06-17T13:40:06.000Z</time>
      </trkpt>
      <trkpt lat="49.83014" lon="4.79485">
        <ele>213</ele>
        <time>2022-06-17T13:40:07.000Z</time>
      </trkpt>
      <trkpt lat="49.83017" lon="4.79485">
        <ele>213</ele>
        <time>2022-06-17T13:40:08.000Z</time>
      </trkpt>
      <trkpt lat="49.83018" lon="4.79486">
        <ele>214</ele>
        <time>2022-06-17T13:40:09.000Z</time>
      </trkpt>
      <trkpt lat="49.83021" lon="4.79486">
        <ele>214</ele>
        <time>2022-06-17T13:40:10.000Z</time>
      </trkpt>
      <trkpt lat="49.83023" lon="4.79486">
        <ele>215</ele>
        <time>2022-06-17T13:40:11.000Z</time>
      </trkpt>
      <trkpt lat="49.83026" lon="4.79485">
        <ele>216</ele>
        <time>2022-06-17T13:40:12.000Z</time>
      </trkpt>
      <trkpt lat="49.83028" lon="4.79485">
        <ele>216</ele>
        <time>2022-06-17T13:40:13.000Z</time>
      </trkpt>
      <trkpt lat="49.83031" lon="4.79484">
        <ele>217</ele>
        <time>2022-06-17T13:40:14.000Z</time>
      </trkpt>
      <trkpt lat="49.83033" lon="4.79485">
        <ele>217</ele>
        <time>2022-06-17T13:40:15.000Z</time>
      </trkpt>
      <trkpt lat="49.83036" lon="4.79485">
        <ele>218</ele>
        <time>2022-06-17T13:40:16.000Z</time>
      </trkpt>
      <trkpt lat="49.83038" lon="4.79485">
        <ele>218</ele>
        <time>2022-06-17T13:40:17.000Z</time>
      </trkpt>
      <trkpt lat="49.8304" lon="4.79486">
        <ele>219</ele>
        <time>2022-06-17T13:40:18.000Z</time>
      </trkpt>
      <trkpt lat="49.83042" lon="4.79487">
        <ele>219</ele>
        <time>2022-06-17T13:40:19.000Z</time>
      </trkpt>
      <trkpt lat="49.83045" lon="4.79487">
        <ele>220</ele>
        <time>2022-06-17T13:40:20.000Z</time>
      </trkpt>
      <trkpt lat="49.83047" lon="4.79487">
        <ele>220</ele>
        <time>2022-06-17T13:40:21.000Z</time>
      </trkpt>
      <trkpt lat="49.83049" lon="4.79487">
        <ele>221</ele>
        <time>2022-06-17T13:40:22.000Z</time>
      </trkpt>
      <trkpt lat="49.83052" lon="4.79486">
        <ele>221</ele>
        <time>2022-06-17T13:40:23.000Z</time>
      </trkpt>
      <trkpt lat="49.83054" lon="4.79485">
        <ele>222</ele>
        <time>2022-06-17T13:40:24.000Z</time>
      </trkpt>
      <trkpt lat="49.83056" lon="4.79484">
        <ele>223</ele>
        <time>2022-06-17T13:40:25.000Z</time>
      </trkpt>
      <trkpt lat="49.83058" lon="4.79483">
        <ele>223</ele>
        <time>2022-06-17T13:40:26.000Z</time>
      </trkpt>
      <trkpt lat="49.83059" lon="4.79483">
        <ele>224</ele>
        <time>2022-06-17T13:40:27.000Z</time>
      </trkpt>
      <trkpt lat="49.83061" lon="4.79482">
        <ele>224</ele>
        <time>2022-06-17T13:40:28.000Z</time>
      </trkpt>
      <trkpt lat="49.83063" lon="4.79481">
        <ele>224</ele>
        <time>2022-06-17T13:40:29.000Z</time>
      </trkpt>
      <trkpt lat="49.83065" lon="4.7948">
        <ele>225</ele>
        <time>2022-06-17T13:40:30.000Z</time>
      </trkpt>
      <trkpt lat="49.83067" lon="4.79479">
        <ele>225</ele>
        <time>2022-06-17T13:40:31.000Z</time>
      </trkpt>
      <trkpt lat="49.83068" lon="4.79477">
        <ele>225</ele>
        <time>2022-06-17T13:40:32.000Z</time>
      </trkpt>
      <trkpt lat="49.83069" lon="4.79475">
        <ele>226</ele>
        <time>2022-06-17T13:40:33.000Z</time>
      </trkpt>
      <trkpt lat="49.83071" lon="4.79472">
        <ele>226</ele>
        <time>2022-06-17T13:40:34.000Z</time>
      </trkpt>
      <trkpt lat="49.83071" lon="4.79469">
        <ele>226</ele>
        <time>2022-06-17T13:40:35.000Z</time>
      </trkpt>
      <trkpt lat="49.8307" lon="4.79466">
        <ele>226</ele>
        <time>2022-06-17T13:40:36.000Z</time>
      </trkpt>
      <trkpt lat="49.83068" lon="4.79463">
        <ele>226</ele>
        <time>2022-06-17T13:40:37.000Z</time>
      </trkpt>
      <trkpt lat="49.83066" lon="4.79462">
        <ele>226</ele>
        <time>2022-06-17T13:40:38.000Z</time>
      </trkpt>
      <trkpt lat="49.83063" lon="4.7946">
        <ele>226</ele>
        <time>2022-06-17T13:40:39.000Z</time>
      </trkpt>
      <trkpt lat="49.83061" lon="4.7946">
        <ele>227</ele>
        <time>2022-06-17T13:40:40.000Z</time>
      </trkpt>
      <trkpt lat="49.83058" lon="4.79461">
        <ele>227</ele>
        <time>2022-06-17T13:40:41.000Z</time>
      </trkpt>
      <trkpt lat="49.83055" lon="4.79461">
        <ele>227</ele>
        <time>2022-06-17T13:40:42.000Z</time>
      </trkpt>
      <trkpt lat="49.83052" lon="4.79461">
        <ele>227</ele>
        <time>2022-06-17T13:40:43.000Z</time>
      </trkpt>
      <trkpt lat="49.83049" lon="4.7946">
        <ele>227</ele>
        <time>2022-06-17T13:40:44.000Z</time>
      </trkpt>
      <trkpt lat="49.83046" lon="4.79459">
        <ele>227</ele>
        <time>2022-06-17T13:40:45.000Z</time>
      </trkpt>
      <trkpt lat="49.83043" lon="4.79458">
        <ele>227</ele>
        <time>2022-06-17T13:40:46.000Z</time>
      </trkpt>
      <trkpt lat="49.83041" lon="4.79456">
        <ele>227</ele>
        <time>2022-06-17T13:40:47.000Z</time>
      </trkpt>
      <trkpt lat="49.83038" lon="4.79454">
        <ele>227</ele>
        <time>2022-06-17T13:40:48.000Z</time>
      </trkpt>
      <trkpt lat="49.83036" lon="4.79452">
        <ele>228</ele>
        <time>2022-06-17T13:40:49.000Z</time>
      </trkpt>
      <trkpt lat="49.83033" lon="4.79451">
        <ele>228</ele>
        <time>2022-06-17T13:40:50.000Z</time>
      </trkpt>
      <trkpt lat="49.83031" lon="4.79449">
        <ele>228</ele>
        <time>2022-06-17T13:40:51.000Z</time>
      </trkpt>
      <trkpt lat="49.83028" lon="4.79447">
        <ele>229</ele>
        <time>2022-06-17T13:40:52.000Z</time>
      </trkpt>
      <trkpt lat="49.83026" lon="4.79445">
        <ele>229</ele>
        <time>2022-06-17T13:40:53.000Z</time>
      </trkpt>
      <trkpt lat="49.83024" lon="4.79443">
        <ele>230</ele>
        <time>2022-06-17T13:40:54.000Z</time>
      </trkpt>
      <trkpt lat="49.83021" lon="4.79441">
        <ele>230</ele>
        <time>2022-06-17T13:40:55.000Z</time>
      </trkpt>
      <trkpt lat="49.83019" lon="4.79439">
        <ele>230</ele>
        <time>2022-06-17T13:40:56.000Z</time>
      </trkpt>
      <trkpt lat="49.83017" lon="4.79437">
        <ele>231</ele>
        <time>2022-06-17T13:40:57.000Z</time>
      </trkpt>
      <trkpt lat="49.83015" lon="4.79435">
        <ele>231</ele>
        <time>2022-06-17T13:40:58.000Z</time>
      </trkpt>
      <trkpt lat="49.83013" lon="4.79434">
        <ele>231</ele>
        <time>2022-06-17T13:40:59.000Z</time>
      </trkpt>
      <trkpt lat="49.83011" lon="4.79432">
        <ele>231</ele>
        <time>2022-06-17T13:41:00.000Z</time>
      </trkpt>
      <trkpt lat="49.83009" lon="4.7943">
        <ele>232</ele>
        <time>2022-06-17T13:41:01.000Z</time>
      </trkpt>
      <trkpt lat="49.83008" lon="4.79428">
        <ele>232</ele>
        <time>2022-06-17T13:41:02.000Z</time>
      </trkpt>
      <trkpt lat="49.83006" lon="4.79427">
        <ele>232</ele>
        <time>2022-06-17T13:41:03.000Z</time>
      </trkpt>
      <trkpt lat="49.83004" lon="4.79425">
        <ele>233</ele>
        <time>2022-06-17T13:41:04.000Z</time>
      </trkpt>
      <trkpt lat="49.83002" lon="4.79423">
        <ele>233</ele>
        <time>2022-06-17T13:41:05.000Z</time>
      </trkpt>
      <trkpt lat="49.83001" lon="4.79421">
        <ele>234</ele>
        <time>2022-06-17T13:41:06.000Z</time>
      </trkpt>
      <trkpt lat="49.82999" lon="4.79419">
        <ele>234</ele>
        <time>2022-06-17T13:41:07.000Z</time>
      </trkpt>
      <trkpt lat="49.82997" lon="4.79417">
        <ele>235</ele>
        <time>2022-06-17T13:41:08.000Z</time>
      </trkpt>
      <trkpt lat="49.82995" lon="4.79416">
        <ele>235</ele>
        <time>2022-06-17T13:41:09.000Z</time>
      </trkpt>
      <trkpt lat="49.82994" lon="4.79414">
        <ele>236</ele>
        <time>2022-06-17T13:41:10.000Z</time>
      </trkpt>
      <trkpt lat="49.82992" lon="4.79412">
        <ele>236</ele>
        <time>2022-06-17T13:41:11.000Z</time>
      </trkpt>
      <trkpt lat="49.8299" lon="4.7941">
        <ele>237</ele>
        <time>2022-06-17T13:41:12.000Z</time>
      </trkpt>
      <trkpt lat="49.82989" lon="4.79408">
        <ele>237</ele>
        <time>2022-06-17T13:41:13.000Z</time>
      </trkpt>
      <trkpt lat="49.82987" lon="4.79406">
        <ele>238</ele>
        <time>2022-06-17T13:41:14.000Z</time>
      </trkpt>
      <trkpt lat="49.82985" lon="4.79404">
        <ele>239</ele>
        <time>2022-06-17T13:41:15.000Z</time>
      </trkpt>
      <trkpt lat="49.82983" lon="4.79401">
        <ele>239</ele>
        <time>2022-06-17T13:41:16.000Z</time>
      </trkpt>
      <trkpt lat="49.82982" lon="4.79399">
        <ele>240</ele>
        <time>2022-06-17T13:41:17.000Z</time>
      </trkpt>
      <trkpt lat="49.8298" lon="4.79397">
        <ele>240</ele>
        <time>2022-06-17T13:41:18.000Z</time>
      </trkpt>
      <trkpt lat="49.82978" lon="4.79395">
        <ele>241</ele>
        <time>2022-06-17T13:41:19.000Z</time>
      </trkpt>
      <trkpt lat="49.82977" lon="4.79393">
        <ele>241</ele>
        <time>2022-06-17T13:41:20.000Z</time>
      </trkpt>
      <trkpt lat="49.82975" lon="4.79391">
        <ele>242</ele>
        <time>2022-06-17T13:41:21.000Z</time>
      </trkpt>
      <trkpt lat="49.82973" lon="4.79389">
        <ele>243</ele>
        <time>2022-06-17T13:41:22.000Z</time>
      </trkpt>
      <trkpt lat="49.82971" lon="4.79388">
        <ele>243</ele>
        <time>2022-06-17T13:41:23.000Z</time>
      </trkpt>
      <trkpt lat="49.82969" lon="4.79386">
        <ele>244</ele>
        <time>2022-06-17T13:41:24.000Z</time>
      </trkpt>
      <trkpt lat="49.82967" lon="4.79385">
        <ele>244</ele>
        <time>2022-06-17T13:41:25.000Z</time>
      </trkpt>
      <trkpt lat="49.82964" lon="4.79383">
        <ele>245</ele>
        <time>2022-06-17T13:41:26.000Z</time>
      </trkpt>
      <trkpt lat="49.82962" lon="4.79382">
        <ele>245</ele>
        <time>2022-06-17T13:41:27.000Z</time>
      </trkpt>
      <trkpt lat="49.8296" lon="4.7938">
        <ele>245</ele>
        <time>2022-06-17T13:41:28.000Z</time>
      </trkpt>
      <trkpt lat="49.82958" lon="4.79379">
        <ele>246</ele>
        <time>2022-06-17T13:41:29.000Z</time>
      </trkpt>
      <trkpt lat="49.82956" lon="4.79377">
        <ele>246</ele>
        <time>2022-06-17T13:41:30.000Z</time>
      </trkpt>
      <trkpt lat="49.82954" lon="4.79375">
        <ele>246</ele>
        <time>2022-06-17T13:41:31.000Z</time>
      </trkpt>
      <trkpt lat="49.82952" lon="4.79373">
        <ele>247</ele>
        <time>2022-06-17T13:41:32.000Z</time>
      </trkpt>
      <trkpt lat="49.82951" lon="4.7937">
        <ele>247</ele>
        <time>2022-06-17T13:41:33.000Z</time>
      </trkpt>
      <trkpt lat="49.82949" lon="4.79368">
        <ele>247</ele>
        <time>2022-06-17T13:41:34.000Z</time>
      </trkpt>
      <trkpt lat="49.82948" lon="4.79365">
        <ele>247</ele>
        <time>2022-06-17T13:41:35.000Z</time>
      </trkpt>
      <trkpt lat="49.82947" lon="4.79362">
        <ele>247</ele>
        <time>2022-06-17T13:41:36.000Z</time>
      </trkpt>
      <trkpt lat="49.82946" lon="4.79359">
        <ele>247</ele>
        <time>2022-06-17T13:41:37.000Z</time>
      </trkpt>
      <trkpt lat="49.82945" lon="4.79356">
        <ele>247</ele>
        <time>2022-06-17T13:41:38.000Z</time>
      </trkpt>
      <trkpt lat="49.82944" lon="4.79353">
        <ele>247</ele>
        <time>2022-06-17T13:41:39.000Z</time>
      </trkpt>
      <trkpt lat="49.82943" lon="4.79349">
        <ele>247</ele>
        <time>2022-06-17T13:41:40.000Z</time>
      </trkpt>
      <trkpt lat="49.82942" lon="4.79345">
        <ele>247</ele>
        <time>2022-06-17T13:41:41.000Z</time>
      </trkpt>
      <trkpt lat="49.82941" lon="4.79342">
        <ele>246</ele>
        <time>2022-06-17T13:41:42.000Z</time>
      </trkpt>
      <trkpt lat="49.82941" lon="4.79339">
        <ele>246</ele>
        <time>2022-06-17T13:41:43.000Z</time>
      </trkpt>
      <trkpt lat="49.8294" lon="4.79335">
        <ele>246</ele>
        <time>2022-06-17T13:41:44.000Z</time>
      </trkpt>
      <trkpt lat="49.8294" lon="4.79332">
        <ele>246</ele>
        <time>2022-06-17T13:41:45.000Z</time>
      </trkpt>
      <trkpt lat="49.82939" lon="4.79328">
        <ele>245</ele>
        <time>2022-06-17T13:41:46.000Z</time>
      </trkpt>
      <trkpt lat="49.82939" lon="4.79325">
        <ele>245</ele>
        <time>2022-06-17T13:41:47.000Z</time>
      </trkpt>
      <trkpt lat="49.82938" lon="4.79321">
        <ele>245</ele>
        <time>2022-06-17T13:41:48.000Z</time>
      </trkpt>
      <trkpt lat="49.82938" lon="4.79318">
        <ele>245</ele>
        <time>2022-06-17T13:41:49.000Z</time>
      </trkpt>
      <trkpt lat="49.82937" lon="4.79314">
        <ele>244</ele>
        <time>2022-06-17T13:41:50.000Z</time>
      </trkpt>
      <trkpt lat="49.82937" lon="4.7931">
        <ele>244</ele>
        <time>2022-06-17T13:41:51.000Z</time>
      </trkpt>
      <trkpt lat="49.82937" lon="4.79306">
        <ele>244</ele>
        <time>2022-06-17T13:41:52.000Z</time>
      </trkpt>
      <trkpt lat="49.82936" lon="4.79302">
        <ele>244</ele>
        <time>2022-06-17T13:41:53.000Z</time>
      </trkpt>
      <trkpt lat="49.82936" lon="4.79298">
        <ele>243</ele>
        <time>2022-06-17T13:41:54.000Z</time>
      </trkpt>
      <trkpt lat="49.82936" lon="4.79293">
        <ele>243</ele>
        <time>2022-06-17T13:41:55.000Z</time>
      </trkpt>
      <trkpt lat="49.82936" lon="4.79288">
        <ele>243</ele>
        <time>2022-06-17T13:41:56.000Z</time>
      </trkpt>
      <trkpt lat="49.82936" lon="4.79283">
        <ele>243</ele>
        <time>2022-06-17T13:41:57.000Z</time>
      </trkpt>
      <trkpt lat="49.82936" lon="4.79278">
        <ele>242</ele>
        <time>2022-06-17T13:41:58.000Z</time>
      </trkpt>
      <trkpt lat="49.82936" lon="4.79273">
        <ele>242</ele>
        <time>2022-06-17T13:41:59.000Z</time>
      </trkpt>
      <trkpt lat="49.82936" lon="4.79268">
        <ele>242</ele>
        <time>2022-06-17T13:42:00.000Z</time>
      </trkpt>
      <trkpt lat="49.82936" lon="4.79264">
        <ele>242</ele>
        <time>2022-06-17T13:42:01.000Z</time>
      </trkpt>
      <trkpt lat="49.82937" lon="4.79259">
        <ele>241</ele>
        <time>2022-06-17T13:42:02.000Z</time>
      </trkpt>
      <trkpt lat="49.82937" lon="4.79254">
        <ele>241</ele>
        <time>2022-06-17T13:42:03.000Z</time>
      </trkpt>
      <trkpt lat="49.82938" lon="4.79249">
        <ele>241</ele>
        <time>2022-06-17T13:42:04.000Z</time>
      </trkpt>
      <trkpt lat="49.82938" lon="4.79244">
        <ele>241</ele>
        <time>2022-06-17T13:42:05.000Z</time>
      </trkpt>
      <trkpt lat="49.82939" lon="4.79239">
        <ele>241</ele>
        <time>2022-06-17T13:42:06.000Z</time>
      </trkpt>
      <trkpt lat="49.82939" lon="4.79235">
        <ele>241</ele>
        <time>2022-06-17T13:42:07.000Z</time>
      </trkpt>
      <trkpt lat="49.82939" lon="4.7923">
        <ele>241</ele>
        <time>2022-06-17T13:42:08.000Z</time>
      </trkpt>
      <trkpt lat="49.8294" lon="4.79226">
        <ele>240</ele>
        <time>2022-06-17T13:42:09.000Z</time>
      </trkpt>
      <trkpt lat="49.8294" lon="4.79222">
        <ele>240</ele>
        <time>2022-06-17T13:42:10.000Z</time>
      </trkpt>
      <trkpt lat="49.8294" lon="4.79218">
        <ele>240</ele>
        <time>2022-06-17T13:42:11.000Z</time>
      </trkpt>
      <trkpt lat="49.8294" lon="4.79214">
        <ele>240</ele>
        <time>2022-06-17T13:42:12.000Z</time>
      </trkpt>
      <trkpt lat="49.82941" lon="4.7921">
        <ele>240</ele>
        <time>2022-06-17T13:42:13.000Z</time>
      </trkpt>
      <trkpt lat="49.82941" lon="4.79207">
        <ele>240</ele>
        <time>2022-06-17T13:42:14.000Z</time>
      </trkpt>
      <trkpt lat="49.82942" lon="4.79203">
        <ele>240</ele>
        <time>2022-06-17T13:42:15.000Z</time>
      </trkpt>
      <trkpt lat="49.82943" lon="4.792">
        <ele>240</ele>
        <time>2022-06-17T13:42:16.000Z</time>
      </trkpt>
      <trkpt lat="49.82944" lon="4.79197">
        <ele>240</ele>
        <time>2022-06-17T13:42:17.000Z</time>
      </trkpt>
      <trkpt lat="49.82945" lon="4.79195">
        <ele>240</ele>
        <time>2022-06-17T13:42:18.000Z</time>
      </trkpt>
      <trkpt lat="49.82946" lon="4.79192">
        <ele>240</ele>
        <time>2022-06-17T13:42:19.000Z</time>
      </trkpt>
      <trkpt lat="49.82947" lon="4.79189">
        <ele>240</ele>
        <time>2022-06-17T13:42:20.000Z</time>
      </trkpt>
      <trkpt lat="49.82948" lon="4.79186">
        <ele>240</ele>
        <time>2022-06-17T13:42:21.000Z</time>
      </trkpt>
      <trkpt lat="49.82949" lon="4.79184">
        <ele>240</ele>
        <time>2022-06-17T13:42:22.000Z</time>
      </trkpt>
      <trkpt lat="49.82949" lon="4.79181">
        <ele>240</ele>
        <time>2022-06-17T13:42:23.000Z</time>
      </trkpt>
      <trkpt lat="49.8295" lon="4.79177">
        <ele>240</ele>
        <time>2022-06-17T13:42:24.000Z</time>
      </trkpt>
      <trkpt lat="49.8295" lon="4.79174">
        <ele>240</ele>
        <time>2022-06-17T13:42:25.000Z</time>
      </trkpt>
      <trkpt lat="49.8295" lon="4.7917">
        <ele>241</ele>
        <time>2022-06-17T13:42:26.000Z</time>
      </trkpt>
      <trkpt lat="49.82949" lon="4.79167">
        <ele>241</ele>
        <time>2022-06-17T13:42:27.000Z</time>
      </trkpt>
      <trkpt lat="49.82948" lon="4.79163">
        <ele>241</ele>
        <time>2022-06-17T13:42:28.000Z</time>
      </trkpt>
      <trkpt lat="49.82947" lon="4.79159">
        <ele>241</ele>
        <time>2022-06-17T13:42:29.000Z</time>
      </trkpt>
      <trkpt lat="49.82946" lon="4.79156">
        <ele>242</ele>
        <time>2022-06-17T13:42:30.000Z</time>
      </trkpt>
      <trkpt lat="49.82945" lon="4.79152">
        <ele>242</ele>
        <time>2022-06-17T13:42:31.000Z</time>
      </trkpt>
      <trkpt lat="49.82944" lon="4.79149">
        <ele>242</ele>
        <time>2022-06-17T13:42:32.000Z</time>
      </trkpt>
      <trkpt lat="49.82942" lon="4.79145">
        <ele>242</ele>
        <time>2022-06-17T13:42:33.000Z</time>
      </trkpt>
      <trkpt lat="49.82941" lon="4.79141">
        <ele>242</ele>
        <time>2022-06-17T13:42:34.000Z</time>
      </trkpt>
      <trkpt lat="49.8294" lon="4.79138">
        <ele>243</ele>
        <time>2022-06-17T13:42:35.000Z</time>
      </trkpt>
      <trkpt lat="49.82939" lon="4.79135">
        <ele>243</ele>
        <time>2022-06-17T13:42:36.000Z</time>
      </trkpt>
      <trkpt lat="49.82938" lon="4.79131">
        <ele>243</ele>
        <time>2022-06-17T13:42:37.000Z</time>
      </trkpt>
      <trkpt lat="49.82937" lon="4.79128">
        <ele>243</ele>
        <time>2022-06-17T13:42:38.000Z</time>
      </trkpt>
      <trkpt lat="49.82936" lon="4.79125">
        <ele>243</ele>
        <time>2022-06-17T13:42:39.000Z</time>
      </trkpt>
      <trkpt lat="49.82935" lon="4.79121">
        <ele>243</ele>
        <time>2022-06-17T13:42:40.000Z</time>
      </trkpt>
      <trkpt lat="49.82934" lon="4.79118">
        <ele>244</ele>
        <time>2022-06-17T13:42:41.000Z</time>
      </trkpt>
      <trkpt lat="49.82933" lon="4.79114">
        <ele>244</ele>
        <time>2022-06-17T13:42:42.000Z</time>
      </trkpt>
      <trkpt lat="49.82931" lon="4.7911">
        <ele>244</ele>
        <time>2022-06-17T13:42:43.000Z</time>
      </trkpt>
      <trkpt lat="49.8293" lon="4.79106">
        <ele>244</ele>
        <time>2022-06-17T13:42:44.000Z</time>
      </trkpt>
      <trkpt lat="49.82929" lon="4.79103">
        <ele>245</ele>
        <time>2022-06-17T13:42:45.000Z</time>
      </trkpt>
      <trkpt lat="49.82928" lon="4.791">
        <ele>245</ele>
        <time>2022-06-17T13:42:46.000Z</time>
      </trkpt>
      <trkpt lat="49.82926" lon="4.79097">
        <ele>245</ele>
        <time>2022-06-17T13:42:47.000Z</time>
      </trkpt>
      <trkpt lat="49.82923" lon="4.79093">
        <ele>245</ele>
        <time>2022-06-17T13:42:48.000Z</time>
      </trkpt>
      <trkpt lat="49.8292" lon="4.7909">
        <ele>246</ele>
        <time>2022-06-17T13:42:49.000Z</time>
      </trkpt>
      <trkpt lat="49.82917" lon="4.79087">
        <ele>246</ele>
        <time>2022-06-17T13:42:50.000Z</time>
      </trkpt>
      <trkpt lat="49.82914" lon="4.79083">
        <ele>246</ele>
        <time>2022-06-17T13:42:51.000Z</time>
      </trkpt>
      <trkpt lat="49.8291" lon="4.7908">
        <ele>246</ele>
        <time>2022-06-17T13:42:52.000Z</time>
      </trkpt>
      <trkpt lat="49.82907" lon="4.79077">
        <ele>247</ele>
        <time>2022-06-17T13:42:53.000Z</time>
      </trkpt>
      <trkpt lat="49.82903" lon="4.79074">
        <ele>247</ele>
        <time>2022-06-17T13:42:54.000Z</time>
      </trkpt>
      <trkpt lat="49.829" lon="4.79071">
        <ele>247</ele>
        <time>2022-06-17T13:42:55.000Z</time>
      </trkpt>
      <trkpt lat="49.82897" lon="4.79068">
        <ele>247</ele>
        <time>2022-06-17T13:42:56.000Z</time>
      </trkpt>
      <trkpt lat="49.82895" lon="4.79065">
        <ele>248</ele>
        <time>2022-06-17T13:42:57.000Z</time>
      </trkpt>
      <trkpt lat="49.82892" lon="4.79062">
        <ele>248</ele>
        <time>2022-06-17T13:42:58.000Z</time>
      </trkpt>
      <trkpt lat="49.82889" lon="4.7906">
        <ele>248</ele>
        <time>2022-06-17T13:42:59.000Z</time>
      </trkpt>
      <trkpt lat="49.82886" lon="4.79057">
        <ele>249</ele>
        <time>2022-06-17T13:43:00.000Z</time>
      </trkpt>
      <trkpt lat="49.82883" lon="4.79054">
        <ele>249</ele>
        <time>2022-06-17T13:43:01.000Z</time>
      </trkpt>
      <trkpt lat="49.82881" lon="4.79052">
        <ele>249</ele>
        <time>2022-06-17T13:43:02.000Z</time>
      </trkpt>
      <trkpt lat="49.82878" lon="4.79049">
        <ele>249</ele>
        <time>2022-06-17T13:43:03.000Z</time>
      </trkpt>
      <trkpt lat="49.82875" lon="4.79046">
        <ele>250</ele>
        <time>2022-06-17T13:43:04.000Z</time>
      </trkpt>
      <trkpt lat="49.82873" lon="4.79043">
        <ele>250</ele>
        <time>2022-06-17T13:43:05.000Z</time>
      </trkpt>
      <trkpt lat="49.82871" lon="4.7904">
        <ele>250</ele>
        <time>2022-06-17T13:43:06.000Z</time>
      </trkpt>
      <trkpt lat="49.82869" lon="4.79037">
        <ele>251</ele>
        <time>2022-06-17T13:43:07.000Z</time>
      </trkpt>
      <trkpt lat="49.82866" lon="4.79034">
        <ele>251</ele>
        <time>2022-06-17T13:43:08.000Z</time>
      </trkpt>
      <trkpt lat="49.82864" lon="4.7903">
        <ele>251</ele>
        <time>2022-06-17T13:43:09.000Z</time>
      </trkpt>
      <trkpt lat="49.82862" lon="4.79028">
        <ele>252</ele>
        <time>2022-06-17T13:43:10.000Z</time>
      </trkpt>
      <trkpt lat="49.8286" lon="4.79025">
        <ele>252</ele>
        <time>2022-06-17T13:43:11.000Z</time>
      </trkpt>
      <trkpt lat="49.82858" lon="4.79022">
        <ele>252</ele>
        <time>2022-06-17T13:43:12.000Z</time>
      </trkpt>
      <trkpt lat="49.82856" lon="4.79018">
        <ele>252</ele>
        <time>2022-06-17T13:43:13.000Z</time>
      </trkpt>
      <trkpt lat="49.82855" lon="4.79015">
        <ele>253</ele>
        <time>2022-06-17T13:43:14.000Z</time>
      </trkpt>
      <trkpt lat="49.82853" lon="4.79011">
        <ele>253</ele>
        <time>2022-06-17T13:43:15.000Z</time>
      </trkpt>
      <trkpt lat="49.82852" lon="4.79007">
        <ele>253</ele>
        <time>2022-06-17T13:43:16.000Z</time>
      </trkpt>
      <trkpt lat="49.8285" lon="4.79003">
        <ele>253</ele>
        <time>2022-06-17T13:43:17.000Z</time>
      </trkpt>
      <trkpt lat="49.82849" lon="4.78999">
        <ele>253</ele>
        <time>2022-06-17T13:43:18.000Z</time>
      </trkpt>
      <trkpt lat="49.82849" lon="4.78995">
        <ele>253</ele>
        <time>2022-06-17T13:43:19.000Z</time>
      </trkpt>
      <trkpt lat="49.82849" lon="4.78992">
        <ele>253</ele>
        <time>2022-06-17T13:43:20.000Z</time>
      </trkpt>
      <trkpt lat="49.82849" lon="4.78988">
        <ele>253</ele>
        <time>2022-06-17T13:43:21.000Z</time>
      </trkpt>
      <trkpt lat="49.82849" lon="4.78985">
        <ele>253</ele>
        <time>2022-06-17T13:43:22.000Z</time>
      </trkpt>
      <trkpt lat="49.8285" lon="4.78982">
        <ele>253</ele>
        <time>2022-06-17T13:43:23.000Z</time>
      </trkpt>
      <trkpt lat="49.82851" lon="4.78979">
        <ele>253</ele>
        <time>2022-06-17T13:43:24.000Z</time>
      </trkpt>
      <trkpt lat="49.82852" lon="4.78976">
        <ele>253</ele>
        <time>2022-06-17T13:43:25.000Z</time>
      </trkpt>
      <trkpt lat="49.82854" lon="4.78974">
        <ele>253</ele>
        <time>2022-06-17T13:43:26.000Z</time>
      </trkpt>
      <trkpt lat="49.82855" lon="4.78973">
        <ele>253</ele>
        <time>2022-06-17T13:43:27.000Z</time>
      </trkpt>
      <trkpt lat="49.82857" lon="4.78971">
        <ele>253</ele>
        <time>2022-06-17T13:43:28.000Z</time>
      </trkpt>
      <trkpt lat="49.82858" lon="4.78971">
        <ele>253</ele>
        <time>2022-06-17T13:43:29.000Z</time>
      </trkpt>
      <trkpt lat="49.8286" lon="4.78971">
        <ele>254</ele>
        <time>2022-06-17T13:43:30.000Z</time>
      </trkpt>
      <trkpt lat="49.82862" lon="4.7897">
        <ele>254</ele>
        <time>2022-06-17T13:43:31.000Z</time>
      </trkpt>
      <trkpt lat="49.82864" lon="4.7897">
        <ele>254</ele>
        <time>2022-06-17T13:43:32.000Z</time>
      </trkpt>
      <trkpt lat="49.82866" lon="4.78971">
        <ele>254</ele>
        <time>2022-06-17T13:43:33.000Z</time>
      </trkpt>
      <trkpt lat="49.82868" lon="4.78972">
        <ele>255</ele>
        <time>2022-06-17T13:43:34.000Z</time>
      </trkpt>
      <trkpt lat="49.8287" lon="4.78973">
        <ele>255</ele>
        <time>2022-06-17T13:43:35.000Z</time>
      </trkpt>
      <trkpt lat="49.82872" lon="4.78975">
        <ele>255</ele>
        <time>2022-06-17T13:43:36.000Z</time>
      </trkpt>
      <trkpt lat="49.82875" lon="4.78976">
        <ele>256</ele>
        <time>2022-06-17T13:43:37.000Z</time>
      </trkpt>
      <trkpt lat="49.82877" lon="4.78978">
        <ele>256</ele>
        <time>2022-06-17T13:43:38.000Z</time>
      </trkpt>
      <trkpt lat="49.82879" lon="4.78981">
        <ele>257</ele>
        <time>2022-06-17T13:43:39.000Z</time>
      </trkpt>
      <trkpt lat="49.82881" lon="4.78982">
        <ele>257</ele>
        <time>2022-06-17T13:43:40.000Z</time>
      </trkpt>
      <trkpt lat="49.82884" lon="4.78984">
        <ele>258</ele>
        <time>2022-06-17T13:43:41.000Z</time>
      </trkpt>
      <trkpt lat="49.82886" lon="4.78986">
        <ele>258</ele>
        <time>2022-06-17T13:43:42.000Z</time>
      </trkpt>
      <trkpt lat="49.82888" lon="4.78989">
        <ele>258</ele>
        <time>2022-06-17T13:43:43.000Z</time>
      </trkpt>
      <trkpt lat="49.82891" lon="4.78991">
        <ele>259</ele>
        <time>2022-06-17T13:43:44.000Z</time>
      </trkpt>
      <trkpt lat="49.82893" lon="4.78994">
        <ele>259</ele>
        <time>2022-06-17T13:43:45.000Z</time>
      </trkpt>
      <trkpt lat="49.82895" lon="4.78996">
        <ele>259</ele>
        <time>2022-06-17T13:43:46.000Z</time>
      </trkpt>
      <trkpt lat="49.82896" lon="4.78997">
        <ele>260</ele>
        <time>2022-06-17T13:43:47.000Z</time>
      </trkpt>
      <trkpt lat="49.82897" lon="4.78999">
        <ele>260</ele>
        <time>2022-06-17T13:43:48.000Z</time>
      </trkpt>
      <trkpt lat="49.82899" lon="4.79001">
        <ele>260</ele>
        <time>2022-06-17T13:43:49.000Z</time>
      </trkpt>
      <trkpt lat="49.82901" lon="4.79004">
        <ele>261</ele>
        <time>2022-06-17T13:43:50.000Z</time>
      </trkpt>
      <trkpt lat="49.82903" lon="4.79005">
        <ele>261</ele>
        <time>2022-06-17T13:43:51.000Z</time>
      </trkpt>
      <trkpt lat="49.82905" lon="4.79007">
        <ele>261</ele>
        <time>2022-06-17T13:43:52.000Z</time>
      </trkpt>
      <trkpt lat="49.82907" lon="4.7901">
        <ele>262</ele>
        <time>2022-06-17T13:43:53.000Z</time>
      </trkpt>
      <trkpt lat="49.82908" lon="4.79012">
        <ele>262</ele>
        <time>2022-06-17T13:43:54.000Z</time>
      </trkpt>
      <trkpt lat="49.8291" lon="4.79014">
        <ele>263</ele>
        <time>2022-06-17T13:43:55.000Z</time>
      </trkpt>
      <trkpt lat="49.82913" lon="4.79017">
        <ele>263</ele>
        <time>2022-06-17T13:43:56.000Z</time>
      </trkpt>
      <trkpt lat="49.82915" lon="4.79019">
        <ele>263</ele>
        <time>2022-06-17T13:43:57.000Z</time>
      </trkpt>
      <trkpt lat="49.82918" lon="4.79021">
        <ele>264</ele>
        <time>2022-06-17T13:43:58.000Z</time>
      </trkpt>
      <trkpt lat="49.82921" lon="4.79024">
        <ele>264</ele>
        <time>2022-06-17T13:43:59.000Z</time>
      </trkpt>
      <trkpt lat="49.82924" lon="4.79027">
        <ele>264</ele>
        <time>2022-06-17T13:44:00.000Z</time>
      </trkpt>
      <trkpt lat="49.82927" lon="4.7903">
        <ele>265</ele>
        <time>2022-06-17T13:44:01.000Z</time>
      </trkpt>
      <trkpt lat="49.8293" lon="4.79033">
        <ele>265</ele>
        <time>2022-06-17T13:44:02.000Z</time>
      </trkpt>
      <trkpt lat="49.82933" lon="4.79036">
        <ele>265</ele>
        <time>2022-06-17T13:44:03.000Z</time>
      </trkpt>
      <trkpt lat="49.82936" lon="4.79039">
        <ele>266</ele>
        <time>2022-06-17T13:44:04.000Z</time>
      </trkpt>
      <trkpt lat="49.82938" lon="4.79042">
        <ele>266</ele>
        <time>2022-06-17T13:44:05.000Z</time>
      </trkpt>
      <trkpt lat="49.82941" lon="4.79045">
        <ele>267</ele>
        <time>2022-06-17T13:44:06.000Z</time>
      </trkpt>
      <trkpt lat="49.82944" lon="4.79048">
        <ele>267</ele>
        <time>2022-06-17T13:44:07.000Z</time>
      </trkpt>
      <trkpt lat="49.82946" lon="4.7905">
        <ele>267</ele>
        <time>2022-06-17T13:44:08.000Z</time>
      </trkpt>
      <trkpt lat="49.82949" lon="4.79052">
        <ele>268</ele>
        <time>2022-06-17T13:44:09.000Z</time>
      </trkpt>
      <trkpt lat="49.82951" lon="4.79055">
        <ele>268</ele>
        <time>2022-06-17T13:44:10.000Z</time>
      </trkpt>
      <trkpt lat="49.82954" lon="4.79058">
        <ele>268</ele>
        <time>2022-06-17T13:44:11.000Z</time>
      </trkpt>
      <trkpt lat="49.82956" lon="4.7906">
        <ele>269</ele>
        <time>2022-06-17T13:44:12.000Z</time>
      </trkpt>
      <trkpt lat="49.82958" lon="4.79063">
        <ele>269</ele>
        <time>2022-06-17T13:44:13.000Z</time>
      </trkpt>
      <trkpt lat="49.8296" lon="4.79066">
        <ele>269</ele>
        <time>2022-06-17T13:44:14.000Z</time>
      </trkpt>
      <trkpt lat="49.82963" lon="4.79069">
        <ele>270</ele>
        <time>2022-06-17T13:44:15.000Z</time>
      </trkpt>
      <trkpt lat="49.82965" lon="4.79071">
        <ele>270</ele>
        <time>2022-06-17T13:44:16.000Z</time>
      </trkpt>
      <trkpt lat="49.82968" lon="4.79073">
        <ele>270</ele>
        <time>2022-06-17T13:44:17.000Z</time>
      </trkpt>
      <trkpt lat="49.82971" lon="4.79076">
        <ele>271</ele>
        <time>2022-06-17T13:44:18.000Z</time>
      </trkpt>
      <trkpt lat="49.82973" lon="4.79078">
        <ele>271</ele>
        <time>2022-06-17T13:44:19.000Z</time>
      </trkpt>
      <trkpt lat="49.82976" lon="4.7908">
        <ele>271</ele>
        <time>2022-06-17T13:44:20.000Z</time>
      </trkpt>
      <trkpt lat="49.82978" lon="4.79083">
        <ele>272</ele>
        <time>2022-06-17T13:44:21.000Z</time>
      </trkpt>
      <trkpt lat="49.82981" lon="4.79085">
        <ele>272</ele>
        <time>2022-06-17T13:44:22.000Z</time>
      </trkpt>
      <trkpt lat="49.82983" lon="4.79087">
        <ele>272</ele>
        <time>2022-06-17T13:44:23.000Z</time>
      </trkpt>
      <trkpt lat="49.82986" lon="4.7909">
        <ele>273</ele>
        <time>2022-06-17T13:44:24.000Z</time>
      </trkpt>
      <trkpt lat="49.82988" lon="4.79091">
        <ele>273</ele>
        <time>2022-06-17T13:44:25.000Z</time>
      </trkpt>
      <trkpt lat="49.8299" lon="4.79093">
        <ele>273</ele>
        <time>2022-06-17T13:44:26.000Z</time>
      </trkpt>
      <trkpt lat="49.82993" lon="4.79095">
        <ele>273</ele>
        <time>2022-06-17T13:44:27.000Z</time>
      </trkpt>
      <trkpt lat="49.82995" lon="4.79097">
        <ele>274</ele>
        <time>2022-06-17T13:44:28.000Z</time>
      </trkpt>
      <trkpt lat="49.82998" lon="4.79099">
        <ele>274</ele>
        <time>2022-06-17T13:44:29.000Z</time>
      </trkpt>
      <trkpt lat="49.83" lon="4.791">
        <ele>274</ele>
        <time>2022-06-17T13:44:30.000Z</time>
      </trkpt>
      <trkpt lat="49.83002" lon="4.79101">
        <ele>275</ele>
        <time>2022-06-17T13:44:31.000Z</time>
      </trkpt>
      <trkpt lat="49.83005" lon="4.79102">
        <ele>275</ele>
        <time>2022-06-17T13:44:32.000Z</time>
      </trkpt>
      <trkpt lat="49.83007" lon="4.79103">
        <ele>275</ele>
        <time>2022-06-17T13:44:33.000Z</time>
      </trkpt>
      <trkpt lat="49.83009" lon="4.79104">
        <ele>275</ele>
        <time>2022-06-17T13:44:34.000Z</time>
      </trkpt>
      <trkpt lat="49.83012" lon="4.79105">
        <ele>275</ele>
        <time>2022-06-17T13:44:35.000Z</time>
      </trkpt>
      <trkpt lat="49.83014" lon="4.79106">
        <ele>276</ele>
        <time>2022-06-17T13:44:36.000Z</time>
      </trkpt>
      <trkpt lat="49.83016" lon="4.79107">
        <ele>276</ele>
        <time>2022-06-17T13:44:37.000Z</time>
      </trkpt>
      <trkpt lat="49.83019" lon="4.79108">
        <ele>276</ele>
        <time>2022-06-17T13:44:38.000Z</time>
      </trkpt>
      <trkpt lat="49.83021" lon="4.79109">
        <ele>276</ele>
        <time>2022-06-17T13:44:39.000Z</time>
      </trkpt>
      <trkpt lat="49.83024" lon="4.7911">
        <ele>276</ele>
        <time>2022-06-17T13:44:40.000Z</time>
      </trkpt>
      <trkpt lat="49.83027" lon="4.79111">
        <ele>277</ele>
        <time>2022-06-17T13:44:41.000Z</time>
      </trkpt>
      <trkpt lat="49.83029" lon="4.79113">
        <ele>277</ele>
        <time>2022-06-17T13:44:42.000Z</time>
      </trkpt>
      <trkpt lat="49.83032" lon="4.79114">
        <ele>277</ele>
        <time>2022-06-17T13:44:43.000Z</time>
      </trkpt>
      <trkpt lat="49.83034" lon="4.79117">
        <ele>277</ele>
        <time>2022-06-17T13:44:44.000Z</time>
      </trkpt>
      <trkpt lat="49.83037" lon="4.79119">
        <ele>277</ele>
        <time>2022-06-17T13:44:45.000Z</time>
      </trkpt>
      <trkpt lat="49.8304" lon="4.79122">
        <ele>278</ele>
        <time>2022-06-17T13:44:46.000Z</time>
      </trkpt>
      <trkpt lat="49.83042" lon="4.79125">
        <ele>278</ele>
        <time>2022-06-17T13:44:47.000Z</time>
      </trkpt>
      <trkpt lat="49.83044" lon="4.79128">
        <ele>278</ele>
        <time>2022-06-17T13:44:48.000Z</time>
      </trkpt>
      <trkpt lat="49.83046" lon="4.79132">
        <ele>278</ele>
        <time>2022-06-17T13:44:49.000Z</time>
      </trkpt>
      <trkpt lat="49.83049" lon="4.79135">
        <ele>278</ele>
        <time>2022-06-17T13:44:50.000Z</time>
      </trkpt>
      <trkpt lat="49.83051" lon="4.79139">
        <ele>279</ele>
        <time>2022-06-17T13:44:51.000Z</time>
      </trkpt>
      <trkpt lat="49.83053" lon="4.79143">
        <ele>279</ele>
        <time>2022-06-17T13:44:52.000Z</time>
      </trkpt>
      <trkpt lat="49.83054" lon="4.79147">
        <ele>279</ele>
        <time>2022-06-17T13:44:53.000Z</time>
      </trkpt>
      <trkpt lat="49.83056" lon="4.79151">
        <ele>279</ele>
        <time>2022-06-17T13:44:54.000Z</time>
      </trkpt>
      <trkpt lat="49.83058" lon="4.79155">
        <ele>279</ele>
        <time>2022-06-17T13:44:55.000Z</time>
      </trkpt>
      <trkpt lat="49.83059" lon="4.7916">
        <ele>279</ele>
        <time>2022-06-17T13:44:56.000Z</time>
      </trkpt>
      <trkpt lat="49.8306" lon="4.79164">
        <ele>279</ele>
        <time>2022-06-17T13:44:57.000Z</time>
      </trkpt>
      <trkpt lat="49.83061" lon="4.79168">
        <ele>279</ele>
        <time>2022-06-17T13:44:58.000Z</time>
      </trkpt>
      <trkpt lat="49.83062" lon="4.79172">
        <ele>280</ele>
        <time>2022-06-17T13:44:59.000Z</time>
      </trkpt>
      <trkpt lat="49.83063" lon="4.79176">
        <ele>280</ele>
        <time>2022-06-17T13:45:00.000Z</time>
      </trkpt>
      <trkpt lat="49.83064" lon="4.7918">
        <ele>280</ele>
        <time>2022-06-17T13:45:01.000Z</time>
      </trkpt>
      <trkpt lat="49.83065" lon="4.79183">
        <ele>280</ele>
        <time>2022-06-17T13:45:02.000Z</time>
      </trkpt>
      <trkpt lat="49.83067" lon="4.79186">
        <ele>280</ele>
        <time>2022-06-17T13:45:03.000Z</time>
      </trkpt>
      <trkpt lat="49.83068" lon="4.79189">
        <ele>280</ele>
        <time>2022-06-17T13:45:04.000Z</time>
      </trkpt>
      <trkpt lat="49.83069" lon="4.79193">
        <ele>280</ele>
        <time>2022-06-17T13:45:05.000Z</time>
      </trkpt>
      <trkpt lat="49.83071" lon="4.79196">
        <ele>281</ele>
        <time>2022-06-17T13:45:06.000Z</time>
      </trkpt>
      <trkpt lat="49.83072" lon="4.79199">
        <ele>281</ele>
        <time>2022-06-17T13:45:07.000Z</time>
      </trkpt>
      <trkpt lat="49.83074" lon="4.79202">
        <ele>281</ele>
        <time>2022-06-17T13:45:08.000Z</time>
      </trkpt>
      <trkpt lat="49.83076" lon="4.79204">
        <ele>281</ele>
        <time>2022-06-17T13:45:09.000Z</time>
      </trkpt>
      <trkpt lat="49.83078" lon="4.79207">
        <ele>281</ele>
        <time>2022-06-17T13:45:10.000Z</time>
      </trkpt>
      <trkpt lat="49.83079" lon="4.79208">
        <ele>281</ele>
        <time>2022-06-17T13:45:11.000Z</time>
      </trkpt>
      <trkpt lat="49.83081" lon="4.7921">
        <ele>281</ele>
        <time>2022-06-17T13:45:12.000Z</time>
      </trkpt>
      <trkpt lat="49.83083" lon="4.79211">
        <ele>282</ele>
        <time>2022-06-17T13:45:13.000Z</time>
      </trkpt>
      <trkpt lat="49.83086" lon="4.79212">
        <ele>282</ele>
        <time>2022-06-17T13:45:14.000Z</time>
      </trkpt>
      <trkpt lat="49.83088" lon="4.79212">
        <ele>282</ele>
        <time>2022-06-17T13:45:15.000Z</time>
      </trkpt>
      <trkpt lat="49.83091" lon="4.79213">
        <ele>283</ele>
        <time>2022-06-17T13:45:16.000Z</time>
      </trkpt>
      <trkpt lat="49.83093" lon="4.79213">
        <ele>283</ele>
        <time>2022-06-17T13:45:17.000Z</time>
      </trkpt>
      <trkpt lat="49.83096" lon="4.79213">
        <ele>283</ele>
        <time>2022-06-17T13:45:18.000Z</time>
      </trkpt>
      <trkpt lat="49.83098" lon="4.79213">
        <ele>284</ele>
        <time>2022-06-17T13:45:19.000Z</time>
      </trkpt>
      <trkpt lat="49.83101" lon="4.79212">
        <ele>284</ele>
        <time>2022-06-17T13:45:20.000Z</time>
      </trkpt>
      <trkpt lat="49.83103" lon="4.79212">
        <ele>284</ele>
        <time>2022-06-17T13:45:21.000Z</time>
      </trkpt>
      <trkpt lat="49.83106" lon="4.79212">
        <ele>285</ele>
        <time>2022-06-17T13:45:22.000Z</time>
      </trkpt>
      <trkpt lat="49.83109" lon="4.79213">
        <ele>285</ele>
        <time>2022-06-17T13:45:23.000Z</time>
      </trkpt>
      <trkpt lat="49.83112" lon="4.79213">
        <ele>286</ele>
        <time>2022-06-17T13:45:24.000Z</time>
      </trkpt>
      <trkpt lat="49.83115" lon="4.79213">
        <ele>286</ele>
        <time>2022-06-17T13:45:25.000Z</time>
      </trkpt>
      <trkpt lat="49.83118" lon="4.79213">
        <ele>287</ele>
        <time>2022-06-17T13:45:26.000Z</time>
      </trkpt>
      <trkpt lat="49.83121" lon="4.79214">
        <ele>287</ele>
        <time>2022-06-17T13:45:27.000Z</time>
      </trkpt>
      <trkpt lat="49.83124" lon="4.79214">
        <ele>288</ele>
        <time>2022-06-17T13:45:28.000Z</time>
      </trkpt>
      <trkpt lat="49.83126" lon="4.79214">
        <ele>288</ele>
        <time>2022-06-17T13:45:29.000Z</time>
      </trkpt>
      <trkpt lat="49.83129" lon="4.79216">
        <ele>288</ele>
        <time>2022-06-17T13:45:30.000Z</time>
      </trkpt>
      <trkpt lat="49.83132" lon="4.79217">
        <ele>289</ele>
        <time>2022-06-17T13:45:31.000Z</time>
      </trkpt>
      <trkpt lat="49.83134" lon="4.79219">
        <ele>289</ele>
        <time>2022-06-17T13:45:32.000Z</time>
      </trkpt>
      <trkpt lat="49.83137" lon="4.7922">
        <ele>289</ele>
        <time>2022-06-17T13:45:33.000Z</time>
      </trkpt>
      <trkpt lat="49.8314" lon="4.79221">
        <ele>290</ele>
        <time>2022-06-17T13:45:34.000Z</time>
      </trkpt>
      <trkpt lat="49.83142" lon="4.79222">
        <ele>290</ele>
        <time>2022-06-17T13:45:35.000Z</time>
      </trkpt>
      <trkpt lat="49.83145" lon="4.79223">
        <ele>290</ele>
        <time>2022-06-17T13:45:36.000Z</time>
      </trkpt>
      <trkpt lat="49.83147" lon="4.79224">
        <ele>291</ele>
        <time>2022-06-17T13:45:37.000Z</time>
      </trkpt>
      <trkpt lat="49.8315" lon="4.79225">
        <ele>291</ele>
        <time>2022-06-17T13:45:38.000Z</time>
      </trkpt>
      <trkpt lat="49.83152" lon="4.79225">
        <ele>292</ele>
        <time>2022-06-17T13:45:39.000Z</time>
      </trkpt>
      <trkpt lat="49.83155" lon="4.79225">
        <ele>292</ele>
        <time>2022-06-17T13:45:40.000Z</time>
      </trkpt>
      <trkpt lat="49.83157" lon="4.79225">
        <ele>292</ele>
        <time>2022-06-17T13:45:41.000Z</time>
      </trkpt>
      <trkpt lat="49.83159" lon="4.79225">
        <ele>293</ele>
        <time>2022-06-17T13:45:42.000Z</time>
      </trkpt>
      <trkpt lat="49.83162" lon="4.79225">
        <ele>293</ele>
        <time>2022-06-17T13:45:43.000Z</time>
      </trkpt>
      <trkpt lat="49.83165" lon="4.79225">
        <ele>293</ele>
        <time>2022-06-17T13:45:44.000Z</time>
      </trkpt>
      <trkpt lat="49.83167" lon="4.79224">
        <ele>293</ele>
        <time>2022-06-17T13:45:45.000Z</time>
      </trkpt>
      <trkpt lat="49.8317" lon="4.79223">
        <ele>293</ele>
        <time>2022-06-17T13:45:46.000Z</time>
      </trkpt>
      <trkpt lat="49.83172" lon="4.79222">
        <ele>294</ele>
        <time>2022-06-17T13:45:47.000Z</time>
      </trkpt>
      <trkpt lat="49.83174" lon="4.7922">
        <ele>294</ele>
        <time>2022-06-17T13:45:48.000Z</time>
      </trkpt>
      <trkpt lat="49.83177" lon="4.79218">
        <ele>294</ele>
        <time>2022-06-17T13:45:49.000Z</time>
      </trkpt>
      <trkpt lat="49.83179" lon="4.79216">
        <ele>294</ele>
        <time>2022-06-17T13:45:50.000Z</time>
      </trkpt>
      <trkpt lat="49.83181" lon="4.79214">
        <ele>295</ele>
        <time>2022-06-17T13:45:51.000Z</time>
      </trkpt>
      <trkpt lat="49.83183" lon="4.79212">
        <ele>295</ele>
        <time>2022-06-17T13:45:52.000Z</time>
      </trkpt>
      <trkpt lat="49.83185" lon="4.79209">
        <ele>295</ele>
        <time>2022-06-17T13:45:53.000Z</time>
      </trkpt>
      <trkpt lat="49.83187" lon="4.79207">
        <ele>295</ele>
        <time>2022-06-17T13:45:54.000Z</time>
      </trkpt>
      <trkpt lat="49.83189" lon="4.79203">
        <ele>295</ele>
        <time>2022-06-17T13:45:55.000Z</time>
      </trkpt>
      <trkpt lat="49.83191" lon="4.792">
        <ele>295</ele>
        <time>2022-06-17T13:45:56.000Z</time>
      </trkpt>
      <trkpt lat="49.83193" lon="4.79198">
        <ele>294</ele>
        <time>2022-06-17T13:45:57.000Z</time>
      </trkpt>
      <trkpt lat="49.83194" lon="4.79194">
        <ele>294</ele>
        <time>2022-06-17T13:45:58.000Z</time>
      </trkpt>
      <trkpt lat="49.83195" lon="4.79191">
        <ele>294</ele>
        <time>2022-06-17T13:45:59.000Z</time>
      </trkpt>
      <trkpt lat="49.83197" lon="4.79188">
        <ele>294</ele>
        <time>2022-06-17T13:46:00.000Z</time>
      </trkpt>
      <trkpt lat="49.83198" lon="4.79185">
        <ele>294</ele>
        <time>2022-06-17T13:46:01.000Z</time>
      </trkpt>
      <trkpt lat="49.83199" lon="4.79181">
        <ele>294</ele>
        <time>2022-06-17T13:46:02.000Z</time>
      </trkpt>
      <trkpt lat="49.832" lon="4.79178">
        <ele>294</ele>
        <time>2022-06-17T13:46:03.000Z</time>
      </trkpt>
      <trkpt lat="49.83202" lon="4.79174">
        <ele>294</ele>
        <time>2022-06-17T13:46:04.000Z</time>
      </trkpt>
      <trkpt lat="49.83203" lon="4.79171">
        <ele>294</ele>
        <time>2022-06-17T13:46:05.000Z</time>
      </trkpt>
      <trkpt lat="49.83204" lon="4.79168">
        <ele>294</ele>
        <time>2022-06-17T13:46:06.000Z</time>
      </trkpt>
      <trkpt lat="49.83205" lon="4.79164">
        <ele>294</ele>
        <time>2022-06-17T13:46:07.000Z</time>
      </trkpt>
      <trkpt lat="49.83206" lon="4.79161">
        <ele>294</ele>
        <time>2022-06-17T13:46:08.000Z</time>
      </trkpt>
      <trkpt lat="49.83207" lon="4.79157">
        <ele>294</ele>
        <time>2022-06-17T13:46:09.000Z</time>
      </trkpt>
      <trkpt lat="49.83208" lon="4.79153">
        <ele>295</ele>
        <time>2022-06-17T13:46:10.000Z</time>
      </trkpt>
      <trkpt lat="49.83209" lon="4.7915">
        <ele>295</ele>
        <time>2022-06-17T13:46:11.000Z</time>
      </trkpt>
      <trkpt lat="49.8321" lon="4.79147">
        <ele>295</ele>
        <time>2022-06-17T13:46:12.000Z</time>
      </trkpt>
      <trkpt lat="49.8321" lon="4.79143">
        <ele>295</ele>
        <time>2022-06-17T13:46:13.000Z</time>
      </trkpt>
      <trkpt lat="49.83211" lon="4.79139">
        <ele>295</ele>
        <time>2022-06-17T13:46:14.000Z</time>
      </trkpt>
      <trkpt lat="49.83211" lon="4.79135">
        <ele>295</ele>
        <time>2022-06-17T13:46:15.000Z</time>
      </trkpt>
      <trkpt lat="49.83213" lon="4.79131">
        <ele>295</ele>
        <time>2022-06-17T13:46:16.000Z</time>
      </trkpt>
      <trkpt lat="49.83214" lon="4.79128">
        <ele>295</ele>
        <time>2022-06-17T13:46:17.000Z</time>
      </trkpt>
      <trkpt lat="49.83216" lon="4.79125">
        <ele>295</ele>
        <time>2022-06-17T13:46:18.000Z</time>
      </trkpt>
      <trkpt lat="49.83217" lon="4.79121">
        <ele>295</ele>
        <time>2022-06-17T13:46:19.000Z</time>
      </trkpt>
      <trkpt lat="49.83219" lon="4.79118">
        <ele>295</ele>
        <time>2022-06-17T13:46:20.000Z</time>
      </trkpt>
      <trkpt lat="49.83221" lon="4.79115">
        <ele>295</ele>
        <time>2022-06-17T13:46:21.000Z</time>
      </trkpt>
      <trkpt lat="49.83223" lon="4.79111">
        <ele>295</ele>
        <time>2022-06-17T13:46:22.000Z</time>
      </trkpt>
      <trkpt lat="49.83225" lon="4.79109">
        <ele>295</ele>
        <time>2022-06-17T13:46:23.000Z</time>
      </trkpt>
      <trkpt lat="49.83227" lon="4.79106">
        <ele>295</ele>
        <time>2022-06-17T13:46:24.000Z</time>
      </trkpt>
      <trkpt lat="49.83229" lon="4.79104">
        <ele>295</ele>
        <time>2022-06-17T13:46:25.000Z</time>
      </trkpt>
      <trkpt lat="49.83231" lon="4.79101">
        <ele>295</ele>
        <time>2022-06-17T13:46:26.000Z</time>
      </trkpt>
      <trkpt lat="49.83233" lon="4.79099">
        <ele>295</ele>
        <time>2022-06-17T13:46:27.000Z</time>
      </trkpt>
      <trkpt lat="49.83236" lon="4.79096">
        <ele>295</ele>
        <time>2022-06-17T13:46:28.000Z</time>
      </trkpt>
      <trkpt lat="49.83238" lon="4.79094">
        <ele>295</ele>
        <time>2022-06-17T13:46:29.000Z</time>
      </trkpt>
      <trkpt lat="49.83241" lon="4.79092">
        <ele>295</ele>
        <time>2022-06-17T13:46:30.000Z</time>
      </trkpt>
      <trkpt lat="49.83243" lon="4.7909">
        <ele>295</ele>
        <time>2022-06-17T13:46:31.000Z</time>
      </trkpt>
      <trkpt lat="49.83246" lon="4.79089">
        <ele>295</ele>
        <time>2022-06-17T13:46:32.000Z</time>
      </trkpt>
      <trkpt lat="49.83249" lon="4.79088">
        <ele>296</ele>
        <time>2022-06-17T13:46:33.000Z</time>
      </trkpt>
      <trkpt lat="49.83253" lon="4.79088">
        <ele>296</ele>
        <time>2022-06-17T13:46:34.000Z</time>
      </trkpt>
      <trkpt lat="49.83256" lon="4.79088">
        <ele>296</ele>
        <time>2022-06-17T13:46:35.000Z</time>
      </trkpt>
      <trkpt lat="49.8326" lon="4.79089">
        <ele>297</ele>
        <time>2022-06-17T13:46:36.000Z</time>
      </trkpt>
      <trkpt lat="49.83264" lon="4.79089">
        <ele>297</ele>
        <time>2022-06-17T13:46:37.000Z</time>
      </trkpt>
      <trkpt lat="49.83267" lon="4.79089">
        <ele>297</ele>
        <time>2022-06-17T13:46:38.000Z</time>
      </trkpt>
      <trkpt lat="49.83271" lon="4.7909">
        <ele>298</ele>
        <time>2022-06-17T13:46:39.000Z</time>
      </trkpt>
      <trkpt lat="49.83275" lon="4.79091">
        <ele>298</ele>
        <time>2022-06-17T13:46:40.000Z</time>
      </trkpt>
      <trkpt lat="49.83278" lon="4.79091">
        <ele>299</ele>
        <time>2022-06-17T13:46:41.000Z</time>
      </trkpt>
      <trkpt lat="49.83282" lon="4.79091">
        <ele>299</ele>
        <time>2022-06-17T13:46:42.000Z</time>
      </trkpt>
      <trkpt lat="49.83285" lon="4.79091">
        <ele>299</ele>
        <time>2022-06-17T13:46:43.000Z</time>
      </trkpt>
      <trkpt lat="49.83289" lon="4.7909">
        <ele>300</ele>
        <time>2022-06-17T13:46:44.000Z</time>
      </trkpt>
      <trkpt lat="49.83294" lon="4.79089">
        <ele>300</ele>
        <time>2022-06-17T13:46:45.000Z</time>
      </trkpt>
      <trkpt lat="49.83299" lon="4.79086">
        <ele>300</ele>
        <time>2022-06-17T13:46:46.000Z</time>
      </trkpt>
      <trkpt lat="49.83304" lon="4.79083">
        <ele>300</ele>
        <time>2022-06-17T13:46:47.000Z</time>
      </trkpt>
      <trkpt lat="49.83309" lon="4.79078">
        <ele>300</ele>
        <time>2022-06-17T13:46:48.000Z</time>
      </trkpt>
      <trkpt lat="49.83315" lon="4.79073">
        <ele>300</ele>
        <time>2022-06-17T13:46:49.000Z</time>
      </trkpt>
      <trkpt lat="49.8332" lon="4.79067">
        <ele>300</ele>
        <time>2022-06-17T13:46:50.000Z</time>
      </trkpt>
      <trkpt lat="49.83326" lon="4.7906">
        <ele>300</ele>
        <time>2022-06-17T13:46:51.000Z</time>
      </trkpt>
      <trkpt lat="49.83331" lon="4.79053">
        <ele>300</ele>
        <time>2022-06-17T13:46:52.000Z</time>
      </trkpt>
      <trkpt lat="49.83336" lon="4.79045">
        <ele>300</ele>
        <time>2022-06-17T13:46:53.000Z</time>
      </trkpt>
      <trkpt lat="49.8334" lon="4.79036">
        <ele>299</ele>
        <time>2022-06-17T13:46:54.000Z</time>
      </trkpt>
      <trkpt lat="49.83343" lon="4.79027">
        <ele>299</ele>
        <time>2022-06-17T13:46:55.000Z</time>
      </trkpt>
      <trkpt lat="49.83347" lon="4.79018">
        <ele>299</ele>
        <time>2022-06-17T13:46:56.000Z</time>
      </trkpt>
      <trkpt lat="49.8335" lon="4.79009">
        <ele>298</ele>
        <time>2022-06-17T13:46:57.000Z</time>
      </trkpt>
      <trkpt lat="49.83353" lon="4.79001">
        <ele>298</ele>
        <time>2022-06-17T13:46:58.000Z</time>
      </trkpt>
      <trkpt lat="49.83357" lon="4.78993">
        <ele>297</ele>
        <time>2022-06-17T13:46:59.000Z</time>
      </trkpt>
      <trkpt lat="49.8336" lon="4.78985">
        <ele>296</ele>
        <time>2022-06-17T13:47:00.000Z</time>
      </trkpt>
      <trkpt lat="49.83363" lon="4.78976">
        <ele>296</ele>
        <time>2022-06-17T13:47:01.000Z</time>
      </trkpt>
      <trkpt lat="49.83366" lon="4.78968">
        <ele>295</ele>
        <time>2022-06-17T13:47:02.000Z</time>
      </trkpt>
      <trkpt lat="49.83368" lon="4.7896">
        <ele>295</ele>
        <time>2022-06-17T13:47:03.000Z</time>
      </trkpt>
      <trkpt lat="49.83372" lon="4.78952">
        <ele>294</ele>
        <time>2022-06-17T13:47:04.000Z</time>
      </trkpt>
      <trkpt lat="49.83375" lon="4.78945">
        <ele>294</ele>
        <time>2022-06-17T13:47:05.000Z</time>
      </trkpt>
      <trkpt lat="49.8338" lon="4.78939">
        <ele>293</ele>
        <time>2022-06-17T13:47:06.000Z</time>
      </trkpt>
      <trkpt lat="49.83385" lon="4.78934">
        <ele>293</ele>
        <time>2022-06-17T13:47:07.000Z</time>
      </trkpt>
      <trkpt lat="49.83389" lon="4.78928">
        <ele>293</ele>
        <time>2022-06-17T13:47:08.000Z</time>
      </trkpt>
      <trkpt lat="49.83394" lon="4.78923">
        <ele>293</ele>
        <time>2022-06-17T13:47:09.000Z</time>
      </trkpt>
      <trkpt lat="49.83398" lon="4.78918">
        <ele>293</ele>
        <time>2022-06-17T13:47:10.000Z</time>
      </trkpt>
      <trkpt lat="49.83403" lon="4.78914">
        <ele>293</ele>
        <time>2022-06-17T13:47:11.000Z</time>
      </trkpt>
      <trkpt lat="49.83407" lon="4.78911">
        <ele>293</ele>
        <time>2022-06-17T13:47:12.000Z</time>
      </trkpt>
      <trkpt lat="49.83411" lon="4.78908">
        <ele>293</ele>
        <time>2022-06-17T13:47:13.000Z</time>
      </trkpt>
      <trkpt lat="49.83415" lon="4.78905">
        <ele>293</ele>
        <time>2022-06-17T13:47:14.000Z</time>
      </trkpt>
      <trkpt lat="49.83418" lon="4.78902">
        <ele>293</ele>
        <time>2022-06-17T13:47:15.000Z</time>
      </trkpt>
      <trkpt lat="49.83421" lon="4.789">
        <ele>293</ele>
        <time>2022-06-17T13:47:16.000Z</time>
      </trkpt>
      <trkpt lat="49.83425" lon="4.78898">
        <ele>293</ele>
        <time>2022-06-17T13:47:17.000Z</time>
      </trkpt>
      <trkpt lat="49.83428" lon="4.78896">
        <ele>293</ele>
        <time>2022-06-17T13:47:18.000Z</time>
      </trkpt>
      <trkpt lat="49.83432" lon="4.78895">
        <ele>294</ele>
        <time>2022-06-17T13:47:19.000Z</time>
      </trkpt>
      <trkpt lat="49.83436" lon="4.78894">
        <ele>294</ele>
        <time>2022-06-17T13:47:20.000Z</time>
      </trkpt>
      <trkpt lat="49.8344" lon="4.78894">
        <ele>294</ele>
        <time>2022-06-17T13:47:21.000Z</time>
      </trkpt>
      <trkpt lat="49.83443" lon="4.78893">
        <ele>295</ele>
        <time>2022-06-17T13:47:22.000Z</time>
      </trkpt>
      <trkpt lat="49.83447" lon="4.78892">
        <ele>295</ele>
        <time>2022-06-17T13:47:23.000Z</time>
      </trkpt>
      <trkpt lat="49.83451" lon="4.78891">
        <ele>295</ele>
        <time>2022-06-17T13:47:24.000Z</time>
      </trkpt>
      <trkpt lat="49.83455" lon="4.78888">
        <ele>296</ele>
        <time>2022-06-17T13:47:25.000Z</time>
      </trkpt>
      <trkpt lat="49.83459" lon="4.78885">
        <ele>296</ele>
        <time>2022-06-17T13:47:26.000Z</time>
      </trkpt>
      <trkpt lat="49.83462" lon="4.78882">
        <ele>296</ele>
        <time>2022-06-17T13:47:27.000Z</time>
      </trkpt>
      <trkpt lat="49.83465" lon="4.78879">
        <ele>297</ele>
        <time>2022-06-17T13:47:28.000Z</time>
      </trkpt>
      <trkpt lat="49.83468" lon="4.78875">
        <ele>297</ele>
        <time>2022-06-17T13:47:29.000Z</time>
      </trkpt>
      <trkpt lat="49.83471" lon="4.78871">
        <ele>297</ele>
        <time>2022-06-17T13:47:30.000Z</time>
      </trkpt>
      <trkpt lat="49.83474" lon="4.78866">
        <ele>297</ele>
        <time>2022-06-17T13:47:31.000Z</time>
      </trkpt>
      <trkpt lat="49.83475" lon="4.7886">
        <ele>297</ele>
        <time>2022-06-17T13:47:32.000Z</time>
      </trkpt>
      <trkpt lat="49.83477" lon="4.78855">
        <ele>298</ele>
        <time>2022-06-17T13:47:33.000Z</time>
      </trkpt>
      <trkpt lat="49.8348" lon="4.78851">
        <ele>298</ele>
        <time>2022-06-17T13:47:34.000Z</time>
      </trkpt>
      <trkpt lat="49.83483" lon="4.78849">
        <ele>298</ele>
        <time>2022-06-17T13:47:35.000Z</time>
      </trkpt>
      <trkpt lat="49.83487" lon="4.78848">
        <ele>298</ele>
        <time>2022-06-17T13:47:36.000Z</time>
      </trkpt>
      <trkpt lat="49.8349" lon="4.78848">
        <ele>298</ele>
        <time>2022-06-17T13:47:37.000Z</time>
      </trkpt>
      <trkpt lat="49.83492" lon="4.7885">
        <ele>298</ele>
        <time>2022-06-17T13:47:38.000Z</time>
      </trkpt>
      <trkpt lat="49.83494" lon="4.78853">
        <ele>298</ele>
        <time>2022-06-17T13:47:39.000Z</time>
      </trkpt>
      <trkpt lat="49.83497" lon="4.78856">
        <ele>298</ele>
        <time>2022-06-17T13:47:40.000Z</time>
      </trkpt>
      <trkpt lat="49.835" lon="4.78859">
        <ele>298</ele>
        <time>2022-06-17T13:47:41.000Z</time>
      </trkpt>
      <trkpt lat="49.83503" lon="4.78862">
        <ele>298</ele>
        <time>2022-06-17T13:47:42.000Z</time>
      </trkpt>
      <trkpt lat="49.83505" lon="4.78865">
        <ele>298</ele>
        <time>2022-06-17T13:47:43.000Z</time>
      </trkpt>
      <trkpt lat="49.83508" lon="4.78868">
        <ele>298</ele>
        <time>2022-06-17T13:47:44.000Z</time>
      </trkpt>
      <trkpt lat="49.83511" lon="4.78871">
        <ele>298</ele>
        <time>2022-06-17T13:47:45.000Z</time>
      </trkpt>
      <trkpt lat="49.83515" lon="4.78874">
        <ele>298</ele>
        <time>2022-06-17T13:47:46.000Z</time>
      </trkpt>
      <trkpt lat="49.83519" lon="4.78877">
        <ele>298</ele>
        <time>2022-06-17T13:47:47.000Z</time>
      </trkpt>
      <trkpt lat="49.83523" lon="4.7888">
        <ele>298</ele>
        <time>2022-06-17T13:47:48.000Z</time>
      </trkpt>
      <trkpt lat="49.83527" lon="4.78884">
        <ele>298</ele>
        <time>2022-06-17T13:47:49.000Z</time>
      </trkpt>
      <trkpt lat="49.83531" lon="4.78888">
        <ele>298</ele>
        <time>2022-06-17T13:47:50.000Z</time>
      </trkpt>
      <trkpt lat="49.83536" lon="4.78893">
        <ele>298</ele>
        <time>2022-06-17T13:47:51.000Z</time>
      </trkpt>
      <trkpt lat="49.83541" lon="4.78898">
        <ele>298</ele>
        <time>2022-06-17T13:47:52.000Z</time>
      </trkpt>
      <trkpt lat="49.83546" lon="4.78903">
        <ele>299</ele>
        <time>2022-06-17T13:47:53.000Z</time>
      </trkpt>
      <trkpt lat="49.83551" lon="4.78908">
        <ele>299</ele>
        <time>2022-06-17T13:47:54.000Z</time>
      </trkpt>
      <trkpt lat="49.83557" lon="4.78912">
        <ele>299</ele>
        <time>2022-06-17T13:47:55.000Z</time>
      </trkpt>
      <trkpt lat="49.83563" lon="4.78914">
        <ele>299</ele>
        <time>2022-06-17T13:47:56.000Z</time>
      </trkpt>
      <trkpt lat="49.83568" lon="4.78915">
        <ele>299</ele>
        <time>2022-06-17T13:47:57.000Z</time>
      </trkpt>
      <trkpt lat="49.83574" lon="4.78915">
        <ele>300</ele>
        <time>2022-06-17T13:47:58.000Z</time>
      </trkpt>
      <trkpt lat="49.8358" lon="4.78916">
        <ele>300</ele>
        <time>2022-06-17T13:47:59.000Z</time>
      </trkpt>
      <trkpt lat="49.83586" lon="4.78916">
        <ele>300</ele>
        <time>2022-06-17T13:48:00.000Z</time>
      </trkpt>
      <trkpt lat="49.83591" lon="4.78916">
        <ele>300</ele>
        <time>2022-06-17T13:48:01.000Z</time>
      </trkpt>
      <trkpt lat="49.83597" lon="4.78916">
        <ele>300</ele>
        <time>2022-06-17T13:48:02.000Z</time>
      </trkpt>
      <trkpt lat="49.83602" lon="4.78916">
        <ele>300</ele>
        <time>2022-06-17T13:48:03.000Z</time>
      </trkpt>
      <trkpt lat="49.83607" lon="4.78915">
        <ele>300</ele>
        <time>2022-06-17T13:48:04.000Z</time>
      </trkpt>
      <trkpt lat="49.83612" lon="4.78914">
        <ele>300</ele>
        <time>2022-06-17T13:48:05.000Z</time>
      </trkpt>
      <trkpt lat="49.83617" lon="4.78914">
        <ele>301</ele>
        <time>2022-06-17T13:48:06.000Z</time>
      </trkpt>
      <trkpt lat="49.83622" lon="4.78915">
        <ele>301</ele>
        <time>2022-06-17T13:48:07.000Z</time>
      </trkpt>
      <trkpt lat="49.83627" lon="4.78916">
        <ele>301</ele>
        <time>2022-06-17T13:48:08.000Z</time>
      </trkpt>
      <trkpt lat="49.83633" lon="4.78917">
        <ele>301</ele>
        <time>2022-06-17T13:48:09.000Z</time>
      </trkpt>
      <trkpt lat="49.83638" lon="4.78918">
        <ele>301</ele>
        <time>2022-06-17T13:48:10.000Z</time>
      </trkpt>
      <trkpt lat="49.83643" lon="4.7892">
        <ele>301</ele>
        <time>2022-06-17T13:48:11.000Z</time>
      </trkpt>
      <trkpt lat="49.83649" lon="4.78921">
        <ele>301</ele>
        <time>2022-06-17T13:48:12.000Z</time>
      </trkpt>
      <trkpt lat="49.83655" lon="4.78924">
        <ele>301</ele>
        <time>2022-06-17T13:48:13.000Z</time>
      </trkpt>
      <trkpt lat="49.83661" lon="4.78926">
        <ele>301</ele>
        <time>2022-06-17T13:48:14.000Z</time>
      </trkpt>
      <trkpt lat="49.83666" lon="4.78927">
        <ele>301</ele>
        <time>2022-06-17T13:48:15.000Z</time>
      </trkpt>
      <trkpt lat="49.83672" lon="4.78928">
        <ele>302</ele>
        <time>2022-06-17T13:48:16.000Z</time>
      </trkpt>
      <trkpt lat="49.83678" lon="4.78931">
        <ele>302</ele>
        <time>2022-06-17T13:48:17.000Z</time>
      </trkpt>
      <trkpt lat="49.83683" lon="4.78932">
        <ele>302</ele>
        <time>2022-06-17T13:48:18.000Z</time>
      </trkpt>
      <trkpt lat="49.83688" lon="4.78934">
        <ele>302</ele>
        <time>2022-06-17T13:48:19.000Z</time>
      </trkpt>
      <trkpt lat="49.83694" lon="4.78936">
        <ele>302</ele>
        <time>2022-06-17T13:48:20.000Z</time>
      </trkpt>
      <trkpt lat="49.837" lon="4.78938">
        <ele>302</ele>
        <time>2022-06-17T13:48:21.000Z</time>
      </trkpt>
      <trkpt lat="49.83705" lon="4.78941">
        <ele>302</ele>
        <time>2022-06-17T13:48:22.000Z</time>
      </trkpt>
      <trkpt lat="49.83711" lon="4.78944">
        <ele>302</ele>
        <time>2022-06-17T13:48:23.000Z</time>
      </trkpt>
      <trkpt lat="49.83718" lon="4.78947">
        <ele>302</ele>
        <time>2022-06-17T13:48:24.000Z</time>
      </trkpt>
      <trkpt lat="49.83724" lon="4.78952">
        <ele>302</ele>
        <time>2022-06-17T13:48:25.000Z</time>
      </trkpt>
      <trkpt lat="49.83729" lon="4.78956">
        <ele>302</ele>
        <time>2022-06-17T13:48:26.000Z</time>
      </trkpt>
      <trkpt lat="49.83735" lon="4.78962">
        <ele>301</ele>
        <time>2022-06-17T13:48:27.000Z</time>
      </trkpt>
      <trkpt lat="49.83741" lon="4.78967">
        <ele>301</ele>
        <time>2022-06-17T13:48:28.000Z</time>
      </trkpt>
      <trkpt lat="49.83746" lon="4.78973">
        <ele>301</ele>
        <time>2022-06-17T13:48:29.000Z</time>
      </trkpt>
      <trkpt lat="49.83751" lon="4.78979">
        <ele>301</ele>
        <time>2022-06-17T13:48:30.000Z</time>
      </trkpt>
      <trkpt lat="49.83757" lon="4.78985">
        <ele>301</ele>
        <time>2022-06-17T13:48:31.000Z</time>
      </trkpt>
      <trkpt lat="49.83762" lon="4.78991">
        <ele>301</ele>
        <time>2022-06-17T13:48:32.000Z</time>
      </trkpt>
      <trkpt lat="49.83767" lon="4.78998">
        <ele>301</ele>
        <time>2022-06-17T13:48:33.000Z</time>
      </trkpt>
      <trkpt lat="49.83771" lon="4.79004">
        <ele>301</ele>
        <time>2022-06-17T13:48:34.000Z</time>
      </trkpt>
      <trkpt lat="49.83776" lon="4.79009">
        <ele>300</ele>
        <time>2022-06-17T13:48:35.000Z</time>
      </trkpt>
      <trkpt lat="49.83781" lon="4.79015">
        <ele>300</ele>
        <time>2022-06-17T13:48:36.000Z</time>
      </trkpt>
      <trkpt lat="49.83785" lon="4.7902">
        <ele>300</ele>
        <time>2022-06-17T13:48:37.000Z</time>
      </trkpt>
      <trkpt lat="49.83789" lon="4.79025">
        <ele>300</ele>
        <time>2022-06-17T13:48:38.000Z</time>
      </trkpt>
      <trkpt lat="49.83793" lon="4.7903">
        <ele>300</ele>
        <time>2022-06-17T13:48:39.000Z</time>
      </trkpt>
      <trkpt lat="49.83797" lon="4.79036">
        <ele>299</ele>
        <time>2022-06-17T13:48:40.000Z</time>
      </trkpt>
      <trkpt lat="49.83801" lon="4.79041">
        <ele>299</ele>
        <time>2022-06-17T13:48:41.000Z</time>
      </trkpt>
      <trkpt lat="49.83805" lon="4.79047">
        <ele>299</ele>
        <time>2022-06-17T13:48:42.000Z</time>
      </trkpt>
      <trkpt lat="49.83808" lon="4.79054">
        <ele>299</ele>
        <time>2022-06-17T13:48:43.000Z</time>
      </trkpt>
      <trkpt lat="49.83811" lon="4.7906">
        <ele>299</ele>
        <time>2022-06-17T13:48:44.000Z</time>
      </trkpt>
      <trkpt lat="49.83814" lon="4.79065">
        <ele>299</ele>
        <time>2022-06-17T13:48:45.000Z</time>
      </trkpt>
      <trkpt lat="49.83818" lon="4.7907">
        <ele>299</ele>
        <time>2022-06-17T13:48:46.000Z</time>
      </trkpt>
      <trkpt lat="49.83821" lon="4.79075">
        <ele>299</ele>
        <time>2022-06-17T13:48:47.000Z</time>
      </trkpt>
      <trkpt lat="49.83824" lon="4.7908">
        <ele>298</ele>
        <time>2022-06-17T13:48:48.000Z</time>
      </trkpt>
      <trkpt lat="49.83826" lon="4.79085">
        <ele>298</ele>
        <time>2022-06-17T13:48:49.000Z</time>
      </trkpt>
      <trkpt lat="49.83829" lon="4.7909">
        <ele>298</ele>
        <time>2022-06-17T13:48:50.000Z</time>
      </trkpt>
      <trkpt lat="49.83831" lon="4.79095">
        <ele>298</ele>
        <time>2022-06-17T13:48:51.000Z</time>
      </trkpt>
      <trkpt lat="49.83834" lon="4.791">
        <ele>297</ele>
        <time>2022-06-17T13:48:52.000Z</time>
      </trkpt>
      <trkpt lat="49.83836" lon="4.79105">
        <ele>297</ele>
        <time>2022-06-17T13:48:53.000Z</time>
      </trkpt>
      <trkpt lat="49.83839" lon="4.7911">
        <ele>297</ele>
        <time>2022-06-17T13:48:54.000Z</time>
      </trkpt>
      <trkpt lat="49.83841" lon="4.79115">
        <ele>296</ele>
        <time>2022-06-17T13:48:55.000Z</time>
      </trkpt>
      <trkpt lat="49.83843" lon="4.7912">
        <ele>296</ele>
        <time>2022-06-17T13:48:56.000Z</time>
      </trkpt>
      <trkpt lat="49.83845" lon="4.79125">
        <ele>296</ele>
        <time>2022-06-17T13:48:57.000Z</time>
      </trkpt>
      <trkpt lat="49.83847" lon="4.7913">
        <ele>296</ele>
        <time>2022-06-17T13:48:58.000Z</time>
      </trkpt>
      <trkpt lat="49.8385" lon="4.79135">
        <ele>296</ele>
        <time>2022-06-17T13:48:59.000Z</time>
      </trkpt>
      <trkpt lat="49.83852" lon="4.7914">
        <ele>295</ele>
        <time>2022-06-17T13:49:00.000Z</time>
      </trkpt>
      <trkpt lat="49.83854" lon="4.79145">
        <ele>295</ele>
        <time>2022-06-17T13:49:01.000Z</time>
      </trkpt>
      <trkpt lat="49.83856" lon="4.79149">
        <ele>295</ele>
        <time>2022-06-17T13:49:02.000Z</time>
      </trkpt>
      <trkpt lat="49.83858" lon="4.79154">
        <ele>295</ele>
        <time>2022-06-17T13:49:03.000Z</time>
      </trkpt>
      <trkpt lat="49.83858" lon="4.79158">
        <ele>295</ele>
        <time>2022-06-17T13:49:04.000Z</time>
      </trkpt>
      <trkpt lat="49.83857" lon="4.79162">
        <ele>295</ele>
        <time>2022-06-17T13:49:05.000Z</time>
      </trkpt>
      <trkpt lat="49.83855" lon="4.79167">
        <ele>295</ele>
        <time>2022-06-17T13:49:06.000Z</time>
      </trkpt>
      <trkpt lat="49.83852" lon="4.79171">
        <ele>295</ele>
        <time>2022-06-17T13:49:07.000Z</time>
      </trkpt>
      <trkpt lat="49.83849" lon="4.79176">
        <ele>294</ele>
        <time>2022-06-17T13:49:08.000Z</time>
      </trkpt>
      <trkpt lat="49.83846" lon="4.79183">
        <ele>294</ele>
        <time>2022-06-17T13:49:09.000Z</time>
      </trkpt>
      <trkpt lat="49.83843" lon="4.79189">
        <ele>294</ele>
        <time>2022-06-17T13:49:10.000Z</time>
      </trkpt>
      <trkpt lat="49.83841" lon="4.79197">
        <ele>294</ele>
        <time>2022-06-17T13:49:11.000Z</time>
      </trkpt>
      <trkpt lat="49.83839" lon="4.79205">
        <ele>294</ele>
        <time>2022-06-17T13:49:12.000Z</time>
      </trkpt>
      <trkpt lat="49.83839" lon="4.79213">
        <ele>294</ele>
        <time>2022-06-17T13:49:13.000Z</time>
      </trkpt>
      <trkpt lat="49.83839" lon="4.79221">
        <ele>293</ele>
        <time>2022-06-17T13:49:14.000Z</time>
      </trkpt>
      <trkpt lat="49.83839" lon="4.79228">
        <ele>293</ele>
        <time>2022-06-17T13:49:15.000Z</time>
      </trkpt>
      <trkpt lat="49.83839" lon="4.79236">
        <ele>293</ele>
        <time>2022-06-17T13:49:16.000Z</time>
      </trkpt>
      <trkpt lat="49.83838" lon="4.79243">
        <ele>293</ele>
        <time>2022-06-17T13:49:17.000Z</time>
      </trkpt>
      <trkpt lat="49.83838" lon="4.79249">
        <ele>293</ele>
        <time>2022-06-17T13:49:18.000Z</time>
      </trkpt>
      <trkpt lat="49.83838" lon="4.79255">
        <ele>293</ele>
        <time>2022-06-17T13:49:19.000Z</time>
      </trkpt>
      <trkpt lat="49.83838" lon="4.79262">
        <ele>293</ele>
        <time>2022-06-17T13:49:20.000Z</time>
      </trkpt>
      <trkpt lat="49.83837" lon="4.79269">
        <ele>293</ele>
        <time>2022-06-17T13:49:21.000Z</time>
      </trkpt>
      <trkpt lat="49.83837" lon="4.79276">
        <ele>293</ele>
        <time>2022-06-17T13:49:22.000Z</time>
      </trkpt>
      <trkpt lat="49.83837" lon="4.79283">
        <ele>293</ele>
        <time>2022-06-17T13:49:23.000Z</time>
      </trkpt>
      <trkpt lat="49.83836" lon="4.7929">
        <ele>292</ele>
        <time>2022-06-17T13:49:24.000Z</time>
      </trkpt>
      <trkpt lat="49.83835" lon="4.79297">
        <ele>292</ele>
        <time>2022-06-17T13:49:25.000Z</time>
      </trkpt>
      <trkpt lat="49.83835" lon="4.79304">
        <ele>292</ele>
        <time>2022-06-17T13:49:26.000Z</time>
      </trkpt>
      <trkpt lat="49.83834" lon="4.7931">
        <ele>292</ele>
        <time>2022-06-17T13:49:27.000Z</time>
      </trkpt>
      <trkpt lat="49.83832" lon="4.79316">
        <ele>292</ele>
        <time>2022-06-17T13:49:28.000Z</time>
      </trkpt>
      <trkpt lat="49.8383" lon="4.7932">
        <ele>292</ele>
        <time>2022-06-17T13:49:29.000Z</time>
      </trkpt>
      <trkpt lat="49.83827" lon="4.79323">
        <ele>291</ele>
        <time>2022-06-17T13:49:30.000Z</time>
      </trkpt>
      <trkpt lat="49.83825" lon="4.79325">
        <ele>291</ele>
        <time>2022-06-17T13:49:31.000Z</time>
      </trkpt>
      <trkpt lat="49.83824" lon="4.79326">
        <ele>291</ele>
        <time>2022-06-17T13:49:32.000Z</time>
      </trkpt>
      <trkpt lat="49.83822" lon="4.79328">
        <ele>291</ele>
        <time>2022-06-17T13:49:33.000Z</time>
      </trkpt>
      <trkpt lat="49.8382" lon="4.79329">
        <ele>291</ele>
        <time>2022-06-17T13:49:34.000Z</time>
      </trkpt>
      <trkpt lat="49.83818" lon="4.7933">
        <ele>291</ele>
        <time>2022-06-17T13:49:35.000Z</time>
      </trkpt>
      <trkpt lat="49.83816" lon="4.79331">
        <ele>291</ele>
        <time>2022-06-17T13:49:36.000Z</time>
      </trkpt>
      <trkpt lat="49.83813" lon="4.79331">
        <ele>291</ele>
        <time>2022-06-17T13:49:37.000Z</time>
      </trkpt>
      <trkpt lat="49.83811" lon="4.79331">
        <ele>291</ele>
        <time>2022-06-17T13:49:38.000Z</time>
      </trkpt>
      <trkpt lat="49.83809" lon="4.79331">
        <ele>292</ele>
        <time>2022-06-17T13:49:39.000Z</time>
      </trkpt>
      <trkpt lat="49.83807" lon="4.79331">
        <ele>292</ele>
        <time>2022-06-17T13:49:40.000Z</time>
      </trkpt>
      <trkpt lat="49.83805" lon="4.7933">
        <ele>292</ele>
        <time>2022-06-17T13:49:41.000Z</time>
      </trkpt>
      <trkpt lat="49.83802" lon="4.7933">
        <ele>292</ele>
        <time>2022-06-17T13:49:42.000Z</time>
      </trkpt>
      <trkpt lat="49.838" lon="4.79329">
        <ele>293</ele>
        <time>2022-06-17T13:49:43.000Z</time>
      </trkpt>
      <trkpt lat="49.83797" lon="4.79329">
        <ele>293</ele>
        <time>2022-06-17T13:49:44.000Z</time>
      </trkpt>
      <trkpt lat="49.83795" lon="4.79329">
        <ele>293</ele>
        <time>2022-06-17T13:49:45.000Z</time>
      </trkpt>
      <trkpt lat="49.83792" lon="4.79328">
        <ele>294</ele>
        <time>2022-06-17T13:49:46.000Z</time>
      </trkpt>
      <trkpt lat="49.8379" lon="4.79328">
        <ele>294</ele>
        <time>2022-06-17T13:49:47.000Z</time>
      </trkpt>
      <trkpt lat="49.83789" lon="4.79328">
        <ele>294</ele>
        <time>2022-06-17T13:49:48.000Z</time>
      </trkpt>
      <trkpt lat="49.83787" lon="4.79328">
        <ele>295</ele>
        <time>2022-06-17T13:49:49.000Z</time>
      </trkpt>
      <trkpt lat="49.83785" lon="4.79327">
        <ele>295</ele>
        <time>2022-06-17T13:49:50.000Z</time>
      </trkpt>
      <trkpt lat="49.83783" lon="4.79327">
        <ele>295</ele>
        <time>2022-06-17T13:49:51.000Z</time>
      </trkpt>
      <trkpt lat="49.83781" lon="4.79326">
        <ele>295</ele>
        <time>2022-06-17T13:49:52.000Z</time>
      </trkpt>
      <trkpt lat="49.83779" lon="4.79326">
        <ele>296</ele>
        <time>2022-06-17T13:49:53.000Z</time>
      </trkpt>
      <trkpt lat="49.83777" lon="4.79326">
        <ele>296</ele>
        <time>2022-06-17T13:49:54.000Z</time>
      </trkpt>
      <trkpt lat="49.83775" lon="4.79325">
        <ele>297</ele>
        <time>2022-06-17T13:49:55.000Z</time>
      </trkpt>
      <trkpt lat="49.83773" lon="4.79324">
        <ele>297</ele>
        <time>2022-06-17T13:49:56.000Z</time>
      </trkpt>
      <trkpt lat="49.83771" lon="4.79324">
        <ele>297</ele>
        <time>2022-06-17T13:49:57.000Z</time>
      </trkpt>
      <trkpt lat="49.83769" lon="4.79324">
        <ele>298</ele>
        <time>2022-06-17T13:49:58.000Z</time>
      </trkpt>
      <trkpt lat="49.83767" lon="4.79324">
        <ele>298</ele>
        <time>2022-06-17T13:49:59.000Z</time>
      </trkpt>
      <trkpt lat="49.83765" lon="4.79324">
        <ele>299</ele>
        <time>2022-06-17T13:50:00.000Z</time>
      </trkpt>
      <trkpt lat="49.83763" lon="4.79324">
        <ele>299</ele>
        <time>2022-06-17T13:50:01.000Z</time>
      </trkpt>
      <trkpt lat="49.83761" lon="4.79325">
        <ele>299</ele>
        <time>2022-06-17T13:50:02.000Z</time>
      </trkpt>
      <trkpt lat="49.8376" lon="4.79326">
        <ele>300</ele>
        <time>2022-06-17T13:50:03.000Z</time>
      </trkpt>
      <trkpt lat="49.83758" lon="4.79326">
        <ele>300</ele>
        <time>2022-06-17T13:50:04.000Z</time>
      </trkpt>
      <trkpt lat="49.83757" lon="4.79327">
        <ele>301</ele>
        <time>2022-06-17T13:50:05.000Z</time>
      </trkpt>
      <trkpt lat="49.83755" lon="4.79327">
        <ele>301</ele>
        <time>2022-06-17T13:50:06.000Z</time>
      </trkpt>
      <trkpt lat="49.83754" lon="4.79328">
        <ele>301</ele>
        <time>2022-06-17T13:50:07.000Z</time>
      </trkpt>
      <trkpt lat="49.83752" lon="4.79328">
        <ele>302</ele>
        <time>2022-06-17T13:50:08.000Z</time>
      </trkpt>
      <trkpt lat="49.83751" lon="4.79328">
        <ele>302</ele>
        <time>2022-06-17T13:50:09.000Z</time>
      </trkpt>
      <trkpt lat="49.8375" lon="4.79329">
        <ele>303</ele>
        <time>2022-06-17T13:50:10.000Z</time>
      </trkpt>
      <trkpt lat="49.83748" lon="4.79329">
        <ele>303</ele>
        <time>2022-06-17T13:50:11.000Z</time>
      </trkpt>
      <trkpt lat="49.83746" lon="4.7933">
        <ele>303</ele>
        <time>2022-06-17T13:50:12.000Z</time>
      </trkpt>
      <trkpt lat="49.83744" lon="4.79331">
        <ele>304</ele>
        <time>2022-06-17T13:50:13.000Z</time>
      </trkpt>
      <trkpt lat="49.83742" lon="4.79331">
        <ele>304</ele>
        <time>2022-06-17T13:50:14.000Z</time>
      </trkpt>
      <trkpt lat="49.83741" lon="4.79332">
        <ele>304</ele>
        <time>2022-06-17T13:50:15.000Z</time>
      </trkpt>
      <trkpt lat="49.83739" lon="4.79333">
        <ele>305</ele>
        <time>2022-06-17T13:50:16.000Z</time>
      </trkpt>
      <trkpt lat="49.83738" lon="4.79334">
        <ele>305</ele>
        <time>2022-06-17T13:50:17.000Z</time>
      </trkpt>
      <trkpt lat="49.83737" lon="4.79335">
        <ele>306</ele>
        <time>2022-06-17T13:50:18.000Z</time>
      </trkpt>
      <trkpt lat="49.83735" lon="4.79336">
        <ele>306</ele>
        <time>2022-06-17T13:50:19.000Z</time>
      </trkpt>
      <trkpt lat="49.83734" lon="4.79338">
        <ele>307</ele>
        <time>2022-06-17T13:50:20.000Z</time>
      </trkpt>
      <trkpt lat="49.83733" lon="4.7934">
        <ele>307</ele>
        <time>2022-06-17T13:50:21.000Z</time>
      </trkpt>
      <trkpt lat="49.83731" lon="4.79341">
        <ele>307</ele>
        <time>2022-06-17T13:50:22.000Z</time>
      </trkpt>
      <trkpt lat="49.8373" lon="4.79342">
        <ele>307</ele>
        <time>2022-06-17T13:50:23.000Z</time>
      </trkpt>
      <trkpt lat="49.83729" lon="4.79344">
        <ele>308</ele>
        <time>2022-06-17T13:50:24.000Z</time>
      </trkpt>
      <trkpt lat="49.83728" lon="4.79345">
        <ele>308</ele>
        <time>2022-06-17T13:50:25.000Z</time>
      </trkpt>
      <trkpt lat="49.83727" lon="4.79346">
        <ele>308</ele>
        <time>2022-06-17T13:50:26.000Z</time>
      </trkpt>
      <trkpt lat="49.83725" lon="4.79348">
        <ele>308</ele>
        <time>2022-06-17T13:50:27.000Z</time>
      </trkpt>
      <trkpt lat="49.83724" lon="4.7935">
        <ele>309</ele>
        <time>2022-06-17T13:50:28.000Z</time>
      </trkpt>
      <trkpt lat="49.83722" lon="4.79351">
        <ele>309</ele>
        <time>2022-06-17T13:50:29.000Z</time>
      </trkpt>
      <trkpt lat="49.8372" lon="4.79353">
        <ele>309</ele>
        <time>2022-06-17T13:50:30.000Z</time>
      </trkpt>
      <trkpt lat="49.83719" lon="4.79355">
        <ele>309</ele>
        <time>2022-06-17T13:50:31.000Z</time>
      </trkpt>
      <trkpt lat="49.83717" lon="4.79357">
        <ele>309</ele>
        <time>2022-06-17T13:50:32.000Z</time>
      </trkpt>
      <trkpt lat="49.83716" lon="4.79359">
        <ele>310</ele>
        <time>2022-06-17T13:50:33.000Z</time>
      </trkpt>
      <trkpt lat="49.83715" lon="4.79361">
        <ele>310</ele>
        <time>2022-06-17T13:50:34.000Z</time>
      </trkpt>
      <trkpt lat="49.83714" lon="4.79363">
        <ele>310</ele>
        <time>2022-06-17T13:50:35.000Z</time>
      </trkpt>
      <trkpt lat="49.83713" lon="4.79366">
        <ele>310</ele>
        <time>2022-06-17T13:50:36.000Z</time>
      </trkpt>
      <trkpt lat="49.83712" lon="4.79368">
        <ele>310</ele>
        <time>2022-06-17T13:50:37.000Z</time>
      </trkpt>
      <trkpt lat="49.83711" lon="4.7937">
        <ele>310</ele>
        <time>2022-06-17T13:50:38.000Z</time>
      </trkpt>
      <trkpt lat="49.8371" lon="4.79373">
        <ele>311</ele>
        <time>2022-06-17T13:50:39.000Z</time>
      </trkpt>
      <trkpt lat="49.83709" lon="4.79376">
        <ele>311</ele>
        <time>2022-06-17T13:50:40.000Z</time>
      </trkpt>
      <trkpt lat="49.83708" lon="4.79379">
        <ele>311</ele>
        <time>2022-06-17T13:50:41.000Z</time>
      </trkpt>
      <trkpt lat="49.83707" lon="4.79382">
        <ele>311</ele>
        <time>2022-06-17T13:50:42.000Z</time>
      </trkpt>
      <trkpt lat="49.83706" lon="4.79386">
        <ele>311</ele>
        <time>2022-06-17T13:50:43.000Z</time>
      </trkpt>
      <trkpt lat="49.83705" lon="4.79389">
        <ele>311</ele>
        <time>2022-06-17T13:50:44.000Z</time>
      </trkpt>
      <trkpt lat="49.83704" lon="4.79393">
        <ele>311</ele>
        <time>2022-06-17T13:50:45.000Z</time>
      </trkpt>
      <trkpt lat="49.83703" lon="4.79396">
        <ele>312</ele>
        <time>2022-06-17T13:50:46.000Z</time>
      </trkpt>
      <trkpt lat="49.83702" lon="4.79399">
        <ele>312</ele>
        <time>2022-06-17T13:50:47.000Z</time>
      </trkpt>
      <trkpt lat="49.83702" lon="4.79403">
        <ele>312</ele>
        <time>2022-06-17T13:50:48.000Z</time>
      </trkpt>
      <trkpt lat="49.83701" lon="4.79406">
        <ele>312</ele>
        <time>2022-06-17T13:50:49.000Z</time>
      </trkpt>
      <trkpt lat="49.83701" lon="4.79409">
        <ele>312</ele>
        <time>2022-06-17T13:50:50.000Z</time>
      </trkpt>
      <trkpt lat="49.837" lon="4.79412">
        <ele>312</ele>
        <time>2022-06-17T13:50:51.000Z</time>
      </trkpt>
      <trkpt lat="49.83699" lon="4.79415">
        <ele>312</ele>
        <time>2022-06-17T13:50:52.000Z</time>
      </trkpt>
      <trkpt lat="49.83698" lon="4.79417">
        <ele>312</ele>
        <time>2022-06-17T13:50:53.000Z</time>
      </trkpt>
      <trkpt lat="49.83697" lon="4.79421">
        <ele>312</ele>
        <time>2022-06-17T13:50:54.000Z</time>
      </trkpt>
      <trkpt lat="49.83696" lon="4.79424">
        <ele>312</ele>
        <time>2022-06-17T13:50:55.000Z</time>
      </trkpt>
      <trkpt lat="49.83695" lon="4.79428">
        <ele>312</ele>
        <time>2022-06-17T13:50:56.000Z</time>
      </trkpt>
      <trkpt lat="49.83693" lon="4.79431">
        <ele>312</ele>
        <time>2022-06-17T13:50:57.000Z</time>
      </trkpt>
      <trkpt lat="49.83692" lon="4.79435">
        <ele>312</ele>
        <time>2022-06-17T13:50:58.000Z</time>
      </trkpt>
      <trkpt lat="49.83691" lon="4.79439">
        <ele>312</ele>
        <time>2022-06-17T13:50:59.000Z</time>
      </trkpt>
      <trkpt lat="49.8369" lon="4.79443">
        <ele>312</ele>
        <time>2022-06-17T13:51:00.000Z</time>
      </trkpt>
      <trkpt lat="49.8369" lon="4.79447">
        <ele>312</ele>
        <time>2022-06-17T13:51:01.000Z</time>
      </trkpt>
      <trkpt lat="49.83689" lon="4.79452">
        <ele>312</ele>
        <time>2022-06-17T13:51:02.000Z</time>
      </trkpt>
      <trkpt lat="49.83688" lon="4.79456">
        <ele>312</ele>
        <time>2022-06-17T13:51:03.000Z</time>
      </trkpt>
      <trkpt lat="49.83687" lon="4.7946">
        <ele>312</ele>
        <time>2022-06-17T13:51:04.000Z</time>
      </trkpt>
      <trkpt lat="49.83686" lon="4.79465">
        <ele>312</ele>
        <time>2022-06-17T13:51:05.000Z</time>
      </trkpt>
      <trkpt lat="49.83685" lon="4.7947">
        <ele>313</ele>
        <time>2022-06-17T13:51:06.000Z</time>
      </trkpt>
      <trkpt lat="49.83683" lon="4.79475">
        <ele>312</ele>
        <time>2022-06-17T13:51:07.000Z</time>
      </trkpt>
      <trkpt lat="49.83681" lon="4.79479">
        <ele>312</ele>
        <time>2022-06-17T13:51:08.000Z</time>
      </trkpt>
      <trkpt lat="49.8368" lon="4.79484">
        <ele>312</ele>
        <time>2022-06-17T13:51:09.000Z</time>
      </trkpt>
      <trkpt lat="49.83679" lon="4.7949">
        <ele>312</ele>
        <time>2022-06-17T13:51:10.000Z</time>
      </trkpt>
      <trkpt lat="49.83678" lon="4.79496">
        <ele>312</ele>
        <time>2022-06-17T13:51:11.000Z</time>
      </trkpt>
      <trkpt lat="49.83677" lon="4.79503">
        <ele>312</ele>
        <time>2022-06-17T13:51:12.000Z</time>
      </trkpt>
      <trkpt lat="49.83676" lon="4.7951">
        <ele>312</ele>
        <time>2022-06-17T13:51:13.000Z</time>
      </trkpt>
      <trkpt lat="49.83675" lon="4.79517">
        <ele>313</ele>
        <time>2022-06-17T13:51:14.000Z</time>
      </trkpt>
      <trkpt lat="49.83674" lon="4.79524">
        <ele>313</ele>
        <time>2022-06-17T13:51:15.000Z</time>
      </trkpt>
      <trkpt lat="49.83674" lon="4.7953">
        <ele>313</ele>
        <time>2022-06-17T13:51:16.000Z</time>
      </trkpt>
      <trkpt lat="49.83673" lon="4.79536">
        <ele>313</ele>
        <time>2022-06-17T13:51:17.000Z</time>
      </trkpt>
      <trkpt lat="49.83672" lon="4.79541">
        <ele>313</ele>
        <time>2022-06-17T13:51:18.000Z</time>
      </trkpt>
      <trkpt lat="49.83673" lon="4.79546">
        <ele>313</ele>
        <time>2022-06-17T13:51:19.000Z</time>
      </trkpt>
      <trkpt lat="49.83673" lon="4.79551">
        <ele>313</ele>
        <time>2022-06-17T13:51:20.000Z</time>
      </trkpt>
      <trkpt lat="49.83673" lon="4.79557">
        <ele>313</ele>
        <time>2022-06-17T13:51:21.000Z</time>
      </trkpt>
      <trkpt lat="49.83673" lon="4.79562">
        <ele>314</ele>
        <time>2022-06-17T13:51:22.000Z</time>
      </trkpt>
      <trkpt lat="49.83673" lon="4.79568">
        <ele>314</ele>
        <time>2022-06-17T13:51:23.000Z</time>
      </trkpt>
      <trkpt lat="49.83674" lon="4.79573">
        <ele>314</ele>
        <time>2022-06-17T13:51:24.000Z</time>
      </trkpt>
      <trkpt lat="49.83675" lon="4.79579">
        <ele>314</ele>
        <time>2022-06-17T13:51:25.000Z</time>
      </trkpt>
      <trkpt lat="49.83675" lon="4.79584">
        <ele>314</ele>
        <time>2022-06-17T13:51:26.000Z</time>
      </trkpt>
      <trkpt lat="49.83676" lon="4.79588">
        <ele>314</ele>
        <time>2022-06-17T13:51:27.000Z</time>
      </trkpt>
      <trkpt lat="49.83676" lon="4.7959">
        <ele>314</ele>
        <time>2022-06-17T13:51:28.000Z</time>
      </trkpt>
      <trkpt lat="49.83676" lon="4.79594">
        <ele>314</ele>
        <time>2022-06-17T13:51:29.000Z</time>
      </trkpt>
      <trkpt lat="49.83677" lon="4.79597">
        <ele>314</ele>
        <time>2022-06-17T13:51:30.000Z</time>
      </trkpt>
      <trkpt lat="49.83678" lon="4.79601">
        <ele>315</ele>
        <time>2022-06-17T13:51:31.000Z</time>
      </trkpt>
      <trkpt lat="49.83678" lon="4.79606">
        <ele>315</ele>
        <time>2022-06-17T13:51:32.000Z</time>
      </trkpt>
      <trkpt lat="49.83679" lon="4.79611">
        <ele>315</ele>
        <time>2022-06-17T13:51:33.000Z</time>
      </trkpt>
      <trkpt lat="49.83679" lon="4.79617">
        <ele>315</ele>
        <time>2022-06-17T13:51:34.000Z</time>
      </trkpt>
      <trkpt lat="49.83679" lon="4.79623">
        <ele>315</ele>
        <time>2022-06-17T13:51:35.000Z</time>
      </trkpt>
      <trkpt lat="49.83678" lon="4.79629">
        <ele>316</ele>
        <time>2022-06-17T13:51:36.000Z</time>
      </trkpt>
      <trkpt lat="49.83678" lon="4.79634">
        <ele>316</ele>
        <time>2022-06-17T13:51:37.000Z</time>
      </trkpt>
      <trkpt lat="49.83678" lon="4.7964">
        <ele>316</ele>
        <time>2022-06-17T13:51:38.000Z</time>
      </trkpt>
      <trkpt lat="49.83678" lon="4.79647">
        <ele>316</ele>
        <time>2022-06-17T13:51:39.000Z</time>
      </trkpt>
      <trkpt lat="49.83678" lon="4.79653">
        <ele>316</ele>
        <time>2022-06-17T13:51:40.000Z</time>
      </trkpt>
      <trkpt lat="49.83678" lon="4.79659">
        <ele>316</ele>
        <time>2022-06-17T13:51:41.000Z</time>
      </trkpt>
      <trkpt lat="49.83678" lon="4.79666">
        <ele>316</ele>
        <time>2022-06-17T13:51:42.000Z</time>
      </trkpt>
      <trkpt lat="49.83678" lon="4.79673">
        <ele>316</ele>
        <time>2022-06-17T13:51:43.000Z</time>
      </trkpt>
      <trkpt lat="49.83678" lon="4.7968">
        <ele>316</ele>
        <time>2022-06-17T13:51:44.000Z</time>
      </trkpt>
      <trkpt lat="49.83678" lon="4.79687">
        <ele>316</ele>
        <time>2022-06-17T13:51:45.000Z</time>
      </trkpt>
      <trkpt lat="49.83679" lon="4.79692">
        <ele>316</ele>
        <time>2022-06-17T13:51:46.000Z</time>
      </trkpt>
      <trkpt lat="49.83681" lon="4.79696">
        <ele>316</ele>
        <time>2022-06-17T13:51:47.000Z</time>
      </trkpt>
      <trkpt lat="49.83684" lon="4.79699">
        <ele>316</ele>
        <time>2022-06-17T13:51:48.000Z</time>
      </trkpt>
      <trkpt lat="49.83687" lon="4.797">
        <ele>316</ele>
        <time>2022-06-17T13:51:49.000Z</time>
      </trkpt>
      <trkpt lat="49.83691" lon="4.797">
        <ele>316</ele>
        <time>2022-06-17T13:51:50.000Z</time>
      </trkpt>
      <trkpt lat="49.83695" lon="4.79701">
        <ele>316</ele>
        <time>2022-06-17T13:51:51.000Z</time>
      </trkpt>
      <trkpt lat="49.83699" lon="4.79703">
        <ele>316</ele>
        <time>2022-06-17T13:51:52.000Z</time>
      </trkpt>
      <trkpt lat="49.83702" lon="4.79705">
        <ele>316</ele>
        <time>2022-06-17T13:51:53.000Z</time>
      </trkpt>
      <trkpt lat="49.83706" lon="4.79707">
        <ele>316</ele>
        <time>2022-06-17T13:51:54.000Z</time>
      </trkpt>
      <trkpt lat="49.83709" lon="4.79709">
        <ele>316</ele>
        <time>2022-06-17T13:51:55.000Z</time>
      </trkpt>
      <trkpt lat="49.83713" lon="4.7971">
        <ele>316</ele>
        <time>2022-06-17T13:51:56.000Z</time>
      </trkpt>
      <trkpt lat="49.83717" lon="4.79711">
        <ele>316</ele>
        <time>2022-06-17T13:51:57.000Z</time>
      </trkpt>
      <trkpt lat="49.83721" lon="4.79712">
        <ele>316</ele>
        <time>2022-06-17T13:51:58.000Z</time>
      </trkpt>
      <trkpt lat="49.83725" lon="4.79712">
        <ele>316</ele>
        <time>2022-06-17T13:51:59.000Z</time>
      </trkpt>
      <trkpt lat="49.83729" lon="4.79713">
        <ele>316</ele>
        <time>2022-06-17T13:52:00.000Z</time>
      </trkpt>
      <trkpt lat="49.83732" lon="4.79713">
        <ele>317</ele>
        <time>2022-06-17T13:52:01.000Z</time>
      </trkpt>
      <trkpt lat="49.83736" lon="4.79714">
        <ele>317</ele>
        <time>2022-06-17T13:52:02.000Z</time>
      </trkpt>
      <trkpt lat="49.8374" lon="4.79714">
        <ele>317</ele>
        <time>2022-06-17T13:52:03.000Z</time>
      </trkpt>
      <trkpt lat="49.83744" lon="4.79715">
        <ele>317</ele>
        <time>2022-06-17T13:52:04.000Z</time>
      </trkpt>
      <trkpt lat="49.83748" lon="4.79715">
        <ele>317</ele>
        <time>2022-06-17T13:52:05.000Z</time>
      </trkpt>
      <trkpt lat="49.83752" lon="4.79716">
        <ele>317</ele>
        <time>2022-06-17T13:52:06.000Z</time>
      </trkpt>
      <trkpt lat="49.83755" lon="4.79716">
        <ele>317</ele>
        <time>2022-06-17T13:52:07.000Z</time>
      </trkpt>
      <trkpt lat="49.83759" lon="4.79718">
        <ele>317</ele>
        <time>2022-06-17T13:52:08.000Z</time>
      </trkpt>
      <trkpt lat="49.83762" lon="4.79719">
        <ele>317</ele>
        <time>2022-06-17T13:52:09.000Z</time>
      </trkpt>
      <trkpt lat="49.83766" lon="4.7972">
        <ele>317</ele>
        <time>2022-06-17T13:52:10.000Z</time>
      </trkpt>
      <trkpt lat="49.83769" lon="4.79721">
        <ele>317</ele>
        <time>2022-06-17T13:52:11.000Z</time>
      </trkpt>
      <trkpt lat="49.83772" lon="4.79722">
        <ele>318</ele>
        <time>2022-06-17T13:52:12.000Z</time>
      </trkpt>
      <trkpt lat="49.83776" lon="4.79722">
        <ele>318</ele>
        <time>2022-06-17T13:52:13.000Z</time>
      </trkpt>
      <trkpt lat="49.83779" lon="4.79723">
        <ele>318</ele>
        <time>2022-06-17T13:52:14.000Z</time>
      </trkpt>
      <trkpt lat="49.83782" lon="4.79724">
        <ele>318</ele>
        <time>2022-06-17T13:52:15.000Z</time>
      </trkpt>
      <trkpt lat="49.83785" lon="4.79725">
        <ele>318</ele>
        <time>2022-06-17T13:52:16.000Z</time>
      </trkpt>
      <trkpt lat="49.83788" lon="4.79725">
        <ele>318</ele>
        <time>2022-06-17T13:52:17.000Z</time>
      </trkpt>
      <trkpt lat="49.83791" lon="4.79726">
        <ele>318</ele>
        <time>2022-06-17T13:52:18.000Z</time>
      </trkpt>
      <trkpt lat="49.83794" lon="4.79727">
        <ele>318</ele>
        <time>2022-06-17T13:52:19.000Z</time>
      </trkpt>
      <trkpt lat="49.83796" lon="4.79728">
        <ele>318</ele>
        <time>2022-06-17T13:52:20.000Z</time>
      </trkpt>
      <trkpt lat="49.83799" lon="4.79728">
        <ele>318</ele>
        <time>2022-06-17T13:52:21.000Z</time>
      </trkpt>
      <trkpt lat="49.83802" lon="4.79729">
        <ele>318</ele>
        <time>2022-06-17T13:52:22.000Z</time>
      </trkpt>
      <trkpt lat="49.83805" lon="4.7973">
        <ele>318</ele>
        <time>2022-06-17T13:52:23.000Z</time>
      </trkpt>
      <trkpt lat="49.83808" lon="4.79731">
        <ele>319</ele>
        <time>2022-06-17T13:52:24.000Z</time>
      </trkpt>
      <trkpt lat="49.83811" lon="4.79732">
        <ele>319</ele>
        <time>2022-06-17T13:52:25.000Z</time>
      </trkpt>
      <trkpt lat="49.83814" lon="4.79733">
        <ele>319</ele>
        <time>2022-06-17T13:52:26.000Z</time>
      </trkpt>
      <trkpt lat="49.83817" lon="4.79735">
        <ele>319</ele>
        <time>2022-06-17T13:52:27.000Z</time>
      </trkpt>
      <trkpt lat="49.83821" lon="4.79737">
        <ele>319</ele>
        <time>2022-06-17T13:52:28.000Z</time>
      </trkpt>
      <trkpt lat="49.83824" lon="4.79738">
        <ele>319</ele>
        <time>2022-06-17T13:52:29.000Z</time>
      </trkpt>
      <trkpt lat="49.83827" lon="4.7974">
        <ele>319</ele>
        <time>2022-06-17T13:52:30.000Z</time>
      </trkpt>
      <trkpt lat="49.8383" lon="4.79742">
        <ele>320</ele>
        <time>2022-06-17T13:52:31.000Z</time>
      </trkpt>
      <trkpt lat="49.83833" lon="4.79744">
        <ele>320</ele>
        <time>2022-06-17T13:52:32.000Z</time>
      </trkpt>
      <trkpt lat="49.83836" lon="4.79746">
        <ele>320</ele>
        <time>2022-06-17T13:52:33.000Z</time>
      </trkpt>
      <trkpt lat="49.83839" lon="4.79748">
        <ele>320</ele>
        <time>2022-06-17T13:52:34.000Z</time>
      </trkpt>
      <trkpt lat="49.83842" lon="4.79751">
        <ele>320</ele>
        <time>2022-06-17T13:52:35.000Z</time>
      </trkpt>
      <trkpt lat="49.83846" lon="4.79753">
        <ele>321</ele>
        <time>2022-06-17T13:52:36.000Z</time>
      </trkpt>
      <trkpt lat="49.83849" lon="4.79755">
        <ele>321</ele>
        <time>2022-06-17T13:52:37.000Z</time>
      </trkpt>
      <trkpt lat="49.83852" lon="4.79757">
        <ele>321</ele>
        <time>2022-06-17T13:52:38.000Z</time>
      </trkpt>
      <trkpt lat="49.83855" lon="4.7976">
        <ele>322</ele>
        <time>2022-06-17T13:52:39.000Z</time>
      </trkpt>
      <trkpt lat="49.83859" lon="4.79762">
        <ele>322</ele>
        <time>2022-06-17T13:52:40.000Z</time>
      </trkpt>
      <trkpt lat="49.83862" lon="4.79765">
        <ele>322</ele>
        <time>2022-06-17T13:52:41.000Z</time>
      </trkpt>
      <trkpt lat="49.83865" lon="4.79767">
        <ele>322</ele>
        <time>2022-06-17T13:52:42.000Z</time>
      </trkpt>
      <trkpt lat="49.83869" lon="4.7977">
        <ele>322</ele>
        <time>2022-06-17T13:52:43.000Z</time>
      </trkpt>
      <trkpt lat="49.83872" lon="4.79772">
        <ele>323</ele>
        <time>2022-06-17T13:52:44.000Z</time>
      </trkpt>
      <trkpt lat="49.83875" lon="4.79775">
        <ele>323</ele>
        <time>2022-06-17T13:52:45.000Z</time>
      </trkpt>
      <trkpt lat="49.83878" lon="4.79777">
        <ele>323</ele>
        <time>2022-06-17T13:52:46.000Z</time>
      </trkpt>
      <trkpt lat="49.83881" lon="4.7978">
        <ele>323</ele>
        <time>2022-06-17T13:52:47.000Z</time>
      </trkpt>
      <trkpt lat="49.83885" lon="4.79783">
        <ele>323</ele>
        <time>2022-06-17T13:52:48.000Z</time>
      </trkpt>
      <trkpt lat="49.83888" lon="4.79785">
        <ele>323</ele>
        <time>2022-06-17T13:52:49.000Z</time>
      </trkpt>
      <trkpt lat="49.83891" lon="4.79788">
        <ele>324</ele>
        <time>2022-06-17T13:52:50.000Z</time>
      </trkpt>
      <trkpt lat="49.83894" lon="4.7979">
        <ele>324</ele>
        <time>2022-06-17T13:52:51.000Z</time>
      </trkpt>
      <trkpt lat="49.83898" lon="4.79793">
        <ele>324</ele>
        <time>2022-06-17T13:52:52.000Z</time>
      </trkpt>
      <trkpt lat="49.83901" lon="4.79795">
        <ele>324</ele>
        <time>2022-06-17T13:52:53.000Z</time>
      </trkpt>
      <trkpt lat="49.83904" lon="4.79797">
        <ele>324</ele>
        <time>2022-06-17T13:52:54.000Z</time>
      </trkpt>
      <trkpt lat="49.83907" lon="4.79799">
        <ele>325</ele>
        <time>2022-06-17T13:52:55.000Z</time>
      </trkpt>
      <trkpt lat="49.8391" lon="4.79801">
        <ele>325</ele>
        <time>2022-06-17T13:52:56.000Z</time>
      </trkpt>
      <trkpt lat="49.83914" lon="4.79803">
        <ele>325</ele>
        <time>2022-06-17T13:52:57.000Z</time>
      </trkpt>
      <trkpt lat="49.83917" lon="4.79805">
        <ele>325</ele>
        <time>2022-06-17T13:52:58.000Z</time>
      </trkpt>
      <trkpt lat="49.8392" lon="4.79807">
        <ele>325</ele>
        <time>2022-06-17T13:52:59.000Z</time>
      </trkpt>
      <trkpt lat="49.83923" lon="4.79809">
        <ele>325</ele>
        <time>2022-06-17T13:53:00.000Z</time>
      </trkpt>
      <trkpt lat="49.83926" lon="4.79812">
        <ele>326</ele>
        <time>2022-06-17T13:53:01.000Z</time>
      </trkpt>
      <trkpt lat="49.83929" lon="4.79814">
        <ele>326</ele>
        <time>2022-06-17T13:53:02.000Z</time>
      </trkpt>
      <trkpt lat="49.83933" lon="4.79816">
        <ele>326</ele>
        <time>2022-06-17T13:53:03.000Z</time>
      </trkpt>
      <trkpt lat="49.83936" lon="4.79818">
        <ele>326</ele>
        <time>2022-06-17T13:53:04.000Z</time>
      </trkpt>
      <trkpt lat="49.83939" lon="4.7982">
        <ele>326</ele>
        <time>2022-06-17T13:53:05.000Z</time>
      </trkpt>
      <trkpt lat="49.83942" lon="4.79822">
        <ele>326</ele>
        <time>2022-06-17T13:53:06.000Z</time>
      </trkpt>
      <trkpt lat="49.83945" lon="4.79824">
        <ele>326</ele>
        <time>2022-06-17T13:53:07.000Z</time>
      </trkpt>
      <trkpt lat="49.83948" lon="4.79826">
        <ele>326</ele>
        <time>2022-06-17T13:53:08.000Z</time>
      </trkpt>
      <trkpt lat="49.83951" lon="4.79828">
        <ele>327</ele>
        <time>2022-06-17T13:53:09.000Z</time>
      </trkpt>
      <trkpt lat="49.83954" lon="4.79829">
        <ele>327</ele>
        <time>2022-06-17T13:53:10.000Z</time>
      </trkpt>
      <trkpt lat="49.83957" lon="4.79831">
        <ele>327</ele>
        <time>2022-06-17T13:53:11.000Z</time>
      </trkpt>
      <trkpt lat="49.8396" lon="4.79833">
        <ele>327</ele>
        <time>2022-06-17T13:53:12.000Z</time>
      </trkpt>
      <trkpt lat="49.83963" lon="4.79835">
        <ele>327</ele>
        <time>2022-06-17T13:53:13.000Z</time>
      </trkpt>
      <trkpt lat="49.83965" lon="4.79838">
        <ele>327</ele>
        <time>2022-06-17T13:53:14.000Z</time>
      </trkpt>
      <trkpt lat="49.83967" lon="4.7984">
        <ele>327</ele>
        <time>2022-06-17T13:53:15.000Z</time>
      </trkpt>
      <trkpt lat="49.8397" lon="4.79842">
        <ele>327</ele>
        <time>2022-06-17T13:53:16.000Z</time>
      </trkpt>
      <trkpt lat="49.83972" lon="4.79843">
        <ele>327</ele>
        <time>2022-06-17T13:53:17.000Z</time>
      </trkpt>
      <trkpt lat="49.83975" lon="4.79844">
        <ele>327</ele>
        <time>2022-06-17T13:53:18.000Z</time>
      </trkpt>
      <trkpt lat="49.83977" lon="4.79845">
        <ele>327</ele>
        <time>2022-06-17T13:53:19.000Z</time>
      </trkpt>
      <trkpt lat="49.8398" lon="4.79846">
        <ele>327</ele>
        <time>2022-06-17T13:53:20.000Z</time>
      </trkpt>
      <trkpt lat="49.83982" lon="4.79848">
        <ele>327</ele>
        <time>2022-06-17T13:53:21.000Z</time>
      </trkpt>
      <trkpt lat="49.83985" lon="4.7985">
        <ele>328</ele>
        <time>2022-06-17T13:53:22.000Z</time>
      </trkpt>
      <trkpt lat="49.83987" lon="4.79852">
        <ele>328</ele>
        <time>2022-06-17T13:53:23.000Z</time>
      </trkpt>
      <trkpt lat="49.8399" lon="4.79853">
        <ele>328</ele>
        <time>2022-06-17T13:53:24.000Z</time>
      </trkpt>
      <trkpt lat="49.83992" lon="4.79854">
        <ele>328</ele>
        <time>2022-06-17T13:53:25.000Z</time>
      </trkpt>
      <trkpt lat="49.83994" lon="4.79855">
        <ele>329</ele>
        <time>2022-06-17T13:53:26.000Z</time>
      </trkpt>
      <trkpt lat="49.83997" lon="4.79856">
        <ele>329</ele>
        <time>2022-06-17T13:53:27.000Z</time>
      </trkpt>
      <trkpt lat="49.83999" lon="4.79858">
        <ele>329</ele>
        <time>2022-06-17T13:53:28.000Z</time>
      </trkpt>
      <trkpt lat="49.84001" lon="4.79859">
        <ele>329</ele>
        <time>2022-06-17T13:53:29.000Z</time>
      </trkpt>
      <trkpt lat="49.84004" lon="4.7986">
        <ele>329</ele>
        <time>2022-06-17T13:53:30.000Z</time>
      </trkpt>
      <trkpt lat="49.84006" lon="4.79861">
        <ele>330</ele>
        <time>2022-06-17T13:53:31.000Z</time>
      </trkpt>
      <trkpt lat="49.84009" lon="4.79862">
        <ele>330</ele>
        <time>2022-06-17T13:53:32.000Z</time>
      </trkpt>
      <trkpt lat="49.84011" lon="4.79864">
        <ele>330</ele>
        <time>2022-06-17T13:53:33.000Z</time>
      </trkpt>
      <trkpt lat="49.84014" lon="4.79866">
        <ele>330</ele>
        <time>2022-06-17T13:53:34.000Z</time>
      </trkpt>
      <trkpt lat="49.84016" lon="4.79867">
        <ele>331</ele>
        <time>2022-06-17T13:53:35.000Z</time>
      </trkpt>
      <trkpt lat="49.84019" lon="4.79869">
        <ele>331</ele>
        <time>2022-06-17T13:53:36.000Z</time>
      </trkpt>
      <trkpt lat="49.84021" lon="4.79871">
        <ele>331</ele>
        <time>2022-06-17T13:53:37.000Z</time>
      </trkpt>
      <trkpt lat="49.84024" lon="4.79872">
        <ele>331</ele>
        <time>2022-06-17T13:53:38.000Z</time>
      </trkpt>
      <trkpt lat="49.84026" lon="4.79874">
        <ele>332</ele>
        <time>2022-06-17T13:53:39.000Z</time>
      </trkpt>
      <trkpt lat="49.84028" lon="4.79875">
        <ele>332</ele>
        <time>2022-06-17T13:53:40.000Z</time>
      </trkpt>
      <trkpt lat="49.84031" lon="4.79876">
        <ele>332</ele>
        <time>2022-06-17T13:53:41.000Z</time>
      </trkpt>
      <trkpt lat="49.84033" lon="4.79877">
        <ele>332</ele>
        <time>2022-06-17T13:53:42.000Z</time>
      </trkpt>
      <trkpt lat="49.84035" lon="4.79878">
        <ele>333</ele>
        <time>2022-06-17T13:53:43.000Z</time>
      </trkpt>
      <trkpt lat="49.84038" lon="4.7988">
        <ele>333</ele>
        <time>2022-06-17T13:53:44.000Z</time>
      </trkpt>
      <trkpt lat="49.8404" lon="4.79881">
        <ele>333</ele>
        <time>2022-06-17T13:53:45.000Z</time>
      </trkpt>
      <trkpt lat="49.84042" lon="4.79883">
        <ele>334</ele>
        <time>2022-06-17T13:53:46.000Z</time>
      </trkpt>
      <trkpt lat="49.84044" lon="4.79884">
        <ele>334</ele>
        <time>2022-06-17T13:53:47.000Z</time>
      </trkpt>
      <trkpt lat="49.84045" lon="4.79887">
        <ele>334</ele>
        <time>2022-06-17T13:53:48.000Z</time>
      </trkpt>
      <trkpt lat="49.84044" lon="4.79888">
        <ele>335</ele>
        <time>2022-06-17T13:53:49.000Z</time>
      </trkpt>
      <trkpt lat="49.84044" lon="4.7989">
        <ele>335</ele>
        <time>2022-06-17T13:53:50.000Z</time>
      </trkpt>
      <trkpt lat="49.84043" lon="4.79892">
        <ele>335</ele>
        <time>2022-06-17T13:53:51.000Z</time>
      </trkpt>
      <trkpt lat="49.84043" lon="4.79895">
        <ele>335</ele>
        <time>2022-06-17T13:53:52.000Z</time>
      </trkpt>
      <trkpt lat="49.84042" lon="4.79897">
        <ele>335</ele>
        <time>2022-06-17T13:53:53.000Z</time>
      </trkpt>
      <trkpt lat="49.84041" lon="4.799">
        <ele>335</ele>
        <time>2022-06-17T13:53:54.000Z</time>
      </trkpt>
      <trkpt lat="49.84041" lon="4.79903">
        <ele>336</ele>
        <time>2022-06-17T13:53:55.000Z</time>
      </trkpt>
      <trkpt lat="49.8404" lon="4.79905">
        <ele>336</ele>
        <time>2022-06-17T13:53:56.000Z</time>
      </trkpt>
      <trkpt lat="49.8404" lon="4.79906">
        <ele>336</ele>
        <time>2022-06-17T13:53:57.000Z</time>
      </trkpt>
      <trkpt lat="49.84039" lon="4.79908">
        <ele>336</ele>
        <time>2022-06-17T13:53:58.000Z</time>
      </trkpt>
      <trkpt lat="49.84038" lon="4.79909">
        <ele>336</ele>
        <time>2022-06-17T13:53:59.000Z</time>
      </trkpt>
      <trkpt lat="49.84038" lon="4.79909">
        <ele>336</ele>
        <time>2022-06-17T13:54:00.000Z</time>
      </trkpt>
      <trkpt lat="49.84037" lon="4.79908">
        <ele>336</ele>
        <time>2022-06-17T13:54:01.000Z</time>
      </trkpt>
      <trkpt lat="49.84035" lon="4.79907">
        <ele>336</ele>
        <time>2022-06-17T13:54:02.000Z</time>
      </trkpt>
      <trkpt lat="49.84033" lon="4.79907">
        <ele>336</ele>
        <time>2022-06-17T13:54:03.000Z</time>
      </trkpt>
      <trkpt lat="49.84031" lon="4.79909">
        <ele>336</ele>
        <time>2022-06-17T13:54:04.000Z</time>
      </trkpt>
      <trkpt lat="49.84029" lon="4.79913">
        <ele>336</ele>
        <time>2022-06-17T13:54:05.000Z</time>
      </trkpt>
      <trkpt lat="49.84028" lon="4.79917">
        <ele>336</ele>
        <time>2022-06-17T13:54:06.000Z</time>
      </trkpt>
      <trkpt lat="49.84027" lon="4.79921">
        <ele>336</ele>
        <time>2022-06-17T13:54:07.000Z</time>
      </trkpt>
      <trkpt lat="49.84027" lon="4.79926">
        <ele>336</ele>
        <time>2022-06-17T13:54:08.000Z</time>
      </trkpt>
      <trkpt lat="49.84028" lon="4.7993">
        <ele>336</ele>
        <time>2022-06-17T13:54:09.000Z</time>
      </trkpt>
      <trkpt lat="49.84029" lon="4.79934">
        <ele>336</ele>
        <time>2022-06-17T13:54:10.000Z</time>
      </trkpt>
      <trkpt lat="49.8403" lon="4.79939">
        <ele>336</ele>
        <time>2022-06-17T13:54:11.000Z</time>
      </trkpt>
      <trkpt lat="49.84032" lon="4.79944">
        <ele>336</ele>
        <time>2022-06-17T13:54:12.000Z</time>
      </trkpt>
      <trkpt lat="49.84033" lon="4.79948">
        <ele>336</ele>
        <time>2022-06-17T13:54:13.000Z</time>
      </trkpt>
      <trkpt lat="49.84035" lon="4.79953">
        <ele>336</ele>
        <time>2022-06-17T13:54:14.000Z</time>
      </trkpt>
      <trkpt lat="49.84037" lon="4.79958">
        <ele>336</ele>
        <time>2022-06-17T13:54:15.000Z</time>
      </trkpt>
      <trkpt lat="49.84039" lon="4.79964">
        <ele>336</ele>
        <time>2022-06-17T13:54:16.000Z</time>
      </trkpt>
      <trkpt lat="49.84042" lon="4.79969">
        <ele>335</ele>
        <time>2022-06-17T13:54:17.000Z</time>
      </trkpt>
      <trkpt lat="49.84044" lon="4.79974">
        <ele>335</ele>
        <time>2022-06-17T13:54:18.000Z</time>
      </trkpt>
      <trkpt lat="49.84045" lon="4.79978">
        <ele>335</ele>
        <time>2022-06-17T13:54:19.000Z</time>
      </trkpt>
      <trkpt lat="49.84047" lon="4.79983">
        <ele>335</ele>
        <time>2022-06-17T13:54:20.000Z</time>
      </trkpt>
      <trkpt lat="49.84049" lon="4.79988">
        <ele>335</ele>
        <time>2022-06-17T13:54:21.000Z</time>
      </trkpt>
      <trkpt lat="49.8405" lon="4.79993">
        <ele>335</ele>
        <time>2022-06-17T13:54:22.000Z</time>
      </trkpt>
      <trkpt lat="49.84052" lon="4.79998">
        <ele>335</ele>
        <time>2022-06-17T13:54:23.000Z</time>
      </trkpt>
      <trkpt lat="49.84054" lon="4.80004">
        <ele>335</ele>
        <time>2022-06-17T13:54:24.000Z</time>
      </trkpt>
      <trkpt lat="49.84056" lon="4.8001">
        <ele>335</ele>
        <time>2022-06-17T13:54:25.000Z</time>
      </trkpt>
      <trkpt lat="49.84058" lon="4.80015">
        <ele>335</ele>
        <time>2022-06-17T13:54:26.000Z</time>
      </trkpt>
      <trkpt lat="49.8406" lon="4.8002">
        <ele>334</ele>
        <time>2022-06-17T13:54:27.000Z</time>
      </trkpt>
      <trkpt lat="49.84062" lon="4.80025">
        <ele>334</ele>
        <time>2022-06-17T13:54:28.000Z</time>
      </trkpt>
      <trkpt lat="49.84063" lon="4.8003">
        <ele>334</ele>
        <time>2022-06-17T13:54:29.000Z</time>
      </trkpt>
      <trkpt lat="49.84066" lon="4.80036">
        <ele>334</ele>
        <time>2022-06-17T13:54:30.000Z</time>
      </trkpt>
      <trkpt lat="49.84068" lon="4.80043">
        <ele>334</ele>
        <time>2022-06-17T13:54:31.000Z</time>
      </trkpt>
      <trkpt lat="49.8407" lon="4.8005">
        <ele>334</ele>
        <time>2022-06-17T13:54:32.000Z</time>
      </trkpt>
      <trkpt lat="49.84072" lon="4.80057">
        <ele>334</ele>
        <time>2022-06-17T13:54:33.000Z</time>
      </trkpt>
      <trkpt lat="49.84074" lon="4.80065">
        <ele>334</ele>
        <time>2022-06-17T13:54:34.000Z</time>
      </trkpt>
      <trkpt lat="49.84076" lon="4.80074">
        <ele>333</ele>
        <time>2022-06-17T13:54:35.000Z</time>
      </trkpt>
      <trkpt lat="49.84078" lon="4.80083">
        <ele>333</ele>
        <time>2022-06-17T13:54:36.000Z</time>
      </trkpt>
      <trkpt lat="49.84081" lon="4.80093">
        <ele>333</ele>
        <time>2022-06-17T13:54:37.000Z</time>
      </trkpt>
      <trkpt lat="49.84083" lon="4.80102">
        <ele>333</ele>
        <time>2022-06-17T13:54:38.000Z</time>
      </trkpt>
      <trkpt lat="49.84086" lon="4.80112">
        <ele>332</ele>
        <time>2022-06-17T13:54:39.000Z</time>
      </trkpt>
      <trkpt lat="49.84089" lon="4.80121">
        <ele>332</ele>
        <time>2022-06-17T13:54:40.000Z</time>
      </trkpt>
      <trkpt lat="49.84092" lon="4.80132">
        <ele>332</ele>
        <time>2022-06-17T13:54:41.000Z</time>
      </trkpt>
      <trkpt lat="49.84095" lon="4.80144">
        <ele>332</ele>
        <time>2022-06-17T13:54:42.000Z</time>
      </trkpt>
      <trkpt lat="49.84098" lon="4.80156">
        <ele>332</ele>
        <time>2022-06-17T13:54:43.000Z</time>
      </trkpt>
      <trkpt lat="49.84101" lon="4.80167">
        <ele>331</ele>
        <time>2022-06-17T13:54:44.000Z</time>
      </trkpt>
      <trkpt lat="49.84105" lon="4.80179">
        <ele>331</ele>
        <time>2022-06-17T13:54:45.000Z</time>
      </trkpt>
      <trkpt lat="49.84108" lon="4.80191">
        <ele>331</ele>
        <time>2022-06-17T13:54:46.000Z</time>
      </trkpt>
      <trkpt lat="49.84111" lon="4.80203">
        <ele>330</ele>
        <time>2022-06-17T13:54:47.000Z</time>
      </trkpt>
      <trkpt lat="49.84116" lon="4.80215">
        <ele>330</ele>
        <time>2022-06-17T13:54:48.000Z</time>
      </trkpt>
      <trkpt lat="49.84121" lon="4.80226">
        <ele>329</ele>
        <time>2022-06-17T13:54:49.000Z</time>
      </trkpt>
      <trkpt lat="49.84126" lon="4.80237">
        <ele>329</ele>
        <time>2022-06-17T13:54:50.000Z</time>
      </trkpt>
      <trkpt lat="49.84131" lon="4.80248">
        <ele>328</ele>
        <time>2022-06-17T13:54:51.000Z</time>
      </trkpt>
      <trkpt lat="49.84135" lon="4.80258">
        <ele>328</ele>
        <time>2022-06-17T13:54:52.000Z</time>
      </trkpt>
      <trkpt lat="49.8414" lon="4.80269">
        <ele>327</ele>
        <time>2022-06-17T13:54:53.000Z</time>
      </trkpt>
      <trkpt lat="49.84144" lon="4.80279">
        <ele>327</ele>
        <time>2022-06-17T13:54:54.000Z</time>
      </trkpt>
      <trkpt lat="49.84148" lon="4.80289">
        <ele>326</ele>
        <time>2022-06-17T13:54:55.000Z</time>
      </trkpt>
      <trkpt lat="49.84151" lon="4.80298">
        <ele>326</ele>
        <time>2022-06-17T13:54:56.000Z</time>
      </trkpt>
      <trkpt lat="49.84154" lon="4.80307">
        <ele>326</ele>
        <time>2022-06-17T13:54:57.000Z</time>
      </trkpt>
      <trkpt lat="49.84156" lon="4.80315">
        <ele>325</ele>
        <time>2022-06-17T13:54:58.000Z</time>
      </trkpt>
      <trkpt lat="49.84159" lon="4.80325">
        <ele>325</ele>
        <time>2022-06-17T13:54:59.000Z</time>
      </trkpt>
      <trkpt lat="49.84162" lon="4.80334">
        <ele>325</ele>
        <time>2022-06-17T13:55:00.000Z</time>
      </trkpt>
      <trkpt lat="49.84164" lon="4.80342">
        <ele>324</ele>
        <time>2022-06-17T13:55:01.000Z</time>
      </trkpt>
      <trkpt lat="49.84167" lon="4.80351">
        <ele>324</ele>
        <time>2022-06-17T13:55:02.000Z</time>
      </trkpt>
      <trkpt lat="49.84169" lon="4.8036">
        <ele>324</ele>
        <time>2022-06-17T13:55:03.000Z</time>
      </trkpt>
      <trkpt lat="49.84172" lon="4.80369">
        <ele>323</ele>
        <time>2022-06-17T13:55:04.000Z</time>
      </trkpt>
      <trkpt lat="49.84175" lon="4.80378">
        <ele>323</ele>
        <time>2022-06-17T13:55:05.000Z</time>
      </trkpt>
      <trkpt lat="49.84178" lon="4.80387">
        <ele>322</ele>
        <time>2022-06-17T13:55:06.000Z</time>
      </trkpt>
      <trkpt lat="49.84181" lon="4.80395">
        <ele>322</ele>
        <time>2022-06-17T13:55:07.000Z</time>
      </trkpt>
      <trkpt lat="49.84183" lon="4.80404">
        <ele>322</ele>
        <time>2022-06-17T13:55:08.000Z</time>
      </trkpt>
      <trkpt lat="49.84186" lon="4.80412">
        <ele>321</ele>
        <time>2022-06-17T13:55:09.000Z</time>
      </trkpt>
      <trkpt lat="49.84189" lon="4.8042">
        <ele>321</ele>
        <time>2022-06-17T13:55:10.000Z</time>
      </trkpt>
      <trkpt lat="49.84192" lon="4.80428">
        <ele>321</ele>
        <time>2022-06-17T13:55:11.000Z</time>
      </trkpt>
      <trkpt lat="49.84195" lon="4.80436">
        <ele>321</ele>
        <time>2022-06-17T13:55:12.000Z</time>
      </trkpt>
      <trkpt lat="49.84197" lon="4.80444">
        <ele>320</ele>
        <time>2022-06-17T13:55:13.000Z</time>
      </trkpt>
      <trkpt lat="49.84198" lon="4.80451">
        <ele>320</ele>
        <time>2022-06-17T13:55:14.000Z</time>
      </trkpt>
      <trkpt lat="49.842" lon="4.80459">
        <ele>320</ele>
        <time>2022-06-17T13:55:15.000Z</time>
      </trkpt>
      <trkpt lat="49.84202" lon="4.80466">
        <ele>320</ele>
        <time>2022-06-17T13:55:16.000Z</time>
      </trkpt>
      <trkpt lat="49.84205" lon="4.80473">
        <ele>320</ele>
        <time>2022-06-17T13:55:17.000Z</time>
      </trkpt>
      <trkpt lat="49.84207" lon="4.8048">
        <ele>320</ele>
        <time>2022-06-17T13:55:18.000Z</time>
      </trkpt>
      <trkpt lat="49.8421" lon="4.80488">
        <ele>319</ele>
        <time>2022-06-17T13:55:19.000Z</time>
      </trkpt>
      <trkpt lat="49.84212" lon="4.80495">
        <ele>319</ele>
        <time>2022-06-17T13:55:20.000Z</time>
      </trkpt>
      <trkpt lat="49.84215" lon="4.80503">
        <ele>319</ele>
        <time>2022-06-17T13:55:21.000Z</time>
      </trkpt>
      <trkpt lat="49.84217" lon="4.8051">
        <ele>319</ele>
        <time>2022-06-17T13:55:22.000Z</time>
      </trkpt>
      <trkpt lat="49.8422" lon="4.80517">
        <ele>318</ele>
        <time>2022-06-17T13:55:23.000Z</time>
      </trkpt>
      <trkpt lat="49.84222" lon="4.80525">
        <ele>318</ele>
        <time>2022-06-17T13:55:24.000Z</time>
      </trkpt>
      <trkpt lat="49.84225" lon="4.80532">
        <ele>318</ele>
        <time>2022-06-17T13:55:25.000Z</time>
      </trkpt>
      <trkpt lat="49.84228" lon="4.80539">
        <ele>318</ele>
        <time>2022-06-17T13:55:26.000Z</time>
      </trkpt>
      <trkpt lat="49.8423" lon="4.80546">
        <ele>318</ele>
        <time>2022-06-17T13:55:27.000Z</time>
      </trkpt>
      <trkpt lat="49.84233" lon="4.80553">
        <ele>318</ele>
        <time>2022-06-17T13:55:28.000Z</time>
      </trkpt>
      <trkpt lat="49.84235" lon="4.80559">
        <ele>317</ele>
        <time>2022-06-17T13:55:29.000Z</time>
      </trkpt>
      <trkpt lat="49.84238" lon="4.80566">
        <ele>317</ele>
        <time>2022-06-17T13:55:30.000Z</time>
      </trkpt>
      <trkpt lat="49.8424" lon="4.80573">
        <ele>317</ele>
        <time>2022-06-17T13:55:31.000Z</time>
      </trkpt>
      <trkpt lat="49.84242" lon="4.8058">
        <ele>317</ele>
        <time>2022-06-17T13:55:32.000Z</time>
      </trkpt>
      <trkpt lat="49.84244" lon="4.80586">
        <ele>317</ele>
        <time>2022-06-17T13:55:33.000Z</time>
      </trkpt>
      <trkpt lat="49.84245" lon="4.80593">
        <ele>317</ele>
        <time>2022-06-17T13:55:34.000Z</time>
      </trkpt>
      <trkpt lat="49.84247" lon="4.806">
        <ele>317</ele>
        <time>2022-06-17T13:55:35.000Z</time>
      </trkpt>
      <trkpt lat="49.84249" lon="4.80605">
        <ele>317</ele>
        <time>2022-06-17T13:55:36.000Z</time>
      </trkpt>
      <trkpt lat="49.8425" lon="4.80611">
        <ele>316</ele>
        <time>2022-06-17T13:55:37.000Z</time>
      </trkpt>
      <trkpt lat="49.84252" lon="4.80616">
        <ele>316</ele>
        <time>2022-06-17T13:55:38.000Z</time>
      </trkpt>
      <trkpt lat="49.84254" lon="4.80621">
        <ele>316</ele>
        <time>2022-06-17T13:55:39.000Z</time>
      </trkpt>
      <trkpt lat="49.84256" lon="4.80626">
        <ele>316</ele>
        <time>2022-06-17T13:55:40.000Z</time>
      </trkpt>
      <trkpt lat="49.84258" lon="4.80631">
        <ele>316</ele>
        <time>2022-06-17T13:55:41.000Z</time>
      </trkpt>
      <trkpt lat="49.84259" lon="4.80635">
        <ele>316</ele>
        <time>2022-06-17T13:55:42.000Z</time>
      </trkpt>
      <trkpt lat="49.84261" lon="4.80639">
        <ele>315</ele>
        <time>2022-06-17T13:55:43.000Z</time>
      </trkpt>
      <trkpt lat="49.84262" lon="4.80642">
        <ele>315</ele>
        <time>2022-06-17T13:55:44.000Z</time>
      </trkpt>
      <trkpt lat="49.84263" lon="4.80645">
        <ele>315</ele>
        <time>2022-06-17T13:55:45.000Z</time>
      </trkpt>
      <trkpt lat="49.84264" lon="4.80648">
        <ele>315</ele>
        <time>2022-06-17T13:55:46.000Z</time>
      </trkpt>
      <trkpt lat="49.84266" lon="4.80651">
        <ele>315</ele>
        <time>2022-06-17T13:55:47.000Z</time>
      </trkpt>
      <trkpt lat="49.84267" lon="4.80654">
        <ele>315</ele>
        <time>2022-06-17T13:55:48.000Z</time>
      </trkpt>
      <trkpt lat="49.84269" lon="4.80658">
        <ele>315</ele>
        <time>2022-06-17T13:55:49.000Z</time>
      </trkpt>
      <trkpt lat="49.8427" lon="4.80661">
        <ele>315</ele>
        <time>2022-06-17T13:55:50.000Z</time>
      </trkpt>
      <trkpt lat="49.84272" lon="4.80664">
        <ele>315</ele>
        <time>2022-06-17T13:55:51.000Z</time>
      </trkpt>
      <trkpt lat="49.84274" lon="4.80667">
        <ele>315</ele>
        <time>2022-06-17T13:55:52.000Z</time>
      </trkpt>
      <trkpt lat="49.84276" lon="4.8067">
        <ele>315</ele>
        <time>2022-06-17T13:55:53.000Z</time>
      </trkpt>
      <trkpt lat="49.84278" lon="4.80672">
        <ele>315</ele>
        <time>2022-06-17T13:55:54.000Z</time>
      </trkpt>
      <trkpt lat="49.8428" lon="4.80674">
        <ele>316</ele>
        <time>2022-06-17T13:55:55.000Z</time>
      </trkpt>
      <trkpt lat="49.84282" lon="4.80676">
        <ele>316</ele>
        <time>2022-06-17T13:55:56.000Z</time>
      </trkpt>
      <trkpt lat="49.84285" lon="4.80678">
        <ele>316</ele>
        <time>2022-06-17T13:55:57.000Z</time>
      </trkpt>
      <trkpt lat="49.84287" lon="4.80679">
        <ele>316</ele>
        <time>2022-06-17T13:55:58.000Z</time>
      </trkpt>
      <trkpt lat="49.8429" lon="4.80681">
        <ele>317</ele>
        <time>2022-06-17T13:55:59.000Z</time>
      </trkpt>
      <trkpt lat="49.84292" lon="4.80682">
        <ele>317</ele>
        <time>2022-06-17T13:56:00.000Z</time>
      </trkpt>
      <trkpt lat="49.84294" lon="4.80683">
        <ele>317</ele>
        <time>2022-06-17T13:56:01.000Z</time>
      </trkpt>
      <trkpt lat="49.84297" lon="4.80684">
        <ele>317</ele>
        <time>2022-06-17T13:56:02.000Z</time>
      </trkpt>
      <trkpt lat="49.84299" lon="4.80685">
        <ele>318</ele>
        <time>2022-06-17T13:56:03.000Z</time>
      </trkpt>
      <trkpt lat="49.84301" lon="4.80686">
        <ele>318</ele>
        <time>2022-06-17T13:56:04.000Z</time>
      </trkpt>
      <trkpt lat="49.84304" lon="4.80688">
        <ele>319</ele>
        <time>2022-06-17T13:56:05.000Z</time>
      </trkpt>
      <trkpt lat="49.84306" lon="4.80689">
        <ele>319</ele>
        <time>2022-06-17T13:56:06.000Z</time>
      </trkpt>
      <trkpt lat="49.84308" lon="4.8069">
        <ele>319</ele>
        <time>2022-06-17T13:56:07.000Z</time>
      </trkpt>
      <trkpt lat="49.8431" lon="4.80691">
        <ele>320</ele>
        <time>2022-06-17T13:56:08.000Z</time>
      </trkpt>
      <trkpt lat="49.84312" lon="4.80691">
        <ele>320</ele>
        <time>2022-06-17T13:56:09.000Z</time>
      </trkpt>
      <trkpt lat="49.84314" lon="4.80693">
        <ele>320</ele>
        <time>2022-06-17T13:56:10.000Z</time>
      </trkpt>
      <trkpt lat="49.84316" lon="4.80694">
        <ele>320</ele>
        <time>2022-06-17T13:56:11.000Z</time>
      </trkpt>
      <trkpt lat="49.84317" lon="4.80695">
        <ele>321</ele>
        <time>2022-06-17T13:56:12.000Z</time>
      </trkpt>
      <trkpt lat="49.84319" lon="4.80697">
        <ele>321</ele>
        <time>2022-06-17T13:56:13.000Z</time>
      </trkpt>
      <trkpt lat="49.84322" lon="4.80699">
        <ele>321</ele>
        <time>2022-06-17T13:56:14.000Z</time>
      </trkpt>
      <trkpt lat="49.84324" lon="4.80701">
        <ele>322</ele>
        <time>2022-06-17T13:56:15.000Z</time>
      </trkpt>
      <trkpt lat="49.84326" lon="4.80703">
        <ele>322</ele>
        <time>2022-06-17T13:56:16.000Z</time>
      </trkpt>
      <trkpt lat="49.84329" lon="4.80705">
        <ele>322</ele>
        <time>2022-06-17T13:56:17.000Z</time>
      </trkpt>
      <trkpt lat="49.84331" lon="4.80707">
        <ele>323</ele>
        <time>2022-06-17T13:56:18.000Z</time>
      </trkpt>
      <trkpt lat="49.84333" lon="4.80708">
        <ele>323</ele>
        <time>2022-06-17T13:56:19.000Z</time>
      </trkpt>
      <trkpt lat="49.84335" lon="4.80711">
        <ele>323</ele>
        <time>2022-06-17T13:56:20.000Z</time>
      </trkpt>
      <trkpt lat="49.84337" lon="4.80713">
        <ele>323</ele>
        <time>2022-06-17T13:56:21.000Z</time>
      </trkpt>
      <trkpt lat="49.8434" lon="4.80715">
        <ele>324</ele>
        <time>2022-06-17T13:56:22.000Z</time>
      </trkpt>
      <trkpt lat="49.84341" lon="4.80717">
        <ele>324</ele>
        <time>2022-06-17T13:56:23.000Z</time>
      </trkpt>
      <trkpt lat="49.84343" lon="4.80719">
        <ele>324</ele>
        <time>2022-06-17T13:56:24.000Z</time>
      </trkpt>
      <trkpt lat="49.84345" lon="4.80721">
        <ele>324</ele>
        <time>2022-06-17T13:56:25.000Z</time>
      </trkpt>
      <trkpt lat="49.84347" lon="4.80723">
        <ele>324</ele>
        <time>2022-06-17T13:56:26.000Z</time>
      </trkpt>
      <trkpt lat="49.84349" lon="4.80724">
        <ele>325</ele>
        <time>2022-06-17T13:56:27.000Z</time>
      </trkpt>
      <trkpt lat="49.84351" lon="4.80725">
        <ele>325</ele>
        <time>2022-06-17T13:56:28.000Z</time>
      </trkpt>
      <trkpt lat="49.84353" lon="4.80726">
        <ele>325</ele>
        <time>2022-06-17T13:56:29.000Z</time>
      </trkpt>
      <trkpt lat="49.84354" lon="4.80726">
        <ele>325</ele>
        <time>2022-06-17T13:56:30.000Z</time>
      </trkpt>
      <trkpt lat="49.84356" lon="4.80727">
        <ele>325</ele>
        <time>2022-06-17T13:56:31.000Z</time>
      </trkpt>
      <trkpt lat="49.84358" lon="4.80728">
        <ele>326</ele>
        <time>2022-06-17T13:56:32.000Z</time>
      </trkpt>
      <trkpt lat="49.8436" lon="4.80728">
        <ele>326</ele>
        <time>2022-06-17T13:56:33.000Z</time>
      </trkpt>
      <trkpt lat="49.84362" lon="4.80729">
        <ele>326</ele>
        <time>2022-06-17T13:56:34.000Z</time>
      </trkpt>
      <trkpt lat="49.84364" lon="4.80729">
        <ele>326</ele>
        <time>2022-06-17T13:56:35.000Z</time>
      </trkpt>
      <trkpt lat="49.84366" lon="4.8073">
        <ele>326</ele>
        <time>2022-06-17T13:56:36.000Z</time>
      </trkpt>
      <trkpt lat="49.84369" lon="4.80731">
        <ele>326</ele>
        <time>2022-06-17T13:56:37.000Z</time>
      </trkpt>
      <trkpt lat="49.84371" lon="4.80731">
        <ele>327</ele>
        <time>2022-06-17T13:56:38.000Z</time>
      </trkpt>
      <trkpt lat="49.84373" lon="4.80732">
        <ele>327</ele>
        <time>2022-06-17T13:56:39.000Z</time>
      </trkpt>
      <trkpt lat="49.84374" lon="4.80733">
        <ele>327</ele>
        <time>2022-06-17T13:56:40.000Z</time>
      </trkpt>
      <trkpt lat="49.84376" lon="4.80733">
        <ele>327</ele>
        <time>2022-06-17T13:56:41.000Z</time>
      </trkpt>
      <trkpt lat="49.84378" lon="4.80734">
        <ele>328</ele>
        <time>2022-06-17T13:56:42.000Z</time>
      </trkpt>
      <trkpt lat="49.84381" lon="4.80735">
        <ele>328</ele>
        <time>2022-06-17T13:56:43.000Z</time>
      </trkpt>
      <trkpt lat="49.84382" lon="4.80736">
        <ele>328</ele>
        <time>2022-06-17T13:56:44.000Z</time>
      </trkpt>
      <trkpt lat="49.84385" lon="4.80736">
        <ele>329</ele>
        <time>2022-06-17T13:56:45.000Z</time>
      </trkpt>
      <trkpt lat="49.84387" lon="4.80736">
        <ele>329</ele>
        <time>2022-06-17T13:56:46.000Z</time>
      </trkpt>
      <trkpt lat="49.84389" lon="4.80737">
        <ele>329</ele>
        <time>2022-06-17T13:56:47.000Z</time>
      </trkpt>
      <trkpt lat="49.84391" lon="4.80737">
        <ele>329</ele>
        <time>2022-06-17T13:56:48.000Z</time>
      </trkpt>
      <trkpt lat="49.84393" lon="4.80738">
        <ele>330</ele>
        <time>2022-06-17T13:56:49.000Z</time>
      </trkpt>
      <trkpt lat="49.84395" lon="4.80738">
        <ele>330</ele>
        <time>2022-06-17T13:56:50.000Z</time>
      </trkpt>
      <trkpt lat="49.84397" lon="4.80738">
        <ele>331</ele>
        <time>2022-06-17T13:56:51.000Z</time>
      </trkpt>
      <trkpt lat="49.84399" lon="4.8074">
        <ele>331</ele>
        <time>2022-06-17T13:56:52.000Z</time>
      </trkpt>
      <trkpt lat="49.84401" lon="4.8074">
        <ele>332</ele>
        <time>2022-06-17T13:56:53.000Z</time>
      </trkpt>
      <trkpt lat="49.84403" lon="4.80741">
        <ele>332</ele>
        <time>2022-06-17T13:56:54.000Z</time>
      </trkpt>
      <trkpt lat="49.84405" lon="4.80742">
        <ele>333</ele>
        <time>2022-06-17T13:56:55.000Z</time>
      </trkpt>
      <trkpt lat="49.84406" lon="4.80743">
        <ele>333</ele>
        <time>2022-06-17T13:56:56.000Z</time>
      </trkpt>
      <trkpt lat="49.84408" lon="4.80744">
        <ele>334</ele>
        <time>2022-06-17T13:56:57.000Z</time>
      </trkpt>
      <trkpt lat="49.84411" lon="4.80745">
        <ele>335</ele>
        <time>2022-06-17T13:56:58.000Z</time>
      </trkpt>
      <trkpt lat="49.84413" lon="4.80747">
        <ele>335</ele>
        <time>2022-06-17T13:56:59.000Z</time>
      </trkpt>
      <trkpt lat="49.84414" lon="4.80748">
        <ele>335</ele>
        <time>2022-06-17T13:57:00.000Z</time>
      </trkpt>
      <trkpt lat="49.84416" lon="4.80749">
        <ele>336</ele>
        <time>2022-06-17T13:57:01.000Z</time>
      </trkpt>
      <trkpt lat="49.84418" lon="4.8075">
        <ele>336</ele>
        <time>2022-06-17T13:57:02.000Z</time>
      </trkpt>
      <trkpt lat="49.84421" lon="4.80752">
        <ele>336</ele>
        <time>2022-06-17T13:57:03.000Z</time>
      </trkpt>
      <trkpt lat="49.84423" lon="4.80753">
        <ele>337</ele>
        <time>2022-06-17T13:57:04.000Z</time>
      </trkpt>
      <trkpt lat="49.84425" lon="4.80754">
        <ele>337</ele>
        <time>2022-06-17T13:57:05.000Z</time>
      </trkpt>
      <trkpt lat="49.84427" lon="4.80755">
        <ele>337</ele>
        <time>2022-06-17T13:57:06.000Z</time>
      </trkpt>
      <trkpt lat="49.84429" lon="4.80756">
        <ele>338</ele>
        <time>2022-06-17T13:57:07.000Z</time>
      </trkpt>
      <trkpt lat="49.84431" lon="4.80757">
        <ele>338</ele>
        <time>2022-06-17T13:57:08.000Z</time>
      </trkpt>
      <trkpt lat="49.84432" lon="4.80757">
        <ele>338</ele>
        <time>2022-06-17T13:57:09.000Z</time>
      </trkpt>
      <trkpt lat="49.84433" lon="4.80757">
        <ele>338</ele>
        <time>2022-06-17T13:57:10.000Z</time>
      </trkpt>
      <trkpt lat="49.84435" lon="4.80757">
        <ele>339</ele>
        <time>2022-06-17T13:57:11.000Z</time>
      </trkpt>
      <trkpt lat="49.84437" lon="4.80758">
        <ele>339</ele>
        <time>2022-06-17T13:57:12.000Z</time>
      </trkpt>
      <trkpt lat="49.84438" lon="4.80759">
        <ele>339</ele>
        <time>2022-06-17T13:57:13.000Z</time>
      </trkpt>
      <trkpt lat="49.8444" lon="4.80759">
        <ele>340</ele>
        <time>2022-06-17T13:57:14.000Z</time>
      </trkpt>
      <trkpt lat="49.84442" lon="4.80759">
        <ele>340</ele>
        <time>2022-06-17T13:57:15.000Z</time>
      </trkpt>
      <trkpt lat="49.84443" lon="4.8076">
        <ele>340</ele>
        <time>2022-06-17T13:57:16.000Z</time>
      </trkpt>
      <trkpt lat="49.84445" lon="4.8076">
        <ele>340</ele>
        <time>2022-06-17T13:57:17.000Z</time>
      </trkpt>
      <trkpt lat="49.84447" lon="4.80761">
        <ele>341</ele>
        <time>2022-06-17T13:57:18.000Z</time>
      </trkpt>
      <trkpt lat="49.84448" lon="4.80761">
        <ele>341</ele>
        <time>2022-06-17T13:57:19.000Z</time>
      </trkpt>
      <trkpt lat="49.8445" lon="4.80762">
        <ele>341</ele>
        <time>2022-06-17T13:57:20.000Z</time>
      </trkpt>
      <trkpt lat="49.84452" lon="4.80763">
        <ele>341</ele>
        <time>2022-06-17T13:57:21.000Z</time>
      </trkpt>
      <trkpt lat="49.84454" lon="4.80764">
        <ele>342</ele>
        <time>2022-06-17T13:57:22.000Z</time>
      </trkpt>
      <trkpt lat="49.84456" lon="4.80765">
        <ele>342</ele>
        <time>2022-06-17T13:57:23.000Z</time>
      </trkpt>
      <trkpt lat="49.84457" lon="4.80766">
        <ele>342</ele>
        <time>2022-06-17T13:57:24.000Z</time>
      </trkpt>
      <trkpt lat="49.84459" lon="4.80766">
        <ele>342</ele>
        <time>2022-06-17T13:57:25.000Z</time>
      </trkpt>
      <trkpt lat="49.84461" lon="4.80767">
        <ele>343</ele>
        <time>2022-06-17T13:57:26.000Z</time>
      </trkpt>
      <trkpt lat="49.84462" lon="4.80768">
        <ele>343</ele>
        <time>2022-06-17T13:57:27.000Z</time>
      </trkpt>
      <trkpt lat="49.84464" lon="4.80769">
        <ele>343</ele>
        <time>2022-06-17T13:57:28.000Z</time>
      </trkpt>
      <trkpt lat="49.84466" lon="4.8077">
        <ele>343</ele>
        <time>2022-06-17T13:57:29.000Z</time>
      </trkpt>
      <trkpt lat="49.84468" lon="4.80771">
        <ele>344</ele>
        <time>2022-06-17T13:57:30.000Z</time>
      </trkpt>
      <trkpt lat="49.8447" lon="4.80772">
        <ele>344</ele>
        <time>2022-06-17T13:57:31.000Z</time>
      </trkpt>
      <trkpt lat="49.84472" lon="4.80773">
        <ele>344</ele>
        <time>2022-06-17T13:57:32.000Z</time>
      </trkpt>
      <trkpt lat="49.84475" lon="4.80774">
        <ele>345</ele>
        <time>2022-06-17T13:57:33.000Z</time>
      </trkpt>
      <trkpt lat="49.84477" lon="4.80775">
        <ele>345</ele>
        <time>2022-06-17T13:57:34.000Z</time>
      </trkpt>
      <trkpt lat="49.84479" lon="4.80775">
        <ele>345</ele>
        <time>2022-06-17T13:57:35.000Z</time>
      </trkpt>
      <trkpt lat="49.84481" lon="4.80776">
        <ele>345</ele>
        <time>2022-06-17T13:57:36.000Z</time>
      </trkpt>
      <trkpt lat="49.84483" lon="4.80777">
        <ele>346</ele>
        <time>2022-06-17T13:57:37.000Z</time>
      </trkpt>
      <trkpt lat="49.84485" lon="4.80778">
        <ele>346</ele>
        <time>2022-06-17T13:57:38.000Z</time>
      </trkpt>
      <trkpt lat="49.84487" lon="4.80779">
        <ele>346</ele>
        <time>2022-06-17T13:57:39.000Z</time>
      </trkpt>
      <trkpt lat="49.84489" lon="4.80779">
        <ele>346</ele>
        <time>2022-06-17T13:57:40.000Z</time>
      </trkpt>
      <trkpt lat="49.84492" lon="4.8078">
        <ele>347</ele>
        <time>2022-06-17T13:57:41.000Z</time>
      </trkpt>
      <trkpt lat="49.84494" lon="4.80781">
        <ele>347</ele>
        <time>2022-06-17T13:57:42.000Z</time>
      </trkpt>
      <trkpt lat="49.84496" lon="4.80781">
        <ele>347</ele>
        <time>2022-06-17T13:57:43.000Z</time>
      </trkpt>
      <trkpt lat="49.84498" lon="4.80782">
        <ele>347</ele>
        <time>2022-06-17T13:57:44.000Z</time>
      </trkpt>
      <trkpt lat="49.845" lon="4.80783">
        <ele>348</ele>
        <time>2022-06-17T13:57:45.000Z</time>
      </trkpt>
      <trkpt lat="49.84502" lon="4.80783">
        <ele>348</ele>
        <time>2022-06-17T13:57:46.000Z</time>
      </trkpt>
      <trkpt lat="49.84504" lon="4.80784">
        <ele>348</ele>
        <time>2022-06-17T13:57:47.000Z</time>
      </trkpt>
      <trkpt lat="49.84506" lon="4.80784">
        <ele>348</ele>
        <time>2022-06-17T13:57:48.000Z</time>
      </trkpt>
      <trkpt lat="49.84509" lon="4.80785">
        <ele>348</ele>
        <time>2022-06-17T13:57:49.000Z</time>
      </trkpt>
      <trkpt lat="49.84511" lon="4.80786">
        <ele>349</ele>
        <time>2022-06-17T13:57:50.000Z</time>
      </trkpt>
      <trkpt lat="49.84513" lon="4.80786">
        <ele>349</ele>
        <time>2022-06-17T13:57:51.000Z</time>
      </trkpt>
      <trkpt lat="49.84515" lon="4.80787">
        <ele>349</ele>
        <time>2022-06-17T13:57:52.000Z</time>
      </trkpt>
      <trkpt lat="49.84517" lon="4.80788">
        <ele>349</ele>
        <time>2022-06-17T13:57:53.000Z</time>
      </trkpt>
      <trkpt lat="49.84519" lon="4.80789">
        <ele>349</ele>
        <time>2022-06-17T13:57:54.000Z</time>
      </trkpt>
      <trkpt lat="49.8452" lon="4.8079">
        <ele>349</ele>
        <time>2022-06-17T13:57:55.000Z</time>
      </trkpt>
      <trkpt lat="49.84522" lon="4.80791">
        <ele>350</ele>
        <time>2022-06-17T13:57:56.000Z</time>
      </trkpt>
      <trkpt lat="49.84524" lon="4.80792">
        <ele>350</ele>
        <time>2022-06-17T13:57:57.000Z</time>
      </trkpt>
      <trkpt lat="49.84526" lon="4.80792">
        <ele>350</ele>
        <time>2022-06-17T13:57:58.000Z</time>
      </trkpt>
      <trkpt lat="49.84528" lon="4.80793">
        <ele>350</ele>
        <time>2022-06-17T13:57:59.000Z</time>
      </trkpt>
      <trkpt lat="49.8453" lon="4.80794">
        <ele>350</ele>
        <time>2022-06-17T13:58:00.000Z</time>
      </trkpt>
      <trkpt lat="49.84532" lon="4.80794">
        <ele>350</ele>
        <time>2022-06-17T13:58:01.000Z</time>
      </trkpt>
      <trkpt lat="49.84534" lon="4.80795">
        <ele>351</ele>
        <time>2022-06-17T13:58:02.000Z</time>
      </trkpt>
      <trkpt lat="49.84536" lon="4.80795">
        <ele>351</ele>
        <time>2022-06-17T13:58:03.000Z</time>
      </trkpt>
      <trkpt lat="49.84537" lon="4.80796">
        <ele>351</ele>
        <time>2022-06-17T13:58:04.000Z</time>
      </trkpt>
      <trkpt lat="49.84539" lon="4.80796">
        <ele>351</ele>
        <time>2022-06-17T13:58:05.000Z</time>
      </trkpt>
      <trkpt lat="49.84541" lon="4.80796">
        <ele>351</ele>
        <time>2022-06-17T13:58:06.000Z</time>
      </trkpt>
      <trkpt lat="49.84542" lon="4.80797">
        <ele>351</ele>
        <time>2022-06-17T13:58:07.000Z</time>
      </trkpt>
      <trkpt lat="49.84544" lon="4.80797">
        <ele>352</ele>
        <time>2022-06-17T13:58:08.000Z</time>
      </trkpt>
      <trkpt lat="49.84546" lon="4.80797">
        <ele>352</ele>
        <time>2022-06-17T13:58:09.000Z</time>
      </trkpt>
      <trkpt lat="49.84548" lon="4.80798">
        <ele>352</ele>
        <time>2022-06-17T13:58:10.000Z</time>
      </trkpt>
      <trkpt lat="49.8455" lon="4.80798">
        <ele>352</ele>
        <time>2022-06-17T13:58:11.000Z</time>
      </trkpt>
      <trkpt lat="49.84552" lon="4.80798">
        <ele>353</ele>
        <time>2022-06-17T13:58:12.000Z</time>
      </trkpt>
      <trkpt lat="49.84554" lon="4.80797">
        <ele>353</ele>
        <time>2022-06-17T13:58:13.000Z</time>
      </trkpt>
      <trkpt lat="49.84557" lon="4.80797">
        <ele>353</ele>
        <time>2022-06-17T13:58:14.000Z</time>
      </trkpt>
      <trkpt lat="49.84559" lon="4.80796">
        <ele>354</ele>
        <time>2022-06-17T13:58:15.000Z</time>
      </trkpt>
      <trkpt lat="49.84561" lon="4.80795">
        <ele>354</ele>
        <time>2022-06-17T13:58:16.000Z</time>
      </trkpt>
      <trkpt lat="49.84563" lon="4.80794">
        <ele>354</ele>
        <time>2022-06-17T13:58:17.000Z</time>
      </trkpt>
      <trkpt lat="49.84565" lon="4.80793">
        <ele>355</ele>
        <time>2022-06-17T13:58:18.000Z</time>
      </trkpt>
      <trkpt lat="49.84567" lon="4.80793">
        <ele>355</ele>
        <time>2022-06-17T13:58:19.000Z</time>
      </trkpt>
      <trkpt lat="49.84569" lon="4.80792">
        <ele>355</ele>
        <time>2022-06-17T13:58:20.000Z</time>
      </trkpt>
      <trkpt lat="49.84571" lon="4.80792">
        <ele>356</ele>
        <time>2022-06-17T13:58:21.000Z</time>
      </trkpt>
      <trkpt lat="49.84573" lon="4.80791">
        <ele>356</ele>
        <time>2022-06-17T13:58:22.000Z</time>
      </trkpt>
      <trkpt lat="49.84575" lon="4.80791">
        <ele>356</ele>
        <time>2022-06-17T13:58:23.000Z</time>
      </trkpt>
      <trkpt lat="49.84577" lon="4.8079">
        <ele>357</ele>
        <time>2022-06-17T13:58:24.000Z</time>
      </trkpt>
      <trkpt lat="49.84578" lon="4.8079">
        <ele>357</ele>
        <time>2022-06-17T13:58:25.000Z</time>
      </trkpt>
      <trkpt lat="49.8458" lon="4.8079">
        <ele>357</ele>
        <time>2022-06-17T13:58:26.000Z</time>
      </trkpt>
      <trkpt lat="49.84582" lon="4.80789">
        <ele>358</ele>
        <time>2022-06-17T13:58:27.000Z</time>
      </trkpt>
      <trkpt lat="49.84584" lon="4.80789">
        <ele>358</ele>
        <time>2022-06-17T13:58:28.000Z</time>
      </trkpt>
      <trkpt lat="49.84586" lon="4.80789">
        <ele>358</ele>
        <time>2022-06-17T13:58:29.000Z</time>
      </trkpt>
      <trkpt lat="49.84587" lon="4.80789">
        <ele>359</ele>
        <time>2022-06-17T13:58:30.000Z</time>
      </trkpt>
      <trkpt lat="49.84589" lon="4.8079">
        <ele>359</ele>
        <time>2022-06-17T13:58:31.000Z</time>
      </trkpt>
      <trkpt lat="49.84591" lon="4.80791">
        <ele>359</ele>
        <time>2022-06-17T13:58:32.000Z</time>
      </trkpt>
      <trkpt lat="49.84593" lon="4.8079">
        <ele>359</ele>
        <time>2022-06-17T13:58:33.000Z</time>
      </trkpt>
      <trkpt lat="49.84595" lon="4.80791">
        <ele>360</ele>
        <time>2022-06-17T13:58:34.000Z</time>
      </trkpt>
      <trkpt lat="49.84596" lon="4.80791">
        <ele>360</ele>
        <time>2022-06-17T13:58:35.000Z</time>
      </trkpt>
      <trkpt lat="49.84598" lon="4.80792">
        <ele>360</ele>
        <time>2022-06-17T13:58:36.000Z</time>
      </trkpt>
      <trkpt lat="49.84599" lon="4.80792">
        <ele>360</ele>
        <time>2022-06-17T13:58:37.000Z</time>
      </trkpt>
      <trkpt lat="49.84601" lon="4.80792">
        <ele>361</ele>
        <time>2022-06-17T13:58:38.000Z</time>
      </trkpt>
      <trkpt lat="49.84603" lon="4.80791">
        <ele>361</ele>
        <time>2022-06-17T13:58:39.000Z</time>
      </trkpt>
      <trkpt lat="49.84604" lon="4.80791">
        <ele>361</ele>
        <time>2022-06-17T13:58:40.000Z</time>
      </trkpt>
      <trkpt lat="49.84606" lon="4.80791">
        <ele>362</ele>
        <time>2022-06-17T13:58:41.000Z</time>
      </trkpt>
      <trkpt lat="49.84608" lon="4.80791">
        <ele>362</ele>
        <time>2022-06-17T13:58:42.000Z</time>
      </trkpt>
      <trkpt lat="49.8461" lon="4.8079">
        <ele>362</ele>
        <time>2022-06-17T13:58:43.000Z</time>
      </trkpt>
      <trkpt lat="49.84611" lon="4.8079">
        <ele>362</ele>
        <time>2022-06-17T13:58:44.000Z</time>
      </trkpt>
      <trkpt lat="49.84612" lon="4.8079">
        <ele>363</ele>
        <time>2022-06-17T13:58:45.000Z</time>
      </trkpt>
      <trkpt lat="49.84614" lon="4.8079">
        <ele>363</ele>
        <time>2022-06-17T13:58:46.000Z</time>
      </trkpt>
      <trkpt lat="49.84615" lon="4.80789">
        <ele>363</ele>
        <time>2022-06-17T13:58:47.000Z</time>
      </trkpt>
      <trkpt lat="49.84617" lon="4.80788">
        <ele>363</ele>
        <time>2022-06-17T13:58:48.000Z</time>
      </trkpt>
      <trkpt lat="49.84619" lon="4.80786">
        <ele>364</ele>
        <time>2022-06-17T13:58:49.000Z</time>
      </trkpt>
      <trkpt lat="49.8462" lon="4.80785">
        <ele>364</ele>
        <time>2022-06-17T13:58:50.000Z</time>
      </trkpt>
      <trkpt lat="49.84621" lon="4.80784">
        <ele>364</ele>
        <time>2022-06-17T13:58:51.000Z</time>
      </trkpt>
      <trkpt lat="49.84623" lon="4.80782">
        <ele>364</ele>
        <time>2022-06-17T13:58:52.000Z</time>
      </trkpt>
      <trkpt lat="49.84624" lon="4.80781">
        <ele>365</ele>
        <time>2022-06-17T13:58:53.000Z</time>
      </trkpt>
      <trkpt lat="49.84626" lon="4.80779">
        <ele>365</ele>
        <time>2022-06-17T13:58:54.000Z</time>
      </trkpt>
      <trkpt lat="49.84628" lon="4.80777">
        <ele>365</ele>
        <time>2022-06-17T13:58:55.000Z</time>
      </trkpt>
      <trkpt lat="49.84629" lon="4.80774">
        <ele>365</ele>
        <time>2022-06-17T13:58:56.000Z</time>
      </trkpt>
      <trkpt lat="49.8463" lon="4.80772">
        <ele>365</ele>
        <time>2022-06-17T13:58:57.000Z</time>
      </trkpt>
      <trkpt lat="49.84632" lon="4.80769">
        <ele>365</ele>
        <time>2022-06-17T13:58:58.000Z</time>
      </trkpt>
      <trkpt lat="49.84633" lon="4.80766">
        <ele>365</ele>
        <time>2022-06-17T13:58:59.000Z</time>
      </trkpt>
      <trkpt lat="49.84635" lon="4.80764">
        <ele>365</ele>
        <time>2022-06-17T13:59:00.000Z</time>
      </trkpt>
      <trkpt lat="49.84637" lon="4.80762">
        <ele>365</ele>
        <time>2022-06-17T13:59:01.000Z</time>
      </trkpt>
      <trkpt lat="49.84639" lon="4.8076">
        <ele>365</ele>
        <time>2022-06-17T13:59:02.000Z</time>
      </trkpt>
      <trkpt lat="49.8464" lon="4.80757">
        <ele>365</ele>
        <time>2022-06-17T13:59:03.000Z</time>
      </trkpt>
      <trkpt lat="49.84641" lon="4.80755">
        <ele>365</ele>
        <time>2022-06-17T13:59:04.000Z</time>
      </trkpt>
      <trkpt lat="49.84642" lon="4.80752">
        <ele>365</ele>
        <time>2022-06-17T13:59:05.000Z</time>
      </trkpt>
      <trkpt lat="49.84643" lon="4.80749">
        <ele>365</ele>
        <time>2022-06-17T13:59:06.000Z</time>
      </trkpt>
      <trkpt lat="49.84644" lon="4.80747">
        <ele>366</ele>
        <time>2022-06-17T13:59:07.000Z</time>
      </trkpt>
      <trkpt lat="49.84645" lon="4.80744">
        <ele>366</ele>
        <time>2022-06-17T13:59:08.000Z</time>
      </trkpt>
      <trkpt lat="49.84647" lon="4.80743">
        <ele>366</ele>
        <time>2022-06-17T13:59:09.000Z</time>
      </trkpt>
      <trkpt lat="49.84648" lon="4.80741">
        <ele>366</ele>
        <time>2022-06-17T13:59:10.000Z</time>
      </trkpt>
      <trkpt lat="49.84649" lon="4.80739">
        <ele>366</ele>
        <time>2022-06-17T13:59:11.000Z</time>
      </trkpt>
      <trkpt lat="49.84651" lon="4.80737">
        <ele>366</ele>
        <time>2022-06-17T13:59:12.000Z</time>
      </trkpt>
      <trkpt lat="49.84653" lon="4.80736">
        <ele>367</ele>
        <time>2022-06-17T13:59:13.000Z</time>
      </trkpt>
      <trkpt lat="49.84655" lon="4.80735">
        <ele>367</ele>
        <time>2022-06-17T13:59:14.000Z</time>
      </trkpt>
      <trkpt lat="49.84656" lon="4.80734">
        <ele>367</ele>
        <time>2022-06-17T13:59:15.000Z</time>
      </trkpt>
      <trkpt lat="49.84657" lon="4.80732">
        <ele>367</ele>
        <time>2022-06-17T13:59:16.000Z</time>
      </trkpt>
      <trkpt lat="49.84657" lon="4.80731">
        <ele>368</ele>
        <time>2022-06-17T13:59:17.000Z</time>
      </trkpt>
      <trkpt lat="49.84658" lon="4.80731">
        <ele>368</ele>
        <time>2022-06-17T13:59:18.000Z</time>
      </trkpt>
      <trkpt lat="49.84659" lon="4.8073">
        <ele>368</ele>
        <time>2022-06-17T13:59:19.000Z</time>
      </trkpt>
      <trkpt lat="49.8466" lon="4.8073">
        <ele>369</ele>
        <time>2022-06-17T13:59:20.000Z</time>
      </trkpt>
      <trkpt lat="49.84661" lon="4.8073">
        <ele>369</ele>
        <time>2022-06-17T13:59:21.000Z</time>
      </trkpt>
      <trkpt lat="49.84662" lon="4.80729">
        <ele>369</ele>
        <time>2022-06-17T13:59:22.000Z</time>
      </trkpt>
      <trkpt lat="49.84663" lon="4.80729">
        <ele>370</ele>
        <time>2022-06-17T13:59:23.000Z</time>
      </trkpt>
      <trkpt lat="49.84664" lon="4.80729">
        <ele>370</ele>
        <time>2022-06-17T13:59:24.000Z</time>
      </trkpt>
      <trkpt lat="49.84665" lon="4.80728">
        <ele>370</ele>
        <time>2022-06-17T13:59:25.000Z</time>
      </trkpt>
      <trkpt lat="49.84666" lon="4.80728">
        <ele>370</ele>
        <time>2022-06-17T13:59:26.000Z</time>
      </trkpt>
      <trkpt lat="49.84668" lon="4.80728">
        <ele>370</ele>
        <time>2022-06-17T13:59:27.000Z</time>
      </trkpt>
      <trkpt lat="49.84669" lon="4.80727">
        <ele>371</ele>
        <time>2022-06-17T13:59:28.000Z</time>
      </trkpt>
      <trkpt lat="49.84671" lon="4.80727">
        <ele>371</ele>
        <time>2022-06-17T13:59:29.000Z</time>
      </trkpt>
      <trkpt lat="49.84673" lon="4.80726">
        <ele>371</ele>
        <time>2022-06-17T13:59:30.000Z</time>
      </trkpt>
      <trkpt lat="49.84674" lon="4.80725">
        <ele>371</ele>
        <time>2022-06-17T13:59:31.000Z</time>
      </trkpt>
      <trkpt lat="49.84676" lon="4.80724">
        <ele>372</ele>
        <time>2022-06-17T13:59:32.000Z</time>
      </trkpt>
      <trkpt lat="49.84678" lon="4.80723">
        <ele>372</ele>
        <time>2022-06-17T13:59:33.000Z</time>
      </trkpt>
      <trkpt lat="49.84679" lon="4.80722">
        <ele>372</ele>
        <time>2022-06-17T13:59:34.000Z</time>
      </trkpt>
      <trkpt lat="49.8468" lon="4.80721">
        <ele>372</ele>
        <time>2022-06-17T13:59:35.000Z</time>
      </trkpt>
      <trkpt lat="49.84682" lon="4.8072">
        <ele>372</ele>
        <time>2022-06-17T13:59:36.000Z</time>
      </trkpt>
      <trkpt lat="49.84683" lon="4.80719">
        <ele>373</ele>
        <time>2022-06-17T13:59:37.000Z</time>
      </trkpt>
      <trkpt lat="49.84685" lon="4.80717">
        <ele>373</ele>
        <time>2022-06-17T13:59:38.000Z</time>
      </trkpt>
      <trkpt lat="49.84686" lon="4.80717">
        <ele>373</ele>
        <time>2022-06-17T13:59:39.000Z</time>
      </trkpt>
      <trkpt lat="49.84688" lon="4.80716">
        <ele>373</ele>
        <time>2022-06-17T13:59:40.000Z</time>
      </trkpt>
      <trkpt lat="49.84689" lon="4.80715">
        <ele>374</ele>
        <time>2022-06-17T13:59:41.000Z</time>
      </trkpt>
      <trkpt lat="49.8469" lon="4.80714">
        <ele>374</ele>
        <time>2022-06-17T13:59:42.000Z</time>
      </trkpt>
      <trkpt lat="49.84691" lon="4.80713">
        <ele>374</ele>
        <time>2022-06-17T13:59:43.000Z</time>
      </trkpt>
      <trkpt lat="49.84692" lon="4.80712">
        <ele>374</ele>
        <time>2022-06-17T13:59:44.000Z</time>
      </trkpt>
      <trkpt lat="49.84693" lon="4.80711">
        <ele>374</ele>
        <time>2022-06-17T13:59:45.000Z</time>
      </trkpt>
      <trkpt lat="49.84695" lon="4.8071">
        <ele>375</ele>
        <time>2022-06-17T13:59:46.000Z</time>
      </trkpt>
      <trkpt lat="49.84696" lon="4.80709">
        <ele>375</ele>
        <time>2022-06-17T13:59:47.000Z</time>
      </trkpt>
      <trkpt lat="49.84698" lon="4.80708">
        <ele>375</ele>
        <time>2022-06-17T13:59:48.000Z</time>
      </trkpt>
      <trkpt lat="49.84699" lon="4.80707">
        <ele>375</ele>
        <time>2022-06-17T13:59:49.000Z</time>
      </trkpt>
      <trkpt lat="49.84701" lon="4.80706">
        <ele>376</ele>
        <time>2022-06-17T13:59:50.000Z</time>
      </trkpt>
      <trkpt lat="49.84703" lon="4.80705">
        <ele>376</ele>
        <time>2022-06-17T13:59:51.000Z</time>
      </trkpt>
      <trkpt lat="49.84705" lon="4.80703">
        <ele>376</ele>
        <time>2022-06-17T13:59:52.000Z</time>
      </trkpt>
      <trkpt lat="49.84706" lon="4.80702">
        <ele>376</ele>
        <time>2022-06-17T13:59:53.000Z</time>
      </trkpt>
      <trkpt lat="49.84708" lon="4.80702">
        <ele>377</ele>
        <time>2022-06-17T13:59:54.000Z</time>
      </trkpt>
      <trkpt lat="49.8471" lon="4.80701">
        <ele>377</ele>
        <time>2022-06-17T13:59:55.000Z</time>
      </trkpt>
      <trkpt lat="49.84712" lon="4.807">
        <ele>377</ele>
        <time>2022-06-17T13:59:56.000Z</time>
      </trkpt>
      <trkpt lat="49.84713" lon="4.807">
        <ele>377</ele>
        <time>2022-06-17T13:59:57.000Z</time>
      </trkpt>
      <trkpt lat="49.84715" lon="4.80699">
        <ele>378</ele>
        <time>2022-06-17T13:59:58.000Z</time>
      </trkpt>
      <trkpt lat="49.84717" lon="4.80698">
        <ele>378</ele>
        <time>2022-06-17T13:59:59.000Z</time>
      </trkpt>
      <trkpt lat="49.84719" lon="4.80696">
        <ele>378</ele>
        <time>2022-06-17T14:00:00.000Z</time>
      </trkpt>
      <trkpt lat="49.8472" lon="4.80695">
        <ele>378</ele>
        <time>2022-06-17T14:00:01.000Z</time>
      </trkpt>
      <trkpt lat="49.84722" lon="4.80694">
        <ele>378</ele>
        <time>2022-06-17T14:00:02.000Z</time>
      </trkpt>
      <trkpt lat="49.84724" lon="4.80692">
        <ele>379</ele>
        <time>2022-06-17T14:00:03.000Z</time>
      </trkpt>
      <trkpt lat="49.84725" lon="4.8069">
        <ele>379</ele>
        <time>2022-06-17T14:00:04.000Z</time>
      </trkpt>
      <trkpt lat="49.84727" lon="4.80689">
        <ele>379</ele>
        <time>2022-06-17T14:00:05.000Z</time>
      </trkpt>
      <trkpt lat="49.84729" lon="4.80687">
        <ele>379</ele>
        <time>2022-06-17T14:00:06.000Z</time>
      </trkpt>
      <trkpt lat="49.84731" lon="4.80685">
        <ele>379</ele>
        <time>2022-06-17T14:00:07.000Z</time>
      </trkpt>
      <trkpt lat="49.84733" lon="4.80684">
        <ele>379</ele>
        <time>2022-06-17T14:00:08.000Z</time>
      </trkpt>
      <trkpt lat="49.84734" lon="4.80682">
        <ele>379</ele>
        <time>2022-06-17T14:00:09.000Z</time>
      </trkpt>
      <trkpt lat="49.84736" lon="4.8068">
        <ele>380</ele>
        <time>2022-06-17T14:00:10.000Z</time>
      </trkpt>
      <trkpt lat="49.84738" lon="4.80679">
        <ele>380</ele>
        <time>2022-06-17T14:00:11.000Z</time>
      </trkpt>
      <trkpt lat="49.8474" lon="4.80677">
        <ele>380</ele>
        <time>2022-06-17T14:00:12.000Z</time>
      </trkpt>
      <trkpt lat="49.84742" lon="4.80675">
        <ele>380</ele>
        <time>2022-06-17T14:00:13.000Z</time>
      </trkpt>
      <trkpt lat="49.84744" lon="4.80674">
        <ele>380</ele>
        <time>2022-06-17T14:00:14.000Z</time>
      </trkpt>
      <trkpt lat="49.84746" lon="4.80672">
        <ele>380</ele>
        <time>2022-06-17T14:00:15.000Z</time>
      </trkpt>
      <trkpt lat="49.84748" lon="4.8067">
        <ele>380</ele>
        <time>2022-06-17T14:00:16.000Z</time>
      </trkpt>
      <trkpt lat="49.84749" lon="4.80669">
        <ele>380</ele>
        <time>2022-06-17T14:00:17.000Z</time>
      </trkpt>
      <trkpt lat="49.84751" lon="4.80667">
        <ele>381</ele>
        <time>2022-06-17T14:00:18.000Z</time>
      </trkpt>
      <trkpt lat="49.84753" lon="4.80665">
        <ele>381</ele>
        <time>2022-06-17T14:00:19.000Z</time>
      </trkpt>
      <trkpt lat="49.84754" lon="4.80663">
        <ele>381</ele>
        <time>2022-06-17T14:00:20.000Z</time>
      </trkpt>
      <trkpt lat="49.84755" lon="4.80662">
        <ele>380</ele>
        <time>2022-06-17T14:00:21.000Z</time>
      </trkpt>
      <trkpt lat="49.84757" lon="4.8066">
        <ele>380</ele>
        <time>2022-06-17T14:00:22.000Z</time>
      </trkpt>
      <trkpt lat="49.84758" lon="4.80657">
        <ele>380</ele>
        <time>2022-06-17T14:00:23.000Z</time>
      </trkpt>
      <trkpt lat="49.84758" lon="4.80654">
        <ele>380</ele>
        <time>2022-06-17T14:00:24.000Z</time>
      </trkpt>
      <trkpt lat="49.84759" lon="4.80651">
        <ele>380</ele>
        <time>2022-06-17T14:00:25.000Z</time>
      </trkpt>
      <trkpt lat="49.8476" lon="4.80648">
        <ele>380</ele>
        <time>2022-06-17T14:00:26.000Z</time>
      </trkpt>
      <trkpt lat="49.84761" lon="4.80645">
        <ele>380</ele>
        <time>2022-06-17T14:00:27.000Z</time>
      </trkpt>
      <trkpt lat="49.84763" lon="4.80642">
        <ele>380</ele>
        <time>2022-06-17T14:00:28.000Z</time>
      </trkpt>
      <trkpt lat="49.84765" lon="4.80641">
        <ele>380</ele>
        <time>2022-06-17T14:00:29.000Z</time>
      </trkpt>
      <trkpt lat="49.84767" lon="4.80641">
        <ele>380</ele>
        <time>2022-06-17T14:00:30.000Z</time>
      </trkpt>
      <trkpt lat="49.84769" lon="4.80642">
        <ele>380</ele>
        <time>2022-06-17T14:00:31.000Z</time>
      </trkpt>
      <trkpt lat="49.84772" lon="4.80643">
        <ele>380</ele>
        <time>2022-06-17T14:00:32.000Z</time>
      </trkpt>
      <trkpt lat="49.84774" lon="4.80645">
        <ele>380</ele>
        <time>2022-06-17T14:00:33.000Z</time>
      </trkpt>
      <trkpt lat="49.84777" lon="4.80647">
        <ele>380</ele>
        <time>2022-06-17T14:00:34.000Z</time>
      </trkpt>
      <trkpt lat="49.8478" lon="4.8065">
        <ele>380</ele>
        <time>2022-06-17T14:00:35.000Z</time>
      </trkpt>
      <trkpt lat="49.84783" lon="4.80654">
        <ele>380</ele>
        <time>2022-06-17T14:00:36.000Z</time>
      </trkpt>
      <trkpt lat="49.84785" lon="4.80658">
        <ele>380</ele>
        <time>2022-06-17T14:00:37.000Z</time>
      </trkpt>
      <trkpt lat="49.84787" lon="4.80663">
        <ele>380</ele>
        <time>2022-06-17T14:00:38.000Z</time>
      </trkpt>
      <trkpt lat="49.84789" lon="4.80668">
        <ele>380</ele>
        <time>2022-06-17T14:00:39.000Z</time>
      </trkpt>
      <trkpt lat="49.84791" lon="4.80673">
        <ele>380</ele>
        <time>2022-06-17T14:00:40.000Z</time>
      </trkpt>
      <trkpt lat="49.84794" lon="4.80678">
        <ele>380</ele>
        <time>2022-06-17T14:00:41.000Z</time>
      </trkpt>
      <trkpt lat="49.84796" lon="4.80682">
        <ele>380</ele>
        <time>2022-06-17T14:00:42.000Z</time>
      </trkpt>
      <trkpt lat="49.84798" lon="4.80687">
        <ele>380</ele>
        <time>2022-06-17T14:00:43.000Z</time>
      </trkpt>
      <trkpt lat="49.84801" lon="4.80692">
        <ele>380</ele>
        <time>2022-06-17T14:00:44.000Z</time>
      </trkpt>
      <trkpt lat="49.84804" lon="4.80696">
        <ele>381</ele>
        <time>2022-06-17T14:00:45.000Z</time>
      </trkpt>
      <trkpt lat="49.84807" lon="4.807">
        <ele>381</ele>
        <time>2022-06-17T14:00:46.000Z</time>
      </trkpt>
      <trkpt lat="49.8481" lon="4.80703">
        <ele>381</ele>
        <time>2022-06-17T14:00:47.000Z</time>
      </trkpt>
      <trkpt lat="49.84813" lon="4.80706">
        <ele>381</ele>
        <time>2022-06-17T14:00:48.000Z</time>
      </trkpt>
      <trkpt lat="49.84815" lon="4.80711">
        <ele>381</ele>
        <time>2022-06-17T14:00:49.000Z</time>
      </trkpt>
      <trkpt lat="49.84817" lon="4.80716">
        <ele>381</ele>
        <time>2022-06-17T14:00:50.000Z</time>
      </trkpt>
      <trkpt lat="49.84818" lon="4.80722">
        <ele>381</ele>
        <time>2022-06-17T14:00:51.000Z</time>
      </trkpt>
      <trkpt lat="49.84819" lon="4.80727">
        <ele>381</ele>
        <time>2022-06-17T14:00:52.000Z</time>
      </trkpt>
      <trkpt lat="49.84821" lon="4.80732">
        <ele>381</ele>
        <time>2022-06-17T14:00:53.000Z</time>
      </trkpt>
      <trkpt lat="49.84824" lon="4.80737">
        <ele>381</ele>
        <time>2022-06-17T14:00:54.000Z</time>
      </trkpt>
      <trkpt lat="49.84826" lon="4.80742">
        <ele>381</ele>
        <time>2022-06-17T14:00:55.000Z</time>
      </trkpt>
      <trkpt lat="49.84828" lon="4.80747">
        <ele>381</ele>
        <time>2022-06-17T14:00:56.000Z</time>
      </trkpt>
      <trkpt lat="49.84831" lon="4.80752">
        <ele>381</ele>
        <time>2022-06-17T14:00:57.000Z</time>
      </trkpt>
      <trkpt lat="49.84834" lon="4.80757">
        <ele>381</ele>
        <time>2022-06-17T14:00:58.000Z</time>
      </trkpt>
      <trkpt lat="49.84837" lon="4.80763">
        <ele>381</ele>
        <time>2022-06-17T14:00:59.000Z</time>
      </trkpt>
      <trkpt lat="49.8484" lon="4.80767">
        <ele>381</ele>
        <time>2022-06-17T14:01:00.000Z</time>
      </trkpt>
      <trkpt lat="49.84842" lon="4.80772">
        <ele>381</ele>
        <time>2022-06-17T14:01:01.000Z</time>
      </trkpt>
      <trkpt lat="49.84845" lon="4.80775">
        <ele>381</ele>
        <time>2022-06-17T14:01:02.000Z</time>
      </trkpt>
      <trkpt lat="49.84848" lon="4.8078">
        <ele>381</ele>
        <time>2022-06-17T14:01:03.000Z</time>
      </trkpt>
      <trkpt lat="49.84851" lon="4.80784">
        <ele>381</ele>
        <time>2022-06-17T14:01:04.000Z</time>
      </trkpt>
      <trkpt lat="49.84854" lon="4.80787">
        <ele>381</ele>
        <time>2022-06-17T14:01:05.000Z</time>
      </trkpt>
      <trkpt lat="49.84856" lon="4.80791">
        <ele>381</ele>
        <time>2022-06-17T14:01:06.000Z</time>
      </trkpt>
      <trkpt lat="49.84859" lon="4.80795">
        <ele>381</ele>
        <time>2022-06-17T14:01:07.000Z</time>
      </trkpt>
      <trkpt lat="49.84863" lon="4.80798">
        <ele>382</ele>
        <time>2022-06-17T14:01:08.000Z</time>
      </trkpt>
      <trkpt lat="49.84866" lon="4.808">
        <ele>382</ele>
        <time>2022-06-17T14:01:09.000Z</time>
      </trkpt>
      <trkpt lat="49.8487" lon="4.80802">
        <ele>382</ele>
        <time>2022-06-17T14:01:10.000Z</time>
      </trkpt>
      <trkpt lat="49.84874" lon="4.80803">
        <ele>382</ele>
        <time>2022-06-17T14:01:11.000Z</time>
      </trkpt>
      <trkpt lat="49.84879" lon="4.80806">
        <ele>382</ele>
        <time>2022-06-17T14:01:12.000Z</time>
      </trkpt>
      <trkpt lat="49.84885" lon="4.8081">
        <ele>382</ele>
        <time>2022-06-17T14:01:13.000Z</time>
      </trkpt>
      <trkpt lat="49.84889" lon="4.80816">
        <ele>383</ele>
        <time>2022-06-17T14:01:14.000Z</time>
      </trkpt>
      <trkpt lat="49.84893" lon="4.80822">
        <ele>383</ele>
        <time>2022-06-17T14:01:15.000Z</time>
      </trkpt>
      <trkpt lat="49.84897" lon="4.80829">
        <ele>383</ele>
        <time>2022-06-17T14:01:16.000Z</time>
      </trkpt>
      <trkpt lat="49.84901" lon="4.80836">
        <ele>383</ele>
        <time>2022-06-17T14:01:17.000Z</time>
      </trkpt>
      <trkpt lat="49.84905" lon="4.80843">
        <ele>383</ele>
        <time>2022-06-17T14:01:18.000Z</time>
      </trkpt>
      <trkpt lat="49.84908" lon="4.80851">
        <ele>383</ele>
        <time>2022-06-17T14:01:19.000Z</time>
      </trkpt>
      <trkpt lat="49.84912" lon="4.80858">
        <ele>383</ele>
        <time>2022-06-17T14:01:20.000Z</time>
      </trkpt>
      <trkpt lat="49.84915" lon="4.80866">
        <ele>383</ele>
        <time>2022-06-17T14:01:21.000Z</time>
      </trkpt>
      <trkpt lat="49.84918" lon="4.80873">
        <ele>383</ele>
        <time>2022-06-17T14:01:22.000Z</time>
      </trkpt>
      <trkpt lat="49.84922" lon="4.80881">
        <ele>383</ele>
        <time>2022-06-17T14:01:23.000Z</time>
      </trkpt>
      <trkpt lat="49.84926" lon="4.80887">
        <ele>383</ele>
        <time>2022-06-17T14:01:24.000Z</time>
      </trkpt>
      <trkpt lat="49.84928" lon="4.80894">
        <ele>383</ele>
        <time>2022-06-17T14:01:25.000Z</time>
      </trkpt>
      <trkpt lat="49.84929" lon="4.80901">
        <ele>383</ele>
        <time>2022-06-17T14:01:26.000Z</time>
      </trkpt>
      <trkpt lat="49.84929" lon="4.80907">
        <ele>383</ele>
        <time>2022-06-17T14:01:27.000Z</time>
      </trkpt>
      <trkpt lat="49.84929" lon="4.80913">
        <ele>383</ele>
        <time>2022-06-17T14:01:28.000Z</time>
      </trkpt>
      <trkpt lat="49.84929" lon="4.80919">
        <ele>383</ele>
        <time>2022-06-17T14:01:29.000Z</time>
      </trkpt>
      <trkpt lat="49.8493" lon="4.80925">
        <ele>384</ele>
        <time>2022-06-17T14:01:30.000Z</time>
      </trkpt>
      <trkpt lat="49.84932" lon="4.80931">
        <ele>384</ele>
        <time>2022-06-17T14:01:31.000Z</time>
      </trkpt>
      <trkpt lat="49.84933" lon="4.80937">
        <ele>384</ele>
        <time>2022-06-17T14:01:32.000Z</time>
      </trkpt>
      <trkpt lat="49.84935" lon="4.80943">
        <ele>384</ele>
        <time>2022-06-17T14:01:33.000Z</time>
      </trkpt>
      <trkpt lat="49.84936" lon="4.80948">
        <ele>384</ele>
        <time>2022-06-17T14:01:34.000Z</time>
      </trkpt>
      <trkpt lat="49.84938" lon="4.80954">
        <ele>384</ele>
        <time>2022-06-17T14:01:35.000Z</time>
      </trkpt>
      <trkpt lat="49.8494" lon="4.8096">
        <ele>384</ele>
        <time>2022-06-17T14:01:36.000Z</time>
      </trkpt>
      <trkpt lat="49.84942" lon="4.80965">
        <ele>384</ele>
        <time>2022-06-17T14:01:37.000Z</time>
      </trkpt>
      <trkpt lat="49.84944" lon="4.80971">
        <ele>384</ele>
        <time>2022-06-17T14:01:38.000Z</time>
      </trkpt>
      <trkpt lat="49.84946" lon="4.80978">
        <ele>384</ele>
        <time>2022-06-17T14:01:39.000Z</time>
      </trkpt>
      <trkpt lat="49.84948" lon="4.80984">
        <ele>384</ele>
        <time>2022-06-17T14:01:40.000Z</time>
      </trkpt>
      <trkpt lat="49.84949" lon="4.80991">
        <ele>384</ele>
        <time>2022-06-17T14:01:41.000Z</time>
      </trkpt>
      <trkpt lat="49.84952" lon="4.80997">
        <ele>384</ele>
        <time>2022-06-17T14:01:42.000Z</time>
      </trkpt>
      <trkpt lat="49.84954" lon="4.81004">
        <ele>384</ele>
        <time>2022-06-17T14:01:43.000Z</time>
      </trkpt>
      <trkpt lat="49.84956" lon="4.8101">
        <ele>384</ele>
        <time>2022-06-17T14:01:44.000Z</time>
      </trkpt>
      <trkpt lat="49.84959" lon="4.81017">
        <ele>384</ele>
        <time>2022-06-17T14:01:45.000Z</time>
      </trkpt>
      <trkpt lat="49.84961" lon="4.81023">
        <ele>384</ele>
        <time>2022-06-17T14:01:46.000Z</time>
      </trkpt>
      <trkpt lat="49.84963" lon="4.81029">
        <ele>384</ele>
        <time>2022-06-17T14:01:47.000Z</time>
      </trkpt>
      <trkpt lat="49.84965" lon="4.81035">
        <ele>384</ele>
        <time>2022-06-17T14:01:48.000Z</time>
      </trkpt>
      <trkpt lat="49.84967" lon="4.81041">
        <ele>384</ele>
        <time>2022-06-17T14:01:49.000Z</time>
      </trkpt>
      <trkpt lat="49.8497" lon="4.81046">
        <ele>384</ele>
        <time>2022-06-17T14:01:50.000Z</time>
      </trkpt>
      <trkpt lat="49.84972" lon="4.81052">
        <ele>384</ele>
        <time>2022-06-17T14:01:51.000Z</time>
      </trkpt>
      <trkpt lat="49.84974" lon="4.81057">
        <ele>385</ele>
        <time>2022-06-17T14:01:52.000Z</time>
      </trkpt>
      <trkpt lat="49.84976" lon="4.81064">
        <ele>385</ele>
        <time>2022-06-17T14:01:53.000Z</time>
      </trkpt>
      <trkpt lat="49.84978" lon="4.8107">
        <ele>385</ele>
        <time>2022-06-17T14:01:54.000Z</time>
      </trkpt>
      <trkpt lat="49.84981" lon="4.81076">
        <ele>385</ele>
        <time>2022-06-17T14:01:55.000Z</time>
      </trkpt>
      <trkpt lat="49.84983" lon="4.81083">
        <ele>385</ele>
        <time>2022-06-17T14:01:56.000Z</time>
      </trkpt>
      <trkpt lat="49.84985" lon="4.8109">
        <ele>385</ele>
        <time>2022-06-17T14:01:57.000Z</time>
      </trkpt>
      <trkpt lat="49.84987" lon="4.81097">
        <ele>385</ele>
        <time>2022-06-17T14:01:58.000Z</time>
      </trkpt>
      <trkpt lat="49.8499" lon="4.81103">
        <ele>385</ele>
        <time>2022-06-17T14:01:59.000Z</time>
      </trkpt>
      <trkpt lat="49.84992" lon="4.81109">
        <ele>386</ele>
        <time>2022-06-17T14:02:00.000Z</time>
      </trkpt>
      <trkpt lat="49.84995" lon="4.81115">
        <ele>386</ele>
        <time>2022-06-17T14:02:01.000Z</time>
      </trkpt>
      <trkpt lat="49.84998" lon="4.81121">
        <ele>386</ele>
        <time>2022-06-17T14:02:02.000Z</time>
      </trkpt>
      <trkpt lat="49.85001" lon="4.81126">
        <ele>386</ele>
        <time>2022-06-17T14:02:03.000Z</time>
      </trkpt>
      <trkpt lat="49.85003" lon="4.81132">
        <ele>386</ele>
        <time>2022-06-17T14:02:04.000Z</time>
      </trkpt>
      <trkpt lat="49.85006" lon="4.81138">
        <ele>386</ele>
        <time>2022-06-17T14:02:05.000Z</time>
      </trkpt>
      <trkpt lat="49.85009" lon="4.81144">
        <ele>386</ele>
        <time>2022-06-17T14:02:06.000Z</time>
      </trkpt>
      <trkpt lat="49.85012" lon="4.8115">
        <ele>386</ele>
        <time>2022-06-17T14:02:07.000Z</time>
      </trkpt>
      <trkpt lat="49.85015" lon="4.81155">
        <ele>386</ele>
        <time>2022-06-17T14:02:08.000Z</time>
      </trkpt>
      <trkpt lat="49.85018" lon="4.8116">
        <ele>386</ele>
        <time>2022-06-17T14:02:09.000Z</time>
      </trkpt>
      <trkpt lat="49.85021" lon="4.81165">
        <ele>386</ele>
        <time>2022-06-17T14:02:10.000Z</time>
      </trkpt>
      <trkpt lat="49.85024" lon="4.81171">
        <ele>386</ele>
        <time>2022-06-17T14:02:11.000Z</time>
      </trkpt>
      <trkpt lat="49.85028" lon="4.81177">
        <ele>386</ele>
        <time>2022-06-17T14:02:12.000Z</time>
      </trkpt>
      <trkpt lat="49.85032" lon="4.81183">
        <ele>386</ele>
        <time>2022-06-17T14:02:13.000Z</time>
      </trkpt>
      <trkpt lat="49.85036" lon="4.81189">
        <ele>387</ele>
        <time>2022-06-17T14:02:14.000Z</time>
      </trkpt>
      <trkpt lat="49.85039" lon="4.81195">
        <ele>387</ele>
        <time>2022-06-17T14:02:15.000Z</time>
      </trkpt>
      <trkpt lat="49.85043" lon="4.81202">
        <ele>387</ele>
        <time>2022-06-17T14:02:16.000Z</time>
      </trkpt>
      <trkpt lat="49.85047" lon="4.81208">
        <ele>387</ele>
        <time>2022-06-17T14:02:17.000Z</time>
      </trkpt>
      <trkpt lat="49.85051" lon="4.81214">
        <ele>387</ele>
        <time>2022-06-17T14:02:18.000Z</time>
      </trkpt>
      <trkpt lat="49.85054" lon="4.81221">
        <ele>387</ele>
        <time>2022-06-17T14:02:19.000Z</time>
      </trkpt>
      <trkpt lat="49.85058" lon="4.81227">
        <ele>387</ele>
        <time>2022-06-17T14:02:20.000Z</time>
      </trkpt>
      <trkpt lat="49.85061" lon="4.81232">
        <ele>387</ele>
        <time>2022-06-17T14:02:21.000Z</time>
      </trkpt>
      <trkpt lat="49.85065" lon="4.81238">
        <ele>387</ele>
        <time>2022-06-17T14:02:22.000Z</time>
      </trkpt>
      <trkpt lat="49.85069" lon="4.81244">
        <ele>387</ele>
        <time>2022-06-17T14:02:23.000Z</time>
      </trkpt>
      <trkpt lat="49.85073" lon="4.81249">
        <ele>388</ele>
        <time>2022-06-17T14:02:24.000Z</time>
      </trkpt>
      <trkpt lat="49.85077" lon="4.81255">
        <ele>388</ele>
        <time>2022-06-17T14:02:25.000Z</time>
      </trkpt>
      <trkpt lat="49.8508" lon="4.81261">
        <ele>388</ele>
        <time>2022-06-17T14:02:26.000Z</time>
      </trkpt>
      <trkpt lat="49.85084" lon="4.81266">
        <ele>388</ele>
        <time>2022-06-17T14:02:27.000Z</time>
      </trkpt>
      <trkpt lat="49.85087" lon="4.81271">
        <ele>388</ele>
        <time>2022-06-17T14:02:28.000Z</time>
      </trkpt>
      <trkpt lat="49.85091" lon="4.81276">
        <ele>388</ele>
        <time>2022-06-17T14:02:29.000Z</time>
      </trkpt>
      <trkpt lat="49.85095" lon="4.81281">
        <ele>388</ele>
        <time>2022-06-17T14:02:30.000Z</time>
      </trkpt>
      <trkpt lat="49.85099" lon="4.81285">
        <ele>388</ele>
        <time>2022-06-17T14:02:31.000Z</time>
      </trkpt>
      <trkpt lat="49.85102" lon="4.8129">
        <ele>388</ele>
        <time>2022-06-17T14:02:32.000Z</time>
      </trkpt>
      <trkpt lat="49.85105" lon="4.81295">
        <ele>388</ele>
        <time>2022-06-17T14:02:33.000Z</time>
      </trkpt>
      <trkpt lat="49.85107" lon="4.813">
        <ele>389</ele>
        <time>2022-06-17T14:02:34.000Z</time>
      </trkpt>
      <trkpt lat="49.8511" lon="4.81303">
        <ele>389</ele>
        <time>2022-06-17T14:02:35.000Z</time>
      </trkpt>
      <trkpt lat="49.85113" lon="4.81306">
        <ele>389</ele>
        <time>2022-06-17T14:02:36.000Z</time>
      </trkpt>
      <trkpt lat="49.85116" lon="4.81309">
        <ele>389</ele>
        <time>2022-06-17T14:02:37.000Z</time>
      </trkpt>
      <trkpt lat="49.85119" lon="4.81311">
        <ele>389</ele>
        <time>2022-06-17T14:02:38.000Z</time>
      </trkpt>
      <trkpt lat="49.85122" lon="4.81313">
        <ele>389</ele>
        <time>2022-06-17T14:02:39.000Z</time>
      </trkpt>
      <trkpt lat="49.85125" lon="4.81316">
        <ele>389</ele>
        <time>2022-06-17T14:02:40.000Z</time>
      </trkpt>
      <trkpt lat="49.85128" lon="4.81319">
        <ele>389</ele>
        <time>2022-06-17T14:02:41.000Z</time>
      </trkpt>
      <trkpt lat="49.85131" lon="4.81322">
        <ele>389</ele>
        <time>2022-06-17T14:02:42.000Z</time>
      </trkpt>
      <trkpt lat="49.85134" lon="4.81325">
        <ele>389</ele>
        <time>2022-06-17T14:02:43.000Z</time>
      </trkpt>
      <trkpt lat="49.85137" lon="4.81328">
        <ele>389</ele>
        <time>2022-06-17T14:02:44.000Z</time>
      </trkpt>
      <trkpt lat="49.8514" lon="4.81331">
        <ele>389</ele>
        <time>2022-06-17T14:02:45.000Z</time>
      </trkpt>
      <trkpt lat="49.85142" lon="4.81335">
        <ele>389</ele>
        <time>2022-06-17T14:02:46.000Z</time>
      </trkpt>
      <trkpt lat="49.85145" lon="4.81338">
        <ele>389</ele>
        <time>2022-06-17T14:02:47.000Z</time>
      </trkpt>
      <trkpt lat="49.85148" lon="4.81341">
        <ele>389</ele>
        <time>2022-06-17T14:02:48.000Z</time>
      </trkpt>
      <trkpt lat="49.85151" lon="4.81343">
        <ele>389</ele>
        <time>2022-06-17T14:02:49.000Z</time>
      </trkpt>
      <trkpt lat="49.85153" lon="4.81346">
        <ele>389</ele>
        <time>2022-06-17T14:02:50.000Z</time>
      </trkpt>
      <trkpt lat="49.85155" lon="4.8135">
        <ele>389</ele>
        <time>2022-06-17T14:02:51.000Z</time>
      </trkpt>
      <trkpt lat="49.85158" lon="4.81355">
        <ele>389</ele>
        <time>2022-06-17T14:02:52.000Z</time>
      </trkpt>
      <trkpt lat="49.85161" lon="4.8136">
        <ele>389</ele>
        <time>2022-06-17T14:02:53.000Z</time>
      </trkpt>
      <trkpt lat="49.85164" lon="4.81366">
        <ele>389</ele>
        <time>2022-06-17T14:02:54.000Z</time>
      </trkpt>
      <trkpt lat="49.85167" lon="4.81372">
        <ele>389</ele>
        <time>2022-06-17T14:02:55.000Z</time>
      </trkpt>
      <trkpt lat="49.85171" lon="4.81379">
        <ele>389</ele>
        <time>2022-06-17T14:02:56.000Z</time>
      </trkpt>
      <trkpt lat="49.85175" lon="4.81385">
        <ele>389</ele>
        <time>2022-06-17T14:02:57.000Z</time>
      </trkpt>
      <trkpt lat="49.85179" lon="4.81391">
        <ele>389</ele>
        <time>2022-06-17T14:02:58.000Z</time>
      </trkpt>
      <trkpt lat="49.85184" lon="4.81397">
        <ele>389</ele>
        <time>2022-06-17T14:02:59.000Z</time>
      </trkpt>
      <trkpt lat="49.85188" lon="4.81404">
        <ele>389</ele>
        <time>2022-06-17T14:03:00.000Z</time>
      </trkpt>
      <trkpt lat="49.85192" lon="4.81411">
        <ele>389</ele>
        <time>2022-06-17T14:03:01.000Z</time>
      </trkpt>
      <trkpt lat="49.85195" lon="4.81419">
        <ele>389</ele>
        <time>2022-06-17T14:03:02.000Z</time>
      </trkpt>
      <trkpt lat="49.85199" lon="4.81427">
        <ele>389</ele>
        <time>2022-06-17T14:03:03.000Z</time>
      </trkpt>
      <trkpt lat="49.85203" lon="4.81434">
        <ele>389</ele>
        <time>2022-06-17T14:03:04.000Z</time>
      </trkpt>
      <trkpt lat="49.85207" lon="4.81441">
        <ele>388</ele>
        <time>2022-06-17T14:03:05.000Z</time>
      </trkpt>
      <trkpt lat="49.85211" lon="4.81448">
        <ele>388</ele>
        <time>2022-06-17T14:03:06.000Z</time>
      </trkpt>
      <trkpt lat="49.85215" lon="4.81454">
        <ele>388</ele>
        <time>2022-06-17T14:03:07.000Z</time>
      </trkpt>
      <trkpt lat="49.85219" lon="4.8146">
        <ele>388</ele>
        <time>2022-06-17T14:03:08.000Z</time>
      </trkpt>
      <trkpt lat="49.85224" lon="4.81466">
        <ele>387</ele>
        <time>2022-06-17T14:03:09.000Z</time>
      </trkpt>
      <trkpt lat="49.85229" lon="4.81472">
        <ele>387</ele>
        <time>2022-06-17T14:03:10.000Z</time>
      </trkpt>
      <trkpt lat="49.85233" lon="4.81478">
        <ele>387</ele>
        <time>2022-06-17T14:03:11.000Z</time>
      </trkpt>
      <trkpt lat="49.85237" lon="4.81485">
        <ele>386</ele>
        <time>2022-06-17T14:03:12.000Z</time>
      </trkpt>
      <trkpt lat="49.85241" lon="4.81493">
        <ele>386</ele>
        <time>2022-06-17T14:03:13.000Z</time>
      </trkpt>
      <trkpt lat="49.85246" lon="4.815">
        <ele>385</ele>
        <time>2022-06-17T14:03:14.000Z</time>
      </trkpt>
      <trkpt lat="49.8525" lon="4.81507">
        <ele>385</ele>
        <time>2022-06-17T14:03:15.000Z</time>
      </trkpt>
      <trkpt lat="49.85255" lon="4.81514">
        <ele>384</ele>
        <time>2022-06-17T14:03:16.000Z</time>
      </trkpt>
      <trkpt lat="49.8526" lon="4.81521">
        <ele>384</ele>
        <time>2022-06-17T14:03:17.000Z</time>
      </trkpt>
      <trkpt lat="49.85265" lon="4.81527">
        <ele>383</ele>
        <time>2022-06-17T14:03:18.000Z</time>
      </trkpt>
      <trkpt lat="49.8527" lon="4.81533">
        <ele>383</ele>
        <time>2022-06-17T14:03:19.000Z</time>
      </trkpt>
      <trkpt lat="49.85274" lon="4.8154">
        <ele>383</ele>
        <time>2022-06-17T14:03:20.000Z</time>
      </trkpt>
      <trkpt lat="49.85279" lon="4.81546">
        <ele>382</ele>
        <time>2022-06-17T14:03:21.000Z</time>
      </trkpt>
      <trkpt lat="49.85283" lon="4.81553">
        <ele>382</ele>
        <time>2022-06-17T14:03:22.000Z</time>
      </trkpt>
      <trkpt lat="49.85287" lon="4.81559">
        <ele>381</ele>
        <time>2022-06-17T14:03:23.000Z</time>
      </trkpt>
      <trkpt lat="49.8529" lon="4.81563">
        <ele>381</ele>
        <time>2022-06-17T14:03:24.000Z</time>
      </trkpt>
      <trkpt lat="49.85293" lon="4.81566">
        <ele>381</ele>
        <time>2022-06-17T14:03:25.000Z</time>
      </trkpt>
      <trkpt lat="49.85294" lon="4.81568">
        <ele>381</ele>
        <time>2022-06-17T14:03:26.000Z</time>
      </trkpt>
      <trkpt lat="49.85294" lon="4.81571">
        <ele>380</ele>
        <time>2022-06-17T14:03:27.000Z</time>
      </trkpt>
      <trkpt lat="49.85294" lon="4.81573">
        <ele>380</ele>
        <time>2022-06-17T14:03:28.000Z</time>
      </trkpt>
      <trkpt lat="49.85294" lon="4.81576">
        <ele>380</ele>
        <time>2022-06-17T14:03:29.000Z</time>
      </trkpt>
      <trkpt lat="49.85293" lon="4.81579">
        <ele>380</ele>
        <time>2022-06-17T14:03:30.000Z</time>
      </trkpt>
      <trkpt lat="49.85292" lon="4.81582">
        <ele>380</ele>
        <time>2022-06-17T14:03:31.000Z</time>
      </trkpt>
      <trkpt lat="49.85292" lon="4.81584">
        <ele>380</ele>
        <time>2022-06-17T14:03:32.000Z</time>
      </trkpt>
      <trkpt lat="49.85293" lon="4.81587">
        <ele>379</ele>
        <time>2022-06-17T14:03:33.000Z</time>
      </trkpt>
      <trkpt lat="49.85294" lon="4.8159">
        <ele>379</ele>
        <time>2022-06-17T14:03:34.000Z</time>
      </trkpt>
      <trkpt lat="49.85295" lon="4.81594">
        <ele>379</ele>
        <time>2022-06-17T14:03:35.000Z</time>
      </trkpt>
      <trkpt lat="49.85297" lon="4.81596">
        <ele>379</ele>
        <time>2022-06-17T14:03:36.000Z</time>
      </trkpt>
      <trkpt lat="49.85299" lon="4.81598">
        <ele>379</ele>
        <time>2022-06-17T14:03:37.000Z</time>
      </trkpt>
      <trkpt lat="49.85302" lon="4.81599">
        <ele>379</ele>
        <time>2022-06-17T14:03:38.000Z</time>
      </trkpt>
      <trkpt lat="49.85304" lon="4.816">
        <ele>379</ele>
        <time>2022-06-17T14:03:39.000Z</time>
      </trkpt>
      <trkpt lat="49.85306" lon="4.81601">
        <ele>378</ele>
        <time>2022-06-17T14:03:40.000Z</time>
      </trkpt>
      <trkpt lat="49.85309" lon="4.81602">
        <ele>378</ele>
        <time>2022-06-17T14:03:41.000Z</time>
      </trkpt>
      <trkpt lat="49.85311" lon="4.81602">
        <ele>378</ele>
        <time>2022-06-17T14:03:42.000Z</time>
      </trkpt>
      <trkpt lat="49.85314" lon="4.81602">
        <ele>378</ele>
        <time>2022-06-17T14:03:43.000Z</time>
      </trkpt>
      <trkpt lat="49.85317" lon="4.81603">
        <ele>378</ele>
        <time>2022-06-17T14:03:44.000Z</time>
      </trkpt>
      <trkpt lat="49.85321" lon="4.81605">
        <ele>378</ele>
        <time>2022-06-17T14:03:45.000Z</time>
      </trkpt>
      <trkpt lat="49.85324" lon="4.81609">
        <ele>378</ele>
        <time>2022-06-17T14:03:46.000Z</time>
      </trkpt>
      <trkpt lat="49.85328" lon="4.81613">
        <ele>379</ele>
        <time>2022-06-17T14:03:47.000Z</time>
      </trkpt>
      <trkpt lat="49.85332" lon="4.81617">
        <ele>379</ele>
        <time>2022-06-17T14:03:48.000Z</time>
      </trkpt>
      <trkpt lat="49.85335" lon="4.81622">
        <ele>379</ele>
        <time>2022-06-17T14:03:49.000Z</time>
      </trkpt>
      <trkpt lat="49.85339" lon="4.81627">
        <ele>379</ele>
        <time>2022-06-17T14:03:50.000Z</time>
      </trkpt>
      <trkpt lat="49.85343" lon="4.81631">
        <ele>379</ele>
        <time>2022-06-17T14:03:51.000Z</time>
      </trkpt>
      <trkpt lat="49.85347" lon="4.81635">
        <ele>379</ele>
        <time>2022-06-17T14:03:52.000Z</time>
      </trkpt>
      <trkpt lat="49.85351" lon="4.81639">
        <ele>379</ele>
        <time>2022-06-17T14:03:53.000Z</time>
      </trkpt>
      <trkpt lat="49.85355" lon="4.81643">
        <ele>379</ele>
        <time>2022-06-17T14:03:54.000Z</time>
      </trkpt>
      <trkpt lat="49.85359" lon="4.81645">
        <ele>379</ele>
        <time>2022-06-17T14:03:55.000Z</time>
      </trkpt>
      <trkpt lat="49.85363" lon="4.81648">
        <ele>379</ele>
        <time>2022-06-17T14:03:56.000Z</time>
      </trkpt>
      <trkpt lat="49.85367" lon="4.8165">
        <ele>379</ele>
        <time>2022-06-17T14:03:57.000Z</time>
      </trkpt>
      <trkpt lat="49.85371" lon="4.81653">
        <ele>379</ele>
        <time>2022-06-17T14:03:58.000Z</time>
      </trkpt>
      <trkpt lat="49.85376" lon="4.81656">
        <ele>379</ele>
        <time>2022-06-17T14:03:59.000Z</time>
      </trkpt>
      <trkpt lat="49.8538" lon="4.81659">
        <ele>379</ele>
        <time>2022-06-17T14:04:00.000Z</time>
      </trkpt>
      <trkpt lat="49.85385" lon="4.81661">
        <ele>379</ele>
        <time>2022-06-17T14:04:01.000Z</time>
      </trkpt>
      <trkpt lat="49.85389" lon="4.81662">
        <ele>379</ele>
        <time>2022-06-17T14:04:02.000Z</time>
      </trkpt>
      <trkpt lat="49.85394" lon="4.81664">
        <ele>379</ele>
        <time>2022-06-17T14:04:03.000Z</time>
      </trkpt>
      <trkpt lat="49.85399" lon="4.81665">
        <ele>379</ele>
        <time>2022-06-17T14:04:04.000Z</time>
      </trkpt>
      <trkpt lat="49.85404" lon="4.81665">
        <ele>379</ele>
        <time>2022-06-17T14:04:05.000Z</time>
      </trkpt>
      <trkpt lat="49.85409" lon="4.81665">
        <ele>379</ele>
        <time>2022-06-17T14:04:06.000Z</time>
      </trkpt>
      <trkpt lat="49.85415" lon="4.81665">
        <ele>379</ele>
        <time>2022-06-17T14:04:07.000Z</time>
      </trkpt>
      <trkpt lat="49.8542" lon="4.81666">
        <ele>379</ele>
        <time>2022-06-17T14:04:08.000Z</time>
      </trkpt>
      <trkpt lat="49.85425" lon="4.81666">
        <ele>379</ele>
        <time>2022-06-17T14:04:09.000Z</time>
      </trkpt>
      <trkpt lat="49.8543" lon="4.81666">
        <ele>379</ele>
        <time>2022-06-17T14:04:10.000Z</time>
      </trkpt>
      <trkpt lat="49.85435" lon="4.81666">
        <ele>379</ele>
        <time>2022-06-17T14:04:11.000Z</time>
      </trkpt>
      <trkpt lat="49.8544" lon="4.81665">
        <ele>379</ele>
        <time>2022-06-17T14:04:12.000Z</time>
      </trkpt>
      <trkpt lat="49.85445" lon="4.81664">
        <ele>379</ele>
        <time>2022-06-17T14:04:13.000Z</time>
      </trkpt>
      <trkpt lat="49.85449" lon="4.81663">
        <ele>378</ele>
        <time>2022-06-17T14:04:14.000Z</time>
      </trkpt>
      <trkpt lat="49.85455" lon="4.81662">
        <ele>378</ele>
        <time>2022-06-17T14:04:15.000Z</time>
      </trkpt>
      <trkpt lat="49.8546" lon="4.81662">
        <ele>378</ele>
        <time>2022-06-17T14:04:16.000Z</time>
      </trkpt>
      <trkpt lat="49.85466" lon="4.81662">
        <ele>378</ele>
        <time>2022-06-17T14:04:17.000Z</time>
      </trkpt>
      <trkpt lat="49.85471" lon="4.81662">
        <ele>378</ele>
        <time>2022-06-17T14:04:18.000Z</time>
      </trkpt>
      <trkpt lat="49.85477" lon="4.81661">
        <ele>377</ele>
        <time>2022-06-17T14:04:19.000Z</time>
      </trkpt>
      <trkpt lat="49.85482" lon="4.8166">
        <ele>377</ele>
        <time>2022-06-17T14:04:20.000Z</time>
      </trkpt>
      <trkpt lat="49.85488" lon="4.81658">
        <ele>377</ele>
        <time>2022-06-17T14:04:21.000Z</time>
      </trkpt>
      <trkpt lat="49.85493" lon="4.81655">
        <ele>376</ele>
        <time>2022-06-17T14:04:22.000Z</time>
      </trkpt>
      <trkpt lat="49.85498" lon="4.81654">
        <ele>376</ele>
        <time>2022-06-17T14:04:23.000Z</time>
      </trkpt>
      <trkpt lat="49.85502" lon="4.81652">
        <ele>375</ele>
        <time>2022-06-17T14:04:24.000Z</time>
      </trkpt>
      <trkpt lat="49.85506" lon="4.8165">
        <ele>375</ele>
        <time>2022-06-17T14:04:25.000Z</time>
      </trkpt>
      <trkpt lat="49.8551" lon="4.81648">
        <ele>375</ele>
        <time>2022-06-17T14:04:26.000Z</time>
      </trkpt>
      <trkpt lat="49.85515" lon="4.81646">
        <ele>374</ele>
        <time>2022-06-17T14:04:27.000Z</time>
      </trkpt>
      <trkpt lat="49.85519" lon="4.81644">
        <ele>374</ele>
        <time>2022-06-17T14:04:28.000Z</time>
      </trkpt>
      <trkpt lat="49.85523" lon="4.81642">
        <ele>373</ele>
        <time>2022-06-17T14:04:29.000Z</time>
      </trkpt>
      <trkpt lat="49.85527" lon="4.8164">
        <ele>373</ele>
        <time>2022-06-17T14:04:30.000Z</time>
      </trkpt>
      <trkpt lat="49.85531" lon="4.81639">
        <ele>373</ele>
        <time>2022-06-17T14:04:31.000Z</time>
      </trkpt>
      <trkpt lat="49.85534" lon="4.81636">
        <ele>372</ele>
        <time>2022-06-17T14:04:32.000Z</time>
      </trkpt>
      <trkpt lat="49.85538" lon="4.81635">
        <ele>372</ele>
        <time>2022-06-17T14:04:33.000Z</time>
      </trkpt>
      <trkpt lat="49.85543" lon="4.81633">
        <ele>371</ele>
        <time>2022-06-17T14:04:34.000Z</time>
      </trkpt>
      <trkpt lat="49.85548" lon="4.81632">
        <ele>371</ele>
        <time>2022-06-17T14:04:35.000Z</time>
      </trkpt>
      <trkpt lat="49.85553" lon="4.81631">
        <ele>370</ele>
        <time>2022-06-17T14:04:36.000Z</time>
      </trkpt>
      <trkpt lat="49.85559" lon="4.8163">
        <ele>370</ele>
        <time>2022-06-17T14:04:37.000Z</time>
      </trkpt>
      <trkpt lat="49.85564" lon="4.81629">
        <ele>369</ele>
        <time>2022-06-17T14:04:38.000Z</time>
      </trkpt>
      <trkpt lat="49.8557" lon="4.81628">
        <ele>369</ele>
        <time>2022-06-17T14:04:39.000Z</time>
      </trkpt>
      <trkpt lat="49.85576" lon="4.81627">
        <ele>368</ele>
        <time>2022-06-17T14:04:40.000Z</time>
      </trkpt>
      <trkpt lat="49.85582" lon="4.81625">
        <ele>367</ele>
        <time>2022-06-17T14:04:41.000Z</time>
      </trkpt>
      <trkpt lat="49.85588" lon="4.81624">
        <ele>367</ele>
        <time>2022-06-17T14:04:42.000Z</time>
      </trkpt>
      <trkpt lat="49.85595" lon="4.81622">
        <ele>366</ele>
        <time>2022-06-17T14:04:43.000Z</time>
      </trkpt>
      <trkpt lat="49.85601" lon="4.81621">
        <ele>365</ele>
        <time>2022-06-17T14:04:44.000Z</time>
      </trkpt>
      <trkpt lat="49.85607" lon="4.81621">
        <ele>365</ele>
        <time>2022-06-17T14:04:45.000Z</time>
      </trkpt>
      <trkpt lat="49.85612" lon="4.8162">
        <ele>364</ele>
        <time>2022-06-17T14:04:46.000Z</time>
      </trkpt>
      <trkpt lat="49.85618" lon="4.81619">
        <ele>364</ele>
        <time>2022-06-17T14:04:47.000Z</time>
      </trkpt>
      <trkpt lat="49.85624" lon="4.81618">
        <ele>363</ele>
        <time>2022-06-17T14:04:48.000Z</time>
      </trkpt>
      <trkpt lat="49.85629" lon="4.81618">
        <ele>363</ele>
        <time>2022-06-17T14:04:49.000Z</time>
      </trkpt>
      <trkpt lat="49.85634" lon="4.81617">
        <ele>362</ele>
        <time>2022-06-17T14:04:50.000Z</time>
      </trkpt>
      <trkpt lat="49.85638" lon="4.81617">
        <ele>362</ele>
        <time>2022-06-17T14:04:51.000Z</time>
      </trkpt>
      <trkpt lat="49.85642" lon="4.81616">
        <ele>361</ele>
        <time>2022-06-17T14:04:52.000Z</time>
      </trkpt>
      <trkpt lat="49.85645" lon="4.81616">
        <ele>361</ele>
        <time>2022-06-17T14:04:53.000Z</time>
      </trkpt>
      <trkpt lat="49.85649" lon="4.81616">
        <ele>361</ele>
        <time>2022-06-17T14:04:54.000Z</time>
      </trkpt>
      <trkpt lat="49.85652" lon="4.81616">
        <ele>361</ele>
        <time>2022-06-17T14:04:55.000Z</time>
      </trkpt>
      <trkpt lat="49.85656" lon="4.81615">
        <ele>360</ele>
        <time>2022-06-17T14:04:56.000Z</time>
      </trkpt>
      <trkpt lat="49.8566" lon="4.81615">
        <ele>360</ele>
        <time>2022-06-17T14:04:57.000Z</time>
      </trkpt>
      <trkpt lat="49.85663" lon="4.81615">
        <ele>360</ele>
        <time>2022-06-17T14:04:58.000Z</time>
      </trkpt>
      <trkpt lat="49.85667" lon="4.81615">
        <ele>360</ele>
        <time>2022-06-17T14:04:59.000Z</time>
      </trkpt>
      <trkpt lat="49.8567" lon="4.81615">
        <ele>360</ele>
        <time>2022-06-17T14:05:00.000Z</time>
      </trkpt>
      <trkpt lat="49.85674" lon="4.81616">
        <ele>360</ele>
        <time>2022-06-17T14:05:01.000Z</time>
      </trkpt>
      <trkpt lat="49.85678" lon="4.81615">
        <ele>360</ele>
        <time>2022-06-17T14:05:02.000Z</time>
      </trkpt>
      <trkpt lat="49.85681" lon="4.81615">
        <ele>360</ele>
        <time>2022-06-17T14:05:03.000Z</time>
      </trkpt>
      <trkpt lat="49.85685" lon="4.81614">
        <ele>359</ele>
        <time>2022-06-17T14:05:04.000Z</time>
      </trkpt>
      <trkpt lat="49.8569" lon="4.81613">
        <ele>359</ele>
        <time>2022-06-17T14:05:05.000Z</time>
      </trkpt>
      <trkpt lat="49.85695" lon="4.81613">
        <ele>359</ele>
        <time>2022-06-17T14:05:06.000Z</time>
      </trkpt>
      <trkpt lat="49.857" lon="4.81611">
        <ele>359</ele>
        <time>2022-06-17T14:05:07.000Z</time>
      </trkpt>
      <trkpt lat="49.85704" lon="4.8161">
        <ele>359</ele>
        <time>2022-06-17T14:05:08.000Z</time>
      </trkpt>
      <trkpt lat="49.85709" lon="4.81609">
        <ele>359</ele>
        <time>2022-06-17T14:05:09.000Z</time>
      </trkpt>
      <trkpt lat="49.85713" lon="4.81608">
        <ele>359</ele>
        <time>2022-06-17T14:05:10.000Z</time>
      </trkpt>
      <trkpt lat="49.85717" lon="4.81607">
        <ele>359</ele>
        <time>2022-06-17T14:05:11.000Z</time>
      </trkpt>
      <trkpt lat="49.85721" lon="4.81606">
        <ele>359</ele>
        <time>2022-06-17T14:05:12.000Z</time>
      </trkpt>
      <trkpt lat="49.85725" lon="4.81604">
        <ele>359</ele>
        <time>2022-06-17T14:05:13.000Z</time>
      </trkpt>
      <trkpt lat="49.8573" lon="4.81603">
        <ele>359</ele>
        <time>2022-06-17T14:05:14.000Z</time>
      </trkpt>
      <trkpt lat="49.85735" lon="4.81601">
        <ele>358</ele>
        <time>2022-06-17T14:05:15.000Z</time>
      </trkpt>
      <trkpt lat="49.8574" lon="4.81601">
        <ele>358</ele>
        <time>2022-06-17T14:05:16.000Z</time>
      </trkpt>
      <trkpt lat="49.85745" lon="4.816">
        <ele>358</ele>
        <time>2022-06-17T14:05:17.000Z</time>
      </trkpt>
      <trkpt lat="49.8575" lon="4.81601">
        <ele>357</ele>
        <time>2022-06-17T14:05:18.000Z</time>
      </trkpt>
      <trkpt lat="49.85755" lon="4.81601">
        <ele>357</ele>
        <time>2022-06-17T14:05:19.000Z</time>
      </trkpt>
      <trkpt lat="49.8576" lon="4.81602">
        <ele>357</ele>
        <time>2022-06-17T14:05:20.000Z</time>
      </trkpt>
      <trkpt lat="49.85765" lon="4.81603">
        <ele>357</ele>
        <time>2022-06-17T14:05:21.000Z</time>
      </trkpt>
      <trkpt lat="49.8577" lon="4.81603">
        <ele>356</ele>
        <time>2022-06-17T14:05:22.000Z</time>
      </trkpt>
      <trkpt lat="49.85776" lon="4.81604">
        <ele>356</ele>
        <time>2022-06-17T14:05:23.000Z</time>
      </trkpt>
      <trkpt lat="49.85781" lon="4.81605">
        <ele>356</ele>
        <time>2022-06-17T14:05:24.000Z</time>
      </trkpt>
      <trkpt lat="49.85785" lon="4.81606">
        <ele>355</ele>
        <time>2022-06-17T14:05:25.000Z</time>
      </trkpt>
      <trkpt lat="49.8579" lon="4.81607">
        <ele>355</ele>
        <time>2022-06-17T14:05:26.000Z</time>
      </trkpt>
      <trkpt lat="49.85794" lon="4.8161">
        <ele>355</ele>
        <time>2022-06-17T14:05:27.000Z</time>
      </trkpt>
      <trkpt lat="49.85798" lon="4.81612">
        <ele>355</ele>
        <time>2022-06-17T14:05:28.000Z</time>
      </trkpt>
      <trkpt lat="49.85802" lon="4.81614">
        <ele>354</ele>
        <time>2022-06-17T14:05:29.000Z</time>
      </trkpt>
      <trkpt lat="49.85806" lon="4.81615">
        <ele>354</ele>
        <time>2022-06-17T14:05:30.000Z</time>
      </trkpt>
      <trkpt lat="49.8581" lon="4.81616">
        <ele>354</ele>
        <time>2022-06-17T14:05:31.000Z</time>
      </trkpt>
      <trkpt lat="49.85814" lon="4.81617">
        <ele>354</ele>
        <time>2022-06-17T14:05:32.000Z</time>
      </trkpt>
      <trkpt lat="49.85817" lon="4.81617">
        <ele>354</ele>
        <time>2022-06-17T14:05:33.000Z</time>
      </trkpt>
      <trkpt lat="49.85821" lon="4.81617">
        <ele>354</ele>
        <time>2022-06-17T14:05:34.000Z</time>
      </trkpt>
      <trkpt lat="49.85824" lon="4.81617">
        <ele>354</ele>
        <time>2022-06-17T14:05:35.000Z</time>
      </trkpt>
      <trkpt lat="49.85828" lon="4.81616">
        <ele>353</ele>
        <time>2022-06-17T14:05:36.000Z</time>
      </trkpt>
      <trkpt lat="49.85832" lon="4.81616">
        <ele>353</ele>
        <time>2022-06-17T14:05:37.000Z</time>
      </trkpt>
      <trkpt lat="49.85835" lon="4.81616">
        <ele>353</ele>
        <time>2022-06-17T14:05:38.000Z</time>
      </trkpt>
      <trkpt lat="49.85839" lon="4.81615">
        <ele>353</ele>
        <time>2022-06-17T14:05:39.000Z</time>
      </trkpt>
      <trkpt lat="49.85843" lon="4.81614">
        <ele>353</ele>
        <time>2022-06-17T14:05:40.000Z</time>
      </trkpt>
      <trkpt lat="49.85848" lon="4.81613">
        <ele>353</ele>
        <time>2022-06-17T14:05:41.000Z</time>
      </trkpt>
      <trkpt lat="49.85852" lon="4.81611">
        <ele>353</ele>
        <time>2022-06-17T14:05:42.000Z</time>
      </trkpt>
      <trkpt lat="49.85856" lon="4.81609">
        <ele>353</ele>
        <time>2022-06-17T14:05:43.000Z</time>
      </trkpt>
      <trkpt lat="49.8586" lon="4.81607">
        <ele>352</ele>
        <time>2022-06-17T14:05:44.000Z</time>
      </trkpt>
      <trkpt lat="49.85865" lon="4.81606">
        <ele>352</ele>
        <time>2022-06-17T14:05:45.000Z</time>
      </trkpt>
      <trkpt lat="49.85869" lon="4.81605">
        <ele>352</ele>
        <time>2022-06-17T14:05:46.000Z</time>
      </trkpt>
      <trkpt lat="49.85873" lon="4.81603">
        <ele>352</ele>
        <time>2022-06-17T14:05:47.000Z</time>
      </trkpt>
      <trkpt lat="49.85877" lon="4.81603">
        <ele>352</ele>
        <time>2022-06-17T14:05:48.000Z</time>
      </trkpt>
      <trkpt lat="49.85882" lon="4.81602">
        <ele>352</ele>
        <time>2022-06-17T14:05:49.000Z</time>
      </trkpt>
      <trkpt lat="49.85886" lon="4.81601">
        <ele>352</ele>
        <time>2022-06-17T14:05:50.000Z</time>
      </trkpt>
      <trkpt lat="49.8589" lon="4.81601">
        <ele>352</ele>
        <time>2022-06-17T14:05:51.000Z</time>
      </trkpt>
      <trkpt lat="49.85894" lon="4.81601">
        <ele>352</ele>
        <time>2022-06-17T14:05:52.000Z</time>
      </trkpt>
      <trkpt lat="49.85899" lon="4.81601">
        <ele>352</ele>
        <time>2022-06-17T14:05:53.000Z</time>
      </trkpt>
      <trkpt lat="49.85903" lon="4.81601">
        <ele>352</ele>
        <time>2022-06-17T14:05:54.000Z</time>
      </trkpt>
      <trkpt lat="49.85907" lon="4.81602">
        <ele>352</ele>
        <time>2022-06-17T14:05:55.000Z</time>
      </trkpt>
      <trkpt lat="49.85911" lon="4.81603">
        <ele>352</ele>
        <time>2022-06-17T14:05:56.000Z</time>
      </trkpt>
      <trkpt lat="49.85915" lon="4.81603">
        <ele>353</ele>
        <time>2022-06-17T14:05:57.000Z</time>
      </trkpt>
      <trkpt lat="49.85919" lon="4.81604">
        <ele>353</ele>
        <time>2022-06-17T14:05:58.000Z</time>
      </trkpt>
      <trkpt lat="49.85923" lon="4.81605">
        <ele>353</ele>
        <time>2022-06-17T14:05:59.000Z</time>
      </trkpt>
      <trkpt lat="49.85928" lon="4.81606">
        <ele>353</ele>
        <time>2022-06-17T14:06:00.000Z</time>
      </trkpt>
      <trkpt lat="49.85932" lon="4.81608">
        <ele>353</ele>
        <time>2022-06-17T14:06:01.000Z</time>
      </trkpt>
      <trkpt lat="49.85936" lon="4.81609">
        <ele>353</ele>
        <time>2022-06-17T14:06:02.000Z</time>
      </trkpt>
      <trkpt lat="49.8594" lon="4.81611">
        <ele>353</ele>
        <time>2022-06-17T14:06:03.000Z</time>
      </trkpt>
      <trkpt lat="49.85944" lon="4.81613">
        <ele>353</ele>
        <time>2022-06-17T14:06:04.000Z</time>
      </trkpt>
      <trkpt lat="49.85949" lon="4.81615">
        <ele>353</ele>
        <time>2022-06-17T14:06:05.000Z</time>
      </trkpt>
      <trkpt lat="49.85953" lon="4.81617">
        <ele>353</ele>
        <time>2022-06-17T14:06:06.000Z</time>
      </trkpt>
      <trkpt lat="49.85957" lon="4.81619">
        <ele>353</ele>
        <time>2022-06-17T14:06:07.000Z</time>
      </trkpt>
      <trkpt lat="49.85962" lon="4.8162">
        <ele>353</ele>
        <time>2022-06-17T14:06:08.000Z</time>
      </trkpt>
      <trkpt lat="49.85966" lon="4.81622">
        <ele>353</ele>
        <time>2022-06-17T14:06:09.000Z</time>
      </trkpt>
      <trkpt lat="49.85969" lon="4.81624">
        <ele>353</ele>
        <time>2022-06-17T14:06:10.000Z</time>
      </trkpt>
      <trkpt lat="49.85973" lon="4.81626">
        <ele>354</ele>
        <time>2022-06-17T14:06:11.000Z</time>
      </trkpt>
      <trkpt lat="49.85977" lon="4.81627">
        <ele>354</ele>
        <time>2022-06-17T14:06:12.000Z</time>
      </trkpt>
      <trkpt lat="49.85981" lon="4.81629">
        <ele>354</ele>
        <time>2022-06-17T14:06:13.000Z</time>
      </trkpt>
      <trkpt lat="49.85986" lon="4.81631">
        <ele>354</ele>
        <time>2022-06-17T14:06:14.000Z</time>
      </trkpt>
      <trkpt lat="49.8599" lon="4.81633">
        <ele>354</ele>
        <time>2022-06-17T14:06:15.000Z</time>
      </trkpt>
      <trkpt lat="49.85994" lon="4.81635">
        <ele>355</ele>
        <time>2022-06-17T14:06:16.000Z</time>
      </trkpt>
      <trkpt lat="49.85999" lon="4.81637">
        <ele>355</ele>
        <time>2022-06-17T14:06:17.000Z</time>
      </trkpt>
      <trkpt lat="49.86003" lon="4.8164">
        <ele>355</ele>
        <time>2022-06-17T14:06:18.000Z</time>
      </trkpt>
      <trkpt lat="49.86007" lon="4.81641">
        <ele>355</ele>
        <time>2022-06-17T14:06:19.000Z</time>
      </trkpt>
      <trkpt lat="49.86011" lon="4.81643">
        <ele>355</ele>
        <time>2022-06-17T14:06:20.000Z</time>
      </trkpt>
      <trkpt lat="49.86016" lon="4.81646">
        <ele>355</ele>
        <time>2022-06-17T14:06:21.000Z</time>
      </trkpt>
      <trkpt lat="49.8602" lon="4.81648">
        <ele>355</ele>
        <time>2022-06-17T14:06:22.000Z</time>
      </trkpt>
      <trkpt lat="49.86024" lon="4.8165">
        <ele>355</ele>
        <time>2022-06-17T14:06:23.000Z</time>
      </trkpt>
      <trkpt lat="49.86027" lon="4.81652">
        <ele>355</ele>
        <time>2022-06-17T14:06:24.000Z</time>
      </trkpt>
      <trkpt lat="49.86031" lon="4.81654">
        <ele>355</ele>
        <time>2022-06-17T14:06:25.000Z</time>
      </trkpt>
      <trkpt lat="49.86035" lon="4.81656">
        <ele>355</ele>
        <time>2022-06-17T14:06:26.000Z</time>
      </trkpt>
      <trkpt lat="49.86039" lon="4.81658">
        <ele>355</ele>
        <time>2022-06-17T14:06:27.000Z</time>
      </trkpt>
      <trkpt lat="49.86043" lon="4.8166">
        <ele>355</ele>
        <time>2022-06-17T14:06:28.000Z</time>
      </trkpt>
      <trkpt lat="49.86047" lon="4.81663">
        <ele>355</ele>
        <time>2022-06-17T14:06:29.000Z</time>
      </trkpt>
      <trkpt lat="49.8605" lon="4.81666">
        <ele>355</ele>
        <time>2022-06-17T14:06:30.000Z</time>
      </trkpt>
      <trkpt lat="49.86054" lon="4.81668">
        <ele>355</ele>
        <time>2022-06-17T14:06:31.000Z</time>
      </trkpt>
      <trkpt lat="49.86058" lon="4.81671">
        <ele>355</ele>
        <time>2022-06-17T14:06:32.000Z</time>
      </trkpt>
      <trkpt lat="49.86061" lon="4.81674">
        <ele>355</ele>
        <time>2022-06-17T14:06:33.000Z</time>
      </trkpt>
      <trkpt lat="49.86064" lon="4.81678">
        <ele>355</ele>
        <time>2022-06-17T14:06:34.000Z</time>
      </trkpt>
      <trkpt lat="49.86068" lon="4.81681">
        <ele>355</ele>
        <time>2022-06-17T14:06:35.000Z</time>
      </trkpt>
      <trkpt lat="49.86071" lon="4.81684">
        <ele>355</ele>
        <time>2022-06-17T14:06:36.000Z</time>
      </trkpt>
      <trkpt lat="49.86075" lon="4.81688">
        <ele>355</ele>
        <time>2022-06-17T14:06:37.000Z</time>
      </trkpt>
      <trkpt lat="49.86078" lon="4.81691">
        <ele>355</ele>
        <time>2022-06-17T14:06:38.000Z</time>
      </trkpt>
      <trkpt lat="49.86081" lon="4.81694">
        <ele>355</ele>
        <time>2022-06-17T14:06:39.000Z</time>
      </trkpt>
      <trkpt lat="49.86085" lon="4.81697">
        <ele>355</ele>
        <time>2022-06-17T14:06:40.000Z</time>
      </trkpt>
      <trkpt lat="49.86088" lon="4.81701">
        <ele>355</ele>
        <time>2022-06-17T14:06:41.000Z</time>
      </trkpt>
      <trkpt lat="49.86092" lon="4.81704">
        <ele>355</ele>
        <time>2022-06-17T14:06:42.000Z</time>
      </trkpt>
      <trkpt lat="49.86095" lon="4.81708">
        <ele>355</ele>
        <time>2022-06-17T14:06:43.000Z</time>
      </trkpt>
      <trkpt lat="49.86099" lon="4.81711">
        <ele>355</ele>
        <time>2022-06-17T14:06:44.000Z</time>
      </trkpt>
      <trkpt lat="49.86103" lon="4.81715">
        <ele>355</ele>
        <time>2022-06-17T14:06:45.000Z</time>
      </trkpt>
      <trkpt lat="49.86106" lon="4.81718">
        <ele>355</ele>
        <time>2022-06-17T14:06:46.000Z</time>
      </trkpt>
      <trkpt lat="49.8611" lon="4.81722">
        <ele>355</ele>
        <time>2022-06-17T14:06:47.000Z</time>
      </trkpt>
      <trkpt lat="49.86113" lon="4.81725">
        <ele>355</ele>
        <time>2022-06-17T14:06:48.000Z</time>
      </trkpt>
      <trkpt lat="49.86116" lon="4.81729">
        <ele>355</ele>
        <time>2022-06-17T14:06:49.000Z</time>
      </trkpt>
      <trkpt lat="49.8612" lon="4.81732">
        <ele>355</ele>
        <time>2022-06-17T14:06:50.000Z</time>
      </trkpt>
      <trkpt lat="49.86123" lon="4.81735">
        <ele>355</ele>
        <time>2022-06-17T14:06:51.000Z</time>
      </trkpt>
      <trkpt lat="49.86126" lon="4.81737">
        <ele>355</ele>
        <time>2022-06-17T14:06:52.000Z</time>
      </trkpt>
      <trkpt lat="49.86129" lon="4.81739">
        <ele>355</ele>
        <time>2022-06-17T14:06:53.000Z</time>
      </trkpt>
      <trkpt lat="49.86133" lon="4.81741">
        <ele>355</ele>
        <time>2022-06-17T14:06:54.000Z</time>
      </trkpt>
      <trkpt lat="49.86136" lon="4.81744">
        <ele>355</ele>
        <time>2022-06-17T14:06:55.000Z</time>
      </trkpt>
      <trkpt lat="49.8614" lon="4.81747">
        <ele>355</ele>
        <time>2022-06-17T14:06:56.000Z</time>
      </trkpt>
      <trkpt lat="49.86144" lon="4.8175">
        <ele>355</ele>
        <time>2022-06-17T14:06:57.000Z</time>
      </trkpt>
      <trkpt lat="49.86147" lon="4.81754">
        <ele>355</ele>
        <time>2022-06-17T14:06:58.000Z</time>
      </trkpt>
      <trkpt lat="49.86151" lon="4.81758">
        <ele>355</ele>
        <time>2022-06-17T14:06:59.000Z</time>
      </trkpt>
      <trkpt lat="49.86155" lon="4.81761">
        <ele>355</ele>
        <time>2022-06-17T14:07:00.000Z</time>
      </trkpt>
      <trkpt lat="49.86158" lon="4.81765">
        <ele>355</ele>
        <time>2022-06-17T14:07:01.000Z</time>
      </trkpt>
      <trkpt lat="49.86162" lon="4.81768">
        <ele>355</ele>
        <time>2022-06-17T14:07:02.000Z</time>
      </trkpt>
      <trkpt lat="49.86165" lon="4.81772">
        <ele>355</ele>
        <time>2022-06-17T14:07:03.000Z</time>
      </trkpt>
      <trkpt lat="49.86168" lon="4.81775">
        <ele>355</ele>
        <time>2022-06-17T14:07:04.000Z</time>
      </trkpt>
      <trkpt lat="49.86172" lon="4.81778">
        <ele>355</ele>
        <time>2022-06-17T14:07:05.000Z</time>
      </trkpt>
      <trkpt lat="49.86176" lon="4.81781">
        <ele>355</ele>
        <time>2022-06-17T14:07:06.000Z</time>
      </trkpt>
      <trkpt lat="49.86179" lon="4.81784">
        <ele>354</ele>
        <time>2022-06-17T14:07:07.000Z</time>
      </trkpt>
      <trkpt lat="49.86183" lon="4.81786">
        <ele>354</ele>
        <time>2022-06-17T14:07:08.000Z</time>
      </trkpt>
      <trkpt lat="49.86187" lon="4.81789">
        <ele>354</ele>
        <time>2022-06-17T14:07:09.000Z</time>
      </trkpt>
      <trkpt lat="49.86191" lon="4.81791">
        <ele>354</ele>
        <time>2022-06-17T14:07:10.000Z</time>
      </trkpt>
      <trkpt lat="49.86195" lon="4.81793">
        <ele>355</ele>
        <time>2022-06-17T14:07:11.000Z</time>
      </trkpt>
      <trkpt lat="49.86199" lon="4.81795">
        <ele>355</ele>
        <time>2022-06-17T14:07:12.000Z</time>
      </trkpt>
      <trkpt lat="49.86203" lon="4.81797">
        <ele>355</ele>
        <time>2022-06-17T14:07:13.000Z</time>
      </trkpt>
      <trkpt lat="49.86207" lon="4.81799">
        <ele>355</ele>
        <time>2022-06-17T14:07:14.000Z</time>
      </trkpt>
      <trkpt lat="49.86211" lon="4.81802">
        <ele>355</ele>
        <time>2022-06-17T14:07:15.000Z</time>
      </trkpt>
      <trkpt lat="49.86215" lon="4.81804">
        <ele>355</ele>
        <time>2022-06-17T14:07:16.000Z</time>
      </trkpt>
      <trkpt lat="49.8622" lon="4.81806">
        <ele>355</ele>
        <time>2022-06-17T14:07:17.000Z</time>
      </trkpt>
      <trkpt lat="49.86224" lon="4.81808">
        <ele>355</ele>
        <time>2022-06-17T14:07:18.000Z</time>
      </trkpt>
      <trkpt lat="49.86229" lon="4.8181">
        <ele>355</ele>
        <time>2022-06-17T14:07:19.000Z</time>
      </trkpt>
      <trkpt lat="49.86233" lon="4.81811">
        <ele>355</ele>
        <time>2022-06-17T14:07:20.000Z</time>
      </trkpt>
      <trkpt lat="49.86237" lon="4.81812">
        <ele>355</ele>
        <time>2022-06-17T14:07:21.000Z</time>
      </trkpt>
      <trkpt lat="49.86241" lon="4.81814">
        <ele>355</ele>
        <time>2022-06-17T14:07:22.000Z</time>
      </trkpt>
      <trkpt lat="49.86244" lon="4.81815">
        <ele>355</ele>
        <time>2022-06-17T14:07:23.000Z</time>
      </trkpt>
      <trkpt lat="49.86248" lon="4.81816">
        <ele>355</ele>
        <time>2022-06-17T14:07:24.000Z</time>
      </trkpt>
      <trkpt lat="49.86252" lon="4.81818">
        <ele>354</ele>
        <time>2022-06-17T14:07:25.000Z</time>
      </trkpt>
      <trkpt lat="49.86256" lon="4.81819">
        <ele>354</ele>
        <time>2022-06-17T14:07:26.000Z</time>
      </trkpt>
      <trkpt lat="49.86259" lon="4.81821">
        <ele>354</ele>
        <time>2022-06-17T14:07:27.000Z</time>
      </trkpt>
      <trkpt lat="49.86263" lon="4.81822">
        <ele>354</ele>
        <time>2022-06-17T14:07:28.000Z</time>
      </trkpt>
      <trkpt lat="49.86267" lon="4.81823">
        <ele>354</ele>
        <time>2022-06-17T14:07:29.000Z</time>
      </trkpt>
      <trkpt lat="49.86271" lon="4.81824">
        <ele>354</ele>
        <time>2022-06-17T14:07:30.000Z</time>
      </trkpt>
      <trkpt lat="49.86275" lon="4.81826">
        <ele>354</ele>
        <time>2022-06-17T14:07:31.000Z</time>
      </trkpt>
      <trkpt lat="49.86279" lon="4.81827">
        <ele>354</ele>
        <time>2022-06-17T14:07:32.000Z</time>
      </trkpt>
      <trkpt lat="49.86283" lon="4.81829">
        <ele>354</ele>
        <time>2022-06-17T14:07:33.000Z</time>
      </trkpt>
      <trkpt lat="49.86287" lon="4.8183">
        <ele>354</ele>
        <time>2022-06-17T14:07:34.000Z</time>
      </trkpt>
      <trkpt lat="49.86292" lon="4.81832">
        <ele>354</ele>
        <time>2022-06-17T14:07:35.000Z</time>
      </trkpt>
      <trkpt lat="49.86296" lon="4.81833">
        <ele>354</ele>
        <time>2022-06-17T14:07:36.000Z</time>
      </trkpt>
      <trkpt lat="49.863" lon="4.81835">
        <ele>354</ele>
        <time>2022-06-17T14:07:37.000Z</time>
      </trkpt>
      <trkpt lat="49.86304" lon="4.81836">
        <ele>354</ele>
        <time>2022-06-17T14:07:38.000Z</time>
      </trkpt>
      <trkpt lat="49.86308" lon="4.81837">
        <ele>354</ele>
        <time>2022-06-17T14:07:39.000Z</time>
      </trkpt>
      <trkpt lat="49.86313" lon="4.81839">
        <ele>354</ele>
        <time>2022-06-17T14:07:40.000Z</time>
      </trkpt>
      <trkpt lat="49.86317" lon="4.81841">
        <ele>354</ele>
        <time>2022-06-17T14:07:41.000Z</time>
      </trkpt>
      <trkpt lat="49.86321" lon="4.81843">
        <ele>354</ele>
        <time>2022-06-17T14:07:42.000Z</time>
      </trkpt>
      <trkpt lat="49.86325" lon="4.81845">
        <ele>354</ele>
        <time>2022-06-17T14:07:43.000Z</time>
      </trkpt>
      <trkpt lat="49.86328" lon="4.81847">
        <ele>354</ele>
        <time>2022-06-17T14:07:44.000Z</time>
      </trkpt>
      <trkpt lat="49.86331" lon="4.81849">
        <ele>354</ele>
        <time>2022-06-17T14:07:45.000Z</time>
      </trkpt>
      <trkpt lat="49.86334" lon="4.81851">
        <ele>354</ele>
        <time>2022-06-17T14:07:46.000Z</time>
      </trkpt>
      <trkpt lat="49.86336" lon="4.81852">
        <ele>354</ele>
        <time>2022-06-17T14:07:47.000Z</time>
      </trkpt>
      <trkpt lat="49.86339" lon="4.81853">
        <ele>354</ele>
        <time>2022-06-17T14:07:48.000Z</time>
      </trkpt>
      <trkpt lat="49.86341" lon="4.81855">
        <ele>354</ele>
        <time>2022-06-17T14:07:49.000Z</time>
      </trkpt>
      <trkpt lat="49.86344" lon="4.81856">
        <ele>354</ele>
        <time>2022-06-17T14:07:50.000Z</time>
      </trkpt>
      <trkpt lat="49.86346" lon="4.81858">
        <ele>355</ele>
        <time>2022-06-17T14:07:51.000Z</time>
      </trkpt>
      <trkpt lat="49.86348" lon="4.81859">
        <ele>355</ele>
        <time>2022-06-17T14:07:52.000Z</time>
      </trkpt>
      <trkpt lat="49.8635" lon="4.81858">
        <ele>355</ele>
        <time>2022-06-17T14:07:53.000Z</time>
      </trkpt>
      <trkpt lat="49.86353" lon="4.81858">
        <ele>355</ele>
        <time>2022-06-17T14:07:54.000Z</time>
      </trkpt>
      <trkpt lat="49.86356" lon="4.81859">
        <ele>355</ele>
        <time>2022-06-17T14:07:55.000Z</time>
      </trkpt>
      <trkpt lat="49.8636" lon="4.8186">
        <ele>355</ele>
        <time>2022-06-17T14:07:56.000Z</time>
      </trkpt>
      <trkpt lat="49.86363" lon="4.8186">
        <ele>355</ele>
        <time>2022-06-17T14:07:57.000Z</time>
      </trkpt>
      <trkpt lat="49.86367" lon="4.81861">
        <ele>355</ele>
        <time>2022-06-17T14:07:58.000Z</time>
      </trkpt>
      <trkpt lat="49.86371" lon="4.81862">
        <ele>356</ele>
        <time>2022-06-17T14:07:59.000Z</time>
      </trkpt>
      <trkpt lat="49.86375" lon="4.81863">
        <ele>356</ele>
        <time>2022-06-17T14:08:00.000Z</time>
      </trkpt>
      <trkpt lat="49.86379" lon="4.81864">
        <ele>356</ele>
        <time>2022-06-17T14:08:01.000Z</time>
      </trkpt>
      <trkpt lat="49.86383" lon="4.81865">
        <ele>356</ele>
        <time>2022-06-17T14:08:02.000Z</time>
      </trkpt>
      <trkpt lat="49.86388" lon="4.81867">
        <ele>356</ele>
        <time>2022-06-17T14:08:03.000Z</time>
      </trkpt>
      <trkpt lat="49.86392" lon="4.81869">
        <ele>356</ele>
        <time>2022-06-17T14:08:04.000Z</time>
      </trkpt>
      <trkpt lat="49.86396" lon="4.81871">
        <ele>356</ele>
        <time>2022-06-17T14:08:05.000Z</time>
      </trkpt>
      <trkpt lat="49.86401" lon="4.81872">
        <ele>356</ele>
        <time>2022-06-17T14:08:06.000Z</time>
      </trkpt>
      <trkpt lat="49.86406" lon="4.81873">
        <ele>356</ele>
        <time>2022-06-17T14:08:07.000Z</time>
      </trkpt>
      <trkpt lat="49.8641" lon="4.81873">
        <ele>356</ele>
        <time>2022-06-17T14:08:08.000Z</time>
      </trkpt>
      <trkpt lat="49.86415" lon="4.81874">
        <ele>356</ele>
        <time>2022-06-17T14:08:09.000Z</time>
      </trkpt>
      <trkpt lat="49.8642" lon="4.81875">
        <ele>356</ele>
        <time>2022-06-17T14:08:10.000Z</time>
      </trkpt>
      <trkpt lat="49.86425" lon="4.81876">
        <ele>356</ele>
        <time>2022-06-17T14:08:11.000Z</time>
      </trkpt>
      <trkpt lat="49.8643" lon="4.81876">
        <ele>356</ele>
        <time>2022-06-17T14:08:12.000Z</time>
      </trkpt>
      <trkpt lat="49.86434" lon="4.81877">
        <ele>356</ele>
        <time>2022-06-17T14:08:13.000Z</time>
      </trkpt>
      <trkpt lat="49.86439" lon="4.81879">
        <ele>356</ele>
        <time>2022-06-17T14:08:14.000Z</time>
      </trkpt>
      <trkpt lat="49.86443" lon="4.81881">
        <ele>356</ele>
        <time>2022-06-17T14:08:15.000Z</time>
      </trkpt>
      <trkpt lat="49.86447" lon="4.81882">
        <ele>356</ele>
        <time>2022-06-17T14:08:16.000Z</time>
      </trkpt>
      <trkpt lat="49.8645" lon="4.81884">
        <ele>356</ele>
        <time>2022-06-17T14:08:17.000Z</time>
      </trkpt>
      <trkpt lat="49.86454" lon="4.81886">
        <ele>356</ele>
        <time>2022-06-17T14:08:18.000Z</time>
      </trkpt>
      <trkpt lat="49.86458" lon="4.81887">
        <ele>356</ele>
        <time>2022-06-17T14:08:19.000Z</time>
      </trkpt>
      <trkpt lat="49.86462" lon="4.81889">
        <ele>356</ele>
        <time>2022-06-17T14:08:20.000Z</time>
      </trkpt>
      <trkpt lat="49.86466" lon="4.81891">
        <ele>356</ele>
        <time>2022-06-17T14:08:21.000Z</time>
      </trkpt>
      <trkpt lat="49.8647" lon="4.81892">
        <ele>356</ele>
        <time>2022-06-17T14:08:22.000Z</time>
      </trkpt>
      <trkpt lat="49.86475" lon="4.81894">
        <ele>356</ele>
        <time>2022-06-17T14:08:23.000Z</time>
      </trkpt>
      <trkpt lat="49.86479" lon="4.81895">
        <ele>356</ele>
        <time>2022-06-17T14:08:24.000Z</time>
      </trkpt>
      <trkpt lat="49.86484" lon="4.81897">
        <ele>356</ele>
        <time>2022-06-17T14:08:25.000Z</time>
      </trkpt>
      <trkpt lat="49.86489" lon="4.81899">
        <ele>356</ele>
        <time>2022-06-17T14:08:26.000Z</time>
      </trkpt>
      <trkpt lat="49.86494" lon="4.81902">
        <ele>355</ele>
        <time>2022-06-17T14:08:27.000Z</time>
      </trkpt>
      <trkpt lat="49.86499" lon="4.81904">
        <ele>355</ele>
        <time>2022-06-17T14:08:28.000Z</time>
      </trkpt>
      <trkpt lat="49.86504" lon="4.81907">
        <ele>355</ele>
        <time>2022-06-17T14:08:29.000Z</time>
      </trkpt>
      <trkpt lat="49.86509" lon="4.8191">
        <ele>355</ele>
        <time>2022-06-17T14:08:30.000Z</time>
      </trkpt>
      <trkpt lat="49.86514" lon="4.81913">
        <ele>355</ele>
        <time>2022-06-17T14:08:31.000Z</time>
      </trkpt>
      <trkpt lat="49.8652" lon="4.81916">
        <ele>355</ele>
        <time>2022-06-17T14:08:32.000Z</time>
      </trkpt>
      <trkpt lat="49.86526" lon="4.81918">
        <ele>355</ele>
        <time>2022-06-17T14:08:33.000Z</time>
      </trkpt>
      <trkpt lat="49.86532" lon="4.81921">
        <ele>354</ele>
        <time>2022-06-17T14:08:34.000Z</time>
      </trkpt>
      <trkpt lat="49.86537" lon="4.81922">
        <ele>354</ele>
        <time>2022-06-17T14:08:35.000Z</time>
      </trkpt>
      <trkpt lat="49.86542" lon="4.81922">
        <ele>354</ele>
        <time>2022-06-17T14:08:36.000Z</time>
      </trkpt>
      <trkpt lat="49.86547" lon="4.81922">
        <ele>353</ele>
        <time>2022-06-17T14:08:37.000Z</time>
      </trkpt>
      <trkpt lat="49.86553" lon="4.81922">
        <ele>353</ele>
        <time>2022-06-17T14:08:38.000Z</time>
      </trkpt>
      <trkpt lat="49.86558" lon="4.81921">
        <ele>353</ele>
        <time>2022-06-17T14:08:39.000Z</time>
      </trkpt>
      <trkpt lat="49.86563" lon="4.81919">
        <ele>353</ele>
        <time>2022-06-17T14:08:40.000Z</time>
      </trkpt>
      <trkpt lat="49.86569" lon="4.81917">
        <ele>352</ele>
        <time>2022-06-17T14:08:41.000Z</time>
      </trkpt>
      <trkpt lat="49.86574" lon="4.81916">
        <ele>352</ele>
        <time>2022-06-17T14:08:42.000Z</time>
      </trkpt>
      <trkpt lat="49.8658" lon="4.81914">
        <ele>352</ele>
        <time>2022-06-17T14:08:43.000Z</time>
      </trkpt>
      <trkpt lat="49.86585" lon="4.81913">
        <ele>352</ele>
        <time>2022-06-17T14:08:44.000Z</time>
      </trkpt>
      <trkpt lat="49.8659" lon="4.81911">
        <ele>352</ele>
        <time>2022-06-17T14:08:45.000Z</time>
      </trkpt>
      <trkpt lat="49.86595" lon="4.8191">
        <ele>351</ele>
        <time>2022-06-17T14:08:46.000Z</time>
      </trkpt>
      <trkpt lat="49.86599" lon="4.81908">
        <ele>351</ele>
        <time>2022-06-17T14:08:47.000Z</time>
      </trkpt>
      <trkpt lat="49.86603" lon="4.81906">
        <ele>351</ele>
        <time>2022-06-17T14:08:48.000Z</time>
      </trkpt>
      <trkpt lat="49.86608" lon="4.81903">
        <ele>351</ele>
        <time>2022-06-17T14:08:49.000Z</time>
      </trkpt>
      <trkpt lat="49.86612" lon="4.81901">
        <ele>351</ele>
        <time>2022-06-17T14:08:50.000Z</time>
      </trkpt>
      <trkpt lat="49.86617" lon="4.81898">
        <ele>350</ele>
        <time>2022-06-17T14:08:51.000Z</time>
      </trkpt>
      <trkpt lat="49.86622" lon="4.81894">
        <ele>350</ele>
        <time>2022-06-17T14:08:52.000Z</time>
      </trkpt>
      <trkpt lat="49.86627" lon="4.81891">
        <ele>350</ele>
        <time>2022-06-17T14:08:53.000Z</time>
      </trkpt>
      <trkpt lat="49.86632" lon="4.81887">
        <ele>349</ele>
        <time>2022-06-17T14:08:54.000Z</time>
      </trkpt>
      <trkpt lat="49.86636" lon="4.81883">
        <ele>349</ele>
        <time>2022-06-17T14:08:55.000Z</time>
      </trkpt>
      <trkpt lat="49.86641" lon="4.8188">
        <ele>349</ele>
        <time>2022-06-17T14:08:56.000Z</time>
      </trkpt>
      <trkpt lat="49.86646" lon="4.81876">
        <ele>348</ele>
        <time>2022-06-17T14:08:57.000Z</time>
      </trkpt>
      <trkpt lat="49.8665" lon="4.81873">
        <ele>348</ele>
        <time>2022-06-17T14:08:58.000Z</time>
      </trkpt>
      <trkpt lat="49.86654" lon="4.81869">
        <ele>348</ele>
        <time>2022-06-17T14:08:59.000Z</time>
      </trkpt>
      <trkpt lat="49.86658" lon="4.81865">
        <ele>347</ele>
        <time>2022-06-17T14:09:00.000Z</time>
      </trkpt>
      <trkpt lat="49.86663" lon="4.81862">
        <ele>347</ele>
        <time>2022-06-17T14:09:01.000Z</time>
      </trkpt>
      <trkpt lat="49.86667" lon="4.8186">
        <ele>346</ele>
        <time>2022-06-17T14:09:02.000Z</time>
      </trkpt>
      <trkpt lat="49.86671" lon="4.81857">
        <ele>346</ele>
        <time>2022-06-17T14:09:03.000Z</time>
      </trkpt>
      <trkpt lat="49.86675" lon="4.81854">
        <ele>345</ele>
        <time>2022-06-17T14:09:04.000Z</time>
      </trkpt>
      <trkpt lat="49.86679" lon="4.81851">
        <ele>345</ele>
        <time>2022-06-17T14:09:05.000Z</time>
      </trkpt>
      <trkpt lat="49.86683" lon="4.81848">
        <ele>344</ele>
        <time>2022-06-17T14:09:06.000Z</time>
      </trkpt>
      <trkpt lat="49.86687" lon="4.81844">
        <ele>344</ele>
        <time>2022-06-17T14:09:07.000Z</time>
      </trkpt>
      <trkpt lat="49.8669" lon="4.81841">
        <ele>344</ele>
        <time>2022-06-17T14:09:08.000Z</time>
      </trkpt>
      <trkpt lat="49.86694" lon="4.81839">
        <ele>343</ele>
        <time>2022-06-17T14:09:09.000Z</time>
      </trkpt>
      <trkpt lat="49.86698" lon="4.81837">
        <ele>343</ele>
        <time>2022-06-17T14:09:10.000Z</time>
      </trkpt>
      <trkpt lat="49.86701" lon="4.81835">
        <ele>342</ele>
        <time>2022-06-17T14:09:11.000Z</time>
      </trkpt>
      <trkpt lat="49.86705" lon="4.81834">
        <ele>342</ele>
        <time>2022-06-17T14:09:12.000Z</time>
      </trkpt>
      <trkpt lat="49.86708" lon="4.81833">
        <ele>342</ele>
        <time>2022-06-17T14:09:13.000Z</time>
      </trkpt>
      <trkpt lat="49.86711" lon="4.81833">
        <ele>342</ele>
        <time>2022-06-17T14:09:14.000Z</time>
      </trkpt>
      <trkpt lat="49.86714" lon="4.81832">
        <ele>341</ele>
        <time>2022-06-17T14:09:15.000Z</time>
      </trkpt>
      <trkpt lat="49.86717" lon="4.81831">
        <ele>341</ele>
        <time>2022-06-17T14:09:16.000Z</time>
      </trkpt>
      <trkpt lat="49.8672" lon="4.8183">
        <ele>341</ele>
        <time>2022-06-17T14:09:17.000Z</time>
      </trkpt>
      <trkpt lat="49.86723" lon="4.81829">
        <ele>341</ele>
        <time>2022-06-17T14:09:18.000Z</time>
      </trkpt>
      <trkpt lat="49.86726" lon="4.81829">
        <ele>340</ele>
        <time>2022-06-17T14:09:19.000Z</time>
      </trkpt>
      <trkpt lat="49.8673" lon="4.81828">
        <ele>340</ele>
        <time>2022-06-17T14:09:20.000Z</time>
      </trkpt>
      <trkpt lat="49.86733" lon="4.81828">
        <ele>340</ele>
        <time>2022-06-17T14:09:21.000Z</time>
      </trkpt>
      <trkpt lat="49.86737" lon="4.81828">
        <ele>340</ele>
        <time>2022-06-17T14:09:22.000Z</time>
      </trkpt>
      <trkpt lat="49.86741" lon="4.81828">
        <ele>340</ele>
        <time>2022-06-17T14:09:23.000Z</time>
      </trkpt>
      <trkpt lat="49.86745" lon="4.81829">
        <ele>340</ele>
        <time>2022-06-17T14:09:24.000Z</time>
      </trkpt>
      <trkpt lat="49.86749" lon="4.81829">
        <ele>340</ele>
        <time>2022-06-17T14:09:25.000Z</time>
      </trkpt>
      <trkpt lat="49.86752" lon="4.81829">
        <ele>340</ele>
        <time>2022-06-17T14:09:26.000Z</time>
      </trkpt>
      <trkpt lat="49.86755" lon="4.81829">
        <ele>340</ele>
        <time>2022-06-17T14:09:27.000Z</time>
      </trkpt>
      <trkpt lat="49.86759" lon="4.81828">
        <ele>340</ele>
        <time>2022-06-17T14:09:28.000Z</time>
      </trkpt>
      <trkpt lat="49.86762" lon="4.81827">
        <ele>340</ele>
        <time>2022-06-17T14:09:29.000Z</time>
      </trkpt>
      <trkpt lat="49.86767" lon="4.81826">
        <ele>340</ele>
        <time>2022-06-17T14:09:30.000Z</time>
      </trkpt>
      <trkpt lat="49.8677" lon="4.81825">
        <ele>340</ele>
        <time>2022-06-17T14:09:31.000Z</time>
      </trkpt>
      <trkpt lat="49.86773" lon="4.81824">
        <ele>340</ele>
        <time>2022-06-17T14:09:32.000Z</time>
      </trkpt>
      <trkpt lat="49.86775" lon="4.81824">
        <ele>340</ele>
        <time>2022-06-17T14:09:33.000Z</time>
      </trkpt>
      <trkpt lat="49.86775" lon="4.81824">
        <ele>340</ele>
        <time>2022-06-17T14:09:34.000Z</time>
      </trkpt>
      <trkpt lat="49.86775" lon="4.81824">
        <ele>340</ele>
        <time>2022-06-17T14:09:35.000Z</time>
      </trkpt>
      <trkpt lat="49.86775" lon="4.81823">
        <ele>340</ele>
        <time>2022-06-17T14:09:36.000Z</time>
      </trkpt>
      <trkpt lat="49.86775" lon="4.81823">
        <ele>340</ele>
        <time>2022-06-17T14:09:37.000Z</time>
      </trkpt>
      <trkpt lat="49.86775" lon="4.81822">
        <ele>340</ele>
        <time>2022-06-17T14:09:38.000Z</time>
      </trkpt>
      <trkpt lat="49.86775" lon="4.81822">
        <ele>341</ele>
        <time>2022-06-17T14:09:39.000Z</time>
      </trkpt>
      <trkpt lat="49.86775" lon="4.81822">
        <ele>341</ele>
        <time>2022-06-17T14:09:40.000Z</time>
      </trkpt>
      <trkpt lat="49.86775" lon="4.81822">
        <ele>341</ele>
        <time>2022-06-17T14:09:41.000Z</time>
      </trkpt>
      <trkpt lat="49.86775" lon="4.81822">
        <ele>341</ele>
        <time>2022-06-17T14:09:42.000Z</time>
      </trkpt>
      <trkpt lat="49.86775" lon="4.81822">
        <ele>341</ele>
        <time>2022-06-17T14:09:43.000Z</time>
      </trkpt>
      <trkpt lat="49.86775" lon="4.81821">
        <ele>341</ele>
        <time>2022-06-17T14:09:44.000Z</time>
      </trkpt>
      <trkpt lat="49.86775" lon="4.81821">
        <ele>341</ele>
        <time>2022-06-17T14:09:45.000Z</time>
      </trkpt>
      <trkpt lat="49.86775" lon="4.81821">
        <ele>341</ele>
        <time>2022-06-17T14:09:46.000Z</time>
      </trkpt>
      <trkpt lat="49.86775" lon="4.81821">
        <ele>341</ele>
        <time>2022-06-17T14:09:47.000Z</time>
      </trkpt>
      <trkpt lat="49.86775" lon="4.81821">
        <ele>341</ele>
        <time>2022-06-17T14:09:48.000Z</time>
      </trkpt>
      <trkpt lat="49.86775" lon="4.81821">
        <ele>341</ele>
        <time>2022-06-17T14:09:49.000Z</time>
      </trkpt>
      <trkpt lat="49.86775" lon="4.81821">
        <ele>341</ele>
        <time>2022-06-17T14:09:50.000Z</time>
      </trkpt>
      <trkpt lat="49.86775" lon="4.81821">
        <ele>341</ele>
        <time>2022-06-17T14:09:51.000Z</time>
      </trkpt>
      <trkpt lat="49.86775" lon="4.81821">
        <ele>341</ele>
        <time>2022-06-17T14:09:52.000Z</time>
      </trkpt>
      <trkpt lat="49.86775" lon="4.81821">
        <ele>341</ele>
        <time>2022-06-17T14:09:53.000Z</time>
      </trkpt>
      <trkpt lat="49.86775" lon="4.81821">
        <ele>341</ele>
        <time>2022-06-17T14:09:54.000Z</time>
      </trkpt>
      <trkpt lat="49.86775" lon="4.81821">
        <ele>341</ele>
        <time>2022-06-17T14:09:55.000Z</time>
      </trkpt>
      <trkpt lat="49.86775" lon="4.81821">
        <ele>341</ele>
        <time>2022-06-17T14:09:56.000Z</time>
      </trkpt>
      <trkpt lat="49.86776" lon="4.8182">
        <ele>341</ele>
        <time>2022-06-17T14:09:57.000Z</time>
      </trkpt>
      <trkpt lat="49.86778" lon="4.8182">
        <ele>341</ele>
        <time>2022-06-17T14:09:58.000Z</time>
      </trkpt>
      <trkpt lat="49.8678" lon="4.81821">
        <ele>341</ele>
        <time>2022-06-17T14:09:59.000Z</time>
      </trkpt>
      <trkpt lat="49.86783" lon="4.8182">
        <ele>341</ele>
        <time>2022-06-17T14:10:00.000Z</time>
      </trkpt>
      <trkpt lat="49.86786" lon="4.8182">
        <ele>341</ele>
        <time>2022-06-17T14:10:01.000Z</time>
      </trkpt>
      <trkpt lat="49.8679" lon="4.81818">
        <ele>341</ele>
        <time>2022-06-17T14:10:02.000Z</time>
      </trkpt>
      <trkpt lat="49.86795" lon="4.81817">
        <ele>341</ele>
        <time>2022-06-17T14:10:03.000Z</time>
      </trkpt>
      <trkpt lat="49.868" lon="4.81816">
        <ele>341</ele>
        <time>2022-06-17T14:10:04.000Z</time>
      </trkpt>
      <trkpt lat="49.86804" lon="4.81814">
        <ele>341</ele>
        <time>2022-06-17T14:10:05.000Z</time>
      </trkpt>
      <trkpt lat="49.86808" lon="4.81811">
        <ele>341</ele>
        <time>2022-06-17T14:10:06.000Z</time>
      </trkpt>
      <trkpt lat="49.86813" lon="4.81808">
        <ele>341</ele>
        <time>2022-06-17T14:10:07.000Z</time>
      </trkpt>
      <trkpt lat="49.86817" lon="4.81804">
        <ele>341</ele>
        <time>2022-06-17T14:10:08.000Z</time>
      </trkpt>
      <trkpt lat="49.86822" lon="4.81801">
        <ele>340</ele>
        <time>2022-06-17T14:10:09.000Z</time>
      </trkpt>
      <trkpt lat="49.86827" lon="4.81797">
        <ele>340</ele>
        <time>2022-06-17T14:10:10.000Z</time>
      </trkpt>
      <trkpt lat="49.86833" lon="4.81793">
        <ele>340</ele>
        <time>2022-06-17T14:10:11.000Z</time>
      </trkpt>
      <trkpt lat="49.86838" lon="4.8179">
        <ele>340</ele>
        <time>2022-06-17T14:10:12.000Z</time>
      </trkpt>
      <trkpt lat="49.86842" lon="4.81788">
        <ele>340</ele>
        <time>2022-06-17T14:10:13.000Z</time>
      </trkpt>
      <trkpt lat="49.86846" lon="4.81786">
        <ele>340</ele>
        <time>2022-06-17T14:10:14.000Z</time>
      </trkpt>
      <trkpt lat="49.86851" lon="4.81784">
        <ele>340</ele>
        <time>2022-06-17T14:10:15.000Z</time>
      </trkpt>
      <trkpt lat="49.86856" lon="4.81781">
        <ele>339</ele>
        <time>2022-06-17T14:10:16.000Z</time>
      </trkpt>
      <trkpt lat="49.86861" lon="4.8178">
        <ele>339</ele>
        <time>2022-06-17T14:10:17.000Z</time>
      </trkpt>
      <trkpt lat="49.86866" lon="4.81778">
        <ele>339</ele>
        <time>2022-06-17T14:10:18.000Z</time>
      </trkpt>
      <trkpt lat="49.86871" lon="4.81776">
        <ele>339</ele>
        <time>2022-06-17T14:10:19.000Z</time>
      </trkpt>
      <trkpt lat="49.86876" lon="4.81774">
        <ele>338</ele>
        <time>2022-06-17T14:10:20.000Z</time>
      </trkpt>
      <trkpt lat="49.8688" lon="4.81771">
        <ele>338</ele>
        <time>2022-06-17T14:10:21.000Z</time>
      </trkpt>
      <trkpt lat="49.86886" lon="4.81768">
        <ele>338</ele>
        <time>2022-06-17T14:10:22.000Z</time>
      </trkpt>
      <trkpt lat="49.86891" lon="4.81764">
        <ele>338</ele>
        <time>2022-06-17T14:10:23.000Z</time>
      </trkpt>
      <trkpt lat="49.86898" lon="4.81759">
        <ele>338</ele>
        <time>2022-06-17T14:10:24.000Z</time>
      </trkpt>
      <trkpt lat="49.86904" lon="4.81754">
        <ele>337</ele>
        <time>2022-06-17T14:10:25.000Z</time>
      </trkpt>
      <trkpt lat="49.8691" lon="4.8175">
        <ele>337</ele>
        <time>2022-06-17T14:10:26.000Z</time>
      </trkpt>
      <trkpt lat="49.86917" lon="4.81747">
        <ele>337</ele>
        <time>2022-06-17T14:10:27.000Z</time>
      </trkpt>
      <trkpt lat="49.86923" lon="4.81743">
        <ele>336</ele>
        <time>2022-06-17T14:10:28.000Z</time>
      </trkpt>
      <trkpt lat="49.86928" lon="4.8174">
        <ele>336</ele>
        <time>2022-06-17T14:10:29.000Z</time>
      </trkpt>
      <trkpt lat="49.86933" lon="4.81737">
        <ele>335</ele>
        <time>2022-06-17T14:10:30.000Z</time>
      </trkpt>
      <trkpt lat="49.86938" lon="4.81734">
        <ele>335</ele>
        <time>2022-06-17T14:10:31.000Z</time>
      </trkpt>
      <trkpt lat="49.86943" lon="4.81731">
        <ele>335</ele>
        <time>2022-06-17T14:10:32.000Z</time>
      </trkpt>
      <trkpt lat="49.86948" lon="4.81729">
        <ele>334</ele>
        <time>2022-06-17T14:10:33.000Z</time>
      </trkpt>
      <trkpt lat="49.86952" lon="4.81727">
        <ele>334</ele>
        <time>2022-06-17T14:10:34.000Z</time>
      </trkpt>
      <trkpt lat="49.86956" lon="4.81725">
        <ele>334</ele>
        <time>2022-06-17T14:10:35.000Z</time>
      </trkpt>
      <trkpt lat="49.8696" lon="4.81724">
        <ele>333</ele>
        <time>2022-06-17T14:10:36.000Z</time>
      </trkpt>
      <trkpt lat="49.86964" lon="4.81721">
        <ele>333</ele>
        <time>2022-06-17T14:10:37.000Z</time>
      </trkpt>
      <trkpt lat="49.86968" lon="4.81718">
        <ele>333</ele>
        <time>2022-06-17T14:10:38.000Z</time>
      </trkpt>
      <trkpt lat="49.86973" lon="4.81716">
        <ele>332</ele>
        <time>2022-06-17T14:10:39.000Z</time>
      </trkpt>
      <trkpt lat="49.86977" lon="4.81715">
        <ele>332</ele>
        <time>2022-06-17T14:10:40.000Z</time>
      </trkpt>
      <trkpt lat="49.86982" lon="4.81713">
        <ele>331</ele>
        <time>2022-06-17T14:10:41.000Z</time>
      </trkpt>
      <trkpt lat="49.86987" lon="4.81711">
        <ele>331</ele>
        <time>2022-06-17T14:10:42.000Z</time>
      </trkpt>
      <trkpt lat="49.86993" lon="4.81709">
        <ele>331</ele>
        <time>2022-06-17T14:10:43.000Z</time>
      </trkpt>
      <trkpt lat="49.86998" lon="4.81706">
        <ele>330</ele>
        <time>2022-06-17T14:10:44.000Z</time>
      </trkpt>
      <trkpt lat="49.87004" lon="4.81704">
        <ele>330</ele>
        <time>2022-06-17T14:10:45.000Z</time>
      </trkpt>
      <trkpt lat="49.87009" lon="4.81702">
        <ele>329</ele>
        <time>2022-06-17T14:10:46.000Z</time>
      </trkpt>
      <trkpt lat="49.87015" lon="4.817">
        <ele>329</ele>
        <time>2022-06-17T14:10:47.000Z</time>
      </trkpt>
      <trkpt lat="49.8702" lon="4.81698">
        <ele>329</ele>
        <time>2022-06-17T14:10:48.000Z</time>
      </trkpt>
      <trkpt lat="49.87025" lon="4.81696">
        <ele>328</ele>
        <time>2022-06-17T14:10:49.000Z</time>
      </trkpt>
      <trkpt lat="49.87029" lon="4.81694">
        <ele>328</ele>
        <time>2022-06-17T14:10:50.000Z</time>
      </trkpt>
      <trkpt lat="49.87033" lon="4.81693">
        <ele>328</ele>
        <time>2022-06-17T14:10:51.000Z</time>
      </trkpt>
      <trkpt lat="49.87037" lon="4.81691">
        <ele>327</ele>
        <time>2022-06-17T14:10:52.000Z</time>
      </trkpt>
      <trkpt lat="49.8704" lon="4.81688">
        <ele>327</ele>
        <time>2022-06-17T14:10:53.000Z</time>
      </trkpt>
      <trkpt lat="49.87042" lon="4.81686">
        <ele>326</ele>
        <time>2022-06-17T14:10:54.000Z</time>
      </trkpt>
      <trkpt lat="49.87044" lon="4.81684">
        <ele>326</ele>
        <time>2022-06-17T14:10:55.000Z</time>
      </trkpt>
      <trkpt lat="49.87045" lon="4.81683">
        <ele>326</ele>
        <time>2022-06-17T14:10:56.000Z</time>
      </trkpt>
      <trkpt lat="49.87047" lon="4.81682">
        <ele>325</ele>
        <time>2022-06-17T14:10:57.000Z</time>
      </trkpt>
      <trkpt lat="49.87047" lon="4.81681">
        <ele>325</ele>
        <time>2022-06-17T14:10:58.000Z</time>
      </trkpt>
      <trkpt lat="49.87047" lon="4.81681">
        <ele>324</ele>
        <time>2022-06-17T14:10:59.000Z</time>
      </trkpt>
      <trkpt lat="49.87047" lon="4.8168">
        <ele>324</ele>
        <time>2022-06-17T14:11:00.000Z</time>
      </trkpt>
      <trkpt lat="49.87047" lon="4.81679">
        <ele>324</ele>
        <time>2022-06-17T14:11:01.000Z</time>
      </trkpt>
      <trkpt lat="49.87047" lon="4.81679">
        <ele>324</ele>
        <time>2022-06-17T14:11:02.000Z</time>
      </trkpt>
      <trkpt lat="49.87047" lon="4.81679">
        <ele>324</ele>
        <time>2022-06-17T14:11:03.000Z</time>
      </trkpt>
      <trkpt lat="49.87045" lon="4.81678">
        <ele>324</ele>
        <time>2022-06-17T14:11:04.000Z</time>
      </trkpt>
      <trkpt lat="49.87045" lon="4.81677">
        <ele>323</ele>
        <time>2022-06-17T14:11:05.000Z</time>
      </trkpt>
      <trkpt lat="49.87045" lon="4.81675">
        <ele>323</ele>
        <time>2022-06-17T14:11:06.000Z</time>
      </trkpt>
      <trkpt lat="49.87045" lon="4.81674">
        <ele>323</ele>
        <time>2022-06-17T14:11:07.000Z</time>
      </trkpt>
      <trkpt lat="49.87045" lon="4.81674">
        <ele>323</ele>
        <time>2022-06-17T14:11:08.000Z</time>
      </trkpt>
      <trkpt lat="49.87046" lon="4.81672">
        <ele>322</ele>
        <time>2022-06-17T14:11:09.000Z</time>
      </trkpt>
      <trkpt lat="49.87047" lon="4.8167">
        <ele>322</ele>
        <time>2022-06-17T14:11:10.000Z</time>
      </trkpt>
      <trkpt lat="49.87049" lon="4.81669">
        <ele>322</ele>
        <time>2022-06-17T14:11:11.000Z</time>
      </trkpt>
      <trkpt lat="49.8705" lon="4.81668">
        <ele>321</ele>
        <time>2022-06-17T14:11:12.000Z</time>
      </trkpt>
      <trkpt lat="49.87052" lon="4.81667">
        <ele>321</ele>
        <time>2022-06-17T14:11:13.000Z</time>
      </trkpt>
      <trkpt lat="49.87053" lon="4.81667">
        <ele>320</ele>
        <time>2022-06-17T14:11:14.000Z</time>
      </trkpt>
      <trkpt lat="49.87054" lon="4.81666">
        <ele>320</ele>
        <time>2022-06-17T14:11:15.000Z</time>
      </trkpt>
      <trkpt lat="49.87055" lon="4.81665">
        <ele>320</ele>
        <time>2022-06-17T14:11:16.000Z</time>
      </trkpt>
      <trkpt lat="49.87055" lon="4.81665">
        <ele>319</ele>
        <time>2022-06-17T14:11:17.000Z</time>
      </trkpt>
      <trkpt lat="49.87056" lon="4.81665">
        <ele>319</ele>
        <time>2022-06-17T14:11:18.000Z</time>
      </trkpt>
      <trkpt lat="49.87056" lon="4.81665">
        <ele>319</ele>
        <time>2022-06-17T14:11:19.000Z</time>
      </trkpt>
      <trkpt lat="49.87057" lon="4.81665">
        <ele>318</ele>
        <time>2022-06-17T14:11:20.000Z</time>
      </trkpt>
      <trkpt lat="49.87058" lon="4.81665">
        <ele>318</ele>
        <time>2022-06-17T14:11:21.000Z</time>
      </trkpt>
      <trkpt lat="49.87061" lon="4.81667">
        <ele>318</ele>
        <time>2022-06-17T14:11:22.000Z</time>
      </trkpt>
      <trkpt lat="49.87063" lon="4.81668">
        <ele>318</ele>
        <time>2022-06-17T14:11:23.000Z</time>
      </trkpt>
      <trkpt lat="49.87065" lon="4.81668">
        <ele>317</ele>
        <time>2022-06-17T14:11:24.000Z</time>
      </trkpt>
      <trkpt lat="49.87066" lon="4.81668">
        <ele>317</ele>
        <time>2022-06-17T14:11:25.000Z</time>
      </trkpt>
      <trkpt lat="49.87068" lon="4.81668">
        <ele>317</ele>
        <time>2022-06-17T14:11:26.000Z</time>
      </trkpt>
      <trkpt lat="49.8707" lon="4.81665">
        <ele>317</ele>
        <time>2022-06-17T14:11:27.000Z</time>
      </trkpt>
      <trkpt lat="49.87072" lon="4.81661">
        <ele>316</ele>
        <time>2022-06-17T14:11:28.000Z</time>
      </trkpt>
      <trkpt lat="49.87074" lon="4.81657">
        <ele>316</ele>
        <time>2022-06-17T14:11:29.000Z</time>
      </trkpt>
      <trkpt lat="49.87076" lon="4.81653">
        <ele>315</ele>
        <time>2022-06-17T14:11:30.000Z</time>
      </trkpt>
      <trkpt lat="49.87078" lon="4.81651">
        <ele>315</ele>
        <time>2022-06-17T14:11:31.000Z</time>
      </trkpt>
      <trkpt lat="49.8708" lon="4.81649">
        <ele>315</ele>
        <time>2022-06-17T14:11:32.000Z</time>
      </trkpt>
      <trkpt lat="49.87082" lon="4.81648">
        <ele>314</ele>
        <time>2022-06-17T14:11:33.000Z</time>
      </trkpt>
      <trkpt lat="49.87085" lon="4.81646">
        <ele>314</ele>
        <time>2022-06-17T14:11:34.000Z</time>
      </trkpt>
      <trkpt lat="49.87088" lon="4.81643">
        <ele>313</ele>
        <time>2022-06-17T14:11:35.000Z</time>
      </trkpt>
      <trkpt lat="49.87093" lon="4.81639">
        <ele>313</ele>
        <time>2022-06-17T14:11:36.000Z</time>
      </trkpt>
      <trkpt lat="49.87097" lon="4.81636">
        <ele>312</ele>
        <time>2022-06-17T14:11:37.000Z</time>
      </trkpt>
      <trkpt lat="49.87102" lon="4.81634">
        <ele>312</ele>
        <time>2022-06-17T14:11:38.000Z</time>
      </trkpt>
      <trkpt lat="49.87105" lon="4.81631">
        <ele>311</ele>
        <time>2022-06-17T14:11:39.000Z</time>
      </trkpt>
      <trkpt lat="49.87108" lon="4.81629">
        <ele>311</ele>
        <time>2022-06-17T14:11:40.000Z</time>
      </trkpt>
      <trkpt lat="49.87112" lon="4.81626">
        <ele>311</ele>
        <time>2022-06-17T14:11:41.000Z</time>
      </trkpt>
      <trkpt lat="49.87116" lon="4.81624">
        <ele>310</ele>
        <time>2022-06-17T14:11:42.000Z</time>
      </trkpt>
      <trkpt lat="49.8712" lon="4.81622">
        <ele>310</ele>
        <time>2022-06-17T14:11:43.000Z</time>
      </trkpt>
      <trkpt lat="49.87124" lon="4.81619">
        <ele>309</ele>
        <time>2022-06-17T14:11:44.000Z</time>
      </trkpt>
      <trkpt lat="49.87128" lon="4.81615">
        <ele>309</ele>
        <time>2022-06-17T14:11:45.000Z</time>
      </trkpt>
      <trkpt lat="49.87131" lon="4.81613">
        <ele>308</ele>
        <time>2022-06-17T14:11:46.000Z</time>
      </trkpt>
      <trkpt lat="49.87135" lon="4.8161">
        <ele>308</ele>
        <time>2022-06-17T14:11:47.000Z</time>
      </trkpt>
      <trkpt lat="49.87139" lon="4.81608">
        <ele>307</ele>
        <time>2022-06-17T14:11:48.000Z</time>
      </trkpt>
      <trkpt lat="49.87142" lon="4.81606">
        <ele>307</ele>
        <time>2022-06-17T14:11:49.000Z</time>
      </trkpt>
      <trkpt lat="49.87145" lon="4.81605">
        <ele>306</ele>
        <time>2022-06-17T14:11:50.000Z</time>
      </trkpt>
      <trkpt lat="49.87149" lon="4.81604">
        <ele>306</ele>
        <time>2022-06-17T14:11:51.000Z</time>
      </trkpt>
      <trkpt lat="49.87153" lon="4.81604">
        <ele>306</ele>
        <time>2022-06-17T14:11:52.000Z</time>
      </trkpt>
      <trkpt lat="49.87155" lon="4.81604">
        <ele>305</ele>
        <time>2022-06-17T14:11:53.000Z</time>
      </trkpt>
      <trkpt lat="49.87156" lon="4.81604">
        <ele>305</ele>
        <time>2022-06-17T14:11:54.000Z</time>
      </trkpt>
      <trkpt lat="49.87156" lon="4.81604">
        <ele>304</ele>
        <time>2022-06-17T14:11:55.000Z</time>
      </trkpt>
      <trkpt lat="49.87158" lon="4.81603">
        <ele>304</ele>
        <time>2022-06-17T14:11:56.000Z</time>
      </trkpt>
      <trkpt lat="49.87161" lon="4.81603">
        <ele>304</ele>
        <time>2022-06-17T14:11:57.000Z</time>
      </trkpt>
      <trkpt lat="49.87164" lon="4.81603">
        <ele>303</ele>
        <time>2022-06-17T14:11:58.000Z</time>
      </trkpt>
      <trkpt lat="49.87167" lon="4.81604">
        <ele>303</ele>
        <time>2022-06-17T14:11:59.000Z</time>
      </trkpt>
      <trkpt lat="49.87171" lon="4.81604">
        <ele>303</ele>
        <time>2022-06-17T14:12:00.000Z</time>
      </trkpt>
      <trkpt lat="49.87176" lon="4.81603">
        <ele>302</ele>
        <time>2022-06-17T14:12:01.000Z</time>
      </trkpt>
      <trkpt lat="49.87181" lon="4.81603">
        <ele>302</ele>
        <time>2022-06-17T14:12:02.000Z</time>
      </trkpt>
      <trkpt lat="49.87186" lon="4.81602">
        <ele>301</ele>
        <time>2022-06-17T14:12:03.000Z</time>
      </trkpt>
      <trkpt lat="49.87191" lon="4.81602">
        <ele>301</ele>
        <time>2022-06-17T14:12:04.000Z</time>
      </trkpt>
      <trkpt lat="49.87197" lon="4.81601">
        <ele>301</ele>
        <time>2022-06-17T14:12:05.000Z</time>
      </trkpt>
      <trkpt lat="49.87202" lon="4.816">
        <ele>300</ele>
        <time>2022-06-17T14:12:06.000Z</time>
      </trkpt>
      <trkpt lat="49.87207" lon="4.81599">
        <ele>300</ele>
        <time>2022-06-17T14:12:07.000Z</time>
      </trkpt>
      <trkpt lat="49.87213" lon="4.81597">
        <ele>299</ele>
        <time>2022-06-17T14:12:08.000Z</time>
      </trkpt>
      <trkpt lat="49.87218" lon="4.81596">
        <ele>298</ele>
        <time>2022-06-17T14:12:09.000Z</time>
      </trkpt>
      <trkpt lat="49.87223" lon="4.81595">
        <ele>298</ele>
        <time>2022-06-17T14:12:10.000Z</time>
      </trkpt>
      <trkpt lat="49.87228" lon="4.81595">
        <ele>297</ele>
        <time>2022-06-17T14:12:11.000Z</time>
      </trkpt>
      <trkpt lat="49.87233" lon="4.81594">
        <ele>296</ele>
        <time>2022-06-17T14:12:12.000Z</time>
      </trkpt>
      <trkpt lat="49.87238" lon="4.81593">
        <ele>296</ele>
        <time>2022-06-17T14:12:13.000Z</time>
      </trkpt>
      <trkpt lat="49.87242" lon="4.81593">
        <ele>295</ele>
        <time>2022-06-17T14:12:14.000Z</time>
      </trkpt>
      <trkpt lat="49.87247" lon="4.81592">
        <ele>294</ele>
        <time>2022-06-17T14:12:15.000Z</time>
      </trkpt>
      <trkpt lat="49.87252" lon="4.81591">
        <ele>294</ele>
        <time>2022-06-17T14:12:16.000Z</time>
      </trkpt>
      <trkpt lat="49.87256" lon="4.8159">
        <ele>293</ele>
        <time>2022-06-17T14:12:17.000Z</time>
      </trkpt>
      <trkpt lat="49.87262" lon="4.8159">
        <ele>292</ele>
        <time>2022-06-17T14:12:18.000Z</time>
      </trkpt>
      <trkpt lat="49.87268" lon="4.8159">
        <ele>291</ele>
        <time>2022-06-17T14:12:19.000Z</time>
      </trkpt>
      <trkpt lat="49.87273" lon="4.81591">
        <ele>291</ele>
        <time>2022-06-17T14:12:20.000Z</time>
      </trkpt>
      <trkpt lat="49.87279" lon="4.81591">
        <ele>290</ele>
        <time>2022-06-17T14:12:21.000Z</time>
      </trkpt>
      <trkpt lat="49.87285" lon="4.8159">
        <ele>289</ele>
        <time>2022-06-17T14:12:22.000Z</time>
      </trkpt>
      <trkpt lat="49.8729" lon="4.81591">
        <ele>288</ele>
        <time>2022-06-17T14:12:23.000Z</time>
      </trkpt>
      <trkpt lat="49.87295" lon="4.81591">
        <ele>287</ele>
        <time>2022-06-17T14:12:24.000Z</time>
      </trkpt>
      <trkpt lat="49.87299" lon="4.81591">
        <ele>286</ele>
        <time>2022-06-17T14:12:25.000Z</time>
      </trkpt>
      <trkpt lat="49.87305" lon="4.81592">
        <ele>285</ele>
        <time>2022-06-17T14:12:26.000Z</time>
      </trkpt>
      <trkpt lat="49.8731" lon="4.81592">
        <ele>285</ele>
        <time>2022-06-17T14:12:27.000Z</time>
      </trkpt>
      <trkpt lat="49.87315" lon="4.81592">
        <ele>284</ele>
        <time>2022-06-17T14:12:28.000Z</time>
      </trkpt>
      <trkpt lat="49.87319" lon="4.81593">
        <ele>283</ele>
        <time>2022-06-17T14:12:29.000Z</time>
      </trkpt>
      <trkpt lat="49.87323" lon="4.81594">
        <ele>282</ele>
        <time>2022-06-17T14:12:30.000Z</time>
      </trkpt>
      <trkpt lat="49.87327" lon="4.81594">
        <ele>281</ele>
        <time>2022-06-17T14:12:31.000Z</time>
      </trkpt>
      <trkpt lat="49.87331" lon="4.81595">
        <ele>280</ele>
        <time>2022-06-17T14:12:32.000Z</time>
      </trkpt>
      <trkpt lat="49.87334" lon="4.81596">
        <ele>279</ele>
        <time>2022-06-17T14:12:33.000Z</time>
      </trkpt>
      <trkpt lat="49.87337" lon="4.81596">
        <ele>278</ele>
        <time>2022-06-17T14:12:34.000Z</time>
      </trkpt>
      <trkpt lat="49.8734" lon="4.81595">
        <ele>278</ele>
        <time>2022-06-17T14:12:35.000Z</time>
      </trkpt>
      <trkpt lat="49.87343" lon="4.81593">
        <ele>277</ele>
        <time>2022-06-17T14:12:36.000Z</time>
      </trkpt>
      <trkpt lat="49.87345" lon="4.81591">
        <ele>276</ele>
        <time>2022-06-17T14:12:37.000Z</time>
      </trkpt>
      <trkpt lat="49.87346" lon="4.81589">
        <ele>275</ele>
        <time>2022-06-17T14:12:38.000Z</time>
      </trkpt>
      <trkpt lat="49.87347" lon="4.81585">
        <ele>274</ele>
        <time>2022-06-17T14:12:39.000Z</time>
      </trkpt>
      <trkpt lat="49.87348" lon="4.81581">
        <ele>273</ele>
        <time>2022-06-17T14:12:40.000Z</time>
      </trkpt>
      <trkpt lat="49.87349" lon="4.81579">
        <ele>272</ele>
        <time>2022-06-17T14:12:41.000Z</time>
      </trkpt>
      <trkpt lat="49.87349" lon="4.81575">
        <ele>271</ele>
        <time>2022-06-17T14:12:42.000Z</time>
      </trkpt>
      <trkpt lat="49.87349" lon="4.81571">
        <ele>269</ele>
        <time>2022-06-17T14:12:43.000Z</time>
      </trkpt>
      <trkpt lat="49.87349" lon="4.81566">
        <ele>268</ele>
        <time>2022-06-17T14:12:44.000Z</time>
      </trkpt>
      <trkpt lat="49.87349" lon="4.8156">
        <ele>267</ele>
        <time>2022-06-17T14:12:45.000Z</time>
      </trkpt>
      <trkpt lat="49.87349" lon="4.81555">
        <ele>265</ele>
        <time>2022-06-17T14:12:46.000Z</time>
      </trkpt>
      <trkpt lat="49.87349" lon="4.81549">
        <ele>264</ele>
        <time>2022-06-17T14:12:47.000Z</time>
      </trkpt>
      <trkpt lat="49.87349" lon="4.81544">
        <ele>263</ele>
        <time>2022-06-17T14:12:48.000Z</time>
      </trkpt>
      <trkpt lat="49.8735" lon="4.81537">
        <ele>261</ele>
        <time>2022-06-17T14:12:49.000Z</time>
      </trkpt>
      <trkpt lat="49.87351" lon="4.81531">
        <ele>260</ele>
        <time>2022-06-17T14:12:50.000Z</time>
      </trkpt>
      <trkpt lat="49.87352" lon="4.81524">
        <ele>259</ele>
        <time>2022-06-17T14:12:51.000Z</time>
      </trkpt>
      <trkpt lat="49.87353" lon="4.81518">
        <ele>258</ele>
        <time>2022-06-17T14:12:52.000Z</time>
      </trkpt>
      <trkpt lat="49.87354" lon="4.81512">
        <ele>257</ele>
        <time>2022-06-17T14:12:53.000Z</time>
      </trkpt>
      <trkpt lat="49.87355" lon="4.81508">
        <ele>256</ele>
        <time>2022-06-17T14:12:54.000Z</time>
      </trkpt>
      <trkpt lat="49.87356" lon="4.81505">
        <ele>255</ele>
        <time>2022-06-17T14:12:55.000Z</time>
      </trkpt>
      <trkpt lat="49.87358" lon="4.81501">
        <ele>254</ele>
        <time>2022-06-17T14:12:56.000Z</time>
      </trkpt>
      <trkpt lat="49.87361" lon="4.81497">
        <ele>253</ele>
        <time>2022-06-17T14:12:57.000Z</time>
      </trkpt>
      <trkpt lat="49.87364" lon="4.81494">
        <ele>252</ele>
        <time>2022-06-17T14:12:58.000Z</time>
      </trkpt>
      <trkpt lat="49.87367" lon="4.81491">
        <ele>251</ele>
        <time>2022-06-17T14:12:59.000Z</time>
      </trkpt>
      <trkpt lat="49.8737" lon="4.81488">
        <ele>250</ele>
        <time>2022-06-17T14:13:00.000Z</time>
      </trkpt>
      <trkpt lat="49.87374" lon="4.81486">
        <ele>250</ele>
        <time>2022-06-17T14:13:01.000Z</time>
      </trkpt>
      <trkpt lat="49.87378" lon="4.81484">
        <ele>249</ele>
        <time>2022-06-17T14:13:02.000Z</time>
      </trkpt>
      <trkpt lat="49.87381" lon="4.81482">
        <ele>248</ele>
        <time>2022-06-17T14:13:03.000Z</time>
      </trkpt>
      <trkpt lat="49.87385" lon="4.81481">
        <ele>248</ele>
        <time>2022-06-17T14:13:04.000Z</time>
      </trkpt>
      <trkpt lat="49.87388" lon="4.81479">
        <ele>247</ele>
        <time>2022-06-17T14:13:05.000Z</time>
      </trkpt>
      <trkpt lat="49.87391" lon="4.81479">
        <ele>246</ele>
        <time>2022-06-17T14:13:06.000Z</time>
      </trkpt>
      <trkpt lat="49.87393" lon="4.81479">
        <ele>245</ele>
        <time>2022-06-17T14:13:07.000Z</time>
      </trkpt>
      <trkpt lat="49.87396" lon="4.81479">
        <ele>244</ele>
        <time>2022-06-17T14:13:08.000Z</time>
      </trkpt>
      <trkpt lat="49.87398" lon="4.8148">
        <ele>244</ele>
        <time>2022-06-17T14:13:09.000Z</time>
      </trkpt>
      <trkpt lat="49.874" lon="4.81481">
        <ele>243</ele>
        <time>2022-06-17T14:13:10.000Z</time>
      </trkpt>
      <trkpt lat="49.87401" lon="4.81482">
        <ele>242</ele>
        <time>2022-06-17T14:13:11.000Z</time>
      </trkpt>
      <trkpt lat="49.87402" lon="4.81484">
        <ele>242</ele>
        <time>2022-06-17T14:13:12.000Z</time>
      </trkpt>
      <trkpt lat="49.87402" lon="4.81485">
        <ele>241</ele>
        <time>2022-06-17T14:13:13.000Z</time>
      </trkpt>
      <trkpt lat="49.87403" lon="4.81486">
        <ele>240</ele>
        <time>2022-06-17T14:13:14.000Z</time>
      </trkpt>
      <trkpt lat="49.87404" lon="4.81488">
        <ele>239</ele>
        <time>2022-06-17T14:13:15.000Z</time>
      </trkpt>
      <trkpt lat="49.87405" lon="4.8149">
        <ele>238</ele>
        <time>2022-06-17T14:13:16.000Z</time>
      </trkpt>
      <trkpt lat="49.87407" lon="4.81492">
        <ele>237</ele>
        <time>2022-06-17T14:13:17.000Z</time>
      </trkpt>
      <trkpt lat="49.87409" lon="4.81494">
        <ele>236</ele>
        <time>2022-06-17T14:13:18.000Z</time>
      </trkpt>
      <trkpt lat="49.87411" lon="4.81495">
        <ele>235</ele>
        <time>2022-06-17T14:13:19.000Z</time>
      </trkpt>
      <trkpt lat="49.87413" lon="4.81497">
        <ele>234</ele>
        <time>2022-06-17T14:13:20.000Z</time>
      </trkpt>
      <trkpt lat="49.87415" lon="4.81499">
        <ele>234</ele>
        <time>2022-06-17T14:13:21.000Z</time>
      </trkpt>
      <trkpt lat="49.87417" lon="4.81501">
        <ele>233</ele>
        <time>2022-06-17T14:13:22.000Z</time>
      </trkpt>
      <trkpt lat="49.87419" lon="4.81502">
        <ele>232</ele>
        <time>2022-06-17T14:13:23.000Z</time>
      </trkpt>
      <trkpt lat="49.87421" lon="4.81502">
        <ele>231</ele>
        <time>2022-06-17T14:13:24.000Z</time>
      </trkpt>
      <trkpt lat="49.87424" lon="4.81501">
        <ele>230</ele>
        <time>2022-06-17T14:13:25.000Z</time>
      </trkpt>
      <trkpt lat="49.87426" lon="4.815">
        <ele>230</ele>
        <time>2022-06-17T14:13:26.000Z</time>
      </trkpt>
      <trkpt lat="49.87429" lon="4.81499">
        <ele>229</ele>
        <time>2022-06-17T14:13:27.000Z</time>
      </trkpt>
      <trkpt lat="49.87432" lon="4.81496">
        <ele>228</ele>
        <time>2022-06-17T14:13:28.000Z</time>
      </trkpt>
      <trkpt lat="49.87435" lon="4.81493">
        <ele>227</ele>
        <time>2022-06-17T14:13:29.000Z</time>
      </trkpt>
      <trkpt lat="49.87438" lon="4.81488">
        <ele>227</ele>
        <time>2022-06-17T14:13:30.000Z</time>
      </trkpt>
      <trkpt lat="49.87441" lon="4.81484">
        <ele>226</ele>
        <time>2022-06-17T14:13:31.000Z</time>
      </trkpt>
      <trkpt lat="49.87443" lon="4.81479">
        <ele>225</ele>
        <time>2022-06-17T14:13:32.000Z</time>
      </trkpt>
      <trkpt lat="49.87446" lon="4.81475">
        <ele>224</ele>
        <time>2022-06-17T14:13:33.000Z</time>
      </trkpt>
      <trkpt lat="49.87448" lon="4.81471">
        <ele>224</ele>
        <time>2022-06-17T14:13:34.000Z</time>
      </trkpt>
      <trkpt lat="49.87451" lon="4.81468">
        <ele>223</ele>
        <time>2022-06-17T14:13:35.000Z</time>
      </trkpt>
      <trkpt lat="49.87454" lon="4.81465">
        <ele>222</ele>
        <time>2022-06-17T14:13:36.000Z</time>
      </trkpt>
      <trkpt lat="49.87457" lon="4.81462">
        <ele>221</ele>
        <time>2022-06-17T14:13:37.000Z</time>
      </trkpt>
      <trkpt lat="49.8746" lon="4.8146">
        <ele>221</ele>
        <time>2022-06-17T14:13:38.000Z</time>
      </trkpt>
      <trkpt lat="49.87463" lon="4.81457">
        <ele>220</ele>
        <time>2022-06-17T14:13:39.000Z</time>
      </trkpt>
      <trkpt lat="49.87466" lon="4.81453">
        <ele>220</ele>
        <time>2022-06-17T14:13:40.000Z</time>
      </trkpt>
      <trkpt lat="49.87469" lon="4.81448">
        <ele>219</ele>
        <time>2022-06-17T14:13:41.000Z</time>
      </trkpt>
      <trkpt lat="49.87472" lon="4.81443">
        <ele>219</ele>
        <time>2022-06-17T14:13:42.000Z</time>
      </trkpt>
      <trkpt lat="49.87475" lon="4.81439">
        <ele>218</ele>
        <time>2022-06-17T14:13:43.000Z</time>
      </trkpt>
      <trkpt lat="49.87478" lon="4.81434">
        <ele>217</ele>
        <time>2022-06-17T14:13:44.000Z</time>
      </trkpt>
      <trkpt lat="49.87482" lon="4.81431">
        <ele>217</ele>
        <time>2022-06-17T14:13:45.000Z</time>
      </trkpt>
      <trkpt lat="49.87486" lon="4.81427">
        <ele>216</ele>
        <time>2022-06-17T14:13:46.000Z</time>
      </trkpt>
      <trkpt lat="49.87491" lon="4.81424">
        <ele>215</ele>
        <time>2022-06-17T14:13:47.000Z</time>
      </trkpt>
      <trkpt lat="49.87495" lon="4.81421">
        <ele>215</ele>
        <time>2022-06-17T14:13:48.000Z</time>
      </trkpt>
      <trkpt lat="49.87499" lon="4.81418">
        <ele>214</ele>
        <time>2022-06-17T14:13:49.000Z</time>
      </trkpt>
      <trkpt lat="49.87503" lon="4.81416">
        <ele>213</ele>
        <time>2022-06-17T14:13:50.000Z</time>
      </trkpt>
      <trkpt lat="49.87505" lon="4.81413">
        <ele>213</ele>
        <time>2022-06-17T14:13:51.000Z</time>
      </trkpt>
      <trkpt lat="49.87508" lon="4.81411">
        <ele>212</ele>
        <time>2022-06-17T14:13:52.000Z</time>
      </trkpt>
      <trkpt lat="49.87511" lon="4.81409">
        <ele>211</ele>
        <time>2022-06-17T14:13:53.000Z</time>
      </trkpt>
      <trkpt lat="49.87515" lon="4.81408">
        <ele>210</ele>
        <time>2022-06-17T14:13:54.000Z</time>
      </trkpt>
      <trkpt lat="49.87518" lon="4.81408">
        <ele>209</ele>
        <time>2022-06-17T14:13:55.000Z</time>
      </trkpt>
      <trkpt lat="49.87521" lon="4.81408">
        <ele>209</ele>
        <time>2022-06-17T14:13:56.000Z</time>
      </trkpt>
      <trkpt lat="49.87524" lon="4.8141">
        <ele>208</ele>
        <time>2022-06-17T14:13:57.000Z</time>
      </trkpt>
      <trkpt lat="49.87526" lon="4.8141">
        <ele>207</ele>
        <time>2022-06-17T14:13:58.000Z</time>
      </trkpt>
      <trkpt lat="49.87527" lon="4.8141">
        <ele>207</ele>
        <time>2022-06-17T14:13:59.000Z</time>
      </trkpt>
      <trkpt lat="49.87528" lon="4.81409">
        <ele>206</ele>
        <time>2022-06-17T14:14:00.000Z</time>
      </trkpt>
      <trkpt lat="49.87529" lon="4.81407">
        <ele>205</ele>
        <time>2022-06-17T14:14:01.000Z</time>
      </trkpt>
      <trkpt lat="49.8753" lon="4.81405">
        <ele>205</ele>
        <time>2022-06-17T14:14:02.000Z</time>
      </trkpt>
      <trkpt lat="49.8753" lon="4.81404">
        <ele>204</ele>
        <time>2022-06-17T14:14:03.000Z</time>
      </trkpt>
      <trkpt lat="49.8753" lon="4.81401">
        <ele>203</ele>
        <time>2022-06-17T14:14:04.000Z</time>
      </trkpt>
      <trkpt lat="49.87531" lon="4.81398">
        <ele>203</ele>
        <time>2022-06-17T14:14:05.000Z</time>
      </trkpt>
      <trkpt lat="49.87531" lon="4.81395">
        <ele>202</ele>
        <time>2022-06-17T14:14:06.000Z</time>
      </trkpt>
      <trkpt lat="49.87531" lon="4.81392">
        <ele>202</ele>
        <time>2022-06-17T14:14:07.000Z</time>
      </trkpt>
      <trkpt lat="49.87531" lon="4.81387">
        <ele>201</ele>
        <time>2022-06-17T14:14:08.000Z</time>
      </trkpt>
      <trkpt lat="49.87531" lon="4.81383">
        <ele>200</ele>
        <time>2022-06-17T14:14:09.000Z</time>
      </trkpt>
      <trkpt lat="49.8753" lon="4.81378">
        <ele>200</ele>
        <time>2022-06-17T14:14:10.000Z</time>
      </trkpt>
      <trkpt lat="49.8753" lon="4.81372">
        <ele>199</ele>
        <time>2022-06-17T14:14:11.000Z</time>
      </trkpt>
      <trkpt lat="49.87529" lon="4.81367">
        <ele>199</ele>
        <time>2022-06-17T14:14:12.000Z</time>
      </trkpt>
      <trkpt lat="49.87528" lon="4.81361">
        <ele>198</ele>
        <time>2022-06-17T14:14:13.000Z</time>
      </trkpt>
      <trkpt lat="49.87528" lon="4.81356">
        <ele>198</ele>
        <time>2022-06-17T14:14:14.000Z</time>
      </trkpt>
      <trkpt lat="49.87527" lon="4.8135">
        <ele>197</ele>
        <time>2022-06-17T14:14:15.000Z</time>
      </trkpt>
      <trkpt lat="49.87525" lon="4.81344">
        <ele>197</ele>
        <time>2022-06-17T14:14:16.000Z</time>
      </trkpt>
      <trkpt lat="49.87523" lon="4.81338">
        <ele>196</ele>
        <time>2022-06-17T14:14:17.000Z</time>
      </trkpt>
      <trkpt lat="49.87522" lon="4.81333">
        <ele>196</ele>
        <time>2022-06-17T14:14:18.000Z</time>
      </trkpt>
      <trkpt lat="49.8752" lon="4.81328">
        <ele>195</ele>
        <time>2022-06-17T14:14:19.000Z</time>
      </trkpt>
      <trkpt lat="49.87517" lon="4.81323">
        <ele>195</ele>
        <time>2022-06-17T14:14:20.000Z</time>
      </trkpt>
      <trkpt lat="49.87515" lon="4.81318">
        <ele>194</ele>
        <time>2022-06-17T14:14:21.000Z</time>
      </trkpt>
      <trkpt lat="49.87512" lon="4.81312">
        <ele>194</ele>
        <time>2022-06-17T14:14:22.000Z</time>
      </trkpt>
      <trkpt lat="49.87509" lon="4.81306">
        <ele>193</ele>
        <time>2022-06-17T14:14:23.000Z</time>
      </trkpt>
      <trkpt lat="49.87506" lon="4.813">
        <ele>193</ele>
        <time>2022-06-17T14:14:24.000Z</time>
      </trkpt>
      <trkpt lat="49.87503" lon="4.81293">
        <ele>192</ele>
        <time>2022-06-17T14:14:25.000Z</time>
      </trkpt>
      <trkpt lat="49.875" lon="4.81285">
        <ele>192</ele>
        <time>2022-06-17T14:14:26.000Z</time>
      </trkpt>
      <trkpt lat="49.87497" lon="4.81278">
        <ele>191</ele>
        <time>2022-06-17T14:14:27.000Z</time>
      </trkpt>
      <trkpt lat="49.87495" lon="4.81271">
        <ele>191</ele>
        <time>2022-06-17T14:14:28.000Z</time>
      </trkpt>
      <trkpt lat="49.87493" lon="4.81263">
        <ele>190</ele>
        <time>2022-06-17T14:14:29.000Z</time>
      </trkpt>
      <trkpt lat="49.8749" lon="4.81256">
        <ele>190</ele>
        <time>2022-06-17T14:14:30.000Z</time>
      </trkpt>
      <trkpt lat="49.87489" lon="4.8125">
        <ele>189</ele>
        <time>2022-06-17T14:14:31.000Z</time>
      </trkpt>
      <trkpt lat="49.87489" lon="4.81246">
        <ele>189</ele>
        <time>2022-06-17T14:14:32.000Z</time>
      </trkpt>
      <trkpt lat="49.87488" lon="4.81245">
        <ele>188</ele>
        <time>2022-06-17T14:14:33.000Z</time>
      </trkpt>
      <trkpt lat="49.87487" lon="4.81245">
        <ele>188</ele>
        <time>2022-06-17T14:14:34.000Z</time>
      </trkpt>
      <trkpt lat="49.87487" lon="4.81246">
        <ele>187</ele>
        <time>2022-06-17T14:14:35.000Z</time>
      </trkpt>
      <trkpt lat="49.87488" lon="4.81247">
        <ele>187</ele>
        <time>2022-06-17T14:14:36.000Z</time>
      </trkpt>
      <trkpt lat="49.87489" lon="4.8125">
        <ele>186</ele>
        <time>2022-06-17T14:14:37.000Z</time>
      </trkpt>
      <trkpt lat="49.87491" lon="4.81254">
        <ele>186</ele>
        <time>2022-06-17T14:14:38.000Z</time>
      </trkpt>
      <trkpt lat="49.87492" lon="4.81258">
        <ele>186</ele>
        <time>2022-06-17T14:14:39.000Z</time>
      </trkpt>
      <trkpt lat="49.87494" lon="4.81263">
        <ele>185</ele>
        <time>2022-06-17T14:14:40.000Z</time>
      </trkpt>
      <trkpt lat="49.87496" lon="4.81268">
        <ele>185</ele>
        <time>2022-06-17T14:14:41.000Z</time>
      </trkpt>
      <trkpt lat="49.87498" lon="4.81274">
        <ele>185</ele>
        <time>2022-06-17T14:14:42.000Z</time>
      </trkpt>
      <trkpt lat="49.875" lon="4.8128">
        <ele>184</ele>
        <time>2022-06-17T14:14:43.000Z</time>
      </trkpt>
      <trkpt lat="49.87502" lon="4.81285">
        <ele>184</ele>
        <time>2022-06-17T14:14:44.000Z</time>
      </trkpt>
      <trkpt lat="49.87504" lon="4.8129">
        <ele>184</ele>
        <time>2022-06-17T14:14:45.000Z</time>
      </trkpt>
      <trkpt lat="49.87507" lon="4.81295">
        <ele>183</ele>
        <time>2022-06-17T14:14:46.000Z</time>
      </trkpt>
      <trkpt lat="49.87509" lon="4.81301">
        <ele>183</ele>
        <time>2022-06-17T14:14:47.000Z</time>
      </trkpt>
      <trkpt lat="49.87512" lon="4.81306">
        <ele>182</ele>
        <time>2022-06-17T14:14:48.000Z</time>
      </trkpt>
      <trkpt lat="49.87514" lon="4.81311">
        <ele>182</ele>
        <time>2022-06-17T14:14:49.000Z</time>
      </trkpt>
      <trkpt lat="49.87517" lon="4.81316">
        <ele>182</ele>
        <time>2022-06-17T14:14:50.000Z</time>
      </trkpt>
      <trkpt lat="49.87519" lon="4.81321">
        <ele>182</ele>
        <time>2022-06-17T14:14:51.000Z</time>
      </trkpt>
      <trkpt lat="49.87521" lon="4.81327">
        <ele>181</ele>
        <time>2022-06-17T14:14:52.000Z</time>
      </trkpt>
      <trkpt lat="49.87523" lon="4.81333">
        <ele>181</ele>
        <time>2022-06-17T14:14:53.000Z</time>
      </trkpt>
      <trkpt lat="49.87525" lon="4.81338">
        <ele>181</ele>
        <time>2022-06-17T14:14:54.000Z</time>
      </trkpt>
      <trkpt lat="49.87526" lon="4.81345">
        <ele>181</ele>
        <time>2022-06-17T14:14:55.000Z</time>
      </trkpt>
      <trkpt lat="49.87528" lon="4.81351">
        <ele>181</ele>
        <time>2022-06-17T14:14:56.000Z</time>
      </trkpt>
      <trkpt lat="49.87528" lon="4.81358">
        <ele>181</ele>
        <time>2022-06-17T14:14:57.000Z</time>
      </trkpt>
      <trkpt lat="49.87529" lon="4.81363">
        <ele>181</ele>
        <time>2022-06-17T14:14:58.000Z</time>
      </trkpt>
      <trkpt lat="49.8753" lon="4.8137">
        <ele>181</ele>
        <time>2022-06-17T14:14:59.000Z</time>
      </trkpt>
      <trkpt lat="49.8753" lon="4.81377">
        <ele>181</ele>
        <time>2022-06-17T14:15:00.000Z</time>
      </trkpt>
      <trkpt lat="49.87531" lon="4.81383">
        <ele>181</ele>
        <time>2022-06-17T14:15:01.000Z</time>
      </trkpt>
      <trkpt lat="49.87532" lon="4.81388">
        <ele>181</ele>
        <time>2022-06-17T14:15:02.000Z</time>
      </trkpt>
      <trkpt lat="49.87533" lon="4.81393">
        <ele>181</ele>
        <time>2022-06-17T14:15:03.000Z</time>
      </trkpt>
      <trkpt lat="49.87534" lon="4.81397">
        <ele>181</ele>
        <time>2022-06-17T14:15:04.000Z</time>
      </trkpt>
      <trkpt lat="49.87535" lon="4.81401">
        <ele>181</ele>
        <time>2022-06-17T14:15:05.000Z</time>
      </trkpt>
      <trkpt lat="49.87536" lon="4.81406">
        <ele>181</ele>
        <time>2022-06-17T14:15:06.000Z</time>
      </trkpt>
      <trkpt lat="49.87537" lon="4.81412">
        <ele>181</ele>
        <time>2022-06-17T14:15:07.000Z</time>
      </trkpt>
      <trkpt lat="49.87539" lon="4.81419">
        <ele>181</ele>
        <time>2022-06-17T14:15:08.000Z</time>
      </trkpt>
      <trkpt lat="49.8754" lon="4.81425">
        <ele>180</ele>
        <time>2022-06-17T14:15:09.000Z</time>
      </trkpt>
      <trkpt lat="49.8754" lon="4.81432">
        <ele>180</ele>
        <time>2022-06-17T14:15:10.000Z</time>
      </trkpt>
      <trkpt lat="49.8754" lon="4.81438">
        <ele>180</ele>
        <time>2022-06-17T14:15:11.000Z</time>
      </trkpt>
      <trkpt lat="49.8754" lon="4.81445">
        <ele>180</ele>
        <time>2022-06-17T14:15:12.000Z</time>
      </trkpt>
      <trkpt lat="49.8754" lon="4.81452">
        <ele>180</ele>
        <time>2022-06-17T14:15:13.000Z</time>
      </trkpt>
      <trkpt lat="49.87539" lon="4.81459">
        <ele>180</ele>
        <time>2022-06-17T14:15:14.000Z</time>
      </trkpt>
      <trkpt lat="49.87538" lon="4.81466">
        <ele>180</ele>
        <time>2022-06-17T14:15:15.000Z</time>
      </trkpt>
      <trkpt lat="49.87536" lon="4.81473">
        <ele>180</ele>
        <time>2022-06-17T14:15:16.000Z</time>
      </trkpt>
      <trkpt lat="49.87534" lon="4.8148">
        <ele>180</ele>
        <time>2022-06-17T14:15:17.000Z</time>
      </trkpt>
      <trkpt lat="49.87533" lon="4.81485">
        <ele>180</ele>
        <time>2022-06-17T14:15:18.000Z</time>
      </trkpt>
      <trkpt lat="49.87533" lon="4.81491">
        <ele>180</ele>
        <time>2022-06-17T14:15:19.000Z</time>
      </trkpt>
      <trkpt lat="49.87533" lon="4.81496">
        <ele>180</ele>
        <time>2022-06-17T14:15:20.000Z</time>
      </trkpt>
      <trkpt lat="49.87534" lon="4.81502">
        <ele>179</ele>
        <time>2022-06-17T14:15:21.000Z</time>
      </trkpt>
      <trkpt lat="49.87536" lon="4.81506">
        <ele>179</ele>
        <time>2022-06-17T14:15:22.000Z</time>
      </trkpt>
      <trkpt lat="49.87539" lon="4.8151">
        <ele>179</ele>
        <time>2022-06-17T14:15:23.000Z</time>
      </trkpt>
      <trkpt lat="49.8754" lon="4.81514">
        <ele>179</ele>
        <time>2022-06-17T14:15:24.000Z</time>
      </trkpt>
      <trkpt lat="49.87541" lon="4.81518">
        <ele>179</ele>
        <time>2022-06-17T14:15:25.000Z</time>
      </trkpt>
      <trkpt lat="49.87542" lon="4.81522">
        <ele>178</ele>
        <time>2022-06-17T14:15:26.000Z</time>
      </trkpt>
      <trkpt lat="49.87543" lon="4.81526">
        <ele>178</ele>
        <time>2022-06-17T14:15:27.000Z</time>
      </trkpt>
      <trkpt lat="49.87543" lon="4.81529">
        <ele>178</ele>
        <time>2022-06-17T14:15:28.000Z</time>
      </trkpt>
      <trkpt lat="49.87543" lon="4.81533">
        <ele>178</ele>
        <time>2022-06-17T14:15:29.000Z</time>
      </trkpt>
      <trkpt lat="49.87543" lon="4.81536">
        <ele>178</ele>
        <time>2022-06-17T14:15:30.000Z</time>
      </trkpt>
      <trkpt lat="49.87543" lon="4.81539">
        <ele>178</ele>
        <time>2022-06-17T14:15:31.000Z</time>
      </trkpt>
      <trkpt lat="49.87543" lon="4.8154">
        <ele>178</ele>
        <time>2022-06-17T14:15:32.000Z</time>
      </trkpt>
      <trkpt lat="49.87544" lon="4.8154">
        <ele>178</ele>
        <time>2022-06-17T14:15:33.000Z</time>
      </trkpt>
      <trkpt lat="49.87544" lon="4.8154">
        <ele>178</ele>
        <time>2022-06-17T14:15:34.000Z</time>
      </trkpt>
      <trkpt lat="49.87546" lon="4.81539">
        <ele>178</ele>
        <time>2022-06-17T14:15:35.000Z</time>
      </trkpt>
      <trkpt lat="49.87547" lon="4.81537">
        <ele>178</ele>
        <time>2022-06-17T14:15:36.000Z</time>
      </trkpt>
      <trkpt lat="49.87549" lon="4.81536">
        <ele>178</ele>
        <time>2022-06-17T14:15:37.000Z</time>
      </trkpt>
      <trkpt lat="49.8755" lon="4.81535">
        <ele>179</ele>
        <time>2022-06-17T14:15:38.000Z</time>
      </trkpt>
      <trkpt lat="49.87552" lon="4.81532">
        <ele>179</ele>
        <time>2022-06-17T14:15:39.000Z</time>
      </trkpt>
      <trkpt lat="49.87553" lon="4.81529">
        <ele>179</ele>
        <time>2022-06-17T14:15:40.000Z</time>
      </trkpt>
      <trkpt lat="49.87554" lon="4.81525">
        <ele>179</ele>
        <time>2022-06-17T14:15:41.000Z</time>
      </trkpt>
      <trkpt lat="49.87555" lon="4.81521">
        <ele>179</ele>
        <time>2022-06-17T14:15:42.000Z</time>
      </trkpt>
      <trkpt lat="49.87556" lon="4.81517">
        <ele>179</ele>
        <time>2022-06-17T14:15:43.000Z</time>
      </trkpt>
      <trkpt lat="49.87558" lon="4.81512">
        <ele>179</ele>
        <time>2022-06-17T14:15:44.000Z</time>
      </trkpt>
      <trkpt lat="49.87559" lon="4.81508">
        <ele>179</ele>
        <time>2022-06-17T14:15:45.000Z</time>
      </trkpt>
      <trkpt lat="49.8756" lon="4.81504">
        <ele>179</ele>
        <time>2022-06-17T14:15:46.000Z</time>
      </trkpt>
      <trkpt lat="49.87562" lon="4.815">
        <ele>179</ele>
        <time>2022-06-17T14:15:47.000Z</time>
      </trkpt>
      <trkpt lat="49.87564" lon="4.81496">
        <ele>179</ele>
        <time>2022-06-17T14:15:48.000Z</time>
      </trkpt>
      <trkpt lat="49.87566" lon="4.81493">
        <ele>179</ele>
        <time>2022-06-17T14:15:49.000Z</time>
      </trkpt>
      <trkpt lat="49.87568" lon="4.81491">
        <ele>179</ele>
        <time>2022-06-17T14:15:50.000Z</time>
      </trkpt>
      <trkpt lat="49.8757" lon="4.81488">
        <ele>179</ele>
        <time>2022-06-17T14:15:51.000Z</time>
      </trkpt>
      <trkpt lat="49.87573" lon="4.81486">
        <ele>179</ele>
        <time>2022-06-17T14:15:52.000Z</time>
      </trkpt>
      <trkpt lat="49.87575" lon="4.81484">
        <ele>179</ele>
        <time>2022-06-17T14:15:53.000Z</time>
      </trkpt>
      <trkpt lat="49.87577" lon="4.81482">
        <ele>179</ele>
        <time>2022-06-17T14:15:54.000Z</time>
      </trkpt>
      <trkpt lat="49.87579" lon="4.81479">
        <ele>179</ele>
        <time>2022-06-17T14:15:55.000Z</time>
      </trkpt>
      <trkpt lat="49.87581" lon="4.81476">
        <ele>179</ele>
        <time>2022-06-17T14:15:56.000Z</time>
      </trkpt>
      <trkpt lat="49.87583" lon="4.81473">
        <ele>179</ele>
        <time>2022-06-17T14:15:57.000Z</time>
      </trkpt>
      <trkpt lat="49.87585" lon="4.8147">
        <ele>179</ele>
        <time>2022-06-17T14:15:58.000Z</time>
      </trkpt>
      <trkpt lat="49.87587" lon="4.81468">
        <ele>179</ele>
        <time>2022-06-17T14:15:59.000Z</time>
      </trkpt>
      <trkpt lat="49.87589" lon="4.81466">
        <ele>179</ele>
        <time>2022-06-17T14:16:00.000Z</time>
      </trkpt>
      <trkpt lat="49.87592" lon="4.81462">
        <ele>179</ele>
        <time>2022-06-17T14:16:01.000Z</time>
      </trkpt>
      <trkpt lat="49.87595" lon="4.8146">
        <ele>179</ele>
        <time>2022-06-17T14:16:02.000Z</time>
      </trkpt>
      <trkpt lat="49.87597" lon="4.81458">
        <ele>179</ele>
        <time>2022-06-17T14:16:03.000Z</time>
      </trkpt>
      <trkpt lat="49.876" lon="4.81456">
        <ele>180</ele>
        <time>2022-06-17T14:16:04.000Z</time>
      </trkpt>
      <trkpt lat="49.87602" lon="4.81454">
        <ele>180</ele>
        <time>2022-06-17T14:16:05.000Z</time>
      </trkpt>
      <trkpt lat="49.87604" lon="4.81452">
        <ele>180</ele>
        <time>2022-06-17T14:16:06.000Z</time>
      </trkpt>
      <trkpt lat="49.87607" lon="4.8145">
        <ele>180</ele>
        <time>2022-06-17T14:16:07.000Z</time>
      </trkpt>
      <trkpt lat="49.8761" lon="4.81448">
        <ele>180</ele>
        <time>2022-06-17T14:16:08.000Z</time>
      </trkpt>
      <trkpt lat="49.87613" lon="4.81446">
        <ele>180</ele>
        <time>2022-06-17T14:16:09.000Z</time>
      </trkpt>
      <trkpt lat="49.87615" lon="4.81445">
        <ele>181</ele>
        <time>2022-06-17T14:16:10.000Z</time>
      </trkpt>
      <trkpt lat="49.87618" lon="4.81443">
        <ele>181</ele>
        <time>2022-06-17T14:16:11.000Z</time>
      </trkpt>
      <trkpt lat="49.8762" lon="4.8144">
        <ele>181</ele>
        <time>2022-06-17T14:16:12.000Z</time>
      </trkpt>
      <trkpt lat="49.87623" lon="4.81437">
        <ele>181</ele>
        <time>2022-06-17T14:16:13.000Z</time>
      </trkpt>
      <trkpt lat="49.87626" lon="4.81434">
        <ele>182</ele>
        <time>2022-06-17T14:16:14.000Z</time>
      </trkpt>
      <trkpt lat="49.87629" lon="4.81432">
        <ele>182</ele>
        <time>2022-06-17T14:16:15.000Z</time>
      </trkpt>
      <trkpt lat="49.87631" lon="4.81429">
        <ele>182</ele>
        <time>2022-06-17T14:16:16.000Z</time>
      </trkpt>
      <trkpt lat="49.87634" lon="4.81427">
        <ele>182</ele>
        <time>2022-06-17T14:16:17.000Z</time>
      </trkpt>
      <trkpt lat="49.87637" lon="4.81426">
        <ele>183</ele>
        <time>2022-06-17T14:16:18.000Z</time>
      </trkpt>
      <trkpt lat="49.8764" lon="4.81425">
        <ele>183</ele>
        <time>2022-06-17T14:16:19.000Z</time>
      </trkpt>
      <trkpt lat="49.87643" lon="4.81423">
        <ele>183</ele>
        <time>2022-06-17T14:16:20.000Z</time>
      </trkpt>
      <trkpt lat="49.87646" lon="4.8142">
        <ele>184</ele>
        <time>2022-06-17T14:16:21.000Z</time>
      </trkpt>
      <trkpt lat="49.87649" lon="4.81419">
        <ele>184</ele>
        <time>2022-06-17T14:16:22.000Z</time>
      </trkpt>
      <trkpt lat="49.87651" lon="4.81417">
        <ele>184</ele>
        <time>2022-06-17T14:16:23.000Z</time>
      </trkpt>
      <trkpt lat="49.87654" lon="4.81415">
        <ele>185</ele>
        <time>2022-06-17T14:16:24.000Z</time>
      </trkpt>
      <trkpt lat="49.87657" lon="4.81414">
        <ele>185</ele>
        <time>2022-06-17T14:16:25.000Z</time>
      </trkpt>
      <trkpt lat="49.8766" lon="4.81413">
        <ele>185</ele>
        <time>2022-06-17T14:16:26.000Z</time>
      </trkpt>
      <trkpt lat="49.87663" lon="4.81411">
        <ele>185</ele>
        <time>2022-06-17T14:16:27.000Z</time>
      </trkpt>
      <trkpt lat="49.87666" lon="4.8141">
        <ele>185</ele>
        <time>2022-06-17T14:16:28.000Z</time>
      </trkpt>
      <trkpt lat="49.87669" lon="4.81408">
        <ele>186</ele>
        <time>2022-06-17T14:16:29.000Z</time>
      </trkpt>
      <trkpt lat="49.87673" lon="4.81406">
        <ele>186</ele>
        <time>2022-06-17T14:16:30.000Z</time>
      </trkpt>
      <trkpt lat="49.87676" lon="4.81404">
        <ele>186</ele>
        <time>2022-06-17T14:16:31.000Z</time>
      </trkpt>
      <trkpt lat="49.87679" lon="4.81401">
        <ele>186</ele>
        <time>2022-06-17T14:16:32.000Z</time>
      </trkpt>
      <trkpt lat="49.87682" lon="4.81398">
        <ele>186</ele>
        <time>2022-06-17T14:16:33.000Z</time>
      </trkpt>
      <trkpt lat="49.87685" lon="4.81396">
        <ele>186</ele>
        <time>2022-06-17T14:16:34.000Z</time>
      </trkpt>
      <trkpt lat="49.87688" lon="4.81394">
        <ele>187</ele>
        <time>2022-06-17T14:16:35.000Z</time>
      </trkpt>
      <trkpt lat="49.87691" lon="4.81393">
        <ele>187</ele>
        <time>2022-06-17T14:16:36.000Z</time>
      </trkpt>
      <trkpt lat="49.87694" lon="4.81391">
        <ele>187</ele>
        <time>2022-06-17T14:16:37.000Z</time>
      </trkpt>
      <trkpt lat="49.87697" lon="4.81388">
        <ele>187</ele>
        <time>2022-06-17T14:16:38.000Z</time>
      </trkpt>
      <trkpt lat="49.87699" lon="4.81386">
        <ele>187</ele>
        <time>2022-06-17T14:16:39.000Z</time>
      </trkpt>
      <trkpt lat="49.87702" lon="4.81384">
        <ele>187</ele>
        <time>2022-06-17T14:16:40.000Z</time>
      </trkpt>
      <trkpt lat="49.87703" lon="4.81383">
        <ele>187</ele>
        <time>2022-06-17T14:16:41.000Z</time>
      </trkpt>
      <trkpt lat="49.87703" lon="4.81382">
        <ele>187</ele>
        <time>2022-06-17T14:16:42.000Z</time>
      </trkpt>
      <trkpt lat="49.87703" lon="4.81381">
        <ele>187</ele>
        <time>2022-06-17T14:16:43.000Z</time>
      </trkpt>
      <trkpt lat="49.87703" lon="4.8138">
        <ele>187</ele>
        <time>2022-06-17T14:16:44.000Z</time>
      </trkpt>
      <trkpt lat="49.87704" lon="4.8138">
        <ele>187</ele>
        <time>2022-06-17T14:16:45.000Z</time>
      </trkpt>
      <trkpt lat="49.87704" lon="4.81379">
        <ele>187</ele>
        <time>2022-06-17T14:16:46.000Z</time>
      </trkpt>
      <trkpt lat="49.87704" lon="4.81378">
        <ele>187</ele>
        <time>2022-06-17T14:16:47.000Z</time>
      </trkpt>
      <trkpt lat="49.87704" lon="4.81378">
        <ele>187</ele>
        <time>2022-06-17T14:16:48.000Z</time>
      </trkpt>
      <trkpt lat="49.87704" lon="4.81377">
        <ele>187</ele>
        <time>2022-06-17T14:16:49.000Z</time>
      </trkpt>
      <trkpt lat="49.87704" lon="4.81376">
        <ele>187</ele>
        <time>2022-06-17T14:16:50.000Z</time>
      </trkpt>
      <trkpt lat="49.87704" lon="4.81376">
        <ele>187</ele>
        <time>2022-06-17T14:16:51.000Z</time>
      </trkpt>
      <trkpt lat="49.87704" lon="4.81375">
        <ele>187</ele>
        <time>2022-06-17T14:16:52.000Z</time>
      </trkpt>
      <trkpt lat="49.87704" lon="4.81374">
        <ele>187</ele>
        <time>2022-06-17T14:16:53.000Z</time>
      </trkpt>
      <trkpt lat="49.87705" lon="4.81374">
        <ele>187</ele>
        <time>2022-06-17T14:16:54.000Z</time>
      </trkpt>
      <trkpt lat="49.87706" lon="4.81373">
        <ele>187</ele>
        <time>2022-06-17T14:16:55.000Z</time>
      </trkpt>
      <trkpt lat="49.87707" lon="4.81372">
        <ele>187</ele>
        <time>2022-06-17T14:16:56.000Z</time>
      </trkpt>
      <trkpt lat="49.87709" lon="4.81371">
        <ele>187</ele>
        <time>2022-06-17T14:16:57.000Z</time>
      </trkpt>
      <trkpt lat="49.87711" lon="4.81371">
        <ele>187</ele>
        <time>2022-06-17T14:16:58.000Z</time>
      </trkpt>
      <trkpt lat="49.87715" lon="4.81371">
        <ele>187</ele>
        <time>2022-06-17T14:16:59.000Z</time>
      </trkpt>
      <trkpt lat="49.87718" lon="4.8137">
        <ele>186</ele>
        <time>2022-06-17T14:17:00.000Z</time>
      </trkpt>
      <trkpt lat="49.87722" lon="4.81369">
        <ele>186</ele>
        <time>2022-06-17T14:17:01.000Z</time>
      </trkpt>
      <trkpt lat="49.87725" lon="4.81368">
        <ele>186</ele>
        <time>2022-06-17T14:17:02.000Z</time>
      </trkpt>
      <trkpt lat="49.87729" lon="4.81367">
        <ele>186</ele>
        <time>2022-06-17T14:17:03.000Z</time>
      </trkpt>
      <trkpt lat="49.87733" lon="4.81366">
        <ele>186</ele>
        <time>2022-06-17T14:17:04.000Z</time>
      </trkpt>
      <trkpt lat="49.87737" lon="4.81365">
        <ele>186</ele>
        <time>2022-06-17T14:17:05.000Z</time>
      </trkpt>
      <trkpt lat="49.8774" lon="4.81364">
        <ele>186</ele>
        <time>2022-06-17T14:17:06.000Z</time>
      </trkpt>
      <trkpt lat="49.87744" lon="4.81363">
        <ele>186</ele>
        <time>2022-06-17T14:17:07.000Z</time>
      </trkpt>
      <trkpt lat="49.87748" lon="4.81362">
        <ele>186</ele>
        <time>2022-06-17T14:17:08.000Z</time>
      </trkpt>
      <trkpt lat="49.87751" lon="4.8136">
        <ele>186</ele>
        <time>2022-06-17T14:17:09.000Z</time>
      </trkpt>
      <trkpt lat="49.87755" lon="4.81358">
        <ele>186</ele>
        <time>2022-06-17T14:17:10.000Z</time>
      </trkpt>
      <trkpt lat="49.87758" lon="4.81356">
        <ele>186</ele>
        <time>2022-06-17T14:17:11.000Z</time>
      </trkpt>
      <trkpt lat="49.87761" lon="4.81354">
        <ele>186</ele>
        <time>2022-06-17T14:17:12.000Z</time>
      </trkpt>
      <trkpt lat="49.87764" lon="4.81352">
        <ele>186</ele>
        <time>2022-06-17T14:17:13.000Z</time>
      </trkpt>
      <trkpt lat="49.87767" lon="4.8135">
        <ele>186</ele>
        <time>2022-06-17T14:17:14.000Z</time>
      </trkpt>
      <trkpt lat="49.87769" lon="4.81348">
        <ele>186</ele>
        <time>2022-06-17T14:17:15.000Z</time>
      </trkpt>
      <trkpt lat="49.87772" lon="4.81347">
        <ele>186</ele>
        <time>2022-06-17T14:17:16.000Z</time>
      </trkpt>
      <trkpt lat="49.87775" lon="4.81346">
        <ele>186</ele>
        <time>2022-06-17T14:17:17.000Z</time>
      </trkpt>
      <trkpt lat="49.87778" lon="4.81345">
        <ele>186</ele>
        <time>2022-06-17T14:17:18.000Z</time>
      </trkpt>
      <trkpt lat="49.87782" lon="4.81344">
        <ele>186</ele>
        <time>2022-06-17T14:17:19.000Z</time>
      </trkpt>
      <trkpt lat="49.87786" lon="4.81342">
        <ele>187</ele>
        <time>2022-06-17T14:17:20.000Z</time>
      </trkpt>
      <trkpt lat="49.87789" lon="4.81341">
        <ele>187</ele>
        <time>2022-06-17T14:17:21.000Z</time>
      </trkpt>
      <trkpt lat="49.87793" lon="4.8134">
        <ele>187</ele>
        <time>2022-06-17T14:17:22.000Z</time>
      </trkpt>
      <trkpt lat="49.87797" lon="4.81338">
        <ele>187</ele>
        <time>2022-06-17T14:17:23.000Z</time>
      </trkpt>
      <trkpt lat="49.87801" lon="4.81337">
        <ele>187</ele>
        <time>2022-06-17T14:17:24.000Z</time>
      </trkpt>
      <trkpt lat="49.87804" lon="4.81336">
        <ele>187</ele>
        <time>2022-06-17T14:17:25.000Z</time>
      </trkpt>
      <trkpt lat="49.87807" lon="4.81333">
        <ele>187</ele>
        <time>2022-06-17T14:17:26.000Z</time>
      </trkpt>
      <trkpt lat="49.87811" lon="4.81331">
        <ele>187</ele>
        <time>2022-06-17T14:17:27.000Z</time>
      </trkpt>
      <trkpt lat="49.87814" lon="4.81329">
        <ele>186</ele>
        <time>2022-06-17T14:17:28.000Z</time>
      </trkpt>
      <trkpt lat="49.87817" lon="4.81327">
        <ele>186</ele>
        <time>2022-06-17T14:17:29.000Z</time>
      </trkpt>
      <trkpt lat="49.87821" lon="4.81324">
        <ele>186</ele>
        <time>2022-06-17T14:17:30.000Z</time>
      </trkpt>
      <trkpt lat="49.87824" lon="4.81322">
        <ele>186</ele>
        <time>2022-06-17T14:17:31.000Z</time>
      </trkpt>
      <trkpt lat="49.87828" lon="4.81322">
        <ele>186</ele>
        <time>2022-06-17T14:17:32.000Z</time>
      </trkpt>
      <trkpt lat="49.87831" lon="4.81321">
        <ele>186</ele>
        <time>2022-06-17T14:17:33.000Z</time>
      </trkpt>
      <trkpt lat="49.87834" lon="4.81321">
        <ele>186</ele>
        <time>2022-06-17T14:17:34.000Z</time>
      </trkpt>
      <trkpt lat="49.87837" lon="4.8132">
        <ele>187</ele>
        <time>2022-06-17T14:17:35.000Z</time>
      </trkpt>
      <trkpt lat="49.87841" lon="4.8132">
        <ele>187</ele>
        <time>2022-06-17T14:17:36.000Z</time>
      </trkpt>
      <trkpt lat="49.87844" lon="4.8132">
        <ele>187</ele>
        <time>2022-06-17T14:17:37.000Z</time>
      </trkpt>
      <trkpt lat="49.87847" lon="4.8132">
        <ele>187</ele>
        <time>2022-06-17T14:17:38.000Z</time>
      </trkpt>
      <trkpt lat="49.8785" lon="4.81321">
        <ele>187</ele>
        <time>2022-06-17T14:17:39.000Z</time>
      </trkpt>
      <trkpt lat="49.87852" lon="4.81321">
        <ele>187</ele>
        <time>2022-06-17T14:17:40.000Z</time>
      </trkpt>
      <trkpt lat="49.87855" lon="4.81322">
        <ele>187</ele>
        <time>2022-06-17T14:17:41.000Z</time>
      </trkpt>
      <trkpt lat="49.87858" lon="4.81322">
        <ele>187</ele>
        <time>2022-06-17T14:17:42.000Z</time>
      </trkpt>
      <trkpt lat="49.87861" lon="4.81323">
        <ele>188</ele>
        <time>2022-06-17T14:17:43.000Z</time>
      </trkpt>
      <trkpt lat="49.87863" lon="4.81323">
        <ele>188</ele>
        <time>2022-06-17T14:17:44.000Z</time>
      </trkpt>
      <trkpt lat="49.87866" lon="4.81324">
        <ele>188</ele>
        <time>2022-06-17T14:17:45.000Z</time>
      </trkpt>
      <trkpt lat="49.87868" lon="4.81324">
        <ele>188</ele>
        <time>2022-06-17T14:17:46.000Z</time>
      </trkpt>
      <trkpt lat="49.87871" lon="4.81325">
        <ele>188</ele>
        <time>2022-06-17T14:17:47.000Z</time>
      </trkpt>
      <trkpt lat="49.87874" lon="4.81326">
        <ele>188</ele>
        <time>2022-06-17T14:17:48.000Z</time>
      </trkpt>
      <trkpt lat="49.87877" lon="4.81327">
        <ele>188</ele>
        <time>2022-06-17T14:17:49.000Z</time>
      </trkpt>
      <trkpt lat="49.87879" lon="4.81327">
        <ele>188</ele>
        <time>2022-06-17T14:17:50.000Z</time>
      </trkpt>
      <trkpt lat="49.87881" lon="4.81328">
        <ele>188</ele>
        <time>2022-06-17T14:17:51.000Z</time>
      </trkpt>
      <trkpt lat="49.87884" lon="4.81329">
        <ele>188</ele>
        <time>2022-06-17T14:17:52.000Z</time>
      </trkpt>
      <trkpt lat="49.87886" lon="4.81329">
        <ele>188</ele>
        <time>2022-06-17T14:17:53.000Z</time>
      </trkpt>
      <trkpt lat="49.87889" lon="4.81329">
        <ele>189</ele>
        <time>2022-06-17T14:17:54.000Z</time>
      </trkpt>
      <trkpt lat="49.87891" lon="4.8133">
        <ele>189</ele>
        <time>2022-06-17T14:17:55.000Z</time>
      </trkpt>
      <trkpt lat="49.87893" lon="4.8133">
        <ele>189</ele>
        <time>2022-06-17T14:17:56.000Z</time>
      </trkpt>
      <trkpt lat="49.87896" lon="4.8133">
        <ele>189</ele>
        <time>2022-06-17T14:17:57.000Z</time>
      </trkpt>
      <trkpt lat="49.87897" lon="4.8133">
        <ele>189</ele>
        <time>2022-06-17T14:17:58.000Z</time>
      </trkpt>
      <trkpt lat="49.87898" lon="4.8133">
        <ele>190</ele>
        <time>2022-06-17T14:17:59.000Z</time>
      </trkpt>
      <trkpt lat="49.879" lon="4.81329">
        <ele>190</ele>
        <time>2022-06-17T14:18:00.000Z</time>
      </trkpt>
      <trkpt lat="49.87901" lon="4.81329">
        <ele>190</ele>
        <time>2022-06-17T14:18:01.000Z</time>
      </trkpt>
      <trkpt lat="49.87902" lon="4.81328">
        <ele>190</ele>
        <time>2022-06-17T14:18:02.000Z</time>
      </trkpt>
      <trkpt lat="49.87903" lon="4.81328">
        <ele>190</ele>
        <time>2022-06-17T14:18:03.000Z</time>
      </trkpt>
      <trkpt lat="49.87903" lon="4.81328">
        <ele>190</ele>
        <time>2022-06-17T14:18:04.000Z</time>
      </trkpt>
      <trkpt lat="49.87904" lon="4.81328">
        <ele>190</ele>
        <time>2022-06-17T14:18:05.000Z</time>
      </trkpt>
      <trkpt lat="49.87904" lon="4.81328">
        <ele>190</ele>
        <time>2022-06-17T14:18:06.000Z</time>
      </trkpt>
      <trkpt lat="49.87904" lon="4.81328">
        <ele>190</ele>
        <time>2022-06-17T14:18:07.000Z</time>
      </trkpt>
      <trkpt lat="49.87904" lon="4.81328">
        <ele>190</ele>
        <time>2022-06-17T14:18:08.000Z</time>
      </trkpt>
      <trkpt lat="49.87904" lon="4.81328">
        <ele>191</ele>
        <time>2022-06-17T14:18:09.000Z</time>
      </trkpt>
      <trkpt lat="49.87904" lon="4.81328">
        <ele>191</ele>
        <time>2022-06-17T14:18:10.000Z</time>
      </trkpt>
      <trkpt lat="49.87904" lon="4.81327">
        <ele>191</ele>
        <time>2022-06-17T14:18:11.000Z</time>
      </trkpt>
      <trkpt lat="49.87904" lon="4.81328">
        <ele>191</ele>
        <time>2022-06-17T14:18:12.000Z</time>
      </trkpt>
      <trkpt lat="49.87904" lon="4.81328">
        <ele>191</ele>
        <time>2022-06-17T14:18:13.000Z</time>
      </trkpt>
      <trkpt lat="49.87904" lon="4.81328">
        <ele>191</ele>
        <time>2022-06-17T14:18:14.000Z</time>
      </trkpt>
      <trkpt lat="49.87904" lon="4.81328">
        <ele>191</ele>
        <time>2022-06-17T14:18:15.000Z</time>
      </trkpt>
      <trkpt lat="49.87905" lon="4.81328">
        <ele>191</ele>
        <time>2022-06-17T14:18:16.000Z</time>
      </trkpt>
      <trkpt lat="49.87905" lon="4.81328">
        <ele>192</ele>
        <time>2022-06-17T14:18:17.000Z</time>
      </trkpt>
      <trkpt lat="49.87905" lon="4.81328">
        <ele>192</ele>
        <time>2022-06-17T14:18:18.000Z</time>
      </trkpt>
      <trkpt lat="49.87905" lon="4.81328">
        <ele>192</ele>
        <time>2022-06-17T14:18:19.000Z</time>
      </trkpt>
      <trkpt lat="49.87905" lon="4.81328">
        <ele>192</ele>
        <time>2022-06-17T14:18:20.000Z</time>
      </trkpt>
      <trkpt lat="49.87905" lon="4.81328">
        <ele>192</ele>
        <time>2022-06-17T14:18:21.000Z</time>
      </trkpt>
      <trkpt lat="49.87905" lon="4.81328">
        <ele>192</ele>
        <time>2022-06-17T14:18:22.000Z</time>
      </trkpt>
      <trkpt lat="49.87905" lon="4.81328">
        <ele>192</ele>
        <time>2022-06-17T14:18:23.000Z</time>
      </trkpt>
      <trkpt lat="49.87905" lon="4.81328">
        <ele>192</ele>
        <time>2022-06-17T14:18:24.000Z</time>
      </trkpt>
      <trkpt lat="49.87905" lon="4.81328">
        <ele>192</ele>
        <time>2022-06-17T14:18:25.000Z</time>
      </trkpt>
      <trkpt lat="49.87905" lon="4.81327">
        <ele>192</ele>
        <time>2022-06-17T14:18:26.000Z</time>
      </trkpt>
      <trkpt lat="49.87906" lon="4.81328">
        <ele>192</ele>
        <time>2022-06-17T14:18:27.000Z</time>
      </trkpt>
      <trkpt lat="49.87907" lon="4.81329">
        <ele>192</ele>
        <time>2022-06-17T14:18:28.000Z</time>
      </trkpt>
      <trkpt lat="49.87908" lon="4.81329">
        <ele>192</ele>
        <time>2022-06-17T14:18:29.000Z</time>
      </trkpt>
      <trkpt lat="49.87909" lon="4.8133">
        <ele>192</ele>
        <time>2022-06-17T14:18:30.000Z</time>
      </trkpt>
      <trkpt lat="49.87911" lon="4.8133">
        <ele>192</ele>
        <time>2022-06-17T14:18:31.000Z</time>
      </trkpt>
      <trkpt lat="49.87912" lon="4.81329">
        <ele>192</ele>
        <time>2022-06-17T14:18:32.000Z</time>
      </trkpt>
      <trkpt lat="49.87913" lon="4.81329">
        <ele>192</ele>
        <time>2022-06-17T14:18:33.000Z</time>
      </trkpt>
      <trkpt lat="49.87914" lon="4.81329">
        <ele>192</ele>
        <time>2022-06-17T14:18:34.000Z</time>
      </trkpt>
      <trkpt lat="49.87915" lon="4.81329">
        <ele>192</ele>
        <time>2022-06-17T14:18:35.000Z</time>
      </trkpt>
      <trkpt lat="49.87916" lon="4.81329">
        <ele>192</ele>
        <time>2022-06-17T14:18:36.000Z</time>
      </trkpt>
      <trkpt lat="49.87918" lon="4.81328">
        <ele>192</ele>
        <time>2022-06-17T14:18:37.000Z</time>
      </trkpt>
      <trkpt lat="49.8792" lon="4.81327">
        <ele>192</ele>
        <time>2022-06-17T14:18:38.000Z</time>
      </trkpt>
      <trkpt lat="49.87922" lon="4.81327">
        <ele>192</ele>
        <time>2022-06-17T14:18:39.000Z</time>
      </trkpt>
      <trkpt lat="49.87925" lon="4.81327">
        <ele>192</ele>
        <time>2022-06-17T14:18:40.000Z</time>
      </trkpt>
      <trkpt lat="49.87927" lon="4.81328">
        <ele>192</ele>
        <time>2022-06-17T14:18:41.000Z</time>
      </trkpt>
      <trkpt lat="49.8793" lon="4.81327">
        <ele>193</ele>
        <time>2022-06-17T14:18:42.000Z</time>
      </trkpt>
      <trkpt lat="49.87932" lon="4.81327">
        <ele>193</ele>
        <time>2022-06-17T14:18:43.000Z</time>
      </trkpt>
      <trkpt lat="49.87935" lon="4.81327">
        <ele>193</ele>
        <time>2022-06-17T14:18:44.000Z</time>
      </trkpt>
      <trkpt lat="49.87938" lon="4.81327">
        <ele>194</ele>
        <time>2022-06-17T14:18:45.000Z</time>
      </trkpt>
      <trkpt lat="49.87941" lon="4.81327">
        <ele>194</ele>
        <time>2022-06-17T14:18:46.000Z</time>
      </trkpt>
      <trkpt lat="49.87944" lon="4.81328">
        <ele>194</ele>
        <time>2022-06-17T14:18:47.000Z</time>
      </trkpt>
      <trkpt lat="49.87947" lon="4.81329">
        <ele>194</ele>
        <time>2022-06-17T14:18:48.000Z</time>
      </trkpt>
      <trkpt lat="49.8795" lon="4.81329">
        <ele>194</ele>
        <time>2022-06-17T14:18:49.000Z</time>
      </trkpt>
      <trkpt lat="49.87953" lon="4.81329">
        <ele>195</ele>
        <time>2022-06-17T14:18:50.000Z</time>
      </trkpt>
      <trkpt lat="49.87956" lon="4.8133">
        <ele>195</ele>
        <time>2022-06-17T14:18:51.000Z</time>
      </trkpt>
      <trkpt lat="49.87959" lon="4.81331">
        <ele>195</ele>
        <time>2022-06-17T14:18:52.000Z</time>
      </trkpt>
      <trkpt lat="49.87962" lon="4.81332">
        <ele>195</ele>
        <time>2022-06-17T14:18:53.000Z</time>
      </trkpt>
      <trkpt lat="49.87965" lon="4.81332">
        <ele>195</ele>
        <time>2022-06-17T14:18:54.000Z</time>
      </trkpt>
      <trkpt lat="49.87968" lon="4.81332">
        <ele>195</ele>
        <time>2022-06-17T14:18:55.000Z</time>
      </trkpt>
      <trkpt lat="49.87972" lon="4.81333">
        <ele>195</ele>
        <time>2022-06-17T14:18:56.000Z</time>
      </trkpt>
      <trkpt lat="49.87975" lon="4.81334">
        <ele>196</ele>
        <time>2022-06-17T14:18:57.000Z</time>
      </trkpt>
      <trkpt lat="49.87978" lon="4.81335">
        <ele>196</ele>
        <time>2022-06-17T14:18:58.000Z</time>
      </trkpt>
      <trkpt lat="49.8798" lon="4.81336">
        <ele>196</ele>
        <time>2022-06-17T14:18:59.000Z</time>
      </trkpt>
      <trkpt lat="49.87983" lon="4.81336">
        <ele>196</ele>
        <time>2022-06-17T14:19:00.000Z</time>
      </trkpt>
      <trkpt lat="49.87986" lon="4.81338">
        <ele>196</ele>
        <time>2022-06-17T14:19:01.000Z</time>
      </trkpt>
      <trkpt lat="49.8799" lon="4.81338">
        <ele>197</ele>
        <time>2022-06-17T14:19:02.000Z</time>
      </trkpt>
      <trkpt lat="49.87994" lon="4.81339">
        <ele>197</ele>
        <time>2022-06-17T14:19:03.000Z</time>
      </trkpt>
      <trkpt lat="49.87997" lon="4.8134">
        <ele>197</ele>
        <time>2022-06-17T14:19:04.000Z</time>
      </trkpt>
      <trkpt lat="49.88001" lon="4.81341">
        <ele>197</ele>
        <time>2022-06-17T14:19:05.000Z</time>
      </trkpt>
      <trkpt lat="49.88005" lon="4.81342">
        <ele>198</ele>
        <time>2022-06-17T14:19:06.000Z</time>
      </trkpt>
      <trkpt lat="49.88008" lon="4.81343">
        <ele>198</ele>
        <time>2022-06-17T14:19:07.000Z</time>
      </trkpt>
      <trkpt lat="49.88011" lon="4.81344">
        <ele>199</ele>
        <time>2022-06-17T14:19:08.000Z</time>
      </trkpt>
      <trkpt lat="49.88015" lon="4.81344">
        <ele>199</ele>
        <time>2022-06-17T14:19:09.000Z</time>
      </trkpt>
      <trkpt lat="49.88018" lon="4.81344">
        <ele>199</ele>
        <time>2022-06-17T14:19:10.000Z</time>
      </trkpt>
      <trkpt lat="49.88021" lon="4.81344">
        <ele>200</ele>
        <time>2022-06-17T14:19:11.000Z</time>
      </trkpt>
      <trkpt lat="49.88025" lon="4.81343">
        <ele>200</ele>
        <time>2022-06-17T14:19:12.000Z</time>
      </trkpt>
      <trkpt lat="49.88028" lon="4.81342">
        <ele>201</ele>
        <time>2022-06-17T14:19:13.000Z</time>
      </trkpt>
      <trkpt lat="49.88031" lon="4.81341">
        <ele>201</ele>
        <time>2022-06-17T14:19:14.000Z</time>
      </trkpt>
      <trkpt lat="49.88034" lon="4.8134">
        <ele>202</ele>
        <time>2022-06-17T14:19:15.000Z</time>
      </trkpt>
      <trkpt lat="49.88037" lon="4.81338">
        <ele>202</ele>
        <time>2022-06-17T14:19:16.000Z</time>
      </trkpt>
      <trkpt lat="49.88041" lon="4.81337">
        <ele>203</ele>
        <time>2022-06-17T14:19:17.000Z</time>
      </trkpt>
      <trkpt lat="49.88043" lon="4.81336">
        <ele>203</ele>
        <time>2022-06-17T14:19:18.000Z</time>
      </trkpt>
      <trkpt lat="49.88046" lon="4.81336">
        <ele>203</ele>
        <time>2022-06-17T14:19:19.000Z</time>
      </trkpt>
      <trkpt lat="49.88049" lon="4.81335">
        <ele>204</ele>
        <time>2022-06-17T14:19:20.000Z</time>
      </trkpt>
      <trkpt lat="49.88051" lon="4.81334">
        <ele>204</ele>
        <time>2022-06-17T14:19:21.000Z</time>
      </trkpt>
      <trkpt lat="49.88054" lon="4.81333">
        <ele>204</ele>
        <time>2022-06-17T14:19:22.000Z</time>
      </trkpt>
      <trkpt lat="49.88057" lon="4.81332">
        <ele>204</ele>
        <time>2022-06-17T14:19:23.000Z</time>
      </trkpt>
      <trkpt lat="49.88059" lon="4.81331">
        <ele>204</ele>
        <time>2022-06-17T14:19:24.000Z</time>
      </trkpt>
      <trkpt lat="49.88062" lon="4.8133">
        <ele>205</ele>
        <time>2022-06-17T14:19:25.000Z</time>
      </trkpt>
      <trkpt lat="49.88065" lon="4.81329">
        <ele>205</ele>
        <time>2022-06-17T14:19:26.000Z</time>
      </trkpt>
      <trkpt lat="49.88068" lon="4.81329">
        <ele>205</ele>
        <time>2022-06-17T14:19:27.000Z</time>
      </trkpt>
      <trkpt lat="49.88071" lon="4.81329">
        <ele>205</ele>
        <time>2022-06-17T14:19:28.000Z</time>
      </trkpt>
      <trkpt lat="49.88074" lon="4.81328">
        <ele>206</ele>
        <time>2022-06-17T14:19:29.000Z</time>
      </trkpt>
      <trkpt lat="49.88077" lon="4.81326">
        <ele>206</ele>
        <time>2022-06-17T14:19:30.000Z</time>
      </trkpt>
      <trkpt lat="49.8808" lon="4.81325">
        <ele>206</ele>
        <time>2022-06-17T14:19:31.000Z</time>
      </trkpt>
      <trkpt lat="49.88082" lon="4.81325">
        <ele>207</ele>
        <time>2022-06-17T14:19:32.000Z</time>
      </trkpt>
      <trkpt lat="49.88085" lon="4.81325">
        <ele>207</ele>
        <time>2022-06-17T14:19:33.000Z</time>
      </trkpt>
      <trkpt lat="49.88088" lon="4.81324">
        <ele>207</ele>
        <time>2022-06-17T14:19:34.000Z</time>
      </trkpt>
      <trkpt lat="49.88091" lon="4.81323">
        <ele>208</ele>
        <time>2022-06-17T14:19:35.000Z</time>
      </trkpt>
      <trkpt lat="49.88094" lon="4.81322">
        <ele>208</ele>
        <time>2022-06-17T14:19:36.000Z</time>
      </trkpt>
      <trkpt lat="49.88097" lon="4.81321">
        <ele>208</ele>
        <time>2022-06-17T14:19:37.000Z</time>
      </trkpt>
      <trkpt lat="49.88099" lon="4.8132">
        <ele>209</ele>
        <time>2022-06-17T14:19:38.000Z</time>
      </trkpt>
      <trkpt lat="49.88102" lon="4.81318">
        <ele>209</ele>
        <time>2022-06-17T14:19:39.000Z</time>
      </trkpt>
      <trkpt lat="49.88104" lon="4.81317">
        <ele>209</ele>
        <time>2022-06-17T14:19:40.000Z</time>
      </trkpt>
      <trkpt lat="49.88107" lon="4.81316">
        <ele>210</ele>
        <time>2022-06-17T14:19:41.000Z</time>
      </trkpt>
      <trkpt lat="49.8811" lon="4.81316">
        <ele>210</ele>
        <time>2022-06-17T14:19:42.000Z</time>
      </trkpt>
      <trkpt lat="49.88112" lon="4.81315">
        <ele>210</ele>
        <time>2022-06-17T14:19:43.000Z</time>
      </trkpt>
      <trkpt lat="49.88114" lon="4.81313">
        <ele>211</ele>
        <time>2022-06-17T14:19:44.000Z</time>
      </trkpt>
      <trkpt lat="49.88117" lon="4.81311">
        <ele>211</ele>
        <time>2022-06-17T14:19:45.000Z</time>
      </trkpt>
      <trkpt lat="49.8812" lon="4.8131">
        <ele>211</ele>
        <time>2022-06-17T14:19:46.000Z</time>
      </trkpt>
      <trkpt lat="49.88123" lon="4.81309">
        <ele>211</ele>
        <time>2022-06-17T14:19:47.000Z</time>
      </trkpt>
      <trkpt lat="49.88127" lon="4.81308">
        <ele>211</ele>
        <time>2022-06-17T14:19:48.000Z</time>
      </trkpt>
      <trkpt lat="49.88129" lon="4.81306">
        <ele>211</ele>
        <time>2022-06-17T14:19:49.000Z</time>
      </trkpt>
      <trkpt lat="49.88132" lon="4.81305">
        <ele>211</ele>
        <time>2022-06-17T14:19:50.000Z</time>
      </trkpt>
      <trkpt lat="49.88135" lon="4.81304">
        <ele>211</ele>
        <time>2022-06-17T14:19:51.000Z</time>
      </trkpt>
      <trkpt lat="49.88138" lon="4.81303">
        <ele>211</ele>
        <time>2022-06-17T14:19:52.000Z</time>
      </trkpt>
      <trkpt lat="49.88141" lon="4.81303">
        <ele>212</ele>
        <time>2022-06-17T14:19:53.000Z</time>
      </trkpt>
      <trkpt lat="49.88144" lon="4.81302">
        <ele>212</ele>
        <time>2022-06-17T14:19:54.000Z</time>
      </trkpt>
      <trkpt lat="49.88147" lon="4.81301">
        <ele>212</ele>
        <time>2022-06-17T14:19:55.000Z</time>
      </trkpt>
      <trkpt lat="49.8815" lon="4.813">
        <ele>212</ele>
        <time>2022-06-17T14:19:56.000Z</time>
      </trkpt>
      <trkpt lat="49.88153" lon="4.813">
        <ele>212</ele>
        <time>2022-06-17T14:19:57.000Z</time>
      </trkpt>
      <trkpt lat="49.88156" lon="4.813">
        <ele>212</ele>
        <time>2022-06-17T14:19:58.000Z</time>
      </trkpt>
      <trkpt lat="49.8816" lon="4.813">
        <ele>212</ele>
        <time>2022-06-17T14:19:59.000Z</time>
      </trkpt>
      <trkpt lat="49.88163" lon="4.81299">
        <ele>212</ele>
        <time>2022-06-17T14:20:00.000Z</time>
      </trkpt>
      <trkpt lat="49.88166" lon="4.81299">
        <ele>212</ele>
        <time>2022-06-17T14:20:01.000Z</time>
      </trkpt>
      <trkpt lat="49.88169" lon="4.81299">
        <ele>213</ele>
        <time>2022-06-17T14:20:02.000Z</time>
      </trkpt>
      <trkpt lat="49.88172" lon="4.81298">
        <ele>213</ele>
        <time>2022-06-17T14:20:03.000Z</time>
      </trkpt>
      <trkpt lat="49.88174" lon="4.81296">
        <ele>213</ele>
        <time>2022-06-17T14:20:04.000Z</time>
      </trkpt>
      <trkpt lat="49.88177" lon="4.81294">
        <ele>213</ele>
        <time>2022-06-17T14:20:05.000Z</time>
      </trkpt>
      <trkpt lat="49.8818" lon="4.81293">
        <ele>214</ele>
        <time>2022-06-17T14:20:06.000Z</time>
      </trkpt>
      <trkpt lat="49.88182" lon="4.81291">
        <ele>214</ele>
        <time>2022-06-17T14:20:07.000Z</time>
      </trkpt>
      <trkpt lat="49.88184" lon="4.8129">
        <ele>214</ele>
        <time>2022-06-17T14:20:08.000Z</time>
      </trkpt>
      <trkpt lat="49.88187" lon="4.81289">
        <ele>214</ele>
        <time>2022-06-17T14:20:09.000Z</time>
      </trkpt>
      <trkpt lat="49.8819" lon="4.81289">
        <ele>214</ele>
        <time>2022-06-17T14:20:10.000Z</time>
      </trkpt>
      <trkpt lat="49.88192" lon="4.81289">
        <ele>214</ele>
        <time>2022-06-17T14:20:11.000Z</time>
      </trkpt>
      <trkpt lat="49.88195" lon="4.81289">
        <ele>215</ele>
        <time>2022-06-17T14:20:12.000Z</time>
      </trkpt>
      <trkpt lat="49.88198" lon="4.81288">
        <ele>215</ele>
        <time>2022-06-17T14:20:13.000Z</time>
      </trkpt>
      <trkpt lat="49.88201" lon="4.81287">
        <ele>215</ele>
        <time>2022-06-17T14:20:14.000Z</time>
      </trkpt>
      <trkpt lat="49.88203" lon="4.81287">
        <ele>215</ele>
        <time>2022-06-17T14:20:15.000Z</time>
      </trkpt>
      <trkpt lat="49.88206" lon="4.81286">
        <ele>215</ele>
        <time>2022-06-17T14:20:16.000Z</time>
      </trkpt>
      <trkpt lat="49.88208" lon="4.81284">
        <ele>216</ele>
        <time>2022-06-17T14:20:17.000Z</time>
      </trkpt>
      <trkpt lat="49.88211" lon="4.81283">
        <ele>216</ele>
        <time>2022-06-17T14:20:18.000Z</time>
      </trkpt>
      <trkpt lat="49.88214" lon="4.81283">
        <ele>216</ele>
        <time>2022-06-17T14:20:19.000Z</time>
      </trkpt>
      <trkpt lat="49.88217" lon="4.81282">
        <ele>216</ele>
        <time>2022-06-17T14:20:20.000Z</time>
      </trkpt>
      <trkpt lat="49.8822" lon="4.81282">
        <ele>217</ele>
        <time>2022-06-17T14:20:21.000Z</time>
      </trkpt>
      <trkpt lat="49.88222" lon="4.81282">
        <ele>217</ele>
        <time>2022-06-17T14:20:22.000Z</time>
      </trkpt>
      <trkpt lat="49.88225" lon="4.8128">
        <ele>217</ele>
        <time>2022-06-17T14:20:23.000Z</time>
      </trkpt>
      <trkpt lat="49.88227" lon="4.81279">
        <ele>217</ele>
        <time>2022-06-17T14:20:24.000Z</time>
      </trkpt>
      <trkpt lat="49.8823" lon="4.81279">
        <ele>217</ele>
        <time>2022-06-17T14:20:25.000Z</time>
      </trkpt>
      <trkpt lat="49.88233" lon="4.81279">
        <ele>218</ele>
        <time>2022-06-17T14:20:26.000Z</time>
      </trkpt>
      <trkpt lat="49.88235" lon="4.81278">
        <ele>218</ele>
        <time>2022-06-17T14:20:27.000Z</time>
      </trkpt>
      <trkpt lat="49.88238" lon="4.81278">
        <ele>218</ele>
        <time>2022-06-17T14:20:28.000Z</time>
      </trkpt>
      <trkpt lat="49.88241" lon="4.81278">
        <ele>218</ele>
        <time>2022-06-17T14:20:29.000Z</time>
      </trkpt>
      <trkpt lat="49.88244" lon="4.81279">
        <ele>218</ele>
        <time>2022-06-17T14:20:30.000Z</time>
      </trkpt>
      <trkpt lat="49.88248" lon="4.81279">
        <ele>218</ele>
        <time>2022-06-17T14:20:31.000Z</time>
      </trkpt>
      <trkpt lat="49.88251" lon="4.8128">
        <ele>218</ele>
        <time>2022-06-17T14:20:32.000Z</time>
      </trkpt>
      <trkpt lat="49.88254" lon="4.8128">
        <ele>218</ele>
        <time>2022-06-17T14:20:33.000Z</time>
      </trkpt>
      <trkpt lat="49.88257" lon="4.8128">
        <ele>219</ele>
        <time>2022-06-17T14:20:34.000Z</time>
      </trkpt>
      <trkpt lat="49.8826" lon="4.8128">
        <ele>219</ele>
        <time>2022-06-17T14:20:35.000Z</time>
      </trkpt>
      <trkpt lat="49.88262" lon="4.81281">
        <ele>219</ele>
        <time>2022-06-17T14:20:36.000Z</time>
      </trkpt>
      <trkpt lat="49.88265" lon="4.8128">
        <ele>219</ele>
        <time>2022-06-17T14:20:37.000Z</time>
      </trkpt>
      <trkpt lat="49.88268" lon="4.8128">
        <ele>219</ele>
        <time>2022-06-17T14:20:38.000Z</time>
      </trkpt>
      <trkpt lat="49.88271" lon="4.8128">
        <ele>219</ele>
        <time>2022-06-17T14:20:39.000Z</time>
      </trkpt>
      <trkpt lat="49.88274" lon="4.8128">
        <ele>219</ele>
        <time>2022-06-17T14:20:40.000Z</time>
      </trkpt>
      <trkpt lat="49.88277" lon="4.81281">
        <ele>219</ele>
        <time>2022-06-17T14:20:41.000Z</time>
      </trkpt>
      <trkpt lat="49.88281" lon="4.81281">
        <ele>220</ele>
        <time>2022-06-17T14:20:42.000Z</time>
      </trkpt>
      <trkpt lat="49.88284" lon="4.81281">
        <ele>220</ele>
        <time>2022-06-17T14:20:43.000Z</time>
      </trkpt>
      <trkpt lat="49.88287" lon="4.81281">
        <ele>220</ele>
        <time>2022-06-17T14:20:44.000Z</time>
      </trkpt>
      <trkpt lat="49.8829" lon="4.81282">
        <ele>220</ele>
        <time>2022-06-17T14:20:45.000Z</time>
      </trkpt>
      <trkpt lat="49.88292" lon="4.81281">
        <ele>220</ele>
        <time>2022-06-17T14:20:46.000Z</time>
      </trkpt>
      <trkpt lat="49.88295" lon="4.81282">
        <ele>220</ele>
        <time>2022-06-17T14:20:47.000Z</time>
      </trkpt>
      <trkpt lat="49.88298" lon="4.81282">
        <ele>220</ele>
        <time>2022-06-17T14:20:48.000Z</time>
      </trkpt>
      <trkpt lat="49.883" lon="4.81282">
        <ele>220</ele>
        <time>2022-06-17T14:20:49.000Z</time>
      </trkpt>
      <trkpt lat="49.88303" lon="4.81282">
        <ele>221</ele>
        <time>2022-06-17T14:20:50.000Z</time>
      </trkpt>
      <trkpt lat="49.88306" lon="4.81283">
        <ele>221</ele>
        <time>2022-06-17T14:20:51.000Z</time>
      </trkpt>
      <trkpt lat="49.88309" lon="4.81284">
        <ele>221</ele>
        <time>2022-06-17T14:20:52.000Z</time>
      </trkpt>
      <trkpt lat="49.88311" lon="4.81285">
        <ele>221</ele>
        <time>2022-06-17T14:20:53.000Z</time>
      </trkpt>
      <trkpt lat="49.88314" lon="4.81286">
        <ele>221</ele>
        <time>2022-06-17T14:20:54.000Z</time>
      </trkpt>
      <trkpt lat="49.88317" lon="4.81286">
        <ele>221</ele>
        <time>2022-06-17T14:20:55.000Z</time>
      </trkpt>
      <trkpt lat="49.88319" lon="4.81287">
        <ele>222</ele>
        <time>2022-06-17T14:20:56.000Z</time>
      </trkpt>
      <trkpt lat="49.88322" lon="4.81288">
        <ele>222</ele>
        <time>2022-06-17T14:20:57.000Z</time>
      </trkpt>
      <trkpt lat="49.88325" lon="4.81289">
        <ele>222</ele>
        <time>2022-06-17T14:20:58.000Z</time>
      </trkpt>
      <trkpt lat="49.88328" lon="4.8129">
        <ele>222</ele>
        <time>2022-06-17T14:20:59.000Z</time>
      </trkpt>
      <trkpt lat="49.88331" lon="4.81291">
        <ele>222</ele>
        <time>2022-06-17T14:21:00.000Z</time>
      </trkpt>
      <trkpt lat="49.88334" lon="4.81293">
        <ele>222</ele>
        <time>2022-06-17T14:21:01.000Z</time>
      </trkpt>
      <trkpt lat="49.88337" lon="4.81294">
        <ele>223</ele>
        <time>2022-06-17T14:21:02.000Z</time>
      </trkpt>
      <trkpt lat="49.88341" lon="4.81296">
        <ele>223</ele>
        <time>2022-06-17T14:21:03.000Z</time>
      </trkpt>
      <trkpt lat="49.88344" lon="4.81298">
        <ele>223</ele>
        <time>2022-06-17T14:21:04.000Z</time>
      </trkpt>
      <trkpt lat="49.88348" lon="4.81299">
        <ele>223</ele>
        <time>2022-06-17T14:21:05.000Z</time>
      </trkpt>
      <trkpt lat="49.88351" lon="4.81301">
        <ele>223</ele>
        <time>2022-06-17T14:21:06.000Z</time>
      </trkpt>
      <trkpt lat="49.88355" lon="4.81303">
        <ele>223</ele>
        <time>2022-06-17T14:21:07.000Z</time>
      </trkpt>
      <trkpt lat="49.88359" lon="4.81304">
        <ele>223</ele>
        <time>2022-06-17T14:21:08.000Z</time>
      </trkpt>
      <trkpt lat="49.88362" lon="4.81306">
        <ele>223</ele>
        <time>2022-06-17T14:21:09.000Z</time>
      </trkpt>
      <trkpt lat="49.88366" lon="4.81307">
        <ele>223</ele>
        <time>2022-06-17T14:21:10.000Z</time>
      </trkpt>
      <trkpt lat="49.88369" lon="4.81309">
        <ele>223</ele>
        <time>2022-06-17T14:21:11.000Z</time>
      </trkpt>
      <trkpt lat="49.88372" lon="4.8131">
        <ele>223</ele>
        <time>2022-06-17T14:21:12.000Z</time>
      </trkpt>
      <trkpt lat="49.88375" lon="4.81311">
        <ele>224</ele>
        <time>2022-06-17T14:21:13.000Z</time>
      </trkpt>
      <trkpt lat="49.88378" lon="4.81312">
        <ele>224</ele>
        <time>2022-06-17T14:21:14.000Z</time>
      </trkpt>
      <trkpt lat="49.88381" lon="4.81313">
        <ele>224</ele>
        <time>2022-06-17T14:21:15.000Z</time>
      </trkpt>
      <trkpt lat="49.88383" lon="4.81315">
        <ele>224</ele>
        <time>2022-06-17T14:21:16.000Z</time>
      </trkpt>
      <trkpt lat="49.88386" lon="4.81316">
        <ele>224</ele>
        <time>2022-06-17T14:21:17.000Z</time>
      </trkpt>
      <trkpt lat="49.88388" lon="4.81317">
        <ele>224</ele>
        <time>2022-06-17T14:21:18.000Z</time>
      </trkpt>
      <trkpt lat="49.8839" lon="4.81318">
        <ele>224</ele>
        <time>2022-06-17T14:21:19.000Z</time>
      </trkpt>
      <trkpt lat="49.88391" lon="4.81318">
        <ele>224</ele>
        <time>2022-06-17T14:21:20.000Z</time>
      </trkpt>
      <trkpt lat="49.88393" lon="4.81318">
        <ele>224</ele>
        <time>2022-06-17T14:21:21.000Z</time>
      </trkpt>
      <trkpt lat="49.88396" lon="4.81319">
        <ele>224</ele>
        <time>2022-06-17T14:21:22.000Z</time>
      </trkpt>
      <trkpt lat="49.88399" lon="4.81319">
        <ele>224</ele>
        <time>2022-06-17T14:21:23.000Z</time>
      </trkpt>
      <trkpt lat="49.88401" lon="4.8132">
        <ele>224</ele>
        <time>2022-06-17T14:21:24.000Z</time>
      </trkpt>
      <trkpt lat="49.88403" lon="4.81321">
        <ele>225</ele>
        <time>2022-06-17T14:21:25.000Z</time>
      </trkpt>
      <trkpt lat="49.88406" lon="4.81323">
        <ele>225</ele>
        <time>2022-06-17T14:21:26.000Z</time>
      </trkpt>
      <trkpt lat="49.88407" lon="4.81324">
        <ele>225</ele>
        <time>2022-06-17T14:21:27.000Z</time>
      </trkpt>
      <trkpt lat="49.88409" lon="4.81326">
        <ele>225</ele>
        <time>2022-06-17T14:21:28.000Z</time>
      </trkpt>
      <trkpt lat="49.88412" lon="4.81326">
        <ele>226</ele>
        <time>2022-06-17T14:21:29.000Z</time>
      </trkpt>
      <trkpt lat="49.88414" lon="4.81327">
        <ele>226</ele>
        <time>2022-06-17T14:21:30.000Z</time>
      </trkpt>
      <trkpt lat="49.88416" lon="4.81329">
        <ele>226</ele>
        <time>2022-06-17T14:21:31.000Z</time>
      </trkpt>
      <trkpt lat="49.88418" lon="4.81331">
        <ele>227</ele>
        <time>2022-06-17T14:21:32.000Z</time>
      </trkpt>
      <trkpt lat="49.8842" lon="4.81333">
        <ele>227</ele>
        <time>2022-06-17T14:21:33.000Z</time>
      </trkpt>
      <trkpt lat="49.88422" lon="4.81335">
        <ele>227</ele>
        <time>2022-06-17T14:21:34.000Z</time>
      </trkpt>
      <trkpt lat="49.88424" lon="4.81337">
        <ele>227</ele>
        <time>2022-06-17T14:21:35.000Z</time>
      </trkpt>
      <trkpt lat="49.88426" lon="4.81339">
        <ele>228</ele>
        <time>2022-06-17T14:21:36.000Z</time>
      </trkpt>
      <trkpt lat="49.88428" lon="4.8134">
        <ele>228</ele>
        <time>2022-06-17T14:21:37.000Z</time>
      </trkpt>
      <trkpt lat="49.8843" lon="4.81343">
        <ele>228</ele>
        <time>2022-06-17T14:21:38.000Z</time>
      </trkpt>
      <trkpt lat="49.88432" lon="4.81345">
        <ele>228</ele>
        <time>2022-06-17T14:21:39.000Z</time>
      </trkpt>
      <trkpt lat="49.88433" lon="4.81348">
        <ele>228</ele>
        <time>2022-06-17T14:21:40.000Z</time>
      </trkpt>
      <trkpt lat="49.88434" lon="4.81351">
        <ele>229</ele>
        <time>2022-06-17T14:21:41.000Z</time>
      </trkpt>
      <trkpt lat="49.88434" lon="4.81353">
        <ele>229</ele>
        <time>2022-06-17T14:21:42.000Z</time>
      </trkpt>
      <trkpt lat="49.88434" lon="4.81355">
        <ele>229</ele>
        <time>2022-06-17T14:21:43.000Z</time>
      </trkpt>
      <trkpt lat="49.88435" lon="4.81358">
        <ele>229</ele>
        <time>2022-06-17T14:21:44.000Z</time>
      </trkpt>
      <trkpt lat="49.88435" lon="4.81362">
        <ele>229</ele>
        <time>2022-06-17T14:21:45.000Z</time>
      </trkpt>
      <trkpt lat="49.88435" lon="4.81365">
        <ele>229</ele>
        <time>2022-06-17T14:21:46.000Z</time>
      </trkpt>
      <trkpt lat="49.88435" lon="4.81369">
        <ele>230</ele>
        <time>2022-06-17T14:21:47.000Z</time>
      </trkpt>
      <trkpt lat="49.88435" lon="4.81373">
        <ele>230</ele>
        <time>2022-06-17T14:21:48.000Z</time>
      </trkpt>
      <trkpt lat="49.88435" lon="4.81377">
        <ele>230</ele>
        <time>2022-06-17T14:21:49.000Z</time>
      </trkpt>
      <trkpt lat="49.88434" lon="4.8138">
        <ele>230</ele>
        <time>2022-06-17T14:21:50.000Z</time>
      </trkpt>
      <trkpt lat="49.88433" lon="4.81382">
        <ele>230</ele>
        <time>2022-06-17T14:21:51.000Z</time>
      </trkpt>
      <trkpt lat="49.88432" lon="4.81385">
        <ele>230</ele>
        <time>2022-06-17T14:21:52.000Z</time>
      </trkpt>
      <trkpt lat="49.88431" lon="4.81387">
        <ele>230</ele>
        <time>2022-06-17T14:21:53.000Z</time>
      </trkpt>
      <trkpt lat="49.8843" lon="4.81389">
        <ele>230</ele>
        <time>2022-06-17T14:21:54.000Z</time>
      </trkpt>
      <trkpt lat="49.88429" lon="4.81391">
        <ele>230</ele>
        <time>2022-06-17T14:21:55.000Z</time>
      </trkpt>
      <trkpt lat="49.88428" lon="4.81393">
        <ele>231</ele>
        <time>2022-06-17T14:21:56.000Z</time>
      </trkpt>
      <trkpt lat="49.88427" lon="4.81395">
        <ele>231</ele>
        <time>2022-06-17T14:21:57.000Z</time>
      </trkpt>
      <trkpt lat="49.88427" lon="4.81397">
        <ele>231</ele>
        <time>2022-06-17T14:21:58.000Z</time>
      </trkpt>
      <trkpt lat="49.88426" lon="4.814">
        <ele>231</ele>
        <time>2022-06-17T14:21:59.000Z</time>
      </trkpt>
      <trkpt lat="49.88425" lon="4.81402">
        <ele>231</ele>
        <time>2022-06-17T14:22:00.000Z</time>
      </trkpt>
      <trkpt lat="49.88424" lon="4.81404">
        <ele>232</ele>
        <time>2022-06-17T14:22:01.000Z</time>
      </trkpt>
      <trkpt lat="49.88424" lon="4.81406">
        <ele>232</ele>
        <time>2022-06-17T14:22:02.000Z</time>
      </trkpt>
      <trkpt lat="49.88423" lon="4.81407">
        <ele>232</ele>
        <time>2022-06-17T14:22:03.000Z</time>
      </trkpt>
      <trkpt lat="49.88423" lon="4.81409">
        <ele>232</ele>
        <time>2022-06-17T14:22:04.000Z</time>
      </trkpt>
      <trkpt lat="49.88421" lon="4.8141">
        <ele>233</ele>
        <time>2022-06-17T14:22:05.000Z</time>
      </trkpt>
      <trkpt lat="49.8842" lon="4.81412">
        <ele>233</ele>
        <time>2022-06-17T14:22:06.000Z</time>
      </trkpt>
      <trkpt lat="49.88419" lon="4.81414">
        <ele>233</ele>
        <time>2022-06-17T14:22:07.000Z</time>
      </trkpt>
      <trkpt lat="49.88418" lon="4.81416">
        <ele>233</ele>
        <time>2022-06-17T14:22:08.000Z</time>
      </trkpt>
      <trkpt lat="49.88417" lon="4.81418">
        <ele>234</ele>
        <time>2022-06-17T14:22:09.000Z</time>
      </trkpt>
      <trkpt lat="49.88416" lon="4.8142">
        <ele>234</ele>
        <time>2022-06-17T14:22:10.000Z</time>
      </trkpt>
      <trkpt lat="49.88415" lon="4.81423">
        <ele>234</ele>
        <time>2022-06-17T14:22:11.000Z</time>
      </trkpt>
      <trkpt lat="49.88413" lon="4.81425">
        <ele>234</ele>
        <time>2022-06-17T14:22:12.000Z</time>
      </trkpt>
      <trkpt lat="49.88412" lon="4.81428">
        <ele>234</ele>
        <time>2022-06-17T14:22:13.000Z</time>
      </trkpt>
      <trkpt lat="49.8841" lon="4.81431">
        <ele>235</ele>
        <time>2022-06-17T14:22:14.000Z</time>
      </trkpt>
      <trkpt lat="49.88408" lon="4.81433">
        <ele>235</ele>
        <time>2022-06-17T14:22:15.000Z</time>
      </trkpt>
      <trkpt lat="49.88406" lon="4.81435">
        <ele>235</ele>
        <time>2022-06-17T14:22:16.000Z</time>
      </trkpt>
      <trkpt lat="49.88404" lon="4.81437">
        <ele>235</ele>
        <time>2022-06-17T14:22:17.000Z</time>
      </trkpt>
      <trkpt lat="49.88403" lon="4.81439">
        <ele>236</ele>
        <time>2022-06-17T14:22:18.000Z</time>
      </trkpt>
      <trkpt lat="49.88401" lon="4.81441">
        <ele>236</ele>
        <time>2022-06-17T14:22:19.000Z</time>
      </trkpt>
      <trkpt lat="49.88399" lon="4.81444">
        <ele>236</ele>
        <time>2022-06-17T14:22:20.000Z</time>
      </trkpt>
      <trkpt lat="49.88397" lon="4.81447">
        <ele>236</ele>
        <time>2022-06-17T14:22:21.000Z</time>
      </trkpt>
      <trkpt lat="49.88395" lon="4.8145">
        <ele>236</ele>
        <time>2022-06-17T14:22:22.000Z</time>
      </trkpt>
      <trkpt lat="49.88393" lon="4.81452">
        <ele>237</ele>
        <time>2022-06-17T14:22:23.000Z</time>
      </trkpt>
      <trkpt lat="49.88391" lon="4.81453">
        <ele>237</ele>
        <time>2022-06-17T14:22:24.000Z</time>
      </trkpt>
      <trkpt lat="49.88389" lon="4.81455">
        <ele>237</ele>
        <time>2022-06-17T14:22:25.000Z</time>
      </trkpt>
      <trkpt lat="49.88387" lon="4.81457">
        <ele>237</ele>
        <time>2022-06-17T14:22:26.000Z</time>
      </trkpt>
      <trkpt lat="49.88385" lon="4.81459">
        <ele>237</ele>
        <time>2022-06-17T14:22:27.000Z</time>
      </trkpt>
      <trkpt lat="49.88383" lon="4.81461">
        <ele>238</ele>
        <time>2022-06-17T14:22:28.000Z</time>
      </trkpt>
      <trkpt lat="49.88381" lon="4.81464">
        <ele>238</ele>
        <time>2022-06-17T14:22:29.000Z</time>
      </trkpt>
      <trkpt lat="49.88379" lon="4.81467">
        <ele>238</ele>
        <time>2022-06-17T14:22:30.000Z</time>
      </trkpt>
      <trkpt lat="49.88377" lon="4.8147">
        <ele>238</ele>
        <time>2022-06-17T14:22:31.000Z</time>
      </trkpt>
      <trkpt lat="49.88375" lon="4.81474">
        <ele>238</ele>
        <time>2022-06-17T14:22:32.000Z</time>
      </trkpt>
      <trkpt lat="49.88373" lon="4.81476">
        <ele>238</ele>
        <time>2022-06-17T14:22:33.000Z</time>
      </trkpt>
      <trkpt lat="49.88371" lon="4.81479">
        <ele>239</ele>
        <time>2022-06-17T14:22:34.000Z</time>
      </trkpt>
      <trkpt lat="49.88369" lon="4.81482">
        <ele>239</ele>
        <time>2022-06-17T14:22:35.000Z</time>
      </trkpt>
      <trkpt lat="49.88366" lon="4.81484">
        <ele>239</ele>
        <time>2022-06-17T14:22:36.000Z</time>
      </trkpt>
      <trkpt lat="49.88364" lon="4.81486">
        <ele>239</ele>
        <time>2022-06-17T14:22:37.000Z</time>
      </trkpt>
      <trkpt lat="49.88362" lon="4.81489">
        <ele>239</ele>
        <time>2022-06-17T14:22:38.000Z</time>
      </trkpt>
      <trkpt lat="49.88359" lon="4.81492">
        <ele>239</ele>
        <time>2022-06-17T14:22:39.000Z</time>
      </trkpt>
      <trkpt lat="49.88357" lon="4.81495">
        <ele>239</ele>
        <time>2022-06-17T14:22:40.000Z</time>
      </trkpt>
      <trkpt lat="49.88355" lon="4.81498">
        <ele>239</ele>
        <time>2022-06-17T14:22:41.000Z</time>
      </trkpt>
      <trkpt lat="49.88352" lon="4.81501">
        <ele>239</ele>
        <time>2022-06-17T14:22:42.000Z</time>
      </trkpt>
      <trkpt lat="49.88349" lon="4.81504">
        <ele>239</ele>
        <time>2022-06-17T14:22:43.000Z</time>
      </trkpt>
      <trkpt lat="49.88346" lon="4.81507">
        <ele>239</ele>
        <time>2022-06-17T14:22:44.000Z</time>
      </trkpt>
      <trkpt lat="49.88344" lon="4.81511">
        <ele>239</ele>
        <time>2022-06-17T14:22:45.000Z</time>
      </trkpt>
      <trkpt lat="49.88341" lon="4.81514">
        <ele>239</ele>
        <time>2022-06-17T14:22:46.000Z</time>
      </trkpt>
      <trkpt lat="49.88338" lon="4.81518">
        <ele>239</ele>
        <time>2022-06-17T14:22:47.000Z</time>
      </trkpt>
      <trkpt lat="49.88335" lon="4.81521">
        <ele>239</ele>
        <time>2022-06-17T14:22:48.000Z</time>
      </trkpt>
      <trkpt lat="49.88332" lon="4.81525">
        <ele>239</ele>
        <time>2022-06-17T14:22:49.000Z</time>
      </trkpt>
      <trkpt lat="49.8833" lon="4.81528">
        <ele>240</ele>
        <time>2022-06-17T14:22:50.000Z</time>
      </trkpt>
      <trkpt lat="49.88327" lon="4.81531">
        <ele>240</ele>
        <time>2022-06-17T14:22:51.000Z</time>
      </trkpt>
      <trkpt lat="49.88325" lon="4.81534">
        <ele>240</ele>
        <time>2022-06-17T14:22:52.000Z</time>
      </trkpt>
      <trkpt lat="49.88322" lon="4.81538">
        <ele>240</ele>
        <time>2022-06-17T14:22:53.000Z</time>
      </trkpt>
      <trkpt lat="49.8832" lon="4.8154">
        <ele>240</ele>
        <time>2022-06-17T14:22:54.000Z</time>
      </trkpt>
      <trkpt lat="49.88317" lon="4.81544">
        <ele>240</ele>
        <time>2022-06-17T14:22:55.000Z</time>
      </trkpt>
      <trkpt lat="49.88315" lon="4.81547">
        <ele>240</ele>
        <time>2022-06-17T14:22:56.000Z</time>
      </trkpt>
      <trkpt lat="49.88312" lon="4.8155">
        <ele>240</ele>
        <time>2022-06-17T14:22:57.000Z</time>
      </trkpt>
      <trkpt lat="49.8831" lon="4.81553">
        <ele>240</ele>
        <time>2022-06-17T14:22:58.000Z</time>
      </trkpt>
      <trkpt lat="49.88307" lon="4.81557">
        <ele>240</ele>
        <time>2022-06-17T14:22:59.000Z</time>
      </trkpt>
      <trkpt lat="49.88305" lon="4.8156">
        <ele>240</ele>
        <time>2022-06-17T14:23:00.000Z</time>
      </trkpt>
      <trkpt lat="49.88302" lon="4.81563">
        <ele>240</ele>
        <time>2022-06-17T14:23:01.000Z</time>
      </trkpt>
      <trkpt lat="49.88299" lon="4.81566">
        <ele>240</ele>
        <time>2022-06-17T14:23:02.000Z</time>
      </trkpt>
      <trkpt lat="49.88297" lon="4.81568">
        <ele>240</ele>
        <time>2022-06-17T14:23:03.000Z</time>
      </trkpt>
      <trkpt lat="49.88294" lon="4.81571">
        <ele>240</ele>
        <time>2022-06-17T14:23:04.000Z</time>
      </trkpt>
      <trkpt lat="49.88292" lon="4.81573">
        <ele>240</ele>
        <time>2022-06-17T14:23:05.000Z</time>
      </trkpt>
      <trkpt lat="49.88289" lon="4.81576">
        <ele>240</ele>
        <time>2022-06-17T14:23:06.000Z</time>
      </trkpt>
      <trkpt lat="49.88286" lon="4.81578">
        <ele>240</ele>
        <time>2022-06-17T14:23:07.000Z</time>
      </trkpt>
      <trkpt lat="49.88284" lon="4.81581">
        <ele>240</ele>
        <time>2022-06-17T14:23:08.000Z</time>
      </trkpt>
      <trkpt lat="49.88281" lon="4.81584">
        <ele>240</ele>
        <time>2022-06-17T14:23:09.000Z</time>
      </trkpt>
      <trkpt lat="49.88278" lon="4.81586">
        <ele>240</ele>
        <time>2022-06-17T14:23:10.000Z</time>
      </trkpt>
      <trkpt lat="49.88275" lon="4.81589">
        <ele>241</ele>
        <time>2022-06-17T14:23:11.000Z</time>
      </trkpt>
      <trkpt lat="49.88271" lon="4.81591">
        <ele>241</ele>
        <time>2022-06-17T14:23:12.000Z</time>
      </trkpt>
      <trkpt lat="49.88268" lon="4.81594">
        <ele>241</ele>
        <time>2022-06-17T14:23:13.000Z</time>
      </trkpt>
      <trkpt lat="49.88265" lon="4.81597">
        <ele>241</ele>
        <time>2022-06-17T14:23:14.000Z</time>
      </trkpt>
      <trkpt lat="49.88262" lon="4.81599">
        <ele>241</ele>
        <time>2022-06-17T14:23:15.000Z</time>
      </trkpt>
      <trkpt lat="49.88258" lon="4.816">
        <ele>241</ele>
        <time>2022-06-17T14:23:16.000Z</time>
      </trkpt>
      <trkpt lat="49.88255" lon="4.81602">
        <ele>241</ele>
        <time>2022-06-17T14:23:17.000Z</time>
      </trkpt>
      <trkpt lat="49.88252" lon="4.81604">
        <ele>241</ele>
        <time>2022-06-17T14:23:18.000Z</time>
      </trkpt>
      <trkpt lat="49.8825" lon="4.81605">
        <ele>241</ele>
        <time>2022-06-17T14:23:19.000Z</time>
      </trkpt>
      <trkpt lat="49.88247" lon="4.81607">
        <ele>241</ele>
        <time>2022-06-17T14:23:20.000Z</time>
      </trkpt>
      <trkpt lat="49.88245" lon="4.81608">
        <ele>241</ele>
        <time>2022-06-17T14:23:21.000Z</time>
      </trkpt>
      <trkpt lat="49.88242" lon="4.8161">
        <ele>242</ele>
        <time>2022-06-17T14:23:22.000Z</time>
      </trkpt>
      <trkpt lat="49.88239" lon="4.81612">
        <ele>242</ele>
        <time>2022-06-17T14:23:23.000Z</time>
      </trkpt>
      <trkpt lat="49.88237" lon="4.81614">
        <ele>242</ele>
        <time>2022-06-17T14:23:24.000Z</time>
      </trkpt>
      <trkpt lat="49.88234" lon="4.81616">
        <ele>242</ele>
        <time>2022-06-17T14:23:25.000Z</time>
      </trkpt>
      <trkpt lat="49.88231" lon="4.81618">
        <ele>242</ele>
        <time>2022-06-17T14:23:26.000Z</time>
      </trkpt>
      <trkpt lat="49.88229" lon="4.8162">
        <ele>242</ele>
        <time>2022-06-17T14:23:27.000Z</time>
      </trkpt>
      <trkpt lat="49.88227" lon="4.81621">
        <ele>242</ele>
        <time>2022-06-17T14:23:28.000Z</time>
      </trkpt>
      <trkpt lat="49.88224" lon="4.81623">
        <ele>243</ele>
        <time>2022-06-17T14:23:29.000Z</time>
      </trkpt>
      <trkpt lat="49.88222" lon="4.81625">
        <ele>243</ele>
        <time>2022-06-17T14:23:30.000Z</time>
      </trkpt>
      <trkpt lat="49.8822" lon="4.81627">
        <ele>243</ele>
        <time>2022-06-17T14:23:31.000Z</time>
      </trkpt>
      <trkpt lat="49.88218" lon="4.81629">
        <ele>243</ele>
        <time>2022-06-17T14:23:32.000Z</time>
      </trkpt>
      <trkpt lat="49.88215" lon="4.8163">
        <ele>243</ele>
        <time>2022-06-17T14:23:33.000Z</time>
      </trkpt>
      <trkpt lat="49.88213" lon="4.81632">
        <ele>243</ele>
        <time>2022-06-17T14:23:34.000Z</time>
      </trkpt>
      <trkpt lat="49.88211" lon="4.81634">
        <ele>244</ele>
        <time>2022-06-17T14:23:35.000Z</time>
      </trkpt>
      <trkpt lat="49.88208" lon="4.81635">
        <ele>244</ele>
        <time>2022-06-17T14:23:36.000Z</time>
      </trkpt>
      <trkpt lat="49.88206" lon="4.81637">
        <ele>244</ele>
        <time>2022-06-17T14:23:37.000Z</time>
      </trkpt>
      <trkpt lat="49.88203" lon="4.81638">
        <ele>244</ele>
        <time>2022-06-17T14:23:38.000Z</time>
      </trkpt>
      <trkpt lat="49.88201" lon="4.8164">
        <ele>244</ele>
        <time>2022-06-17T14:23:39.000Z</time>
      </trkpt>
      <trkpt lat="49.88199" lon="4.81643">
        <ele>244</ele>
        <time>2022-06-17T14:23:40.000Z</time>
      </trkpt>
      <trkpt lat="49.88197" lon="4.81645">
        <ele>245</ele>
        <time>2022-06-17T14:23:41.000Z</time>
      </trkpt>
      <trkpt lat="49.88194" lon="4.81647">
        <ele>245</ele>
        <time>2022-06-17T14:23:42.000Z</time>
      </trkpt>
      <trkpt lat="49.88192" lon="4.81648">
        <ele>245</ele>
        <time>2022-06-17T14:23:43.000Z</time>
      </trkpt>
      <trkpt lat="49.8819" lon="4.8165">
        <ele>245</ele>
        <time>2022-06-17T14:23:44.000Z</time>
      </trkpt>
      <trkpt lat="49.88187" lon="4.81651">
        <ele>245</ele>
        <time>2022-06-17T14:23:45.000Z</time>
      </trkpt>
      <trkpt lat="49.88185" lon="4.81653">
        <ele>246</ele>
        <time>2022-06-17T14:23:46.000Z</time>
      </trkpt>
      <trkpt lat="49.88182" lon="4.81654">
        <ele>246</ele>
        <time>2022-06-17T14:23:47.000Z</time>
      </trkpt>
      <trkpt lat="49.8818" lon="4.81656">
        <ele>246</ele>
        <time>2022-06-17T14:23:48.000Z</time>
      </trkpt>
      <trkpt lat="49.88178" lon="4.81657">
        <ele>246</ele>
        <time>2022-06-17T14:23:49.000Z</time>
      </trkpt>
      <trkpt lat="49.88175" lon="4.81659">
        <ele>246</ele>
        <time>2022-06-17T14:23:50.000Z</time>
      </trkpt>
      <trkpt lat="49.88173" lon="4.8166">
        <ele>247</ele>
        <time>2022-06-17T14:23:51.000Z</time>
      </trkpt>
      <trkpt lat="49.88171" lon="4.81662">
        <ele>247</ele>
        <time>2022-06-17T14:23:52.000Z</time>
      </trkpt>
      <trkpt lat="49.88169" lon="4.81663">
        <ele>247</ele>
        <time>2022-06-17T14:23:53.000Z</time>
      </trkpt>
      <trkpt lat="49.88167" lon="4.81665">
        <ele>247</ele>
        <time>2022-06-17T14:23:54.000Z</time>
      </trkpt>
      <trkpt lat="49.88165" lon="4.81667">
        <ele>247</ele>
        <time>2022-06-17T14:23:55.000Z</time>
      </trkpt>
      <trkpt lat="49.88162" lon="4.81669">
        <ele>247</ele>
        <time>2022-06-17T14:23:56.000Z</time>
      </trkpt>
      <trkpt lat="49.8816" lon="4.81671">
        <ele>248</ele>
        <time>2022-06-17T14:23:57.000Z</time>
      </trkpt>
      <trkpt lat="49.88158" lon="4.81672">
        <ele>248</ele>
        <time>2022-06-17T14:23:58.000Z</time>
      </trkpt>
      <trkpt lat="49.88156" lon="4.81674">
        <ele>248</ele>
        <time>2022-06-17T14:23:59.000Z</time>
      </trkpt>
      <trkpt lat="49.88153" lon="4.81676">
        <ele>248</ele>
        <time>2022-06-17T14:24:00.000Z</time>
      </trkpt>
      <trkpt lat="49.88151" lon="4.81678">
        <ele>249</ele>
        <time>2022-06-17T14:24:01.000Z</time>
      </trkpt>
      <trkpt lat="49.88148" lon="4.81679">
        <ele>249</ele>
        <time>2022-06-17T14:24:02.000Z</time>
      </trkpt>
      <trkpt lat="49.88146" lon="4.8168">
        <ele>249</ele>
        <time>2022-06-17T14:24:03.000Z</time>
      </trkpt>
      <trkpt lat="49.88143" lon="4.81682">
        <ele>249</ele>
        <time>2022-06-17T14:24:04.000Z</time>
      </trkpt>
      <trkpt lat="49.88141" lon="4.81683">
        <ele>250</ele>
        <time>2022-06-17T14:24:05.000Z</time>
      </trkpt>
      <trkpt lat="49.88138" lon="4.81683">
        <ele>250</ele>
        <time>2022-06-17T14:24:06.000Z</time>
      </trkpt>
      <trkpt lat="49.88136" lon="4.81684">
        <ele>250</ele>
        <time>2022-06-17T14:24:07.000Z</time>
      </trkpt>
      <trkpt lat="49.88133" lon="4.81685">
        <ele>250</ele>
        <time>2022-06-17T14:24:08.000Z</time>
      </trkpt>
      <trkpt lat="49.88131" lon="4.81686">
        <ele>250</ele>
        <time>2022-06-17T14:24:09.000Z</time>
      </trkpt>
      <trkpt lat="49.88128" lon="4.81688">
        <ele>251</ele>
        <time>2022-06-17T14:24:10.000Z</time>
      </trkpt>
      <trkpt lat="49.88125" lon="4.81689">
        <ele>251</ele>
        <time>2022-06-17T14:24:11.000Z</time>
      </trkpt>
      <trkpt lat="49.88123" lon="4.81691">
        <ele>251</ele>
        <time>2022-06-17T14:24:12.000Z</time>
      </trkpt>
      <trkpt lat="49.8812" lon="4.81693">
        <ele>251</ele>
        <time>2022-06-17T14:24:13.000Z</time>
      </trkpt>
      <trkpt lat="49.88117" lon="4.81695">
        <ele>251</ele>
        <time>2022-06-17T14:24:14.000Z</time>
      </trkpt>
      <trkpt lat="49.88114" lon="4.81697">
        <ele>252</ele>
        <time>2022-06-17T14:24:15.000Z</time>
      </trkpt>
      <trkpt lat="49.88112" lon="4.81699">
        <ele>252</ele>
        <time>2022-06-17T14:24:16.000Z</time>
      </trkpt>
      <trkpt lat="49.88109" lon="4.81702">
        <ele>252</ele>
        <time>2022-06-17T14:24:17.000Z</time>
      </trkpt>
      <trkpt lat="49.88106" lon="4.81704">
        <ele>252</ele>
        <time>2022-06-17T14:24:18.000Z</time>
      </trkpt>
      <trkpt lat="49.88102" lon="4.81707">
        <ele>252</ele>
        <time>2022-06-17T14:24:19.000Z</time>
      </trkpt>
      <trkpt lat="49.88099" lon="4.8171">
        <ele>252</ele>
        <time>2022-06-17T14:24:20.000Z</time>
      </trkpt>
      <trkpt lat="49.88095" lon="4.81713">
        <ele>252</ele>
        <time>2022-06-17T14:24:21.000Z</time>
      </trkpt>
      <trkpt lat="49.8809" lon="4.81716">
        <ele>252</ele>
        <time>2022-06-17T14:24:22.000Z</time>
      </trkpt>
      <trkpt lat="49.88086" lon="4.81719">
        <ele>252</ele>
        <time>2022-06-17T14:24:23.000Z</time>
      </trkpt>
      <trkpt lat="49.88081" lon="4.81722">
        <ele>252</ele>
        <time>2022-06-17T14:24:24.000Z</time>
      </trkpt>
      <trkpt lat="49.88077" lon="4.81726">
        <ele>252</ele>
        <time>2022-06-17T14:24:25.000Z</time>
      </trkpt>
      <trkpt lat="49.88072" lon="4.8173">
        <ele>252</ele>
        <time>2022-06-17T14:24:26.000Z</time>
      </trkpt>
      <trkpt lat="49.88068" lon="4.81733">
        <ele>252</ele>
        <time>2022-06-17T14:24:27.000Z</time>
      </trkpt>
      <trkpt lat="49.88063" lon="4.81736">
        <ele>252</ele>
        <time>2022-06-17T14:24:28.000Z</time>
      </trkpt>
      <trkpt lat="49.8806" lon="4.81739">
        <ele>252</ele>
        <time>2022-06-17T14:24:29.000Z</time>
      </trkpt>
      <trkpt lat="49.88056" lon="4.81742">
        <ele>252</ele>
        <time>2022-06-17T14:24:30.000Z</time>
      </trkpt>
      <trkpt lat="49.88054" lon="4.81744">
        <ele>252</ele>
        <time>2022-06-17T14:24:31.000Z</time>
      </trkpt>
      <trkpt lat="49.88051" lon="4.81747">
        <ele>252</ele>
        <time>2022-06-17T14:24:32.000Z</time>
      </trkpt>
      <trkpt lat="49.88048" lon="4.81749">
        <ele>252</ele>
        <time>2022-06-17T14:24:33.000Z</time>
      </trkpt>
      <trkpt lat="49.88045" lon="4.81752">
        <ele>253</ele>
        <time>2022-06-17T14:24:34.000Z</time>
      </trkpt>
      <trkpt lat="49.88042" lon="4.81754">
        <ele>253</ele>
        <time>2022-06-17T14:24:35.000Z</time>
      </trkpt>
      <trkpt lat="49.88039" lon="4.81755">
        <ele>253</ele>
        <time>2022-06-17T14:24:36.000Z</time>
      </trkpt>
      <trkpt lat="49.88036" lon="4.81758">
        <ele>253</ele>
        <time>2022-06-17T14:24:37.000Z</time>
      </trkpt>
      <trkpt lat="49.88034" lon="4.81759">
        <ele>253</ele>
        <time>2022-06-17T14:24:38.000Z</time>
      </trkpt>
      <trkpt lat="49.88031" lon="4.81761">
        <ele>253</ele>
        <time>2022-06-17T14:24:39.000Z</time>
      </trkpt>
      <trkpt lat="49.88029" lon="4.81763">
        <ele>253</ele>
        <time>2022-06-17T14:24:40.000Z</time>
      </trkpt>
      <trkpt lat="49.88026" lon="4.81766">
        <ele>253</ele>
        <time>2022-06-17T14:24:41.000Z</time>
      </trkpt>
      <trkpt lat="49.88024" lon="4.81767">
        <ele>253</ele>
        <time>2022-06-17T14:24:42.000Z</time>
      </trkpt>
      <trkpt lat="49.88022" lon="4.81769">
        <ele>253</ele>
        <time>2022-06-17T14:24:43.000Z</time>
      </trkpt>
      <trkpt lat="49.88019" lon="4.81771">
        <ele>254</ele>
        <time>2022-06-17T14:24:44.000Z</time>
      </trkpt>
      <trkpt lat="49.88017" lon="4.81773">
        <ele>254</ele>
        <time>2022-06-17T14:24:45.000Z</time>
      </trkpt>
      <trkpt lat="49.88015" lon="4.81775">
        <ele>254</ele>
        <time>2022-06-17T14:24:46.000Z</time>
      </trkpt>
      <trkpt lat="49.88013" lon="4.81776">
        <ele>254</ele>
        <time>2022-06-17T14:24:47.000Z</time>
      </trkpt>
      <trkpt lat="49.8801" lon="4.81778">
        <ele>254</ele>
        <time>2022-06-17T14:24:48.000Z</time>
      </trkpt>
      <trkpt lat="49.88008" lon="4.8178">
        <ele>254</ele>
        <time>2022-06-17T14:24:49.000Z</time>
      </trkpt>
      <trkpt lat="49.88006" lon="4.81782">
        <ele>254</ele>
        <time>2022-06-17T14:24:50.000Z</time>
      </trkpt>
      <trkpt lat="49.88004" lon="4.81784">
        <ele>254</ele>
        <time>2022-06-17T14:24:51.000Z</time>
      </trkpt>
      <trkpt lat="49.88002" lon="4.81786">
        <ele>255</ele>
        <time>2022-06-17T14:24:52.000Z</time>
      </trkpt>
      <trkpt lat="49.88" lon="4.81787">
        <ele>255</ele>
        <time>2022-06-17T14:24:53.000Z</time>
      </trkpt>
      <trkpt lat="49.87998" lon="4.81789">
        <ele>255</ele>
        <time>2022-06-17T14:24:54.000Z</time>
      </trkpt>
      <trkpt lat="49.87995" lon="4.8179">
        <ele>255</ele>
        <time>2022-06-17T14:24:55.000Z</time>
      </trkpt>
      <trkpt lat="49.87993" lon="4.81791">
        <ele>255</ele>
        <time>2022-06-17T14:24:56.000Z</time>
      </trkpt>
      <trkpt lat="49.87991" lon="4.81793">
        <ele>256</ele>
        <time>2022-06-17T14:24:57.000Z</time>
      </trkpt>
      <trkpt lat="49.87989" lon="4.81794">
        <ele>256</ele>
        <time>2022-06-17T14:24:58.000Z</time>
      </trkpt>
      <trkpt lat="49.87987" lon="4.81796">
        <ele>256</ele>
        <time>2022-06-17T14:24:59.000Z</time>
      </trkpt>
      <trkpt lat="49.87985" lon="4.81798">
        <ele>256</ele>
        <time>2022-06-17T14:25:00.000Z</time>
      </trkpt>
      <trkpt lat="49.87983" lon="4.81799">
        <ele>256</ele>
        <time>2022-06-17T14:25:01.000Z</time>
      </trkpt>
      <trkpt lat="49.87981" lon="4.81801">
        <ele>257</ele>
        <time>2022-06-17T14:25:02.000Z</time>
      </trkpt>
      <trkpt lat="49.87979" lon="4.81802">
        <ele>257</ele>
        <time>2022-06-17T14:25:03.000Z</time>
      </trkpt>
      <trkpt lat="49.87977" lon="4.81804">
        <ele>257</ele>
        <time>2022-06-17T14:25:04.000Z</time>
      </trkpt>
      <trkpt lat="49.87975" lon="4.81805">
        <ele>257</ele>
        <time>2022-06-17T14:25:05.000Z</time>
      </trkpt>
      <trkpt lat="49.87973" lon="4.81806">
        <ele>257</ele>
        <time>2022-06-17T14:25:06.000Z</time>
      </trkpt>
      <trkpt lat="49.87971" lon="4.81808">
        <ele>257</ele>
        <time>2022-06-17T14:25:07.000Z</time>
      </trkpt>
      <trkpt lat="49.87969" lon="4.8181">
        <ele>258</ele>
        <time>2022-06-17T14:25:08.000Z</time>
      </trkpt>
      <trkpt lat="49.87967" lon="4.81812">
        <ele>258</ele>
        <time>2022-06-17T14:25:09.000Z</time>
      </trkpt>
      <trkpt lat="49.87965" lon="4.81814">
        <ele>258</ele>
        <time>2022-06-17T14:25:10.000Z</time>
      </trkpt>
      <trkpt lat="49.87964" lon="4.81816">
        <ele>258</ele>
        <time>2022-06-17T14:25:11.000Z</time>
      </trkpt>
      <trkpt lat="49.87961" lon="4.81818">
        <ele>258</ele>
        <time>2022-06-17T14:25:12.000Z</time>
      </trkpt>
      <trkpt lat="49.87959" lon="4.8182">
        <ele>259</ele>
        <time>2022-06-17T14:25:13.000Z</time>
      </trkpt>
      <trkpt lat="49.87957" lon="4.81822">
        <ele>259</ele>
        <time>2022-06-17T14:25:14.000Z</time>
      </trkpt>
      <trkpt lat="49.87955" lon="4.81824">
        <ele>259</ele>
        <time>2022-06-17T14:25:15.000Z</time>
      </trkpt>
      <trkpt lat="49.87953" lon="4.81827">
        <ele>260</ele>
        <time>2022-06-17T14:25:16.000Z</time>
      </trkpt>
      <trkpt lat="49.8795" lon="4.81829">
        <ele>260</ele>
        <time>2022-06-17T14:25:17.000Z</time>
      </trkpt>
      <trkpt lat="49.87949" lon="4.81831">
        <ele>260</ele>
        <time>2022-06-17T14:25:18.000Z</time>
      </trkpt>
      <trkpt lat="49.87947" lon="4.81834">
        <ele>260</ele>
        <time>2022-06-17T14:25:19.000Z</time>
      </trkpt>
      <trkpt lat="49.87945" lon="4.81836">
        <ele>261</ele>
        <time>2022-06-17T14:25:20.000Z</time>
      </trkpt>
      <trkpt lat="49.87943" lon="4.81838">
        <ele>261</ele>
        <time>2022-06-17T14:25:21.000Z</time>
      </trkpt>
      <trkpt lat="49.87941" lon="4.8184">
        <ele>261</ele>
        <time>2022-06-17T14:25:22.000Z</time>
      </trkpt>
      <trkpt lat="49.87939" lon="4.81842">
        <ele>261</ele>
        <time>2022-06-17T14:25:23.000Z</time>
      </trkpt>
      <trkpt lat="49.87937" lon="4.81844">
        <ele>262</ele>
        <time>2022-06-17T14:25:24.000Z</time>
      </trkpt>
      <trkpt lat="49.87935" lon="4.81846">
        <ele>262</ele>
        <time>2022-06-17T14:25:25.000Z</time>
      </trkpt>
      <trkpt lat="49.87933" lon="4.81848">
        <ele>262</ele>
        <time>2022-06-17T14:25:26.000Z</time>
      </trkpt>
      <trkpt lat="49.87931" lon="4.8185">
        <ele>262</ele>
        <time>2022-06-17T14:25:27.000Z</time>
      </trkpt>
      <trkpt lat="49.87929" lon="4.81851">
        <ele>262</ele>
        <time>2022-06-17T14:25:28.000Z</time>
      </trkpt>
      <trkpt lat="49.87927" lon="4.81852">
        <ele>263</ele>
        <time>2022-06-17T14:25:29.000Z</time>
      </trkpt>
      <trkpt lat="49.87925" lon="4.81854">
        <ele>263</ele>
        <time>2022-06-17T14:25:30.000Z</time>
      </trkpt>
      <trkpt lat="49.87923" lon="4.81856">
        <ele>263</ele>
        <time>2022-06-17T14:25:31.000Z</time>
      </trkpt>
      <trkpt lat="49.87921" lon="4.81858">
        <ele>263</ele>
        <time>2022-06-17T14:25:32.000Z</time>
      </trkpt>
      <trkpt lat="49.87919" lon="4.8186">
        <ele>263</ele>
        <time>2022-06-17T14:25:33.000Z</time>
      </trkpt>
      <trkpt lat="49.87917" lon="4.81863">
        <ele>263</ele>
        <time>2022-06-17T14:25:34.000Z</time>
      </trkpt>
      <trkpt lat="49.87915" lon="4.81865">
        <ele>264</ele>
        <time>2022-06-17T14:25:35.000Z</time>
      </trkpt>
      <trkpt lat="49.87913" lon="4.81867">
        <ele>264</ele>
        <time>2022-06-17T14:25:36.000Z</time>
      </trkpt>
      <trkpt lat="49.87911" lon="4.81869">
        <ele>264</ele>
        <time>2022-06-17T14:25:37.000Z</time>
      </trkpt>
      <trkpt lat="49.8791" lon="4.81872">
        <ele>264</ele>
        <time>2022-06-17T14:25:38.000Z</time>
      </trkpt>
      <trkpt lat="49.87908" lon="4.81874">
        <ele>264</ele>
        <time>2022-06-17T14:25:39.000Z</time>
      </trkpt>
      <trkpt lat="49.87906" lon="4.81877">
        <ele>264</ele>
        <time>2022-06-17T14:25:40.000Z</time>
      </trkpt>
      <trkpt lat="49.87904" lon="4.81879">
        <ele>264</ele>
        <time>2022-06-17T14:25:41.000Z</time>
      </trkpt>
      <trkpt lat="49.87902" lon="4.81881">
        <ele>265</ele>
        <time>2022-06-17T14:25:42.000Z</time>
      </trkpt>
      <trkpt lat="49.87901" lon="4.81883">
        <ele>265</ele>
        <time>2022-06-17T14:25:43.000Z</time>
      </trkpt>
      <trkpt lat="49.87899" lon="4.81885">
        <ele>265</ele>
        <time>2022-06-17T14:25:44.000Z</time>
      </trkpt>
      <trkpt lat="49.87897" lon="4.81887">
        <ele>265</ele>
        <time>2022-06-17T14:25:45.000Z</time>
      </trkpt>
      <trkpt lat="49.87895" lon="4.81889">
        <ele>265</ele>
        <time>2022-06-17T14:25:46.000Z</time>
      </trkpt>
      <trkpt lat="49.87893" lon="4.81891">
        <ele>266</ele>
        <time>2022-06-17T14:25:47.000Z</time>
      </trkpt>
      <trkpt lat="49.87891" lon="4.81894">
        <ele>266</ele>
        <time>2022-06-17T14:25:48.000Z</time>
      </trkpt>
      <trkpt lat="49.8789" lon="4.81896">
        <ele>266</ele>
        <time>2022-06-17T14:25:49.000Z</time>
      </trkpt>
      <trkpt lat="49.87888" lon="4.81899">
        <ele>266</ele>
        <time>2022-06-17T14:25:50.000Z</time>
      </trkpt>
      <trkpt lat="49.87886" lon="4.81901">
        <ele>266</ele>
        <time>2022-06-17T14:25:51.000Z</time>
      </trkpt>
      <trkpt lat="49.87884" lon="4.81903">
        <ele>267</ele>
        <time>2022-06-17T14:25:52.000Z</time>
      </trkpt>
      <trkpt lat="49.87882" lon="4.81906">
        <ele>267</ele>
        <time>2022-06-17T14:25:53.000Z</time>
      </trkpt>
      <trkpt lat="49.87881" lon="4.81908">
        <ele>267</ele>
        <time>2022-06-17T14:25:54.000Z</time>
      </trkpt>
      <trkpt lat="49.87879" lon="4.81911">
        <ele>267</ele>
        <time>2022-06-17T14:25:55.000Z</time>
      </trkpt>
      <trkpt lat="49.87877" lon="4.81913">
        <ele>267</ele>
        <time>2022-06-17T14:25:56.000Z</time>
      </trkpt>
      <trkpt lat="49.87876" lon="4.81916">
        <ele>268</ele>
        <time>2022-06-17T14:25:57.000Z</time>
      </trkpt>
      <trkpt lat="49.87874" lon="4.81918">
        <ele>268</ele>
        <time>2022-06-17T14:25:58.000Z</time>
      </trkpt>
      <trkpt lat="49.87873" lon="4.8192">
        <ele>268</ele>
        <time>2022-06-17T14:25:59.000Z</time>
      </trkpt>
      <trkpt lat="49.87871" lon="4.81923">
        <ele>268</ele>
        <time>2022-06-17T14:26:00.000Z</time>
      </trkpt>
      <trkpt lat="49.87869" lon="4.81925">
        <ele>269</ele>
        <time>2022-06-17T14:26:01.000Z</time>
      </trkpt>
      <trkpt lat="49.87868" lon="4.81927">
        <ele>269</ele>
        <time>2022-06-17T14:26:02.000Z</time>
      </trkpt>
      <trkpt lat="49.87866" lon="4.81929">
        <ele>269</ele>
        <time>2022-06-17T14:26:03.000Z</time>
      </trkpt>
      <trkpt lat="49.87864" lon="4.81931">
        <ele>269</ele>
        <time>2022-06-17T14:26:04.000Z</time>
      </trkpt>
      <trkpt lat="49.87862" lon="4.81933">
        <ele>270</ele>
        <time>2022-06-17T14:26:05.000Z</time>
      </trkpt>
      <trkpt lat="49.87861" lon="4.81935">
        <ele>270</ele>
        <time>2022-06-17T14:26:06.000Z</time>
      </trkpt>
      <trkpt lat="49.87859" lon="4.81937">
        <ele>270</ele>
        <time>2022-06-17T14:26:07.000Z</time>
      </trkpt>
      <trkpt lat="49.87858" lon="4.81939">
        <ele>270</ele>
        <time>2022-06-17T14:26:08.000Z</time>
      </trkpt>
      <trkpt lat="49.87856" lon="4.8194">
        <ele>271</ele>
        <time>2022-06-17T14:26:09.000Z</time>
      </trkpt>
      <trkpt lat="49.87854" lon="4.81942">
        <ele>271</ele>
        <time>2022-06-17T14:26:10.000Z</time>
      </trkpt>
      <trkpt lat="49.87852" lon="4.81944">
        <ele>271</ele>
        <time>2022-06-17T14:26:11.000Z</time>
      </trkpt>
      <trkpt lat="49.8785" lon="4.81945">
        <ele>271</ele>
        <time>2022-06-17T14:26:12.000Z</time>
      </trkpt>
      <trkpt lat="49.87848" lon="4.81947">
        <ele>272</ele>
        <time>2022-06-17T14:26:13.000Z</time>
      </trkpt>
      <trkpt lat="49.87847" lon="4.81948">
        <ele>272</ele>
        <time>2022-06-17T14:26:14.000Z</time>
      </trkpt>
      <trkpt lat="49.87845" lon="4.8195">
        <ele>272</ele>
        <time>2022-06-17T14:26:15.000Z</time>
      </trkpt>
      <trkpt lat="49.87844" lon="4.81952">
        <ele>272</ele>
        <time>2022-06-17T14:26:16.000Z</time>
      </trkpt>
      <trkpt lat="49.87842" lon="4.81954">
        <ele>272</ele>
        <time>2022-06-17T14:26:17.000Z</time>
      </trkpt>
      <trkpt lat="49.87841" lon="4.81957">
        <ele>272</ele>
        <time>2022-06-17T14:26:18.000Z</time>
      </trkpt>
      <trkpt lat="49.87839" lon="4.81959">
        <ele>273</ele>
        <time>2022-06-17T14:26:19.000Z</time>
      </trkpt>
      <trkpt lat="49.87837" lon="4.81962">
        <ele>273</ele>
        <time>2022-06-17T14:26:20.000Z</time>
      </trkpt>
      <trkpt lat="49.87835" lon="4.81965">
        <ele>273</ele>
        <time>2022-06-17T14:26:21.000Z</time>
      </trkpt>
      <trkpt lat="49.87833" lon="4.81967">
        <ele>273</ele>
        <time>2022-06-17T14:26:22.000Z</time>
      </trkpt>
      <trkpt lat="49.87831" lon="4.8197">
        <ele>274</ele>
        <time>2022-06-17T14:26:23.000Z</time>
      </trkpt>
      <trkpt lat="49.87828" lon="4.81973">
        <ele>274</ele>
        <time>2022-06-17T14:26:24.000Z</time>
      </trkpt>
      <trkpt lat="49.87826" lon="4.81976">
        <ele>274</ele>
        <time>2022-06-17T14:26:25.000Z</time>
      </trkpt>
      <trkpt lat="49.87825" lon="4.81979">
        <ele>274</ele>
        <time>2022-06-17T14:26:26.000Z</time>
      </trkpt>
      <trkpt lat="49.87823" lon="4.81982">
        <ele>275</ele>
        <time>2022-06-17T14:26:27.000Z</time>
      </trkpt>
      <trkpt lat="49.87821" lon="4.81985">
        <ele>275</ele>
        <time>2022-06-17T14:26:28.000Z</time>
      </trkpt>
      <trkpt lat="49.87819" lon="4.81988">
        <ele>275</ele>
        <time>2022-06-17T14:26:29.000Z</time>
      </trkpt>
      <trkpt lat="49.87817" lon="4.8199">
        <ele>275</ele>
        <time>2022-06-17T14:26:30.000Z</time>
      </trkpt>
      <trkpt lat="49.87815" lon="4.81993">
        <ele>276</ele>
        <time>2022-06-17T14:26:31.000Z</time>
      </trkpt>
      <trkpt lat="49.87814" lon="4.81995">
        <ele>276</ele>
        <time>2022-06-17T14:26:32.000Z</time>
      </trkpt>
      <trkpt lat="49.87812" lon="4.81998">
        <ele>276</ele>
        <time>2022-06-17T14:26:33.000Z</time>
      </trkpt>
      <trkpt lat="49.8781" lon="4.82001">
        <ele>276</ele>
        <time>2022-06-17T14:26:34.000Z</time>
      </trkpt>
      <trkpt lat="49.87808" lon="4.82004">
        <ele>277</ele>
        <time>2022-06-17T14:26:35.000Z</time>
      </trkpt>
      <trkpt lat="49.87806" lon="4.82006">
        <ele>277</ele>
        <time>2022-06-17T14:26:36.000Z</time>
      </trkpt>
      <trkpt lat="49.87804" lon="4.82008">
        <ele>277</ele>
        <time>2022-06-17T14:26:37.000Z</time>
      </trkpt>
      <trkpt lat="49.87802" lon="4.82011">
        <ele>277</ele>
        <time>2022-06-17T14:26:38.000Z</time>
      </trkpt>
      <trkpt lat="49.878" lon="4.82014">
        <ele>278</ele>
        <time>2022-06-17T14:26:39.000Z</time>
      </trkpt>
      <trkpt lat="49.87798" lon="4.82017">
        <ele>278</ele>
        <time>2022-06-17T14:26:40.000Z</time>
      </trkpt>
      <trkpt lat="49.87796" lon="4.8202">
        <ele>278</ele>
        <time>2022-06-17T14:26:41.000Z</time>
      </trkpt>
      <trkpt lat="49.87794" lon="4.82023">
        <ele>279</ele>
        <time>2022-06-17T14:26:42.000Z</time>
      </trkpt>
      <trkpt lat="49.87792" lon="4.82027">
        <ele>279</ele>
        <time>2022-06-17T14:26:43.000Z</time>
      </trkpt>
      <trkpt lat="49.8779" lon="4.8203">
        <ele>279</ele>
        <time>2022-06-17T14:26:44.000Z</time>
      </trkpt>
      <trkpt lat="49.87788" lon="4.82033">
        <ele>279</ele>
        <time>2022-06-17T14:26:45.000Z</time>
      </trkpt>
      <trkpt lat="49.87786" lon="4.82037">
        <ele>280</ele>
        <time>2022-06-17T14:26:46.000Z</time>
      </trkpt>
      <trkpt lat="49.87784" lon="4.82039">
        <ele>280</ele>
        <time>2022-06-17T14:26:47.000Z</time>
      </trkpt>
      <trkpt lat="49.87782" lon="4.82042">
        <ele>280</ele>
        <time>2022-06-17T14:26:48.000Z</time>
      </trkpt>
      <trkpt lat="49.8778" lon="4.82044">
        <ele>280</ele>
        <time>2022-06-17T14:26:49.000Z</time>
      </trkpt>
      <trkpt lat="49.87777" lon="4.82047">
        <ele>280</ele>
        <time>2022-06-17T14:26:50.000Z</time>
      </trkpt>
      <trkpt lat="49.87775" lon="4.82049">
        <ele>280</ele>
        <time>2022-06-17T14:26:51.000Z</time>
      </trkpt>
      <trkpt lat="49.87773" lon="4.82051">
        <ele>280</ele>
        <time>2022-06-17T14:26:52.000Z</time>
      </trkpt>
      <trkpt lat="49.87771" lon="4.82054">
        <ele>280</ele>
        <time>2022-06-17T14:26:53.000Z</time>
      </trkpt>
      <trkpt lat="49.87769" lon="4.82057">
        <ele>281</ele>
        <time>2022-06-17T14:26:54.000Z</time>
      </trkpt>
      <trkpt lat="49.87766" lon="4.8206">
        <ele>281</ele>
        <time>2022-06-17T14:26:55.000Z</time>
      </trkpt>
      <trkpt lat="49.87764" lon="4.82063">
        <ele>281</ele>
        <time>2022-06-17T14:26:56.000Z</time>
      </trkpt>
      <trkpt lat="49.87762" lon="4.82067">
        <ele>281</ele>
        <time>2022-06-17T14:26:57.000Z</time>
      </trkpt>
      <trkpt lat="49.87759" lon="4.82069">
        <ele>281</ele>
        <time>2022-06-17T14:26:58.000Z</time>
      </trkpt>
      <trkpt lat="49.87757" lon="4.82072">
        <ele>281</ele>
        <time>2022-06-17T14:26:59.000Z</time>
      </trkpt>
      <trkpt lat="49.87755" lon="4.82075">
        <ele>281</ele>
        <time>2022-06-17T14:27:00.000Z</time>
      </trkpt>
      <trkpt lat="49.87753" lon="4.82078">
        <ele>281</ele>
        <time>2022-06-17T14:27:01.000Z</time>
      </trkpt>
      <trkpt lat="49.87751" lon="4.82081">
        <ele>281</ele>
        <time>2022-06-17T14:27:02.000Z</time>
      </trkpt>
      <trkpt lat="49.87749" lon="4.82084">
        <ele>282</ele>
        <time>2022-06-17T14:27:03.000Z</time>
      </trkpt>
      <trkpt lat="49.87746" lon="4.82087">
        <ele>282</ele>
        <time>2022-06-17T14:27:04.000Z</time>
      </trkpt>
      <trkpt lat="49.87745" lon="4.8209">
        <ele>282</ele>
        <time>2022-06-17T14:27:05.000Z</time>
      </trkpt>
      <trkpt lat="49.87742" lon="4.82093">
        <ele>282</ele>
        <time>2022-06-17T14:27:06.000Z</time>
      </trkpt>
      <trkpt lat="49.8774" lon="4.82096">
        <ele>282</ele>
        <time>2022-06-17T14:27:07.000Z</time>
      </trkpt>
      <trkpt lat="49.87738" lon="4.82098">
        <ele>283</ele>
        <time>2022-06-17T14:27:08.000Z</time>
      </trkpt>
      <trkpt lat="49.87736" lon="4.82102">
        <ele>283</ele>
        <time>2022-06-17T14:27:09.000Z</time>
      </trkpt>
      <trkpt lat="49.87733" lon="4.82105">
        <ele>283</ele>
        <time>2022-06-17T14:27:10.000Z</time>
      </trkpt>
      <trkpt lat="49.87731" lon="4.82108">
        <ele>283</ele>
        <time>2022-06-17T14:27:11.000Z</time>
      </trkpt>
      <trkpt lat="49.87729" lon="4.82111">
        <ele>284</ele>
        <time>2022-06-17T14:27:12.000Z</time>
      </trkpt>
      <trkpt lat="49.87726" lon="4.82115">
        <ele>284</ele>
        <time>2022-06-17T14:27:13.000Z</time>
      </trkpt>
      <trkpt lat="49.87724" lon="4.82118">
        <ele>284</ele>
        <time>2022-06-17T14:27:14.000Z</time>
      </trkpt>
      <trkpt lat="49.87722" lon="4.82122">
        <ele>284</ele>
        <time>2022-06-17T14:27:15.000Z</time>
      </trkpt>
      <trkpt lat="49.87719" lon="4.82126">
        <ele>284</ele>
        <time>2022-06-17T14:27:16.000Z</time>
      </trkpt>
      <trkpt lat="49.87717" lon="4.8213">
        <ele>284</ele>
        <time>2022-06-17T14:27:17.000Z</time>
      </trkpt>
      <trkpt lat="49.87714" lon="4.82133">
        <ele>284</ele>
        <time>2022-06-17T14:27:18.000Z</time>
      </trkpt>
      <trkpt lat="49.87712" lon="4.82138">
        <ele>284</ele>
        <time>2022-06-17T14:27:19.000Z</time>
      </trkpt>
      <trkpt lat="49.87709" lon="4.82142">
        <ele>284</ele>
        <time>2022-06-17T14:27:20.000Z</time>
      </trkpt>
      <trkpt lat="49.87706" lon="4.82148">
        <ele>284</ele>
        <time>2022-06-17T14:27:21.000Z</time>
      </trkpt>
      <trkpt lat="49.87703" lon="4.82153">
        <ele>283</ele>
        <time>2022-06-17T14:27:22.000Z</time>
      </trkpt>
      <trkpt lat="49.877" lon="4.82159">
        <ele>283</ele>
        <time>2022-06-17T14:27:23.000Z</time>
      </trkpt>
      <trkpt lat="49.87696" lon="4.82165">
        <ele>283</ele>
        <time>2022-06-17T14:27:24.000Z</time>
      </trkpt>
      <trkpt lat="49.87693" lon="4.82171">
        <ele>283</ele>
        <time>2022-06-17T14:27:25.000Z</time>
      </trkpt>
      <trkpt lat="49.87689" lon="4.82176">
        <ele>283</ele>
        <time>2022-06-17T14:27:26.000Z</time>
      </trkpt>
      <trkpt lat="49.87686" lon="4.82182">
        <ele>283</ele>
        <time>2022-06-17T14:27:27.000Z</time>
      </trkpt>
      <trkpt lat="49.87682" lon="4.82187">
        <ele>283</ele>
        <time>2022-06-17T14:27:28.000Z</time>
      </trkpt>
      <trkpt lat="49.87678" lon="4.82193">
        <ele>283</ele>
        <time>2022-06-17T14:27:29.000Z</time>
      </trkpt>
      <trkpt lat="49.87675" lon="4.82199">
        <ele>282</ele>
        <time>2022-06-17T14:27:30.000Z</time>
      </trkpt>
      <trkpt lat="49.87672" lon="4.82204">
        <ele>282</ele>
        <time>2022-06-17T14:27:31.000Z</time>
      </trkpt>
      <trkpt lat="49.87669" lon="4.8221">
        <ele>282</ele>
        <time>2022-06-17T14:27:32.000Z</time>
      </trkpt>
      <trkpt lat="49.87665" lon="4.82216">
        <ele>282</ele>
        <time>2022-06-17T14:27:33.000Z</time>
      </trkpt>
      <trkpt lat="49.87661" lon="4.82221">
        <ele>282</ele>
        <time>2022-06-17T14:27:34.000Z</time>
      </trkpt>
      <trkpt lat="49.87657" lon="4.82228">
        <ele>282</ele>
        <time>2022-06-17T14:27:35.000Z</time>
      </trkpt>
      <trkpt lat="49.87653" lon="4.82234">
        <ele>282</ele>
        <time>2022-06-17T14:27:36.000Z</time>
      </trkpt>
      <trkpt lat="49.87648" lon="4.82241">
        <ele>281</ele>
        <time>2022-06-17T14:27:37.000Z</time>
      </trkpt>
      <trkpt lat="49.87644" lon="4.82248">
        <ele>281</ele>
        <time>2022-06-17T14:27:38.000Z</time>
      </trkpt>
      <trkpt lat="49.8764" lon="4.82255">
        <ele>281</ele>
        <time>2022-06-17T14:27:39.000Z</time>
      </trkpt>
      <trkpt lat="49.87636" lon="4.82262">
        <ele>281</ele>
        <time>2022-06-17T14:27:40.000Z</time>
      </trkpt>
      <trkpt lat="49.87632" lon="4.82268">
        <ele>281</ele>
        <time>2022-06-17T14:27:41.000Z</time>
      </trkpt>
      <trkpt lat="49.87628" lon="4.82275">
        <ele>281</ele>
        <time>2022-06-17T14:27:42.000Z</time>
      </trkpt>
      <trkpt lat="49.87625" lon="4.82282">
        <ele>281</ele>
        <time>2022-06-17T14:27:43.000Z</time>
      </trkpt>
      <trkpt lat="49.87621" lon="4.82289">
        <ele>281</ele>
        <time>2022-06-17T14:27:44.000Z</time>
      </trkpt>
      <trkpt lat="49.87617" lon="4.82296">
        <ele>281</ele>
        <time>2022-06-17T14:27:45.000Z</time>
      </trkpt>
      <trkpt lat="49.87614" lon="4.82303">
        <ele>280</ele>
        <time>2022-06-17T14:27:46.000Z</time>
      </trkpt>
      <trkpt lat="49.8761" lon="4.82309">
        <ele>280</ele>
        <time>2022-06-17T14:27:47.000Z</time>
      </trkpt>
      <trkpt lat="49.87607" lon="4.82316">
        <ele>280</ele>
        <time>2022-06-17T14:27:48.000Z</time>
      </trkpt>
      <trkpt lat="49.87603" lon="4.82322">
        <ele>280</ele>
        <time>2022-06-17T14:27:49.000Z</time>
      </trkpt>
      <trkpt lat="49.87599" lon="4.82328">
        <ele>280</ele>
        <time>2022-06-17T14:27:50.000Z</time>
      </trkpt>
      <trkpt lat="49.87596" lon="4.82335">
        <ele>279</ele>
        <time>2022-06-17T14:27:51.000Z</time>
      </trkpt>
      <trkpt lat="49.87592" lon="4.82341">
        <ele>279</ele>
        <time>2022-06-17T14:27:52.000Z</time>
      </trkpt>
      <trkpt lat="49.87588" lon="4.82348">
        <ele>279</ele>
        <time>2022-06-17T14:27:53.000Z</time>
      </trkpt>
      <trkpt lat="49.87584" lon="4.82354">
        <ele>279</ele>
        <time>2022-06-17T14:27:54.000Z</time>
      </trkpt>
      <trkpt lat="49.87581" lon="4.8236">
        <ele>279</ele>
        <time>2022-06-17T14:27:55.000Z</time>
      </trkpt>
      <trkpt lat="49.87577" lon="4.82366">
        <ele>278</ele>
        <time>2022-06-17T14:27:56.000Z</time>
      </trkpt>
      <trkpt lat="49.87573" lon="4.82373">
        <ele>278</ele>
        <time>2022-06-17T14:27:57.000Z</time>
      </trkpt>
      <trkpt lat="49.87569" lon="4.82379">
        <ele>278</ele>
        <time>2022-06-17T14:27:58.000Z</time>
      </trkpt>
      <trkpt lat="49.87565" lon="4.82384">
        <ele>278</ele>
        <time>2022-06-17T14:27:59.000Z</time>
      </trkpt>
      <trkpt lat="49.87562" lon="4.8239">
        <ele>278</ele>
        <time>2022-06-17T14:28:00.000Z</time>
      </trkpt>
      <trkpt lat="49.87558" lon="4.82394">
        <ele>278</ele>
        <time>2022-06-17T14:28:01.000Z</time>
      </trkpt>
      <trkpt lat="49.87555" lon="4.82399">
        <ele>278</ele>
        <time>2022-06-17T14:28:02.000Z</time>
      </trkpt>
      <trkpt lat="49.87552" lon="4.82403">
        <ele>278</ele>
        <time>2022-06-17T14:28:03.000Z</time>
      </trkpt>
      <trkpt lat="49.87549" lon="4.82407">
        <ele>278</ele>
        <time>2022-06-17T14:28:04.000Z</time>
      </trkpt>
      <trkpt lat="49.87545" lon="4.8241">
        <ele>278</ele>
        <time>2022-06-17T14:28:05.000Z</time>
      </trkpt>
      <trkpt lat="49.87542" lon="4.82413">
        <ele>278</ele>
        <time>2022-06-17T14:28:06.000Z</time>
      </trkpt>
      <trkpt lat="49.87539" lon="4.82416">
        <ele>278</ele>
        <time>2022-06-17T14:28:07.000Z</time>
      </trkpt>
      <trkpt lat="49.87535" lon="4.82419">
        <ele>278</ele>
        <time>2022-06-17T14:28:08.000Z</time>
      </trkpt>
      <trkpt lat="49.87532" lon="4.82422">
        <ele>278</ele>
        <time>2022-06-17T14:28:09.000Z</time>
      </trkpt>
      <trkpt lat="49.87529" lon="4.82425">
        <ele>278</ele>
        <time>2022-06-17T14:28:10.000Z</time>
      </trkpt>
      <trkpt lat="49.87526" lon="4.82429">
        <ele>278</ele>
        <time>2022-06-17T14:28:11.000Z</time>
      </trkpt>
      <trkpt lat="49.87523" lon="4.82432">
        <ele>278</ele>
        <time>2022-06-17T14:28:12.000Z</time>
      </trkpt>
      <trkpt lat="49.87519" lon="4.82435">
        <ele>278</ele>
        <time>2022-06-17T14:28:13.000Z</time>
      </trkpt>
      <trkpt lat="49.87517" lon="4.82438">
        <ele>278</ele>
        <time>2022-06-17T14:28:14.000Z</time>
      </trkpt>
      <trkpt lat="49.87514" lon="4.82441">
        <ele>278</ele>
        <time>2022-06-17T14:28:15.000Z</time>
      </trkpt>
      <trkpt lat="49.87511" lon="4.82445">
        <ele>278</ele>
        <time>2022-06-17T14:28:16.000Z</time>
      </trkpt>
      <trkpt lat="49.87509" lon="4.82448">
        <ele>279</ele>
        <time>2022-06-17T14:28:17.000Z</time>
      </trkpt>
      <trkpt lat="49.87506" lon="4.8245">
        <ele>279</ele>
        <time>2022-06-17T14:28:18.000Z</time>
      </trkpt>
      <trkpt lat="49.87504" lon="4.82453">
        <ele>279</ele>
        <time>2022-06-17T14:28:19.000Z</time>
      </trkpt>
      <trkpt lat="49.87502" lon="4.82456">
        <ele>279</ele>
        <time>2022-06-17T14:28:20.000Z</time>
      </trkpt>
      <trkpt lat="49.87499" lon="4.82459">
        <ele>279</ele>
        <time>2022-06-17T14:28:21.000Z</time>
      </trkpt>
      <trkpt lat="49.87497" lon="4.82462">
        <ele>279</ele>
        <time>2022-06-17T14:28:22.000Z</time>
      </trkpt>
      <trkpt lat="49.87495" lon="4.82465">
        <ele>280</ele>
        <time>2022-06-17T14:28:23.000Z</time>
      </trkpt>
      <trkpt lat="49.87493" lon="4.82468">
        <ele>280</ele>
        <time>2022-06-17T14:28:24.000Z</time>
      </trkpt>
      <trkpt lat="49.87491" lon="4.8247">
        <ele>280</ele>
        <time>2022-06-17T14:28:25.000Z</time>
      </trkpt>
      <trkpt lat="49.87489" lon="4.82473">
        <ele>280</ele>
        <time>2022-06-17T14:28:26.000Z</time>
      </trkpt>
      <trkpt lat="49.87487" lon="4.82476">
        <ele>280</ele>
        <time>2022-06-17T14:28:27.000Z</time>
      </trkpt>
      <trkpt lat="49.87485" lon="4.82479">
        <ele>281</ele>
        <time>2022-06-17T14:28:28.000Z</time>
      </trkpt>
      <trkpt lat="49.87484" lon="4.82482">
        <ele>281</ele>
        <time>2022-06-17T14:28:29.000Z</time>
      </trkpt>
      <trkpt lat="49.87482" lon="4.82485">
        <ele>281</ele>
        <time>2022-06-17T14:28:30.000Z</time>
      </trkpt>
      <trkpt lat="49.8748" lon="4.82487">
        <ele>281</ele>
        <time>2022-06-17T14:28:31.000Z</time>
      </trkpt>
      <trkpt lat="49.87478" lon="4.82489">
        <ele>282</ele>
        <time>2022-06-17T14:28:32.000Z</time>
      </trkpt>
      <trkpt lat="49.87477" lon="4.82492">
        <ele>282</ele>
        <time>2022-06-17T14:28:33.000Z</time>
      </trkpt>
      <trkpt lat="49.87475" lon="4.82494">
        <ele>282</ele>
        <time>2022-06-17T14:28:34.000Z</time>
      </trkpt>
      <trkpt lat="49.87473" lon="4.82496">
        <ele>282</ele>
        <time>2022-06-17T14:28:35.000Z</time>
      </trkpt>
      <trkpt lat="49.87471" lon="4.82498">
        <ele>282</ele>
        <time>2022-06-17T14:28:36.000Z</time>
      </trkpt>
      <trkpt lat="49.8747" lon="4.825">
        <ele>282</ele>
        <time>2022-06-17T14:28:37.000Z</time>
      </trkpt>
      <trkpt lat="49.87468" lon="4.82502">
        <ele>282</ele>
        <time>2022-06-17T14:28:38.000Z</time>
      </trkpt>
      <trkpt lat="49.87466" lon="4.82504">
        <ele>283</ele>
        <time>2022-06-17T14:28:39.000Z</time>
      </trkpt>
      <trkpt lat="49.87464" lon="4.82506">
        <ele>283</ele>
        <time>2022-06-17T14:28:40.000Z</time>
      </trkpt>
      <trkpt lat="49.87463" lon="4.82508">
        <ele>283</ele>
        <time>2022-06-17T14:28:41.000Z</time>
      </trkpt>
      <trkpt lat="49.87461" lon="4.82509">
        <ele>283</ele>
        <time>2022-06-17T14:28:42.000Z</time>
      </trkpt>
      <trkpt lat="49.8746" lon="4.82511">
        <ele>283</ele>
        <time>2022-06-17T14:28:43.000Z</time>
      </trkpt>
      <trkpt lat="49.87459" lon="4.82513">
        <ele>284</ele>
        <time>2022-06-17T14:28:44.000Z</time>
      </trkpt>
      <trkpt lat="49.87457" lon="4.82515">
        <ele>284</ele>
        <time>2022-06-17T14:28:45.000Z</time>
      </trkpt>
      <trkpt lat="49.87456" lon="4.82518">
        <ele>284</ele>
        <time>2022-06-17T14:28:46.000Z</time>
      </trkpt>
      <trkpt lat="49.87454" lon="4.8252">
        <ele>284</ele>
        <time>2022-06-17T14:28:47.000Z</time>
      </trkpt>
      <trkpt lat="49.87453" lon="4.82521">
        <ele>284</ele>
        <time>2022-06-17T14:28:48.000Z</time>
      </trkpt>
      <trkpt lat="49.87452" lon="4.82524">
        <ele>284</ele>
        <time>2022-06-17T14:28:49.000Z</time>
      </trkpt>
      <trkpt lat="49.87451" lon="4.82526">
        <ele>285</ele>
        <time>2022-06-17T14:28:50.000Z</time>
      </trkpt>
      <trkpt lat="49.87449" lon="4.82529">
        <ele>285</ele>
        <time>2022-06-17T14:28:51.000Z</time>
      </trkpt>
      <trkpt lat="49.87448" lon="4.82531">
        <ele>285</ele>
        <time>2022-06-17T14:28:52.000Z</time>
      </trkpt>
      <trkpt lat="49.87447" lon="4.82533">
        <ele>285</ele>
        <time>2022-06-17T14:28:53.000Z</time>
      </trkpt>
      <trkpt lat="49.87445" lon="4.82535">
        <ele>286</ele>
        <time>2022-06-17T14:28:54.000Z</time>
      </trkpt>
      <trkpt lat="49.87444" lon="4.82537">
        <ele>286</ele>
        <time>2022-06-17T14:28:55.000Z</time>
      </trkpt>
      <trkpt lat="49.87443" lon="4.82539">
        <ele>286</ele>
        <time>2022-06-17T14:28:56.000Z</time>
      </trkpt>
      <trkpt lat="49.87442" lon="4.82541">
        <ele>286</ele>
        <time>2022-06-17T14:28:57.000Z</time>
      </trkpt>
      <trkpt lat="49.87441" lon="4.82543">
        <ele>287</ele>
        <time>2022-06-17T14:28:58.000Z</time>
      </trkpt>
      <trkpt lat="49.8744" lon="4.82544">
        <ele>287</ele>
        <time>2022-06-17T14:28:59.000Z</time>
      </trkpt>
      <trkpt lat="49.87439" lon="4.82546">
        <ele>287</ele>
        <time>2022-06-17T14:29:00.000Z</time>
      </trkpt>
      <trkpt lat="49.87438" lon="4.82548">
        <ele>287</ele>
        <time>2022-06-17T14:29:01.000Z</time>
      </trkpt>
      <trkpt lat="49.87436" lon="4.8255">
        <ele>288</ele>
        <time>2022-06-17T14:29:02.000Z</time>
      </trkpt>
      <trkpt lat="49.87435" lon="4.82551">
        <ele>288</ele>
        <time>2022-06-17T14:29:03.000Z</time>
      </trkpt>
      <trkpt lat="49.87434" lon="4.82553">
        <ele>288</ele>
        <time>2022-06-17T14:29:04.000Z</time>
      </trkpt>
      <trkpt lat="49.87433" lon="4.82554">
        <ele>288</ele>
        <time>2022-06-17T14:29:05.000Z</time>
      </trkpt>
      <trkpt lat="49.87431" lon="4.82556">
        <ele>289</ele>
        <time>2022-06-17T14:29:06.000Z</time>
      </trkpt>
      <trkpt lat="49.8743" lon="4.82558">
        <ele>289</ele>
        <time>2022-06-17T14:29:07.000Z</time>
      </trkpt>
      <trkpt lat="49.87428" lon="4.82559">
        <ele>289</ele>
        <time>2022-06-17T14:29:08.000Z</time>
      </trkpt>
      <trkpt lat="49.87427" lon="4.8256">
        <ele>289</ele>
        <time>2022-06-17T14:29:09.000Z</time>
      </trkpt>
      <trkpt lat="49.87426" lon="4.82562">
        <ele>290</ele>
        <time>2022-06-17T14:29:10.000Z</time>
      </trkpt>
      <trkpt lat="49.87424" lon="4.82563">
        <ele>290</ele>
        <time>2022-06-17T14:29:11.000Z</time>
      </trkpt>
      <trkpt lat="49.87423" lon="4.82565">
        <ele>290</ele>
        <time>2022-06-17T14:29:12.000Z</time>
      </trkpt>
      <trkpt lat="49.87422" lon="4.82566">
        <ele>290</ele>
        <time>2022-06-17T14:29:13.000Z</time>
      </trkpt>
      <trkpt lat="49.8742" lon="4.82568">
        <ele>290</ele>
        <time>2022-06-17T14:29:14.000Z</time>
      </trkpt>
      <trkpt lat="49.87419" lon="4.82569">
        <ele>291</ele>
        <time>2022-06-17T14:29:15.000Z</time>
      </trkpt>
      <trkpt lat="49.87418" lon="4.8257">
        <ele>291</ele>
        <time>2022-06-17T14:29:16.000Z</time>
      </trkpt>
      <trkpt lat="49.87416" lon="4.82572">
        <ele>291</ele>
        <time>2022-06-17T14:29:17.000Z</time>
      </trkpt>
      <trkpt lat="49.87415" lon="4.82574">
        <ele>291</ele>
        <time>2022-06-17T14:29:18.000Z</time>
      </trkpt>
      <trkpt lat="49.87414" lon="4.82575">
        <ele>291</ele>
        <time>2022-06-17T14:29:19.000Z</time>
      </trkpt>
      <trkpt lat="49.87413" lon="4.82577">
        <ele>292</ele>
        <time>2022-06-17T14:29:20.000Z</time>
      </trkpt>
      <trkpt lat="49.87411" lon="4.82578">
        <ele>292</ele>
        <time>2022-06-17T14:29:21.000Z</time>
      </trkpt>
      <trkpt lat="49.8741" lon="4.8258">
        <ele>292</ele>
        <time>2022-06-17T14:29:22.000Z</time>
      </trkpt>
      <trkpt lat="49.87409" lon="4.82582">
        <ele>292</ele>
        <time>2022-06-17T14:29:23.000Z</time>
      </trkpt>
      <trkpt lat="49.87407" lon="4.82583">
        <ele>293</ele>
        <time>2022-06-17T14:29:24.000Z</time>
      </trkpt>
      <trkpt lat="49.87406" lon="4.82584">
        <ele>293</ele>
        <time>2022-06-17T14:29:25.000Z</time>
      </trkpt>
      <trkpt lat="49.87404" lon="4.82586">
        <ele>293</ele>
        <time>2022-06-17T14:29:26.000Z</time>
      </trkpt>
      <trkpt lat="49.87403" lon="4.82587">
        <ele>294</ele>
        <time>2022-06-17T14:29:27.000Z</time>
      </trkpt>
      <trkpt lat="49.87402" lon="4.82589">
        <ele>294</ele>
        <time>2022-06-17T14:29:28.000Z</time>
      </trkpt>
      <trkpt lat="49.874" lon="4.8259">
        <ele>295</ele>
        <time>2022-06-17T14:29:29.000Z</time>
      </trkpt>
      <trkpt lat="49.87399" lon="4.82592">
        <ele>295</ele>
        <time>2022-06-17T14:29:30.000Z</time>
      </trkpt>
      <trkpt lat="49.87398" lon="4.82593">
        <ele>295</ele>
        <time>2022-06-17T14:29:31.000Z</time>
      </trkpt>
      <trkpt lat="49.87397" lon="4.82595">
        <ele>296</ele>
        <time>2022-06-17T14:29:32.000Z</time>
      </trkpt>
      <trkpt lat="49.87396" lon="4.82596">
        <ele>296</ele>
        <time>2022-06-17T14:29:33.000Z</time>
      </trkpt>
      <trkpt lat="49.87395" lon="4.82598">
        <ele>297</ele>
        <time>2022-06-17T14:29:34.000Z</time>
      </trkpt>
      <trkpt lat="49.87394" lon="4.826">
        <ele>297</ele>
        <time>2022-06-17T14:29:35.000Z</time>
      </trkpt>
      <trkpt lat="49.87393" lon="4.82602">
        <ele>297</ele>
        <time>2022-06-17T14:29:36.000Z</time>
      </trkpt>
      <trkpt lat="49.87392" lon="4.82604">
        <ele>298</ele>
        <time>2022-06-17T14:29:37.000Z</time>
      </trkpt>
      <trkpt lat="49.87391" lon="4.82606">
        <ele>298</ele>
        <time>2022-06-17T14:29:38.000Z</time>
      </trkpt>
      <trkpt lat="49.8739" lon="4.82607">
        <ele>298</ele>
        <time>2022-06-17T14:29:39.000Z</time>
      </trkpt>
      <trkpt lat="49.87389" lon="4.82609">
        <ele>298</ele>
        <time>2022-06-17T14:29:40.000Z</time>
      </trkpt>
      <trkpt lat="49.87388" lon="4.8261">
        <ele>299</ele>
        <time>2022-06-17T14:29:41.000Z</time>
      </trkpt>
      <trkpt lat="49.87387" lon="4.82611">
        <ele>299</ele>
        <time>2022-06-17T14:29:42.000Z</time>
      </trkpt>
      <trkpt lat="49.87386" lon="4.82613">
        <ele>299</ele>
        <time>2022-06-17T14:29:43.000Z</time>
      </trkpt>
      <trkpt lat="49.87385" lon="4.82615">
        <ele>299</ele>
        <time>2022-06-17T14:29:44.000Z</time>
      </trkpt>
      <trkpt lat="49.87384" lon="4.82617">
        <ele>300</ele>
        <time>2022-06-17T14:29:45.000Z</time>
      </trkpt>
      <trkpt lat="49.87383" lon="4.82618">
        <ele>300</ele>
        <time>2022-06-17T14:29:46.000Z</time>
      </trkpt>
      <trkpt lat="49.87382" lon="4.82619">
        <ele>300</ele>
        <time>2022-06-17T14:29:47.000Z</time>
      </trkpt>
      <trkpt lat="49.8738" lon="4.82621">
        <ele>300</ele>
        <time>2022-06-17T14:29:48.000Z</time>
      </trkpt>
      <trkpt lat="49.87379" lon="4.82622">
        <ele>300</ele>
        <time>2022-06-17T14:29:49.000Z</time>
      </trkpt>
      <trkpt lat="49.87378" lon="4.82623">
        <ele>301</ele>
        <time>2022-06-17T14:29:50.000Z</time>
      </trkpt>
      <trkpt lat="49.87376" lon="4.82624">
        <ele>301</ele>
        <time>2022-06-17T14:29:51.000Z</time>
      </trkpt>
      <trkpt lat="49.87375" lon="4.82625">
        <ele>301</ele>
        <time>2022-06-17T14:29:52.000Z</time>
      </trkpt>
      <trkpt lat="49.87374" lon="4.82627">
        <ele>301</ele>
        <time>2022-06-17T14:29:53.000Z</time>
      </trkpt>
      <trkpt lat="49.87372" lon="4.82628">
        <ele>301</ele>
        <time>2022-06-17T14:29:54.000Z</time>
      </trkpt>
      <trkpt lat="49.87371" lon="4.82629">
        <ele>302</ele>
        <time>2022-06-17T14:29:55.000Z</time>
      </trkpt>
      <trkpt lat="49.8737" lon="4.8263">
        <ele>302</ele>
        <time>2022-06-17T14:29:56.000Z</time>
      </trkpt>
      <trkpt lat="49.87369" lon="4.82631">
        <ele>302</ele>
        <time>2022-06-17T14:29:57.000Z</time>
      </trkpt>
      <trkpt lat="49.87368" lon="4.82632">
        <ele>303</ele>
        <time>2022-06-17T14:29:58.000Z</time>
      </trkpt>
      <trkpt lat="49.87367" lon="4.82633">
        <ele>303</ele>
        <time>2022-06-17T14:29:59.000Z</time>
      </trkpt>
      <trkpt lat="49.87366" lon="4.82635">
        <ele>303</ele>
        <time>2022-06-17T14:30:00.000Z</time>
      </trkpt>
      <trkpt lat="49.87365" lon="4.82636">
        <ele>304</ele>
        <time>2022-06-17T14:30:01.000Z</time>
      </trkpt>
      <trkpt lat="49.87364" lon="4.82637">
        <ele>305</ele>
        <time>2022-06-17T14:30:02.000Z</time>
      </trkpt>
      <trkpt lat="49.87363" lon="4.82639">
        <ele>305</ele>
        <time>2022-06-17T14:30:03.000Z</time>
      </trkpt>
      <trkpt lat="49.87362" lon="4.82641">
        <ele>305</ele>
        <time>2022-06-17T14:30:04.000Z</time>
      </trkpt>
      <trkpt lat="49.87362" lon="4.82643">
        <ele>306</ele>
        <time>2022-06-17T14:30:05.000Z</time>
      </trkpt>
      <trkpt lat="49.87361" lon="4.82645">
        <ele>306</ele>
        <time>2022-06-17T14:30:06.000Z</time>
      </trkpt>
      <trkpt lat="49.8736" lon="4.82647">
        <ele>307</ele>
        <time>2022-06-17T14:30:07.000Z</time>
      </trkpt>
      <trkpt lat="49.8736" lon="4.8265">
        <ele>307</ele>
        <time>2022-06-17T14:30:08.000Z</time>
      </trkpt>
      <trkpt lat="49.8736" lon="4.82652">
        <ele>307</ele>
        <time>2022-06-17T14:30:09.000Z</time>
      </trkpt>
      <trkpt lat="49.87359" lon="4.82655">
        <ele>307</ele>
        <time>2022-06-17T14:30:10.000Z</time>
      </trkpt>
      <trkpt lat="49.87359" lon="4.82657">
        <ele>308</ele>
        <time>2022-06-17T14:30:11.000Z</time>
      </trkpt>
      <trkpt lat="49.87358" lon="4.82658">
        <ele>308</ele>
        <time>2022-06-17T14:30:12.000Z</time>
      </trkpt>
      <trkpt lat="49.87357" lon="4.82659">
        <ele>308</ele>
        <time>2022-06-17T14:30:13.000Z</time>
      </trkpt>
      <trkpt lat="49.87356" lon="4.82661">
        <ele>309</ele>
        <time>2022-06-17T14:30:14.000Z</time>
      </trkpt>
      <trkpt lat="49.87355" lon="4.82662">
        <ele>309</ele>
        <time>2022-06-17T14:30:15.000Z</time>
      </trkpt>
      <trkpt lat="49.87353" lon="4.82661">
        <ele>309</ele>
        <time>2022-06-17T14:30:16.000Z</time>
      </trkpt>
      <trkpt lat="49.87352" lon="4.82662">
        <ele>309</ele>
        <time>2022-06-17T14:30:17.000Z</time>
      </trkpt>
      <trkpt lat="49.87352" lon="4.82662">
        <ele>309</ele>
        <time>2022-06-17T14:30:18.000Z</time>
      </trkpt>
      <trkpt lat="49.87351" lon="4.82662">
        <ele>309</ele>
        <time>2022-06-17T14:30:19.000Z</time>
      </trkpt>
      <trkpt lat="49.8735" lon="4.82664">
        <ele>310</ele>
        <time>2022-06-17T14:30:20.000Z</time>
      </trkpt>
      <trkpt lat="49.87349" lon="4.82665">
        <ele>310</ele>
        <time>2022-06-17T14:30:21.000Z</time>
      </trkpt>
      <trkpt lat="49.87349" lon="4.82667">
        <ele>310</ele>
        <time>2022-06-17T14:30:22.000Z</time>
      </trkpt>
      <trkpt lat="49.87349" lon="4.82669">
        <ele>311</ele>
        <time>2022-06-17T14:30:23.000Z</time>
      </trkpt>
      <trkpt lat="49.87348" lon="4.82671">
        <ele>311</ele>
        <time>2022-06-17T14:30:24.000Z</time>
      </trkpt>
      <trkpt lat="49.87348" lon="4.82673">
        <ele>311</ele>
        <time>2022-06-17T14:30:25.000Z</time>
      </trkpt>
      <trkpt lat="49.87347" lon="4.82675">
        <ele>312</ele>
        <time>2022-06-17T14:30:26.000Z</time>
      </trkpt>
      <trkpt lat="49.87346" lon="4.82676">
        <ele>312</ele>
        <time>2022-06-17T14:30:27.000Z</time>
      </trkpt>
      <trkpt lat="49.87346" lon="4.82677">
        <ele>312</ele>
        <time>2022-06-17T14:30:28.000Z</time>
      </trkpt>
      <trkpt lat="49.87345" lon="4.82678">
        <ele>312</ele>
        <time>2022-06-17T14:30:29.000Z</time>
      </trkpt>
      <trkpt lat="49.87344" lon="4.82678">
        <ele>312</ele>
        <time>2022-06-17T14:30:30.000Z</time>
      </trkpt>
      <trkpt lat="49.87343" lon="4.82677">
        <ele>312</ele>
        <time>2022-06-17T14:30:31.000Z</time>
      </trkpt>
      <trkpt lat="49.87342" lon="4.82677">
        <ele>313</ele>
        <time>2022-06-17T14:30:32.000Z</time>
      </trkpt>
      <trkpt lat="49.8734" lon="4.82678">
        <ele>313</ele>
        <time>2022-06-17T14:30:33.000Z</time>
      </trkpt>
      <trkpt lat="49.8734" lon="4.82679">
        <ele>313</ele>
        <time>2022-06-17T14:30:34.000Z</time>
      </trkpt>
      <trkpt lat="49.8734" lon="4.8268">
        <ele>313</ele>
        <time>2022-06-17T14:30:35.000Z</time>
      </trkpt>
      <trkpt lat="49.87341" lon="4.8268">
        <ele>313</ele>
        <time>2022-06-17T14:30:36.000Z</time>
      </trkpt>
      <trkpt lat="49.87342" lon="4.8268">
        <ele>313</ele>
        <time>2022-06-17T14:30:37.000Z</time>
      </trkpt>
      <trkpt lat="49.87344" lon="4.82678">
        <ele>313</ele>
        <time>2022-06-17T14:30:38.000Z</time>
      </trkpt>
      <trkpt lat="49.87345" lon="4.82677">
        <ele>314</ele>
        <time>2022-06-17T14:30:39.000Z</time>
      </trkpt>
      <trkpt lat="49.87348" lon="4.82676">
        <ele>314</ele>
        <time>2022-06-17T14:30:40.000Z</time>
      </trkpt>
      <trkpt lat="49.8735" lon="4.82676">
        <ele>314</ele>
        <time>2022-06-17T14:30:41.000Z</time>
      </trkpt>
      <trkpt lat="49.87351" lon="4.82676">
        <ele>314</ele>
        <time>2022-06-17T14:30:42.000Z</time>
      </trkpt>
      <trkpt lat="49.87352" lon="4.82678">
        <ele>314</ele>
        <time>2022-06-17T14:30:43.000Z</time>
      </trkpt>
      <trkpt lat="49.87353" lon="4.82679">
        <ele>314</ele>
        <time>2022-06-17T14:30:44.000Z</time>
      </trkpt>
      <trkpt lat="49.87354" lon="4.82681">
        <ele>314</ele>
        <time>2022-06-17T14:30:45.000Z</time>
      </trkpt>
      <trkpt lat="49.87356" lon="4.82684">
        <ele>314</ele>
        <time>2022-06-17T14:30:46.000Z</time>
      </trkpt>
      <trkpt lat="49.87358" lon="4.82686">
        <ele>314</ele>
        <time>2022-06-17T14:30:47.000Z</time>
      </trkpt>
      <trkpt lat="49.8736" lon="4.82688">
        <ele>314</ele>
        <time>2022-06-17T14:30:48.000Z</time>
      </trkpt>
      <trkpt lat="49.87363" lon="4.82688">
        <ele>314</ele>
        <time>2022-06-17T14:30:49.000Z</time>
      </trkpt>
      <trkpt lat="49.87367" lon="4.82688">
        <ele>314</ele>
        <time>2022-06-17T14:30:50.000Z</time>
      </trkpt>
      <trkpt lat="49.87371" lon="4.82688">
        <ele>315</ele>
        <time>2022-06-17T14:30:51.000Z</time>
      </trkpt>
      <trkpt lat="49.87375" lon="4.82689">
        <ele>315</ele>
        <time>2022-06-17T14:30:52.000Z</time>
      </trkpt>
      <trkpt lat="49.87379" lon="4.8269">
        <ele>315</ele>
        <time>2022-06-17T14:30:53.000Z</time>
      </trkpt>
      <trkpt lat="49.87383" lon="4.8269">
        <ele>315</ele>
        <time>2022-06-17T14:30:54.000Z</time>
      </trkpt>
      <trkpt lat="49.87387" lon="4.82689">
        <ele>315</ele>
        <time>2022-06-17T14:30:55.000Z</time>
      </trkpt>
      <trkpt lat="49.87392" lon="4.82689">
        <ele>315</ele>
        <time>2022-06-17T14:30:56.000Z</time>
      </trkpt>
      <trkpt lat="49.87395" lon="4.82688">
        <ele>315</ele>
        <time>2022-06-17T14:30:57.000Z</time>
      </trkpt>
      <trkpt lat="49.87398" lon="4.82687">
        <ele>315</ele>
        <time>2022-06-17T14:30:58.000Z</time>
      </trkpt>
      <trkpt lat="49.87401" lon="4.82686">
        <ele>315</ele>
        <time>2022-06-17T14:30:59.000Z</time>
      </trkpt>
      <trkpt lat="49.87403" lon="4.82686">
        <ele>315</ele>
        <time>2022-06-17T14:31:00.000Z</time>
      </trkpt>
      <trkpt lat="49.87405" lon="4.82686">
        <ele>315</ele>
        <time>2022-06-17T14:31:01.000Z</time>
      </trkpt>
      <trkpt lat="49.87407" lon="4.82685">
        <ele>315</ele>
        <time>2022-06-17T14:31:02.000Z</time>
      </trkpt>
      <trkpt lat="49.8741" lon="4.82685">
        <ele>315</ele>
        <time>2022-06-17T14:31:03.000Z</time>
      </trkpt>
      <trkpt lat="49.87413" lon="4.82684">
        <ele>315</ele>
        <time>2022-06-17T14:31:04.000Z</time>
      </trkpt>
      <trkpt lat="49.87416" lon="4.82685">
        <ele>314</ele>
        <time>2022-06-17T14:31:05.000Z</time>
      </trkpt>
      <trkpt lat="49.87419" lon="4.82684">
        <ele>314</ele>
        <time>2022-06-17T14:31:06.000Z</time>
      </trkpt>
      <trkpt lat="49.87422" lon="4.82682">
        <ele>314</ele>
        <time>2022-06-17T14:31:07.000Z</time>
      </trkpt>
      <trkpt lat="49.87425" lon="4.82681">
        <ele>314</ele>
        <time>2022-06-17T14:31:08.000Z</time>
      </trkpt>
      <trkpt lat="49.87428" lon="4.8268">
        <ele>314</ele>
        <time>2022-06-17T14:31:09.000Z</time>
      </trkpt>
      <trkpt lat="49.8743" lon="4.82678">
        <ele>314</ele>
        <time>2022-06-17T14:31:10.000Z</time>
      </trkpt>
      <trkpt lat="49.87432" lon="4.82676">
        <ele>314</ele>
        <time>2022-06-17T14:31:11.000Z</time>
      </trkpt>
      <trkpt lat="49.87434" lon="4.82673">
        <ele>314</ele>
        <time>2022-06-17T14:31:12.000Z</time>
      </trkpt>
      <trkpt lat="49.87435" lon="4.82669">
        <ele>313</ele>
        <time>2022-06-17T14:31:13.000Z</time>
      </trkpt>
      <trkpt lat="49.87435" lon="4.82665">
        <ele>313</ele>
        <time>2022-06-17T14:31:14.000Z</time>
      </trkpt>
      <trkpt lat="49.87436" lon="4.8266">
        <ele>313</ele>
        <time>2022-06-17T14:31:15.000Z</time>
      </trkpt>
      <trkpt lat="49.87436" lon="4.82653">
        <ele>312</ele>
        <time>2022-06-17T14:31:16.000Z</time>
      </trkpt>
      <trkpt lat="49.87438" lon="4.82647">
        <ele>312</ele>
        <time>2022-06-17T14:31:17.000Z</time>
      </trkpt>
      <trkpt lat="49.8744" lon="4.82642">
        <ele>312</ele>
        <time>2022-06-17T14:31:18.000Z</time>
      </trkpt>
      <trkpt lat="49.87444" lon="4.82637">
        <ele>311</ele>
        <time>2022-06-17T14:31:19.000Z</time>
      </trkpt>
      <trkpt lat="49.87446" lon="4.82633">
        <ele>311</ele>
        <time>2022-06-17T14:31:20.000Z</time>
      </trkpt>
      <trkpt lat="49.87448" lon="4.82632">
        <ele>310</ele>
        <time>2022-06-17T14:31:21.000Z</time>
      </trkpt>
      <trkpt lat="49.8745" lon="4.82633">
        <ele>310</ele>
        <time>2022-06-17T14:31:22.000Z</time>
      </trkpt>
      <trkpt lat="49.87452" lon="4.82634">
        <ele>310</ele>
        <time>2022-06-17T14:31:23.000Z</time>
      </trkpt>
      <trkpt lat="49.87453" lon="4.82636">
        <ele>310</ele>
        <time>2022-06-17T14:31:24.000Z</time>
      </trkpt>
      <trkpt lat="49.87453" lon="4.8264">
        <ele>309</ele>
        <time>2022-06-17T14:31:25.000Z</time>
      </trkpt>
      <trkpt lat="49.87453" lon="4.82645">
        <ele>309</ele>
        <time>2022-06-17T14:31:26.000Z</time>
      </trkpt>
      <trkpt lat="49.87452" lon="4.82652">
        <ele>309</ele>
        <time>2022-06-17T14:31:27.000Z</time>
      </trkpt>
      <trkpt lat="49.87452" lon="4.82658">
        <ele>309</ele>
        <time>2022-06-17T14:31:28.000Z</time>
      </trkpt>
      <trkpt lat="49.87451" lon="4.82663">
        <ele>308</ele>
        <time>2022-06-17T14:31:29.000Z</time>
      </trkpt>
      <trkpt lat="49.87451" lon="4.82668">
        <ele>308</ele>
        <time>2022-06-17T14:31:30.000Z</time>
      </trkpt>
      <trkpt lat="49.87451" lon="4.82673">
        <ele>308</ele>
        <time>2022-06-17T14:31:31.000Z</time>
      </trkpt>
      <trkpt lat="49.87451" lon="4.82677">
        <ele>307</ele>
        <time>2022-06-17T14:31:32.000Z</time>
      </trkpt>
      <trkpt lat="49.87451" lon="4.82679">
        <ele>307</ele>
        <time>2022-06-17T14:31:33.000Z</time>
      </trkpt>
      <trkpt lat="49.87451" lon="4.82682">
        <ele>307</ele>
        <time>2022-06-17T14:31:34.000Z</time>
      </trkpt>
      <trkpt lat="49.87451" lon="4.82685">
        <ele>306</ele>
        <time>2022-06-17T14:31:35.000Z</time>
      </trkpt>
      <trkpt lat="49.87451" lon="4.82689">
        <ele>306</ele>
        <time>2022-06-17T14:31:36.000Z</time>
      </trkpt>
      <trkpt lat="49.8745" lon="4.82693">
        <ele>305</ele>
        <time>2022-06-17T14:31:37.000Z</time>
      </trkpt>
      <trkpt lat="49.8745" lon="4.82696">
        <ele>305</ele>
        <time>2022-06-17T14:31:38.000Z</time>
      </trkpt>
      <trkpt lat="49.87449" lon="4.82699">
        <ele>304</ele>
        <time>2022-06-17T14:31:39.000Z</time>
      </trkpt>
      <trkpt lat="49.87449" lon="4.82701">
        <ele>304</ele>
        <time>2022-06-17T14:31:40.000Z</time>
      </trkpt>
      <trkpt lat="49.87448" lon="4.82704">
        <ele>303</ele>
        <time>2022-06-17T14:31:41.000Z</time>
      </trkpt>
      <trkpt lat="49.87447" lon="4.82707">
        <ele>302</ele>
        <time>2022-06-17T14:31:42.000Z</time>
      </trkpt>
      <trkpt lat="49.87447" lon="4.8271">
        <ele>302</ele>
        <time>2022-06-17T14:31:43.000Z</time>
      </trkpt>
      <trkpt lat="49.87447" lon="4.82713">
        <ele>301</ele>
        <time>2022-06-17T14:31:44.000Z</time>
      </trkpt>
      <trkpt lat="49.87446" lon="4.82715">
        <ele>301</ele>
        <time>2022-06-17T14:31:45.000Z</time>
      </trkpt>
      <trkpt lat="49.87446" lon="4.82716">
        <ele>300</ele>
        <time>2022-06-17T14:31:46.000Z</time>
      </trkpt>
      <trkpt lat="49.87445" lon="4.82719">
        <ele>300</ele>
        <time>2022-06-17T14:31:47.000Z</time>
      </trkpt>
      <trkpt lat="49.87445" lon="4.82722">
        <ele>299</ele>
        <time>2022-06-17T14:31:48.000Z</time>
      </trkpt>
      <trkpt lat="49.87444" lon="4.82726">
        <ele>299</ele>
        <time>2022-06-17T14:31:49.000Z</time>
      </trkpt>
      <trkpt lat="49.87444" lon="4.82731">
        <ele>298</ele>
        <time>2022-06-17T14:31:50.000Z</time>
      </trkpt>
      <trkpt lat="49.87444" lon="4.82736">
        <ele>298</ele>
        <time>2022-06-17T14:31:51.000Z</time>
      </trkpt>
      <trkpt lat="49.87444" lon="4.82741">
        <ele>298</ele>
        <time>2022-06-17T14:31:52.000Z</time>
      </trkpt>
      <trkpt lat="49.87444" lon="4.82745">
        <ele>297</ele>
        <time>2022-06-17T14:31:53.000Z</time>
      </trkpt>
      <trkpt lat="49.87444" lon="4.82749">
        <ele>296</ele>
        <time>2022-06-17T14:31:54.000Z</time>
      </trkpt>
      <trkpt lat="49.87444" lon="4.82754">
        <ele>296</ele>
        <time>2022-06-17T14:31:55.000Z</time>
      </trkpt>
      <trkpt lat="49.87444" lon="4.82758">
        <ele>295</ele>
        <time>2022-06-17T14:31:56.000Z</time>
      </trkpt>
      <trkpt lat="49.87444" lon="4.82762">
        <ele>295</ele>
        <time>2022-06-17T14:31:57.000Z</time>
      </trkpt>
      <trkpt lat="49.87445" lon="4.82766">
        <ele>294</ele>
        <time>2022-06-17T14:31:58.000Z</time>
      </trkpt>
      <trkpt lat="49.87445" lon="4.8277">
        <ele>294</ele>
        <time>2022-06-17T14:31:59.000Z</time>
      </trkpt>
      <trkpt lat="49.87445" lon="4.82774">
        <ele>294</ele>
        <time>2022-06-17T14:32:00.000Z</time>
      </trkpt>
      <trkpt lat="49.87445" lon="4.82779">
        <ele>293</ele>
        <time>2022-06-17T14:32:01.000Z</time>
      </trkpt>
      <trkpt lat="49.87444" lon="4.82783">
        <ele>293</ele>
        <time>2022-06-17T14:32:02.000Z</time>
      </trkpt>
      <trkpt lat="49.87442" lon="4.82788">
        <ele>292</ele>
        <time>2022-06-17T14:32:03.000Z</time>
      </trkpt>
      <trkpt lat="49.8744" lon="4.82793">
        <ele>292</ele>
        <time>2022-06-17T14:32:04.000Z</time>
      </trkpt>
      <trkpt lat="49.87438" lon="4.82798">
        <ele>291</ele>
        <time>2022-06-17T14:32:05.000Z</time>
      </trkpt>
      <trkpt lat="49.87436" lon="4.82805">
        <ele>291</ele>
        <time>2022-06-17T14:32:06.000Z</time>
      </trkpt>
      <trkpt lat="49.87435" lon="4.82812">
        <ele>290</ele>
        <time>2022-06-17T14:32:07.000Z</time>
      </trkpt>
      <trkpt lat="49.87434" lon="4.82818">
        <ele>290</ele>
        <time>2022-06-17T14:32:08.000Z</time>
      </trkpt>
      <trkpt lat="49.87433" lon="4.82824">
        <ele>289</ele>
        <time>2022-06-17T14:32:09.000Z</time>
      </trkpt>
      <trkpt lat="49.87433" lon="4.82829">
        <ele>289</ele>
        <time>2022-06-17T14:32:10.000Z</time>
      </trkpt>
      <trkpt lat="49.87433" lon="4.82835">
        <ele>288</ele>
        <time>2022-06-17T14:32:11.000Z</time>
      </trkpt>
      <trkpt lat="49.87432" lon="4.8284">
        <ele>287</ele>
        <time>2022-06-17T14:32:12.000Z</time>
      </trkpt>
      <trkpt lat="49.87432" lon="4.82845">
        <ele>287</ele>
        <time>2022-06-17T14:32:13.000Z</time>
      </trkpt>
      <trkpt lat="49.87431" lon="4.82851">
        <ele>286</ele>
        <time>2022-06-17T14:32:14.000Z</time>
      </trkpt>
      <trkpt lat="49.87429" lon="4.82857">
        <ele>285</ele>
        <time>2022-06-17T14:32:15.000Z</time>
      </trkpt>
      <trkpt lat="49.87428" lon="4.82862">
        <ele>284</ele>
        <time>2022-06-17T14:32:16.000Z</time>
      </trkpt>
      <trkpt lat="49.87427" lon="4.82868">
        <ele>284</ele>
        <time>2022-06-17T14:32:17.000Z</time>
      </trkpt>
      <trkpt lat="49.87427" lon="4.82874">
        <ele>283</ele>
        <time>2022-06-17T14:32:18.000Z</time>
      </trkpt>
      <trkpt lat="49.87427" lon="4.82879">
        <ele>282</ele>
        <time>2022-06-17T14:32:19.000Z</time>
      </trkpt>
      <trkpt lat="49.87426" lon="4.82883">
        <ele>282</ele>
        <time>2022-06-17T14:32:20.000Z</time>
      </trkpt>
      <trkpt lat="49.87426" lon="4.82887">
        <ele>281</ele>
        <time>2022-06-17T14:32:21.000Z</time>
      </trkpt>
      <trkpt lat="49.87425" lon="4.82891">
        <ele>280</ele>
        <time>2022-06-17T14:32:22.000Z</time>
      </trkpt>
      <trkpt lat="49.87424" lon="4.82896">
        <ele>280</ele>
        <time>2022-06-17T14:32:23.000Z</time>
      </trkpt>
      <trkpt lat="49.87424" lon="4.829">
        <ele>279</ele>
        <time>2022-06-17T14:32:24.000Z</time>
      </trkpt>
      <trkpt lat="49.87423" lon="4.82903">
        <ele>279</ele>
        <time>2022-06-17T14:32:25.000Z</time>
      </trkpt>
      <trkpt lat="49.87422" lon="4.82906">
        <ele>278</ele>
        <time>2022-06-17T14:32:26.000Z</time>
      </trkpt>
      <trkpt lat="49.87422" lon="4.8291">
        <ele>277</ele>
        <time>2022-06-17T14:32:27.000Z</time>
      </trkpt>
      <trkpt lat="49.87421" lon="4.82914">
        <ele>277</ele>
        <time>2022-06-17T14:32:28.000Z</time>
      </trkpt>
      <trkpt lat="49.87421" lon="4.82918">
        <ele>276</ele>
        <time>2022-06-17T14:32:29.000Z</time>
      </trkpt>
      <trkpt lat="49.87421" lon="4.82921">
        <ele>276</ele>
        <time>2022-06-17T14:32:30.000Z</time>
      </trkpt>
      <trkpt lat="49.87421" lon="4.82924">
        <ele>275</ele>
        <time>2022-06-17T14:32:31.000Z</time>
      </trkpt>
      <trkpt lat="49.87421" lon="4.82927">
        <ele>275</ele>
        <time>2022-06-17T14:32:32.000Z</time>
      </trkpt>
      <trkpt lat="49.8742" lon="4.82931">
        <ele>274</ele>
        <time>2022-06-17T14:32:33.000Z</time>
      </trkpt>
      <trkpt lat="49.87418" lon="4.82934">
        <ele>273</ele>
        <time>2022-06-17T14:32:34.000Z</time>
      </trkpt>
      <trkpt lat="49.87418" lon="4.82938">
        <ele>272</ele>
        <time>2022-06-17T14:32:35.000Z</time>
      </trkpt>
      <trkpt lat="49.87418" lon="4.82942">
        <ele>272</ele>
        <time>2022-06-17T14:32:36.000Z</time>
      </trkpt>
      <trkpt lat="49.87418" lon="4.82947">
        <ele>271</ele>
        <time>2022-06-17T14:32:37.000Z</time>
      </trkpt>
      <trkpt lat="49.87418" lon="4.82951">
        <ele>270</ele>
        <time>2022-06-17T14:32:38.000Z</time>
      </trkpt>
      <trkpt lat="49.87419" lon="4.82955">
        <ele>270</ele>
        <time>2022-06-17T14:32:39.000Z</time>
      </trkpt>
      <trkpt lat="49.87419" lon="4.8296">
        <ele>269</ele>
        <time>2022-06-17T14:32:40.000Z</time>
      </trkpt>
      <trkpt lat="49.87421" lon="4.82965">
        <ele>268</ele>
        <time>2022-06-17T14:32:41.000Z</time>
      </trkpt>
      <trkpt lat="49.87423" lon="4.82971">
        <ele>268</ele>
        <time>2022-06-17T14:32:42.000Z</time>
      </trkpt>
      <trkpt lat="49.87426" lon="4.82977">
        <ele>267</ele>
        <time>2022-06-17T14:32:43.000Z</time>
      </trkpt>
      <trkpt lat="49.87428" lon="4.82982">
        <ele>266</ele>
        <time>2022-06-17T14:32:44.000Z</time>
      </trkpt>
      <trkpt lat="49.87429" lon="4.82988">
        <ele>266</ele>
        <time>2022-06-17T14:32:45.000Z</time>
      </trkpt>
      <trkpt lat="49.8743" lon="4.82994">
        <ele>265</ele>
        <time>2022-06-17T14:32:46.000Z</time>
      </trkpt>
      <trkpt lat="49.87432" lon="4.83">
        <ele>264</ele>
        <time>2022-06-17T14:32:47.000Z</time>
      </trkpt>
      <trkpt lat="49.87433" lon="4.83006">
        <ele>263</ele>
        <time>2022-06-17T14:32:48.000Z</time>
      </trkpt>
      <trkpt lat="49.87434" lon="4.83011">
        <ele>263</ele>
        <time>2022-06-17T14:32:49.000Z</time>
      </trkpt>
      <trkpt lat="49.87436" lon="4.83018">
        <ele>262</ele>
        <time>2022-06-17T14:32:50.000Z</time>
      </trkpt>
      <trkpt lat="49.87439" lon="4.83025">
        <ele>261</ele>
        <time>2022-06-17T14:32:51.000Z</time>
      </trkpt>
      <trkpt lat="49.87442" lon="4.83031">
        <ele>261</ele>
        <time>2022-06-17T14:32:52.000Z</time>
      </trkpt>
      <trkpt lat="49.87445" lon="4.83038">
        <ele>260</ele>
        <time>2022-06-17T14:32:53.000Z</time>
      </trkpt>
      <trkpt lat="49.87447" lon="4.83043">
        <ele>259</ele>
        <time>2022-06-17T14:32:54.000Z</time>
      </trkpt>
      <trkpt lat="49.87449" lon="4.83049">
        <ele>258</ele>
        <time>2022-06-17T14:32:55.000Z</time>
      </trkpt>
      <trkpt lat="49.8745" lon="4.83054">
        <ele>257</ele>
        <time>2022-06-17T14:32:56.000Z</time>
      </trkpt>
      <trkpt lat="49.87451" lon="4.83058">
        <ele>257</ele>
        <time>2022-06-17T14:32:57.000Z</time>
      </trkpt>
      <trkpt lat="49.87451" lon="4.83062">
        <ele>256</ele>
        <time>2022-06-17T14:32:58.000Z</time>
      </trkpt>
      <trkpt lat="49.87451" lon="4.83064">
        <ele>255</ele>
        <time>2022-06-17T14:32:59.000Z</time>
      </trkpt>
      <trkpt lat="49.87452" lon="4.83065">
        <ele>254</ele>
        <time>2022-06-17T14:33:00.000Z</time>
      </trkpt>
      <trkpt lat="49.87452" lon="4.83066">
        <ele>253</ele>
        <time>2022-06-17T14:33:01.000Z</time>
      </trkpt>
      <trkpt lat="49.87453" lon="4.83069">
        <ele>252</ele>
        <time>2022-06-17T14:33:02.000Z</time>
      </trkpt>
      <trkpt lat="49.87454" lon="4.83072">
        <ele>251</ele>
        <time>2022-06-17T14:33:03.000Z</time>
      </trkpt>
      <trkpt lat="49.87454" lon="4.83076">
        <ele>250</ele>
        <time>2022-06-17T14:33:04.000Z</time>
      </trkpt>
      <trkpt lat="49.87455" lon="4.8308">
        <ele>249</ele>
        <time>2022-06-17T14:33:05.000Z</time>
      </trkpt>
      <trkpt lat="49.87457" lon="4.83083">
        <ele>248</ele>
        <time>2022-06-17T14:33:06.000Z</time>
      </trkpt>
      <trkpt lat="49.8746" lon="4.83086">
        <ele>247</ele>
        <time>2022-06-17T14:33:07.000Z</time>
      </trkpt>
      <trkpt lat="49.87462" lon="4.8309">
        <ele>245</ele>
        <time>2022-06-17T14:33:08.000Z</time>
      </trkpt>
      <trkpt lat="49.87465" lon="4.83094">
        <ele>244</ele>
        <time>2022-06-17T14:33:09.000Z</time>
      </trkpt>
      <trkpt lat="49.87468" lon="4.83098">
        <ele>243</ele>
        <time>2022-06-17T14:33:10.000Z</time>
      </trkpt>
      <trkpt lat="49.87472" lon="4.83104">
        <ele>242</ele>
        <time>2022-06-17T14:33:11.000Z</time>
      </trkpt>
      <trkpt lat="49.87476" lon="4.8311">
        <ele>241</ele>
        <time>2022-06-17T14:33:12.000Z</time>
      </trkpt>
      <trkpt lat="49.87479" lon="4.83116">
        <ele>240</ele>
        <time>2022-06-17T14:33:13.000Z</time>
      </trkpt>
      <trkpt lat="49.87482" lon="4.83123">
        <ele>239</ele>
        <time>2022-06-17T14:33:14.000Z</time>
      </trkpt>
      <trkpt lat="49.87485" lon="4.8313">
        <ele>237</ele>
        <time>2022-06-17T14:33:15.000Z</time>
      </trkpt>
      <trkpt lat="49.87488" lon="4.83137">
        <ele>236</ele>
        <time>2022-06-17T14:33:16.000Z</time>
      </trkpt>
      <trkpt lat="49.87491" lon="4.83145">
        <ele>235</ele>
        <time>2022-06-17T14:33:17.000Z</time>
      </trkpt>
      <trkpt lat="49.87493" lon="4.83152">
        <ele>234</ele>
        <time>2022-06-17T14:33:18.000Z</time>
      </trkpt>
      <trkpt lat="49.87496" lon="4.83159">
        <ele>233</ele>
        <time>2022-06-17T14:33:19.000Z</time>
      </trkpt>
      <trkpt lat="49.87497" lon="4.83165">
        <ele>232</ele>
        <time>2022-06-17T14:33:20.000Z</time>
      </trkpt>
      <trkpt lat="49.875" lon="4.8317">
        <ele>231</ele>
        <time>2022-06-17T14:33:21.000Z</time>
      </trkpt>
      <trkpt lat="49.87502" lon="4.83176">
        <ele>230</ele>
        <time>2022-06-17T14:33:22.000Z</time>
      </trkpt>
      <trkpt lat="49.87505" lon="4.83184">
        <ele>229</ele>
        <time>2022-06-17T14:33:23.000Z</time>
      </trkpt>
      <trkpt lat="49.87506" lon="4.83192">
        <ele>228</ele>
        <time>2022-06-17T14:33:24.000Z</time>
      </trkpt>
      <trkpt lat="49.87508" lon="4.832">
        <ele>227</ele>
        <time>2022-06-17T14:33:25.000Z</time>
      </trkpt>
      <trkpt lat="49.87509" lon="4.83208">
        <ele>226</ele>
        <time>2022-06-17T14:33:26.000Z</time>
      </trkpt>
      <trkpt lat="49.8751" lon="4.83216">
        <ele>225</ele>
        <time>2022-06-17T14:33:27.000Z</time>
      </trkpt>
      <trkpt lat="49.87511" lon="4.83223">
        <ele>224</ele>
        <time>2022-06-17T14:33:28.000Z</time>
      </trkpt>
      <trkpt lat="49.87512" lon="4.8323">
        <ele>224</ele>
        <time>2022-06-17T14:33:29.000Z</time>
      </trkpt>
      <trkpt lat="49.87514" lon="4.83235">
        <ele>223</ele>
        <time>2022-06-17T14:33:30.000Z</time>
      </trkpt>
      <trkpt lat="49.87516" lon="4.83241">
        <ele>222</ele>
        <time>2022-06-17T14:33:31.000Z</time>
      </trkpt>
      <trkpt lat="49.87519" lon="4.83248">
        <ele>221</ele>
        <time>2022-06-17T14:33:32.000Z</time>
      </trkpt>
      <trkpt lat="49.8752" lon="4.83253">
        <ele>220</ele>
        <time>2022-06-17T14:33:33.000Z</time>
      </trkpt>
      <trkpt lat="49.87522" lon="4.83259">
        <ele>220</ele>
        <time>2022-06-17T14:33:34.000Z</time>
      </trkpt>
      <trkpt lat="49.87523" lon="4.83265">
        <ele>219</ele>
        <time>2022-06-17T14:33:35.000Z</time>
      </trkpt>
      <trkpt lat="49.87524" lon="4.8327">
        <ele>218</ele>
        <time>2022-06-17T14:33:36.000Z</time>
      </trkpt>
      <trkpt lat="49.87525" lon="4.83275">
        <ele>217</ele>
        <time>2022-06-17T14:33:37.000Z</time>
      </trkpt>
      <trkpt lat="49.87526" lon="4.83279">
        <ele>217</ele>
        <time>2022-06-17T14:33:38.000Z</time>
      </trkpt>
      <trkpt lat="49.87527" lon="4.83283">
        <ele>216</ele>
        <time>2022-06-17T14:33:39.000Z</time>
      </trkpt>
      <trkpt lat="49.87529" lon="4.83288">
        <ele>216</ele>
        <time>2022-06-17T14:33:40.000Z</time>
      </trkpt>
      <trkpt lat="49.8753" lon="4.83292">
        <ele>215</ele>
        <time>2022-06-17T14:33:41.000Z</time>
      </trkpt>
      <trkpt lat="49.87531" lon="4.83297">
        <ele>215</ele>
        <time>2022-06-17T14:33:42.000Z</time>
      </trkpt>
      <trkpt lat="49.87532" lon="4.83302">
        <ele>214</ele>
        <time>2022-06-17T14:33:43.000Z</time>
      </trkpt>
      <trkpt lat="49.87533" lon="4.83306">
        <ele>214</ele>
        <time>2022-06-17T14:33:44.000Z</time>
      </trkpt>
      <trkpt lat="49.87533" lon="4.8331">
        <ele>213</ele>
        <time>2022-06-17T14:33:45.000Z</time>
      </trkpt>
      <trkpt lat="49.87534" lon="4.83315">
        <ele>213</ele>
        <time>2022-06-17T14:33:46.000Z</time>
      </trkpt>
      <trkpt lat="49.87534" lon="4.83319">
        <ele>212</ele>
        <time>2022-06-17T14:33:47.000Z</time>
      </trkpt>
      <trkpt lat="49.87535" lon="4.83324">
        <ele>212</ele>
        <time>2022-06-17T14:33:48.000Z</time>
      </trkpt>
      <trkpt lat="49.87535" lon="4.83329">
        <ele>211</ele>
        <time>2022-06-17T14:33:49.000Z</time>
      </trkpt>
      <trkpt lat="49.87536" lon="4.83334">
        <ele>211</ele>
        <time>2022-06-17T14:33:50.000Z</time>
      </trkpt>
      <trkpt lat="49.87537" lon="4.83338">
        <ele>210</ele>
        <time>2022-06-17T14:33:51.000Z</time>
      </trkpt>
      <trkpt lat="49.87538" lon="4.83344">
        <ele>210</ele>
        <time>2022-06-17T14:33:52.000Z</time>
      </trkpt>
      <trkpt lat="49.87539" lon="4.83349">
        <ele>209</ele>
        <time>2022-06-17T14:33:53.000Z</time>
      </trkpt>
      <trkpt lat="49.87541" lon="4.83354">
        <ele>209</ele>
        <time>2022-06-17T14:33:54.000Z</time>
      </trkpt>
      <trkpt lat="49.87542" lon="4.83359">
        <ele>209</ele>
        <time>2022-06-17T14:33:55.000Z</time>
      </trkpt>
      <trkpt lat="49.87543" lon="4.83364">
        <ele>208</ele>
        <time>2022-06-17T14:33:56.000Z</time>
      </trkpt>
      <trkpt lat="49.87543" lon="4.8337">
        <ele>208</ele>
        <time>2022-06-17T14:33:57.000Z</time>
      </trkpt>
      <trkpt lat="49.87545" lon="4.83375">
        <ele>208</ele>
        <time>2022-06-17T14:33:58.000Z</time>
      </trkpt>
      <trkpt lat="49.87546" lon="4.83381">
        <ele>207</ele>
        <time>2022-06-17T14:33:59.000Z</time>
      </trkpt>
      <trkpt lat="49.87548" lon="4.83386">
        <ele>207</ele>
        <time>2022-06-17T14:34:00.000Z</time>
      </trkpt>
      <trkpt lat="49.8755" lon="4.83392">
        <ele>207</ele>
        <time>2022-06-17T14:34:01.000Z</time>
      </trkpt>
      <trkpt lat="49.87551" lon="4.83398">
        <ele>206</ele>
        <time>2022-06-17T14:34:02.000Z</time>
      </trkpt>
      <trkpt lat="49.87553" lon="4.83403">
        <ele>206</ele>
        <time>2022-06-17T14:34:03.000Z</time>
      </trkpt>
      <trkpt lat="49.87555" lon="4.83408">
        <ele>206</ele>
        <time>2022-06-17T14:34:04.000Z</time>
      </trkpt>
      <trkpt lat="49.87557" lon="4.83413">
        <ele>206</ele>
        <time>2022-06-17T14:34:05.000Z</time>
      </trkpt>
      <trkpt lat="49.87559" lon="4.83418">
        <ele>206</ele>
        <time>2022-06-17T14:34:06.000Z</time>
      </trkpt>
      <trkpt lat="49.87561" lon="4.83423">
        <ele>205</ele>
        <time>2022-06-17T14:34:07.000Z</time>
      </trkpt>
      <trkpt lat="49.87563" lon="4.83428">
        <ele>205</ele>
        <time>2022-06-17T14:34:08.000Z</time>
      </trkpt>
      <trkpt lat="49.87565" lon="4.83433">
        <ele>205</ele>
        <time>2022-06-17T14:34:09.000Z</time>
      </trkpt>
      <trkpt lat="49.87567" lon="4.83438">
        <ele>205</ele>
        <time>2022-06-17T14:34:10.000Z</time>
      </trkpt>
      <trkpt lat="49.87569" lon="4.83442">
        <ele>205</ele>
        <time>2022-06-17T14:34:11.000Z</time>
      </trkpt>
      <trkpt lat="49.87571" lon="4.83446">
        <ele>205</ele>
        <time>2022-06-17T14:34:12.000Z</time>
      </trkpt>
      <trkpt lat="49.87574" lon="4.8345">
        <ele>204</ele>
        <time>2022-06-17T14:34:13.000Z</time>
      </trkpt>
      <trkpt lat="49.87576" lon="4.83454">
        <ele>204</ele>
        <time>2022-06-17T14:34:14.000Z</time>
      </trkpt>
      <trkpt lat="49.87579" lon="4.83457">
        <ele>204</ele>
        <time>2022-06-17T14:34:15.000Z</time>
      </trkpt>
      <trkpt lat="49.87582" lon="4.83461">
        <ele>204</ele>
        <time>2022-06-17T14:34:16.000Z</time>
      </trkpt>
      <trkpt lat="49.87584" lon="4.83465">
        <ele>204</ele>
        <time>2022-06-17T14:34:17.000Z</time>
      </trkpt>
      <trkpt lat="49.87586" lon="4.83469">
        <ele>204</ele>
        <time>2022-06-17T14:34:18.000Z</time>
      </trkpt>
      <trkpt lat="49.87589" lon="4.83474">
        <ele>204</ele>
        <time>2022-06-17T14:34:19.000Z</time>
      </trkpt>
      <trkpt lat="49.87593" lon="4.83478">
        <ele>203</ele>
        <time>2022-06-17T14:34:20.000Z</time>
      </trkpt>
      <trkpt lat="49.87597" lon="4.83483">
        <ele>203</ele>
        <time>2022-06-17T14:34:21.000Z</time>
      </trkpt>
      <trkpt lat="49.876" lon="4.83487">
        <ele>203</ele>
        <time>2022-06-17T14:34:22.000Z</time>
      </trkpt>
      <trkpt lat="49.87604" lon="4.83491">
        <ele>203</ele>
        <time>2022-06-17T14:34:23.000Z</time>
      </trkpt>
      <trkpt lat="49.87609" lon="4.83495">
        <ele>203</ele>
        <time>2022-06-17T14:34:24.000Z</time>
      </trkpt>
      <trkpt lat="49.87614" lon="4.83498">
        <ele>203</ele>
        <time>2022-06-17T14:34:25.000Z</time>
      </trkpt>
      <trkpt lat="49.87619" lon="4.83502">
        <ele>202</ele>
        <time>2022-06-17T14:34:26.000Z</time>
      </trkpt>
      <trkpt lat="49.87624" lon="4.83504">
        <ele>202</ele>
        <time>2022-06-17T14:34:27.000Z</time>
      </trkpt>
      <trkpt lat="49.87628" lon="4.83506">
        <ele>202</ele>
        <time>2022-06-17T14:34:28.000Z</time>
      </trkpt>
      <trkpt lat="49.87632" lon="4.83508">
        <ele>202</ele>
        <time>2022-06-17T14:34:29.000Z</time>
      </trkpt>
      <trkpt lat="49.87635" lon="4.8351">
        <ele>202</ele>
        <time>2022-06-17T14:34:30.000Z</time>
      </trkpt>
      <trkpt lat="49.87637" lon="4.83511">
        <ele>202</ele>
        <time>2022-06-17T14:34:31.000Z</time>
      </trkpt>
      <trkpt lat="49.87637" lon="4.83513">
        <ele>202</ele>
        <time>2022-06-17T14:34:32.000Z</time>
      </trkpt>
      <trkpt lat="49.87637" lon="4.83514">
        <ele>202</ele>
        <time>2022-06-17T14:34:33.000Z</time>
      </trkpt>
      <trkpt lat="49.87637" lon="4.83516">
        <ele>202</ele>
        <time>2022-06-17T14:34:34.000Z</time>
      </trkpt>
      <trkpt lat="49.87636" lon="4.83518">
        <ele>202</ele>
        <time>2022-06-17T14:34:35.000Z</time>
      </trkpt>
      <trkpt lat="49.87635" lon="4.8352">
        <ele>202</ele>
        <time>2022-06-17T14:34:36.000Z</time>
      </trkpt>
      <trkpt lat="49.87635" lon="4.83521">
        <ele>202</ele>
        <time>2022-06-17T14:34:37.000Z</time>
      </trkpt>
      <trkpt lat="49.87634" lon="4.83522">
        <ele>202</ele>
        <time>2022-06-17T14:34:38.000Z</time>
      </trkpt>
      <trkpt lat="49.87634" lon="4.83524">
        <ele>202</ele>
        <time>2022-06-17T14:34:39.000Z</time>
      </trkpt>
      <trkpt lat="49.87634" lon="4.83526">
        <ele>202</ele>
        <time>2022-06-17T14:34:40.000Z</time>
      </trkpt>
      <trkpt lat="49.87634" lon="4.83528">
        <ele>202</ele>
        <time>2022-06-17T14:34:41.000Z</time>
      </trkpt>
      <trkpt lat="49.87634" lon="4.83531">
        <ele>202</ele>
        <time>2022-06-17T14:34:42.000Z</time>
      </trkpt>
      <trkpt lat="49.87635" lon="4.83534">
        <ele>202</ele>
        <time>2022-06-17T14:34:43.000Z</time>
      </trkpt>
      <trkpt lat="49.87636" lon="4.83537">
        <ele>202</ele>
        <time>2022-06-17T14:34:44.000Z</time>
      </trkpt>
      <trkpt lat="49.87637" lon="4.83539">
        <ele>202</ele>
        <time>2022-06-17T14:34:45.000Z</time>
      </trkpt>
      <trkpt lat="49.87639" lon="4.83542">
        <ele>202</ele>
        <time>2022-06-17T14:34:46.000Z</time>
      </trkpt>
      <trkpt lat="49.8764" lon="4.83545">
        <ele>202</ele>
        <time>2022-06-17T14:34:47.000Z</time>
      </trkpt>
      <trkpt lat="49.87642" lon="4.83547">
        <ele>202</ele>
        <time>2022-06-17T14:34:48.000Z</time>
      </trkpt>
      <trkpt lat="49.87643" lon="4.8355">
        <ele>202</ele>
        <time>2022-06-17T14:34:49.000Z</time>
      </trkpt>
      <trkpt lat="49.87644" lon="4.83553">
        <ele>202</ele>
        <time>2022-06-17T14:34:50.000Z</time>
      </trkpt>
      <trkpt lat="49.87645" lon="4.83556">
        <ele>201</ele>
        <time>2022-06-17T14:34:51.000Z</time>
      </trkpt>
      <trkpt lat="49.87647" lon="4.83559">
        <ele>201</ele>
        <time>2022-06-17T14:34:52.000Z</time>
      </trkpt>
      <trkpt lat="49.87649" lon="4.83562">
        <ele>201</ele>
        <time>2022-06-17T14:34:53.000Z</time>
      </trkpt>
      <trkpt lat="49.8765" lon="4.83565">
        <ele>202</ele>
        <time>2022-06-17T14:34:54.000Z</time>
      </trkpt>
      <trkpt lat="49.87652" lon="4.83568">
        <ele>202</ele>
        <time>2022-06-17T14:34:55.000Z</time>
      </trkpt>
      <trkpt lat="49.87654" lon="4.8357">
        <ele>202</ele>
        <time>2022-06-17T14:34:56.000Z</time>
      </trkpt>
      <trkpt lat="49.87655" lon="4.83572">
        <ele>202</ele>
        <time>2022-06-17T14:34:57.000Z</time>
      </trkpt>
      <trkpt lat="49.87656" lon="4.83575">
        <ele>202</ele>
        <time>2022-06-17T14:34:58.000Z</time>
      </trkpt>
      <trkpt lat="49.87658" lon="4.83577">
        <ele>202</ele>
        <time>2022-06-17T14:34:59.000Z</time>
      </trkpt>
      <trkpt lat="49.8766" lon="4.83579">
        <ele>202</ele>
        <time>2022-06-17T14:35:00.000Z</time>
      </trkpt>
      <trkpt lat="49.87661" lon="4.83582">
        <ele>202</ele>
        <time>2022-06-17T14:35:01.000Z</time>
      </trkpt>
      <trkpt lat="49.87663" lon="4.83585">
        <ele>202</ele>
        <time>2022-06-17T14:35:02.000Z</time>
      </trkpt>
      <trkpt lat="49.87666" lon="4.83588">
        <ele>202</ele>
        <time>2022-06-17T14:35:03.000Z</time>
      </trkpt>
      <trkpt lat="49.87668" lon="4.83591">
        <ele>202</ele>
        <time>2022-06-17T14:35:04.000Z</time>
      </trkpt>
      <trkpt lat="49.8767" lon="4.83594">
        <ele>202</ele>
        <time>2022-06-17T14:35:05.000Z</time>
      </trkpt>
      <trkpt lat="49.87672" lon="4.83598">
        <ele>202</ele>
        <time>2022-06-17T14:35:06.000Z</time>
      </trkpt>
      <trkpt lat="49.87674" lon="4.83601">
        <ele>202</ele>
        <time>2022-06-17T14:35:07.000Z</time>
      </trkpt>
      <trkpt lat="49.87677" lon="4.83605">
        <ele>202</ele>
        <time>2022-06-17T14:35:08.000Z</time>
      </trkpt>
      <trkpt lat="49.87679" lon="4.83608">
        <ele>202</ele>
        <time>2022-06-17T14:35:09.000Z</time>
      </trkpt>
      <trkpt lat="49.87682" lon="4.8361">
        <ele>202</ele>
        <time>2022-06-17T14:35:10.000Z</time>
      </trkpt>
      <trkpt lat="49.87684" lon="4.83613">
        <ele>202</ele>
        <time>2022-06-17T14:35:11.000Z</time>
      </trkpt>
      <trkpt lat="49.87686" lon="4.83615">
        <ele>202</ele>
        <time>2022-06-17T14:35:12.000Z</time>
      </trkpt>
      <trkpt lat="49.87689" lon="4.83617">
        <ele>203</ele>
        <time>2022-06-17T14:35:13.000Z</time>
      </trkpt>
      <trkpt lat="49.87691" lon="4.8362">
        <ele>203</ele>
        <time>2022-06-17T14:35:14.000Z</time>
      </trkpt>
      <trkpt lat="49.87693" lon="4.83622">
        <ele>203</ele>
        <time>2022-06-17T14:35:15.000Z</time>
      </trkpt>
      <trkpt lat="49.87695" lon="4.83624">
        <ele>203</ele>
        <time>2022-06-17T14:35:16.000Z</time>
      </trkpt>
      <trkpt lat="49.87696" lon="4.83627">
        <ele>203</ele>
        <time>2022-06-17T14:35:17.000Z</time>
      </trkpt>
      <trkpt lat="49.87698" lon="4.83629">
        <ele>203</ele>
        <time>2022-06-17T14:35:18.000Z</time>
      </trkpt>
      <trkpt lat="49.877" lon="4.8363">
        <ele>203</ele>
        <time>2022-06-17T14:35:19.000Z</time>
      </trkpt>
      <trkpt lat="49.87702" lon="4.83632">
        <ele>204</ele>
        <time>2022-06-17T14:35:20.000Z</time>
      </trkpt>
      <trkpt lat="49.87705" lon="4.83634">
        <ele>204</ele>
        <time>2022-06-17T14:35:21.000Z</time>
      </trkpt>
      <trkpt lat="49.87707" lon="4.83635">
        <ele>204</ele>
        <time>2022-06-17T14:35:22.000Z</time>
      </trkpt>
      <trkpt lat="49.8771" lon="4.83637">
        <ele>204</ele>
        <time>2022-06-17T14:35:23.000Z</time>
      </trkpt>
      <trkpt lat="49.87713" lon="4.83639">
        <ele>204</ele>
        <time>2022-06-17T14:35:24.000Z</time>
      </trkpt>
      <trkpt lat="49.87717" lon="4.8364">
        <ele>204</ele>
        <time>2022-06-17T14:35:25.000Z</time>
      </trkpt>
      <trkpt lat="49.87721" lon="4.83642">
        <ele>204</ele>
        <time>2022-06-17T14:35:26.000Z</time>
      </trkpt>
      <trkpt lat="49.87724" lon="4.83644">
        <ele>203</ele>
        <time>2022-06-17T14:35:27.000Z</time>
      </trkpt>
      <trkpt lat="49.87728" lon="4.83645">
        <ele>203</ele>
        <time>2022-06-17T14:35:28.000Z</time>
      </trkpt>
      <trkpt lat="49.87733" lon="4.83647">
        <ele>203</ele>
        <time>2022-06-17T14:35:29.000Z</time>
      </trkpt>
      <trkpt lat="49.87737" lon="4.83649">
        <ele>203</ele>
        <time>2022-06-17T14:35:30.000Z</time>
      </trkpt>
      <trkpt lat="49.8774" lon="4.83651">
        <ele>203</ele>
        <time>2022-06-17T14:35:31.000Z</time>
      </trkpt>
      <trkpt lat="49.87745" lon="4.83652">
        <ele>203</ele>
        <time>2022-06-17T14:35:32.000Z</time>
      </trkpt>
      <trkpt lat="49.87749" lon="4.83654">
        <ele>203</ele>
        <time>2022-06-17T14:35:33.000Z</time>
      </trkpt>
      <trkpt lat="49.87754" lon="4.83656">
        <ele>202</ele>
        <time>2022-06-17T14:35:34.000Z</time>
      </trkpt>
      <trkpt lat="49.87758" lon="4.83659">
        <ele>202</ele>
        <time>2022-06-17T14:35:35.000Z</time>
      </trkpt>
      <trkpt lat="49.87762" lon="4.83661">
        <ele>202</ele>
        <time>2022-06-17T14:35:36.000Z</time>
      </trkpt>
      <trkpt lat="49.87766" lon="4.83664">
        <ele>202</ele>
        <time>2022-06-17T14:35:37.000Z</time>
      </trkpt>
      <trkpt lat="49.87769" lon="4.83667">
        <ele>202</ele>
        <time>2022-06-17T14:35:38.000Z</time>
      </trkpt>
      <trkpt lat="49.87772" lon="4.83669">
        <ele>202</ele>
        <time>2022-06-17T14:35:39.000Z</time>
      </trkpt>
      <trkpt lat="49.87775" lon="4.83672">
        <ele>202</ele>
        <time>2022-06-17T14:35:40.000Z</time>
      </trkpt>
      <trkpt lat="49.87778" lon="4.83674">
        <ele>202</ele>
        <time>2022-06-17T14:35:41.000Z</time>
      </trkpt>
      <trkpt lat="49.87782" lon="4.83676">
        <ele>202</ele>
        <time>2022-06-17T14:35:42.000Z</time>
      </trkpt>
      <trkpt lat="49.87786" lon="4.83678">
        <ele>202</ele>
        <time>2022-06-17T14:35:43.000Z</time>
      </trkpt>
      <trkpt lat="49.8779" lon="4.83679">
        <ele>202</ele>
        <time>2022-06-17T14:35:44.000Z</time>
      </trkpt>
      <trkpt lat="49.87794" lon="4.83682">
        <ele>202</ele>
        <time>2022-06-17T14:35:45.000Z</time>
      </trkpt>
      <trkpt lat="49.87797" lon="4.83685">
        <ele>202</ele>
        <time>2022-06-17T14:35:46.000Z</time>
      </trkpt>
      <trkpt lat="49.878" lon="4.83688">
        <ele>202</ele>
        <time>2022-06-17T14:35:47.000Z</time>
      </trkpt>
      <trkpt lat="49.87803" lon="4.83691">
        <ele>202</ele>
        <time>2022-06-17T14:35:48.000Z</time>
      </trkpt>
      <trkpt lat="49.87806" lon="4.83694">
        <ele>202</ele>
        <time>2022-06-17T14:35:49.000Z</time>
      </trkpt>
      <trkpt lat="49.87809" lon="4.83697">
        <ele>202</ele>
        <time>2022-06-17T14:35:50.000Z</time>
      </trkpt>
      <trkpt lat="49.87811" lon="4.837">
        <ele>202</ele>
        <time>2022-06-17T14:35:51.000Z</time>
      </trkpt>
      <trkpt lat="49.87814" lon="4.83703">
        <ele>201</ele>
        <time>2022-06-17T14:35:52.000Z</time>
      </trkpt>
      <trkpt lat="49.87816" lon="4.83706">
        <ele>201</ele>
        <time>2022-06-17T14:35:53.000Z</time>
      </trkpt>
      <trkpt lat="49.87818" lon="4.83709">
        <ele>201</ele>
        <time>2022-06-17T14:35:54.000Z</time>
      </trkpt>
      <trkpt lat="49.87819" lon="4.83713">
        <ele>201</ele>
        <time>2022-06-17T14:35:55.000Z</time>
      </trkpt>
      <trkpt lat="49.87821" lon="4.83716">
        <ele>201</ele>
        <time>2022-06-17T14:35:56.000Z</time>
      </trkpt>
      <trkpt lat="49.87822" lon="4.83719">
        <ele>201</ele>
        <time>2022-06-17T14:35:57.000Z</time>
      </trkpt>
      <trkpt lat="49.87823" lon="4.83722">
        <ele>201</ele>
        <time>2022-06-17T14:35:58.000Z</time>
      </trkpt>
      <trkpt lat="49.87825" lon="4.83724">
        <ele>201</ele>
        <time>2022-06-17T14:35:59.000Z</time>
      </trkpt>
      <trkpt lat="49.87827" lon="4.83726">
        <ele>201</ele>
        <time>2022-06-17T14:36:00.000Z</time>
      </trkpt>
      <trkpt lat="49.87829" lon="4.83728">
        <ele>201</ele>
        <time>2022-06-17T14:36:01.000Z</time>
      </trkpt>
      <trkpt lat="49.87831" lon="4.8373">
        <ele>201</ele>
        <time>2022-06-17T14:36:02.000Z</time>
      </trkpt>
      <trkpt lat="49.87833" lon="4.83732">
        <ele>201</ele>
        <time>2022-06-17T14:36:03.000Z</time>
      </trkpt>
      <trkpt lat="49.87836" lon="4.83734">
        <ele>201</ele>
        <time>2022-06-17T14:36:04.000Z</time>
      </trkpt>
      <trkpt lat="49.87838" lon="4.83736">
        <ele>201</ele>
        <time>2022-06-17T14:36:05.000Z</time>
      </trkpt>
      <trkpt lat="49.8784" lon="4.83737">
        <ele>201</ele>
        <time>2022-06-17T14:36:06.000Z</time>
      </trkpt>
      <trkpt lat="49.87842" lon="4.83739">
        <ele>201</ele>
        <time>2022-06-17T14:36:07.000Z</time>
      </trkpt>
      <trkpt lat="49.87844" lon="4.83741">
        <ele>201</ele>
        <time>2022-06-17T14:36:08.000Z</time>
      </trkpt>
      <trkpt lat="49.87846" lon="4.83743">
        <ele>201</ele>
        <time>2022-06-17T14:36:09.000Z</time>
      </trkpt>
      <trkpt lat="49.87849" lon="4.83745">
        <ele>201</ele>
        <time>2022-06-17T14:36:10.000Z</time>
      </trkpt>
      <trkpt lat="49.8785" lon="4.83746">
        <ele>201</ele>
        <time>2022-06-17T14:36:11.000Z</time>
      </trkpt>
      <trkpt lat="49.87852" lon="4.83748">
        <ele>201</ele>
        <time>2022-06-17T14:36:12.000Z</time>
      </trkpt>
      <trkpt lat="49.87854" lon="4.8375">
        <ele>201</ele>
        <time>2022-06-17T14:36:13.000Z</time>
      </trkpt>
      <trkpt lat="49.87855" lon="4.83752">
        <ele>201</ele>
        <time>2022-06-17T14:36:14.000Z</time>
      </trkpt>
      <trkpt lat="49.87857" lon="4.83754">
        <ele>201</ele>
        <time>2022-06-17T14:36:15.000Z</time>
      </trkpt>
      <trkpt lat="49.87858" lon="4.83756">
        <ele>201</ele>
        <time>2022-06-17T14:36:16.000Z</time>
      </trkpt>
      <trkpt lat="49.8786" lon="4.83758">
        <ele>201</ele>
        <time>2022-06-17T14:36:17.000Z</time>
      </trkpt>
      <trkpt lat="49.87861" lon="4.8376">
        <ele>201</ele>
        <time>2022-06-17T14:36:18.000Z</time>
      </trkpt>
      <trkpt lat="49.87863" lon="4.83761">
        <ele>201</ele>
        <time>2022-06-17T14:36:19.000Z</time>
      </trkpt>
      <trkpt lat="49.87864" lon="4.83763">
        <ele>201</ele>
        <time>2022-06-17T14:36:20.000Z</time>
      </trkpt>
      <trkpt lat="49.87864" lon="4.83765">
        <ele>201</ele>
        <time>2022-06-17T14:36:21.000Z</time>
      </trkpt>
      <trkpt lat="49.87865" lon="4.83767">
        <ele>201</ele>
        <time>2022-06-17T14:36:22.000Z</time>
      </trkpt>
      <trkpt lat="49.87866" lon="4.83769">
        <ele>201</ele>
        <time>2022-06-17T14:36:23.000Z</time>
      </trkpt>
      <trkpt lat="49.87867" lon="4.8377">
        <ele>201</ele>
        <time>2022-06-17T14:36:24.000Z</time>
      </trkpt>
      <trkpt lat="49.87869" lon="4.83772">
        <ele>201</ele>
        <time>2022-06-17T14:36:25.000Z</time>
      </trkpt>
      <trkpt lat="49.8787" lon="4.83773">
        <ele>201</ele>
        <time>2022-06-17T14:36:26.000Z</time>
      </trkpt>
      <trkpt lat="49.87871" lon="4.83775">
        <ele>202</ele>
        <time>2022-06-17T14:36:27.000Z</time>
      </trkpt>
      <trkpt lat="49.87872" lon="4.83776">
        <ele>202</ele>
        <time>2022-06-17T14:36:28.000Z</time>
      </trkpt>
      <trkpt lat="49.87873" lon="4.83778">
        <ele>202</ele>
        <time>2022-06-17T14:36:29.000Z</time>
      </trkpt>
      <trkpt lat="49.87874" lon="4.83779">
        <ele>202</ele>
        <time>2022-06-17T14:36:30.000Z</time>
      </trkpt>
      <trkpt lat="49.87875" lon="4.83781">
        <ele>202</ele>
        <time>2022-06-17T14:36:31.000Z</time>
      </trkpt>
      <trkpt lat="49.87876" lon="4.83782">
        <ele>202</ele>
        <time>2022-06-17T14:36:32.000Z</time>
      </trkpt>
      <trkpt lat="49.87877" lon="4.83784">
        <ele>202</ele>
        <time>2022-06-17T14:36:33.000Z</time>
      </trkpt>
      <trkpt lat="49.87879" lon="4.83785">
        <ele>203</ele>
        <time>2022-06-17T14:36:34.000Z</time>
      </trkpt>
      <trkpt lat="49.8788" lon="4.83786">
        <ele>203</ele>
        <time>2022-06-17T14:36:35.000Z</time>
      </trkpt>
      <trkpt lat="49.87881" lon="4.83787">
        <ele>203</ele>
        <time>2022-06-17T14:36:36.000Z</time>
      </trkpt>
      <trkpt lat="49.87883" lon="4.83788">
        <ele>203</ele>
        <time>2022-06-17T14:36:37.000Z</time>
      </trkpt>
      <trkpt lat="49.87884" lon="4.83789">
        <ele>203</ele>
        <time>2022-06-17T14:36:38.000Z</time>
      </trkpt>
      <trkpt lat="49.87885" lon="4.83791">
        <ele>203</ele>
        <time>2022-06-17T14:36:39.000Z</time>
      </trkpt>
      <trkpt lat="49.87887" lon="4.83792">
        <ele>203</ele>
        <time>2022-06-17T14:36:40.000Z</time>
      </trkpt>
      <trkpt lat="49.87888" lon="4.83793">
        <ele>204</ele>
        <time>2022-06-17T14:36:41.000Z</time>
      </trkpt>
      <trkpt lat="49.87889" lon="4.83794">
        <ele>204</ele>
        <time>2022-06-17T14:36:42.000Z</time>
      </trkpt>
      <trkpt lat="49.8789" lon="4.83796">
        <ele>204</ele>
        <time>2022-06-17T14:36:43.000Z</time>
      </trkpt>
      <trkpt lat="49.87892" lon="4.83797">
        <ele>204</ele>
        <time>2022-06-17T14:36:44.000Z</time>
      </trkpt>
      <trkpt lat="49.87892" lon="4.83799">
        <ele>204</ele>
        <time>2022-06-17T14:36:45.000Z</time>
      </trkpt>
      <trkpt lat="49.87893" lon="4.838">
        <ele>204</ele>
        <time>2022-06-17T14:36:46.000Z</time>
      </trkpt>
      <trkpt lat="49.87894" lon="4.83801">
        <ele>205</ele>
        <time>2022-06-17T14:36:47.000Z</time>
      </trkpt>
      <trkpt lat="49.87895" lon="4.83802">
        <ele>205</ele>
        <time>2022-06-17T14:36:48.000Z</time>
      </trkpt>
      <trkpt lat="49.87896" lon="4.83804">
        <ele>205</ele>
        <time>2022-06-17T14:36:49.000Z</time>
      </trkpt>
      <trkpt lat="49.87897" lon="4.83805">
        <ele>205</ele>
        <time>2022-06-17T14:36:50.000Z</time>
      </trkpt>
      <trkpt lat="49.87898" lon="4.83807">
        <ele>206</ele>
        <time>2022-06-17T14:36:51.000Z</time>
      </trkpt>
      <trkpt lat="49.87899" lon="4.83808">
        <ele>206</ele>
        <time>2022-06-17T14:36:52.000Z</time>
      </trkpt>
      <trkpt lat="49.879" lon="4.83809">
        <ele>206</ele>
        <time>2022-06-17T14:36:53.000Z</time>
      </trkpt>
      <trkpt lat="49.87901" lon="4.8381">
        <ele>206</ele>
        <time>2022-06-17T14:36:54.000Z</time>
      </trkpt>
      <trkpt lat="49.87902" lon="4.83812">
        <ele>207</ele>
        <time>2022-06-17T14:36:55.000Z</time>
      </trkpt>
      <trkpt lat="49.87902" lon="4.83813">
        <ele>207</ele>
        <time>2022-06-17T14:36:56.000Z</time>
      </trkpt>
      <trkpt lat="49.87903" lon="4.83814">
        <ele>207</ele>
        <time>2022-06-17T14:36:57.000Z</time>
      </trkpt>
      <trkpt lat="49.87904" lon="4.83815">
        <ele>208</ele>
        <time>2022-06-17T14:36:58.000Z</time>
      </trkpt>
      <trkpt lat="49.87906" lon="4.83816">
        <ele>208</ele>
        <time>2022-06-17T14:36:59.000Z</time>
      </trkpt>
      <trkpt lat="49.87907" lon="4.83818">
        <ele>208</ele>
        <time>2022-06-17T14:37:00.000Z</time>
      </trkpt>
      <trkpt lat="49.87908" lon="4.83819">
        <ele>208</ele>
        <time>2022-06-17T14:37:01.000Z</time>
      </trkpt>
      <trkpt lat="49.87909" lon="4.8382">
        <ele>209</ele>
        <time>2022-06-17T14:37:02.000Z</time>
      </trkpt>
      <trkpt lat="49.8791" lon="4.83822">
        <ele>209</ele>
        <time>2022-06-17T14:37:03.000Z</time>
      </trkpt>
      <trkpt lat="49.87911" lon="4.83823">
        <ele>209</ele>
        <time>2022-06-17T14:37:04.000Z</time>
      </trkpt>
      <trkpt lat="49.87912" lon="4.83823">
        <ele>210</ele>
        <time>2022-06-17T14:37:05.000Z</time>
      </trkpt>
      <trkpt lat="49.87912" lon="4.83823">
        <ele>210</ele>
        <time>2022-06-17T14:37:06.000Z</time>
      </trkpt>
      <trkpt lat="49.87913" lon="4.83824">
        <ele>210</ele>
        <time>2022-06-17T14:37:07.000Z</time>
      </trkpt>
      <trkpt lat="49.87913" lon="4.83824">
        <ele>210</ele>
        <time>2022-06-17T14:37:08.000Z</time>
      </trkpt>
      <trkpt lat="49.87913" lon="4.83825">
        <ele>210</ele>
        <time>2022-06-17T14:37:09.000Z</time>
      </trkpt>
      <trkpt lat="49.87913" lon="4.83824">
        <ele>210</ele>
        <time>2022-06-17T14:37:10.000Z</time>
      </trkpt>
      <trkpt lat="49.87914" lon="4.83825">
        <ele>210</ele>
        <time>2022-06-17T14:37:11.000Z</time>
      </trkpt>
      <trkpt lat="49.87914" lon="4.83825">
        <ele>210</ele>
        <time>2022-06-17T14:37:12.000Z</time>
      </trkpt>
      <trkpt lat="49.87914" lon="4.83826">
        <ele>210</ele>
        <time>2022-06-17T14:37:13.000Z</time>
      </trkpt>
      <trkpt lat="49.87915" lon="4.83826">
        <ele>211</ele>
        <time>2022-06-17T14:37:14.000Z</time>
      </trkpt>
      <trkpt lat="49.87915" lon="4.83826">
        <ele>211</ele>
        <time>2022-06-17T14:37:15.000Z</time>
      </trkpt>
      <trkpt lat="49.87916" lon="4.83827">
        <ele>211</ele>
        <time>2022-06-17T14:37:16.000Z</time>
      </trkpt>
      <trkpt lat="49.87916" lon="4.83828">
        <ele>211</ele>
        <time>2022-06-17T14:37:17.000Z</time>
      </trkpt>
      <trkpt lat="49.87917" lon="4.83829">
        <ele>211</ele>
        <time>2022-06-17T14:37:18.000Z</time>
      </trkpt>
      <trkpt lat="49.87918" lon="4.83829">
        <ele>211</ele>
        <time>2022-06-17T14:37:19.000Z</time>
      </trkpt>
      <trkpt lat="49.87919" lon="4.8383">
        <ele>212</ele>
        <time>2022-06-17T14:37:20.000Z</time>
      </trkpt>
      <trkpt lat="49.87919" lon="4.83831">
        <ele>212</ele>
        <time>2022-06-17T14:37:21.000Z</time>
      </trkpt>
      <trkpt lat="49.8792" lon="4.83831">
        <ele>212</ele>
        <time>2022-06-17T14:37:22.000Z</time>
      </trkpt>
      <trkpt lat="49.87921" lon="4.83832">
        <ele>212</ele>
        <time>2022-06-17T14:37:23.000Z</time>
      </trkpt>
      <trkpt lat="49.87923" lon="4.83834">
        <ele>212</ele>
        <time>2022-06-17T14:37:24.000Z</time>
      </trkpt>
      <trkpt lat="49.87924" lon="4.83835">
        <ele>212</ele>
        <time>2022-06-17T14:37:25.000Z</time>
      </trkpt>
      <trkpt lat="49.87925" lon="4.83836">
        <ele>213</ele>
        <time>2022-06-17T14:37:26.000Z</time>
      </trkpt>
      <trkpt lat="49.87926" lon="4.83838">
        <ele>213</ele>
        <time>2022-06-17T14:37:27.000Z</time>
      </trkpt>
      <trkpt lat="49.87928" lon="4.8384">
        <ele>213</ele>
        <time>2022-06-17T14:37:28.000Z</time>
      </trkpt>
      <trkpt lat="49.87929" lon="4.83841">
        <ele>213</ele>
        <time>2022-06-17T14:37:29.000Z</time>
      </trkpt>
      <trkpt lat="49.87931" lon="4.83843">
        <ele>214</ele>
        <time>2022-06-17T14:37:30.000Z</time>
      </trkpt>
      <trkpt lat="49.87932" lon="4.83845">
        <ele>214</ele>
        <time>2022-06-17T14:37:31.000Z</time>
      </trkpt>
      <trkpt lat="49.87933" lon="4.83846">
        <ele>214</ele>
        <time>2022-06-17T14:37:32.000Z</time>
      </trkpt>
      <trkpt lat="49.87934" lon="4.83848">
        <ele>215</ele>
        <time>2022-06-17T14:37:33.000Z</time>
      </trkpt>
      <trkpt lat="49.87935" lon="4.8385">
        <ele>215</ele>
        <time>2022-06-17T14:37:34.000Z</time>
      </trkpt>
      <trkpt lat="49.87936" lon="4.83851">
        <ele>215</ele>
        <time>2022-06-17T14:37:35.000Z</time>
      </trkpt>
      <trkpt lat="49.87938" lon="4.83853">
        <ele>216</ele>
        <time>2022-06-17T14:37:36.000Z</time>
      </trkpt>
      <trkpt lat="49.87939" lon="4.83855">
        <ele>216</ele>
        <time>2022-06-17T14:37:37.000Z</time>
      </trkpt>
      <trkpt lat="49.8794" lon="4.83856">
        <ele>216</ele>
        <time>2022-06-17T14:37:38.000Z</time>
      </trkpt>
      <trkpt lat="49.87941" lon="4.83858">
        <ele>217</ele>
        <time>2022-06-17T14:37:39.000Z</time>
      </trkpt>
      <trkpt lat="49.87942" lon="4.8386">
        <ele>217</ele>
        <time>2022-06-17T14:37:40.000Z</time>
      </trkpt>
      <trkpt lat="49.87943" lon="4.83861">
        <ele>217</ele>
        <time>2022-06-17T14:37:41.000Z</time>
      </trkpt>
      <trkpt lat="49.87943" lon="4.83863">
        <ele>218</ele>
        <time>2022-06-17T14:37:42.000Z</time>
      </trkpt>
      <trkpt lat="49.87945" lon="4.83865">
        <ele>218</ele>
        <time>2022-06-17T14:37:43.000Z</time>
      </trkpt>
      <trkpt lat="49.87945" lon="4.83866">
        <ele>218</ele>
        <time>2022-06-17T14:37:44.000Z</time>
      </trkpt>
      <trkpt lat="49.87947" lon="4.83868">
        <ele>219</ele>
        <time>2022-06-17T14:37:45.000Z</time>
      </trkpt>
      <trkpt lat="49.87948" lon="4.83868">
        <ele>219</ele>
        <time>2022-06-17T14:37:46.000Z</time>
      </trkpt>
      <trkpt lat="49.87949" lon="4.83869">
        <ele>219</ele>
        <time>2022-06-17T14:37:47.000Z</time>
      </trkpt>
      <trkpt lat="49.8795" lon="4.83871">
        <ele>219</ele>
        <time>2022-06-17T14:37:48.000Z</time>
      </trkpt>
      <trkpt lat="49.8795" lon="4.83873">
        <ele>220</ele>
        <time>2022-06-17T14:37:49.000Z</time>
      </trkpt>
      <trkpt lat="49.8795" lon="4.83875">
        <ele>220</ele>
        <time>2022-06-17T14:37:50.000Z</time>
      </trkpt>
      <trkpt lat="49.87949" lon="4.83877">
        <ele>220</ele>
        <time>2022-06-17T14:37:51.000Z</time>
      </trkpt>
      <trkpt lat="49.87948" lon="4.83879">
        <ele>220</ele>
        <time>2022-06-17T14:37:52.000Z</time>
      </trkpt>
      <trkpt lat="49.87947" lon="4.8388">
        <ele>221</ele>
        <time>2022-06-17T14:37:53.000Z</time>
      </trkpt>
      <trkpt lat="49.87947" lon="4.83882">
        <ele>221</ele>
        <time>2022-06-17T14:37:54.000Z</time>
      </trkpt>
      <trkpt lat="49.87948" lon="4.83884">
        <ele>221</ele>
        <time>2022-06-17T14:37:55.000Z</time>
      </trkpt>
      <trkpt lat="49.87949" lon="4.83886">
        <ele>221</ele>
        <time>2022-06-17T14:37:56.000Z</time>
      </trkpt>
      <trkpt lat="49.87951" lon="4.83887">
        <ele>221</ele>
        <time>2022-06-17T14:37:57.000Z</time>
      </trkpt>
      <trkpt lat="49.87951" lon="4.83887">
        <ele>222</ele>
        <time>2022-06-17T14:37:58.000Z</time>
      </trkpt>
      <trkpt lat="49.87951" lon="4.83888">
        <ele>222</ele>
        <time>2022-06-17T14:37:59.000Z</time>
      </trkpt>
      <trkpt lat="49.87951" lon="4.83888">
        <ele>222</ele>
        <time>2022-06-17T14:38:00.000Z</time>
      </trkpt>
      <trkpt lat="49.87952" lon="4.83888">
        <ele>222</ele>
        <time>2022-06-17T14:38:01.000Z</time>
      </trkpt>
      <trkpt lat="49.87952" lon="4.83888">
        <ele>222</ele>
        <time>2022-06-17T14:38:02.000Z</time>
      </trkpt>
      <trkpt lat="49.87952" lon="4.83888">
        <ele>222</ele>
        <time>2022-06-17T14:38:03.000Z</time>
      </trkpt>
      <trkpt lat="49.87952" lon="4.83889">
        <ele>222</ele>
        <time>2022-06-17T14:38:04.000Z</time>
      </trkpt>
      <trkpt lat="49.87952" lon="4.83889">
        <ele>223</ele>
        <time>2022-06-17T14:38:05.000Z</time>
      </trkpt>
      <trkpt lat="49.87952" lon="4.8389">
        <ele>223</ele>
        <time>2022-06-17T14:38:06.000Z</time>
      </trkpt>
      <trkpt lat="49.87952" lon="4.8389">
        <ele>223</ele>
        <time>2022-06-17T14:38:07.000Z</time>
      </trkpt>
      <trkpt lat="49.87952" lon="4.8389">
        <ele>223</ele>
        <time>2022-06-17T14:38:08.000Z</time>
      </trkpt>
      <trkpt lat="49.87952" lon="4.8389">
        <ele>223</ele>
        <time>2022-06-17T14:38:09.000Z</time>
      </trkpt>
      <trkpt lat="49.87953" lon="4.8389">
        <ele>223</ele>
        <time>2022-06-17T14:38:10.000Z</time>
      </trkpt>
      <trkpt lat="49.87953" lon="4.83889">
        <ele>223</ele>
        <time>2022-06-17T14:38:11.000Z</time>
      </trkpt>
      <trkpt lat="49.87954" lon="4.83889">
        <ele>224</ele>
        <time>2022-06-17T14:38:12.000Z</time>
      </trkpt>
      <trkpt lat="49.87954" lon="4.83889">
        <ele>224</ele>
        <time>2022-06-17T14:38:13.000Z</time>
      </trkpt>
      <trkpt lat="49.87955" lon="4.83889">
        <ele>224</ele>
        <time>2022-06-17T14:38:14.000Z</time>
      </trkpt>
      <trkpt lat="49.87956" lon="4.8389">
        <ele>224</ele>
        <time>2022-06-17T14:38:15.000Z</time>
      </trkpt>
      <trkpt lat="49.87957" lon="4.8389">
        <ele>224</ele>
        <time>2022-06-17T14:38:16.000Z</time>
      </trkpt>
      <trkpt lat="49.87959" lon="4.83891">
        <ele>224</ele>
        <time>2022-06-17T14:38:17.000Z</time>
      </trkpt>
      <trkpt lat="49.8796" lon="4.83891">
        <ele>224</ele>
        <time>2022-06-17T14:38:18.000Z</time>
      </trkpt>
      <trkpt lat="49.87962" lon="4.83891">
        <ele>224</ele>
        <time>2022-06-17T14:38:19.000Z</time>
      </trkpt>
      <trkpt lat="49.87965" lon="4.8389">
        <ele>224</ele>
        <time>2022-06-17T14:38:20.000Z</time>
      </trkpt>
      <trkpt lat="49.87967" lon="4.8389">
        <ele>224</ele>
        <time>2022-06-17T14:38:21.000Z</time>
      </trkpt>
      <trkpt lat="49.8797" lon="4.83889">
        <ele>224</ele>
        <time>2022-06-17T14:38:22.000Z</time>
      </trkpt>
      <trkpt lat="49.87973" lon="4.83888">
        <ele>224</ele>
        <time>2022-06-17T14:38:23.000Z</time>
      </trkpt>
      <trkpt lat="49.87975" lon="4.83887">
        <ele>224</ele>
        <time>2022-06-17T14:38:24.000Z</time>
      </trkpt>
      <trkpt lat="49.87978" lon="4.83887">
        <ele>224</ele>
        <time>2022-06-17T14:38:25.000Z</time>
      </trkpt>
      <trkpt lat="49.87981" lon="4.83886">
        <ele>224</ele>
        <time>2022-06-17T14:38:26.000Z</time>
      </trkpt>
      <trkpt lat="49.87984" lon="4.83886">
        <ele>225</ele>
        <time>2022-06-17T14:38:27.000Z</time>
      </trkpt>
      <trkpt lat="49.87986" lon="4.83885">
        <ele>225</ele>
        <time>2022-06-17T14:38:28.000Z</time>
      </trkpt>
      <trkpt lat="49.87989" lon="4.83884">
        <ele>225</ele>
        <time>2022-06-17T14:38:29.000Z</time>
      </trkpt>
      <trkpt lat="49.87992" lon="4.83884">
        <ele>225</ele>
        <time>2022-06-17T14:38:30.000Z</time>
      </trkpt>
      <trkpt lat="49.87995" lon="4.83884">
        <ele>225</ele>
        <time>2022-06-17T14:38:31.000Z</time>
      </trkpt>
      <trkpt lat="49.87998" lon="4.83883">
        <ele>225</ele>
        <time>2022-06-17T14:38:32.000Z</time>
      </trkpt>
      <trkpt lat="49.88002" lon="4.83882">
        <ele>225</ele>
        <time>2022-06-17T14:38:33.000Z</time>
      </trkpt>
      <trkpt lat="49.88005" lon="4.83882">
        <ele>225</ele>
        <time>2022-06-17T14:38:34.000Z</time>
      </trkpt>
      <trkpt lat="49.88008" lon="4.83881">
        <ele>225</ele>
        <time>2022-06-17T14:38:35.000Z</time>
      </trkpt>
      <trkpt lat="49.88011" lon="4.83881">
        <ele>226</ele>
        <time>2022-06-17T14:38:36.000Z</time>
      </trkpt>
      <trkpt lat="49.88014" lon="4.83881">
        <ele>226</ele>
        <time>2022-06-17T14:38:37.000Z</time>
      </trkpt>
      <trkpt lat="49.88016" lon="4.8388">
        <ele>226</ele>
        <time>2022-06-17T14:38:38.000Z</time>
      </trkpt>
      <trkpt lat="49.88018" lon="4.8388">
        <ele>226</ele>
        <time>2022-06-17T14:38:39.000Z</time>
      </trkpt>
      <trkpt lat="49.8802" lon="4.8388">
        <ele>226</ele>
        <time>2022-06-17T14:38:40.000Z</time>
      </trkpt>
      <trkpt lat="49.88022" lon="4.8388">
        <ele>226</ele>
        <time>2022-06-17T14:38:41.000Z</time>
      </trkpt>
      <trkpt lat="49.88024" lon="4.83881">
        <ele>226</ele>
        <time>2022-06-17T14:38:42.000Z</time>
      </trkpt>
      <trkpt lat="49.88025" lon="4.83882">
        <ele>227</ele>
        <time>2022-06-17T14:38:43.000Z</time>
      </trkpt>
      <trkpt lat="49.88027" lon="4.83883">
        <ele>227</ele>
        <time>2022-06-17T14:38:44.000Z</time>
      </trkpt>
      <trkpt lat="49.88029" lon="4.83884">
        <ele>227</ele>
        <time>2022-06-17T14:38:45.000Z</time>
      </trkpt>
      <trkpt lat="49.88031" lon="4.83885">
        <ele>228</ele>
        <time>2022-06-17T14:38:46.000Z</time>
      </trkpt>
      <trkpt lat="49.88032" lon="4.83887">
        <ele>228</ele>
        <time>2022-06-17T14:38:47.000Z</time>
      </trkpt>
      <trkpt lat="49.88034" lon="4.83888">
        <ele>228</ele>
        <time>2022-06-17T14:38:48.000Z</time>
      </trkpt>
      <trkpt lat="49.88035" lon="4.83889">
        <ele>228</ele>
        <time>2022-06-17T14:38:49.000Z</time>
      </trkpt>
      <trkpt lat="49.88036" lon="4.8389">
        <ele>229</ele>
        <time>2022-06-17T14:38:50.000Z</time>
      </trkpt>
      <trkpt lat="49.88038" lon="4.83891">
        <ele>229</ele>
        <time>2022-06-17T14:38:51.000Z</time>
      </trkpt>
      <trkpt lat="49.8804" lon="4.83891">
        <ele>229</ele>
        <time>2022-06-17T14:38:52.000Z</time>
      </trkpt>
      <trkpt lat="49.88043" lon="4.83891">
        <ele>229</ele>
        <time>2022-06-17T14:38:53.000Z</time>
      </trkpt>
      <trkpt lat="49.88045" lon="4.83891">
        <ele>229</ele>
        <time>2022-06-17T14:38:54.000Z</time>
      </trkpt>
      <trkpt lat="49.88047" lon="4.83891">
        <ele>229</ele>
        <time>2022-06-17T14:38:55.000Z</time>
      </trkpt>
      <trkpt lat="49.88048" lon="4.83891">
        <ele>229</ele>
        <time>2022-06-17T14:38:56.000Z</time>
      </trkpt>
      <trkpt lat="49.88049" lon="4.83891">
        <ele>229</ele>
        <time>2022-06-17T14:38:57.000Z</time>
      </trkpt>
      <trkpt lat="49.88049" lon="4.83891">
        <ele>229</ele>
        <time>2022-06-17T14:38:58.000Z</time>
      </trkpt>
      <trkpt lat="49.88049" lon="4.83891">
        <ele>229</ele>
        <time>2022-06-17T14:38:59.000Z</time>
      </trkpt>
      <trkpt lat="49.88049" lon="4.83891">
        <ele>229</ele>
        <time>2022-06-17T14:39:00.000Z</time>
      </trkpt>
      <trkpt lat="49.88048" lon="4.83891">
        <ele>229</ele>
        <time>2022-06-17T14:39:01.000Z</time>
      </trkpt>
      <trkpt lat="49.88047" lon="4.83892">
        <ele>229</ele>
        <time>2022-06-17T14:39:02.000Z</time>
      </trkpt>
      <trkpt lat="49.88047" lon="4.83892">
        <ele>229</ele>
        <time>2022-06-17T14:39:03.000Z</time>
      </trkpt>
      <trkpt lat="49.88048" lon="4.83892">
        <ele>229</ele>
        <time>2022-06-17T14:39:04.000Z</time>
      </trkpt>
      <trkpt lat="49.88049" lon="4.83893">
        <ele>229</ele>
        <time>2022-06-17T14:39:05.000Z</time>
      </trkpt>
      <trkpt lat="49.8805" lon="4.83893">
        <ele>229</ele>
        <time>2022-06-17T14:39:06.000Z</time>
      </trkpt>
      <trkpt lat="49.88052" lon="4.83893">
        <ele>229</ele>
        <time>2022-06-17T14:39:07.000Z</time>
      </trkpt>
      <trkpt lat="49.88055" lon="4.83893">
        <ele>229</ele>
        <time>2022-06-17T14:39:08.000Z</time>
      </trkpt>
      <trkpt lat="49.88057" lon="4.83894">
        <ele>229</ele>
        <time>2022-06-17T14:39:09.000Z</time>
      </trkpt>
      <trkpt lat="49.88059" lon="4.83894">
        <ele>229</ele>
        <time>2022-06-17T14:39:10.000Z</time>
      </trkpt>
      <trkpt lat="49.88061" lon="4.83895">
        <ele>229</ele>
        <time>2022-06-17T14:39:11.000Z</time>
      </trkpt>
      <trkpt lat="49.88062" lon="4.83896">
        <ele>229</ele>
        <time>2022-06-17T14:39:12.000Z</time>
      </trkpt>
      <trkpt lat="49.88063" lon="4.83898">
        <ele>229</ele>
        <time>2022-06-17T14:39:13.000Z</time>
      </trkpt>
      <trkpt lat="49.88065" lon="4.83898">
        <ele>229</ele>
        <time>2022-06-17T14:39:14.000Z</time>
      </trkpt>
      <trkpt lat="49.88067" lon="4.83898">
        <ele>229</ele>
        <time>2022-06-17T14:39:15.000Z</time>
      </trkpt>
      <trkpt lat="49.88069" lon="4.83898">
        <ele>229</ele>
        <time>2022-06-17T14:39:16.000Z</time>
      </trkpt>
      <trkpt lat="49.88071" lon="4.83897">
        <ele>229</ele>
        <time>2022-06-17T14:39:17.000Z</time>
      </trkpt>
      <trkpt lat="49.88072" lon="4.83897">
        <ele>229</ele>
        <time>2022-06-17T14:39:18.000Z</time>
      </trkpt>
      <trkpt lat="49.88074" lon="4.83897">
        <ele>229</ele>
        <time>2022-06-17T14:39:19.000Z</time>
      </trkpt>
      <trkpt lat="49.88076" lon="4.83896">
        <ele>229</ele>
        <time>2022-06-17T14:39:20.000Z</time>
      </trkpt>
      <trkpt lat="49.88077" lon="4.83896">
        <ele>229</ele>
        <time>2022-06-17T14:39:21.000Z</time>
      </trkpt>
      <trkpt lat="49.88079" lon="4.83895">
        <ele>229</ele>
        <time>2022-06-17T14:39:22.000Z</time>
      </trkpt>
      <trkpt lat="49.8808" lon="4.83896">
        <ele>230</ele>
        <time>2022-06-17T14:39:23.000Z</time>
      </trkpt>
      <trkpt lat="49.88081" lon="4.83896">
        <ele>230</ele>
        <time>2022-06-17T14:39:24.000Z</time>
      </trkpt>
      <trkpt lat="49.88081" lon="4.83896">
        <ele>230</ele>
        <time>2022-06-17T14:39:25.000Z</time>
      </trkpt>
      <trkpt lat="49.88081" lon="4.83896">
        <ele>230</ele>
        <time>2022-06-17T14:39:26.000Z</time>
      </trkpt>
      <trkpt lat="49.88082" lon="4.83895">
        <ele>230</ele>
        <time>2022-06-17T14:39:27.000Z</time>
      </trkpt>
      <trkpt lat="49.88084" lon="4.83895">
        <ele>231</ele>
        <time>2022-06-17T14:39:28.000Z</time>
      </trkpt>
      <trkpt lat="49.88085" lon="4.83896">
        <ele>231</ele>
        <time>2022-06-17T14:39:29.000Z</time>
      </trkpt>
      <trkpt lat="49.88087" lon="4.83896">
        <ele>231</ele>
        <time>2022-06-17T14:39:30.000Z</time>
      </trkpt>
      <trkpt lat="49.88088" lon="4.83897">
        <ele>231</ele>
        <time>2022-06-17T14:39:31.000Z</time>
      </trkpt>
      <trkpt lat="49.88089" lon="4.83898">
        <ele>231</ele>
        <time>2022-06-17T14:39:32.000Z</time>
      </trkpt>
      <trkpt lat="49.88091" lon="4.83898">
        <ele>232</ele>
        <time>2022-06-17T14:39:33.000Z</time>
      </trkpt>
      <trkpt lat="49.88093" lon="4.83899">
        <ele>232</ele>
        <time>2022-06-17T14:39:34.000Z</time>
      </trkpt>
      <trkpt lat="49.88094" lon="4.83899">
        <ele>232</ele>
        <time>2022-06-17T14:39:35.000Z</time>
      </trkpt>
      <trkpt lat="49.88096" lon="4.83898">
        <ele>232</ele>
        <time>2022-06-17T14:39:36.000Z</time>
      </trkpt>
      <trkpt lat="49.88097" lon="4.83898">
        <ele>232</ele>
        <time>2022-06-17T14:39:37.000Z</time>
      </trkpt>
      <trkpt lat="49.88099" lon="4.83897">
        <ele>233</ele>
        <time>2022-06-17T14:39:38.000Z</time>
      </trkpt>
      <trkpt lat="49.881" lon="4.83898">
        <ele>233</ele>
        <time>2022-06-17T14:39:39.000Z</time>
      </trkpt>
      <trkpt lat="49.88102" lon="4.83898">
        <ele>233</ele>
        <time>2022-06-17T14:39:40.000Z</time>
      </trkpt>
      <trkpt lat="49.88104" lon="4.83898">
        <ele>233</ele>
        <time>2022-06-17T14:39:41.000Z</time>
      </trkpt>
      <trkpt lat="49.88106" lon="4.83897">
        <ele>233</ele>
        <time>2022-06-17T14:39:42.000Z</time>
      </trkpt>
      <trkpt lat="49.88108" lon="4.83896">
        <ele>233</ele>
        <time>2022-06-17T14:39:43.000Z</time>
      </trkpt>
      <trkpt lat="49.8811" lon="4.83894">
        <ele>233</ele>
        <time>2022-06-17T14:39:44.000Z</time>
      </trkpt>
      <trkpt lat="49.88113" lon="4.83894">
        <ele>233</ele>
        <time>2022-06-17T14:39:45.000Z</time>
      </trkpt>
      <trkpt lat="49.88114" lon="4.83894">
        <ele>233</ele>
        <time>2022-06-17T14:39:46.000Z</time>
      </trkpt>
      <trkpt lat="49.88116" lon="4.83894">
        <ele>233</ele>
        <time>2022-06-17T14:39:47.000Z</time>
      </trkpt>
      <trkpt lat="49.88118" lon="4.83894">
        <ele>233</ele>
        <time>2022-06-17T14:39:48.000Z</time>
      </trkpt>
      <trkpt lat="49.8812" lon="4.83895">
        <ele>233</ele>
        <time>2022-06-17T14:39:49.000Z</time>
      </trkpt>
      <trkpt lat="49.88121" lon="4.83896">
        <ele>233</ele>
        <time>2022-06-17T14:39:50.000Z</time>
      </trkpt>
      <trkpt lat="49.88123" lon="4.83897">
        <ele>233</ele>
        <time>2022-06-17T14:39:51.000Z</time>
      </trkpt>
      <trkpt lat="49.88124" lon="4.83897">
        <ele>234</ele>
        <time>2022-06-17T14:39:52.000Z</time>
      </trkpt>
      <trkpt lat="49.88126" lon="4.83897">
        <ele>234</ele>
        <time>2022-06-17T14:39:53.000Z</time>
      </trkpt>
      <trkpt lat="49.88127" lon="4.83897">
        <ele>234</ele>
        <time>2022-06-17T14:39:54.000Z</time>
      </trkpt>
      <trkpt lat="49.88128" lon="4.83897">
        <ele>234</ele>
        <time>2022-06-17T14:39:55.000Z</time>
      </trkpt>
      <trkpt lat="49.88129" lon="4.83897">
        <ele>234</ele>
        <time>2022-06-17T14:39:56.000Z</time>
      </trkpt>
      <trkpt lat="49.88129" lon="4.83897">
        <ele>234</ele>
        <time>2022-06-17T14:39:57.000Z</time>
      </trkpt>
      <trkpt lat="49.8813" lon="4.83897">
        <ele>234</ele>
        <time>2022-06-17T14:39:58.000Z</time>
      </trkpt>
      <trkpt lat="49.8813" lon="4.83898">
        <ele>234</ele>
        <time>2022-06-17T14:39:59.000Z</time>
      </trkpt>
      <trkpt lat="49.88131" lon="4.83898">
        <ele>234</ele>
        <time>2022-06-17T14:40:00.000Z</time>
      </trkpt>
      <trkpt lat="49.88132" lon="4.83899">
        <ele>235</ele>
        <time>2022-06-17T14:40:01.000Z</time>
      </trkpt>
      <trkpt lat="49.88133" lon="4.839">
        <ele>235</ele>
        <time>2022-06-17T14:40:02.000Z</time>
      </trkpt>
      <trkpt lat="49.88134" lon="4.83901">
        <ele>235</ele>
        <time>2022-06-17T14:40:03.000Z</time>
      </trkpt>
      <trkpt lat="49.88135" lon="4.83902">
        <ele>235</ele>
        <time>2022-06-17T14:40:04.000Z</time>
      </trkpt>
      <trkpt lat="49.88137" lon="4.83904">
        <ele>236</ele>
        <time>2022-06-17T14:40:05.000Z</time>
      </trkpt>
      <trkpt lat="49.88138" lon="4.83904">
        <ele>236</ele>
        <time>2022-06-17T14:40:06.000Z</time>
      </trkpt>
      <trkpt lat="49.88139" lon="4.83905">
        <ele>236</ele>
        <time>2022-06-17T14:40:07.000Z</time>
      </trkpt>
      <trkpt lat="49.8814" lon="4.83905">
        <ele>236</ele>
        <time>2022-06-17T14:40:08.000Z</time>
      </trkpt>
      <trkpt lat="49.88141" lon="4.83904">
        <ele>237</ele>
        <time>2022-06-17T14:40:09.000Z</time>
      </trkpt>
      <trkpt lat="49.88142" lon="4.83904">
        <ele>237</ele>
        <time>2022-06-17T14:40:10.000Z</time>
      </trkpt>
      <trkpt lat="49.88143" lon="4.83905">
        <ele>237</ele>
        <time>2022-06-17T14:40:11.000Z</time>
      </trkpt>
      <trkpt lat="49.88143" lon="4.83905">
        <ele>237</ele>
        <time>2022-06-17T14:40:12.000Z</time>
      </trkpt>
      <trkpt lat="49.88143" lon="4.83905">
        <ele>237</ele>
        <time>2022-06-17T14:40:13.000Z</time>
      </trkpt>
      <trkpt lat="49.88144" lon="4.83905">
        <ele>238</ele>
        <time>2022-06-17T14:40:14.000Z</time>
      </trkpt>
      <trkpt lat="49.88145" lon="4.83905">
        <ele>238</ele>
        <time>2022-06-17T14:40:15.000Z</time>
      </trkpt>
      <trkpt lat="49.88146" lon="4.83905">
        <ele>238</ele>
        <time>2022-06-17T14:40:16.000Z</time>
      </trkpt>
      <trkpt lat="49.88148" lon="4.83906">
        <ele>238</ele>
        <time>2022-06-17T14:40:17.000Z</time>
      </trkpt>
      <trkpt lat="49.88148" lon="4.83906">
        <ele>238</ele>
        <time>2022-06-17T14:40:18.000Z</time>
      </trkpt>
      <trkpt lat="49.88149" lon="4.83906">
        <ele>238</ele>
        <time>2022-06-17T14:40:19.000Z</time>
      </trkpt>
      <trkpt lat="49.88151" lon="4.83906">
        <ele>238</ele>
        <time>2022-06-17T14:40:20.000Z</time>
      </trkpt>
      <trkpt lat="49.88153" lon="4.83907">
        <ele>238</ele>
        <time>2022-06-17T14:40:21.000Z</time>
      </trkpt>
      <trkpt lat="49.88156" lon="4.83908">
        <ele>238</ele>
        <time>2022-06-17T14:40:22.000Z</time>
      </trkpt>
      <trkpt lat="49.88157" lon="4.83909">
        <ele>238</ele>
        <time>2022-06-17T14:40:23.000Z</time>
      </trkpt>
      <trkpt lat="49.88159" lon="4.8391">
        <ele>239</ele>
        <time>2022-06-17T14:40:24.000Z</time>
      </trkpt>
      <trkpt lat="49.88161" lon="4.83911">
        <ele>239</ele>
        <time>2022-06-17T14:40:25.000Z</time>
      </trkpt>
      <trkpt lat="49.88163" lon="4.8391">
        <ele>239</ele>
        <time>2022-06-17T14:40:26.000Z</time>
      </trkpt>
      <trkpt lat="49.88165" lon="4.83911">
        <ele>239</ele>
        <time>2022-06-17T14:40:27.000Z</time>
      </trkpt>
      <trkpt lat="49.88167" lon="4.83911">
        <ele>239</ele>
        <time>2022-06-17T14:40:28.000Z</time>
      </trkpt>
      <trkpt lat="49.88169" lon="4.83912">
        <ele>239</ele>
        <time>2022-06-17T14:40:29.000Z</time>
      </trkpt>
      <trkpt lat="49.88171" lon="4.83912">
        <ele>239</ele>
        <time>2022-06-17T14:40:30.000Z</time>
      </trkpt>
      <trkpt lat="49.88173" lon="4.83912">
        <ele>239</ele>
        <time>2022-06-17T14:40:31.000Z</time>
      </trkpt>
      <trkpt lat="49.88175" lon="4.83911">
        <ele>239</ele>
        <time>2022-06-17T14:40:32.000Z</time>
      </trkpt>
      <trkpt lat="49.88177" lon="4.83909">
        <ele>239</ele>
        <time>2022-06-17T14:40:33.000Z</time>
      </trkpt>
      <trkpt lat="49.8818" lon="4.83906">
        <ele>239</ele>
        <time>2022-06-17T14:40:34.000Z</time>
      </trkpt>
      <trkpt lat="49.88182" lon="4.83903">
        <ele>239</ele>
        <time>2022-06-17T14:40:35.000Z</time>
      </trkpt>
      <trkpt lat="49.88184" lon="4.83902">
        <ele>239</ele>
        <time>2022-06-17T14:40:36.000Z</time>
      </trkpt>
      <trkpt lat="49.88186" lon="4.83901">
        <ele>239</ele>
        <time>2022-06-17T14:40:37.000Z</time>
      </trkpt>
      <trkpt lat="49.88188" lon="4.839">
        <ele>239</ele>
        <time>2022-06-17T14:40:38.000Z</time>
      </trkpt>
      <trkpt lat="49.8819" lon="4.83899">
        <ele>239</ele>
        <time>2022-06-17T14:40:39.000Z</time>
      </trkpt>
      <trkpt lat="49.88194" lon="4.83898">
        <ele>239</ele>
        <time>2022-06-17T14:40:40.000Z</time>
      </trkpt>
      <trkpt lat="49.88197" lon="4.83895">
        <ele>238</ele>
        <time>2022-06-17T14:40:41.000Z</time>
      </trkpt>
      <trkpt lat="49.882" lon="4.83892">
        <ele>238</ele>
        <time>2022-06-17T14:40:42.000Z</time>
      </trkpt>
      <trkpt lat="49.88203" lon="4.83889">
        <ele>238</ele>
        <time>2022-06-17T14:40:43.000Z</time>
      </trkpt>
      <trkpt lat="49.88207" lon="4.83886">
        <ele>238</ele>
        <time>2022-06-17T14:40:44.000Z</time>
      </trkpt>
      <trkpt lat="49.88211" lon="4.83884">
        <ele>238</ele>
        <time>2022-06-17T14:40:45.000Z</time>
      </trkpt>
      <trkpt lat="49.88214" lon="4.83882">
        <ele>238</ele>
        <time>2022-06-17T14:40:46.000Z</time>
      </trkpt>
      <trkpt lat="49.88218" lon="4.8388">
        <ele>237</ele>
        <time>2022-06-17T14:40:47.000Z</time>
      </trkpt>
      <trkpt lat="49.88222" lon="4.83878">
        <ele>237</ele>
        <time>2022-06-17T14:40:48.000Z</time>
      </trkpt>
      <trkpt lat="49.88225" lon="4.83876">
        <ele>237</ele>
        <time>2022-06-17T14:40:49.000Z</time>
      </trkpt>
      <trkpt lat="49.88229" lon="4.83874">
        <ele>237</ele>
        <time>2022-06-17T14:40:50.000Z</time>
      </trkpt>
      <trkpt lat="49.88232" lon="4.83873">
        <ele>237</ele>
        <time>2022-06-17T14:40:51.000Z</time>
      </trkpt>
      <trkpt lat="49.88235" lon="4.83873">
        <ele>237</ele>
        <time>2022-06-17T14:40:52.000Z</time>
      </trkpt>
      <trkpt lat="49.88238" lon="4.83872">
        <ele>237</ele>
        <time>2022-06-17T14:40:53.000Z</time>
      </trkpt>
      <trkpt lat="49.88241" lon="4.83873">
        <ele>237</ele>
        <time>2022-06-17T14:40:54.000Z</time>
      </trkpt>
      <trkpt lat="49.88243" lon="4.83873">
        <ele>236</ele>
        <time>2022-06-17T14:40:55.000Z</time>
      </trkpt>
      <trkpt lat="49.88245" lon="4.83872">
        <ele>236</ele>
        <time>2022-06-17T14:40:56.000Z</time>
      </trkpt>
      <trkpt lat="49.88247" lon="4.83872">
        <ele>236</ele>
        <time>2022-06-17T14:40:57.000Z</time>
      </trkpt>
      <trkpt lat="49.88249" lon="4.83871">
        <ele>236</ele>
        <time>2022-06-17T14:40:58.000Z</time>
      </trkpt>
      <trkpt lat="49.88252" lon="4.83869">
        <ele>236</ele>
        <time>2022-06-17T14:40:59.000Z</time>
      </trkpt>
      <trkpt lat="49.88256" lon="4.83868">
        <ele>236</ele>
        <time>2022-06-17T14:41:00.000Z</time>
      </trkpt>
      <trkpt lat="49.8826" lon="4.83868">
        <ele>236</ele>
        <time>2022-06-17T14:41:01.000Z</time>
      </trkpt>
      <trkpt lat="49.88262" lon="4.83868">
        <ele>236</ele>
        <time>2022-06-17T14:41:02.000Z</time>
      </trkpt>
      <trkpt lat="49.88263" lon="4.83867">
        <ele>236</ele>
        <time>2022-06-17T14:41:03.000Z</time>
      </trkpt>
      <trkpt lat="49.88264" lon="4.83867">
        <ele>236</ele>
        <time>2022-06-17T14:41:04.000Z</time>
      </trkpt>
      <trkpt lat="49.88264" lon="4.83867">
        <ele>236</ele>
        <time>2022-06-17T14:41:05.000Z</time>
      </trkpt>
      <trkpt lat="49.88265" lon="4.83866">
        <ele>236</ele>
        <time>2022-06-17T14:41:06.000Z</time>
      </trkpt>
      <trkpt lat="49.88266" lon="4.83866">
        <ele>236</ele>
        <time>2022-06-17T14:41:07.000Z</time>
      </trkpt>
      <trkpt lat="49.88267" lon="4.83866">
        <ele>236</ele>
        <time>2022-06-17T14:41:08.000Z</time>
      </trkpt>
      <trkpt lat="49.88269" lon="4.83866">
        <ele>236</ele>
        <time>2022-06-17T14:41:09.000Z</time>
      </trkpt>
      <trkpt lat="49.88269" lon="4.83865">
        <ele>236</ele>
        <time>2022-06-17T14:41:10.000Z</time>
      </trkpt>
      <trkpt lat="49.8827" lon="4.83865">
        <ele>236</ele>
        <time>2022-06-17T14:41:11.000Z</time>
      </trkpt>
      <trkpt lat="49.88269" lon="4.83865">
        <ele>236</ele>
        <time>2022-06-17T14:41:12.000Z</time>
      </trkpt>
      <trkpt lat="49.88269" lon="4.83866">
        <ele>236</ele>
        <time>2022-06-17T14:41:13.000Z</time>
      </trkpt>
      <trkpt lat="49.88269" lon="4.83865">
        <ele>235</ele>
        <time>2022-06-17T14:41:14.000Z</time>
      </trkpt>
      <trkpt lat="49.88268" lon="4.83864">
        <ele>235</ele>
        <time>2022-06-17T14:41:15.000Z</time>
      </trkpt>
      <trkpt lat="49.88266" lon="4.83863">
        <ele>235</ele>
        <time>2022-06-17T14:41:16.000Z</time>
      </trkpt>
      <trkpt lat="49.88265" lon="4.83864">
        <ele>235</ele>
        <time>2022-06-17T14:41:17.000Z</time>
      </trkpt>
      <trkpt lat="49.88264" lon="4.83864">
        <ele>235</ele>
        <time>2022-06-17T14:41:18.000Z</time>
      </trkpt>
      <trkpt lat="49.88263" lon="4.83865">
        <ele>235</ele>
        <time>2022-06-17T14:41:19.000Z</time>
      </trkpt>
      <trkpt lat="49.88261" lon="4.83865">
        <ele>235</ele>
        <time>2022-06-17T14:41:20.000Z</time>
      </trkpt>
      <trkpt lat="49.88261" lon="4.83865">
        <ele>235</ele>
        <time>2022-06-17T14:41:21.000Z</time>
      </trkpt>
      <trkpt lat="49.8826" lon="4.83865">
        <ele>235</ele>
        <time>2022-06-17T14:41:22.000Z</time>
      </trkpt>
      <trkpt lat="49.8826" lon="4.83865">
        <ele>235</ele>
        <time>2022-06-17T14:41:23.000Z</time>
      </trkpt>
      <trkpt lat="49.8826" lon="4.83865">
        <ele>235</ele>
        <time>2022-06-17T14:41:24.000Z</time>
      </trkpt>
      <trkpt lat="49.8826" lon="4.83866">
        <ele>235</ele>
        <time>2022-06-17T14:41:25.000Z</time>
      </trkpt>
      <trkpt lat="49.8826" lon="4.83866">
        <ele>235</ele>
        <time>2022-06-17T14:41:26.000Z</time>
      </trkpt>
      <trkpt lat="49.8826" lon="4.83866">
        <ele>234</ele>
        <time>2022-06-17T14:41:27.000Z</time>
      </trkpt>
      <trkpt lat="49.8826" lon="4.83865">
        <ele>234</ele>
        <time>2022-06-17T14:41:28.000Z</time>
      </trkpt>
      <trkpt lat="49.8826" lon="4.83865">
        <ele>235</ele>
        <time>2022-06-17T14:41:29.000Z</time>
      </trkpt>
      <trkpt lat="49.8826" lon="4.83865">
        <ele>235</ele>
        <time>2022-06-17T14:41:30.000Z</time>
      </trkpt>
      <trkpt lat="49.8826" lon="4.83865">
        <ele>235</ele>
        <time>2022-06-17T14:41:31.000Z</time>
      </trkpt>
      <trkpt lat="49.8826" lon="4.83865">
        <ele>234</ele>
        <time>2022-06-17T14:41:32.000Z</time>
      </trkpt>
      <trkpt lat="49.8826" lon="4.83865">
        <ele>234</ele>
        <time>2022-06-17T14:41:33.000Z</time>
      </trkpt>
      <trkpt lat="49.8826" lon="4.83865">
        <ele>234</ele>
        <time>2022-06-17T14:41:34.000Z</time>
      </trkpt>
      <trkpt lat="49.8826" lon="4.83865">
        <ele>234</ele>
        <time>2022-06-17T14:41:35.000Z</time>
      </trkpt>
      <trkpt lat="49.8826" lon="4.83865">
        <ele>234</ele>
        <time>2022-06-17T14:41:36.000Z</time>
      </trkpt>
      <trkpt lat="49.8826" lon="4.83865">
        <ele>234</ele>
        <time>2022-06-17T14:41:37.000Z</time>
      </trkpt>
      <trkpt lat="49.8826" lon="4.83865">
        <ele>234</ele>
        <time>2022-06-17T14:41:38.000Z</time>
      </trkpt>
      <trkpt lat="49.8826" lon="4.83865">
        <ele>234</ele>
        <time>2022-06-17T14:41:39.000Z</time>
      </trkpt>
      <trkpt lat="49.8826" lon="4.83865">
        <ele>234</ele>
        <time>2022-06-17T14:41:40.000Z</time>
      </trkpt>
      <trkpt lat="49.8826" lon="4.83865">
        <ele>234</ele>
        <time>2022-06-17T14:41:41.000Z</time>
      </trkpt>
      <trkpt lat="49.8826" lon="4.83866">
        <ele>234</ele>
        <time>2022-06-17T14:41:42.000Z</time>
      </trkpt>
      <trkpt lat="49.8826" lon="4.83866">
        <ele>234</ele>
        <time>2022-06-17T14:41:43.000Z</time>
      </trkpt>
      <trkpt lat="49.8826" lon="4.83866">
        <ele>235</ele>
        <time>2022-06-17T14:41:44.000Z</time>
      </trkpt>
      <trkpt lat="49.88261" lon="4.83865">
        <ele>235</ele>
        <time>2022-06-17T14:41:45.000Z</time>
      </trkpt>
      <trkpt lat="49.88263" lon="4.83864">
        <ele>235</ele>
        <time>2022-06-17T14:41:46.000Z</time>
      </trkpt>
      <trkpt lat="49.88265" lon="4.83864">
        <ele>234</ele>
        <time>2022-06-17T14:41:47.000Z</time>
      </trkpt>
      <trkpt lat="49.88268" lon="4.83864">
        <ele>234</ele>
        <time>2022-06-17T14:41:48.000Z</time>
      </trkpt>
      <trkpt lat="49.88269" lon="4.83864">
        <ele>234</ele>
        <time>2022-06-17T14:41:49.000Z</time>
      </trkpt>
      <trkpt lat="49.88272" lon="4.83864">
        <ele>234</ele>
        <time>2022-06-17T14:41:50.000Z</time>
      </trkpt>
      <trkpt lat="49.88274" lon="4.83864">
        <ele>234</ele>
        <time>2022-06-17T14:41:51.000Z</time>
      </trkpt>
      <trkpt lat="49.88276" lon="4.83864">
        <ele>234</ele>
        <time>2022-06-17T14:41:52.000Z</time>
      </trkpt>
      <trkpt lat="49.88277" lon="4.83864">
        <ele>234</ele>
        <time>2022-06-17T14:41:53.000Z</time>
      </trkpt>
      <trkpt lat="49.8828" lon="4.83863">
        <ele>234</ele>
        <time>2022-06-17T14:41:54.000Z</time>
      </trkpt>
      <trkpt lat="49.88283" lon="4.83863">
        <ele>234</ele>
        <time>2022-06-17T14:41:55.000Z</time>
      </trkpt>
      <trkpt lat="49.88286" lon="4.83862">
        <ele>234</ele>
        <time>2022-06-17T14:41:56.000Z</time>
      </trkpt>
      <trkpt lat="49.88289" lon="4.83861">
        <ele>234</ele>
        <time>2022-06-17T14:41:57.000Z</time>
      </trkpt>
      <trkpt lat="49.88293" lon="4.83859">
        <ele>234</ele>
        <time>2022-06-17T14:41:58.000Z</time>
      </trkpt>
      <trkpt lat="49.88298" lon="4.83858">
        <ele>234</ele>
        <time>2022-06-17T14:41:59.000Z</time>
      </trkpt>
      <trkpt lat="49.88302" lon="4.83857">
        <ele>234</ele>
        <time>2022-06-17T14:42:00.000Z</time>
      </trkpt>
      <trkpt lat="49.88307" lon="4.83856">
        <ele>234</ele>
        <time>2022-06-17T14:42:01.000Z</time>
      </trkpt>
      <trkpt lat="49.88311" lon="4.83856">
        <ele>233</ele>
        <time>2022-06-17T14:42:02.000Z</time>
      </trkpt>
      <trkpt lat="49.88316" lon="4.83856">
        <ele>233</ele>
        <time>2022-06-17T14:42:03.000Z</time>
      </trkpt>
      <trkpt lat="49.88322" lon="4.83856">
        <ele>233</ele>
        <time>2022-06-17T14:42:04.000Z</time>
      </trkpt>
      <trkpt lat="49.88328" lon="4.83855">
        <ele>233</ele>
        <time>2022-06-17T14:42:05.000Z</time>
      </trkpt>
      <trkpt lat="49.88334" lon="4.83855">
        <ele>232</ele>
        <time>2022-06-17T14:42:06.000Z</time>
      </trkpt>
      <trkpt lat="49.88341" lon="4.83855">
        <ele>232</ele>
        <time>2022-06-17T14:42:07.000Z</time>
      </trkpt>
      <trkpt lat="49.88346" lon="4.83854">
        <ele>232</ele>
        <time>2022-06-17T14:42:08.000Z</time>
      </trkpt>
      <trkpt lat="49.88352" lon="4.83854">
        <ele>232</ele>
        <time>2022-06-17T14:42:09.000Z</time>
      </trkpt>
      <trkpt lat="49.88357" lon="4.83854">
        <ele>232</ele>
        <time>2022-06-17T14:42:10.000Z</time>
      </trkpt>
      <trkpt lat="49.88362" lon="4.83855">
        <ele>231</ele>
        <time>2022-06-17T14:42:11.000Z</time>
      </trkpt>
      <trkpt lat="49.88367" lon="4.83856">
        <ele>231</ele>
        <time>2022-06-17T14:42:12.000Z</time>
      </trkpt>
      <trkpt lat="49.88372" lon="4.83857">
        <ele>231</ele>
        <time>2022-06-17T14:42:13.000Z</time>
      </trkpt>
      <trkpt lat="49.88377" lon="4.83857">
        <ele>231</ele>
        <time>2022-06-17T14:42:14.000Z</time>
      </trkpt>
      <trkpt lat="49.88383" lon="4.83858">
        <ele>231</ele>
        <time>2022-06-17T14:42:15.000Z</time>
      </trkpt>
      <trkpt lat="49.88388" lon="4.83858">
        <ele>231</ele>
        <time>2022-06-17T14:42:16.000Z</time>
      </trkpt>
      <trkpt lat="49.88393" lon="4.83858">
        <ele>231</ele>
        <time>2022-06-17T14:42:17.000Z</time>
      </trkpt>
      <trkpt lat="49.88398" lon="4.83857">
        <ele>230</ele>
        <time>2022-06-17T14:42:18.000Z</time>
      </trkpt>
      <trkpt lat="49.88402" lon="4.83857">
        <ele>230</ele>
        <time>2022-06-17T14:42:19.000Z</time>
      </trkpt>
      <trkpt lat="49.88407" lon="4.83855">
        <ele>230</ele>
        <time>2022-06-17T14:42:20.000Z</time>
      </trkpt>
      <trkpt lat="49.88411" lon="4.83853">
        <ele>230</ele>
        <time>2022-06-17T14:42:21.000Z</time>
      </trkpt>
      <trkpt lat="49.88416" lon="4.83853">
        <ele>230</ele>
        <time>2022-06-17T14:42:22.000Z</time>
      </trkpt>
      <trkpt lat="49.8842" lon="4.83853">
        <ele>229</ele>
        <time>2022-06-17T14:42:23.000Z</time>
      </trkpt>
      <trkpt lat="49.88424" lon="4.83851">
        <ele>229</ele>
        <time>2022-06-17T14:42:24.000Z</time>
      </trkpt>
      <trkpt lat="49.8843" lon="4.8385">
        <ele>229</ele>
        <time>2022-06-17T14:42:25.000Z</time>
      </trkpt>
      <trkpt lat="49.88434" lon="4.83851">
        <ele>229</ele>
        <time>2022-06-17T14:42:26.000Z</time>
      </trkpt>
      <trkpt lat="49.88439" lon="4.83851">
        <ele>228</ele>
        <time>2022-06-17T14:42:27.000Z</time>
      </trkpt>
      <trkpt lat="49.88443" lon="4.8385">
        <ele>228</ele>
        <time>2022-06-17T14:42:28.000Z</time>
      </trkpt>
      <trkpt lat="49.88446" lon="4.83849">
        <ele>228</ele>
        <time>2022-06-17T14:42:29.000Z</time>
      </trkpt>
      <trkpt lat="49.8845" lon="4.83846">
        <ele>227</ele>
        <time>2022-06-17T14:42:30.000Z</time>
      </trkpt>
      <trkpt lat="49.88453" lon="4.83845">
        <ele>227</ele>
        <time>2022-06-17T14:42:31.000Z</time>
      </trkpt>
      <trkpt lat="49.88457" lon="4.83845">
        <ele>227</ele>
        <time>2022-06-17T14:42:32.000Z</time>
      </trkpt>
      <trkpt lat="49.88461" lon="4.83845">
        <ele>226</ele>
        <time>2022-06-17T14:42:33.000Z</time>
      </trkpt>
      <trkpt lat="49.88465" lon="4.83845">
        <ele>226</ele>
        <time>2022-06-17T14:42:34.000Z</time>
      </trkpt>
      <trkpt lat="49.88467" lon="4.83844">
        <ele>226</ele>
        <time>2022-06-17T14:42:35.000Z</time>
      </trkpt>
      <trkpt lat="49.88468" lon="4.83843">
        <ele>225</ele>
        <time>2022-06-17T14:42:36.000Z</time>
      </trkpt>
      <trkpt lat="49.8847" lon="4.83842">
        <ele>225</ele>
        <time>2022-06-17T14:42:37.000Z</time>
      </trkpt>
      <trkpt lat="49.88472" lon="4.83841">
        <ele>225</ele>
        <time>2022-06-17T14:42:38.000Z</time>
      </trkpt>
      <trkpt lat="49.88474" lon="4.83841">
        <ele>224</ele>
        <time>2022-06-17T14:42:39.000Z</time>
      </trkpt>
      <trkpt lat="49.88475" lon="4.83842">
        <ele>224</ele>
        <time>2022-06-17T14:42:40.000Z</time>
      </trkpt>
      <trkpt lat="49.88477" lon="4.83843">
        <ele>224</ele>
        <time>2022-06-17T14:42:41.000Z</time>
      </trkpt>
      <trkpt lat="49.88479" lon="4.83846">
        <ele>224</ele>
        <time>2022-06-17T14:42:42.000Z</time>
      </trkpt>
      <trkpt lat="49.8848" lon="4.83849">
        <ele>223</ele>
        <time>2022-06-17T14:42:43.000Z</time>
      </trkpt>
      <trkpt lat="49.8848" lon="4.83853">
        <ele>223</ele>
        <time>2022-06-17T14:42:44.000Z</time>
      </trkpt>
      <trkpt lat="49.88479" lon="4.83858">
        <ele>223</ele>
        <time>2022-06-17T14:42:45.000Z</time>
      </trkpt>
      <trkpt lat="49.88477" lon="4.83862">
        <ele>223</ele>
        <time>2022-06-17T14:42:46.000Z</time>
      </trkpt>
      <trkpt lat="49.88475" lon="4.83866">
        <ele>222</ele>
        <time>2022-06-17T14:42:47.000Z</time>
      </trkpt>
      <trkpt lat="49.88473" lon="4.8387">
        <ele>222</ele>
        <time>2022-06-17T14:42:48.000Z</time>
      </trkpt>
      <trkpt lat="49.88471" lon="4.83875">
        <ele>222</ele>
        <time>2022-06-17T14:42:49.000Z</time>
      </trkpt>
      <trkpt lat="49.88469" lon="4.83879">
        <ele>222</ele>
        <time>2022-06-17T14:42:50.000Z</time>
      </trkpt>
      <trkpt lat="49.88466" lon="4.83884">
        <ele>222</ele>
        <time>2022-06-17T14:42:51.000Z</time>
      </trkpt>
      <trkpt lat="49.88464" lon="4.83888">
        <ele>221</ele>
        <time>2022-06-17T14:42:52.000Z</time>
      </trkpt>
      <trkpt lat="49.88462" lon="4.83893">
        <ele>221</ele>
        <time>2022-06-17T14:42:53.000Z</time>
      </trkpt>
      <trkpt lat="49.88459" lon="4.83897">
        <ele>221</ele>
        <time>2022-06-17T14:42:54.000Z</time>
      </trkpt>
      <trkpt lat="49.88457" lon="4.83901">
        <ele>221</ele>
        <time>2022-06-17T14:42:55.000Z</time>
      </trkpt>
      <trkpt lat="49.88454" lon="4.83905">
        <ele>220</ele>
        <time>2022-06-17T14:42:56.000Z</time>
      </trkpt>
      <trkpt lat="49.88451" lon="4.83909">
        <ele>220</ele>
        <time>2022-06-17T14:42:57.000Z</time>
      </trkpt>
      <trkpt lat="49.88447" lon="4.83912">
        <ele>220</ele>
        <time>2022-06-17T14:42:58.000Z</time>
      </trkpt>
      <trkpt lat="49.88443" lon="4.83916">
        <ele>220</ele>
        <time>2022-06-17T14:42:59.000Z</time>
      </trkpt>
      <trkpt lat="49.88439" lon="4.83919">
        <ele>219</ele>
        <time>2022-06-17T14:43:00.000Z</time>
      </trkpt>
      <trkpt lat="49.88436" lon="4.83921">
        <ele>219</ele>
        <time>2022-06-17T14:43:01.000Z</time>
      </trkpt>
      <trkpt lat="49.88433" lon="4.83924">
        <ele>218</ele>
        <time>2022-06-17T14:43:02.000Z</time>
      </trkpt>
      <trkpt lat="49.8843" lon="4.83926">
        <ele>218</ele>
        <time>2022-06-17T14:43:03.000Z</time>
      </trkpt>
      <trkpt lat="49.88427" lon="4.83928">
        <ele>217</ele>
        <time>2022-06-17T14:43:04.000Z</time>
      </trkpt>
      <trkpt lat="49.88423" lon="4.8393">
        <ele>217</ele>
        <time>2022-06-17T14:43:05.000Z</time>
      </trkpt>
      <trkpt lat="49.88418" lon="4.83932">
        <ele>216</ele>
        <time>2022-06-17T14:43:06.000Z</time>
      </trkpt>
      <trkpt lat="49.88414" lon="4.83933">
        <ele>216</ele>
        <time>2022-06-17T14:43:07.000Z</time>
      </trkpt>
      <trkpt lat="49.8841" lon="4.83933">
        <ele>216</ele>
        <time>2022-06-17T14:43:08.000Z</time>
      </trkpt>
      <trkpt lat="49.88407" lon="4.83933">
        <ele>215</ele>
        <time>2022-06-17T14:43:09.000Z</time>
      </trkpt>
      <trkpt lat="49.88405" lon="4.83934">
        <ele>215</ele>
        <time>2022-06-17T14:43:10.000Z</time>
      </trkpt>
      <trkpt lat="49.88402" lon="4.83934">
        <ele>214</ele>
        <time>2022-06-17T14:43:11.000Z</time>
      </trkpt>
      <trkpt lat="49.884" lon="4.83934">
        <ele>214</ele>
        <time>2022-06-17T14:43:12.000Z</time>
      </trkpt>
      <trkpt lat="49.88398" lon="4.83934">
        <ele>213</ele>
        <time>2022-06-17T14:43:13.000Z</time>
      </trkpt>
      <trkpt lat="49.88396" lon="4.83934">
        <ele>213</ele>
        <time>2022-06-17T14:43:14.000Z</time>
      </trkpt>
      <trkpt lat="49.88393" lon="4.83934">
        <ele>213</ele>
        <time>2022-06-17T14:43:15.000Z</time>
      </trkpt>
      <trkpt lat="49.88389" lon="4.83934">
        <ele>212</ele>
        <time>2022-06-17T14:43:16.000Z</time>
      </trkpt>
      <trkpt lat="49.88385" lon="4.83933">
        <ele>212</ele>
        <time>2022-06-17T14:43:17.000Z</time>
      </trkpt>
      <trkpt lat="49.88381" lon="4.83932">
        <ele>211</ele>
        <time>2022-06-17T14:43:18.000Z</time>
      </trkpt>
      <trkpt lat="49.88377" lon="4.83933">
        <ele>211</ele>
        <time>2022-06-17T14:43:19.000Z</time>
      </trkpt>
      <trkpt lat="49.88373" lon="4.83933">
        <ele>211</ele>
        <time>2022-06-17T14:43:20.000Z</time>
      </trkpt>
      <trkpt lat="49.88369" lon="4.83934">
        <ele>210</ele>
        <time>2022-06-17T14:43:21.000Z</time>
      </trkpt>
      <trkpt lat="49.88364" lon="4.83934">
        <ele>210</ele>
        <time>2022-06-17T14:43:22.000Z</time>
      </trkpt>
      <trkpt lat="49.8836" lon="4.83934">
        <ele>209</ele>
        <time>2022-06-17T14:43:23.000Z</time>
      </trkpt>
      <trkpt lat="49.88356" lon="4.83934">
        <ele>209</ele>
        <time>2022-06-17T14:43:24.000Z</time>
      </trkpt>
      <trkpt lat="49.88352" lon="4.83935">
        <ele>208</ele>
        <time>2022-06-17T14:43:25.000Z</time>
      </trkpt>
      <trkpt lat="49.88347" lon="4.83936">
        <ele>208</ele>
        <time>2022-06-17T14:43:26.000Z</time>
      </trkpt>
      <trkpt lat="49.88343" lon="4.83938">
        <ele>207</ele>
        <time>2022-06-17T14:43:27.000Z</time>
      </trkpt>
      <trkpt lat="49.88339" lon="4.8394">
        <ele>207</ele>
        <time>2022-06-17T14:43:28.000Z</time>
      </trkpt>
      <trkpt lat="49.88335" lon="4.83941">
        <ele>207</ele>
        <time>2022-06-17T14:43:29.000Z</time>
      </trkpt>
      <trkpt lat="49.88331" lon="4.83943">
        <ele>206</ele>
        <time>2022-06-17T14:43:30.000Z</time>
      </trkpt>
      <trkpt lat="49.88326" lon="4.83946">
        <ele>206</ele>
        <time>2022-06-17T14:43:31.000Z</time>
      </trkpt>
      <trkpt lat="49.88322" lon="4.83948">
        <ele>206</ele>
        <time>2022-06-17T14:43:32.000Z</time>
      </trkpt>
      <trkpt lat="49.88318" lon="4.83951">
        <ele>205</ele>
        <time>2022-06-17T14:43:33.000Z</time>
      </trkpt>
      <trkpt lat="49.88313" lon="4.83954">
        <ele>205</ele>
        <time>2022-06-17T14:43:34.000Z</time>
      </trkpt>
      <trkpt lat="49.88309" lon="4.83956">
        <ele>204</ele>
        <time>2022-06-17T14:43:35.000Z</time>
      </trkpt>
      <trkpt lat="49.88306" lon="4.83957">
        <ele>204</ele>
        <time>2022-06-17T14:43:36.000Z</time>
      </trkpt>
      <trkpt lat="49.88302" lon="4.83959">
        <ele>203</ele>
        <time>2022-06-17T14:43:37.000Z</time>
      </trkpt>
      <trkpt lat="49.88298" lon="4.83961">
        <ele>203</ele>
        <time>2022-06-17T14:43:38.000Z</time>
      </trkpt>
      <trkpt lat="49.88294" lon="4.83963">
        <ele>202</ele>
        <time>2022-06-17T14:43:39.000Z</time>
      </trkpt>
      <trkpt lat="49.8829" lon="4.83965">
        <ele>202</ele>
        <time>2022-06-17T14:43:40.000Z</time>
      </trkpt>
      <trkpt lat="49.88285" lon="4.83968">
        <ele>201</ele>
        <time>2022-06-17T14:43:41.000Z</time>
      </trkpt>
      <trkpt lat="49.88281" lon="4.83971">
        <ele>201</ele>
        <time>2022-06-17T14:43:42.000Z</time>
      </trkpt>
      <trkpt lat="49.88277" lon="4.83973">
        <ele>200</ele>
        <time>2022-06-17T14:43:43.000Z</time>
      </trkpt>
      <trkpt lat="49.88274" lon="4.83975">
        <ele>199</ele>
        <time>2022-06-17T14:43:44.000Z</time>
      </trkpt>
      <trkpt lat="49.88271" lon="4.83977">
        <ele>199</ele>
        <time>2022-06-17T14:43:45.000Z</time>
      </trkpt>
      <trkpt lat="49.88266" lon="4.83979">
        <ele>198</ele>
        <time>2022-06-17T14:43:46.000Z</time>
      </trkpt>
      <trkpt lat="49.88262" lon="4.83981">
        <ele>198</ele>
        <time>2022-06-17T14:43:47.000Z</time>
      </trkpt>
      <trkpt lat="49.88257" lon="4.83984">
        <ele>197</ele>
        <time>2022-06-17T14:43:48.000Z</time>
      </trkpt>
      <trkpt lat="49.88253" lon="4.83987">
        <ele>196</ele>
        <time>2022-06-17T14:43:49.000Z</time>
      </trkpt>
      <trkpt lat="49.8825" lon="4.83991">
        <ele>196</ele>
        <time>2022-06-17T14:43:50.000Z</time>
      </trkpt>
      <trkpt lat="49.88247" lon="4.83996">
        <ele>195</ele>
        <time>2022-06-17T14:43:51.000Z</time>
      </trkpt>
      <trkpt lat="49.88243" lon="4.83999">
        <ele>195</ele>
        <time>2022-06-17T14:43:52.000Z</time>
      </trkpt>
      <trkpt lat="49.88239" lon="4.84003">
        <ele>194</ele>
        <time>2022-06-17T14:43:53.000Z</time>
      </trkpt>
      <trkpt lat="49.88235" lon="4.84006">
        <ele>194</ele>
        <time>2022-06-17T14:43:54.000Z</time>
      </trkpt>
      <trkpt lat="49.8823" lon="4.84008">
        <ele>193</ele>
        <time>2022-06-17T14:43:55.000Z</time>
      </trkpt>
      <trkpt lat="49.88226" lon="4.84011">
        <ele>193</ele>
        <time>2022-06-17T14:43:56.000Z</time>
      </trkpt>
      <trkpt lat="49.88223" lon="4.84014">
        <ele>192</ele>
        <time>2022-06-17T14:43:57.000Z</time>
      </trkpt>
      <trkpt lat="49.88219" lon="4.84016">
        <ele>192</ele>
        <time>2022-06-17T14:43:58.000Z</time>
      </trkpt>
      <trkpt lat="49.88215" lon="4.8402">
        <ele>191</ele>
        <time>2022-06-17T14:43:59.000Z</time>
      </trkpt>
      <trkpt lat="49.88212" lon="4.84023">
        <ele>191</ele>
        <time>2022-06-17T14:44:00.000Z</time>
      </trkpt>
      <trkpt lat="49.88208" lon="4.84026">
        <ele>190</ele>
        <time>2022-06-17T14:44:01.000Z</time>
      </trkpt>
      <trkpt lat="49.88205" lon="4.84028">
        <ele>190</ele>
        <time>2022-06-17T14:44:02.000Z</time>
      </trkpt>
      <trkpt lat="49.88202" lon="4.84029">
        <ele>190</ele>
        <time>2022-06-17T14:44:03.000Z</time>
      </trkpt>
      <trkpt lat="49.88199" lon="4.8403">
        <ele>189</ele>
        <time>2022-06-17T14:44:04.000Z</time>
      </trkpt>
      <trkpt lat="49.88195" lon="4.84031">
        <ele>189</ele>
        <time>2022-06-17T14:44:05.000Z</time>
      </trkpt>
      <trkpt lat="49.88191" lon="4.84032">
        <ele>188</ele>
        <time>2022-06-17T14:44:06.000Z</time>
      </trkpt>
      <trkpt lat="49.88187" lon="4.84034">
        <ele>188</ele>
        <time>2022-06-17T14:44:07.000Z</time>
      </trkpt>
      <trkpt lat="49.88183" lon="4.84037">
        <ele>187</ele>
        <time>2022-06-17T14:44:08.000Z</time>
      </trkpt>
      <trkpt lat="49.88178" lon="4.84039">
        <ele>187</ele>
        <time>2022-06-17T14:44:09.000Z</time>
      </trkpt>
      <trkpt lat="49.88172" lon="4.84042">
        <ele>186</ele>
        <time>2022-06-17T14:44:10.000Z</time>
      </trkpt>
      <trkpt lat="49.88166" lon="4.84046">
        <ele>185</ele>
        <time>2022-06-17T14:44:11.000Z</time>
      </trkpt>
      <trkpt lat="49.88161" lon="4.8405">
        <ele>185</ele>
        <time>2022-06-17T14:44:12.000Z</time>
      </trkpt>
      <trkpt lat="49.88156" lon="4.84053">
        <ele>184</ele>
        <time>2022-06-17T14:44:13.000Z</time>
      </trkpt>
      <trkpt lat="49.88151" lon="4.84057">
        <ele>184</ele>
        <time>2022-06-17T14:44:14.000Z</time>
      </trkpt>
      <trkpt lat="49.88147" lon="4.84059">
        <ele>183</ele>
        <time>2022-06-17T14:44:15.000Z</time>
      </trkpt>
      <trkpt lat="49.88144" lon="4.84059">
        <ele>182</ele>
        <time>2022-06-17T14:44:16.000Z</time>
      </trkpt>
      <trkpt lat="49.88141" lon="4.84057">
        <ele>182</ele>
        <time>2022-06-17T14:44:17.000Z</time>
      </trkpt>
      <trkpt lat="49.88139" lon="4.84056">
        <ele>182</ele>
        <time>2022-06-17T14:44:18.000Z</time>
      </trkpt>
      <trkpt lat="49.88138" lon="4.84055">
        <ele>181</ele>
        <time>2022-06-17T14:44:19.000Z</time>
      </trkpt>
      <trkpt lat="49.88137" lon="4.84055">
        <ele>181</ele>
        <time>2022-06-17T14:44:20.000Z</time>
      </trkpt>
      <trkpt lat="49.88137" lon="4.84055">
        <ele>180</ele>
        <time>2022-06-17T14:44:21.000Z</time>
      </trkpt>
      <trkpt lat="49.88137" lon="4.84055">
        <ele>180</ele>
        <time>2022-06-17T14:44:22.000Z</time>
      </trkpt>
      <trkpt lat="49.88136" lon="4.84055">
        <ele>180</ele>
        <time>2022-06-17T14:44:23.000Z</time>
      </trkpt>
      <trkpt lat="49.88135" lon="4.84055">
        <ele>179</ele>
        <time>2022-06-17T14:44:24.000Z</time>
      </trkpt>
      <trkpt lat="49.88134" lon="4.84055">
        <ele>179</ele>
        <time>2022-06-17T14:44:25.000Z</time>
      </trkpt>
      <trkpt lat="49.88134" lon="4.84055">
        <ele>179</ele>
        <time>2022-06-17T14:44:26.000Z</time>
      </trkpt>
      <trkpt lat="49.88134" lon="4.84056">
        <ele>179</ele>
        <time>2022-06-17T14:44:27.000Z</time>
      </trkpt>
      <trkpt lat="49.88133" lon="4.84056">
        <ele>178</ele>
        <time>2022-06-17T14:44:28.000Z</time>
      </trkpt>
      <trkpt lat="49.88132" lon="4.84058">
        <ele>178</ele>
        <time>2022-06-17T14:44:29.000Z</time>
      </trkpt>
      <trkpt lat="49.88133" lon="4.84061">
        <ele>178</ele>
        <time>2022-06-17T14:44:30.000Z</time>
      </trkpt>
      <trkpt lat="49.88134" lon="4.84065">
        <ele>177</ele>
        <time>2022-06-17T14:44:31.000Z</time>
      </trkpt>
      <trkpt lat="49.88135" lon="4.8407">
        <ele>177</ele>
        <time>2022-06-17T14:44:32.000Z</time>
      </trkpt>
      <trkpt lat="49.88137" lon="4.84075">
        <ele>177</ele>
        <time>2022-06-17T14:44:33.000Z</time>
      </trkpt>
      <trkpt lat="49.88139" lon="4.84081">
        <ele>177</ele>
        <time>2022-06-17T14:44:34.000Z</time>
      </trkpt>
      <trkpt lat="49.88141" lon="4.84087">
        <ele>177</ele>
        <time>2022-06-17T14:44:35.000Z</time>
      </trkpt>
      <trkpt lat="49.88142" lon="4.84092">
        <ele>176</ele>
        <time>2022-06-17T14:44:36.000Z</time>
      </trkpt>
      <trkpt lat="49.88144" lon="4.84097">
        <ele>176</ele>
        <time>2022-06-17T14:44:37.000Z</time>
      </trkpt>
      <trkpt lat="49.88146" lon="4.84103">
        <ele>176</ele>
        <time>2022-06-17T14:44:38.000Z</time>
      </trkpt>
      <trkpt lat="49.88148" lon="4.84108">
        <ele>176</ele>
        <time>2022-06-17T14:44:39.000Z</time>
      </trkpt>
      <trkpt lat="49.8815" lon="4.84113">
        <ele>175</ele>
        <time>2022-06-17T14:44:40.000Z</time>
      </trkpt>
      <trkpt lat="49.88152" lon="4.84118">
        <ele>175</ele>
        <time>2022-06-17T14:44:41.000Z</time>
      </trkpt>
      <trkpt lat="49.88154" lon="4.84124">
        <ele>175</ele>
        <time>2022-06-17T14:44:42.000Z</time>
      </trkpt>
      <trkpt lat="49.88156" lon="4.84129">
        <ele>174</ele>
        <time>2022-06-17T14:44:43.000Z</time>
      </trkpt>
      <trkpt lat="49.88159" lon="4.84134">
        <ele>174</ele>
        <time>2022-06-17T14:44:44.000Z</time>
      </trkpt>
      <trkpt lat="49.88161" lon="4.8414">
        <ele>174</ele>
        <time>2022-06-17T14:44:45.000Z</time>
      </trkpt>
      <trkpt lat="49.88163" lon="4.84146">
        <ele>173</ele>
        <time>2022-06-17T14:44:46.000Z</time>
      </trkpt>
      <trkpt lat="49.88166" lon="4.84153">
        <ele>173</ele>
        <time>2022-06-17T14:44:47.000Z</time>
      </trkpt>
      <trkpt lat="49.88168" lon="4.84159">
        <ele>172</ele>
        <time>2022-06-17T14:44:48.000Z</time>
      </trkpt>
      <trkpt lat="49.88171" lon="4.84165">
        <ele>172</ele>
        <time>2022-06-17T14:44:49.000Z</time>
      </trkpt>
      <trkpt lat="49.88174" lon="4.84172">
        <ele>171</ele>
        <time>2022-06-17T14:44:50.000Z</time>
      </trkpt>
      <trkpt lat="49.88176" lon="4.84179">
        <ele>171</ele>
        <time>2022-06-17T14:44:51.000Z</time>
      </trkpt>
      <trkpt lat="49.88179" lon="4.84186">
        <ele>170</ele>
        <time>2022-06-17T14:44:52.000Z</time>
      </trkpt>
      <trkpt lat="49.88183" lon="4.84193">
        <ele>170</ele>
        <time>2022-06-17T14:44:53.000Z</time>
      </trkpt>
      <trkpt lat="49.88186" lon="4.84201">
        <ele>169</ele>
        <time>2022-06-17T14:44:54.000Z</time>
      </trkpt>
      <trkpt lat="49.88189" lon="4.84209">
        <ele>168</ele>
        <time>2022-06-17T14:44:55.000Z</time>
      </trkpt>
      <trkpt lat="49.88192" lon="4.84216">
        <ele>168</ele>
        <time>2022-06-17T14:44:56.000Z</time>
      </trkpt>
      <trkpt lat="49.88194" lon="4.84221">
        <ele>167</ele>
        <time>2022-06-17T14:44:57.000Z</time>
      </trkpt>
      <trkpt lat="49.88195" lon="4.84225">
        <ele>167</ele>
        <time>2022-06-17T14:44:58.000Z</time>
      </trkpt>
      <trkpt lat="49.88196" lon="4.84228">
        <ele>167</ele>
        <time>2022-06-17T14:44:59.000Z</time>
      </trkpt>
      <trkpt lat="49.88199" lon="4.8423">
        <ele>166</ele>
        <time>2022-06-17T14:45:00.000Z</time>
      </trkpt>
      <trkpt lat="49.88204" lon="4.84229">
        <ele>166</ele>
        <time>2022-06-17T14:45:01.000Z</time>
      </trkpt>
      <trkpt lat="49.88208" lon="4.84228">
        <ele>166</ele>
        <time>2022-06-17T14:45:02.000Z</time>
      </trkpt>
      <trkpt lat="49.88213" lon="4.84226">
        <ele>166</ele>
        <time>2022-06-17T14:45:03.000Z</time>
      </trkpt>
      <trkpt lat="49.88218" lon="4.84223">
        <ele>166</ele>
        <time>2022-06-17T14:45:04.000Z</time>
      </trkpt>
      <trkpt lat="49.88224" lon="4.84221">
        <ele>166</ele>
        <time>2022-06-17T14:45:05.000Z</time>
      </trkpt>
      <trkpt lat="49.88229" lon="4.84218">
        <ele>166</ele>
        <time>2022-06-17T14:45:06.000Z</time>
      </trkpt>
      <trkpt lat="49.88234" lon="4.84215">
        <ele>165</ele>
        <time>2022-06-17T14:45:07.000Z</time>
      </trkpt>
      <trkpt lat="49.88239" lon="4.84213">
        <ele>165</ele>
        <time>2022-06-17T14:45:08.000Z</time>
      </trkpt>
      <trkpt lat="49.88244" lon="4.8421">
        <ele>165</ele>
        <time>2022-06-17T14:45:09.000Z</time>
      </trkpt>
      <trkpt lat="49.8825" lon="4.84207">
        <ele>165</ele>
        <time>2022-06-17T14:45:10.000Z</time>
      </trkpt>
      <trkpt lat="49.88254" lon="4.84204">
        <ele>165</ele>
        <time>2022-06-17T14:45:11.000Z</time>
      </trkpt>
      <trkpt lat="49.88259" lon="4.84201">
        <ele>164</ele>
        <time>2022-06-17T14:45:12.000Z</time>
      </trkpt>
      <trkpt lat="49.88264" lon="4.84198">
        <ele>164</ele>
        <time>2022-06-17T14:45:13.000Z</time>
      </trkpt>
      <trkpt lat="49.88269" lon="4.84195">
        <ele>164</ele>
        <time>2022-06-17T14:45:14.000Z</time>
      </trkpt>
      <trkpt lat="49.88273" lon="4.84193">
        <ele>164</ele>
        <time>2022-06-17T14:45:15.000Z</time>
      </trkpt>
      <trkpt lat="49.88278" lon="4.84191">
        <ele>164</ele>
        <time>2022-06-17T14:45:16.000Z</time>
      </trkpt>
      <trkpt lat="49.88283" lon="4.84188">
        <ele>164</ele>
        <time>2022-06-17T14:45:17.000Z</time>
      </trkpt>
      <trkpt lat="49.88287" lon="4.84186">
        <ele>163</ele>
        <time>2022-06-17T14:45:18.000Z</time>
      </trkpt>
      <trkpt lat="49.88292" lon="4.84183">
        <ele>163</ele>
        <time>2022-06-17T14:45:19.000Z</time>
      </trkpt>
      <trkpt lat="49.88296" lon="4.8418">
        <ele>163</ele>
        <time>2022-06-17T14:45:20.000Z</time>
      </trkpt>
      <trkpt lat="49.88301" lon="4.84178">
        <ele>163</ele>
        <time>2022-06-17T14:45:21.000Z</time>
      </trkpt>
      <trkpt lat="49.88306" lon="4.84175">
        <ele>163</ele>
        <time>2022-06-17T14:45:22.000Z</time>
      </trkpt>
      <trkpt lat="49.88311" lon="4.84173">
        <ele>163</ele>
        <time>2022-06-17T14:45:23.000Z</time>
      </trkpt>
      <trkpt lat="49.88315" lon="4.84172">
        <ele>163</ele>
        <time>2022-06-17T14:45:24.000Z</time>
      </trkpt>
      <trkpt lat="49.8832" lon="4.84171">
        <ele>163</ele>
        <time>2022-06-17T14:45:25.000Z</time>
      </trkpt>
      <trkpt lat="49.88325" lon="4.84169">
        <ele>163</ele>
        <time>2022-06-17T14:45:26.000Z</time>
      </trkpt>
      <trkpt lat="49.88329" lon="4.84167">
        <ele>163</ele>
        <time>2022-06-17T14:45:27.000Z</time>
      </trkpt>
      <trkpt lat="49.88334" lon="4.84166">
        <ele>163</ele>
        <time>2022-06-17T14:45:28.000Z</time>
      </trkpt>
      <trkpt lat="49.88338" lon="4.84164">
        <ele>164</ele>
        <time>2022-06-17T14:45:29.000Z</time>
      </trkpt>
      <trkpt lat="49.88342" lon="4.84162">
        <ele>164</ele>
        <time>2022-06-17T14:45:30.000Z</time>
      </trkpt>
      <trkpt lat="49.88346" lon="4.84161">
        <ele>164</ele>
        <time>2022-06-17T14:45:31.000Z</time>
      </trkpt>
      <trkpt lat="49.88349" lon="4.8416">
        <ele>164</ele>
        <time>2022-06-17T14:45:32.000Z</time>
      </trkpt>
      <trkpt lat="49.88353" lon="4.84159">
        <ele>164</ele>
        <time>2022-06-17T14:45:33.000Z</time>
      </trkpt>
      <trkpt lat="49.88356" lon="4.84158">
        <ele>165</ele>
        <time>2022-06-17T14:45:34.000Z</time>
      </trkpt>
      <trkpt lat="49.8836" lon="4.84159">
        <ele>165</ele>
        <time>2022-06-17T14:45:35.000Z</time>
      </trkpt>
      <trkpt lat="49.88362" lon="4.84163">
        <ele>165</ele>
        <time>2022-06-17T14:45:36.000Z</time>
      </trkpt>
      <trkpt lat="49.88362" lon="4.84168">
        <ele>165</ele>
        <time>2022-06-17T14:45:37.000Z</time>
      </trkpt>
      <trkpt lat="49.88362" lon="4.84173">
        <ele>165</ele>
        <time>2022-06-17T14:45:38.000Z</time>
      </trkpt>
      <trkpt lat="49.88363" lon="4.84179">
        <ele>165</ele>
        <time>2022-06-17T14:45:39.000Z</time>
      </trkpt>
      <trkpt lat="49.88364" lon="4.84185">
        <ele>165</ele>
        <time>2022-06-17T14:45:40.000Z</time>
      </trkpt>
      <trkpt lat="49.88365" lon="4.84192">
        <ele>165</ele>
        <time>2022-06-17T14:45:41.000Z</time>
      </trkpt>
      <trkpt lat="49.88366" lon="4.84198">
        <ele>165</ele>
        <time>2022-06-17T14:45:42.000Z</time>
      </trkpt>
      <trkpt lat="49.88367" lon="4.84205">
        <ele>165</ele>
        <time>2022-06-17T14:45:43.000Z</time>
      </trkpt>
      <trkpt lat="49.88368" lon="4.84211">
        <ele>165</ele>
        <time>2022-06-17T14:45:44.000Z</time>
      </trkpt>
      <trkpt lat="49.88369" lon="4.84217">
        <ele>165</ele>
        <time>2022-06-17T14:45:45.000Z</time>
      </trkpt>
      <trkpt lat="49.8837" lon="4.84224">
        <ele>165</ele>
        <time>2022-06-17T14:45:46.000Z</time>
      </trkpt>
      <trkpt lat="49.88371" lon="4.8423">
        <ele>165</ele>
        <time>2022-06-17T14:45:47.000Z</time>
      </trkpt>
      <trkpt lat="49.88372" lon="4.84236">
        <ele>165</ele>
        <time>2022-06-17T14:45:48.000Z</time>
      </trkpt>
      <trkpt lat="49.88372" lon="4.84241">
        <ele>165</ele>
        <time>2022-06-17T14:45:49.000Z</time>
      </trkpt>
      <trkpt lat="49.88372" lon="4.84246">
        <ele>165</ele>
        <time>2022-06-17T14:45:50.000Z</time>
      </trkpt>
      <trkpt lat="49.88371" lon="4.84251">
        <ele>165</ele>
        <time>2022-06-17T14:45:51.000Z</time>
      </trkpt>
      <trkpt lat="49.88371" lon="4.84256">
        <ele>165</ele>
        <time>2022-06-17T14:45:52.000Z</time>
      </trkpt>
      <trkpt lat="49.88371" lon="4.84261">
        <ele>165</ele>
        <time>2022-06-17T14:45:53.000Z</time>
      </trkpt>
      <trkpt lat="49.88371" lon="4.84266">
        <ele>166</ele>
        <time>2022-06-17T14:45:54.000Z</time>
      </trkpt>
      <trkpt lat="49.88371" lon="4.84271">
        <ele>166</ele>
        <time>2022-06-17T14:45:55.000Z</time>
      </trkpt>
      <trkpt lat="49.88372" lon="4.84276">
        <ele>166</ele>
        <time>2022-06-17T14:45:56.000Z</time>
      </trkpt>
      <trkpt lat="49.88372" lon="4.84281">
        <ele>166</ele>
        <time>2022-06-17T14:45:57.000Z</time>
      </trkpt>
      <trkpt lat="49.88373" lon="4.84287">
        <ele>166</ele>
        <time>2022-06-17T14:45:58.000Z</time>
      </trkpt>
      <trkpt lat="49.88373" lon="4.84292">
        <ele>166</ele>
        <time>2022-06-17T14:45:59.000Z</time>
      </trkpt>
      <trkpt lat="49.88372" lon="4.84297">
        <ele>166</ele>
        <time>2022-06-17T14:46:00.000Z</time>
      </trkpt>
      <trkpt lat="49.88373" lon="4.84301">
        <ele>166</ele>
        <time>2022-06-17T14:46:01.000Z</time>
      </trkpt>
      <trkpt lat="49.88373" lon="4.84306">
        <ele>167</ele>
        <time>2022-06-17T14:46:02.000Z</time>
      </trkpt>
      <trkpt lat="49.88373" lon="4.8431">
        <ele>167</ele>
        <time>2022-06-17T14:46:03.000Z</time>
      </trkpt>
      <trkpt lat="49.88373" lon="4.84313">
        <ele>167</ele>
        <time>2022-06-17T14:46:04.000Z</time>
      </trkpt>
      <trkpt lat="49.88374" lon="4.84317">
        <ele>167</ele>
        <time>2022-06-17T14:46:05.000Z</time>
      </trkpt>
      <trkpt lat="49.88374" lon="4.84321">
        <ele>167</ele>
        <time>2022-06-17T14:46:06.000Z</time>
      </trkpt>
      <trkpt lat="49.88374" lon="4.84324">
        <ele>167</ele>
        <time>2022-06-17T14:46:07.000Z</time>
      </trkpt>
      <trkpt lat="49.88374" lon="4.84328">
        <ele>168</ele>
        <time>2022-06-17T14:46:08.000Z</time>
      </trkpt>
      <trkpt lat="49.88374" lon="4.84331">
        <ele>168</ele>
        <time>2022-06-17T14:46:09.000Z</time>
      </trkpt>
      <trkpt lat="49.88374" lon="4.84335">
        <ele>168</ele>
        <time>2022-06-17T14:46:10.000Z</time>
      </trkpt>
      <trkpt lat="49.88374" lon="4.84338">
        <ele>168</ele>
        <time>2022-06-17T14:46:11.000Z</time>
      </trkpt>
      <trkpt lat="49.88374" lon="4.84342">
        <ele>168</ele>
        <time>2022-06-17T14:46:12.000Z</time>
      </trkpt>
      <trkpt lat="49.88374" lon="4.84346">
        <ele>169</ele>
        <time>2022-06-17T14:46:13.000Z</time>
      </trkpt>
      <trkpt lat="49.88375" lon="4.8435">
        <ele>169</ele>
        <time>2022-06-17T14:46:14.000Z</time>
      </trkpt>
      <trkpt lat="49.88375" lon="4.84354">
        <ele>169</ele>
        <time>2022-06-17T14:46:15.000Z</time>
      </trkpt>
      <trkpt lat="49.88375" lon="4.84358">
        <ele>169</ele>
        <time>2022-06-17T14:46:16.000Z</time>
      </trkpt>
      <trkpt lat="49.88375" lon="4.84361">
        <ele>170</ele>
        <time>2022-06-17T14:46:17.000Z</time>
      </trkpt>
      <trkpt lat="49.88374" lon="4.84364">
        <ele>170</ele>
        <time>2022-06-17T14:46:18.000Z</time>
      </trkpt>
      <trkpt lat="49.88374" lon="4.84367">
        <ele>170</ele>
        <time>2022-06-17T14:46:19.000Z</time>
      </trkpt>
      <trkpt lat="49.88375" lon="4.8437">
        <ele>170</ele>
        <time>2022-06-17T14:46:20.000Z</time>
      </trkpt>
      <trkpt lat="49.88377" lon="4.84372">
        <ele>170</ele>
        <time>2022-06-17T14:46:21.000Z</time>
      </trkpt>
      <trkpt lat="49.88378" lon="4.84374">
        <ele>171</ele>
        <time>2022-06-17T14:46:22.000Z</time>
      </trkpt>
      <trkpt lat="49.8838" lon="4.84374">
        <ele>171</ele>
        <time>2022-06-17T14:46:23.000Z</time>
      </trkpt>
      <trkpt lat="49.88381" lon="4.84375">
        <ele>171</ele>
        <time>2022-06-17T14:46:24.000Z</time>
      </trkpt>
      <trkpt lat="49.88383" lon="4.84374">
        <ele>172</ele>
        <time>2022-06-17T14:46:25.000Z</time>
      </trkpt>
      <trkpt lat="49.88385" lon="4.84374">
        <ele>172</ele>
        <time>2022-06-17T14:46:26.000Z</time>
      </trkpt>
      <trkpt lat="49.88387" lon="4.84374">
        <ele>172</ele>
        <time>2022-06-17T14:46:27.000Z</time>
      </trkpt>
      <trkpt lat="49.8839" lon="4.84374">
        <ele>172</ele>
        <time>2022-06-17T14:46:28.000Z</time>
      </trkpt>
      <trkpt lat="49.88391" lon="4.84375">
        <ele>173</ele>
        <time>2022-06-17T14:46:29.000Z</time>
      </trkpt>
      <trkpt lat="49.88392" lon="4.84377">
        <ele>173</ele>
        <time>2022-06-17T14:46:30.000Z</time>
      </trkpt>
      <trkpt lat="49.88392" lon="4.84378">
        <ele>173</ele>
        <time>2022-06-17T14:46:31.000Z</time>
      </trkpt>
      <trkpt lat="49.88392" lon="4.84378">
        <ele>173</ele>
        <time>2022-06-17T14:46:32.000Z</time>
      </trkpt>
      <trkpt lat="49.88393" lon="4.84378">
        <ele>173</ele>
        <time>2022-06-17T14:46:33.000Z</time>
      </trkpt>
      <trkpt lat="49.88393" lon="4.84378">
        <ele>173</ele>
        <time>2022-06-17T14:46:34.000Z</time>
      </trkpt>
      <trkpt lat="49.88393" lon="4.84378">
        <ele>173</ele>
        <time>2022-06-17T14:46:35.000Z</time>
      </trkpt>
      <trkpt lat="49.88393" lon="4.84378">
        <ele>173</ele>
        <time>2022-06-17T14:46:36.000Z</time>
      </trkpt>
      <trkpt lat="49.88393" lon="4.84378">
        <ele>173</ele>
        <time>2022-06-17T14:46:37.000Z</time>
      </trkpt>
      <trkpt lat="49.88393" lon="4.84379">
        <ele>173</ele>
        <time>2022-06-17T14:46:38.000Z</time>
      </trkpt>
      <trkpt lat="49.88393" lon="4.8438">
        <ele>173</ele>
        <time>2022-06-17T14:46:39.000Z</time>
      </trkpt>
      <trkpt lat="49.88393" lon="4.8438">
        <ele>173</ele>
        <time>2022-06-17T14:46:40.000Z</time>
      </trkpt>
      <trkpt lat="49.88393" lon="4.8438">
        <ele>173</ele>
        <time>2022-06-17T14:46:41.000Z</time>
      </trkpt>
      <trkpt lat="49.88393" lon="4.8438">
        <ele>173</ele>
        <time>2022-06-17T14:46:42.000Z</time>
      </trkpt>
      <trkpt lat="49.88393" lon="4.84381">
        <ele>173</ele>
        <time>2022-06-17T14:46:43.000Z</time>
      </trkpt>
      <trkpt lat="49.88393" lon="4.84381">
        <ele>173</ele>
        <time>2022-06-17T14:46:44.000Z</time>
      </trkpt>
      <trkpt lat="49.88394" lon="4.84381">
        <ele>174</ele>
        <time>2022-06-17T14:46:45.000Z</time>
      </trkpt>
      <trkpt lat="49.88395" lon="4.84381">
        <ele>174</ele>
        <time>2022-06-17T14:46:46.000Z</time>
      </trkpt>
      <trkpt lat="49.88396" lon="4.8438">
        <ele>174</ele>
        <time>2022-06-17T14:46:47.000Z</time>
      </trkpt>
      <trkpt lat="49.88397" lon="4.8438">
        <ele>174</ele>
        <time>2022-06-17T14:46:48.000Z</time>
      </trkpt>
      <trkpt lat="49.88398" lon="4.84379">
        <ele>174</ele>
        <time>2022-06-17T14:46:49.000Z</time>
      </trkpt>
      <trkpt lat="49.88399" lon="4.84379">
        <ele>174</ele>
        <time>2022-06-17T14:46:50.000Z</time>
      </trkpt>
      <trkpt lat="49.88399" lon="4.84379">
        <ele>174</ele>
        <time>2022-06-17T14:46:51.000Z</time>
      </trkpt>
      <trkpt lat="49.88399" lon="4.84379">
        <ele>174</ele>
        <time>2022-06-17T14:46:52.000Z</time>
      </trkpt>
      <trkpt lat="49.88399" lon="4.84379">
        <ele>174</ele>
        <time>2022-06-17T14:46:53.000Z</time>
      </trkpt>
      <trkpt lat="49.88399" lon="4.84379">
        <ele>174</ele>
        <time>2022-06-17T14:46:54.000Z</time>
      </trkpt>
      <trkpt lat="49.88399" lon="4.84379">
        <ele>174</ele>
        <time>2022-06-17T14:46:55.000Z</time>
      </trkpt>
      <trkpt lat="49.88399" lon="4.84379">
        <ele>174</ele>
        <time>2022-06-17T14:46:56.000Z</time>
      </trkpt>
      <trkpt lat="49.88399" lon="4.84379">
        <ele>174</ele>
        <time>2022-06-17T14:46:57.000Z</time>
      </trkpt>
      <trkpt lat="49.88399" lon="4.84379">
        <ele>174</ele>
        <time>2022-06-17T14:46:58.000Z</time>
      </trkpt>
      <trkpt lat="49.88399" lon="4.84379">
        <ele>174</ele>
        <time>2022-06-17T14:46:59.000Z</time>
      </trkpt>
      <trkpt lat="49.88399" lon="4.84379">
        <ele>174</ele>
        <time>2022-06-17T14:47:00.000Z</time>
      </trkpt>
      <trkpt lat="49.88399" lon="4.84379">
        <ele>174</ele>
        <time>2022-06-17T14:47:01.000Z</time>
      </trkpt>
      <trkpt lat="49.88399" lon="4.84379">
        <ele>174</ele>
        <time>2022-06-17T14:47:02.000Z</time>
      </trkpt>
      <trkpt lat="49.88399" lon="4.84379">
        <ele>174</ele>
        <time>2022-06-17T14:47:03.000Z</time>
      </trkpt>
      <trkpt lat="49.88399" lon="4.84379">
        <ele>174</ele>
        <time>2022-06-17T14:47:04.000Z</time>
      </trkpt>
      <trkpt lat="49.88399" lon="4.84379">
        <ele>174</ele>
        <time>2022-06-17T14:47:05.000Z</time>
      </trkpt>
      <trkpt lat="49.88399" lon="4.84379">
        <ele>174</ele>
        <time>2022-06-17T14:47:06.000Z</time>
      </trkpt>
      <trkpt lat="49.88399" lon="4.84379">
        <ele>174</ele>
        <time>2022-06-17T14:47:07.000Z</time>
      </trkpt>
      <trkpt lat="49.88399" lon="4.84379">
        <ele>174</ele>
        <time>2022-06-17T14:47:08.000Z</time>
      </trkpt>
      <trkpt lat="49.88399" lon="4.84379">
        <ele>174</ele>
        <time>2022-06-17T14:47:09.000Z</time>
      </trkpt>
      <trkpt lat="49.88399" lon="4.84379">
        <ele>174</ele>
        <time>2022-06-17T14:47:10.000Z</time>
      </trkpt>
      <trkpt lat="49.88399" lon="4.84379">
        <ele>174</ele>
        <time>2022-06-17T14:47:11.000Z</time>
      </trkpt>
      <trkpt lat="49.88399" lon="4.84379">
        <ele>174</ele>
        <time>2022-06-17T14:47:12.000Z</time>
      </trkpt>
      <trkpt lat="49.88399" lon="4.84379">
        <ele>174</ele>
        <time>2022-06-17T14:47:13.000Z</time>
      </trkpt>
      <trkpt lat="49.88399" lon="4.84379">
        <ele>174</ele>
        <time>2022-06-17T14:47:14.000Z</time>
      </trkpt>
      <trkpt lat="49.88399" lon="4.84379">
        <ele>174</ele>
        <time>2022-06-17T14:47:15.000Z</time>
      </trkpt>
      <trkpt lat="49.88399" lon="4.84378">
        <ele>174</ele>
        <time>2022-06-17T14:47:16.000Z</time>
      </trkpt>
      <trkpt lat="49.88399" lon="4.84378">
        <ele>174</ele>
        <time>2022-06-17T14:47:17.000Z</time>
      </trkpt>
      <trkpt lat="49.88399" lon="4.84378">
        <ele>175</ele>
        <time>2022-06-17T14:47:18.000Z</time>
      </trkpt>
      <trkpt lat="49.88399" lon="4.84378">
        <ele>175</ele>
        <time>2022-06-17T14:47:19.000Z</time>
      </trkpt>
      <trkpt lat="49.88399" lon="4.84378">
        <ele>175</ele>
        <time>2022-06-17T14:47:20.000Z</time>
      </trkpt>
      <trkpt lat="49.88399" lon="4.84378">
        <ele>175</ele>
        <time>2022-06-17T14:47:21.000Z</time>
      </trkpt>
      <trkpt lat="49.88399" lon="4.84378">
        <ele>175</ele>
        <time>2022-06-17T14:47:22.000Z</time>
      </trkpt>
      <trkpt lat="49.88399" lon="4.84378">
        <ele>175</ele>
        <time>2022-06-17T14:47:23.000Z</time>
      </trkpt>
      <trkpt lat="49.88398" lon="4.84378">
        <ele>175</ele>
        <time>2022-06-17T14:47:24.000Z</time>
      </trkpt>
      <trkpt lat="49.88399" lon="4.84378">
        <ele>175</ele>
        <time>2022-06-17T14:47:25.000Z</time>
      </trkpt>
      <trkpt lat="49.88399" lon="4.84378">
        <ele>175</ele>
        <time>2022-06-17T14:47:26.000Z</time>
      </trkpt>
      <trkpt lat="49.88399" lon="4.84378">
        <ele>175</ele>
        <time>2022-06-17T14:47:27.000Z</time>
      </trkpt>
      <trkpt lat="49.88399" lon="4.84378">
        <ele>175</ele>
        <time>2022-06-17T14:47:28.000Z</time>
      </trkpt>
      <trkpt lat="49.88399" lon="4.84378">
        <ele>175</ele>
        <time>2022-06-17T14:47:29.000Z</time>
      </trkpt>
      <trkpt lat="49.88398" lon="4.84379">
        <ele>175</ele>
        <time>2022-06-17T14:47:30.000Z</time>
      </trkpt>
      <trkpt lat="49.88397" lon="4.8438">
        <ele>175</ele>
        <time>2022-06-17T14:47:31.000Z</time>
      </trkpt>
      <trkpt lat="49.88396" lon="4.8438">
        <ele>175</ele>
        <time>2022-06-17T14:47:32.000Z</time>
      </trkpt>
      <trkpt lat="49.88394" lon="4.84381">
        <ele>175</ele>
        <time>2022-06-17T14:47:33.000Z</time>
      </trkpt>
      <trkpt lat="49.88393" lon="4.84382">
        <ele>175</ele>
        <time>2022-06-17T14:47:34.000Z</time>
      </trkpt>
      <trkpt lat="49.88392" lon="4.84381">
        <ele>175</ele>
        <time>2022-06-17T14:47:35.000Z</time>
      </trkpt>
      <trkpt lat="49.88392" lon="4.8438">
        <ele>174</ele>
        <time>2022-06-17T14:47:36.000Z</time>
      </trkpt>
      <trkpt lat="49.88392" lon="4.84379">
        <ele>174</ele>
        <time>2022-06-17T14:47:37.000Z</time>
      </trkpt>
      <trkpt lat="49.88391" lon="4.84379">
        <ele>174</ele>
        <time>2022-06-17T14:47:38.000Z</time>
      </trkpt>
      <trkpt lat="49.88391" lon="4.84378">
        <ele>174</ele>
        <time>2022-06-17T14:47:39.000Z</time>
      </trkpt>
      <trkpt lat="49.88391" lon="4.84377">
        <ele>174</ele>
        <time>2022-06-17T14:47:40.000Z</time>
      </trkpt>
      <trkpt lat="49.88391" lon="4.84377">
        <ele>174</ele>
        <time>2022-06-17T14:47:41.000Z</time>
      </trkpt>
      <trkpt lat="49.88391" lon="4.84377">
        <ele>174</ele>
        <time>2022-06-17T14:47:42.000Z</time>
      </trkpt>
      <trkpt lat="49.88391" lon="4.84377">
        <ele>174</ele>
        <time>2022-06-17T14:47:43.000Z</time>
      </trkpt>
      <trkpt lat="49.88391" lon="4.84377">
        <ele>174</ele>
        <time>2022-06-17T14:47:44.000Z</time>
      </trkpt>
      <trkpt lat="49.88391" lon="4.84377">
        <ele>174</ele>
        <time>2022-06-17T14:47:45.000Z</time>
      </trkpt>
      <trkpt lat="49.88391" lon="4.84377">
        <ele>174</ele>
        <time>2022-06-17T14:47:46.000Z</time>
      </trkpt>
      <trkpt lat="49.88391" lon="4.84376">
        <ele>174</ele>
        <time>2022-06-17T14:47:47.000Z</time>
      </trkpt>
      <trkpt lat="49.88391" lon="4.84377">
        <ele>174</ele>
        <time>2022-06-17T14:47:48.000Z</time>
      </trkpt>
      <trkpt lat="49.88391" lon="4.84377">
        <ele>174</ele>
        <time>2022-06-17T14:47:49.000Z</time>
      </trkpt>
      <trkpt lat="49.88391" lon="4.84376">
        <ele>174</ele>
        <time>2022-06-17T14:47:50.000Z</time>
      </trkpt>
      <trkpt lat="49.88389" lon="4.84374">
        <ele>174</ele>
        <time>2022-06-17T14:47:51.000Z</time>
      </trkpt>
      <trkpt lat="49.88386" lon="4.84374">
        <ele>173</ele>
        <time>2022-06-17T14:47:52.000Z</time>
      </trkpt>
      <trkpt lat="49.88382" lon="4.84374">
        <ele>173</ele>
        <time>2022-06-17T14:47:53.000Z</time>
      </trkpt>
      <trkpt lat="49.88378" lon="4.84374">
        <ele>173</ele>
        <time>2022-06-17T14:47:54.000Z</time>
      </trkpt>
      <trkpt lat="49.88376" lon="4.84373">
        <ele>172</ele>
        <time>2022-06-17T14:47:55.000Z</time>
      </trkpt>
      <trkpt lat="49.88373" lon="4.8437">
        <ele>172</ele>
        <time>2022-06-17T14:47:56.000Z</time>
      </trkpt>
      <trkpt lat="49.88373" lon="4.84364">
        <ele>172</ele>
        <time>2022-06-17T14:47:57.000Z</time>
      </trkpt>
      <trkpt lat="49.88373" lon="4.84358">
        <ele>171</ele>
        <time>2022-06-17T14:47:58.000Z</time>
      </trkpt>
      <trkpt lat="49.88373" lon="4.84351">
        <ele>171</ele>
        <time>2022-06-17T14:47:59.000Z</time>
      </trkpt>
      <trkpt lat="49.88372" lon="4.84344">
        <ele>171</ele>
        <time>2022-06-17T14:48:00.000Z</time>
      </trkpt>
      <trkpt lat="49.88372" lon="4.84336">
        <ele>170</ele>
        <time>2022-06-17T14:48:01.000Z</time>
      </trkpt>
      <trkpt lat="49.88371" lon="4.84327">
        <ele>170</ele>
        <time>2022-06-17T14:48:02.000Z</time>
      </trkpt>
      <trkpt lat="49.88371" lon="4.84317">
        <ele>170</ele>
        <time>2022-06-17T14:48:03.000Z</time>
      </trkpt>
      <trkpt lat="49.8837" lon="4.84305">
        <ele>169</ele>
        <time>2022-06-17T14:48:04.000Z</time>
      </trkpt>
      <trkpt lat="49.88369" lon="4.84294">
        <ele>168</ele>
        <time>2022-06-17T14:48:05.000Z</time>
      </trkpt>
      <trkpt lat="49.88367" lon="4.84283">
        <ele>168</ele>
        <time>2022-06-17T14:48:06.000Z</time>
      </trkpt>
      <trkpt lat="49.88367" lon="4.84274">
        <ele>167</ele>
        <time>2022-06-17T14:48:07.000Z</time>
      </trkpt>
      <trkpt lat="49.88368" lon="4.84265">
        <ele>167</ele>
        <time>2022-06-17T14:48:08.000Z</time>
      </trkpt>
      <trkpt lat="49.88369" lon="4.84258">
        <ele>166</ele>
        <time>2022-06-17T14:48:09.000Z</time>
      </trkpt>
      <trkpt lat="49.8837" lon="4.84251">
        <ele>166</ele>
        <time>2022-06-17T14:48:10.000Z</time>
      </trkpt>
      <trkpt lat="49.8837" lon="4.84245">
        <ele>166</ele>
        <time>2022-06-17T14:48:11.000Z</time>
      </trkpt>
      <trkpt lat="49.88369" lon="4.84237">
        <ele>166</ele>
        <time>2022-06-17T14:48:12.000Z</time>
      </trkpt>
      <trkpt lat="49.88368" lon="4.8423">
        <ele>166</ele>
        <time>2022-06-17T14:48:13.000Z</time>
      </trkpt>
      <trkpt lat="49.88367" lon="4.84224">
        <ele>165</ele>
        <time>2022-06-17T14:48:14.000Z</time>
      </trkpt>
      <trkpt lat="49.88365" lon="4.84218">
        <ele>165</ele>
        <time>2022-06-17T14:48:15.000Z</time>
      </trkpt>
      <trkpt lat="49.88365" lon="4.84212">
        <ele>165</ele>
        <time>2022-06-17T14:48:16.000Z</time>
      </trkpt>
      <trkpt lat="49.88364" lon="4.84206">
        <ele>165</ele>
        <time>2022-06-17T14:48:17.000Z</time>
      </trkpt>
      <trkpt lat="49.88363" lon="4.842">
        <ele>165</ele>
        <time>2022-06-17T14:48:18.000Z</time>
      </trkpt>
      <trkpt lat="49.88362" lon="4.84194">
        <ele>165</ele>
        <time>2022-06-17T14:48:19.000Z</time>
      </trkpt>
      <trkpt lat="49.88361" lon="4.84189">
        <ele>165</ele>
        <time>2022-06-17T14:48:20.000Z</time>
      </trkpt>
      <trkpt lat="49.8836" lon="4.84183">
        <ele>165</ele>
        <time>2022-06-17T14:48:21.000Z</time>
      </trkpt>
      <trkpt lat="49.88359" lon="4.84177">
        <ele>165</ele>
        <time>2022-06-17T14:48:22.000Z</time>
      </trkpt>
      <trkpt lat="49.88359" lon="4.84172">
        <ele>164</ele>
        <time>2022-06-17T14:48:23.000Z</time>
      </trkpt>
      <trkpt lat="49.88358" lon="4.84169">
        <ele>164</ele>
        <time>2022-06-17T14:48:24.000Z</time>
      </trkpt>
      <trkpt lat="49.88356" lon="4.84166">
        <ele>164</ele>
        <time>2022-06-17T14:48:25.000Z</time>
      </trkpt>
      <trkpt lat="49.88354" lon="4.84165">
        <ele>164</ele>
        <time>2022-06-17T14:48:26.000Z</time>
      </trkpt>
      <trkpt lat="49.88351" lon="4.84164">
        <ele>164</ele>
        <time>2022-06-17T14:48:27.000Z</time>
      </trkpt>
      <trkpt lat="49.88347" lon="4.84163">
        <ele>164</ele>
        <time>2022-06-17T14:48:28.000Z</time>
      </trkpt>
      <trkpt lat="49.88344" lon="4.84163">
        <ele>164</ele>
        <time>2022-06-17T14:48:29.000Z</time>
      </trkpt>
      <trkpt lat="49.8834" lon="4.84163">
        <ele>164</ele>
        <time>2022-06-17T14:48:30.000Z</time>
      </trkpt>
      <trkpt lat="49.88336" lon="4.84163">
        <ele>164</ele>
        <time>2022-06-17T14:48:31.000Z</time>
      </trkpt>
      <trkpt lat="49.88331" lon="4.84164">
        <ele>164</ele>
        <time>2022-06-17T14:48:32.000Z</time>
      </trkpt>
      <trkpt lat="49.88326" lon="4.84165">
        <ele>164</ele>
        <time>2022-06-17T14:48:33.000Z</time>
      </trkpt>
      <trkpt lat="49.88321" lon="4.84166">
        <ele>165</ele>
        <time>2022-06-17T14:48:34.000Z</time>
      </trkpt>
      <trkpt lat="49.88316" lon="4.84168">
        <ele>165</ele>
        <time>2022-06-17T14:48:35.000Z</time>
      </trkpt>
      <trkpt lat="49.88311" lon="4.8417">
        <ele>165</ele>
        <time>2022-06-17T14:48:36.000Z</time>
      </trkpt>
      <trkpt lat="49.88306" lon="4.84171">
        <ele>165</ele>
        <time>2022-06-17T14:48:37.000Z</time>
      </trkpt>
      <trkpt lat="49.88301" lon="4.84173">
        <ele>165</ele>
        <time>2022-06-17T14:48:38.000Z</time>
      </trkpt>
      <trkpt lat="49.88296" lon="4.84175">
        <ele>165</ele>
        <time>2022-06-17T14:48:39.000Z</time>
      </trkpt>
      <trkpt lat="49.88291" lon="4.84178">
        <ele>165</ele>
        <time>2022-06-17T14:48:40.000Z</time>
      </trkpt>
      <trkpt lat="49.88286" lon="4.8418">
        <ele>165</ele>
        <time>2022-06-17T14:48:41.000Z</time>
      </trkpt>
      <trkpt lat="49.88282" lon="4.84182">
        <ele>165</ele>
        <time>2022-06-17T14:48:42.000Z</time>
      </trkpt>
      <trkpt lat="49.88277" lon="4.84185">
        <ele>165</ele>
        <time>2022-06-17T14:48:43.000Z</time>
      </trkpt>
      <trkpt lat="49.88272" lon="4.84187">
        <ele>165</ele>
        <time>2022-06-17T14:48:44.000Z</time>
      </trkpt>
      <trkpt lat="49.88267" lon="4.84189">
        <ele>165</ele>
        <time>2022-06-17T14:48:45.000Z</time>
      </trkpt>
      <trkpt lat="49.88262" lon="4.84192">
        <ele>165</ele>
        <time>2022-06-17T14:48:46.000Z</time>
      </trkpt>
      <trkpt lat="49.88258" lon="4.84195">
        <ele>165</ele>
        <time>2022-06-17T14:48:47.000Z</time>
      </trkpt>
      <trkpt lat="49.88253" lon="4.84197">
        <ele>165</ele>
        <time>2022-06-17T14:48:48.000Z</time>
      </trkpt>
      <trkpt lat="49.88248" lon="4.842">
        <ele>165</ele>
        <time>2022-06-17T14:48:49.000Z</time>
      </trkpt>
      <trkpt lat="49.88243" lon="4.84203">
        <ele>166</ele>
        <time>2022-06-17T14:48:50.000Z</time>
      </trkpt>
      <trkpt lat="49.88238" lon="4.84206">
        <ele>166</ele>
        <time>2022-06-17T14:48:51.000Z</time>
      </trkpt>
      <trkpt lat="49.88234" lon="4.84209">
        <ele>166</ele>
        <time>2022-06-17T14:48:52.000Z</time>
      </trkpt>
      <trkpt lat="49.88229" lon="4.84212">
        <ele>166</ele>
        <time>2022-06-17T14:48:53.000Z</time>
      </trkpt>
      <trkpt lat="49.88224" lon="4.84214">
        <ele>166</ele>
        <time>2022-06-17T14:48:54.000Z</time>
      </trkpt>
      <trkpt lat="49.88219" lon="4.84217">
        <ele>166</ele>
        <time>2022-06-17T14:48:55.000Z</time>
      </trkpt>
      <trkpt lat="49.88214" lon="4.84219">
        <ele>166</ele>
        <time>2022-06-17T14:48:56.000Z</time>
      </trkpt>
      <trkpt lat="49.88209" lon="4.84222">
        <ele>166</ele>
        <time>2022-06-17T14:48:57.000Z</time>
      </trkpt>
      <trkpt lat="49.88204" lon="4.84224">
        <ele>166</ele>
        <time>2022-06-17T14:48:58.000Z</time>
      </trkpt>
      <trkpt lat="49.88199" lon="4.84222">
        <ele>167</ele>
        <time>2022-06-17T14:48:59.000Z</time>
      </trkpt>
      <trkpt lat="49.88195" lon="4.84217">
        <ele>167</ele>
        <time>2022-06-17T14:49:00.000Z</time>
      </trkpt>
      <trkpt lat="49.88192" lon="4.84212">
        <ele>167</ele>
        <time>2022-06-17T14:49:01.000Z</time>
      </trkpt>
      <trkpt lat="49.8819" lon="4.84206">
        <ele>167</ele>
        <time>2022-06-17T14:49:02.000Z</time>
      </trkpt>
      <trkpt lat="49.88187" lon="4.842">
        <ele>167</ele>
        <time>2022-06-17T14:49:03.000Z</time>
      </trkpt>
      <trkpt lat="49.88185" lon="4.84193">
        <ele>167</ele>
        <time>2022-06-17T14:49:04.000Z</time>
      </trkpt>
      <trkpt lat="49.88182" lon="4.84188">
        <ele>167</ele>
        <time>2022-06-17T14:49:05.000Z</time>
      </trkpt>
      <trkpt lat="49.8818" lon="4.84182">
        <ele>167</ele>
        <time>2022-06-17T14:49:06.000Z</time>
      </trkpt>
      <trkpt lat="49.88177" lon="4.84176">
        <ele>167</ele>
        <time>2022-06-17T14:49:07.000Z</time>
      </trkpt>
      <trkpt lat="49.88175" lon="4.8417">
        <ele>167</ele>
        <time>2022-06-17T14:49:08.000Z</time>
      </trkpt>
      <trkpt lat="49.88172" lon="4.84164">
        <ele>167</ele>
        <time>2022-06-17T14:49:09.000Z</time>
      </trkpt>
      <trkpt lat="49.8817" lon="4.84158">
        <ele>167</ele>
        <time>2022-06-17T14:49:10.000Z</time>
      </trkpt>
      <trkpt lat="49.88168" lon="4.84151">
        <ele>167</ele>
        <time>2022-06-17T14:49:11.000Z</time>
      </trkpt>
      <trkpt lat="49.88166" lon="4.84145">
        <ele>167</ele>
        <time>2022-06-17T14:49:12.000Z</time>
      </trkpt>
      <trkpt lat="49.88163" lon="4.84139">
        <ele>167</ele>
        <time>2022-06-17T14:49:13.000Z</time>
      </trkpt>
      <trkpt lat="49.88161" lon="4.84133">
        <ele>167</ele>
        <time>2022-06-17T14:49:14.000Z</time>
      </trkpt>
      <trkpt lat="49.88158" lon="4.84126">
        <ele>167</ele>
        <time>2022-06-17T14:49:15.000Z</time>
      </trkpt>
      <trkpt lat="49.88156" lon="4.8412">
        <ele>167</ele>
        <time>2022-06-17T14:49:16.000Z</time>
      </trkpt>
      <trkpt lat="49.88154" lon="4.84114">
        <ele>167</ele>
        <time>2022-06-17T14:49:17.000Z</time>
      </trkpt>
      <trkpt lat="49.88151" lon="4.84107">
        <ele>167</ele>
        <time>2022-06-17T14:49:18.000Z</time>
      </trkpt>
      <trkpt lat="49.88149" lon="4.84101">
        <ele>167</ele>
        <time>2022-06-17T14:49:19.000Z</time>
      </trkpt>
      <trkpt lat="49.88146" lon="4.84094">
        <ele>167</ele>
        <time>2022-06-17T14:49:20.000Z</time>
      </trkpt>
      <trkpt lat="49.88143" lon="4.84088">
        <ele>167</ele>
        <time>2022-06-17T14:49:21.000Z</time>
      </trkpt>
      <trkpt lat="49.88141" lon="4.84081">
        <ele>167</ele>
        <time>2022-06-17T14:49:22.000Z</time>
      </trkpt>
      <trkpt lat="49.88138" lon="4.84074">
        <ele>167</ele>
        <time>2022-06-17T14:49:23.000Z</time>
      </trkpt>
      <trkpt lat="49.88136" lon="4.84067">
        <ele>167</ele>
        <time>2022-06-17T14:49:24.000Z</time>
      </trkpt>
      <trkpt lat="49.88134" lon="4.84061">
        <ele>167</ele>
        <time>2022-06-17T14:49:25.000Z</time>
      </trkpt>
      <trkpt lat="49.88131" lon="4.84055">
        <ele>167</ele>
        <time>2022-06-17T14:49:26.000Z</time>
      </trkpt>
      <trkpt lat="49.88129" lon="4.84052">
        <ele>167</ele>
        <time>2022-06-17T14:49:27.000Z</time>
      </trkpt>
      <trkpt lat="49.88127" lon="4.84048">
        <ele>167</ele>
        <time>2022-06-17T14:49:28.000Z</time>
      </trkpt>
      <trkpt lat="49.88124" lon="4.84045">
        <ele>167</ele>
        <time>2022-06-17T14:49:29.000Z</time>
      </trkpt>
      <trkpt lat="49.88121" lon="4.84044">
        <ele>167</ele>
        <time>2022-06-17T14:49:30.000Z</time>
      </trkpt>
      <trkpt lat="49.88118" lon="4.84044">
        <ele>167</ele>
        <time>2022-06-17T14:49:31.000Z</time>
      </trkpt>
      <trkpt lat="49.88115" lon="4.84044">
        <ele>167</ele>
        <time>2022-06-17T14:49:32.000Z</time>
      </trkpt>
      <trkpt lat="49.88112" lon="4.84047">
        <ele>167</ele>
        <time>2022-06-17T14:49:33.000Z</time>
      </trkpt>
      <trkpt lat="49.88108" lon="4.8405">
        <ele>167</ele>
        <time>2022-06-17T14:49:34.000Z</time>
      </trkpt>
      <trkpt lat="49.88105" lon="4.84054">
        <ele>167</ele>
        <time>2022-06-17T14:49:35.000Z</time>
      </trkpt>
      <trkpt lat="49.88101" lon="4.8406">
        <ele>167</ele>
        <time>2022-06-17T14:49:36.000Z</time>
      </trkpt>
      <trkpt lat="49.88097" lon="4.84065">
        <ele>166</ele>
        <time>2022-06-17T14:49:37.000Z</time>
      </trkpt>
      <trkpt lat="49.88092" lon="4.84071">
        <ele>166</ele>
        <time>2022-06-17T14:49:38.000Z</time>
      </trkpt>
      <trkpt lat="49.88087" lon="4.84077">
        <ele>166</ele>
        <time>2022-06-17T14:49:39.000Z</time>
      </trkpt>
      <trkpt lat="49.88083" lon="4.84084">
        <ele>166</ele>
        <time>2022-06-17T14:49:40.000Z</time>
      </trkpt>
      <trkpt lat="49.88077" lon="4.84091">
        <ele>165</ele>
        <time>2022-06-17T14:49:41.000Z</time>
      </trkpt>
      <trkpt lat="49.88072" lon="4.84098">
        <ele>165</ele>
        <time>2022-06-17T14:49:42.000Z</time>
      </trkpt>
      <trkpt lat="49.88066" lon="4.84105">
        <ele>165</ele>
        <time>2022-06-17T14:49:43.000Z</time>
      </trkpt>
      <trkpt lat="49.88061" lon="4.84112">
        <ele>164</ele>
        <time>2022-06-17T14:49:44.000Z</time>
      </trkpt>
      <trkpt lat="49.88055" lon="4.84118">
        <ele>164</ele>
        <time>2022-06-17T14:49:45.000Z</time>
      </trkpt>
      <trkpt lat="49.88049" lon="4.84125">
        <ele>164</ele>
        <time>2022-06-17T14:49:46.000Z</time>
      </trkpt>
      <trkpt lat="49.88044" lon="4.84131">
        <ele>164</ele>
        <time>2022-06-17T14:49:47.000Z</time>
      </trkpt>
      <trkpt lat="49.88039" lon="4.84137">
        <ele>164</ele>
        <time>2022-06-17T14:49:48.000Z</time>
      </trkpt>
      <trkpt lat="49.88034" lon="4.84144">
        <ele>164</ele>
        <time>2022-06-17T14:49:49.000Z</time>
      </trkpt>
      <trkpt lat="49.88029" lon="4.8415">
        <ele>164</ele>
        <time>2022-06-17T14:49:50.000Z</time>
      </trkpt>
      <trkpt lat="49.88024" lon="4.84155">
        <ele>164</ele>
        <time>2022-06-17T14:49:51.000Z</time>
      </trkpt>
      <trkpt lat="49.8802" lon="4.84161">
        <ele>164</ele>
        <time>2022-06-17T14:49:52.000Z</time>
      </trkpt>
      <trkpt lat="49.88016" lon="4.84167">
        <ele>164</ele>
        <time>2022-06-17T14:49:53.000Z</time>
      </trkpt>
      <trkpt lat="49.88012" lon="4.84172">
        <ele>164</ele>
        <time>2022-06-17T14:49:54.000Z</time>
      </trkpt>
      <trkpt lat="49.88007" lon="4.84178">
        <ele>164</ele>
        <time>2022-06-17T14:49:55.000Z</time>
      </trkpt>
      <trkpt lat="49.88003" lon="4.84184">
        <ele>164</ele>
        <time>2022-06-17T14:49:56.000Z</time>
      </trkpt>
      <trkpt lat="49.88" lon="4.84191">
        <ele>164</ele>
        <time>2022-06-17T14:49:57.000Z</time>
      </trkpt>
      <trkpt lat="49.87996" lon="4.84197">
        <ele>164</ele>
        <time>2022-06-17T14:49:58.000Z</time>
      </trkpt>
      <trkpt lat="49.87992" lon="4.84204">
        <ele>164</ele>
        <time>2022-06-17T14:49:59.000Z</time>
      </trkpt>
      <trkpt lat="49.87988" lon="4.8421">
        <ele>164</ele>
        <time>2022-06-17T14:50:00.000Z</time>
      </trkpt>
      <trkpt lat="49.87984" lon="4.84217">
        <ele>164</ele>
        <time>2022-06-17T14:50:01.000Z</time>
      </trkpt>
      <trkpt lat="49.87981" lon="4.84224">
        <ele>164</ele>
        <time>2022-06-17T14:50:02.000Z</time>
      </trkpt>
      <trkpt lat="49.87977" lon="4.84232">
        <ele>164</ele>
        <time>2022-06-17T14:50:03.000Z</time>
      </trkpt>
      <trkpt lat="49.87973" lon="4.84239">
        <ele>164</ele>
        <time>2022-06-17T14:50:04.000Z</time>
      </trkpt>
      <trkpt lat="49.8797" lon="4.84246">
        <ele>165</ele>
        <time>2022-06-17T14:50:05.000Z</time>
      </trkpt>
      <trkpt lat="49.87966" lon="4.84253">
        <ele>165</ele>
        <time>2022-06-17T14:50:06.000Z</time>
      </trkpt>
      <trkpt lat="49.87962" lon="4.8426">
        <ele>165</ele>
        <time>2022-06-17T14:50:07.000Z</time>
      </trkpt>
      <trkpt lat="49.87958" lon="4.84267">
        <ele>165</ele>
        <time>2022-06-17T14:50:08.000Z</time>
      </trkpt>
      <trkpt lat="49.87954" lon="4.84274">
        <ele>165</ele>
        <time>2022-06-17T14:50:09.000Z</time>
      </trkpt>
      <trkpt lat="49.87951" lon="4.84281">
        <ele>165</ele>
        <time>2022-06-17T14:50:10.000Z</time>
      </trkpt>
      <trkpt lat="49.87947" lon="4.84288">
        <ele>165</ele>
        <time>2022-06-17T14:50:11.000Z</time>
      </trkpt>
      <trkpt lat="49.87943" lon="4.84295">
        <ele>165</ele>
        <time>2022-06-17T14:50:12.000Z</time>
      </trkpt>
      <trkpt lat="49.87939" lon="4.84301">
        <ele>165</ele>
        <time>2022-06-17T14:50:13.000Z</time>
      </trkpt>
      <trkpt lat="49.87935" lon="4.84308">
        <ele>165</ele>
        <time>2022-06-17T14:50:14.000Z</time>
      </trkpt>
      <trkpt lat="49.8793" lon="4.84313">
        <ele>165</ele>
        <time>2022-06-17T14:50:15.000Z</time>
      </trkpt>
      <trkpt lat="49.87926" lon="4.84319">
        <ele>165</ele>
        <time>2022-06-17T14:50:16.000Z</time>
      </trkpt>
      <trkpt lat="49.87922" lon="4.84326">
        <ele>166</ele>
        <time>2022-06-17T14:50:17.000Z</time>
      </trkpt>
      <trkpt lat="49.87918" lon="4.84331">
        <ele>166</ele>
        <time>2022-06-17T14:50:18.000Z</time>
      </trkpt>
      <trkpt lat="49.87914" lon="4.84337">
        <ele>166</ele>
        <time>2022-06-17T14:50:19.000Z</time>
      </trkpt>
      <trkpt lat="49.87909" lon="4.84343">
        <ele>166</ele>
        <time>2022-06-17T14:50:20.000Z</time>
      </trkpt>
      <trkpt lat="49.87905" lon="4.84348">
        <ele>166</ele>
        <time>2022-06-17T14:50:21.000Z</time>
      </trkpt>
      <trkpt lat="49.87901" lon="4.84354">
        <ele>166</ele>
        <time>2022-06-17T14:50:22.000Z</time>
      </trkpt>
      <trkpt lat="49.87896" lon="4.84359">
        <ele>166</ele>
        <time>2022-06-17T14:50:23.000Z</time>
      </trkpt>
      <trkpt lat="49.87892" lon="4.84365">
        <ele>166</ele>
        <time>2022-06-17T14:50:24.000Z</time>
      </trkpt>
      <trkpt lat="49.87887" lon="4.8437">
        <ele>166</ele>
        <time>2022-06-17T14:50:25.000Z</time>
      </trkpt>
      <trkpt lat="49.87883" lon="4.84376">
        <ele>166</ele>
        <time>2022-06-17T14:50:26.000Z</time>
      </trkpt>
      <trkpt lat="49.87879" lon="4.84381">
        <ele>166</ele>
        <time>2022-06-17T14:50:27.000Z</time>
      </trkpt>
      <trkpt lat="49.87874" lon="4.84387">
        <ele>166</ele>
        <time>2022-06-17T14:50:28.000Z</time>
      </trkpt>
      <trkpt lat="49.8787" lon="4.84393">
        <ele>166</ele>
        <time>2022-06-17T14:50:29.000Z</time>
      </trkpt>
      <trkpt lat="49.87866" lon="4.84399">
        <ele>166</ele>
        <time>2022-06-17T14:50:30.000Z</time>
      </trkpt>
      <trkpt lat="49.87861" lon="4.84404">
        <ele>166</ele>
        <time>2022-06-17T14:50:31.000Z</time>
      </trkpt>
      <trkpt lat="49.87857" lon="4.84409">
        <ele>166</ele>
        <time>2022-06-17T14:50:32.000Z</time>
      </trkpt>
      <trkpt lat="49.87852" lon="4.84415">
        <ele>166</ele>
        <time>2022-06-17T14:50:33.000Z</time>
      </trkpt>
      <trkpt lat="49.87848" lon="4.8442">
        <ele>166</ele>
        <time>2022-06-17T14:50:34.000Z</time>
      </trkpt>
      <trkpt lat="49.87843" lon="4.84426">
        <ele>166</ele>
        <time>2022-06-17T14:50:35.000Z</time>
      </trkpt>
      <trkpt lat="49.87839" lon="4.84431">
        <ele>166</ele>
        <time>2022-06-17T14:50:36.000Z</time>
      </trkpt>
      <trkpt lat="49.87834" lon="4.84435">
        <ele>166</ele>
        <time>2022-06-17T14:50:37.000Z</time>
      </trkpt>
      <trkpt lat="49.87829" lon="4.8444">
        <ele>166</ele>
        <time>2022-06-17T14:50:38.000Z</time>
      </trkpt>
      <trkpt lat="49.87825" lon="4.84445">
        <ele>166</ele>
        <time>2022-06-17T14:50:39.000Z</time>
      </trkpt>
      <trkpt lat="49.8782" lon="4.8445">
        <ele>166</ele>
        <time>2022-06-17T14:50:40.000Z</time>
      </trkpt>
      <trkpt lat="49.87816" lon="4.84455">
        <ele>166</ele>
        <time>2022-06-17T14:50:41.000Z</time>
      </trkpt>
      <trkpt lat="49.87811" lon="4.8446">
        <ele>166</ele>
        <time>2022-06-17T14:50:42.000Z</time>
      </trkpt>
      <trkpt lat="49.87806" lon="4.84465">
        <ele>166</ele>
        <time>2022-06-17T14:50:43.000Z</time>
      </trkpt>
      <trkpt lat="49.87802" lon="4.8447">
        <ele>166</ele>
        <time>2022-06-17T14:50:44.000Z</time>
      </trkpt>
      <trkpt lat="49.87797" lon="4.84475">
        <ele>166</ele>
        <time>2022-06-17T14:50:45.000Z</time>
      </trkpt>
      <trkpt lat="49.87792" lon="4.8448">
        <ele>166</ele>
        <time>2022-06-17T14:50:46.000Z</time>
      </trkpt>
      <trkpt lat="49.87787" lon="4.84485">
        <ele>166</ele>
        <time>2022-06-17T14:50:47.000Z</time>
      </trkpt>
      <trkpt lat="49.87782" lon="4.84489">
        <ele>166</ele>
        <time>2022-06-17T14:50:48.000Z</time>
      </trkpt>
      <trkpt lat="49.87776" lon="4.84494">
        <ele>166</ele>
        <time>2022-06-17T14:50:49.000Z</time>
      </trkpt>
      <trkpt lat="49.87771" lon="4.84498">
        <ele>166</ele>
        <time>2022-06-17T14:50:50.000Z</time>
      </trkpt>
      <trkpt lat="49.87766" lon="4.84502">
        <ele>166</ele>
        <time>2022-06-17T14:50:51.000Z</time>
      </trkpt>
      <trkpt lat="49.87761" lon="4.84506">
        <ele>166</ele>
        <time>2022-06-17T14:50:52.000Z</time>
      </trkpt>
      <trkpt lat="49.87756" lon="4.84511">
        <ele>167</ele>
        <time>2022-06-17T14:50:53.000Z</time>
      </trkpt>
      <trkpt lat="49.8775" lon="4.84514">
        <ele>167</ele>
        <time>2022-06-17T14:50:54.000Z</time>
      </trkpt>
      <trkpt lat="49.87745" lon="4.84518">
        <ele>167</ele>
        <time>2022-06-17T14:50:55.000Z</time>
      </trkpt>
      <trkpt lat="49.8774" lon="4.84522">
        <ele>167</ele>
        <time>2022-06-17T14:50:56.000Z</time>
      </trkpt>
      <trkpt lat="49.87734" lon="4.84526">
        <ele>167</ele>
        <time>2022-06-17T14:50:57.000Z</time>
      </trkpt>
      <trkpt lat="49.87729" lon="4.8453">
        <ele>167</ele>
        <time>2022-06-17T14:50:58.000Z</time>
      </trkpt>
      <trkpt lat="49.87724" lon="4.84534">
        <ele>167</ele>
        <time>2022-06-17T14:50:59.000Z</time>
      </trkpt>
      <trkpt lat="49.87719" lon="4.84538">
        <ele>167</ele>
        <time>2022-06-17T14:51:00.000Z</time>
      </trkpt>
      <trkpt lat="49.87714" lon="4.84542">
        <ele>167</ele>
        <time>2022-06-17T14:51:01.000Z</time>
      </trkpt>
      <trkpt lat="49.87709" lon="4.84546">
        <ele>167</ele>
        <time>2022-06-17T14:51:02.000Z</time>
      </trkpt>
      <trkpt lat="49.87704" lon="4.84551">
        <ele>167</ele>
        <time>2022-06-17T14:51:03.000Z</time>
      </trkpt>
      <trkpt lat="49.877" lon="4.84557">
        <ele>167</ele>
        <time>2022-06-17T14:51:04.000Z</time>
      </trkpt>
      <trkpt lat="49.87695" lon="4.84562">
        <ele>167</ele>
        <time>2022-06-17T14:51:05.000Z</time>
      </trkpt>
      <trkpt lat="49.87691" lon="4.84568">
        <ele>167</ele>
        <time>2022-06-17T14:51:06.000Z</time>
      </trkpt>
      <trkpt lat="49.87686" lon="4.84574">
        <ele>167</ele>
        <time>2022-06-17T14:51:07.000Z</time>
      </trkpt>
      <trkpt lat="49.87681" lon="4.8458">
        <ele>167</ele>
        <time>2022-06-17T14:51:08.000Z</time>
      </trkpt>
      <trkpt lat="49.87677" lon="4.84585">
        <ele>167</ele>
        <time>2022-06-17T14:51:09.000Z</time>
      </trkpt>
      <trkpt lat="49.87671" lon="4.8459">
        <ele>166</ele>
        <time>2022-06-17T14:51:10.000Z</time>
      </trkpt>
      <trkpt lat="49.87667" lon="4.84596">
        <ele>166</ele>
        <time>2022-06-17T14:51:11.000Z</time>
      </trkpt>
      <trkpt lat="49.87662" lon="4.84601">
        <ele>166</ele>
        <time>2022-06-17T14:51:12.000Z</time>
      </trkpt>
      <trkpt lat="49.87657" lon="4.84605">
        <ele>166</ele>
        <time>2022-06-17T14:51:13.000Z</time>
      </trkpt>
      <trkpt lat="49.87651" lon="4.84609">
        <ele>166</ele>
        <time>2022-06-17T14:51:14.000Z</time>
      </trkpt>
      <trkpt lat="49.87646" lon="4.84613">
        <ele>166</ele>
        <time>2022-06-17T14:51:15.000Z</time>
      </trkpt>
      <trkpt lat="49.87641" lon="4.84617">
        <ele>166</ele>
        <time>2022-06-17T14:51:16.000Z</time>
      </trkpt>
      <trkpt lat="49.87637" lon="4.84622">
        <ele>166</ele>
        <time>2022-06-17T14:51:17.000Z</time>
      </trkpt>
      <trkpt lat="49.87632" lon="4.84626">
        <ele>166</ele>
        <time>2022-06-17T14:51:18.000Z</time>
      </trkpt>
      <trkpt lat="49.87627" lon="4.8463">
        <ele>166</ele>
        <time>2022-06-17T14:51:19.000Z</time>
      </trkpt>
      <trkpt lat="49.87622" lon="4.84634">
        <ele>166</ele>
        <time>2022-06-17T14:51:20.000Z</time>
      </trkpt>
      <trkpt lat="49.87616" lon="4.84638">
        <ele>166</ele>
        <time>2022-06-17T14:51:21.000Z</time>
      </trkpt>
      <trkpt lat="49.87611" lon="4.84642">
        <ele>166</ele>
        <time>2022-06-17T14:51:22.000Z</time>
      </trkpt>
      <trkpt lat="49.87606" lon="4.84646">
        <ele>166</ele>
        <time>2022-06-17T14:51:23.000Z</time>
      </trkpt>
      <trkpt lat="49.876" lon="4.84649">
        <ele>166</ele>
        <time>2022-06-17T14:51:24.000Z</time>
      </trkpt>
      <trkpt lat="49.87595" lon="4.84652">
        <ele>166</ele>
        <time>2022-06-17T14:51:25.000Z</time>
      </trkpt>
      <trkpt lat="49.87589" lon="4.84654">
        <ele>166</ele>
        <time>2022-06-17T14:51:26.000Z</time>
      </trkpt>
      <trkpt lat="49.87583" lon="4.84655">
        <ele>166</ele>
        <time>2022-06-17T14:51:27.000Z</time>
      </trkpt>
      <trkpt lat="49.87577" lon="4.84653">
        <ele>166</ele>
        <time>2022-06-17T14:51:28.000Z</time>
      </trkpt>
      <trkpt lat="49.87572" lon="4.84652">
        <ele>166</ele>
        <time>2022-06-17T14:51:29.000Z</time>
      </trkpt>
      <trkpt lat="49.87566" lon="4.84648">
        <ele>166</ele>
        <time>2022-06-17T14:51:30.000Z</time>
      </trkpt>
      <trkpt lat="49.87561" lon="4.84645">
        <ele>166</ele>
        <time>2022-06-17T14:51:31.000Z</time>
      </trkpt>
      <trkpt lat="49.87557" lon="4.84641">
        <ele>166</ele>
        <time>2022-06-17T14:51:32.000Z</time>
      </trkpt>
      <trkpt lat="49.87552" lon="4.84638">
        <ele>167</ele>
        <time>2022-06-17T14:51:33.000Z</time>
      </trkpt>
      <trkpt lat="49.87548" lon="4.84635">
        <ele>167</ele>
        <time>2022-06-17T14:51:34.000Z</time>
      </trkpt>
      <trkpt lat="49.87544" lon="4.84631">
        <ele>167</ele>
        <time>2022-06-17T14:51:35.000Z</time>
      </trkpt>
      <trkpt lat="49.8754" lon="4.84627">
        <ele>167</ele>
        <time>2022-06-17T14:51:36.000Z</time>
      </trkpt>
      <trkpt lat="49.87536" lon="4.84624">
        <ele>167</ele>
        <time>2022-06-17T14:51:37.000Z</time>
      </trkpt>
      <trkpt lat="49.87532" lon="4.8462">
        <ele>167</ele>
        <time>2022-06-17T14:51:38.000Z</time>
      </trkpt>
      <trkpt lat="49.87528" lon="4.84616">
        <ele>167</ele>
        <time>2022-06-17T14:51:39.000Z</time>
      </trkpt>
      <trkpt lat="49.87524" lon="4.84613">
        <ele>167</ele>
        <time>2022-06-17T14:51:40.000Z</time>
      </trkpt>
      <trkpt lat="49.8752" lon="4.8461">
        <ele>167</ele>
        <time>2022-06-17T14:51:41.000Z</time>
      </trkpt>
      <trkpt lat="49.87517" lon="4.84606">
        <ele>167</ele>
        <time>2022-06-17T14:51:42.000Z</time>
      </trkpt>
      <trkpt lat="49.87513" lon="4.84603">
        <ele>167</ele>
        <time>2022-06-17T14:51:43.000Z</time>
      </trkpt>
      <trkpt lat="49.8751" lon="4.846">
        <ele>167</ele>
        <time>2022-06-17T14:51:44.000Z</time>
      </trkpt>
      <trkpt lat="49.87506" lon="4.84597">
        <ele>167</ele>
        <time>2022-06-17T14:51:45.000Z</time>
      </trkpt>
      <trkpt lat="49.87503" lon="4.84594">
        <ele>167</ele>
        <time>2022-06-17T14:51:46.000Z</time>
      </trkpt>
      <trkpt lat="49.87499" lon="4.84591">
        <ele>168</ele>
        <time>2022-06-17T14:51:47.000Z</time>
      </trkpt>
      <trkpt lat="49.87496" lon="4.84588">
        <ele>168</ele>
        <time>2022-06-17T14:51:48.000Z</time>
      </trkpt>
      <trkpt lat="49.87492" lon="4.84585">
        <ele>168</ele>
        <time>2022-06-17T14:51:49.000Z</time>
      </trkpt>
      <trkpt lat="49.87489" lon="4.84582">
        <ele>168</ele>
        <time>2022-06-17T14:51:50.000Z</time>
      </trkpt>
      <trkpt lat="49.87485" lon="4.84579">
        <ele>168</ele>
        <time>2022-06-17T14:51:51.000Z</time>
      </trkpt>
      <trkpt lat="49.87482" lon="4.84575">
        <ele>168</ele>
        <time>2022-06-17T14:51:52.000Z</time>
      </trkpt>
      <trkpt lat="49.87478" lon="4.84572">
        <ele>168</ele>
        <time>2022-06-17T14:51:53.000Z</time>
      </trkpt>
      <trkpt lat="49.87475" lon="4.84569">
        <ele>168</ele>
        <time>2022-06-17T14:51:54.000Z</time>
      </trkpt>
      <trkpt lat="49.87472" lon="4.84567">
        <ele>169</ele>
        <time>2022-06-17T14:51:55.000Z</time>
      </trkpt>
      <trkpt lat="49.87469" lon="4.84564">
        <ele>169</ele>
        <time>2022-06-17T14:51:56.000Z</time>
      </trkpt>
      <trkpt lat="49.87466" lon="4.84562">
        <ele>169</ele>
        <time>2022-06-17T14:51:57.000Z</time>
      </trkpt>
      <trkpt lat="49.87463" lon="4.8456">
        <ele>169</ele>
        <time>2022-06-17T14:51:58.000Z</time>
      </trkpt>
      <trkpt lat="49.87461" lon="4.84557">
        <ele>169</ele>
        <time>2022-06-17T14:51:59.000Z</time>
      </trkpt>
      <trkpt lat="49.87458" lon="4.84554">
        <ele>169</ele>
        <time>2022-06-17T14:52:00.000Z</time>
      </trkpt>
      <trkpt lat="49.87455" lon="4.84551">
        <ele>169</ele>
        <time>2022-06-17T14:52:01.000Z</time>
      </trkpt>
      <trkpt lat="49.87453" lon="4.84549">
        <ele>169</ele>
        <time>2022-06-17T14:52:02.000Z</time>
      </trkpt>
      <trkpt lat="49.8745" lon="4.84546">
        <ele>170</ele>
        <time>2022-06-17T14:52:03.000Z</time>
      </trkpt>
      <trkpt lat="49.87447" lon="4.84544">
        <ele>170</ele>
        <time>2022-06-17T14:52:04.000Z</time>
      </trkpt>
      <trkpt lat="49.87444" lon="4.84542">
        <ele>170</ele>
        <time>2022-06-17T14:52:05.000Z</time>
      </trkpt>
      <trkpt lat="49.87441" lon="4.8454">
        <ele>170</ele>
        <time>2022-06-17T14:52:06.000Z</time>
      </trkpt>
      <trkpt lat="49.87438" lon="4.84538">
        <ele>170</ele>
        <time>2022-06-17T14:52:07.000Z</time>
      </trkpt>
      <trkpt lat="49.87436" lon="4.84537">
        <ele>171</ele>
        <time>2022-06-17T14:52:08.000Z</time>
      </trkpt>
      <trkpt lat="49.87433" lon="4.84536">
        <ele>171</ele>
        <time>2022-06-17T14:52:09.000Z</time>
      </trkpt>
      <trkpt lat="49.8743" lon="4.84534">
        <ele>172</ele>
        <time>2022-06-17T14:52:10.000Z</time>
      </trkpt>
      <trkpt lat="49.87427" lon="4.84533">
        <ele>172</ele>
        <time>2022-06-17T14:52:11.000Z</time>
      </trkpt>
      <trkpt lat="49.87425" lon="4.84532">
        <ele>172</ele>
        <time>2022-06-17T14:52:12.000Z</time>
      </trkpt>
      <trkpt lat="49.87422" lon="4.84531">
        <ele>173</ele>
        <time>2022-06-17T14:52:13.000Z</time>
      </trkpt>
      <trkpt lat="49.87419" lon="4.8453">
        <ele>173</ele>
        <time>2022-06-17T14:52:14.000Z</time>
      </trkpt>
      <trkpt lat="49.87417" lon="4.8453">
        <ele>173</ele>
        <time>2022-06-17T14:52:15.000Z</time>
      </trkpt>
      <trkpt lat="49.87414" lon="4.84529">
        <ele>174</ele>
        <time>2022-06-17T14:52:16.000Z</time>
      </trkpt>
      <trkpt lat="49.87412" lon="4.84528">
        <ele>174</ele>
        <time>2022-06-17T14:52:17.000Z</time>
      </trkpt>
      <trkpt lat="49.87409" lon="4.84528">
        <ele>174</ele>
        <time>2022-06-17T14:52:18.000Z</time>
      </trkpt>
      <trkpt lat="49.87406" lon="4.84527">
        <ele>174</ele>
        <time>2022-06-17T14:52:19.000Z</time>
      </trkpt>
      <trkpt lat="49.87403" lon="4.84527">
        <ele>174</ele>
        <time>2022-06-17T14:52:20.000Z</time>
      </trkpt>
      <trkpt lat="49.87401" lon="4.84527">
        <ele>175</ele>
        <time>2022-06-17T14:52:21.000Z</time>
      </trkpt>
      <trkpt lat="49.87398" lon="4.84527">
        <ele>175</ele>
        <time>2022-06-17T14:52:22.000Z</time>
      </trkpt>
      <trkpt lat="49.87395" lon="4.84527">
        <ele>175</ele>
        <time>2022-06-17T14:52:23.000Z</time>
      </trkpt>
      <trkpt lat="49.87393" lon="4.84528">
        <ele>175</ele>
        <time>2022-06-17T14:52:24.000Z</time>
      </trkpt>
      <trkpt lat="49.8739" lon="4.84528">
        <ele>176</ele>
        <time>2022-06-17T14:52:25.000Z</time>
      </trkpt>
      <trkpt lat="49.87387" lon="4.84528">
        <ele>176</ele>
        <time>2022-06-17T14:52:26.000Z</time>
      </trkpt>
      <trkpt lat="49.87385" lon="4.84529">
        <ele>176</ele>
        <time>2022-06-17T14:52:27.000Z</time>
      </trkpt>
      <trkpt lat="49.87382" lon="4.84529">
        <ele>176</ele>
        <time>2022-06-17T14:52:28.000Z</time>
      </trkpt>
      <trkpt lat="49.8738" lon="4.8453">
        <ele>177</ele>
        <time>2022-06-17T14:52:29.000Z</time>
      </trkpt>
      <trkpt lat="49.87377" lon="4.8453">
        <ele>177</ele>
        <time>2022-06-17T14:52:30.000Z</time>
      </trkpt>
      <trkpt lat="49.87374" lon="4.84531">
        <ele>177</ele>
        <time>2022-06-17T14:52:31.000Z</time>
      </trkpt>
      <trkpt lat="49.87372" lon="4.84533">
        <ele>177</ele>
        <time>2022-06-17T14:52:32.000Z</time>
      </trkpt>
      <trkpt lat="49.87369" lon="4.84534">
        <ele>178</ele>
        <time>2022-06-17T14:52:33.000Z</time>
      </trkpt>
      <trkpt lat="49.87367" lon="4.84535">
        <ele>178</ele>
        <time>2022-06-17T14:52:34.000Z</time>
      </trkpt>
      <trkpt lat="49.87364" lon="4.84535">
        <ele>178</ele>
        <time>2022-06-17T14:52:35.000Z</time>
      </trkpt>
      <trkpt lat="49.87361" lon="4.84536">
        <ele>178</ele>
        <time>2022-06-17T14:52:36.000Z</time>
      </trkpt>
      <trkpt lat="49.87359" lon="4.84537">
        <ele>178</ele>
        <time>2022-06-17T14:52:37.000Z</time>
      </trkpt>
      <trkpt lat="49.87356" lon="4.84538">
        <ele>178</ele>
        <time>2022-06-17T14:52:38.000Z</time>
      </trkpt>
      <trkpt lat="49.87353" lon="4.84539">
        <ele>179</ele>
        <time>2022-06-17T14:52:39.000Z</time>
      </trkpt>
      <trkpt lat="49.8735" lon="4.8454">
        <ele>179</ele>
        <time>2022-06-17T14:52:40.000Z</time>
      </trkpt>
      <trkpt lat="49.87348" lon="4.84541">
        <ele>179</ele>
        <time>2022-06-17T14:52:41.000Z</time>
      </trkpt>
      <trkpt lat="49.87345" lon="4.84543">
        <ele>180</ele>
        <time>2022-06-17T14:52:42.000Z</time>
      </trkpt>
      <trkpt lat="49.87342" lon="4.84544">
        <ele>180</ele>
        <time>2022-06-17T14:52:43.000Z</time>
      </trkpt>
      <trkpt lat="49.87339" lon="4.84545">
        <ele>181</ele>
        <time>2022-06-17T14:52:44.000Z</time>
      </trkpt>
      <trkpt lat="49.87337" lon="4.84546">
        <ele>181</ele>
        <time>2022-06-17T14:52:45.000Z</time>
      </trkpt>
      <trkpt lat="49.87333" lon="4.84548">
        <ele>182</ele>
        <time>2022-06-17T14:52:46.000Z</time>
      </trkpt>
      <trkpt lat="49.8733" lon="4.84549">
        <ele>182</ele>
        <time>2022-06-17T14:52:47.000Z</time>
      </trkpt>
      <trkpt lat="49.87327" lon="4.84551">
        <ele>182</ele>
        <time>2022-06-17T14:52:48.000Z</time>
      </trkpt>
      <trkpt lat="49.87324" lon="4.84553">
        <ele>183</ele>
        <time>2022-06-17T14:52:49.000Z</time>
      </trkpt>
      <trkpt lat="49.87321" lon="4.84554">
        <ele>183</ele>
        <time>2022-06-17T14:52:50.000Z</time>
      </trkpt>
      <trkpt lat="49.87318" lon="4.84555">
        <ele>184</ele>
        <time>2022-06-17T14:52:51.000Z</time>
      </trkpt>
      <trkpt lat="49.87314" lon="4.84556">
        <ele>184</ele>
        <time>2022-06-17T14:52:52.000Z</time>
      </trkpt>
      <trkpt lat="49.87311" lon="4.84558">
        <ele>184</ele>
        <time>2022-06-17T14:52:53.000Z</time>
      </trkpt>
      <trkpt lat="49.87307" lon="4.84559">
        <ele>185</ele>
        <time>2022-06-17T14:52:54.000Z</time>
      </trkpt>
      <trkpt lat="49.87304" lon="4.8456">
        <ele>185</ele>
        <time>2022-06-17T14:52:55.000Z</time>
      </trkpt>
      <trkpt lat="49.873" lon="4.84561">
        <ele>185</ele>
        <time>2022-06-17T14:52:56.000Z</time>
      </trkpt>
      <trkpt lat="49.87296" lon="4.84562">
        <ele>185</ele>
        <time>2022-06-17T14:52:57.000Z</time>
      </trkpt>
      <trkpt lat="49.87292" lon="4.84563">
        <ele>186</ele>
        <time>2022-06-17T14:52:58.000Z</time>
      </trkpt>
      <trkpt lat="49.87288" lon="4.84564">
        <ele>186</ele>
        <time>2022-06-17T14:52:59.000Z</time>
      </trkpt>
      <trkpt lat="49.87284" lon="4.84565">
        <ele>186</ele>
        <time>2022-06-17T14:53:00.000Z</time>
      </trkpt>
      <trkpt lat="49.8728" lon="4.84566">
        <ele>186</ele>
        <time>2022-06-17T14:53:01.000Z</time>
      </trkpt>
      <trkpt lat="49.87276" lon="4.84566">
        <ele>186</ele>
        <time>2022-06-17T14:53:02.000Z</time>
      </trkpt>
      <trkpt lat="49.87272" lon="4.84567">
        <ele>186</ele>
        <time>2022-06-17T14:53:03.000Z</time>
      </trkpt>
      <trkpt lat="49.87268" lon="4.84568">
        <ele>186</ele>
        <time>2022-06-17T14:53:04.000Z</time>
      </trkpt>
      <trkpt lat="49.87263" lon="4.8457">
        <ele>186</ele>
        <time>2022-06-17T14:53:05.000Z</time>
      </trkpt>
      <trkpt lat="49.87259" lon="4.8457">
        <ele>186</ele>
        <time>2022-06-17T14:53:06.000Z</time>
      </trkpt>
      <trkpt lat="49.87255" lon="4.84571">
        <ele>186</ele>
        <time>2022-06-17T14:53:07.000Z</time>
      </trkpt>
      <trkpt lat="49.87251" lon="4.84571">
        <ele>186</ele>
        <time>2022-06-17T14:53:08.000Z</time>
      </trkpt>
      <trkpt lat="49.87247" lon="4.84572">
        <ele>186</ele>
        <time>2022-06-17T14:53:09.000Z</time>
      </trkpt>
      <trkpt lat="49.87242" lon="4.84572">
        <ele>186</ele>
        <time>2022-06-17T14:53:10.000Z</time>
      </trkpt>
      <trkpt lat="49.87238" lon="4.84572">
        <ele>186</ele>
        <time>2022-06-17T14:53:11.000Z</time>
      </trkpt>
      <trkpt lat="49.87234" lon="4.84573">
        <ele>186</ele>
        <time>2022-06-17T14:53:12.000Z</time>
      </trkpt>
      <trkpt lat="49.8723" lon="4.84573">
        <ele>186</ele>
        <time>2022-06-17T14:53:13.000Z</time>
      </trkpt>
      <trkpt lat="49.87225" lon="4.84573">
        <ele>186</ele>
        <time>2022-06-17T14:53:14.000Z</time>
      </trkpt>
      <trkpt lat="49.87221" lon="4.84573">
        <ele>186</ele>
        <time>2022-06-17T14:53:15.000Z</time>
      </trkpt>
      <trkpt lat="49.87216" lon="4.84573">
        <ele>186</ele>
        <time>2022-06-17T14:53:16.000Z</time>
      </trkpt>
      <trkpt lat="49.87212" lon="4.84573">
        <ele>186</ele>
        <time>2022-06-17T14:53:17.000Z</time>
      </trkpt>
      <trkpt lat="49.87207" lon="4.84573">
        <ele>186</ele>
        <time>2022-06-17T14:53:18.000Z</time>
      </trkpt>
      <trkpt lat="49.87202" lon="4.84574">
        <ele>186</ele>
        <time>2022-06-17T14:53:19.000Z</time>
      </trkpt>
      <trkpt lat="49.87198" lon="4.84575">
        <ele>186</ele>
        <time>2022-06-17T14:53:20.000Z</time>
      </trkpt>
      <trkpt lat="49.87193" lon="4.84575">
        <ele>186</ele>
        <time>2022-06-17T14:53:21.000Z</time>
      </trkpt>
      <trkpt lat="49.87188" lon="4.84576">
        <ele>186</ele>
        <time>2022-06-17T14:53:22.000Z</time>
      </trkpt>
      <trkpt lat="49.87183" lon="4.84576">
        <ele>186</ele>
        <time>2022-06-17T14:53:23.000Z</time>
      </trkpt>
      <trkpt lat="49.87179" lon="4.84577">
        <ele>186</ele>
        <time>2022-06-17T14:53:24.000Z</time>
      </trkpt>
      <trkpt lat="49.87174" lon="4.84577">
        <ele>186</ele>
        <time>2022-06-17T14:53:25.000Z</time>
      </trkpt>
      <trkpt lat="49.87169" lon="4.84578">
        <ele>186</ele>
        <time>2022-06-17T14:53:26.000Z</time>
      </trkpt>
      <trkpt lat="49.87164" lon="4.84578">
        <ele>185</ele>
        <time>2022-06-17T14:53:27.000Z</time>
      </trkpt>
      <trkpt lat="49.87159" lon="4.84578">
        <ele>185</ele>
        <time>2022-06-17T14:53:28.000Z</time>
      </trkpt>
      <trkpt lat="49.87154" lon="4.84579">
        <ele>185</ele>
        <time>2022-06-17T14:53:29.000Z</time>
      </trkpt>
      <trkpt lat="49.87149" lon="4.84578">
        <ele>185</ele>
        <time>2022-06-17T14:53:30.000Z</time>
      </trkpt>
      <trkpt lat="49.87145" lon="4.84579">
        <ele>185</ele>
        <time>2022-06-17T14:53:31.000Z</time>
      </trkpt>
      <trkpt lat="49.8714" lon="4.84578">
        <ele>185</ele>
        <time>2022-06-17T14:53:32.000Z</time>
      </trkpt>
      <trkpt lat="49.87135" lon="4.84578">
        <ele>185</ele>
        <time>2022-06-17T14:53:33.000Z</time>
      </trkpt>
      <trkpt lat="49.87131" lon="4.84578">
        <ele>185</ele>
        <time>2022-06-17T14:53:34.000Z</time>
      </trkpt>
      <trkpt lat="49.87126" lon="4.84578">
        <ele>185</ele>
        <time>2022-06-17T14:53:35.000Z</time>
      </trkpt>
      <trkpt lat="49.87122" lon="4.84577">
        <ele>185</ele>
        <time>2022-06-17T14:53:36.000Z</time>
      </trkpt>
      <trkpt lat="49.87117" lon="4.84576">
        <ele>185</ele>
        <time>2022-06-17T14:53:37.000Z</time>
      </trkpt>
      <trkpt lat="49.87112" lon="4.84575">
        <ele>185</ele>
        <time>2022-06-17T14:53:38.000Z</time>
      </trkpt>
      <trkpt lat="49.87106" lon="4.84574">
        <ele>185</ele>
        <time>2022-06-17T14:53:39.000Z</time>
      </trkpt>
      <trkpt lat="49.87101" lon="4.84572">
        <ele>185</ele>
        <time>2022-06-17T14:53:40.000Z</time>
      </trkpt>
      <trkpt lat="49.87096" lon="4.8457">
        <ele>185</ele>
        <time>2022-06-17T14:53:41.000Z</time>
      </trkpt>
      <trkpt lat="49.8709" lon="4.84568">
        <ele>185</ele>
        <time>2022-06-17T14:53:42.000Z</time>
      </trkpt>
      <trkpt lat="49.87085" lon="4.84567">
        <ele>185</ele>
        <time>2022-06-17T14:53:43.000Z</time>
      </trkpt>
      <trkpt lat="49.8708" lon="4.84566">
        <ele>185</ele>
        <time>2022-06-17T14:53:44.000Z</time>
      </trkpt>
      <trkpt lat="49.87074" lon="4.84567">
        <ele>184</ele>
        <time>2022-06-17T14:53:45.000Z</time>
      </trkpt>
      <trkpt lat="49.87069" lon="4.8457">
        <ele>184</ele>
        <time>2022-06-17T14:53:46.000Z</time>
      </trkpt>
      <trkpt lat="49.87065" lon="4.84573">
        <ele>184</ele>
        <time>2022-06-17T14:53:47.000Z</time>
      </trkpt>
      <trkpt lat="49.8706" lon="4.84577">
        <ele>185</ele>
        <time>2022-06-17T14:53:48.000Z</time>
      </trkpt>
      <trkpt lat="49.87056" lon="4.84579">
        <ele>185</ele>
        <time>2022-06-17T14:53:49.000Z</time>
      </trkpt>
      <trkpt lat="49.87052" lon="4.84582">
        <ele>185</ele>
        <time>2022-06-17T14:53:50.000Z</time>
      </trkpt>
      <trkpt lat="49.87048" lon="4.84585">
        <ele>185</ele>
        <time>2022-06-17T14:53:51.000Z</time>
      </trkpt>
      <trkpt lat="49.87042" lon="4.84588">
        <ele>185</ele>
        <time>2022-06-17T14:53:52.000Z</time>
      </trkpt>
      <trkpt lat="49.87036" lon="4.84591">
        <ele>185</ele>
        <time>2022-06-17T14:53:53.000Z</time>
      </trkpt>
      <trkpt lat="49.87029" lon="4.84595">
        <ele>185</ele>
        <time>2022-06-17T14:53:54.000Z</time>
      </trkpt>
      <trkpt lat="49.87023" lon="4.84598">
        <ele>185</ele>
        <time>2022-06-17T14:53:55.000Z</time>
      </trkpt>
      <trkpt lat="49.87017" lon="4.84601">
        <ele>185</ele>
        <time>2022-06-17T14:53:56.000Z</time>
      </trkpt>
      <trkpt lat="49.87011" lon="4.84605">
        <ele>185</ele>
        <time>2022-06-17T14:53:57.000Z</time>
      </trkpt>
      <trkpt lat="49.87005" lon="4.84609">
        <ele>185</ele>
        <time>2022-06-17T14:53:58.000Z</time>
      </trkpt>
      <trkpt lat="49.87001" lon="4.84611">
        <ele>186</ele>
        <time>2022-06-17T14:53:59.000Z</time>
      </trkpt>
      <trkpt lat="49.86996" lon="4.84613">
        <ele>186</ele>
        <time>2022-06-17T14:54:00.000Z</time>
      </trkpt>
      <trkpt lat="49.86991" lon="4.84616">
        <ele>186</ele>
        <time>2022-06-17T14:54:01.000Z</time>
      </trkpt>
      <trkpt lat="49.86987" lon="4.84619">
        <ele>186</ele>
        <time>2022-06-17T14:54:02.000Z</time>
      </trkpt>
      <trkpt lat="49.86982" lon="4.84622">
        <ele>187</ele>
        <time>2022-06-17T14:54:03.000Z</time>
      </trkpt>
      <trkpt lat="49.86977" lon="4.84625">
        <ele>187</ele>
        <time>2022-06-17T14:54:04.000Z</time>
      </trkpt>
      <trkpt lat="49.86972" lon="4.84628">
        <ele>187</ele>
        <time>2022-06-17T14:54:05.000Z</time>
      </trkpt>
      <trkpt lat="49.86967" lon="4.84632">
        <ele>187</ele>
        <time>2022-06-17T14:54:06.000Z</time>
      </trkpt>
      <trkpt lat="49.86961" lon="4.84636">
        <ele>187</ele>
        <time>2022-06-17T14:54:07.000Z</time>
      </trkpt>
      <trkpt lat="49.86957" lon="4.8464">
        <ele>187</ele>
        <time>2022-06-17T14:54:08.000Z</time>
      </trkpt>
      <trkpt lat="49.86951" lon="4.84645">
        <ele>187</ele>
        <time>2022-06-17T14:54:09.000Z</time>
      </trkpt>
      <trkpt lat="49.86946" lon="4.8465">
        <ele>187</ele>
        <time>2022-06-17T14:54:10.000Z</time>
      </trkpt>
      <trkpt lat="49.8694" lon="4.84655">
        <ele>187</ele>
        <time>2022-06-17T14:54:11.000Z</time>
      </trkpt>
      <trkpt lat="49.86934" lon="4.84661">
        <ele>186</ele>
        <time>2022-06-17T14:54:12.000Z</time>
      </trkpt>
      <trkpt lat="49.86928" lon="4.84667">
        <ele>186</ele>
        <time>2022-06-17T14:54:13.000Z</time>
      </trkpt>
      <trkpt lat="49.86921" lon="4.84674">
        <ele>186</ele>
        <time>2022-06-17T14:54:14.000Z</time>
      </trkpt>
      <trkpt lat="49.86915" lon="4.8468">
        <ele>186</ele>
        <time>2022-06-17T14:54:15.000Z</time>
      </trkpt>
      <trkpt lat="49.86909" lon="4.84687">
        <ele>185</ele>
        <time>2022-06-17T14:54:16.000Z</time>
      </trkpt>
      <trkpt lat="49.86903" lon="4.84695">
        <ele>185</ele>
        <time>2022-06-17T14:54:17.000Z</time>
      </trkpt>
      <trkpt lat="49.86897" lon="4.84702">
        <ele>185</ele>
        <time>2022-06-17T14:54:18.000Z</time>
      </trkpt>
      <trkpt lat="49.8689" lon="4.8471">
        <ele>184</ele>
        <time>2022-06-17T14:54:19.000Z</time>
      </trkpt>
      <trkpt lat="49.86884" lon="4.84718">
        <ele>184</ele>
        <time>2022-06-17T14:54:20.000Z</time>
      </trkpt>
      <trkpt lat="49.86878" lon="4.84725">
        <ele>184</ele>
        <time>2022-06-17T14:54:21.000Z</time>
      </trkpt>
      <trkpt lat="49.86872" lon="4.84733">
        <ele>183</ele>
        <time>2022-06-17T14:54:22.000Z</time>
      </trkpt>
      <trkpt lat="49.86866" lon="4.84741">
        <ele>183</ele>
        <time>2022-06-17T14:54:23.000Z</time>
      </trkpt>
      <trkpt lat="49.8686" lon="4.84747">
        <ele>183</ele>
        <time>2022-06-17T14:54:24.000Z</time>
      </trkpt>
      <trkpt lat="49.86853" lon="4.84753">
        <ele>183</ele>
        <time>2022-06-17T14:54:25.000Z</time>
      </trkpt>
      <trkpt lat="49.86846" lon="4.84757">
        <ele>183</ele>
        <time>2022-06-17T14:54:26.000Z</time>
      </trkpt>
      <trkpt lat="49.86838" lon="4.84759">
        <ele>182</ele>
        <time>2022-06-17T14:54:27.000Z</time>
      </trkpt>
      <trkpt lat="49.86829" lon="4.8476">
        <ele>182</ele>
        <time>2022-06-17T14:54:28.000Z</time>
      </trkpt>
      <trkpt lat="49.86821" lon="4.84759">
        <ele>182</ele>
        <time>2022-06-17T14:54:29.000Z</time>
      </trkpt>
      <trkpt lat="49.86812" lon="4.84758">
        <ele>182</ele>
        <time>2022-06-17T14:54:30.000Z</time>
      </trkpt>
      <trkpt lat="49.86804" lon="4.84759">
        <ele>182</ele>
        <time>2022-06-17T14:54:31.000Z</time>
      </trkpt>
      <trkpt lat="49.86795" lon="4.84761">
        <ele>182</ele>
        <time>2022-06-17T14:54:32.000Z</time>
      </trkpt>
      <trkpt lat="49.86787" lon="4.84764">
        <ele>182</ele>
        <time>2022-06-17T14:54:33.000Z</time>
      </trkpt>
      <trkpt lat="49.86779" lon="4.84768">
        <ele>182</ele>
        <time>2022-06-17T14:54:34.000Z</time>
      </trkpt>
      <trkpt lat="49.86772" lon="4.84772">
        <ele>182</ele>
        <time>2022-06-17T14:54:35.000Z</time>
      </trkpt>
      <trkpt lat="49.86764" lon="4.84777">
        <ele>182</ele>
        <time>2022-06-17T14:54:36.000Z</time>
      </trkpt>
      <trkpt lat="49.86758" lon="4.84783">
        <ele>182</ele>
        <time>2022-06-17T14:54:37.000Z</time>
      </trkpt>
      <trkpt lat="49.86751" lon="4.84789">
        <ele>182</ele>
        <time>2022-06-17T14:54:38.000Z</time>
      </trkpt>
      <trkpt lat="49.86745" lon="4.84796">
        <ele>181</ele>
        <time>2022-06-17T14:54:39.000Z</time>
      </trkpt>
      <trkpt lat="49.86739" lon="4.84802">
        <ele>181</ele>
        <time>2022-06-17T14:54:40.000Z</time>
      </trkpt>
      <trkpt lat="49.86733" lon="4.84807">
        <ele>181</ele>
        <time>2022-06-17T14:54:41.000Z</time>
      </trkpt>
      <trkpt lat="49.86727" lon="4.84812">
        <ele>181</ele>
        <time>2022-06-17T14:54:42.000Z</time>
      </trkpt>
      <trkpt lat="49.86721" lon="4.84816">
        <ele>181</ele>
        <time>2022-06-17T14:54:43.000Z</time>
      </trkpt>
      <trkpt lat="49.86714" lon="4.8482">
        <ele>181</ele>
        <time>2022-06-17T14:54:44.000Z</time>
      </trkpt>
      <trkpt lat="49.86707" lon="4.84822">
        <ele>180</ele>
        <time>2022-06-17T14:54:45.000Z</time>
      </trkpt>
      <trkpt lat="49.86701" lon="4.84824">
        <ele>180</ele>
        <time>2022-06-17T14:54:46.000Z</time>
      </trkpt>
      <trkpt lat="49.86696" lon="4.84827">
        <ele>180</ele>
        <time>2022-06-17T14:54:47.000Z</time>
      </trkpt>
      <trkpt lat="49.86692" lon="4.84832">
        <ele>180</ele>
        <time>2022-06-17T14:54:48.000Z</time>
      </trkpt>
      <trkpt lat="49.86689" lon="4.84839">
        <ele>180</ele>
        <time>2022-06-17T14:54:49.000Z</time>
      </trkpt>
      <trkpt lat="49.86687" lon="4.84848">
        <ele>179</ele>
        <time>2022-06-17T14:54:50.000Z</time>
      </trkpt>
      <trkpt lat="49.86685" lon="4.84856">
        <ele>179</ele>
        <time>2022-06-17T14:54:51.000Z</time>
      </trkpt>
      <trkpt lat="49.86684" lon="4.84863">
        <ele>179</ele>
        <time>2022-06-17T14:54:52.000Z</time>
      </trkpt>
      <trkpt lat="49.86682" lon="4.84869">
        <ele>179</ele>
        <time>2022-06-17T14:54:53.000Z</time>
      </trkpt>
      <trkpt lat="49.86681" lon="4.84873">
        <ele>179</ele>
        <time>2022-06-17T14:54:54.000Z</time>
      </trkpt>
      <trkpt lat="49.86679" lon="4.84876">
        <ele>179</ele>
        <time>2022-06-17T14:54:55.000Z</time>
      </trkpt>
      <trkpt lat="49.86677" lon="4.84879">
        <ele>179</ele>
        <time>2022-06-17T14:54:56.000Z</time>
      </trkpt>
      <trkpt lat="49.86676" lon="4.84883">
        <ele>179</ele>
        <time>2022-06-17T14:54:57.000Z</time>
      </trkpt>
      <trkpt lat="49.86673" lon="4.84888">
        <ele>179</ele>
        <time>2022-06-17T14:54:58.000Z</time>
      </trkpt>
      <trkpt lat="49.86671" lon="4.84893">
        <ele>179</ele>
        <time>2022-06-17T14:54:59.000Z</time>
      </trkpt>
      <trkpt lat="49.86668" lon="4.84898">
        <ele>179</ele>
        <time>2022-06-17T14:55:00.000Z</time>
      </trkpt>
      <trkpt lat="49.86664" lon="4.84904">
        <ele>178</ele>
        <time>2022-06-17T14:55:01.000Z</time>
      </trkpt>
      <trkpt lat="49.86661" lon="4.84909">
        <ele>178</ele>
        <time>2022-06-17T14:55:02.000Z</time>
      </trkpt>
      <trkpt lat="49.86657" lon="4.84915">
        <ele>178</ele>
        <time>2022-06-17T14:55:03.000Z</time>
      </trkpt>
      <trkpt lat="49.86653" lon="4.84922">
        <ele>178</ele>
        <time>2022-06-17T14:55:04.000Z</time>
      </trkpt>
      <trkpt lat="49.86649" lon="4.84928">
        <ele>178</ele>
        <time>2022-06-17T14:55:05.000Z</time>
      </trkpt>
      <trkpt lat="49.86645" lon="4.84936">
        <ele>178</ele>
        <time>2022-06-17T14:55:06.000Z</time>
      </trkpt>
      <trkpt lat="49.86641" lon="4.84943">
        <ele>178</ele>
        <time>2022-06-17T14:55:07.000Z</time>
      </trkpt>
      <trkpt lat="49.86637" lon="4.84952">
        <ele>178</ele>
        <time>2022-06-17T14:55:08.000Z</time>
      </trkpt>
      <trkpt lat="49.86633" lon="4.8496">
        <ele>179</ele>
        <time>2022-06-17T14:55:09.000Z</time>
      </trkpt>
      <trkpt lat="49.86628" lon="4.84967">
        <ele>179</ele>
        <time>2022-06-17T14:55:10.000Z</time>
      </trkpt>
      <trkpt lat="49.86625" lon="4.84974">
        <ele>179</ele>
        <time>2022-06-17T14:55:11.000Z</time>
      </trkpt>
      <trkpt lat="49.8662" lon="4.8498">
        <ele>179</ele>
        <time>2022-06-17T14:55:12.000Z</time>
      </trkpt>
      <trkpt lat="49.86615" lon="4.84986">
        <ele>179</ele>
        <time>2022-06-17T14:55:13.000Z</time>
      </trkpt>
      <trkpt lat="49.86608" lon="4.84991">
        <ele>179</ele>
        <time>2022-06-17T14:55:14.000Z</time>
      </trkpt>
      <trkpt lat="49.866" lon="4.84996">
        <ele>179</ele>
        <time>2022-06-17T14:55:15.000Z</time>
      </trkpt>
      <trkpt lat="49.86594" lon="4.85001">
        <ele>179</ele>
        <time>2022-06-17T14:55:16.000Z</time>
      </trkpt>
      <trkpt lat="49.86588" lon="4.85005">
        <ele>178</ele>
        <time>2022-06-17T14:55:17.000Z</time>
      </trkpt>
      <trkpt lat="49.86583" lon="4.8501">
        <ele>178</ele>
        <time>2022-06-17T14:55:18.000Z</time>
      </trkpt>
      <trkpt lat="49.86579" lon="4.85015">
        <ele>178</ele>
        <time>2022-06-17T14:55:19.000Z</time>
      </trkpt>
      <trkpt lat="49.86575" lon="4.85021">
        <ele>178</ele>
        <time>2022-06-17T14:55:20.000Z</time>
      </trkpt>
      <trkpt lat="49.86572" lon="4.85028">
        <ele>178</ele>
        <time>2022-06-17T14:55:21.000Z</time>
      </trkpt>
      <trkpt lat="49.86569" lon="4.85035">
        <ele>178</ele>
        <time>2022-06-17T14:55:22.000Z</time>
      </trkpt>
      <trkpt lat="49.86565" lon="4.85042">
        <ele>178</ele>
        <time>2022-06-17T14:55:23.000Z</time>
      </trkpt>
      <trkpt lat="49.86562" lon="4.85049">
        <ele>178</ele>
        <time>2022-06-17T14:55:24.000Z</time>
      </trkpt>
      <trkpt lat="49.86558" lon="4.85056">
        <ele>178</ele>
        <time>2022-06-17T14:55:25.000Z</time>
      </trkpt>
      <trkpt lat="49.86555" lon="4.85062">
        <ele>177</ele>
        <time>2022-06-17T14:55:26.000Z</time>
      </trkpt>
      <trkpt lat="49.86552" lon="4.85067">
        <ele>177</ele>
        <time>2022-06-17T14:55:27.000Z</time>
      </trkpt>
      <trkpt lat="49.86549" lon="4.85071">
        <ele>177</ele>
        <time>2022-06-17T14:55:28.000Z</time>
      </trkpt>
      <trkpt lat="49.86545" lon="4.85074">
        <ele>177</ele>
        <time>2022-06-17T14:55:29.000Z</time>
      </trkpt>
      <trkpt lat="49.86541" lon="4.85078">
        <ele>177</ele>
        <time>2022-06-17T14:55:30.000Z</time>
      </trkpt>
      <trkpt lat="49.86536" lon="4.85084">
        <ele>177</ele>
        <time>2022-06-17T14:55:31.000Z</time>
      </trkpt>
      <trkpt lat="49.8653" lon="4.85088">
        <ele>177</ele>
        <time>2022-06-17T14:55:32.000Z</time>
      </trkpt>
      <trkpt lat="49.86524" lon="4.85092">
        <ele>177</ele>
        <time>2022-06-17T14:55:33.000Z</time>
      </trkpt>
      <trkpt lat="49.86517" lon="4.85094">
        <ele>176</ele>
        <time>2022-06-17T14:55:34.000Z</time>
      </trkpt>
      <trkpt lat="49.8651" lon="4.85094">
        <ele>176</ele>
        <time>2022-06-17T14:55:35.000Z</time>
      </trkpt>
      <trkpt lat="49.86503" lon="4.85094">
        <ele>176</ele>
        <time>2022-06-17T14:55:36.000Z</time>
      </trkpt>
      <trkpt lat="49.86497" lon="4.85094">
        <ele>176</ele>
        <time>2022-06-17T14:55:37.000Z</time>
      </trkpt>
      <trkpt lat="49.86491" lon="4.85094">
        <ele>176</ele>
        <time>2022-06-17T14:55:38.000Z</time>
      </trkpt>
      <trkpt lat="49.86486" lon="4.85095">
        <ele>176</ele>
        <time>2022-06-17T14:55:39.000Z</time>
      </trkpt>
      <trkpt lat="49.86481" lon="4.85097">
        <ele>176</ele>
        <time>2022-06-17T14:55:40.000Z</time>
      </trkpt>
      <trkpt lat="49.86476" lon="4.85099">
        <ele>176</ele>
        <time>2022-06-17T14:55:41.000Z</time>
      </trkpt>
      <trkpt lat="49.86471" lon="4.851">
        <ele>176</ele>
        <time>2022-06-17T14:55:42.000Z</time>
      </trkpt>
      <trkpt lat="49.86466" lon="4.85101">
        <ele>176</ele>
        <time>2022-06-17T14:55:43.000Z</time>
      </trkpt>
      <trkpt lat="49.86461" lon="4.85104">
        <ele>176</ele>
        <time>2022-06-17T14:55:44.000Z</time>
      </trkpt>
      <trkpt lat="49.86457" lon="4.85106">
        <ele>176</ele>
        <time>2022-06-17T14:55:45.000Z</time>
      </trkpt>
      <trkpt lat="49.86454" lon="4.85107">
        <ele>176</ele>
        <time>2022-06-17T14:55:46.000Z</time>
      </trkpt>
      <trkpt lat="49.86451" lon="4.85109">
        <ele>176</ele>
        <time>2022-06-17T14:55:47.000Z</time>
      </trkpt>
      <trkpt lat="49.86447" lon="4.85112">
        <ele>176</ele>
        <time>2022-06-17T14:55:48.000Z</time>
      </trkpt>
      <trkpt lat="49.86444" lon="4.85113">
        <ele>176</ele>
        <time>2022-06-17T14:55:49.000Z</time>
      </trkpt>
      <trkpt lat="49.86442" lon="4.85115">
        <ele>176</ele>
        <time>2022-06-17T14:55:50.000Z</time>
      </trkpt>
      <trkpt lat="49.86442" lon="4.85117">
        <ele>176</ele>
        <time>2022-06-17T14:55:51.000Z</time>
      </trkpt>
      <trkpt lat="49.86443" lon="4.85118">
        <ele>176</ele>
        <time>2022-06-17T14:55:52.000Z</time>
      </trkpt>
      <trkpt lat="49.86444" lon="4.85117">
        <ele>177</ele>
        <time>2022-06-17T14:55:53.000Z</time>
      </trkpt>
      <trkpt lat="49.86445" lon="4.85117">
        <ele>177</ele>
        <time>2022-06-17T14:55:54.000Z</time>
      </trkpt>
      <trkpt lat="49.86447" lon="4.85115">
        <ele>177</ele>
        <time>2022-06-17T14:55:55.000Z</time>
      </trkpt>
      <trkpt lat="49.86449" lon="4.85114">
        <ele>177</ele>
        <time>2022-06-17T14:55:56.000Z</time>
      </trkpt>
      <trkpt lat="49.86452" lon="4.85113">
        <ele>177</ele>
        <time>2022-06-17T14:55:57.000Z</time>
      </trkpt>
      <trkpt lat="49.86456" lon="4.85113">
        <ele>178</ele>
        <time>2022-06-17T14:55:58.000Z</time>
      </trkpt>
      <trkpt lat="49.8646" lon="4.85111">
        <ele>178</ele>
        <time>2022-06-17T14:55:59.000Z</time>
      </trkpt>
      <trkpt lat="49.86464" lon="4.8511">
        <ele>178</ele>
        <time>2022-06-17T14:56:00.000Z</time>
      </trkpt>
      <trkpt lat="49.86469" lon="4.85109">
        <ele>178</ele>
        <time>2022-06-17T14:56:01.000Z</time>
      </trkpt>
      <trkpt lat="49.86475" lon="4.85109">
        <ele>178</ele>
        <time>2022-06-17T14:56:02.000Z</time>
      </trkpt>
      <trkpt lat="49.86481" lon="4.85108">
        <ele>179</ele>
        <time>2022-06-17T14:56:03.000Z</time>
      </trkpt>
      <trkpt lat="49.86487" lon="4.85108">
        <ele>179</ele>
        <time>2022-06-17T14:56:04.000Z</time>
      </trkpt>
      <trkpt lat="49.86492" lon="4.85108">
        <ele>179</ele>
        <time>2022-06-17T14:56:05.000Z</time>
      </trkpt>
      <trkpt lat="49.86497" lon="4.85109">
        <ele>179</ele>
        <time>2022-06-17T14:56:06.000Z</time>
      </trkpt>
      <trkpt lat="49.86501" lon="4.85108">
        <ele>180</ele>
        <time>2022-06-17T14:56:07.000Z</time>
      </trkpt>
      <trkpt lat="49.86505" lon="4.85108">
        <ele>180</ele>
        <time>2022-06-17T14:56:08.000Z</time>
      </trkpt>
      <trkpt lat="49.86508" lon="4.85107">
        <ele>180</ele>
        <time>2022-06-17T14:56:09.000Z</time>
      </trkpt>
      <trkpt lat="49.86511" lon="4.85106">
        <ele>180</ele>
        <time>2022-06-17T14:56:10.000Z</time>
      </trkpt>
      <trkpt lat="49.86514" lon="4.85106">
        <ele>180</ele>
        <time>2022-06-17T14:56:11.000Z</time>
      </trkpt>
      <trkpt lat="49.86517" lon="4.85105">
        <ele>180</ele>
        <time>2022-06-17T14:56:12.000Z</time>
      </trkpt>
      <trkpt lat="49.86519" lon="4.85102">
        <ele>180</ele>
        <time>2022-06-17T14:56:13.000Z</time>
      </trkpt>
      <trkpt lat="49.86521" lon="4.851">
        <ele>180</ele>
        <time>2022-06-17T14:56:14.000Z</time>
      </trkpt>
      <trkpt lat="49.86524" lon="4.85097">
        <ele>180</ele>
        <time>2022-06-17T14:56:15.000Z</time>
      </trkpt>
      <trkpt lat="49.86527" lon="4.85096">
        <ele>180</ele>
        <time>2022-06-17T14:56:16.000Z</time>
      </trkpt>
      <trkpt lat="49.8653" lon="4.85094">
        <ele>180</ele>
        <time>2022-06-17T14:56:17.000Z</time>
      </trkpt>
      <trkpt lat="49.86533" lon="4.85092">
        <ele>180</ele>
        <time>2022-06-17T14:56:18.000Z</time>
      </trkpt>
      <trkpt lat="49.86535" lon="4.85089">
        <ele>180</ele>
        <time>2022-06-17T14:56:19.000Z</time>
      </trkpt>
      <trkpt lat="49.86538" lon="4.85087">
        <ele>180</ele>
        <time>2022-06-17T14:56:20.000Z</time>
      </trkpt>
      <trkpt lat="49.86541" lon="4.85084">
        <ele>180</ele>
        <time>2022-06-17T14:56:21.000Z</time>
      </trkpt>
      <trkpt lat="49.86543" lon="4.85083">
        <ele>180</ele>
        <time>2022-06-17T14:56:22.000Z</time>
      </trkpt>
      <trkpt lat="49.86545" lon="4.8508">
        <ele>180</ele>
        <time>2022-06-17T14:56:23.000Z</time>
      </trkpt>
      <trkpt lat="49.86548" lon="4.85078">
        <ele>180</ele>
        <time>2022-06-17T14:56:24.000Z</time>
      </trkpt>
      <trkpt lat="49.8655" lon="4.85075">
        <ele>180</ele>
        <time>2022-06-17T14:56:25.000Z</time>
      </trkpt>
      <trkpt lat="49.86552" lon="4.85072">
        <ele>180</ele>
        <time>2022-06-17T14:56:26.000Z</time>
      </trkpt>
      <trkpt lat="49.86554" lon="4.85069">
        <ele>180</ele>
        <time>2022-06-17T14:56:27.000Z</time>
      </trkpt>
      <trkpt lat="49.86556" lon="4.85065">
        <ele>180</ele>
        <time>2022-06-17T14:56:28.000Z</time>
      </trkpt>
      <trkpt lat="49.86557" lon="4.85061">
        <ele>180</ele>
        <time>2022-06-17T14:56:29.000Z</time>
      </trkpt>
      <trkpt lat="49.86559" lon="4.85058">
        <ele>180</ele>
        <time>2022-06-17T14:56:30.000Z</time>
      </trkpt>
      <trkpt lat="49.86561" lon="4.85055">
        <ele>180</ele>
        <time>2022-06-17T14:56:31.000Z</time>
      </trkpt>
      <trkpt lat="49.86562" lon="4.85051">
        <ele>180</ele>
        <time>2022-06-17T14:56:32.000Z</time>
      </trkpt>
      <trkpt lat="49.86564" lon="4.85048">
        <ele>180</ele>
        <time>2022-06-17T14:56:33.000Z</time>
      </trkpt>
      <trkpt lat="49.86566" lon="4.85045">
        <ele>180</ele>
        <time>2022-06-17T14:56:34.000Z</time>
      </trkpt>
      <trkpt lat="49.86567" lon="4.85041">
        <ele>180</ele>
        <time>2022-06-17T14:56:35.000Z</time>
      </trkpt>
      <trkpt lat="49.86569" lon="4.85038">
        <ele>179</ele>
        <time>2022-06-17T14:56:36.000Z</time>
      </trkpt>
      <trkpt lat="49.8657" lon="4.85034">
        <ele>179</ele>
        <time>2022-06-17T14:56:37.000Z</time>
      </trkpt>
      <trkpt lat="49.86572" lon="4.85031">
        <ele>179</ele>
        <time>2022-06-17T14:56:38.000Z</time>
      </trkpt>
      <trkpt lat="49.86573" lon="4.85027">
        <ele>179</ele>
        <time>2022-06-17T14:56:39.000Z</time>
      </trkpt>
      <trkpt lat="49.86573" lon="4.85024">
        <ele>178</ele>
        <time>2022-06-17T14:56:40.000Z</time>
      </trkpt>
      <trkpt lat="49.86573" lon="4.85022">
        <ele>178</ele>
        <time>2022-06-17T14:56:41.000Z</time>
      </trkpt>
      <trkpt lat="49.86573" lon="4.8502">
        <ele>178</ele>
        <time>2022-06-17T14:56:42.000Z</time>
      </trkpt>
      <trkpt lat="49.86572" lon="4.8502">
        <ele>178</ele>
        <time>2022-06-17T14:56:43.000Z</time>
      </trkpt>
      <trkpt lat="49.8657" lon="4.85019">
        <ele>178</ele>
        <time>2022-06-17T14:56:44.000Z</time>
      </trkpt>
      <trkpt lat="49.86568" lon="4.85019">
        <ele>178</ele>
        <time>2022-06-17T14:56:45.000Z</time>
      </trkpt>
      <trkpt lat="49.86567" lon="4.85019">
        <ele>178</ele>
        <time>2022-06-17T14:56:46.000Z</time>
      </trkpt>
      <trkpt lat="49.86565" lon="4.8502">
        <ele>178</ele>
        <time>2022-06-17T14:56:47.000Z</time>
      </trkpt>
      <trkpt lat="49.86563" lon="4.85021">
        <ele>178</ele>
        <time>2022-06-17T14:56:48.000Z</time>
      </trkpt>
      <trkpt lat="49.86561" lon="4.85022">
        <ele>179</ele>
        <time>2022-06-17T14:56:49.000Z</time>
      </trkpt>
      <trkpt lat="49.86559" lon="4.85023">
        <ele>179</ele>
        <time>2022-06-17T14:56:50.000Z</time>
      </trkpt>
      <trkpt lat="49.86557" lon="4.85025">
        <ele>179</ele>
        <time>2022-06-17T14:56:51.000Z</time>
      </trkpt>
      <trkpt lat="49.86554" lon="4.85027">
        <ele>179</ele>
        <time>2022-06-17T14:56:52.000Z</time>
      </trkpt>
      <trkpt lat="49.86552" lon="4.85029">
        <ele>180</ele>
        <time>2022-06-17T14:56:53.000Z</time>
      </trkpt>
      <trkpt lat="49.86549" lon="4.8503">
        <ele>180</ele>
        <time>2022-06-17T14:56:54.000Z</time>
      </trkpt>
      <trkpt lat="49.86547" lon="4.85032">
        <ele>180</ele>
        <time>2022-06-17T14:56:55.000Z</time>
      </trkpt>
      <trkpt lat="49.86544" lon="4.85034">
        <ele>180</ele>
        <time>2022-06-17T14:56:56.000Z</time>
      </trkpt>
      <trkpt lat="49.86541" lon="4.85035">
        <ele>180</ele>
        <time>2022-06-17T14:56:57.000Z</time>
      </trkpt>
      <trkpt lat="49.86538" lon="4.85037">
        <ele>180</ele>
        <time>2022-06-17T14:56:58.000Z</time>
      </trkpt>
      <trkpt lat="49.86534" lon="4.85039">
        <ele>181</ele>
        <time>2022-06-17T14:56:59.000Z</time>
      </trkpt>
      <trkpt lat="49.8653" lon="4.8504">
        <ele>181</ele>
        <time>2022-06-17T14:57:00.000Z</time>
      </trkpt>
      <trkpt lat="49.86526" lon="4.85041">
        <ele>181</ele>
        <time>2022-06-17T14:57:01.000Z</time>
      </trkpt>
      <trkpt lat="49.86521" lon="4.85042">
        <ele>181</ele>
        <time>2022-06-17T14:57:02.000Z</time>
      </trkpt>
      <trkpt lat="49.86517" lon="4.85043">
        <ele>181</ele>
        <time>2022-06-17T14:57:03.000Z</time>
      </trkpt>
      <trkpt lat="49.86513" lon="4.85044">
        <ele>181</ele>
        <time>2022-06-17T14:57:04.000Z</time>
      </trkpt>
      <trkpt lat="49.86509" lon="4.85044">
        <ele>181</ele>
        <time>2022-06-17T14:57:05.000Z</time>
      </trkpt>
      <trkpt lat="49.86504" lon="4.85046">
        <ele>181</ele>
        <time>2022-06-17T14:57:06.000Z</time>
      </trkpt>
      <trkpt lat="49.86501" lon="4.85047">
        <ele>181</ele>
        <time>2022-06-17T14:57:07.000Z</time>
      </trkpt>
      <trkpt lat="49.86497" lon="4.85048">
        <ele>181</ele>
        <time>2022-06-17T14:57:08.000Z</time>
      </trkpt>
      <trkpt lat="49.86492" lon="4.85048">
        <ele>181</ele>
        <time>2022-06-17T14:57:09.000Z</time>
      </trkpt>
      <trkpt lat="49.86488" lon="4.85049">
        <ele>181</ele>
        <time>2022-06-17T14:57:10.000Z</time>
      </trkpt>
      <trkpt lat="49.86484" lon="4.8505">
        <ele>181</ele>
        <time>2022-06-17T14:57:11.000Z</time>
      </trkpt>
      <trkpt lat="49.86479" lon="4.85051">
        <ele>181</ele>
        <time>2022-06-17T14:57:12.000Z</time>
      </trkpt>
      <trkpt lat="49.86476" lon="4.85052">
        <ele>181</ele>
        <time>2022-06-17T14:57:13.000Z</time>
      </trkpt>
      <trkpt lat="49.86472" lon="4.85052">
        <ele>181</ele>
        <time>2022-06-17T14:57:14.000Z</time>
      </trkpt>
      <trkpt lat="49.86468" lon="4.85052">
        <ele>182</ele>
        <time>2022-06-17T14:57:15.000Z</time>
      </trkpt>
      <trkpt lat="49.86464" lon="4.85053">
        <ele>182</ele>
        <time>2022-06-17T14:57:16.000Z</time>
      </trkpt>
      <trkpt lat="49.86459" lon="4.85054">
        <ele>182</ele>
        <time>2022-06-17T14:57:17.000Z</time>
      </trkpt>
      <trkpt lat="49.86456" lon="4.85055">
        <ele>182</ele>
        <time>2022-06-17T14:57:18.000Z</time>
      </trkpt>
      <trkpt lat="49.86453" lon="4.85056">
        <ele>181</ele>
        <time>2022-06-17T14:57:19.000Z</time>
      </trkpt>
      <trkpt lat="49.86449" lon="4.85057">
        <ele>181</ele>
        <time>2022-06-17T14:57:20.000Z</time>
      </trkpt>
      <trkpt lat="49.86446" lon="4.85057">
        <ele>182</ele>
        <time>2022-06-17T14:57:21.000Z</time>
      </trkpt>
      <trkpt lat="49.86444" lon="4.85058">
        <ele>182</ele>
        <time>2022-06-17T14:57:22.000Z</time>
      </trkpt>
      <trkpt lat="49.86441" lon="4.85059">
        <ele>182</ele>
        <time>2022-06-17T14:57:23.000Z</time>
      </trkpt>
      <trkpt lat="49.86438" lon="4.85059">
        <ele>182</ele>
        <time>2022-06-17T14:57:24.000Z</time>
      </trkpt>
      <trkpt lat="49.86434" lon="4.8506">
        <ele>182</ele>
        <time>2022-06-17T14:57:25.000Z</time>
      </trkpt>
      <trkpt lat="49.86431" lon="4.85061">
        <ele>182</ele>
        <time>2022-06-17T14:57:26.000Z</time>
      </trkpt>
      <trkpt lat="49.86427" lon="4.85063">
        <ele>182</ele>
        <time>2022-06-17T14:57:27.000Z</time>
      </trkpt>
      <trkpt lat="49.86423" lon="4.85064">
        <ele>182</ele>
        <time>2022-06-17T14:57:28.000Z</time>
      </trkpt>
      <trkpt lat="49.86418" lon="4.85065">
        <ele>182</ele>
        <time>2022-06-17T14:57:29.000Z</time>
      </trkpt>
      <trkpt lat="49.86414" lon="4.85067">
        <ele>181</ele>
        <time>2022-06-17T14:57:30.000Z</time>
      </trkpt>
      <trkpt lat="49.86409" lon="4.8507">
        <ele>181</ele>
        <time>2022-06-17T14:57:31.000Z</time>
      </trkpt>
      <trkpt lat="49.86404" lon="4.85071">
        <ele>181</ele>
        <time>2022-06-17T14:57:32.000Z</time>
      </trkpt>
      <trkpt lat="49.86399" lon="4.85072">
        <ele>181</ele>
        <time>2022-06-17T14:57:33.000Z</time>
      </trkpt>
      <trkpt lat="49.86393" lon="4.85074">
        <ele>181</ele>
        <time>2022-06-17T14:57:34.000Z</time>
      </trkpt>
      <trkpt lat="49.86388" lon="4.85076">
        <ele>181</ele>
        <time>2022-06-17T14:57:35.000Z</time>
      </trkpt>
      <trkpt lat="49.86382" lon="4.85079">
        <ele>181</ele>
        <time>2022-06-17T14:57:36.000Z</time>
      </trkpt>
      <trkpt lat="49.86375" lon="4.85081">
        <ele>181</ele>
        <time>2022-06-17T14:57:37.000Z</time>
      </trkpt>
      <trkpt lat="49.86369" lon="4.85083">
        <ele>180</ele>
        <time>2022-06-17T14:57:38.000Z</time>
      </trkpt>
      <trkpt lat="49.86363" lon="4.85087">
        <ele>180</ele>
        <time>2022-06-17T14:57:39.000Z</time>
      </trkpt>
      <trkpt lat="49.86357" lon="4.85089">
        <ele>180</ele>
        <time>2022-06-17T14:57:40.000Z</time>
      </trkpt>
      <trkpt lat="49.86351" lon="4.85091">
        <ele>180</ele>
        <time>2022-06-17T14:57:41.000Z</time>
      </trkpt>
      <trkpt lat="49.86346" lon="4.85093">
        <ele>180</ele>
        <time>2022-06-17T14:57:42.000Z</time>
      </trkpt>
      <trkpt lat="49.86341" lon="4.85095">
        <ele>180</ele>
        <time>2022-06-17T14:57:43.000Z</time>
      </trkpt>
      <trkpt lat="49.86336" lon="4.85097">
        <ele>180</ele>
        <time>2022-06-17T14:57:44.000Z</time>
      </trkpt>
      <trkpt lat="49.86332" lon="4.85099">
        <ele>179</ele>
        <time>2022-06-17T14:57:45.000Z</time>
      </trkpt>
      <trkpt lat="49.86327" lon="4.85101">
        <ele>179</ele>
        <time>2022-06-17T14:57:46.000Z</time>
      </trkpt>
      <trkpt lat="49.86323" lon="4.85103">
        <ele>179</ele>
        <time>2022-06-17T14:57:47.000Z</time>
      </trkpt>
      <trkpt lat="49.8632" lon="4.85105">
        <ele>179</ele>
        <time>2022-06-17T14:57:48.000Z</time>
      </trkpt>
      <trkpt lat="49.86317" lon="4.85106">
        <ele>179</ele>
        <time>2022-06-17T14:57:49.000Z</time>
      </trkpt>
      <trkpt lat="49.86313" lon="4.85107">
        <ele>179</ele>
        <time>2022-06-17T14:57:50.000Z</time>
      </trkpt>
      <trkpt lat="49.8631" lon="4.85108">
        <ele>179</ele>
        <time>2022-06-17T14:57:51.000Z</time>
      </trkpt>
      <trkpt lat="49.86307" lon="4.85109">
        <ele>179</ele>
        <time>2022-06-17T14:57:52.000Z</time>
      </trkpt>
      <trkpt lat="49.86303" lon="4.8511">
        <ele>179</ele>
        <time>2022-06-17T14:57:53.000Z</time>
      </trkpt>
      <trkpt lat="49.86299" lon="4.85111">
        <ele>179</ele>
        <time>2022-06-17T14:57:54.000Z</time>
      </trkpt>
      <trkpt lat="49.86295" lon="4.85112">
        <ele>179</ele>
        <time>2022-06-17T14:57:55.000Z</time>
      </trkpt>
      <trkpt lat="49.86291" lon="4.85112">
        <ele>179</ele>
        <time>2022-06-17T14:57:56.000Z</time>
      </trkpt>
      <trkpt lat="49.86287" lon="4.85112">
        <ele>179</ele>
        <time>2022-06-17T14:57:57.000Z</time>
      </trkpt>
      <trkpt lat="49.86282" lon="4.85112">
        <ele>179</ele>
        <time>2022-06-17T14:57:58.000Z</time>
      </trkpt>
      <trkpt lat="49.86278" lon="4.85113">
        <ele>179</ele>
        <time>2022-06-17T14:57:59.000Z</time>
      </trkpt>
      <trkpt lat="49.86274" lon="4.85114">
        <ele>179</ele>
        <time>2022-06-17T14:58:00.000Z</time>
      </trkpt>
      <trkpt lat="49.86269" lon="4.85113">
        <ele>179</ele>
        <time>2022-06-17T14:58:01.000Z</time>
      </trkpt>
      <trkpt lat="49.86265" lon="4.85113">
        <ele>180</ele>
        <time>2022-06-17T14:58:02.000Z</time>
      </trkpt>
      <trkpt lat="49.86261" lon="4.85113">
        <ele>180</ele>
        <time>2022-06-17T14:58:03.000Z</time>
      </trkpt>
      <trkpt lat="49.86257" lon="4.85113">
        <ele>180</ele>
        <time>2022-06-17T14:58:04.000Z</time>
      </trkpt>
      <trkpt lat="49.86253" lon="4.85113">
        <ele>180</ele>
        <time>2022-06-17T14:58:05.000Z</time>
      </trkpt>
      <trkpt lat="49.86249" lon="4.85113">
        <ele>180</ele>
        <time>2022-06-17T14:58:06.000Z</time>
      </trkpt>
      <trkpt lat="49.86246" lon="4.85113">
        <ele>180</ele>
        <time>2022-06-17T14:58:07.000Z</time>
      </trkpt>
      <trkpt lat="49.86243" lon="4.85112">
        <ele>180</ele>
        <time>2022-06-17T14:58:08.000Z</time>
      </trkpt>
      <trkpt lat="49.8624" lon="4.85112">
        <ele>180</ele>
        <time>2022-06-17T14:58:09.000Z</time>
      </trkpt>
      <trkpt lat="49.86236" lon="4.85112">
        <ele>181</ele>
        <time>2022-06-17T14:58:10.000Z</time>
      </trkpt>
      <trkpt lat="49.86233" lon="4.85112">
        <ele>181</ele>
        <time>2022-06-17T14:58:11.000Z</time>
      </trkpt>
      <trkpt lat="49.8623" lon="4.85111">
        <ele>181</ele>
        <time>2022-06-17T14:58:12.000Z</time>
      </trkpt>
      <trkpt lat="49.86226" lon="4.85111">
        <ele>181</ele>
        <time>2022-06-17T14:58:13.000Z</time>
      </trkpt>
      <trkpt lat="49.86223" lon="4.85111">
        <ele>181</ele>
        <time>2022-06-17T14:58:14.000Z</time>
      </trkpt>
      <trkpt lat="49.86219" lon="4.85111">
        <ele>181</ele>
        <time>2022-06-17T14:58:15.000Z</time>
      </trkpt>
      <trkpt lat="49.86217" lon="4.85111">
        <ele>182</ele>
        <time>2022-06-17T14:58:16.000Z</time>
      </trkpt>
      <trkpt lat="49.86214" lon="4.85111">
        <ele>182</ele>
        <time>2022-06-17T14:58:17.000Z</time>
      </trkpt>
      <trkpt lat="49.86212" lon="4.85111">
        <ele>182</ele>
        <time>2022-06-17T14:58:18.000Z</time>
      </trkpt>
      <trkpt lat="49.8621" lon="4.85111">
        <ele>182</ele>
        <time>2022-06-17T14:58:19.000Z</time>
      </trkpt>
      <trkpt lat="49.86208" lon="4.85112">
        <ele>182</ele>
        <time>2022-06-17T14:58:20.000Z</time>
      </trkpt>
      <trkpt lat="49.86206" lon="4.85112">
        <ele>182</ele>
        <time>2022-06-17T14:58:21.000Z</time>
      </trkpt>
      <trkpt lat="49.86204" lon="4.85112">
        <ele>183</ele>
        <time>2022-06-17T14:58:22.000Z</time>
      </trkpt>
      <trkpt lat="49.86201" lon="4.85113">
        <ele>183</ele>
        <time>2022-06-17T14:58:23.000Z</time>
      </trkpt>
      <trkpt lat="49.86199" lon="4.85113">
        <ele>183</ele>
        <time>2022-06-17T14:58:24.000Z</time>
      </trkpt>
      <trkpt lat="49.86197" lon="4.85114">
        <ele>183</ele>
        <time>2022-06-17T14:58:25.000Z</time>
      </trkpt>
      <trkpt lat="49.86194" lon="4.85114">
        <ele>183</ele>
        <time>2022-06-17T14:58:26.000Z</time>
      </trkpt>
      <trkpt lat="49.86192" lon="4.85115">
        <ele>184</ele>
        <time>2022-06-17T14:58:27.000Z</time>
      </trkpt>
      <trkpt lat="49.8619" lon="4.85115">
        <ele>184</ele>
        <time>2022-06-17T14:58:28.000Z</time>
      </trkpt>
      <trkpt lat="49.86187" lon="4.85116">
        <ele>184</ele>
        <time>2022-06-17T14:58:29.000Z</time>
      </trkpt>
      <trkpt lat="49.86185" lon="4.85115">
        <ele>184</ele>
        <time>2022-06-17T14:58:30.000Z</time>
      </trkpt>
      <trkpt lat="49.86183" lon="4.85115">
        <ele>184</ele>
        <time>2022-06-17T14:58:31.000Z</time>
      </trkpt>
      <trkpt lat="49.8618" lon="4.85114">
        <ele>184</ele>
        <time>2022-06-17T14:58:32.000Z</time>
      </trkpt>
      <trkpt lat="49.86177" lon="4.85114">
        <ele>184</ele>
        <time>2022-06-17T14:58:33.000Z</time>
      </trkpt>
      <trkpt lat="49.86174" lon="4.85114">
        <ele>185</ele>
        <time>2022-06-17T14:58:34.000Z</time>
      </trkpt>
      <trkpt lat="49.86171" lon="4.85114">
        <ele>185</ele>
        <time>2022-06-17T14:58:35.000Z</time>
      </trkpt>
      <trkpt lat="49.86168" lon="4.85113">
        <ele>185</ele>
        <time>2022-06-17T14:58:36.000Z</time>
      </trkpt>
      <trkpt lat="49.86165" lon="4.85113">
        <ele>185</ele>
        <time>2022-06-17T14:58:37.000Z</time>
      </trkpt>
      <trkpt lat="49.86162" lon="4.85113">
        <ele>185</ele>
        <time>2022-06-17T14:58:38.000Z</time>
      </trkpt>
      <trkpt lat="49.8616" lon="4.85113">
        <ele>185</ele>
        <time>2022-06-17T14:58:39.000Z</time>
      </trkpt>
      <trkpt lat="49.86158" lon="4.85113">
        <ele>186</ele>
        <time>2022-06-17T14:58:40.000Z</time>
      </trkpt>
      <trkpt lat="49.86155" lon="4.85112">
        <ele>186</ele>
        <time>2022-06-17T14:58:41.000Z</time>
      </trkpt>
      <trkpt lat="49.86153" lon="4.85112">
        <ele>186</ele>
        <time>2022-06-17T14:58:42.000Z</time>
      </trkpt>
      <trkpt lat="49.86151" lon="4.85111">
        <ele>187</ele>
        <time>2022-06-17T14:58:43.000Z</time>
      </trkpt>
      <trkpt lat="49.86149" lon="4.85111">
        <ele>187</ele>
        <time>2022-06-17T14:58:44.000Z</time>
      </trkpt>
      <trkpt lat="49.86147" lon="4.85111">
        <ele>187</ele>
        <time>2022-06-17T14:58:45.000Z</time>
      </trkpt>
      <trkpt lat="49.86144" lon="4.85111">
        <ele>187</ele>
        <time>2022-06-17T14:58:46.000Z</time>
      </trkpt>
      <trkpt lat="49.86141" lon="4.85112">
        <ele>187</ele>
        <time>2022-06-17T14:58:47.000Z</time>
      </trkpt>
      <trkpt lat="49.86138" lon="4.85112">
        <ele>187</ele>
        <time>2022-06-17T14:58:48.000Z</time>
      </trkpt>
      <trkpt lat="49.86134" lon="4.85112">
        <ele>187</ele>
        <time>2022-06-17T14:58:49.000Z</time>
      </trkpt>
      <trkpt lat="49.86131" lon="4.85111">
        <ele>187</ele>
        <time>2022-06-17T14:58:50.000Z</time>
      </trkpt>
      <trkpt lat="49.86128" lon="4.85111">
        <ele>187</ele>
        <time>2022-06-17T14:58:51.000Z</time>
      </trkpt>
      <trkpt lat="49.86124" lon="4.85111">
        <ele>187</ele>
        <time>2022-06-17T14:58:52.000Z</time>
      </trkpt>
      <trkpt lat="49.86122" lon="4.85111">
        <ele>187</ele>
        <time>2022-06-17T14:58:53.000Z</time>
      </trkpt>
      <trkpt lat="49.86119" lon="4.85111">
        <ele>187</ele>
        <time>2022-06-17T14:58:54.000Z</time>
      </trkpt>
      <trkpt lat="49.86117" lon="4.85111">
        <ele>188</ele>
        <time>2022-06-17T14:58:55.000Z</time>
      </trkpt>
      <trkpt lat="49.86115" lon="4.8511">
        <ele>188</ele>
        <time>2022-06-17T14:58:56.000Z</time>
      </trkpt>
      <trkpt lat="49.86112" lon="4.85109">
        <ele>188</ele>
        <time>2022-06-17T14:58:57.000Z</time>
      </trkpt>
      <trkpt lat="49.8611" lon="4.85109">
        <ele>188</ele>
        <time>2022-06-17T14:58:58.000Z</time>
      </trkpt>
      <trkpt lat="49.86108" lon="4.85109">
        <ele>188</ele>
        <time>2022-06-17T14:58:59.000Z</time>
      </trkpt>
      <trkpt lat="49.86106" lon="4.85107">
        <ele>188</ele>
        <time>2022-06-17T14:59:00.000Z</time>
      </trkpt>
      <trkpt lat="49.86105" lon="4.85106">
        <ele>188</ele>
        <time>2022-06-17T14:59:01.000Z</time>
      </trkpt>
      <trkpt lat="49.86103" lon="4.85105">
        <ele>188</ele>
        <time>2022-06-17T14:59:02.000Z</time>
      </trkpt>
      <trkpt lat="49.86102" lon="4.85103">
        <ele>189</ele>
        <time>2022-06-17T14:59:03.000Z</time>
      </trkpt>
      <trkpt lat="49.861" lon="4.85102">
        <ele>189</ele>
        <time>2022-06-17T14:59:04.000Z</time>
      </trkpt>
      <trkpt lat="49.86099" lon="4.851">
        <ele>189</ele>
        <time>2022-06-17T14:59:05.000Z</time>
      </trkpt>
      <trkpt lat="49.86097" lon="4.85099">
        <ele>189</ele>
        <time>2022-06-17T14:59:06.000Z</time>
      </trkpt>
      <trkpt lat="49.86095" lon="4.85098">
        <ele>190</ele>
        <time>2022-06-17T14:59:07.000Z</time>
      </trkpt>
      <trkpt lat="49.86094" lon="4.85096">
        <ele>190</ele>
        <time>2022-06-17T14:59:08.000Z</time>
      </trkpt>
      <trkpt lat="49.86093" lon="4.85094">
        <ele>190</ele>
        <time>2022-06-17T14:59:09.000Z</time>
      </trkpt>
      <trkpt lat="49.86091" lon="4.85093">
        <ele>190</ele>
        <time>2022-06-17T14:59:10.000Z</time>
      </trkpt>
      <trkpt lat="49.86089" lon="4.85091">
        <ele>190</ele>
        <time>2022-06-17T14:59:11.000Z</time>
      </trkpt>
      <trkpt lat="49.86088" lon="4.85088">
        <ele>190</ele>
        <time>2022-06-17T14:59:12.000Z</time>
      </trkpt>
      <trkpt lat="49.86086" lon="4.85086">
        <ele>191</ele>
        <time>2022-06-17T14:59:13.000Z</time>
      </trkpt>
      <trkpt lat="49.86085" lon="4.85084">
        <ele>191</ele>
        <time>2022-06-17T14:59:14.000Z</time>
      </trkpt>
      <trkpt lat="49.86083" lon="4.85083">
        <ele>191</ele>
        <time>2022-06-17T14:59:15.000Z</time>
      </trkpt>
      <trkpt lat="49.86082" lon="4.85082">
        <ele>191</ele>
        <time>2022-06-17T14:59:16.000Z</time>
      </trkpt>
      <trkpt lat="49.8608" lon="4.8508">
        <ele>191</ele>
        <time>2022-06-17T14:59:17.000Z</time>
      </trkpt>
      <trkpt lat="49.86078" lon="4.8508">
        <ele>192</ele>
        <time>2022-06-17T14:59:18.000Z</time>
      </trkpt>
      <trkpt lat="49.86077" lon="4.85079">
        <ele>192</ele>
        <time>2022-06-17T14:59:19.000Z</time>
      </trkpt>
      <trkpt lat="49.86075" lon="4.85077">
        <ele>192</ele>
        <time>2022-06-17T14:59:20.000Z</time>
      </trkpt>
      <trkpt lat="49.86074" lon="4.85075">
        <ele>192</ele>
        <time>2022-06-17T14:59:21.000Z</time>
      </trkpt>
      <trkpt lat="49.86072" lon="4.85072">
        <ele>193</ele>
        <time>2022-06-17T14:59:22.000Z</time>
      </trkpt>
      <trkpt lat="49.86071" lon="4.85069">
        <ele>193</ele>
        <time>2022-06-17T14:59:23.000Z</time>
      </trkpt>
      <trkpt lat="49.86069" lon="4.85067">
        <ele>193</ele>
        <time>2022-06-17T14:59:24.000Z</time>
      </trkpt>
      <trkpt lat="49.86068" lon="4.85064">
        <ele>193</ele>
        <time>2022-06-17T14:59:25.000Z</time>
      </trkpt>
      <trkpt lat="49.86066" lon="4.85062">
        <ele>194</ele>
        <time>2022-06-17T14:59:26.000Z</time>
      </trkpt>
      <trkpt lat="49.86066" lon="4.8506">
        <ele>194</ele>
        <time>2022-06-17T14:59:27.000Z</time>
      </trkpt>
      <trkpt lat="49.86065" lon="4.85057">
        <ele>194</ele>
        <time>2022-06-17T14:59:28.000Z</time>
      </trkpt>
      <trkpt lat="49.86064" lon="4.85054">
        <ele>194</ele>
        <time>2022-06-17T14:59:29.000Z</time>
      </trkpt>
      <trkpt lat="49.86064" lon="4.85053">
        <ele>195</ele>
        <time>2022-06-17T14:59:30.000Z</time>
      </trkpt>
      <trkpt lat="49.86064" lon="4.85052">
        <ele>195</ele>
        <time>2022-06-17T14:59:31.000Z</time>
      </trkpt>
      <trkpt lat="49.86064" lon="4.85051">
        <ele>195</ele>
        <time>2022-06-17T14:59:32.000Z</time>
      </trkpt>
      <trkpt lat="49.86064" lon="4.85051">
        <ele>195</ele>
        <time>2022-06-17T14:59:33.000Z</time>
      </trkpt>
      <trkpt lat="49.86064" lon="4.8505">
        <ele>196</ele>
        <time>2022-06-17T14:59:34.000Z</time>
      </trkpt>
      <trkpt lat="49.86063" lon="4.85049">
        <ele>196</ele>
        <time>2022-06-17T14:59:35.000Z</time>
      </trkpt>
      <trkpt lat="49.86063" lon="4.85048">
        <ele>196</ele>
        <time>2022-06-17T14:59:36.000Z</time>
      </trkpt>
      <trkpt lat="49.86061" lon="4.85046">
        <ele>197</ele>
        <time>2022-06-17T14:59:37.000Z</time>
      </trkpt>
      <trkpt lat="49.8606" lon="4.85044">
        <ele>197</ele>
        <time>2022-06-17T14:59:38.000Z</time>
      </trkpt>
      <trkpt lat="49.8606" lon="4.85042">
        <ele>197</ele>
        <time>2022-06-17T14:59:39.000Z</time>
      </trkpt>
      <trkpt lat="49.86059" lon="4.8504">
        <ele>197</ele>
        <time>2022-06-17T14:59:40.000Z</time>
      </trkpt>
      <trkpt lat="49.86058" lon="4.85038">
        <ele>197</ele>
        <time>2022-06-17T14:59:41.000Z</time>
      </trkpt>
      <trkpt lat="49.86057" lon="4.85036">
        <ele>198</ele>
        <time>2022-06-17T14:59:42.000Z</time>
      </trkpt>
      <trkpt lat="49.86056" lon="4.85034">
        <ele>198</ele>
        <time>2022-06-17T14:59:43.000Z</time>
      </trkpt>
      <trkpt lat="49.86055" lon="4.85032">
        <ele>198</ele>
        <time>2022-06-17T14:59:44.000Z</time>
      </trkpt>
      <trkpt lat="49.86054" lon="4.8503">
        <ele>198</ele>
        <time>2022-06-17T14:59:45.000Z</time>
      </trkpt>
      <trkpt lat="49.86054" lon="4.85029">
        <ele>199</ele>
        <time>2022-06-17T14:59:46.000Z</time>
      </trkpt>
      <trkpt lat="49.86052" lon="4.85028">
        <ele>199</ele>
        <time>2022-06-17T14:59:47.000Z</time>
      </trkpt>
      <trkpt lat="49.86051" lon="4.85027">
        <ele>199</ele>
        <time>2022-06-17T14:59:48.000Z</time>
      </trkpt>
      <trkpt lat="49.8605" lon="4.85026">
        <ele>199</ele>
        <time>2022-06-17T14:59:49.000Z</time>
      </trkpt>
      <trkpt lat="49.8605" lon="4.85024">
        <ele>200</ele>
        <time>2022-06-17T14:59:50.000Z</time>
      </trkpt>
      <trkpt lat="49.86049" lon="4.85022">
        <ele>200</ele>
        <time>2022-06-17T14:59:51.000Z</time>
      </trkpt>
      <trkpt lat="49.86048" lon="4.85018">
        <ele>200</ele>
        <time>2022-06-17T14:59:52.000Z</time>
      </trkpt>
      <trkpt lat="49.86047" lon="4.85016">
        <ele>200</ele>
        <time>2022-06-17T14:59:53.000Z</time>
      </trkpt>
      <trkpt lat="49.86046" lon="4.85013">
        <ele>201</ele>
        <time>2022-06-17T14:59:54.000Z</time>
      </trkpt>
      <trkpt lat="49.86046" lon="4.85011">
        <ele>201</ele>
        <time>2022-06-17T14:59:55.000Z</time>
      </trkpt>
      <trkpt lat="49.86045" lon="4.85007">
        <ele>201</ele>
        <time>2022-06-17T14:59:56.000Z</time>
      </trkpt>
      <trkpt lat="49.86045" lon="4.85004">
        <ele>201</ele>
        <time>2022-06-17T14:59:57.000Z</time>
      </trkpt>
      <trkpt lat="49.86044" lon="4.85001">
        <ele>201</ele>
        <time>2022-06-17T14:59:58.000Z</time>
      </trkpt>
      <trkpt lat="49.86044" lon="4.84997">
        <ele>201</ele>
        <time>2022-06-17T14:59:59.000Z</time>
      </trkpt>
      <trkpt lat="49.86043" lon="4.84995">
        <ele>201</ele>
        <time>2022-06-17T15:00:00.000Z</time>
      </trkpt>
      <trkpt lat="49.86043" lon="4.84992">
        <ele>201</ele>
        <time>2022-06-17T15:00:01.000Z</time>
      </trkpt>
      <trkpt lat="49.86043" lon="4.8499">
        <ele>201</ele>
        <time>2022-06-17T15:00:02.000Z</time>
      </trkpt>
      <trkpt lat="49.86042" lon="4.84987">
        <ele>202</ele>
        <time>2022-06-17T15:00:03.000Z</time>
      </trkpt>
      <trkpt lat="49.86041" lon="4.84984">
        <ele>202</ele>
        <time>2022-06-17T15:00:04.000Z</time>
      </trkpt>
      <trkpt lat="49.8604" lon="4.84981">
        <ele>202</ele>
        <time>2022-06-17T15:00:05.000Z</time>
      </trkpt>
      <trkpt lat="49.8604" lon="4.84978">
        <ele>202</ele>
        <time>2022-06-17T15:00:06.000Z</time>
      </trkpt>
      <trkpt lat="49.86039" lon="4.84974">
        <ele>203</ele>
        <time>2022-06-17T15:00:07.000Z</time>
      </trkpt>
      <trkpt lat="49.86039" lon="4.84971">
        <ele>203</ele>
        <time>2022-06-17T15:00:08.000Z</time>
      </trkpt>
      <trkpt lat="49.86038" lon="4.84968">
        <ele>203</ele>
        <time>2022-06-17T15:00:09.000Z</time>
      </trkpt>
      <trkpt lat="49.86037" lon="4.84965">
        <ele>203</ele>
        <time>2022-06-17T15:00:10.000Z</time>
      </trkpt>
      <trkpt lat="49.86036" lon="4.84962">
        <ele>204</ele>
        <time>2022-06-17T15:00:11.000Z</time>
      </trkpt>
      <trkpt lat="49.86035" lon="4.8496">
        <ele>204</ele>
        <time>2022-06-17T15:00:12.000Z</time>
      </trkpt>
      <trkpt lat="49.86034" lon="4.84957">
        <ele>204</ele>
        <time>2022-06-17T15:00:13.000Z</time>
      </trkpt>
      <trkpt lat="49.86034" lon="4.84955">
        <ele>205</ele>
        <time>2022-06-17T15:00:14.000Z</time>
      </trkpt>
      <trkpt lat="49.86033" lon="4.84952">
        <ele>205</ele>
        <time>2022-06-17T15:00:15.000Z</time>
      </trkpt>
      <trkpt lat="49.86032" lon="4.84949">
        <ele>205</ele>
        <time>2022-06-17T15:00:16.000Z</time>
      </trkpt>
      <trkpt lat="49.86031" lon="4.84946">
        <ele>205</ele>
        <time>2022-06-17T15:00:17.000Z</time>
      </trkpt>
      <trkpt lat="49.86031" lon="4.84943">
        <ele>206</ele>
        <time>2022-06-17T15:00:18.000Z</time>
      </trkpt>
      <trkpt lat="49.8603" lon="4.84941">
        <ele>206</ele>
        <time>2022-06-17T15:00:19.000Z</time>
      </trkpt>
      <trkpt lat="49.86029" lon="4.84938">
        <ele>206</ele>
        <time>2022-06-17T15:00:20.000Z</time>
      </trkpt>
      <trkpt lat="49.86028" lon="4.84935">
        <ele>206</ele>
        <time>2022-06-17T15:00:21.000Z</time>
      </trkpt>
      <trkpt lat="49.86027" lon="4.84932">
        <ele>207</ele>
        <time>2022-06-17T15:00:22.000Z</time>
      </trkpt>
      <trkpt lat="49.86026" lon="4.84929">
        <ele>207</ele>
        <time>2022-06-17T15:00:23.000Z</time>
      </trkpt>
      <trkpt lat="49.86026" lon="4.84926">
        <ele>207</ele>
        <time>2022-06-17T15:00:24.000Z</time>
      </trkpt>
      <trkpt lat="49.86025" lon="4.84923">
        <ele>207</ele>
        <time>2022-06-17T15:00:25.000Z</time>
      </trkpt>
      <trkpt lat="49.86024" lon="4.8492">
        <ele>208</ele>
        <time>2022-06-17T15:00:26.000Z</time>
      </trkpt>
      <trkpt lat="49.86023" lon="4.84917">
        <ele>208</ele>
        <time>2022-06-17T15:00:27.000Z</time>
      </trkpt>
      <trkpt lat="49.86023" lon="4.84914">
        <ele>208</ele>
        <time>2022-06-17T15:00:28.000Z</time>
      </trkpt>
      <trkpt lat="49.86023" lon="4.84912">
        <ele>209</ele>
        <time>2022-06-17T15:00:29.000Z</time>
      </trkpt>
      <trkpt lat="49.86022" lon="4.84909">
        <ele>209</ele>
        <time>2022-06-17T15:00:30.000Z</time>
      </trkpt>
      <trkpt lat="49.86022" lon="4.84906">
        <ele>210</ele>
        <time>2022-06-17T15:00:31.000Z</time>
      </trkpt>
      <trkpt lat="49.86021" lon="4.84903">
        <ele>210</ele>
        <time>2022-06-17T15:00:32.000Z</time>
      </trkpt>
      <trkpt lat="49.86021" lon="4.849">
        <ele>211</ele>
        <time>2022-06-17T15:00:33.000Z</time>
      </trkpt>
      <trkpt lat="49.8602" lon="4.84896">
        <ele>211</ele>
        <time>2022-06-17T15:00:34.000Z</time>
      </trkpt>
      <trkpt lat="49.8602" lon="4.84892">
        <ele>211</ele>
        <time>2022-06-17T15:00:35.000Z</time>
      </trkpt>
      <trkpt lat="49.86019" lon="4.84889">
        <ele>212</ele>
        <time>2022-06-17T15:00:36.000Z</time>
      </trkpt>
      <trkpt lat="49.86019" lon="4.84886">
        <ele>212</ele>
        <time>2022-06-17T15:00:37.000Z</time>
      </trkpt>
      <trkpt lat="49.86018" lon="4.84884">
        <ele>213</ele>
        <time>2022-06-17T15:00:38.000Z</time>
      </trkpt>
      <trkpt lat="49.86018" lon="4.84881">
        <ele>213</ele>
        <time>2022-06-17T15:00:39.000Z</time>
      </trkpt>
      <trkpt lat="49.86017" lon="4.84878">
        <ele>214</ele>
        <time>2022-06-17T15:00:40.000Z</time>
      </trkpt>
      <trkpt lat="49.86017" lon="4.84874">
        <ele>214</ele>
        <time>2022-06-17T15:00:41.000Z</time>
      </trkpt>
      <trkpt lat="49.86017" lon="4.84871">
        <ele>215</ele>
        <time>2022-06-17T15:00:42.000Z</time>
      </trkpt>
      <trkpt lat="49.86016" lon="4.84869">
        <ele>215</ele>
        <time>2022-06-17T15:00:43.000Z</time>
      </trkpt>
      <trkpt lat="49.86016" lon="4.84865">
        <ele>215</ele>
        <time>2022-06-17T15:00:44.000Z</time>
      </trkpt>
      <trkpt lat="49.86016" lon="4.84862">
        <ele>216</ele>
        <time>2022-06-17T15:00:45.000Z</time>
      </trkpt>
      <trkpt lat="49.86016" lon="4.84859">
        <ele>216</ele>
        <time>2022-06-17T15:00:46.000Z</time>
      </trkpt>
      <trkpt lat="49.86016" lon="4.84856">
        <ele>217</ele>
        <time>2022-06-17T15:00:47.000Z</time>
      </trkpt>
      <trkpt lat="49.86016" lon="4.84853">
        <ele>217</ele>
        <time>2022-06-17T15:00:48.000Z</time>
      </trkpt>
      <trkpt lat="49.86016" lon="4.8485">
        <ele>218</ele>
        <time>2022-06-17T15:00:49.000Z</time>
      </trkpt>
      <trkpt lat="49.86016" lon="4.84847">
        <ele>219</ele>
        <time>2022-06-17T15:00:50.000Z</time>
      </trkpt>
      <trkpt lat="49.86016" lon="4.84845">
        <ele>219</ele>
        <time>2022-06-17T15:00:51.000Z</time>
      </trkpt>
      <trkpt lat="49.86015" lon="4.84842">
        <ele>219</ele>
        <time>2022-06-17T15:00:52.000Z</time>
      </trkpt>
      <trkpt lat="49.86015" lon="4.84839">
        <ele>220</ele>
        <time>2022-06-17T15:00:53.000Z</time>
      </trkpt>
      <trkpt lat="49.86015" lon="4.84836">
        <ele>220</ele>
        <time>2022-06-17T15:00:54.000Z</time>
      </trkpt>
      <trkpt lat="49.86015" lon="4.84833">
        <ele>221</ele>
        <time>2022-06-17T15:00:55.000Z</time>
      </trkpt>
      <trkpt lat="49.86015" lon="4.8483">
        <ele>221</ele>
        <time>2022-06-17T15:00:56.000Z</time>
      </trkpt>
      <trkpt lat="49.86015" lon="4.84827">
        <ele>222</ele>
        <time>2022-06-17T15:00:57.000Z</time>
      </trkpt>
      <trkpt lat="49.86015" lon="4.84824">
        <ele>222</ele>
        <time>2022-06-17T15:00:58.000Z</time>
      </trkpt>
      <trkpt lat="49.86015" lon="4.84821">
        <ele>222</ele>
        <time>2022-06-17T15:00:59.000Z</time>
      </trkpt>
      <trkpt lat="49.86015" lon="4.84818">
        <ele>223</ele>
        <time>2022-06-17T15:01:00.000Z</time>
      </trkpt>
      <trkpt lat="49.86014" lon="4.84816">
        <ele>223</ele>
        <time>2022-06-17T15:01:01.000Z</time>
      </trkpt>
      <trkpt lat="49.86014" lon="4.84813">
        <ele>223</ele>
        <time>2022-06-17T15:01:02.000Z</time>
      </trkpt>
      <trkpt lat="49.86014" lon="4.84809">
        <ele>224</ele>
        <time>2022-06-17T15:01:03.000Z</time>
      </trkpt>
      <trkpt lat="49.86013" lon="4.84806">
        <ele>224</ele>
        <time>2022-06-17T15:01:04.000Z</time>
      </trkpt>
      <trkpt lat="49.86013" lon="4.84803">
        <ele>224</ele>
        <time>2022-06-17T15:01:05.000Z</time>
      </trkpt>
      <trkpt lat="49.86013" lon="4.84801">
        <ele>225</ele>
        <time>2022-06-17T15:01:06.000Z</time>
      </trkpt>
      <trkpt lat="49.86012" lon="4.84799">
        <ele>225</ele>
        <time>2022-06-17T15:01:07.000Z</time>
      </trkpt>
      <trkpt lat="49.86011" lon="4.84796">
        <ele>225</ele>
        <time>2022-06-17T15:01:08.000Z</time>
      </trkpt>
      <trkpt lat="49.86011" lon="4.84793">
        <ele>226</ele>
        <time>2022-06-17T15:01:09.000Z</time>
      </trkpt>
      <trkpt lat="49.86011" lon="4.8479">
        <ele>226</ele>
        <time>2022-06-17T15:01:10.000Z</time>
      </trkpt>
      <trkpt lat="49.86011" lon="4.84788">
        <ele>226</ele>
        <time>2022-06-17T15:01:11.000Z</time>
      </trkpt>
      <trkpt lat="49.86011" lon="4.84785">
        <ele>226</ele>
        <time>2022-06-17T15:01:12.000Z</time>
      </trkpt>
      <trkpt lat="49.8601" lon="4.84782">
        <ele>227</ele>
        <time>2022-06-17T15:01:13.000Z</time>
      </trkpt>
      <trkpt lat="49.8601" lon="4.8478">
        <ele>227</ele>
        <time>2022-06-17T15:01:14.000Z</time>
      </trkpt>
      <trkpt lat="49.86009" lon="4.84777">
        <ele>227</ele>
        <time>2022-06-17T15:01:15.000Z</time>
      </trkpt>
      <trkpt lat="49.86009" lon="4.84774">
        <ele>227</ele>
        <time>2022-06-17T15:01:16.000Z</time>
      </trkpt>
      <trkpt lat="49.86009" lon="4.84771">
        <ele>227</ele>
        <time>2022-06-17T15:01:17.000Z</time>
      </trkpt>
      <trkpt lat="49.86008" lon="4.84768">
        <ele>228</ele>
        <time>2022-06-17T15:01:18.000Z</time>
      </trkpt>
      <trkpt lat="49.86008" lon="4.84765">
        <ele>228</ele>
        <time>2022-06-17T15:01:19.000Z</time>
      </trkpt>
      <trkpt lat="49.86008" lon="4.84762">
        <ele>228</ele>
        <time>2022-06-17T15:01:20.000Z</time>
      </trkpt>
      <trkpt lat="49.86007" lon="4.8476">
        <ele>228</ele>
        <time>2022-06-17T15:01:21.000Z</time>
      </trkpt>
      <trkpt lat="49.86007" lon="4.84757">
        <ele>228</ele>
        <time>2022-06-17T15:01:22.000Z</time>
      </trkpt>
      <trkpt lat="49.86006" lon="4.84755">
        <ele>229</ele>
        <time>2022-06-17T15:01:23.000Z</time>
      </trkpt>
      <trkpt lat="49.86005" lon="4.84752">
        <ele>229</ele>
        <time>2022-06-17T15:01:24.000Z</time>
      </trkpt>
      <trkpt lat="49.86004" lon="4.8475">
        <ele>229</ele>
        <time>2022-06-17T15:01:25.000Z</time>
      </trkpt>
      <trkpt lat="49.86003" lon="4.84748">
        <ele>229</ele>
        <time>2022-06-17T15:01:26.000Z</time>
      </trkpt>
      <trkpt lat="49.86001" lon="4.84747">
        <ele>229</ele>
        <time>2022-06-17T15:01:27.000Z</time>
      </trkpt>
      <trkpt lat="49.86" lon="4.84746">
        <ele>230</ele>
        <time>2022-06-17T15:01:28.000Z</time>
      </trkpt>
      <trkpt lat="49.85999" lon="4.84743">
        <ele>230</ele>
        <time>2022-06-17T15:01:29.000Z</time>
      </trkpt>
      <trkpt lat="49.85998" lon="4.84741">
        <ele>230</ele>
        <time>2022-06-17T15:01:30.000Z</time>
      </trkpt>
      <trkpt lat="49.85997" lon="4.84739">
        <ele>230</ele>
        <time>2022-06-17T15:01:31.000Z</time>
      </trkpt>
      <trkpt lat="49.85996" lon="4.84737">
        <ele>230</ele>
        <time>2022-06-17T15:01:32.000Z</time>
      </trkpt>
      <trkpt lat="49.85994" lon="4.84734">
        <ele>230</ele>
        <time>2022-06-17T15:01:33.000Z</time>
      </trkpt>
      <trkpt lat="49.85993" lon="4.84731">
        <ele>230</ele>
        <time>2022-06-17T15:01:34.000Z</time>
      </trkpt>
      <trkpt lat="49.85992" lon="4.84728">
        <ele>231</ele>
        <time>2022-06-17T15:01:35.000Z</time>
      </trkpt>
      <trkpt lat="49.85991" lon="4.84726">
        <ele>231</ele>
        <time>2022-06-17T15:01:36.000Z</time>
      </trkpt>
      <trkpt lat="49.8599" lon="4.84723">
        <ele>231</ele>
        <time>2022-06-17T15:01:37.000Z</time>
      </trkpt>
      <trkpt lat="49.8599" lon="4.84721">
        <ele>231</ele>
        <time>2022-06-17T15:01:38.000Z</time>
      </trkpt>
      <trkpt lat="49.85989" lon="4.84718">
        <ele>231</ele>
        <time>2022-06-17T15:01:39.000Z</time>
      </trkpt>
      <trkpt lat="49.85988" lon="4.84715">
        <ele>231</ele>
        <time>2022-06-17T15:01:40.000Z</time>
      </trkpt>
      <trkpt lat="49.85987" lon="4.84712">
        <ele>232</ele>
        <time>2022-06-17T15:01:41.000Z</time>
      </trkpt>
      <trkpt lat="49.85986" lon="4.84709">
        <ele>232</ele>
        <time>2022-06-17T15:01:42.000Z</time>
      </trkpt>
      <trkpt lat="49.85985" lon="4.84707">
        <ele>232</ele>
        <time>2022-06-17T15:01:43.000Z</time>
      </trkpt>
      <trkpt lat="49.85985" lon="4.84705">
        <ele>232</ele>
        <time>2022-06-17T15:01:44.000Z</time>
      </trkpt>
      <trkpt lat="49.85983" lon="4.84702">
        <ele>232</ele>
        <time>2022-06-17T15:01:45.000Z</time>
      </trkpt>
      <trkpt lat="49.85982" lon="4.847">
        <ele>232</ele>
        <time>2022-06-17T15:01:46.000Z</time>
      </trkpt>
      <trkpt lat="49.8598" lon="4.84697">
        <ele>233</ele>
        <time>2022-06-17T15:01:47.000Z</time>
      </trkpt>
      <trkpt lat="49.85979" lon="4.84694">
        <ele>233</ele>
        <time>2022-06-17T15:01:48.000Z</time>
      </trkpt>
      <trkpt lat="49.85977" lon="4.84692">
        <ele>233</ele>
        <time>2022-06-17T15:01:49.000Z</time>
      </trkpt>
      <trkpt lat="49.85977" lon="4.84689">
        <ele>233</ele>
        <time>2022-06-17T15:01:50.000Z</time>
      </trkpt>
      <trkpt lat="49.85976" lon="4.84686">
        <ele>234</ele>
        <time>2022-06-17T15:01:51.000Z</time>
      </trkpt>
      <trkpt lat="49.85975" lon="4.84682">
        <ele>234</ele>
        <time>2022-06-17T15:01:52.000Z</time>
      </trkpt>
      <trkpt lat="49.85975" lon="4.84679">
        <ele>234</ele>
        <time>2022-06-17T15:01:53.000Z</time>
      </trkpt>
      <trkpt lat="49.85975" lon="4.84675">
        <ele>234</ele>
        <time>2022-06-17T15:01:54.000Z</time>
      </trkpt>
      <trkpt lat="49.85974" lon="4.84672">
        <ele>235</ele>
        <time>2022-06-17T15:01:55.000Z</time>
      </trkpt>
      <trkpt lat="49.85973" lon="4.84669">
        <ele>235</ele>
        <time>2022-06-17T15:01:56.000Z</time>
      </trkpt>
      <trkpt lat="49.85972" lon="4.84665">
        <ele>235</ele>
        <time>2022-06-17T15:01:57.000Z</time>
      </trkpt>
      <trkpt lat="49.85971" lon="4.84663">
        <ele>235</ele>
        <time>2022-06-17T15:01:58.000Z</time>
      </trkpt>
      <trkpt lat="49.85969" lon="4.84659">
        <ele>236</ele>
        <time>2022-06-17T15:01:59.000Z</time>
      </trkpt>
      <trkpt lat="49.85969" lon="4.84656">
        <ele>236</ele>
        <time>2022-06-17T15:02:00.000Z</time>
      </trkpt>
      <trkpt lat="49.85968" lon="4.84653">
        <ele>236</ele>
        <time>2022-06-17T15:02:01.000Z</time>
      </trkpt>
      <trkpt lat="49.85967" lon="4.84649">
        <ele>236</ele>
        <time>2022-06-17T15:02:02.000Z</time>
      </trkpt>
      <trkpt lat="49.85966" lon="4.84646">
        <ele>237</ele>
        <time>2022-06-17T15:02:03.000Z</time>
      </trkpt>
      <trkpt lat="49.85965" lon="4.84643">
        <ele>237</ele>
        <time>2022-06-17T15:02:04.000Z</time>
      </trkpt>
      <trkpt lat="49.85964" lon="4.84639">
        <ele>237</ele>
        <time>2022-06-17T15:02:05.000Z</time>
      </trkpt>
      <trkpt lat="49.85963" lon="4.84636">
        <ele>237</ele>
        <time>2022-06-17T15:02:06.000Z</time>
      </trkpt>
      <trkpt lat="49.85962" lon="4.84634">
        <ele>237</ele>
        <time>2022-06-17T15:02:07.000Z</time>
      </trkpt>
      <trkpt lat="49.8596" lon="4.84632">
        <ele>238</ele>
        <time>2022-06-17T15:02:08.000Z</time>
      </trkpt>
      <trkpt lat="49.85958" lon="4.8463">
        <ele>238</ele>
        <time>2022-06-17T15:02:09.000Z</time>
      </trkpt>
      <trkpt lat="49.85957" lon="4.84628">
        <ele>238</ele>
        <time>2022-06-17T15:02:10.000Z</time>
      </trkpt>
      <trkpt lat="49.85956" lon="4.84627">
        <ele>238</ele>
        <time>2022-06-17T15:02:11.000Z</time>
      </trkpt>
      <trkpt lat="49.85955" lon="4.84626">
        <ele>238</ele>
        <time>2022-06-17T15:02:12.000Z</time>
      </trkpt>
      <trkpt lat="49.85954" lon="4.84625">
        <ele>239</ele>
        <time>2022-06-17T15:02:13.000Z</time>
      </trkpt>
      <trkpt lat="49.85952" lon="4.84624">
        <ele>239</ele>
        <time>2022-06-17T15:02:14.000Z</time>
      </trkpt>
      <trkpt lat="49.85951" lon="4.84623">
        <ele>239</ele>
        <time>2022-06-17T15:02:15.000Z</time>
      </trkpt>
      <trkpt lat="49.8595" lon="4.84622">
        <ele>239</ele>
        <time>2022-06-17T15:02:16.000Z</time>
      </trkpt>
      <trkpt lat="49.85949" lon="4.84621">
        <ele>240</ele>
        <time>2022-06-17T15:02:17.000Z</time>
      </trkpt>
      <trkpt lat="49.85947" lon="4.8462">
        <ele>240</ele>
        <time>2022-06-17T15:02:18.000Z</time>
      </trkpt>
      <trkpt lat="49.85946" lon="4.8462">
        <ele>240</ele>
        <time>2022-06-17T15:02:19.000Z</time>
      </trkpt>
      <trkpt lat="49.85945" lon="4.8462">
        <ele>240</ele>
        <time>2022-06-17T15:02:20.000Z</time>
      </trkpt>
      <trkpt lat="49.85943" lon="4.84619">
        <ele>240</ele>
        <time>2022-06-17T15:02:21.000Z</time>
      </trkpt>
      <trkpt lat="49.85941" lon="4.84618">
        <ele>241</ele>
        <time>2022-06-17T15:02:22.000Z</time>
      </trkpt>
      <trkpt lat="49.85939" lon="4.84618">
        <ele>241</ele>
        <time>2022-06-17T15:02:23.000Z</time>
      </trkpt>
      <trkpt lat="49.85937" lon="4.84616">
        <ele>241</ele>
        <time>2022-06-17T15:02:24.000Z</time>
      </trkpt>
      <trkpt lat="49.85936" lon="4.84615">
        <ele>241</ele>
        <time>2022-06-17T15:02:25.000Z</time>
      </trkpt>
      <trkpt lat="49.85934" lon="4.84614">
        <ele>241</ele>
        <time>2022-06-17T15:02:26.000Z</time>
      </trkpt>
      <trkpt lat="49.85933" lon="4.84612">
        <ele>241</ele>
        <time>2022-06-17T15:02:27.000Z</time>
      </trkpt>
      <trkpt lat="49.85931" lon="4.84611">
        <ele>242</ele>
        <time>2022-06-17T15:02:28.000Z</time>
      </trkpt>
      <trkpt lat="49.8593" lon="4.8461">
        <ele>242</ele>
        <time>2022-06-17T15:02:29.000Z</time>
      </trkpt>
      <trkpt lat="49.85928" lon="4.84609">
        <ele>242</ele>
        <time>2022-06-17T15:02:30.000Z</time>
      </trkpt>
      <trkpt lat="49.85926" lon="4.84608">
        <ele>242</ele>
        <time>2022-06-17T15:02:31.000Z</time>
      </trkpt>
      <trkpt lat="49.85925" lon="4.84608">
        <ele>242</ele>
        <time>2022-06-17T15:02:32.000Z</time>
      </trkpt>
      <trkpt lat="49.85924" lon="4.84607">
        <ele>242</ele>
        <time>2022-06-17T15:02:33.000Z</time>
      </trkpt>
      <trkpt lat="49.85922" lon="4.84605">
        <ele>243</ele>
        <time>2022-06-17T15:02:34.000Z</time>
      </trkpt>
      <trkpt lat="49.85921" lon="4.84604">
        <ele>243</ele>
        <time>2022-06-17T15:02:35.000Z</time>
      </trkpt>
      <trkpt lat="49.8592" lon="4.84603">
        <ele>243</ele>
        <time>2022-06-17T15:02:36.000Z</time>
      </trkpt>
      <trkpt lat="49.85918" lon="4.84601">
        <ele>243</ele>
        <time>2022-06-17T15:02:37.000Z</time>
      </trkpt>
      <trkpt lat="49.85917" lon="4.846">
        <ele>244</ele>
        <time>2022-06-17T15:02:38.000Z</time>
      </trkpt>
      <trkpt lat="49.85915" lon="4.84598">
        <ele>244</ele>
        <time>2022-06-17T15:02:39.000Z</time>
      </trkpt>
      <trkpt lat="49.85913" lon="4.84598">
        <ele>244</ele>
        <time>2022-06-17T15:02:40.000Z</time>
      </trkpt>
      <trkpt lat="49.85911" lon="4.84597">
        <ele>244</ele>
        <time>2022-06-17T15:02:41.000Z</time>
      </trkpt>
      <trkpt lat="49.8591" lon="4.84596">
        <ele>244</ele>
        <time>2022-06-17T15:02:42.000Z</time>
      </trkpt>
      <trkpt lat="49.85909" lon="4.84595">
        <ele>245</ele>
        <time>2022-06-17T15:02:43.000Z</time>
      </trkpt>
      <trkpt lat="49.85907" lon="4.84594">
        <ele>245</ele>
        <time>2022-06-17T15:02:44.000Z</time>
      </trkpt>
      <trkpt lat="49.85905" lon="4.84593">
        <ele>245</ele>
        <time>2022-06-17T15:02:45.000Z</time>
      </trkpt>
      <trkpt lat="49.85904" lon="4.84591">
        <ele>245</ele>
        <time>2022-06-17T15:02:46.000Z</time>
      </trkpt>
      <trkpt lat="49.85902" lon="4.8459">
        <ele>245</ele>
        <time>2022-06-17T15:02:47.000Z</time>
      </trkpt>
      <trkpt lat="49.85901" lon="4.84589">
        <ele>245</ele>
        <time>2022-06-17T15:02:48.000Z</time>
      </trkpt>
      <trkpt lat="49.85899" lon="4.84588">
        <ele>246</ele>
        <time>2022-06-17T15:02:49.000Z</time>
      </trkpt>
      <trkpt lat="49.85898" lon="4.84586">
        <ele>246</ele>
        <time>2022-06-17T15:02:50.000Z</time>
      </trkpt>
      <trkpt lat="49.85896" lon="4.84585">
        <ele>246</ele>
        <time>2022-06-17T15:02:51.000Z</time>
      </trkpt>
      <trkpt lat="49.85894" lon="4.84583">
        <ele>246</ele>
        <time>2022-06-17T15:02:52.000Z</time>
      </trkpt>
      <trkpt lat="49.85892" lon="4.84582">
        <ele>246</ele>
        <time>2022-06-17T15:02:53.000Z</time>
      </trkpt>
      <trkpt lat="49.8589" lon="4.8458">
        <ele>246</ele>
        <time>2022-06-17T15:02:54.000Z</time>
      </trkpt>
      <trkpt lat="49.85889" lon="4.84579">
        <ele>246</ele>
        <time>2022-06-17T15:02:55.000Z</time>
      </trkpt>
      <trkpt lat="49.85887" lon="4.84577">
        <ele>247</ele>
        <time>2022-06-17T15:02:56.000Z</time>
      </trkpt>
      <trkpt lat="49.85885" lon="4.84575">
        <ele>247</ele>
        <time>2022-06-17T15:02:57.000Z</time>
      </trkpt>
      <trkpt lat="49.85883" lon="4.84574">
        <ele>247</ele>
        <time>2022-06-17T15:02:58.000Z</time>
      </trkpt>
      <trkpt lat="49.85882" lon="4.84572">
        <ele>247</ele>
        <time>2022-06-17T15:02:59.000Z</time>
      </trkpt>
      <trkpt lat="49.8588" lon="4.84571">
        <ele>247</ele>
        <time>2022-06-17T15:03:00.000Z</time>
      </trkpt>
      <trkpt lat="49.85878" lon="4.84569">
        <ele>247</ele>
        <time>2022-06-17T15:03:01.000Z</time>
      </trkpt>
      <trkpt lat="49.85876" lon="4.84568">
        <ele>247</ele>
        <time>2022-06-17T15:03:02.000Z</time>
      </trkpt>
      <trkpt lat="49.85875" lon="4.84566">
        <ele>248</ele>
        <time>2022-06-17T15:03:03.000Z</time>
      </trkpt>
      <trkpt lat="49.85874" lon="4.84564">
        <ele>248</ele>
        <time>2022-06-17T15:03:04.000Z</time>
      </trkpt>
      <trkpt lat="49.85872" lon="4.84563">
        <ele>248</ele>
        <time>2022-06-17T15:03:05.000Z</time>
      </trkpt>
      <trkpt lat="49.8587" lon="4.84561">
        <ele>249</ele>
        <time>2022-06-17T15:03:06.000Z</time>
      </trkpt>
      <trkpt lat="49.85869" lon="4.8456">
        <ele>249</ele>
        <time>2022-06-17T15:03:07.000Z</time>
      </trkpt>
      <trkpt lat="49.85867" lon="4.84559">
        <ele>249</ele>
        <time>2022-06-17T15:03:08.000Z</time>
      </trkpt>
      <trkpt lat="49.85865" lon="4.84557">
        <ele>249</ele>
        <time>2022-06-17T15:03:09.000Z</time>
      </trkpt>
      <trkpt lat="49.85863" lon="4.84556">
        <ele>250</ele>
        <time>2022-06-17T15:03:10.000Z</time>
      </trkpt>
      <trkpt lat="49.85861" lon="4.84554">
        <ele>250</ele>
        <time>2022-06-17T15:03:11.000Z</time>
      </trkpt>
      <trkpt lat="49.85859" lon="4.84553">
        <ele>250</ele>
        <time>2022-06-17T15:03:12.000Z</time>
      </trkpt>
      <trkpt lat="49.85855" lon="4.84553">
        <ele>250</ele>
        <time>2022-06-17T15:03:13.000Z</time>
      </trkpt>
      <trkpt lat="49.85851" lon="4.84552">
        <ele>250</ele>
        <time>2022-06-17T15:03:14.000Z</time>
      </trkpt>
      <trkpt lat="49.85847" lon="4.84553">
        <ele>250</ele>
        <time>2022-06-17T15:03:15.000Z</time>
      </trkpt>
      <trkpt lat="49.85843" lon="4.84553">
        <ele>250</ele>
        <time>2022-06-17T15:03:16.000Z</time>
      </trkpt>
      <trkpt lat="49.85839" lon="4.84554">
        <ele>251</ele>
        <time>2022-06-17T15:03:17.000Z</time>
      </trkpt>
      <trkpt lat="49.85837" lon="4.84556">
        <ele>251</ele>
        <time>2022-06-17T15:03:18.000Z</time>
      </trkpt>
      <trkpt lat="49.85835" lon="4.84559">
        <ele>251</ele>
        <time>2022-06-17T15:03:19.000Z</time>
      </trkpt>
      <trkpt lat="49.85834" lon="4.84561">
        <ele>251</ele>
        <time>2022-06-17T15:03:20.000Z</time>
      </trkpt>
      <trkpt lat="49.85833" lon="4.84563">
        <ele>252</ele>
        <time>2022-06-17T15:03:21.000Z</time>
      </trkpt>
      <trkpt lat="49.85832" lon="4.84566">
        <ele>252</ele>
        <time>2022-06-17T15:03:22.000Z</time>
      </trkpt>
      <trkpt lat="49.85832" lon="4.84568">
        <ele>252</ele>
        <time>2022-06-17T15:03:23.000Z</time>
      </trkpt>
      <trkpt lat="49.85832" lon="4.84571">
        <ele>253</ele>
        <time>2022-06-17T15:03:24.000Z</time>
      </trkpt>
      <trkpt lat="49.85832" lon="4.84574">
        <ele>253</ele>
        <time>2022-06-17T15:03:25.000Z</time>
      </trkpt>
      <trkpt lat="49.85832" lon="4.84577">
        <ele>253</ele>
        <time>2022-06-17T15:03:26.000Z</time>
      </trkpt>
      <trkpt lat="49.85832" lon="4.84579">
        <ele>253</ele>
        <time>2022-06-17T15:03:27.000Z</time>
      </trkpt>
      <trkpt lat="49.85833" lon="4.84582">
        <ele>253</ele>
        <time>2022-06-17T15:03:28.000Z</time>
      </trkpt>
      <trkpt lat="49.85834" lon="4.84584">
        <ele>253</ele>
        <time>2022-06-17T15:03:29.000Z</time>
      </trkpt>
      <trkpt lat="49.85836" lon="4.84586">
        <ele>253</ele>
        <time>2022-06-17T15:03:30.000Z</time>
      </trkpt>
      <trkpt lat="49.85836" lon="4.84589">
        <ele>254</ele>
        <time>2022-06-17T15:03:31.000Z</time>
      </trkpt>
      <trkpt lat="49.85837" lon="4.84592">
        <ele>254</ele>
        <time>2022-06-17T15:03:32.000Z</time>
      </trkpt>
      <trkpt lat="49.85838" lon="4.84595">
        <ele>254</ele>
        <time>2022-06-17T15:03:33.000Z</time>
      </trkpt>
      <trkpt lat="49.85839" lon="4.84597">
        <ele>254</ele>
        <time>2022-06-17T15:03:34.000Z</time>
      </trkpt>
      <trkpt lat="49.8584" lon="4.84599">
        <ele>254</ele>
        <time>2022-06-17T15:03:35.000Z</time>
      </trkpt>
      <trkpt lat="49.85842" lon="4.84601">
        <ele>254</ele>
        <time>2022-06-17T15:03:36.000Z</time>
      </trkpt>
      <trkpt lat="49.85843" lon="4.84603">
        <ele>254</ele>
        <time>2022-06-17T15:03:37.000Z</time>
      </trkpt>
      <trkpt lat="49.85843" lon="4.84605">
        <ele>254</ele>
        <time>2022-06-17T15:03:38.000Z</time>
      </trkpt>
      <trkpt lat="49.85844" lon="4.84607">
        <ele>254</ele>
        <time>2022-06-17T15:03:39.000Z</time>
      </trkpt>
      <trkpt lat="49.85845" lon="4.8461">
        <ele>254</ele>
        <time>2022-06-17T15:03:40.000Z</time>
      </trkpt>
      <trkpt lat="49.85846" lon="4.84612">
        <ele>254</ele>
        <time>2022-06-17T15:03:41.000Z</time>
      </trkpt>
      <trkpt lat="49.85848" lon="4.84616">
        <ele>255</ele>
        <time>2022-06-17T15:03:42.000Z</time>
      </trkpt>
      <trkpt lat="49.8585" lon="4.84619">
        <ele>255</ele>
        <time>2022-06-17T15:03:43.000Z</time>
      </trkpt>
      <trkpt lat="49.85851" lon="4.84622">
        <ele>255</ele>
        <time>2022-06-17T15:03:44.000Z</time>
      </trkpt>
      <trkpt lat="49.85852" lon="4.84624">
        <ele>255</ele>
        <time>2022-06-17T15:03:45.000Z</time>
      </trkpt>
      <trkpt lat="49.85854" lon="4.84626">
        <ele>255</ele>
        <time>2022-06-17T15:03:46.000Z</time>
      </trkpt>
      <trkpt lat="49.85855" lon="4.84629">
        <ele>256</ele>
        <time>2022-06-17T15:03:47.000Z</time>
      </trkpt>
      <trkpt lat="49.85856" lon="4.84632">
        <ele>256</ele>
        <time>2022-06-17T15:03:48.000Z</time>
      </trkpt>
      <trkpt lat="49.85857" lon="4.84633">
        <ele>256</ele>
        <time>2022-06-17T15:03:49.000Z</time>
      </trkpt>
      <trkpt lat="49.85859" lon="4.84636">
        <ele>256</ele>
        <time>2022-06-17T15:03:50.000Z</time>
      </trkpt>
      <trkpt lat="49.8586" lon="4.84638">
        <ele>256</ele>
        <time>2022-06-17T15:03:51.000Z</time>
      </trkpt>
      <trkpt lat="49.85861" lon="4.8464">
        <ele>256</ele>
        <time>2022-06-17T15:03:52.000Z</time>
      </trkpt>
      <trkpt lat="49.85862" lon="4.84643">
        <ele>256</ele>
        <time>2022-06-17T15:03:53.000Z</time>
      </trkpt>
      <trkpt lat="49.85863" lon="4.84645">
        <ele>256</ele>
        <time>2022-06-17T15:03:54.000Z</time>
      </trkpt>
      <trkpt lat="49.85864" lon="4.84648">
        <ele>257</ele>
        <time>2022-06-17T15:03:55.000Z</time>
      </trkpt>
      <trkpt lat="49.85865" lon="4.8465">
        <ele>257</ele>
        <time>2022-06-17T15:03:56.000Z</time>
      </trkpt>
      <trkpt lat="49.85866" lon="4.84652">
        <ele>257</ele>
        <time>2022-06-17T15:03:57.000Z</time>
      </trkpt>
      <trkpt lat="49.85867" lon="4.84655">
        <ele>257</ele>
        <time>2022-06-17T15:03:58.000Z</time>
      </trkpt>
      <trkpt lat="49.85869" lon="4.84658">
        <ele>257</ele>
        <time>2022-06-17T15:03:59.000Z</time>
      </trkpt>
      <trkpt lat="49.8587" lon="4.84661">
        <ele>257</ele>
        <time>2022-06-17T15:04:00.000Z</time>
      </trkpt>
      <trkpt lat="49.85871" lon="4.84665">
        <ele>257</ele>
        <time>2022-06-17T15:04:01.000Z</time>
      </trkpt>
      <trkpt lat="49.85872" lon="4.84668">
        <ele>257</ele>
        <time>2022-06-17T15:04:02.000Z</time>
      </trkpt>
      <trkpt lat="49.85874" lon="4.84672">
        <ele>258</ele>
        <time>2022-06-17T15:04:03.000Z</time>
      </trkpt>
      <trkpt lat="49.85874" lon="4.84675">
        <ele>258</ele>
        <time>2022-06-17T15:04:04.000Z</time>
      </trkpt>
      <trkpt lat="49.85874" lon="4.84679">
        <ele>258</ele>
        <time>2022-06-17T15:04:05.000Z</time>
      </trkpt>
      <trkpt lat="49.85874" lon="4.84683">
        <ele>258</ele>
        <time>2022-06-17T15:04:06.000Z</time>
      </trkpt>
      <trkpt lat="49.85875" lon="4.84687">
        <ele>257</ele>
        <time>2022-06-17T15:04:07.000Z</time>
      </trkpt>
      <trkpt lat="49.85875" lon="4.84692">
        <ele>257</ele>
        <time>2022-06-17T15:04:08.000Z</time>
      </trkpt>
      <trkpt lat="49.85875" lon="4.84696">
        <ele>257</ele>
        <time>2022-06-17T15:04:09.000Z</time>
      </trkpt>
      <trkpt lat="49.85875" lon="4.847">
        <ele>257</ele>
        <time>2022-06-17T15:04:10.000Z</time>
      </trkpt>
      <trkpt lat="49.85876" lon="4.84705">
        <ele>257</ele>
        <time>2022-06-17T15:04:11.000Z</time>
      </trkpt>
      <trkpt lat="49.85875" lon="4.84709">
        <ele>257</ele>
        <time>2022-06-17T15:04:12.000Z</time>
      </trkpt>
      <trkpt lat="49.85875" lon="4.84714">
        <ele>257</ele>
        <time>2022-06-17T15:04:13.000Z</time>
      </trkpt>
      <trkpt lat="49.85875" lon="4.84718">
        <ele>257</ele>
        <time>2022-06-17T15:04:14.000Z</time>
      </trkpt>
      <trkpt lat="49.85874" lon="4.84723">
        <ele>257</ele>
        <time>2022-06-17T15:04:15.000Z</time>
      </trkpt>
      <trkpt lat="49.85874" lon="4.84727">
        <ele>257</ele>
        <time>2022-06-17T15:04:16.000Z</time>
      </trkpt>
      <trkpt lat="49.85873" lon="4.84732">
        <ele>257</ele>
        <time>2022-06-17T15:04:17.000Z</time>
      </trkpt>
      <trkpt lat="49.85872" lon="4.84737">
        <ele>257</ele>
        <time>2022-06-17T15:04:18.000Z</time>
      </trkpt>
      <trkpt lat="49.85871" lon="4.84742">
        <ele>258</ele>
        <time>2022-06-17T15:04:19.000Z</time>
      </trkpt>
      <trkpt lat="49.8587" lon="4.84747">
        <ele>258</ele>
        <time>2022-06-17T15:04:20.000Z</time>
      </trkpt>
      <trkpt lat="49.85869" lon="4.84751">
        <ele>258</ele>
        <time>2022-06-17T15:04:21.000Z</time>
      </trkpt>
      <trkpt lat="49.85868" lon="4.84755">
        <ele>258</ele>
        <time>2022-06-17T15:04:22.000Z</time>
      </trkpt>
      <trkpt lat="49.85868" lon="4.84759">
        <ele>258</ele>
        <time>2022-06-17T15:04:23.000Z</time>
      </trkpt>
      <trkpt lat="49.85866" lon="4.84764">
        <ele>258</ele>
        <time>2022-06-17T15:04:24.000Z</time>
      </trkpt>
      <trkpt lat="49.85866" lon="4.8477">
        <ele>258</ele>
        <time>2022-06-17T15:04:25.000Z</time>
      </trkpt>
      <trkpt lat="49.85865" lon="4.84776">
        <ele>258</ele>
        <time>2022-06-17T15:04:26.000Z</time>
      </trkpt>
      <trkpt lat="49.85865" lon="4.84782">
        <ele>258</ele>
        <time>2022-06-17T15:04:27.000Z</time>
      </trkpt>
      <trkpt lat="49.85864" lon="4.84788">
        <ele>258</ele>
        <time>2022-06-17T15:04:28.000Z</time>
      </trkpt>
      <trkpt lat="49.85864" lon="4.84793">
        <ele>258</ele>
        <time>2022-06-17T15:04:29.000Z</time>
      </trkpt>
      <trkpt lat="49.85864" lon="4.84797">
        <ele>258</ele>
        <time>2022-06-17T15:04:30.000Z</time>
      </trkpt>
      <trkpt lat="49.85865" lon="4.84802">
        <ele>258</ele>
        <time>2022-06-17T15:04:31.000Z</time>
      </trkpt>
      <trkpt lat="49.85866" lon="4.84806">
        <ele>258</ele>
        <time>2022-06-17T15:04:32.000Z</time>
      </trkpt>
      <trkpt lat="49.85866" lon="4.84811">
        <ele>258</ele>
        <time>2022-06-17T15:04:33.000Z</time>
      </trkpt>
      <trkpt lat="49.85867" lon="4.84816">
        <ele>258</ele>
        <time>2022-06-17T15:04:34.000Z</time>
      </trkpt>
      <trkpt lat="49.85868" lon="4.84821">
        <ele>258</ele>
        <time>2022-06-17T15:04:35.000Z</time>
      </trkpt>
      <trkpt lat="49.85868" lon="4.84825">
        <ele>258</ele>
        <time>2022-06-17T15:04:36.000Z</time>
      </trkpt>
      <trkpt lat="49.85869" lon="4.84828">
        <ele>258</ele>
        <time>2022-06-17T15:04:37.000Z</time>
      </trkpt>
      <trkpt lat="49.8587" lon="4.84832">
        <ele>258</ele>
        <time>2022-06-17T15:04:38.000Z</time>
      </trkpt>
      <trkpt lat="49.8587" lon="4.84836">
        <ele>258</ele>
        <time>2022-06-17T15:04:39.000Z</time>
      </trkpt>
      <trkpt lat="49.8587" lon="4.84839">
        <ele>258</ele>
        <time>2022-06-17T15:04:40.000Z</time>
      </trkpt>
      <trkpt lat="49.8587" lon="4.84841">
        <ele>258</ele>
        <time>2022-06-17T15:04:41.000Z</time>
      </trkpt>
      <trkpt lat="49.85869" lon="4.84843">
        <ele>257</ele>
        <time>2022-06-17T15:04:42.000Z</time>
      </trkpt>
      <trkpt lat="49.85867" lon="4.84842">
        <ele>257</ele>
        <time>2022-06-17T15:04:43.000Z</time>
      </trkpt>
      <trkpt lat="49.85866" lon="4.8484">
        <ele>257</ele>
        <time>2022-06-17T15:04:44.000Z</time>
      </trkpt>
      <trkpt lat="49.85865" lon="4.84838">
        <ele>257</ele>
        <time>2022-06-17T15:04:45.000Z</time>
      </trkpt>
      <trkpt lat="49.85865" lon="4.84835">
        <ele>257</ele>
        <time>2022-06-17T15:04:46.000Z</time>
      </trkpt>
      <trkpt lat="49.85864" lon="4.84833">
        <ele>257</ele>
        <time>2022-06-17T15:04:47.000Z</time>
      </trkpt>
      <trkpt lat="49.85862" lon="4.84831">
        <ele>257</ele>
        <time>2022-06-17T15:04:48.000Z</time>
      </trkpt>
      <trkpt lat="49.85861" lon="4.84828">
        <ele>257</ele>
        <time>2022-06-17T15:04:49.000Z</time>
      </trkpt>
      <trkpt lat="49.8586" lon="4.84825">
        <ele>257</ele>
        <time>2022-06-17T15:04:50.000Z</time>
      </trkpt>
      <trkpt lat="49.85858" lon="4.84823">
        <ele>257</ele>
        <time>2022-06-17T15:04:51.000Z</time>
      </trkpt>
      <trkpt lat="49.85857" lon="4.8482">
        <ele>258</ele>
        <time>2022-06-17T15:04:52.000Z</time>
      </trkpt>
      <trkpt lat="49.85856" lon="4.84817">
        <ele>258</ele>
        <time>2022-06-17T15:04:53.000Z</time>
      </trkpt>
      <trkpt lat="49.85855" lon="4.84815">
        <ele>258</ele>
        <time>2022-06-17T15:04:54.000Z</time>
      </trkpt>
      <trkpt lat="49.85855" lon="4.84813">
        <ele>258</ele>
        <time>2022-06-17T15:04:55.000Z</time>
      </trkpt>
      <trkpt lat="49.85854" lon="4.8481">
        <ele>258</ele>
        <time>2022-06-17T15:04:56.000Z</time>
      </trkpt>
      <trkpt lat="49.85853" lon="4.84808">
        <ele>258</ele>
        <time>2022-06-17T15:04:57.000Z</time>
      </trkpt>
      <trkpt lat="49.85852" lon="4.84806">
        <ele>259</ele>
        <time>2022-06-17T15:04:58.000Z</time>
      </trkpt>
      <trkpt lat="49.85852" lon="4.84803">
        <ele>259</ele>
        <time>2022-06-17T15:04:59.000Z</time>
      </trkpt>
      <trkpt lat="49.85851" lon="4.848">
        <ele>259</ele>
        <time>2022-06-17T15:05:00.000Z</time>
      </trkpt>
      <trkpt lat="49.8585" lon="4.84798">
        <ele>260</ele>
        <time>2022-06-17T15:05:01.000Z</time>
      </trkpt>
      <trkpt lat="49.85849" lon="4.84795">
        <ele>260</ele>
        <time>2022-06-17T15:05:02.000Z</time>
      </trkpt>
      <trkpt lat="49.85849" lon="4.84793">
        <ele>260</ele>
        <time>2022-06-17T15:05:03.000Z</time>
      </trkpt>
      <trkpt lat="49.85848" lon="4.84791">
        <ele>261</ele>
        <time>2022-06-17T15:05:04.000Z</time>
      </trkpt>
      <trkpt lat="49.85847" lon="4.84789">
        <ele>261</ele>
        <time>2022-06-17T15:05:05.000Z</time>
      </trkpt>
      <trkpt lat="49.85847" lon="4.84787">
        <ele>262</ele>
        <time>2022-06-17T15:05:06.000Z</time>
      </trkpt>
      <trkpt lat="49.85846" lon="4.84784">
        <ele>262</ele>
        <time>2022-06-17T15:05:07.000Z</time>
      </trkpt>
      <trkpt lat="49.85845" lon="4.84782">
        <ele>262</ele>
        <time>2022-06-17T15:05:08.000Z</time>
      </trkpt>
      <trkpt lat="49.85844" lon="4.8478">
        <ele>263</ele>
        <time>2022-06-17T15:05:09.000Z</time>
      </trkpt>
      <trkpt lat="49.85844" lon="4.84777">
        <ele>263</ele>
        <time>2022-06-17T15:05:10.000Z</time>
      </trkpt>
      <trkpt lat="49.85843" lon="4.84775">
        <ele>264</ele>
        <time>2022-06-17T15:05:11.000Z</time>
      </trkpt>
      <trkpt lat="49.85843" lon="4.84772">
        <ele>264</ele>
        <time>2022-06-17T15:05:12.000Z</time>
      </trkpt>
      <trkpt lat="49.85842" lon="4.8477">
        <ele>264</ele>
        <time>2022-06-17T15:05:13.000Z</time>
      </trkpt>
      <trkpt lat="49.85841" lon="4.84767">
        <ele>265</ele>
        <time>2022-06-17T15:05:14.000Z</time>
      </trkpt>
      <trkpt lat="49.8584" lon="4.84765">
        <ele>265</ele>
        <time>2022-06-17T15:05:15.000Z</time>
      </trkpt>
      <trkpt lat="49.8584" lon="4.84762">
        <ele>265</ele>
        <time>2022-06-17T15:05:16.000Z</time>
      </trkpt>
      <trkpt lat="49.85839" lon="4.84759">
        <ele>266</ele>
        <time>2022-06-17T15:05:17.000Z</time>
      </trkpt>
      <trkpt lat="49.85838" lon="4.84756">
        <ele>266</ele>
        <time>2022-06-17T15:05:18.000Z</time>
      </trkpt>
      <trkpt lat="49.85838" lon="4.84753">
        <ele>265</ele>
        <time>2022-06-17T15:05:19.000Z</time>
      </trkpt>
      <trkpt lat="49.85838" lon="4.8475">
        <ele>265</ele>
        <time>2022-06-17T15:05:20.000Z</time>
      </trkpt>
      <trkpt lat="49.85837" lon="4.84747">
        <ele>265</ele>
        <time>2022-06-17T15:05:21.000Z</time>
      </trkpt>
      <trkpt lat="49.85836" lon="4.84744">
        <ele>265</ele>
        <time>2022-06-17T15:05:22.000Z</time>
      </trkpt>
      <trkpt lat="49.85835" lon="4.84742">
        <ele>265</ele>
        <time>2022-06-17T15:05:23.000Z</time>
      </trkpt>
      <trkpt lat="49.85834" lon="4.84741">
        <ele>265</ele>
        <time>2022-06-17T15:05:24.000Z</time>
      </trkpt>
      <trkpt lat="49.85833" lon="4.84742">
        <ele>265</ele>
        <time>2022-06-17T15:05:25.000Z</time>
      </trkpt>
      <trkpt lat="49.85832" lon="4.84744">
        <ele>265</ele>
        <time>2022-06-17T15:05:26.000Z</time>
      </trkpt>
      <trkpt lat="49.85831" lon="4.84747">
        <ele>265</ele>
        <time>2022-06-17T15:05:27.000Z</time>
      </trkpt>
      <trkpt lat="49.85832" lon="4.8475">
        <ele>265</ele>
        <time>2022-06-17T15:05:28.000Z</time>
      </trkpt>
      <trkpt lat="49.85832" lon="4.84754">
        <ele>265</ele>
        <time>2022-06-17T15:05:29.000Z</time>
      </trkpt>
      <trkpt lat="49.85833" lon="4.84758">
        <ele>265</ele>
        <time>2022-06-17T15:05:30.000Z</time>
      </trkpt>
      <trkpt lat="49.85834" lon="4.84762">
        <ele>265</ele>
        <time>2022-06-17T15:05:31.000Z</time>
      </trkpt>
      <trkpt lat="49.85834" lon="4.84766">
        <ele>264</ele>
        <time>2022-06-17T15:05:32.000Z</time>
      </trkpt>
      <trkpt lat="49.85835" lon="4.84771">
        <ele>264</ele>
        <time>2022-06-17T15:05:33.000Z</time>
      </trkpt>
      <trkpt lat="49.85837" lon="4.84775">
        <ele>264</ele>
        <time>2022-06-17T15:05:34.000Z</time>
      </trkpt>
      <trkpt lat="49.85838" lon="4.8478">
        <ele>264</ele>
        <time>2022-06-17T15:05:35.000Z</time>
      </trkpt>
      <trkpt lat="49.85839" lon="4.84783">
        <ele>264</ele>
        <time>2022-06-17T15:05:36.000Z</time>
      </trkpt>
      <trkpt lat="49.8584" lon="4.84784">
        <ele>263</ele>
        <time>2022-06-17T15:05:37.000Z</time>
      </trkpt>
      <trkpt lat="49.8584" lon="4.84784">
        <ele>263</ele>
        <time>2022-06-17T15:05:38.000Z</time>
      </trkpt>
      <trkpt lat="49.8584" lon="4.84784">
        <ele>263</ele>
        <time>2022-06-17T15:05:39.000Z</time>
      </trkpt>
      <trkpt lat="49.8584" lon="4.84784">
        <ele>263</ele>
        <time>2022-06-17T15:05:40.000Z</time>
      </trkpt>
      <trkpt lat="49.8584" lon="4.84784">
        <ele>263</ele>
        <time>2022-06-17T15:05:41.000Z</time>
      </trkpt>
      <trkpt lat="49.8584" lon="4.84784">
        <ele>263</ele>
        <time>2022-06-17T15:05:42.000Z</time>
      </trkpt>
      <trkpt lat="49.8584" lon="4.84784">
        <ele>263</ele>
        <time>2022-06-17T15:05:43.000Z</time>
      </trkpt>
      <trkpt lat="49.85841" lon="4.84784">
        <ele>263</ele>
        <time>2022-06-17T15:05:44.000Z</time>
      </trkpt>
      <trkpt lat="49.85841" lon="4.84784">
        <ele>263</ele>
        <time>2022-06-17T15:05:45.000Z</time>
      </trkpt>
      <trkpt lat="49.85841" lon="4.84785">
        <ele>263</ele>
        <time>2022-06-17T15:05:46.000Z</time>
      </trkpt>
      <trkpt lat="49.85841" lon="4.84785">
        <ele>263</ele>
        <time>2022-06-17T15:05:47.000Z</time>
      </trkpt>
      <trkpt lat="49.85841" lon="4.84785">
        <ele>263</ele>
        <time>2022-06-17T15:05:48.000Z</time>
      </trkpt>
      <trkpt lat="49.85841" lon="4.84785">
        <ele>263</ele>
        <time>2022-06-17T15:05:49.000Z</time>
      </trkpt>
      <trkpt lat="49.85841" lon="4.84785">
        <ele>264</ele>
        <time>2022-06-17T15:05:50.000Z</time>
      </trkpt>
      <trkpt lat="49.85841" lon="4.84785">
        <ele>264</ele>
        <time>2022-06-17T15:05:51.000Z</time>
      </trkpt>
      <trkpt lat="49.85841" lon="4.84785">
        <ele>264</ele>
        <time>2022-06-17T15:05:52.000Z</time>
      </trkpt>
      <trkpt lat="49.85841" lon="4.84785">
        <ele>264</ele>
        <time>2022-06-17T15:05:53.000Z</time>
      </trkpt>
      <trkpt lat="49.85841" lon="4.84785">
        <ele>264</ele>
        <time>2022-06-17T15:05:54.000Z</time>
      </trkpt>
      <trkpt lat="49.85841" lon="4.84786">
        <ele>264</ele>
        <time>2022-06-17T15:05:55.000Z</time>
      </trkpt>
      <trkpt lat="49.85841" lon="4.84786">
        <ele>264</ele>
        <time>2022-06-17T15:05:56.000Z</time>
      </trkpt>
      <trkpt lat="49.85841" lon="4.84786">
        <ele>264</ele>
        <time>2022-06-17T15:05:57.000Z</time>
      </trkpt>
      <trkpt lat="49.85841" lon="4.84786">
        <ele>264</ele>
        <time>2022-06-17T15:05:58.000Z</time>
      </trkpt>
      <trkpt lat="49.85841" lon="4.84786">
        <ele>264</ele>
        <time>2022-06-17T15:05:59.000Z</time>
      </trkpt>
      <trkpt lat="49.85841" lon="4.84787">
        <ele>264</ele>
        <time>2022-06-17T15:06:00.000Z</time>
      </trkpt>
      <trkpt lat="49.85841" lon="4.84787">
        <ele>264</ele>
        <time>2022-06-17T15:06:01.000Z</time>
      </trkpt>
      <trkpt lat="49.85841" lon="4.84787">
        <ele>264</ele>
        <time>2022-06-17T15:06:02.000Z</time>
      </trkpt>
      <trkpt lat="49.85841" lon="4.84787">
        <ele>264</ele>
        <time>2022-06-17T15:06:03.000Z</time>
      </trkpt>
      <trkpt lat="49.85841" lon="4.84787">
        <ele>264</ele>
        <time>2022-06-17T15:06:04.000Z</time>
      </trkpt>
      <trkpt lat="49.85841" lon="4.84787">
        <ele>264</ele>
        <time>2022-06-17T15:06:05.000Z</time>
      </trkpt>
      <trkpt lat="49.85841" lon="4.84787">
        <ele>264</ele>
        <time>2022-06-17T15:06:06.000Z</time>
      </trkpt>
      <trkpt lat="49.85841" lon="4.84787">
        <ele>264</ele>
        <time>2022-06-17T15:06:07.000Z</time>
      </trkpt>
      <trkpt lat="49.85841" lon="4.84787">
        <ele>264</ele>
        <time>2022-06-17T15:06:08.000Z</time>
      </trkpt>
      <trkpt lat="49.85841" lon="4.84788">
        <ele>264</ele>
        <time>2022-06-17T15:06:09.000Z</time>
      </trkpt>
      <trkpt lat="49.85841" lon="4.84788">
        <ele>264</ele>
        <time>2022-06-17T15:06:10.000Z</time>
      </trkpt>
      <trkpt lat="49.85841" lon="4.84787">
        <ele>264</ele>
        <time>2022-06-17T15:06:11.000Z</time>
      </trkpt>
      <trkpt lat="49.8584" lon="4.84787">
        <ele>264</ele>
        <time>2022-06-17T15:06:12.000Z</time>
      </trkpt>
      <trkpt lat="49.85841" lon="4.84787">
        <ele>264</ele>
        <time>2022-06-17T15:06:13.000Z</time>
      </trkpt>
      <trkpt lat="49.85841" lon="4.84787">
        <ele>264</ele>
        <time>2022-06-17T15:06:14.000Z</time>
      </trkpt>
      <trkpt lat="49.85841" lon="4.84787">
        <ele>264</ele>
        <time>2022-06-17T15:06:15.000Z</time>
      </trkpt>
      <trkpt lat="49.85841" lon="4.84788">
        <ele>264</ele>
        <time>2022-06-17T15:06:16.000Z</time>
      </trkpt>
      <trkpt lat="49.85841" lon="4.84788">
        <ele>264</ele>
        <time>2022-06-17T15:06:17.000Z</time>
      </trkpt>
      <trkpt lat="49.85841" lon="4.84788">
        <ele>264</ele>
        <time>2022-06-17T15:06:18.000Z</time>
      </trkpt>
      <trkpt lat="49.85841" lon="4.84788">
        <ele>264</ele>
        <time>2022-06-17T15:06:19.000Z</time>
      </trkpt>
      <trkpt lat="49.85841" lon="4.84788">
        <ele>264</ele>
        <time>2022-06-17T15:06:20.000Z</time>
      </trkpt>
      <trkpt lat="49.85841" lon="4.84788">
        <ele>264</ele>
        <time>2022-06-17T15:06:21.000Z</time>
      </trkpt>
      <trkpt lat="49.85842" lon="4.84788">
        <ele>264</ele>
        <time>2022-06-17T15:06:22.000Z</time>
      </trkpt>
      <trkpt lat="49.85841" lon="4.84789">
        <ele>264</ele>
        <time>2022-06-17T15:06:23.000Z</time>
      </trkpt>
      <trkpt lat="49.85841" lon="4.84789">
        <ele>264</ele>
        <time>2022-06-17T15:06:24.000Z</time>
      </trkpt>
      <trkpt lat="49.85841" lon="4.84789">
        <ele>264</ele>
        <time>2022-06-17T15:06:25.000Z</time>
      </trkpt>
      <trkpt lat="49.85841" lon="4.84789">
        <ele>264</ele>
        <time>2022-06-17T15:06:26.000Z</time>
      </trkpt>
      <trkpt lat="49.85841" lon="4.84789">
        <ele>264</ele>
        <time>2022-06-17T15:06:27.000Z</time>
      </trkpt>
      <trkpt lat="49.85842" lon="4.84789">
        <ele>264</ele>
        <time>2022-06-17T15:06:28.000Z</time>
      </trkpt>
      <trkpt lat="49.85841" lon="4.84788">
        <ele>264</ele>
        <time>2022-06-17T15:06:29.000Z</time>
      </trkpt>
      <trkpt lat="49.85841" lon="4.84788">
        <ele>264</ele>
        <time>2022-06-17T15:06:30.000Z</time>
      </trkpt>
      <trkpt lat="49.85842" lon="4.84788">
        <ele>264</ele>
        <time>2022-06-17T15:06:31.000Z</time>
      </trkpt>
      <trkpt lat="49.85842" lon="4.84788">
        <ele>264</ele>
        <time>2022-06-17T15:06:32.000Z</time>
      </trkpt>
      <trkpt lat="49.85842" lon="4.84788">
        <ele>264</ele>
        <time>2022-06-17T15:06:33.000Z</time>
      </trkpt>
      <trkpt lat="49.85842" lon="4.84788">
        <ele>264</ele>
        <time>2022-06-17T15:06:34.000Z</time>
      </trkpt>
      <trkpt lat="49.85842" lon="4.84788">
        <ele>264</ele>
        <time>2022-06-17T15:06:35.000Z</time>
      </trkpt>
      <trkpt lat="49.85842" lon="4.84788">
        <ele>264</ele>
        <time>2022-06-17T15:06:36.000Z</time>
      </trkpt>
      <trkpt lat="49.85842" lon="4.84788">
        <ele>264</ele>
        <time>2022-06-17T15:06:37.000Z</time>
      </trkpt>
      <trkpt lat="49.85842" lon="4.84788">
        <ele>264</ele>
        <time>2022-06-17T15:06:38.000Z</time>
      </trkpt>
      <trkpt lat="49.85842" lon="4.84788">
        <ele>264</ele>
        <time>2022-06-17T15:06:39.000Z</time>
      </trkpt>
      <trkpt lat="49.85842" lon="4.84788">
        <ele>264</ele>
        <time>2022-06-17T15:06:40.000Z</time>
      </trkpt>
      <trkpt lat="49.85843" lon="4.84788">
        <ele>264</ele>
        <time>2022-06-17T15:06:41.000Z</time>
      </trkpt>
      <trkpt lat="49.85843" lon="4.84788">
        <ele>264</ele>
        <time>2022-06-17T15:06:42.000Z</time>
      </trkpt>
      <trkpt lat="49.85844" lon="4.84789">
        <ele>264</ele>
        <time>2022-06-17T15:06:43.000Z</time>
      </trkpt>
      <trkpt lat="49.85844" lon="4.84789">
        <ele>264</ele>
        <time>2022-06-17T15:06:44.000Z</time>
      </trkpt>
      <trkpt lat="49.85844" lon="4.84789">
        <ele>264</ele>
        <time>2022-06-17T15:06:45.000Z</time>
      </trkpt>
      <trkpt lat="49.85844" lon="4.84789">
        <ele>264</ele>
        <time>2022-06-17T15:06:46.000Z</time>
      </trkpt>
      <trkpt lat="49.85844" lon="4.84789">
        <ele>264</ele>
        <time>2022-06-17T15:06:47.000Z</time>
      </trkpt>
      <trkpt lat="49.85844" lon="4.84789">
        <ele>265</ele>
        <time>2022-06-17T15:06:48.000Z</time>
      </trkpt>
      <trkpt lat="49.85845" lon="4.8479">
        <ele>265</ele>
        <time>2022-06-17T15:06:49.000Z</time>
      </trkpt>
      <trkpt lat="49.85845" lon="4.84792">
        <ele>265</ele>
        <time>2022-06-17T15:06:50.000Z</time>
      </trkpt>
      <trkpt lat="49.85845" lon="4.84795">
        <ele>265</ele>
        <time>2022-06-17T15:06:51.000Z</time>
      </trkpt>
      <trkpt lat="49.85845" lon="4.84797">
        <ele>265</ele>
        <time>2022-06-17T15:06:52.000Z</time>
      </trkpt>
      <trkpt lat="49.85846" lon="4.84799">
        <ele>265</ele>
        <time>2022-06-17T15:06:53.000Z</time>
      </trkpt>
      <trkpt lat="49.85847" lon="4.84802">
        <ele>265</ele>
        <time>2022-06-17T15:06:54.000Z</time>
      </trkpt>
      <trkpt lat="49.85848" lon="4.84806">
        <ele>265</ele>
        <time>2022-06-17T15:06:55.000Z</time>
      </trkpt>
      <trkpt lat="49.85849" lon="4.84811">
        <ele>264</ele>
        <time>2022-06-17T15:06:56.000Z</time>
      </trkpt>
      <trkpt lat="49.85851" lon="4.84815">
        <ele>264</ele>
        <time>2022-06-17T15:06:57.000Z</time>
      </trkpt>
      <trkpt lat="49.85853" lon="4.84821">
        <ele>264</ele>
        <time>2022-06-17T15:06:58.000Z</time>
      </trkpt>
      <trkpt lat="49.85855" lon="4.84827">
        <ele>264</ele>
        <time>2022-06-17T15:06:59.000Z</time>
      </trkpt>
      <trkpt lat="49.85857" lon="4.84833">
        <ele>264</ele>
        <time>2022-06-17T15:07:00.000Z</time>
      </trkpt>
      <trkpt lat="49.85859" lon="4.84841">
        <ele>264</ele>
        <time>2022-06-17T15:07:01.000Z</time>
      </trkpt>
      <trkpt lat="49.85861" lon="4.84848">
        <ele>264</ele>
        <time>2022-06-17T15:07:02.000Z</time>
      </trkpt>
      <trkpt lat="49.85863" lon="4.84856">
        <ele>263</ele>
        <time>2022-06-17T15:07:03.000Z</time>
      </trkpt>
      <trkpt lat="49.85864" lon="4.84865">
        <ele>263</ele>
        <time>2022-06-17T15:07:04.000Z</time>
      </trkpt>
      <trkpt lat="49.85865" lon="4.84874">
        <ele>262</ele>
        <time>2022-06-17T15:07:05.000Z</time>
      </trkpt>
      <trkpt lat="49.85866" lon="4.84883">
        <ele>262</ele>
        <time>2022-06-17T15:07:06.000Z</time>
      </trkpt>
      <trkpt lat="49.85865" lon="4.84893">
        <ele>262</ele>
        <time>2022-06-17T15:07:07.000Z</time>
      </trkpt>
      <trkpt lat="49.85865" lon="4.84902">
        <ele>261</ele>
        <time>2022-06-17T15:07:08.000Z</time>
      </trkpt>
      <trkpt lat="49.85864" lon="4.84911">
        <ele>261</ele>
        <time>2022-06-17T15:07:09.000Z</time>
      </trkpt>
      <trkpt lat="49.85862" lon="4.8492">
        <ele>261</ele>
        <time>2022-06-17T15:07:10.000Z</time>
      </trkpt>
      <trkpt lat="49.85859" lon="4.84929">
        <ele>260</ele>
        <time>2022-06-17T15:07:11.000Z</time>
      </trkpt>
      <trkpt lat="49.85856" lon="4.84937">
        <ele>260</ele>
        <time>2022-06-17T15:07:12.000Z</time>
      </trkpt>
      <trkpt lat="49.85852" lon="4.84944">
        <ele>260</ele>
        <time>2022-06-17T15:07:13.000Z</time>
      </trkpt>
      <trkpt lat="49.85847" lon="4.84951">
        <ele>260</ele>
        <time>2022-06-17T15:07:14.000Z</time>
      </trkpt>
      <trkpt lat="49.85841" lon="4.84957">
        <ele>260</ele>
        <time>2022-06-17T15:07:15.000Z</time>
      </trkpt>
      <trkpt lat="49.85835" lon="4.84962">
        <ele>259</ele>
        <time>2022-06-17T15:07:16.000Z</time>
      </trkpt>
      <trkpt lat="49.85828" lon="4.84966">
        <ele>259</ele>
        <time>2022-06-17T15:07:17.000Z</time>
      </trkpt>
      <trkpt lat="49.85821" lon="4.8497">
        <ele>259</ele>
        <time>2022-06-17T15:07:18.000Z</time>
      </trkpt>
      <trkpt lat="49.85814" lon="4.84973">
        <ele>259</ele>
        <time>2022-06-17T15:07:19.000Z</time>
      </trkpt>
      <trkpt lat="49.85806" lon="4.84975">
        <ele>259</ele>
        <time>2022-06-17T15:07:20.000Z</time>
      </trkpt>
      <trkpt lat="49.85799" lon="4.84976">
        <ele>259</ele>
        <time>2022-06-17T15:07:21.000Z</time>
      </trkpt>
      <trkpt lat="49.85791" lon="4.84976">
        <ele>259</ele>
        <time>2022-06-17T15:07:22.000Z</time>
      </trkpt>
      <trkpt lat="49.85783" lon="4.84976">
        <ele>258</ele>
        <time>2022-06-17T15:07:23.000Z</time>
      </trkpt>
      <trkpt lat="49.85776" lon="4.84975">
        <ele>258</ele>
        <time>2022-06-17T15:07:24.000Z</time>
      </trkpt>
      <trkpt lat="49.85768" lon="4.84974">
        <ele>258</ele>
        <time>2022-06-17T15:07:25.000Z</time>
      </trkpt>
      <trkpt lat="49.85761" lon="4.84973">
        <ele>258</ele>
        <time>2022-06-17T15:07:26.000Z</time>
      </trkpt>
      <trkpt lat="49.85754" lon="4.84971">
        <ele>258</ele>
        <time>2022-06-17T15:07:27.000Z</time>
      </trkpt>
      <trkpt lat="49.85747" lon="4.84969">
        <ele>258</ele>
        <time>2022-06-17T15:07:28.000Z</time>
      </trkpt>
      <trkpt lat="49.85739" lon="4.84967">
        <ele>258</ele>
        <time>2022-06-17T15:07:29.000Z</time>
      </trkpt>
      <trkpt lat="49.85731" lon="4.84965">
        <ele>258</ele>
        <time>2022-06-17T15:07:30.000Z</time>
      </trkpt>
      <trkpt lat="49.85723" lon="4.84963">
        <ele>258</ele>
        <time>2022-06-17T15:07:31.000Z</time>
      </trkpt>
      <trkpt lat="49.85715" lon="4.84961">
        <ele>258</ele>
        <time>2022-06-17T15:07:32.000Z</time>
      </trkpt>
      <trkpt lat="49.85706" lon="4.8496">
        <ele>258</ele>
        <time>2022-06-17T15:07:33.000Z</time>
      </trkpt>
      <trkpt lat="49.85698" lon="4.84958">
        <ele>259</ele>
        <time>2022-06-17T15:07:34.000Z</time>
      </trkpt>
      <trkpt lat="49.85689" lon="4.84957">
        <ele>258</ele>
        <time>2022-06-17T15:07:35.000Z</time>
      </trkpt>
      <trkpt lat="49.85681" lon="4.84956">
        <ele>258</ele>
        <time>2022-06-17T15:07:36.000Z</time>
      </trkpt>
      <trkpt lat="49.85673" lon="4.84955">
        <ele>258</ele>
        <time>2022-06-17T15:07:37.000Z</time>
      </trkpt>
      <trkpt lat="49.85664" lon="4.84954">
        <ele>258</ele>
        <time>2022-06-17T15:07:38.000Z</time>
      </trkpt>
      <trkpt lat="49.85656" lon="4.84953">
        <ele>258</ele>
        <time>2022-06-17T15:07:39.000Z</time>
      </trkpt>
      <trkpt lat="49.85648" lon="4.84952">
        <ele>258</ele>
        <time>2022-06-17T15:07:40.000Z</time>
      </trkpt>
      <trkpt lat="49.85639" lon="4.84952">
        <ele>257</ele>
        <time>2022-06-17T15:07:41.000Z</time>
      </trkpt>
      <trkpt lat="49.85631" lon="4.84951">
        <ele>257</ele>
        <time>2022-06-17T15:07:42.000Z</time>
      </trkpt>
      <trkpt lat="49.85623" lon="4.84951">
        <ele>257</ele>
        <time>2022-06-17T15:07:43.000Z</time>
      </trkpt>
      <trkpt lat="49.85615" lon="4.84949">
        <ele>257</ele>
        <time>2022-06-17T15:07:44.000Z</time>
      </trkpt>
      <trkpt lat="49.85607" lon="4.84948">
        <ele>257</ele>
        <time>2022-06-17T15:07:45.000Z</time>
      </trkpt>
      <trkpt lat="49.856" lon="4.84945">
        <ele>256</ele>
        <time>2022-06-17T15:07:46.000Z</time>
      </trkpt>
      <trkpt lat="49.85593" lon="4.84942">
        <ele>256</ele>
        <time>2022-06-17T15:07:47.000Z</time>
      </trkpt>
      <trkpt lat="49.85587" lon="4.84938">
        <ele>256</ele>
        <time>2022-06-17T15:07:48.000Z</time>
      </trkpt>
      <trkpt lat="49.85581" lon="4.84933">
        <ele>256</ele>
        <time>2022-06-17T15:07:49.000Z</time>
      </trkpt>
      <trkpt lat="49.85576" lon="4.84928">
        <ele>256</ele>
        <time>2022-06-17T15:07:50.000Z</time>
      </trkpt>
      <trkpt lat="49.85572" lon="4.84923">
        <ele>256</ele>
        <time>2022-06-17T15:07:51.000Z</time>
      </trkpt>
      <trkpt lat="49.85568" lon="4.84918">
        <ele>256</ele>
        <time>2022-06-17T15:07:52.000Z</time>
      </trkpt>
      <trkpt lat="49.85563" lon="4.84914">
        <ele>256</ele>
        <time>2022-06-17T15:07:53.000Z</time>
      </trkpt>
      <trkpt lat="49.8556" lon="4.84909">
        <ele>255</ele>
        <time>2022-06-17T15:07:54.000Z</time>
      </trkpt>
      <trkpt lat="49.85557" lon="4.84905">
        <ele>255</ele>
        <time>2022-06-17T15:07:55.000Z</time>
      </trkpt>
      <trkpt lat="49.85554" lon="4.84901">
        <ele>255</ele>
        <time>2022-06-17T15:07:56.000Z</time>
      </trkpt>
      <trkpt lat="49.85551" lon="4.84897">
        <ele>255</ele>
        <time>2022-06-17T15:07:57.000Z</time>
      </trkpt>
      <trkpt lat="49.85548" lon="4.84894">
        <ele>255</ele>
        <time>2022-06-17T15:07:58.000Z</time>
      </trkpt>
      <trkpt lat="49.85546" lon="4.84892">
        <ele>255</ele>
        <time>2022-06-17T15:07:59.000Z</time>
      </trkpt>
      <trkpt lat="49.85544" lon="4.84889">
        <ele>255</ele>
        <time>2022-06-17T15:08:00.000Z</time>
      </trkpt>
      <trkpt lat="49.85542" lon="4.84887">
        <ele>255</ele>
        <time>2022-06-17T15:08:01.000Z</time>
      </trkpt>
      <trkpt lat="49.85539" lon="4.84884">
        <ele>255</ele>
        <time>2022-06-17T15:08:02.000Z</time>
      </trkpt>
      <trkpt lat="49.85536" lon="4.84881">
        <ele>255</ele>
        <time>2022-06-17T15:08:03.000Z</time>
      </trkpt>
      <trkpt lat="49.85533" lon="4.84878">
        <ele>255</ele>
        <time>2022-06-17T15:08:04.000Z</time>
      </trkpt>
      <trkpt lat="49.8553" lon="4.84875">
        <ele>255</ele>
        <time>2022-06-17T15:08:05.000Z</time>
      </trkpt>
      <trkpt lat="49.85527" lon="4.84873">
        <ele>255</ele>
        <time>2022-06-17T15:08:06.000Z</time>
      </trkpt>
      <trkpt lat="49.85523" lon="4.8487">
        <ele>255</ele>
        <time>2022-06-17T15:08:07.000Z</time>
      </trkpt>
      <trkpt lat="49.8552" lon="4.84867">
        <ele>255</ele>
        <time>2022-06-17T15:08:08.000Z</time>
      </trkpt>
      <trkpt lat="49.85516" lon="4.84864">
        <ele>255</ele>
        <time>2022-06-17T15:08:09.000Z</time>
      </trkpt>
      <trkpt lat="49.85513" lon="4.84861">
        <ele>255</ele>
        <time>2022-06-17T15:08:10.000Z</time>
      </trkpt>
      <trkpt lat="49.8551" lon="4.84859">
        <ele>255</ele>
        <time>2022-06-17T15:08:11.000Z</time>
      </trkpt>
      <trkpt lat="49.85507" lon="4.84855">
        <ele>256</ele>
        <time>2022-06-17T15:08:12.000Z</time>
      </trkpt>
      <trkpt lat="49.85503" lon="4.84853">
        <ele>256</ele>
        <time>2022-06-17T15:08:13.000Z</time>
      </trkpt>
      <trkpt lat="49.855" lon="4.8485">
        <ele>256</ele>
        <time>2022-06-17T15:08:14.000Z</time>
      </trkpt>
      <trkpt lat="49.85497" lon="4.84847">
        <ele>256</ele>
        <time>2022-06-17T15:08:15.000Z</time>
      </trkpt>
      <trkpt lat="49.85495" lon="4.84843">
        <ele>256</ele>
        <time>2022-06-17T15:08:16.000Z</time>
      </trkpt>
      <trkpt lat="49.85493" lon="4.8484">
        <ele>256</ele>
        <time>2022-06-17T15:08:17.000Z</time>
      </trkpt>
      <trkpt lat="49.8549" lon="4.84838">
        <ele>256</ele>
        <time>2022-06-17T15:08:18.000Z</time>
      </trkpt>
      <trkpt lat="49.85487" lon="4.84835">
        <ele>256</ele>
        <time>2022-06-17T15:08:19.000Z</time>
      </trkpt>
      <trkpt lat="49.85483" lon="4.84833">
        <ele>256</ele>
        <time>2022-06-17T15:08:20.000Z</time>
      </trkpt>
      <trkpt lat="49.85479" lon="4.8483">
        <ele>256</ele>
        <time>2022-06-17T15:08:21.000Z</time>
      </trkpt>
      <trkpt lat="49.85476" lon="4.84828">
        <ele>256</ele>
        <time>2022-06-17T15:08:22.000Z</time>
      </trkpt>
      <trkpt lat="49.85473" lon="4.84825">
        <ele>256</ele>
        <time>2022-06-17T15:08:23.000Z</time>
      </trkpt>
      <trkpt lat="49.8547" lon="4.84822">
        <ele>256</ele>
        <time>2022-06-17T15:08:24.000Z</time>
      </trkpt>
      <trkpt lat="49.85466" lon="4.8482">
        <ele>256</ele>
        <time>2022-06-17T15:08:25.000Z</time>
      </trkpt>
      <trkpt lat="49.85463" lon="4.84817">
        <ele>256</ele>
        <time>2022-06-17T15:08:26.000Z</time>
      </trkpt>
      <trkpt lat="49.85459" lon="4.84815">
        <ele>256</ele>
        <time>2022-06-17T15:08:27.000Z</time>
      </trkpt>
      <trkpt lat="49.85456" lon="4.84814">
        <ele>257</ele>
        <time>2022-06-17T15:08:28.000Z</time>
      </trkpt>
      <trkpt lat="49.85453" lon="4.84812">
        <ele>257</ele>
        <time>2022-06-17T15:08:29.000Z</time>
      </trkpt>
      <trkpt lat="49.85449" lon="4.84811">
        <ele>257</ele>
        <time>2022-06-17T15:08:30.000Z</time>
      </trkpt>
      <trkpt lat="49.85445" lon="4.84811">
        <ele>257</ele>
        <time>2022-06-17T15:08:31.000Z</time>
      </trkpt>
      <trkpt lat="49.85442" lon="4.84811">
        <ele>257</ele>
        <time>2022-06-17T15:08:32.000Z</time>
      </trkpt>
      <trkpt lat="49.85439" lon="4.84813">
        <ele>257</ele>
        <time>2022-06-17T15:08:33.000Z</time>
      </trkpt>
      <trkpt lat="49.85436" lon="4.84815">
        <ele>257</ele>
        <time>2022-06-17T15:08:34.000Z</time>
      </trkpt>
      <trkpt lat="49.85435" lon="4.84817">
        <ele>257</ele>
        <time>2022-06-17T15:08:35.000Z</time>
      </trkpt>
      <trkpt lat="49.85433" lon="4.84819">
        <ele>257</ele>
        <time>2022-06-17T15:08:36.000Z</time>
      </trkpt>
      <trkpt lat="49.85431" lon="4.84821">
        <ele>257</ele>
        <time>2022-06-17T15:08:37.000Z</time>
      </trkpt>
      <trkpt lat="49.85429" lon="4.84825">
        <ele>258</ele>
        <time>2022-06-17T15:08:38.000Z</time>
      </trkpt>
      <trkpt lat="49.85426" lon="4.8483">
        <ele>258</ele>
        <time>2022-06-17T15:08:39.000Z</time>
      </trkpt>
      <trkpt lat="49.85425" lon="4.84835">
        <ele>259</ele>
        <time>2022-06-17T15:08:40.000Z</time>
      </trkpt>
      <trkpt lat="49.85424" lon="4.8484">
        <ele>259</ele>
        <time>2022-06-17T15:08:41.000Z</time>
      </trkpt>
      <trkpt lat="49.85423" lon="4.84846">
        <ele>260</ele>
        <time>2022-06-17T15:08:42.000Z</time>
      </trkpt>
      <trkpt lat="49.85422" lon="4.84852">
        <ele>260</ele>
        <time>2022-06-17T15:08:43.000Z</time>
      </trkpt>
      <trkpt lat="49.85421" lon="4.84857">
        <ele>261</ele>
        <time>2022-06-17T15:08:44.000Z</time>
      </trkpt>
      <trkpt lat="49.85421" lon="4.84864">
        <ele>261</ele>
        <time>2022-06-17T15:08:45.000Z</time>
      </trkpt>
      <trkpt lat="49.8542" lon="4.8487">
        <ele>262</ele>
        <time>2022-06-17T15:08:46.000Z</time>
      </trkpt>
      <trkpt lat="49.8542" lon="4.84876">
        <ele>262</ele>
        <time>2022-06-17T15:08:47.000Z</time>
      </trkpt>
      <trkpt lat="49.85419" lon="4.84883">
        <ele>263</ele>
        <time>2022-06-17T15:08:48.000Z</time>
      </trkpt>
      <trkpt lat="49.85419" lon="4.8489">
        <ele>263</ele>
        <time>2022-06-17T15:08:49.000Z</time>
      </trkpt>
      <trkpt lat="49.85418" lon="4.84896">
        <ele>263</ele>
        <time>2022-06-17T15:08:50.000Z</time>
      </trkpt>
      <trkpt lat="49.85418" lon="4.84903">
        <ele>264</ele>
        <time>2022-06-17T15:08:51.000Z</time>
      </trkpt>
      <trkpt lat="49.85417" lon="4.84909">
        <ele>264</ele>
        <time>2022-06-17T15:08:52.000Z</time>
      </trkpt>
      <trkpt lat="49.85418" lon="4.84916">
        <ele>264</ele>
        <time>2022-06-17T15:08:53.000Z</time>
      </trkpt>
      <trkpt lat="49.85418" lon="4.84923">
        <ele>264</ele>
        <time>2022-06-17T15:08:54.000Z</time>
      </trkpt>
      <trkpt lat="49.85417" lon="4.84929">
        <ele>264</ele>
        <time>2022-06-17T15:08:55.000Z</time>
      </trkpt>
      <trkpt lat="49.85417" lon="4.84936">
        <ele>264</ele>
        <time>2022-06-17T15:08:56.000Z</time>
      </trkpt>
      <trkpt lat="49.85417" lon="4.84943">
        <ele>264</ele>
        <time>2022-06-17T15:08:57.000Z</time>
      </trkpt>
      <trkpt lat="49.85417" lon="4.84949">
        <ele>264</ele>
        <time>2022-06-17T15:08:58.000Z</time>
      </trkpt>
      <trkpt lat="49.85416" lon="4.84956">
        <ele>264</ele>
        <time>2022-06-17T15:08:59.000Z</time>
      </trkpt>
      <trkpt lat="49.85415" lon="4.84963">
        <ele>264</ele>
        <time>2022-06-17T15:09:00.000Z</time>
      </trkpt>
      <trkpt lat="49.85414" lon="4.84969">
        <ele>264</ele>
        <time>2022-06-17T15:09:01.000Z</time>
      </trkpt>
      <trkpt lat="49.85412" lon="4.84975">
        <ele>265</ele>
        <time>2022-06-17T15:09:02.000Z</time>
      </trkpt>
      <trkpt lat="49.85409" lon="4.84981">
        <ele>265</ele>
        <time>2022-06-17T15:09:03.000Z</time>
      </trkpt>
      <trkpt lat="49.85406" lon="4.84985">
        <ele>265</ele>
        <time>2022-06-17T15:09:04.000Z</time>
      </trkpt>
      <trkpt lat="49.85402" lon="4.84989">
        <ele>265</ele>
        <time>2022-06-17T15:09:05.000Z</time>
      </trkpt>
      <trkpt lat="49.85398" lon="4.84992">
        <ele>265</ele>
        <time>2022-06-17T15:09:06.000Z</time>
      </trkpt>
      <trkpt lat="49.85393" lon="4.84994">
        <ele>265</ele>
        <time>2022-06-17T15:09:07.000Z</time>
      </trkpt>
      <trkpt lat="49.85389" lon="4.84995">
        <ele>265</ele>
        <time>2022-06-17T15:09:08.000Z</time>
      </trkpt>
      <trkpt lat="49.85385" lon="4.84996">
        <ele>265</ele>
        <time>2022-06-17T15:09:09.000Z</time>
      </trkpt>
      <trkpt lat="49.8538" lon="4.84996">
        <ele>265</ele>
        <time>2022-06-17T15:09:10.000Z</time>
      </trkpt>
      <trkpt lat="49.85376" lon="4.84996">
        <ele>265</ele>
        <time>2022-06-17T15:09:11.000Z</time>
      </trkpt>
      <trkpt lat="49.85372" lon="4.84996">
        <ele>265</ele>
        <time>2022-06-17T15:09:12.000Z</time>
      </trkpt>
      <trkpt lat="49.85367" lon="4.84995">
        <ele>265</ele>
        <time>2022-06-17T15:09:13.000Z</time>
      </trkpt>
      <trkpt lat="49.85363" lon="4.84995">
        <ele>265</ele>
        <time>2022-06-17T15:09:14.000Z</time>
      </trkpt>
      <trkpt lat="49.85359" lon="4.84994">
        <ele>265</ele>
        <time>2022-06-17T15:09:15.000Z</time>
      </trkpt>
      <trkpt lat="49.85355" lon="4.84993">
        <ele>265</ele>
        <time>2022-06-17T15:09:16.000Z</time>
      </trkpt>
      <trkpt lat="49.85352" lon="4.84994">
        <ele>265</ele>
        <time>2022-06-17T15:09:17.000Z</time>
      </trkpt>
      <trkpt lat="49.85348" lon="4.84993">
        <ele>266</ele>
        <time>2022-06-17T15:09:18.000Z</time>
      </trkpt>
      <trkpt lat="49.85344" lon="4.84993">
        <ele>266</ele>
        <time>2022-06-17T15:09:19.000Z</time>
      </trkpt>
      <trkpt lat="49.8534" lon="4.84991">
        <ele>266</ele>
        <time>2022-06-17T15:09:20.000Z</time>
      </trkpt>
      <trkpt lat="49.85336" lon="4.84989">
        <ele>266</ele>
        <time>2022-06-17T15:09:21.000Z</time>
      </trkpt>
      <trkpt lat="49.85333" lon="4.84988">
        <ele>266</ele>
        <time>2022-06-17T15:09:22.000Z</time>
      </trkpt>
      <trkpt lat="49.85328" lon="4.84988">
        <ele>266</ele>
        <time>2022-06-17T15:09:23.000Z</time>
      </trkpt>
      <trkpt lat="49.85324" lon="4.84987">
        <ele>266</ele>
        <time>2022-06-17T15:09:24.000Z</time>
      </trkpt>
      <trkpt lat="49.8532" lon="4.84986">
        <ele>266</ele>
        <time>2022-06-17T15:09:25.000Z</time>
      </trkpt>
      <trkpt lat="49.85315" lon="4.84986">
        <ele>266</ele>
        <time>2022-06-17T15:09:26.000Z</time>
      </trkpt>
      <trkpt lat="49.85311" lon="4.84986">
        <ele>266</ele>
        <time>2022-06-17T15:09:27.000Z</time>
      </trkpt>
      <trkpt lat="49.85307" lon="4.84985">
        <ele>266</ele>
        <time>2022-06-17T15:09:28.000Z</time>
      </trkpt>
      <trkpt lat="49.85303" lon="4.84985">
        <ele>266</ele>
        <time>2022-06-17T15:09:29.000Z</time>
      </trkpt>
      <trkpt lat="49.85299" lon="4.84986">
        <ele>266</ele>
        <time>2022-06-17T15:09:30.000Z</time>
      </trkpt>
      <trkpt lat="49.85294" lon="4.84986">
        <ele>266</ele>
        <time>2022-06-17T15:09:31.000Z</time>
      </trkpt>
      <trkpt lat="49.85289" lon="4.84987">
        <ele>266</ele>
        <time>2022-06-17T15:09:32.000Z</time>
      </trkpt>
      <trkpt lat="49.85285" lon="4.84988">
        <ele>266</ele>
        <time>2022-06-17T15:09:33.000Z</time>
      </trkpt>
      <trkpt lat="49.8528" lon="4.84988">
        <ele>266</ele>
        <time>2022-06-17T15:09:34.000Z</time>
      </trkpt>
      <trkpt lat="49.85275" lon="4.84989">
        <ele>267</ele>
        <time>2022-06-17T15:09:35.000Z</time>
      </trkpt>
      <trkpt lat="49.8527" lon="4.8499">
        <ele>267</ele>
        <time>2022-06-17T15:09:36.000Z</time>
      </trkpt>
      <trkpt lat="49.85265" lon="4.84991">
        <ele>267</ele>
        <time>2022-06-17T15:09:37.000Z</time>
      </trkpt>
      <trkpt lat="49.8526" lon="4.84992">
        <ele>267</ele>
        <time>2022-06-17T15:09:38.000Z</time>
      </trkpt>
      <trkpt lat="49.85255" lon="4.84993">
        <ele>267</ele>
        <time>2022-06-17T15:09:39.000Z</time>
      </trkpt>
      <trkpt lat="49.8525" lon="4.84995">
        <ele>267</ele>
        <time>2022-06-17T15:09:40.000Z</time>
      </trkpt>
      <trkpt lat="49.85245" lon="4.84997">
        <ele>267</ele>
        <time>2022-06-17T15:09:41.000Z</time>
      </trkpt>
      <trkpt lat="49.8524" lon="4.84998">
        <ele>267</ele>
        <time>2022-06-17T15:09:42.000Z</time>
      </trkpt>
      <trkpt lat="49.85234" lon="4.85">
        <ele>267</ele>
        <time>2022-06-17T15:09:43.000Z</time>
      </trkpt>
      <trkpt lat="49.85229" lon="4.85002">
        <ele>267</ele>
        <time>2022-06-17T15:09:44.000Z</time>
      </trkpt>
      <trkpt lat="49.85225" lon="4.85005">
        <ele>267</ele>
        <time>2022-06-17T15:09:45.000Z</time>
      </trkpt>
      <trkpt lat="49.8522" lon="4.85008">
        <ele>267</ele>
        <time>2022-06-17T15:09:46.000Z</time>
      </trkpt>
      <trkpt lat="49.85216" lon="4.85011">
        <ele>267</ele>
        <time>2022-06-17T15:09:47.000Z</time>
      </trkpt>
      <trkpt lat="49.85212" lon="4.85015">
        <ele>267</ele>
        <time>2022-06-17T15:09:48.000Z</time>
      </trkpt>
      <trkpt lat="49.85208" lon="4.85019">
        <ele>267</ele>
        <time>2022-06-17T15:09:49.000Z</time>
      </trkpt>
      <trkpt lat="49.85204" lon="4.85023">
        <ele>267</ele>
        <time>2022-06-17T15:09:50.000Z</time>
      </trkpt>
      <trkpt lat="49.852" lon="4.85027">
        <ele>268</ele>
        <time>2022-06-17T15:09:51.000Z</time>
      </trkpt>
      <trkpt lat="49.85196" lon="4.85032">
        <ele>268</ele>
        <time>2022-06-17T15:09:52.000Z</time>
      </trkpt>
      <trkpt lat="49.85192" lon="4.85036">
        <ele>268</ele>
        <time>2022-06-17T15:09:53.000Z</time>
      </trkpt>
      <trkpt lat="49.85188" lon="4.8504">
        <ele>268</ele>
        <time>2022-06-17T15:09:54.000Z</time>
      </trkpt>
      <trkpt lat="49.85183" lon="4.85045">
        <ele>268</ele>
        <time>2022-06-17T15:09:55.000Z</time>
      </trkpt>
      <trkpt lat="49.85179" lon="4.85049">
        <ele>268</ele>
        <time>2022-06-17T15:09:56.000Z</time>
      </trkpt>
      <trkpt lat="49.85175" lon="4.85052">
        <ele>268</ele>
        <time>2022-06-17T15:09:57.000Z</time>
      </trkpt>
      <trkpt lat="49.85172" lon="4.85056">
        <ele>269</ele>
        <time>2022-06-17T15:09:58.000Z</time>
      </trkpt>
      <trkpt lat="49.85168" lon="4.8506">
        <ele>269</ele>
        <time>2022-06-17T15:09:59.000Z</time>
      </trkpt>
      <trkpt lat="49.85164" lon="4.85063">
        <ele>269</ele>
        <time>2022-06-17T15:10:00.000Z</time>
      </trkpt>
      <trkpt lat="49.8516" lon="4.85066">
        <ele>269</ele>
        <time>2022-06-17T15:10:01.000Z</time>
      </trkpt>
      <trkpt lat="49.85156" lon="4.8507">
        <ele>270</ele>
        <time>2022-06-17T15:10:02.000Z</time>
      </trkpt>
      <trkpt lat="49.85153" lon="4.85073">
        <ele>270</ele>
        <time>2022-06-17T15:10:03.000Z</time>
      </trkpt>
      <trkpt lat="49.85149" lon="4.85077">
        <ele>270</ele>
        <time>2022-06-17T15:10:04.000Z</time>
      </trkpt>
      <trkpt lat="49.85145" lon="4.85081">
        <ele>270</ele>
        <time>2022-06-17T15:10:05.000Z</time>
      </trkpt>
      <trkpt lat="49.85141" lon="4.85084">
        <ele>271</ele>
        <time>2022-06-17T15:10:06.000Z</time>
      </trkpt>
      <trkpt lat="49.85137" lon="4.85088">
        <ele>271</ele>
        <time>2022-06-17T15:10:07.000Z</time>
      </trkpt>
      <trkpt lat="49.85134" lon="4.85092">
        <ele>271</ele>
        <time>2022-06-17T15:10:08.000Z</time>
      </trkpt>
      <trkpt lat="49.8513" lon="4.85095">
        <ele>272</ele>
        <time>2022-06-17T15:10:09.000Z</time>
      </trkpt>
      <trkpt lat="49.85127" lon="4.85099">
        <ele>272</ele>
        <time>2022-06-17T15:10:10.000Z</time>
      </trkpt>
      <trkpt lat="49.85123" lon="4.85103">
        <ele>272</ele>
        <time>2022-06-17T15:10:11.000Z</time>
      </trkpt>
      <trkpt lat="49.85119" lon="4.85107">
        <ele>272</ele>
        <time>2022-06-17T15:10:12.000Z</time>
      </trkpt>
      <trkpt lat="49.85115" lon="4.85111">
        <ele>272</ele>
        <time>2022-06-17T15:10:13.000Z</time>
      </trkpt>
      <trkpt lat="49.85111" lon="4.85115">
        <ele>273</ele>
        <time>2022-06-17T15:10:14.000Z</time>
      </trkpt>
      <trkpt lat="49.85107" lon="4.85119">
        <ele>273</ele>
        <time>2022-06-17T15:10:15.000Z</time>
      </trkpt>
      <trkpt lat="49.85102" lon="4.85123">
        <ele>273</ele>
        <time>2022-06-17T15:10:16.000Z</time>
      </trkpt>
      <trkpt lat="49.85097" lon="4.85127">
        <ele>273</ele>
        <time>2022-06-17T15:10:17.000Z</time>
      </trkpt>
      <trkpt lat="49.85092" lon="4.85131">
        <ele>274</ele>
        <time>2022-06-17T15:10:18.000Z</time>
      </trkpt>
      <trkpt lat="49.85087" lon="4.85135">
        <ele>274</ele>
        <time>2022-06-17T15:10:19.000Z</time>
      </trkpt>
      <trkpt lat="49.85083" lon="4.85138">
        <ele>274</ele>
        <time>2022-06-17T15:10:20.000Z</time>
      </trkpt>
      <trkpt lat="49.85078" lon="4.85142">
        <ele>274</ele>
        <time>2022-06-17T15:10:21.000Z</time>
      </trkpt>
      <trkpt lat="49.85073" lon="4.85146">
        <ele>275</ele>
        <time>2022-06-17T15:10:22.000Z</time>
      </trkpt>
      <trkpt lat="49.85067" lon="4.8515">
        <ele>275</ele>
        <time>2022-06-17T15:10:23.000Z</time>
      </trkpt>
      <trkpt lat="49.85062" lon="4.85153">
        <ele>275</ele>
        <time>2022-06-17T15:10:24.000Z</time>
      </trkpt>
      <trkpt lat="49.85057" lon="4.85156">
        <ele>275</ele>
        <time>2022-06-17T15:10:25.000Z</time>
      </trkpt>
      <trkpt lat="49.85053" lon="4.85159">
        <ele>275</ele>
        <time>2022-06-17T15:10:26.000Z</time>
      </trkpt>
      <trkpt lat="49.85047" lon="4.85162">
        <ele>275</ele>
        <time>2022-06-17T15:10:27.000Z</time>
      </trkpt>
      <trkpt lat="49.85042" lon="4.85164">
        <ele>275</ele>
        <time>2022-06-17T15:10:28.000Z</time>
      </trkpt>
      <trkpt lat="49.85037" lon="4.85167">
        <ele>275</ele>
        <time>2022-06-17T15:10:29.000Z</time>
      </trkpt>
      <trkpt lat="49.85032" lon="4.85169">
        <ele>275</ele>
        <time>2022-06-17T15:10:30.000Z</time>
      </trkpt>
      <trkpt lat="49.85026" lon="4.85172">
        <ele>275</ele>
        <time>2022-06-17T15:10:31.000Z</time>
      </trkpt>
      <trkpt lat="49.85021" lon="4.85174">
        <ele>275</ele>
        <time>2022-06-17T15:10:32.000Z</time>
      </trkpt>
      <trkpt lat="49.85015" lon="4.85176">
        <ele>275</ele>
        <time>2022-06-17T15:10:33.000Z</time>
      </trkpt>
      <trkpt lat="49.8501" lon="4.85179">
        <ele>275</ele>
        <time>2022-06-17T15:10:34.000Z</time>
      </trkpt>
      <trkpt lat="49.85005" lon="4.85182">
        <ele>275</ele>
        <time>2022-06-17T15:10:35.000Z</time>
      </trkpt>
      <trkpt lat="49.85001" lon="4.85186">
        <ele>275</ele>
        <time>2022-06-17T15:10:36.000Z</time>
      </trkpt>
      <trkpt lat="49.84996" lon="4.8519">
        <ele>275</ele>
        <time>2022-06-17T15:10:37.000Z</time>
      </trkpt>
      <trkpt lat="49.84992" lon="4.85194">
        <ele>275</ele>
        <time>2022-06-17T15:10:38.000Z</time>
      </trkpt>
      <trkpt lat="49.84988" lon="4.85199">
        <ele>276</ele>
        <time>2022-06-17T15:10:39.000Z</time>
      </trkpt>
      <trkpt lat="49.84984" lon="4.85205">
        <ele>276</ele>
        <time>2022-06-17T15:10:40.000Z</time>
      </trkpt>
      <trkpt lat="49.8498" lon="4.8521">
        <ele>276</ele>
        <time>2022-06-17T15:10:41.000Z</time>
      </trkpt>
      <trkpt lat="49.84976" lon="4.85215">
        <ele>276</ele>
        <time>2022-06-17T15:10:42.000Z</time>
      </trkpt>
      <trkpt lat="49.84972" lon="4.85221">
        <ele>276</ele>
        <time>2022-06-17T15:10:43.000Z</time>
      </trkpt>
      <trkpt lat="49.84968" lon="4.85226">
        <ele>276</ele>
        <time>2022-06-17T15:10:44.000Z</time>
      </trkpt>
      <trkpt lat="49.84964" lon="4.85232">
        <ele>276</ele>
        <time>2022-06-17T15:10:45.000Z</time>
      </trkpt>
      <trkpt lat="49.84961" lon="4.85237">
        <ele>276</ele>
        <time>2022-06-17T15:10:46.000Z</time>
      </trkpt>
      <trkpt lat="49.84957" lon="4.85241">
        <ele>276</ele>
        <time>2022-06-17T15:10:47.000Z</time>
      </trkpt>
      <trkpt lat="49.84953" lon="4.85246">
        <ele>276</ele>
        <time>2022-06-17T15:10:48.000Z</time>
      </trkpt>
      <trkpt lat="49.8495" lon="4.85251">
        <ele>275</ele>
        <time>2022-06-17T15:10:49.000Z</time>
      </trkpt>
      <trkpt lat="49.84946" lon="4.85256">
        <ele>275</ele>
        <time>2022-06-17T15:10:50.000Z</time>
      </trkpt>
      <trkpt lat="49.84942" lon="4.8526">
        <ele>275</ele>
        <time>2022-06-17T15:10:51.000Z</time>
      </trkpt>
      <trkpt lat="49.84938" lon="4.85263">
        <ele>275</ele>
        <time>2022-06-17T15:10:52.000Z</time>
      </trkpt>
      <trkpt lat="49.84933" lon="4.85266">
        <ele>275</ele>
        <time>2022-06-17T15:10:53.000Z</time>
      </trkpt>
      <trkpt lat="49.84928" lon="4.85268">
        <ele>275</ele>
        <time>2022-06-17T15:10:54.000Z</time>
      </trkpt>
      <trkpt lat="49.84922" lon="4.8527">
        <ele>275</ele>
        <time>2022-06-17T15:10:55.000Z</time>
      </trkpt>
      <trkpt lat="49.84917" lon="4.85271">
        <ele>274</ele>
        <time>2022-06-17T15:10:56.000Z</time>
      </trkpt>
      <trkpt lat="49.84911" lon="4.8527">
        <ele>274</ele>
        <time>2022-06-17T15:10:57.000Z</time>
      </trkpt>
      <trkpt lat="49.84906" lon="4.85267">
        <ele>274</ele>
        <time>2022-06-17T15:10:58.000Z</time>
      </trkpt>
      <trkpt lat="49.84901" lon="4.85264">
        <ele>274</ele>
        <time>2022-06-17T15:10:59.000Z</time>
      </trkpt>
      <trkpt lat="49.84896" lon="4.85259">
        <ele>274</ele>
        <time>2022-06-17T15:11:00.000Z</time>
      </trkpt>
      <trkpt lat="49.84892" lon="4.85253">
        <ele>274</ele>
        <time>2022-06-17T15:11:01.000Z</time>
      </trkpt>
      <trkpt lat="49.84888" lon="4.85247">
        <ele>274</ele>
        <time>2022-06-17T15:11:02.000Z</time>
      </trkpt>
      <trkpt lat="49.84885" lon="4.8524">
        <ele>274</ele>
        <time>2022-06-17T15:11:03.000Z</time>
      </trkpt>
      <trkpt lat="49.84882" lon="4.85232">
        <ele>274</ele>
        <time>2022-06-17T15:11:04.000Z</time>
      </trkpt>
      <trkpt lat="49.84879" lon="4.85224">
        <ele>274</ele>
        <time>2022-06-17T15:11:05.000Z</time>
      </trkpt>
      <trkpt lat="49.84877" lon="4.85216">
        <ele>273</ele>
        <time>2022-06-17T15:11:06.000Z</time>
      </trkpt>
      <trkpt lat="49.84875" lon="4.85208">
        <ele>274</ele>
        <time>2022-06-17T15:11:07.000Z</time>
      </trkpt>
      <trkpt lat="49.84873" lon="4.852">
        <ele>274</ele>
        <time>2022-06-17T15:11:08.000Z</time>
      </trkpt>
      <trkpt lat="49.84871" lon="4.85192">
        <ele>274</ele>
        <time>2022-06-17T15:11:09.000Z</time>
      </trkpt>
      <trkpt lat="49.84868" lon="4.85185">
        <ele>274</ele>
        <time>2022-06-17T15:11:10.000Z</time>
      </trkpt>
      <trkpt lat="49.84865" lon="4.85177">
        <ele>274</ele>
        <time>2022-06-17T15:11:11.000Z</time>
      </trkpt>
      <trkpt lat="49.84862" lon="4.8517">
        <ele>274</ele>
        <time>2022-06-17T15:11:12.000Z</time>
      </trkpt>
      <trkpt lat="49.84858" lon="4.85163">
        <ele>274</ele>
        <time>2022-06-17T15:11:13.000Z</time>
      </trkpt>
      <trkpt lat="49.84855" lon="4.85156">
        <ele>274</ele>
        <time>2022-06-17T15:11:14.000Z</time>
      </trkpt>
      <trkpt lat="49.8485" lon="4.8515">
        <ele>274</ele>
        <time>2022-06-17T15:11:15.000Z</time>
      </trkpt>
      <trkpt lat="49.84846" lon="4.85144">
        <ele>274</ele>
        <time>2022-06-17T15:11:16.000Z</time>
      </trkpt>
      <trkpt lat="49.84841" lon="4.85139">
        <ele>274</ele>
        <time>2022-06-17T15:11:17.000Z</time>
      </trkpt>
      <trkpt lat="49.84835" lon="4.85135">
        <ele>273</ele>
        <time>2022-06-17T15:11:18.000Z</time>
      </trkpt>
      <trkpt lat="49.8483" lon="4.8513">
        <ele>273</ele>
        <time>2022-06-17T15:11:19.000Z</time>
      </trkpt>
      <trkpt lat="49.84825" lon="4.85125">
        <ele>273</ele>
        <time>2022-06-17T15:11:20.000Z</time>
      </trkpt>
      <trkpt lat="49.8482" lon="4.85121">
        <ele>273</ele>
        <time>2022-06-17T15:11:21.000Z</time>
      </trkpt>
      <trkpt lat="49.84814" lon="4.85116">
        <ele>272</ele>
        <time>2022-06-17T15:11:22.000Z</time>
      </trkpt>
      <trkpt lat="49.84809" lon="4.8511">
        <ele>272</ele>
        <time>2022-06-17T15:11:23.000Z</time>
      </trkpt>
      <trkpt lat="49.84804" lon="4.85105">
        <ele>272</ele>
        <time>2022-06-17T15:11:24.000Z</time>
      </trkpt>
      <trkpt lat="49.84799" lon="4.85099">
        <ele>272</ele>
        <time>2022-06-17T15:11:25.000Z</time>
      </trkpt>
      <trkpt lat="49.84794" lon="4.85095">
        <ele>272</ele>
        <time>2022-06-17T15:11:26.000Z</time>
      </trkpt>
      <trkpt lat="49.84788" lon="4.85094">
        <ele>271</ele>
        <time>2022-06-17T15:11:27.000Z</time>
      </trkpt>
      <trkpt lat="49.84783" lon="4.85095">
        <ele>271</ele>
        <time>2022-06-17T15:11:28.000Z</time>
      </trkpt>
      <trkpt lat="49.84777" lon="4.85099">
        <ele>271</ele>
        <time>2022-06-17T15:11:29.000Z</time>
      </trkpt>
      <trkpt lat="49.84772" lon="4.85105">
        <ele>271</ele>
        <time>2022-06-17T15:11:30.000Z</time>
      </trkpt>
      <trkpt lat="49.8477" lon="4.85115">
        <ele>271</ele>
        <time>2022-06-17T15:11:31.000Z</time>
      </trkpt>
      <trkpt lat="49.84768" lon="4.85125">
        <ele>270</ele>
        <time>2022-06-17T15:11:32.000Z</time>
      </trkpt>
      <trkpt lat="49.84768" lon="4.85137">
        <ele>270</ele>
        <time>2022-06-17T15:11:33.000Z</time>
      </trkpt>
      <trkpt lat="49.84768" lon="4.85149">
        <ele>270</ele>
        <time>2022-06-17T15:11:34.000Z</time>
      </trkpt>
      <trkpt lat="49.84769" lon="4.85161">
        <ele>270</ele>
        <time>2022-06-17T15:11:35.000Z</time>
      </trkpt>
      <trkpt lat="49.84771" lon="4.85174">
        <ele>270</ele>
        <time>2022-06-17T15:11:36.000Z</time>
      </trkpt>
      <trkpt lat="49.84774" lon="4.85187">
        <ele>270</ele>
        <time>2022-06-17T15:11:37.000Z</time>
      </trkpt>
      <trkpt lat="49.84777" lon="4.852">
        <ele>269</ele>
        <time>2022-06-17T15:11:38.000Z</time>
      </trkpt>
      <trkpt lat="49.84779" lon="4.85214">
        <ele>269</ele>
        <time>2022-06-17T15:11:39.000Z</time>
      </trkpt>
      <trkpt lat="49.8478" lon="4.85228">
        <ele>268</ele>
        <time>2022-06-17T15:11:40.000Z</time>
      </trkpt>
      <trkpt lat="49.84779" lon="4.85244">
        <ele>267</ele>
        <time>2022-06-17T15:11:41.000Z</time>
      </trkpt>
      <trkpt lat="49.84777" lon="4.85258">
        <ele>267</ele>
        <time>2022-06-17T15:11:42.000Z</time>
      </trkpt>
      <trkpt lat="49.84774" lon="4.85271">
        <ele>266</ele>
        <time>2022-06-17T15:11:43.000Z</time>
      </trkpt>
      <trkpt lat="49.8477" lon="4.85281">
        <ele>265</ele>
        <time>2022-06-17T15:11:44.000Z</time>
      </trkpt>
      <trkpt lat="49.84764" lon="4.85287">
        <ele>264</ele>
        <time>2022-06-17T15:11:45.000Z</time>
      </trkpt>
      <trkpt lat="49.84757" lon="4.8529">
        <ele>263</ele>
        <time>2022-06-17T15:11:46.000Z</time>
      </trkpt>
      <trkpt lat="49.84748" lon="4.8529">
        <ele>262</ele>
        <time>2022-06-17T15:11:47.000Z</time>
      </trkpt>
      <trkpt lat="49.8474" lon="4.85288">
        <ele>261</ele>
        <time>2022-06-17T15:11:48.000Z</time>
      </trkpt>
      <trkpt lat="49.84731" lon="4.85286">
        <ele>261</ele>
        <time>2022-06-17T15:11:49.000Z</time>
      </trkpt>
      <trkpt lat="49.84722" lon="4.85285">
        <ele>260</ele>
        <time>2022-06-17T15:11:50.000Z</time>
      </trkpt>
      <trkpt lat="49.84714" lon="4.85284">
        <ele>260</ele>
        <time>2022-06-17T15:11:51.000Z</time>
      </trkpt>
      <trkpt lat="49.84706" lon="4.85283">
        <ele>259</ele>
        <time>2022-06-17T15:11:52.000Z</time>
      </trkpt>
      <trkpt lat="49.84698" lon="4.85284">
        <ele>258</ele>
        <time>2022-06-17T15:11:53.000Z</time>
      </trkpt>
      <trkpt lat="49.84691" lon="4.85288">
        <ele>258</ele>
        <time>2022-06-17T15:11:54.000Z</time>
      </trkpt>
      <trkpt lat="49.84685" lon="4.85294">
        <ele>258</ele>
        <time>2022-06-17T15:11:55.000Z</time>
      </trkpt>
      <trkpt lat="49.84682" lon="4.85303">
        <ele>258</ele>
        <time>2022-06-17T15:11:56.000Z</time>
      </trkpt>
      <trkpt lat="49.8468" lon="4.85311">
        <ele>257</ele>
        <time>2022-06-17T15:11:57.000Z</time>
      </trkpt>
      <trkpt lat="49.84682" lon="4.85321">
        <ele>257</ele>
        <time>2022-06-17T15:11:58.000Z</time>
      </trkpt>
      <trkpt lat="49.84686" lon="4.85332">
        <ele>257</ele>
        <time>2022-06-17T15:11:59.000Z</time>
      </trkpt>
      <trkpt lat="49.84691" lon="4.85345">
        <ele>257</ele>
        <time>2022-06-17T15:12:00.000Z</time>
      </trkpt>
      <trkpt lat="49.84696" lon="4.85357">
        <ele>257</ele>
        <time>2022-06-17T15:12:01.000Z</time>
      </trkpt>
      <trkpt lat="49.84701" lon="4.8537">
        <ele>257</ele>
        <time>2022-06-17T15:12:02.000Z</time>
      </trkpt>
      <trkpt lat="49.84706" lon="4.85382">
        <ele>257</ele>
        <time>2022-06-17T15:12:03.000Z</time>
      </trkpt>
      <trkpt lat="49.8471" lon="4.85393">
        <ele>257</ele>
        <time>2022-06-17T15:12:04.000Z</time>
      </trkpt>
      <trkpt lat="49.84715" lon="4.85405">
        <ele>257</ele>
        <time>2022-06-17T15:12:05.000Z</time>
      </trkpt>
      <trkpt lat="49.84719" lon="4.85416">
        <ele>256</ele>
        <time>2022-06-17T15:12:06.000Z</time>
      </trkpt>
      <trkpt lat="49.84723" lon="4.85429">
        <ele>256</ele>
        <time>2022-06-17T15:12:07.000Z</time>
      </trkpt>
      <trkpt lat="49.84726" lon="4.85441">
        <ele>255</ele>
        <time>2022-06-17T15:12:08.000Z</time>
      </trkpt>
      <trkpt lat="49.8473" lon="4.85453">
        <ele>255</ele>
        <time>2022-06-17T15:12:09.000Z</time>
      </trkpt>
      <trkpt lat="49.84733" lon="4.85464">
        <ele>254</ele>
        <time>2022-06-17T15:12:10.000Z</time>
      </trkpt>
      <trkpt lat="49.84737" lon="4.85476">
        <ele>253</ele>
        <time>2022-06-17T15:12:11.000Z</time>
      </trkpt>
      <trkpt lat="49.84741" lon="4.85486">
        <ele>253</ele>
        <time>2022-06-17T15:12:12.000Z</time>
      </trkpt>
      <trkpt lat="49.84746" lon="4.85496">
        <ele>252</ele>
        <time>2022-06-17T15:12:13.000Z</time>
      </trkpt>
      <trkpt lat="49.8475" lon="4.85506">
        <ele>252</ele>
        <time>2022-06-17T15:12:14.000Z</time>
      </trkpt>
      <trkpt lat="49.84751" lon="4.85517">
        <ele>251</ele>
        <time>2022-06-17T15:12:15.000Z</time>
      </trkpt>
      <trkpt lat="49.84752" lon="4.85528">
        <ele>251</ele>
        <time>2022-06-17T15:12:16.000Z</time>
      </trkpt>
      <trkpt lat="49.84751" lon="4.85539">
        <ele>250</ele>
        <time>2022-06-17T15:12:17.000Z</time>
      </trkpt>
      <trkpt lat="49.84748" lon="4.8555">
        <ele>250</ele>
        <time>2022-06-17T15:12:18.000Z</time>
      </trkpt>
      <trkpt lat="49.84744" lon="4.8556">
        <ele>250</ele>
        <time>2022-06-17T15:12:19.000Z</time>
      </trkpt>
      <trkpt lat="49.84739" lon="4.85569">
        <ele>249</ele>
        <time>2022-06-17T15:12:20.000Z</time>
      </trkpt>
      <trkpt lat="49.84734" lon="4.85578">
        <ele>249</ele>
        <time>2022-06-17T15:12:21.000Z</time>
      </trkpt>
      <trkpt lat="49.84729" lon="4.85587">
        <ele>249</ele>
        <time>2022-06-17T15:12:22.000Z</time>
      </trkpt>
      <trkpt lat="49.84725" lon="4.85596">
        <ele>248</ele>
        <time>2022-06-17T15:12:23.000Z</time>
      </trkpt>
      <trkpt lat="49.84721" lon="4.85604">
        <ele>248</ele>
        <time>2022-06-17T15:12:24.000Z</time>
      </trkpt>
      <trkpt lat="49.84717" lon="4.85612">
        <ele>248</ele>
        <time>2022-06-17T15:12:25.000Z</time>
      </trkpt>
      <trkpt lat="49.84713" lon="4.8562">
        <ele>247</ele>
        <time>2022-06-17T15:12:26.000Z</time>
      </trkpt>
      <trkpt lat="49.84709" lon="4.85627">
        <ele>247</ele>
        <time>2022-06-17T15:12:27.000Z</time>
      </trkpt>
      <trkpt lat="49.84705" lon="4.85634">
        <ele>247</ele>
        <time>2022-06-17T15:12:28.000Z</time>
      </trkpt>
      <trkpt lat="49.84701" lon="4.85641">
        <ele>247</ele>
        <time>2022-06-17T15:12:29.000Z</time>
      </trkpt>
      <trkpt lat="49.84697" lon="4.85648">
        <ele>247</ele>
        <time>2022-06-17T15:12:30.000Z</time>
      </trkpt>
      <trkpt lat="49.84691" lon="4.85652">
        <ele>247</ele>
        <time>2022-06-17T15:12:31.000Z</time>
      </trkpt>
      <trkpt lat="49.84686" lon="4.85655">
        <ele>247</ele>
        <time>2022-06-17T15:12:32.000Z</time>
      </trkpt>
      <trkpt lat="49.8468" lon="4.85655">
        <ele>247</ele>
        <time>2022-06-17T15:12:33.000Z</time>
      </trkpt>
      <trkpt lat="49.84675" lon="4.85654">
        <ele>247</ele>
        <time>2022-06-17T15:12:34.000Z</time>
      </trkpt>
      <trkpt lat="49.84671" lon="4.85653">
        <ele>247</ele>
        <time>2022-06-17T15:12:35.000Z</time>
      </trkpt>
      <trkpt lat="49.84666" lon="4.85651">
        <ele>247</ele>
        <time>2022-06-17T15:12:36.000Z</time>
      </trkpt>
      <trkpt lat="49.84661" lon="4.8565">
        <ele>247</ele>
        <time>2022-06-17T15:12:37.000Z</time>
      </trkpt>
      <trkpt lat="49.84657" lon="4.85648">
        <ele>247</ele>
        <time>2022-06-17T15:12:38.000Z</time>
      </trkpt>
      <trkpt lat="49.84653" lon="4.85646">
        <ele>247</ele>
        <time>2022-06-17T15:12:39.000Z</time>
      </trkpt>
      <trkpt lat="49.84649" lon="4.85646">
        <ele>247</ele>
        <time>2022-06-17T15:12:40.000Z</time>
      </trkpt>
      <trkpt lat="49.84644" lon="4.85645">
        <ele>247</ele>
        <time>2022-06-17T15:12:41.000Z</time>
      </trkpt>
      <trkpt lat="49.8464" lon="4.85645">
        <ele>248</ele>
        <time>2022-06-17T15:12:42.000Z</time>
      </trkpt>
      <trkpt lat="49.84636" lon="4.85645">
        <ele>248</ele>
        <time>2022-06-17T15:12:43.000Z</time>
      </trkpt>
      <trkpt lat="49.84633" lon="4.85645">
        <ele>248</ele>
        <time>2022-06-17T15:12:44.000Z</time>
      </trkpt>
      <trkpt lat="49.84629" lon="4.85645">
        <ele>248</ele>
        <time>2022-06-17T15:12:45.000Z</time>
      </trkpt>
      <trkpt lat="49.84625" lon="4.85645">
        <ele>248</ele>
        <time>2022-06-17T15:12:46.000Z</time>
      </trkpt>
      <trkpt lat="49.84621" lon="4.85646">
        <ele>248</ele>
        <time>2022-06-17T15:12:47.000Z</time>
      </trkpt>
      <trkpt lat="49.84618" lon="4.85646">
        <ele>248</ele>
        <time>2022-06-17T15:12:48.000Z</time>
      </trkpt>
      <trkpt lat="49.84613" lon="4.85647">
        <ele>248</ele>
        <time>2022-06-17T15:12:49.000Z</time>
      </trkpt>
      <trkpt lat="49.84609" lon="4.85647">
        <ele>248</ele>
        <time>2022-06-17T15:12:50.000Z</time>
      </trkpt>
      <trkpt lat="49.84604" lon="4.85647">
        <ele>248</ele>
        <time>2022-06-17T15:12:51.000Z</time>
      </trkpt>
      <trkpt lat="49.846" lon="4.85646">
        <ele>248</ele>
        <time>2022-06-17T15:12:52.000Z</time>
      </trkpt>
      <trkpt lat="49.84595" lon="4.85646">
        <ele>249</ele>
        <time>2022-06-17T15:12:53.000Z</time>
      </trkpt>
      <trkpt lat="49.8459" lon="4.85645">
        <ele>249</ele>
        <time>2022-06-17T15:12:54.000Z</time>
      </trkpt>
      <trkpt lat="49.84586" lon="4.85645">
        <ele>249</ele>
        <time>2022-06-17T15:12:55.000Z</time>
      </trkpt>
      <trkpt lat="49.84581" lon="4.85644">
        <ele>249</ele>
        <time>2022-06-17T15:12:56.000Z</time>
      </trkpt>
      <trkpt lat="49.84577" lon="4.85643">
        <ele>249</ele>
        <time>2022-06-17T15:12:57.000Z</time>
      </trkpt>
      <trkpt lat="49.84573" lon="4.85642">
        <ele>249</ele>
        <time>2022-06-17T15:12:58.000Z</time>
      </trkpt>
      <trkpt lat="49.84569" lon="4.85641">
        <ele>249</ele>
        <time>2022-06-17T15:12:59.000Z</time>
      </trkpt>
      <trkpt lat="49.84566" lon="4.8564">
        <ele>250</ele>
        <time>2022-06-17T15:13:00.000Z</time>
      </trkpt>
      <trkpt lat="49.84562" lon="4.85639">
        <ele>250</ele>
        <time>2022-06-17T15:13:01.000Z</time>
      </trkpt>
      <trkpt lat="49.84559" lon="4.85638">
        <ele>250</ele>
        <time>2022-06-17T15:13:02.000Z</time>
      </trkpt>
      <trkpt lat="49.84555" lon="4.85637">
        <ele>250</ele>
        <time>2022-06-17T15:13:03.000Z</time>
      </trkpt>
      <trkpt lat="49.84551" lon="4.85636">
        <ele>250</ele>
        <time>2022-06-17T15:13:04.000Z</time>
      </trkpt>
      <trkpt lat="49.84548" lon="4.85635">
        <ele>251</ele>
        <time>2022-06-17T15:13:05.000Z</time>
      </trkpt>
      <trkpt lat="49.84544" lon="4.85633">
        <ele>251</ele>
        <time>2022-06-17T15:13:06.000Z</time>
      </trkpt>
      <trkpt lat="49.8454" lon="4.8563">
        <ele>251</ele>
        <time>2022-06-17T15:13:07.000Z</time>
      </trkpt>
      <trkpt lat="49.84536" lon="4.85628">
        <ele>251</ele>
        <time>2022-06-17T15:13:08.000Z</time>
      </trkpt>
      <trkpt lat="49.84532" lon="4.85627">
        <ele>251</ele>
        <time>2022-06-17T15:13:09.000Z</time>
      </trkpt>
      <trkpt lat="49.84528" lon="4.85625">
        <ele>251</ele>
        <time>2022-06-17T15:13:10.000Z</time>
      </trkpt>
      <trkpt lat="49.84524" lon="4.85623">
        <ele>251</ele>
        <time>2022-06-17T15:13:11.000Z</time>
      </trkpt>
      <trkpt lat="49.8452" lon="4.85619">
        <ele>252</ele>
        <time>2022-06-17T15:13:12.000Z</time>
      </trkpt>
      <trkpt lat="49.84516" lon="4.85614">
        <ele>252</ele>
        <time>2022-06-17T15:13:13.000Z</time>
      </trkpt>
      <trkpt lat="49.84513" lon="4.85608">
        <ele>252</ele>
        <time>2022-06-17T15:13:14.000Z</time>
      </trkpt>
      <trkpt lat="49.84511" lon="4.85602">
        <ele>252</ele>
        <time>2022-06-17T15:13:15.000Z</time>
      </trkpt>
      <trkpt lat="49.84509" lon="4.85594">
        <ele>252</ele>
        <time>2022-06-17T15:13:16.000Z</time>
      </trkpt>
      <trkpt lat="49.84508" lon="4.85587">
        <ele>252</ele>
        <time>2022-06-17T15:13:17.000Z</time>
      </trkpt>
      <trkpt lat="49.84507" lon="4.8558">
        <ele>252</ele>
        <time>2022-06-17T15:13:18.000Z</time>
      </trkpt>
      <trkpt lat="49.84507" lon="4.85572">
        <ele>252</ele>
        <time>2022-06-17T15:13:19.000Z</time>
      </trkpt>
      <trkpt lat="49.84506" lon="4.85566">
        <ele>253</ele>
        <time>2022-06-17T15:13:20.000Z</time>
      </trkpt>
      <trkpt lat="49.84505" lon="4.85559">
        <ele>253</ele>
        <time>2022-06-17T15:13:21.000Z</time>
      </trkpt>
      <trkpt lat="49.84504" lon="4.85552">
        <ele>253</ele>
        <time>2022-06-17T15:13:22.000Z</time>
      </trkpt>
      <trkpt lat="49.84502" lon="4.85544">
        <ele>254</ele>
        <time>2022-06-17T15:13:23.000Z</time>
      </trkpt>
      <trkpt lat="49.84501" lon="4.85538">
        <ele>254</ele>
        <time>2022-06-17T15:13:24.000Z</time>
      </trkpt>
      <trkpt lat="49.84499" lon="4.85533">
        <ele>254</ele>
        <time>2022-06-17T15:13:25.000Z</time>
      </trkpt>
      <trkpt lat="49.84498" lon="4.85527">
        <ele>255</ele>
        <time>2022-06-17T15:13:26.000Z</time>
      </trkpt>
      <trkpt lat="49.84496" lon="4.85521">
        <ele>255</ele>
        <time>2022-06-17T15:13:27.000Z</time>
      </trkpt>
      <trkpt lat="49.84494" lon="4.85516">
        <ele>256</ele>
        <time>2022-06-17T15:13:28.000Z</time>
      </trkpt>
      <trkpt lat="49.84493" lon="4.8551">
        <ele>256</ele>
        <time>2022-06-17T15:13:29.000Z</time>
      </trkpt>
      <trkpt lat="49.84492" lon="4.85503">
        <ele>257</ele>
        <time>2022-06-17T15:13:30.000Z</time>
      </trkpt>
      <trkpt lat="49.8449" lon="4.85496">
        <ele>257</ele>
        <time>2022-06-17T15:13:31.000Z</time>
      </trkpt>
      <trkpt lat="49.84489" lon="4.8549">
        <ele>258</ele>
        <time>2022-06-17T15:13:32.000Z</time>
      </trkpt>
      <trkpt lat="49.84487" lon="4.85484">
        <ele>258</ele>
        <time>2022-06-17T15:13:33.000Z</time>
      </trkpt>
      <trkpt lat="49.84486" lon="4.85476">
        <ele>258</ele>
        <time>2022-06-17T15:13:34.000Z</time>
      </trkpt>
      <trkpt lat="49.84485" lon="4.8547">
        <ele>259</ele>
        <time>2022-06-17T15:13:35.000Z</time>
      </trkpt>
      <trkpt lat="49.84483" lon="4.85464">
        <ele>259</ele>
        <time>2022-06-17T15:13:36.000Z</time>
      </trkpt>
      <trkpt lat="49.84481" lon="4.85458">
        <ele>260</ele>
        <time>2022-06-17T15:13:37.000Z</time>
      </trkpt>
      <trkpt lat="49.8448" lon="4.85453">
        <ele>260</ele>
        <time>2022-06-17T15:13:38.000Z</time>
      </trkpt>
      <trkpt lat="49.84478" lon="4.85448">
        <ele>261</ele>
        <time>2022-06-17T15:13:39.000Z</time>
      </trkpt>
      <trkpt lat="49.84476" lon="4.85442">
        <ele>261</ele>
        <time>2022-06-17T15:13:40.000Z</time>
      </trkpt>
      <trkpt lat="49.84474" lon="4.85437">
        <ele>261</ele>
        <time>2022-06-17T15:13:41.000Z</time>
      </trkpt>
      <trkpt lat="49.84472" lon="4.85432">
        <ele>262</ele>
        <time>2022-06-17T15:13:42.000Z</time>
      </trkpt>
      <trkpt lat="49.8447" lon="4.85427">
        <ele>262</ele>
        <time>2022-06-17T15:13:43.000Z</time>
      </trkpt>
      <trkpt lat="49.84468" lon="4.85422">
        <ele>262</ele>
        <time>2022-06-17T15:13:44.000Z</time>
      </trkpt>
      <trkpt lat="49.84466" lon="4.85417">
        <ele>262</ele>
        <time>2022-06-17T15:13:45.000Z</time>
      </trkpt>
      <trkpt lat="49.84464" lon="4.85412">
        <ele>263</ele>
        <time>2022-06-17T15:13:46.000Z</time>
      </trkpt>
      <trkpt lat="49.84462" lon="4.85406">
        <ele>263</ele>
        <time>2022-06-17T15:13:47.000Z</time>
      </trkpt>
      <trkpt lat="49.84459" lon="4.85401">
        <ele>263</ele>
        <time>2022-06-17T15:13:48.000Z</time>
      </trkpt>
      <trkpt lat="49.84456" lon="4.85396">
        <ele>263</ele>
        <time>2022-06-17T15:13:49.000Z</time>
      </trkpt>
      <trkpt lat="49.84454" lon="4.85391">
        <ele>263</ele>
        <time>2022-06-17T15:13:50.000Z</time>
      </trkpt>
      <trkpt lat="49.84451" lon="4.85386">
        <ele>263</ele>
        <time>2022-06-17T15:13:51.000Z</time>
      </trkpt>
      <trkpt lat="49.84448" lon="4.85381">
        <ele>263</ele>
        <time>2022-06-17T15:13:52.000Z</time>
      </trkpt>
      <trkpt lat="49.84445" lon="4.85376">
        <ele>263</ele>
        <time>2022-06-17T15:13:53.000Z</time>
      </trkpt>
      <trkpt lat="49.84442" lon="4.8537">
        <ele>263</ele>
        <time>2022-06-17T15:13:54.000Z</time>
      </trkpt>
      <trkpt lat="49.84439" lon="4.85365">
        <ele>263</ele>
        <time>2022-06-17T15:13:55.000Z</time>
      </trkpt>
      <trkpt lat="49.84437" lon="4.8536">
        <ele>263</ele>
        <time>2022-06-17T15:13:56.000Z</time>
      </trkpt>
      <trkpt lat="49.84435" lon="4.85355">
        <ele>263</ele>
        <time>2022-06-17T15:13:57.000Z</time>
      </trkpt>
      <trkpt lat="49.84432" lon="4.85351">
        <ele>264</ele>
        <time>2022-06-17T15:13:58.000Z</time>
      </trkpt>
      <trkpt lat="49.8443" lon="4.85346">
        <ele>264</ele>
        <time>2022-06-17T15:13:59.000Z</time>
      </trkpt>
      <trkpt lat="49.84427" lon="4.85341">
        <ele>264</ele>
        <time>2022-06-17T15:14:00.000Z</time>
      </trkpt>
      <trkpt lat="49.84425" lon="4.85336">
        <ele>264</ele>
        <time>2022-06-17T15:14:01.000Z</time>
      </trkpt>
      <trkpt lat="49.84422" lon="4.85332">
        <ele>264</ele>
        <time>2022-06-17T15:14:02.000Z</time>
      </trkpt>
      <trkpt lat="49.84419" lon="4.85327">
        <ele>264</ele>
        <time>2022-06-17T15:14:03.000Z</time>
      </trkpt>
      <trkpt lat="49.84417" lon="4.85323">
        <ele>264</ele>
        <time>2022-06-17T15:14:04.000Z</time>
      </trkpt>
      <trkpt lat="49.84414" lon="4.85319">
        <ele>264</ele>
        <time>2022-06-17T15:14:05.000Z</time>
      </trkpt>
      <trkpt lat="49.84411" lon="4.85316">
        <ele>264</ele>
        <time>2022-06-17T15:14:06.000Z</time>
      </trkpt>
      <trkpt lat="49.84408" lon="4.85313">
        <ele>264</ele>
        <time>2022-06-17T15:14:07.000Z</time>
      </trkpt>
      <trkpt lat="49.84404" lon="4.8531">
        <ele>264</ele>
        <time>2022-06-17T15:14:08.000Z</time>
      </trkpt>
      <trkpt lat="49.84401" lon="4.85309">
        <ele>264</ele>
        <time>2022-06-17T15:14:09.000Z</time>
      </trkpt>
      <trkpt lat="49.84397" lon="4.85309">
        <ele>264</ele>
        <time>2022-06-17T15:14:10.000Z</time>
      </trkpt>
      <trkpt lat="49.84394" lon="4.8531">
        <ele>264</ele>
        <time>2022-06-17T15:14:11.000Z</time>
      </trkpt>
      <trkpt lat="49.84392" lon="4.85313">
        <ele>264</ele>
        <time>2022-06-17T15:14:12.000Z</time>
      </trkpt>
      <trkpt lat="49.84389" lon="4.85317">
        <ele>264</ele>
        <time>2022-06-17T15:14:13.000Z</time>
      </trkpt>
      <trkpt lat="49.84387" lon="4.85321">
        <ele>264</ele>
        <time>2022-06-17T15:14:14.000Z</time>
      </trkpt>
      <trkpt lat="49.84385" lon="4.85325">
        <ele>264</ele>
        <time>2022-06-17T15:14:15.000Z</time>
      </trkpt>
      <trkpt lat="49.84383" lon="4.8533">
        <ele>264</ele>
        <time>2022-06-17T15:14:16.000Z</time>
      </trkpt>
      <trkpt lat="49.84383" lon="4.85336">
        <ele>264</ele>
        <time>2022-06-17T15:14:17.000Z</time>
      </trkpt>
      <trkpt lat="49.84383" lon="4.85342">
        <ele>264</ele>
        <time>2022-06-17T15:14:18.000Z</time>
      </trkpt>
      <trkpt lat="49.84383" lon="4.85348">
        <ele>264</ele>
        <time>2022-06-17T15:14:19.000Z</time>
      </trkpt>
      <trkpt lat="49.84383" lon="4.85355">
        <ele>264</ele>
        <time>2022-06-17T15:14:20.000Z</time>
      </trkpt>
      <trkpt lat="49.84384" lon="4.85361">
        <ele>264</ele>
        <time>2022-06-17T15:14:21.000Z</time>
      </trkpt>
      <trkpt lat="49.84385" lon="4.85368">
        <ele>264</ele>
        <time>2022-06-17T15:14:22.000Z</time>
      </trkpt>
      <trkpt lat="49.84386" lon="4.85374">
        <ele>264</ele>
        <time>2022-06-17T15:14:23.000Z</time>
      </trkpt>
      <trkpt lat="49.84387" lon="4.8538">
        <ele>265</ele>
        <time>2022-06-17T15:14:24.000Z</time>
      </trkpt>
      <trkpt lat="49.84388" lon="4.85387">
        <ele>265</ele>
        <time>2022-06-17T15:14:25.000Z</time>
      </trkpt>
      <trkpt lat="49.8439" lon="4.85393">
        <ele>265</ele>
        <time>2022-06-17T15:14:26.000Z</time>
      </trkpt>
      <trkpt lat="49.84391" lon="4.85397">
        <ele>265</ele>
        <time>2022-06-17T15:14:27.000Z</time>
      </trkpt>
      <trkpt lat="49.84392" lon="4.85403">
        <ele>265</ele>
        <time>2022-06-17T15:14:28.000Z</time>
      </trkpt>
      <trkpt lat="49.84393" lon="4.85408">
        <ele>265</ele>
        <time>2022-06-17T15:14:29.000Z</time>
      </trkpt>
      <trkpt lat="49.84394" lon="4.85413">
        <ele>265</ele>
        <time>2022-06-17T15:14:30.000Z</time>
      </trkpt>
      <trkpt lat="49.84395" lon="4.85419">
        <ele>265</ele>
        <time>2022-06-17T15:14:31.000Z</time>
      </trkpt>
      <trkpt lat="49.84396" lon="4.85424">
        <ele>265</ele>
        <time>2022-06-17T15:14:32.000Z</time>
      </trkpt>
      <trkpt lat="49.84398" lon="4.85429">
        <ele>265</ele>
        <time>2022-06-17T15:14:33.000Z</time>
      </trkpt>
      <trkpt lat="49.84399" lon="4.85433">
        <ele>265</ele>
        <time>2022-06-17T15:14:34.000Z</time>
      </trkpt>
      <trkpt lat="49.844" lon="4.85438">
        <ele>265</ele>
        <time>2022-06-17T15:14:35.000Z</time>
      </trkpt>
      <trkpt lat="49.84402" lon="4.85443">
        <ele>265</ele>
        <time>2022-06-17T15:14:36.000Z</time>
      </trkpt>
      <trkpt lat="49.84403" lon="4.85448">
        <ele>265</ele>
        <time>2022-06-17T15:14:37.000Z</time>
      </trkpt>
      <trkpt lat="49.84404" lon="4.85453">
        <ele>265</ele>
        <time>2022-06-17T15:14:38.000Z</time>
      </trkpt>
      <trkpt lat="49.84405" lon="4.85458">
        <ele>265</ele>
        <time>2022-06-17T15:14:39.000Z</time>
      </trkpt>
      <trkpt lat="49.84406" lon="4.85462">
        <ele>265</ele>
        <time>2022-06-17T15:14:40.000Z</time>
      </trkpt>
      <trkpt lat="49.84408" lon="4.85466">
        <ele>265</ele>
        <time>2022-06-17T15:14:41.000Z</time>
      </trkpt>
      <trkpt lat="49.84409" lon="4.85471">
        <ele>265</ele>
        <time>2022-06-17T15:14:42.000Z</time>
      </trkpt>
      <trkpt lat="49.84409" lon="4.85476">
        <ele>265</ele>
        <time>2022-06-17T15:14:43.000Z</time>
      </trkpt>
      <trkpt lat="49.8441" lon="4.85482">
        <ele>265</ele>
        <time>2022-06-17T15:14:44.000Z</time>
      </trkpt>
      <trkpt lat="49.84411" lon="4.85486">
        <ele>265</ele>
        <time>2022-06-17T15:14:45.000Z</time>
      </trkpt>
      <trkpt lat="49.84412" lon="4.85491">
        <ele>265</ele>
        <time>2022-06-17T15:14:46.000Z</time>
      </trkpt>
      <trkpt lat="49.84413" lon="4.85497">
        <ele>265</ele>
        <time>2022-06-17T15:14:47.000Z</time>
      </trkpt>
      <trkpt lat="49.84414" lon="4.85502">
        <ele>265</ele>
        <time>2022-06-17T15:14:48.000Z</time>
      </trkpt>
      <trkpt lat="49.84414" lon="4.85507">
        <ele>265</ele>
        <time>2022-06-17T15:14:49.000Z</time>
      </trkpt>
      <trkpt lat="49.84414" lon="4.85512">
        <ele>265</ele>
        <time>2022-06-17T15:14:50.000Z</time>
      </trkpt>
      <trkpt lat="49.84414" lon="4.85518">
        <ele>265</ele>
        <time>2022-06-17T15:14:51.000Z</time>
      </trkpt>
      <trkpt lat="49.84414" lon="4.85523">
        <ele>265</ele>
        <time>2022-06-17T15:14:52.000Z</time>
      </trkpt>
      <trkpt lat="49.84414" lon="4.85529">
        <ele>265</ele>
        <time>2022-06-17T15:14:53.000Z</time>
      </trkpt>
      <trkpt lat="49.84414" lon="4.85533">
        <ele>265</ele>
        <time>2022-06-17T15:14:54.000Z</time>
      </trkpt>
      <trkpt lat="49.84414" lon="4.85538">
        <ele>265</ele>
        <time>2022-06-17T15:14:55.000Z</time>
      </trkpt>
      <trkpt lat="49.84412" lon="4.85542">
        <ele>266</ele>
        <time>2022-06-17T15:14:56.000Z</time>
      </trkpt>
      <trkpt lat="49.84411" lon="4.85546">
        <ele>266</ele>
        <time>2022-06-17T15:14:57.000Z</time>
      </trkpt>
      <trkpt lat="49.8441" lon="4.85551">
        <ele>266</ele>
        <time>2022-06-17T15:14:58.000Z</time>
      </trkpt>
      <trkpt lat="49.84408" lon="4.85555">
        <ele>266</ele>
        <time>2022-06-17T15:14:59.000Z</time>
      </trkpt>
      <trkpt lat="49.84405" lon="4.85559">
        <ele>266</ele>
        <time>2022-06-17T15:15:00.000Z</time>
      </trkpt>
      <trkpt lat="49.84402" lon="4.8556">
        <ele>266</ele>
        <time>2022-06-17T15:15:01.000Z</time>
      </trkpt>
      <trkpt lat="49.84399" lon="4.85562">
        <ele>266</ele>
        <time>2022-06-17T15:15:02.000Z</time>
      </trkpt>
      <trkpt lat="49.84396" lon="4.85563">
        <ele>266</ele>
        <time>2022-06-17T15:15:03.000Z</time>
      </trkpt>
      <trkpt lat="49.84393" lon="4.85564">
        <ele>266</ele>
        <time>2022-06-17T15:15:04.000Z</time>
      </trkpt>
      <trkpt lat="49.8439" lon="4.85565">
        <ele>266</ele>
        <time>2022-06-17T15:15:05.000Z</time>
      </trkpt>
      <trkpt lat="49.84387" lon="4.85566">
        <ele>266</ele>
        <time>2022-06-17T15:15:06.000Z</time>
      </trkpt>
      <trkpt lat="49.84384" lon="4.85566">
        <ele>267</ele>
        <time>2022-06-17T15:15:07.000Z</time>
      </trkpt>
      <trkpt lat="49.84381" lon="4.85567">
        <ele>267</ele>
        <time>2022-06-17T15:15:08.000Z</time>
      </trkpt>
      <trkpt lat="49.84379" lon="4.85568">
        <ele>267</ele>
        <time>2022-06-17T15:15:09.000Z</time>
      </trkpt>
      <trkpt lat="49.84376" lon="4.85568">
        <ele>267</ele>
        <time>2022-06-17T15:15:10.000Z</time>
      </trkpt>
      <trkpt lat="49.84373" lon="4.85569">
        <ele>267</ele>
        <time>2022-06-17T15:15:11.000Z</time>
      </trkpt>
      <trkpt lat="49.8437" lon="4.85571">
        <ele>268</ele>
        <time>2022-06-17T15:15:12.000Z</time>
      </trkpt>
      <trkpt lat="49.84367" lon="4.85571">
        <ele>268</ele>
        <time>2022-06-17T15:15:13.000Z</time>
      </trkpt>
      <trkpt lat="49.84365" lon="4.85571">
        <ele>268</ele>
        <time>2022-06-17T15:15:14.000Z</time>
      </trkpt>
      <trkpt lat="49.84362" lon="4.85571">
        <ele>268</ele>
        <time>2022-06-17T15:15:15.000Z</time>
      </trkpt>
      <trkpt lat="49.8436" lon="4.85571">
        <ele>269</ele>
        <time>2022-06-17T15:15:16.000Z</time>
      </trkpt>
      <trkpt lat="49.84357" lon="4.85572">
        <ele>269</ele>
        <time>2022-06-17T15:15:17.000Z</time>
      </trkpt>
      <trkpt lat="49.84354" lon="4.85572">
        <ele>269</ele>
        <time>2022-06-17T15:15:18.000Z</time>
      </trkpt>
      <trkpt lat="49.84351" lon="4.85572">
        <ele>270</ele>
        <time>2022-06-17T15:15:19.000Z</time>
      </trkpt>
      <trkpt lat="49.84348" lon="4.85573">
        <ele>270</ele>
        <time>2022-06-17T15:15:20.000Z</time>
      </trkpt>
      <trkpt lat="49.84345" lon="4.85573">
        <ele>270</ele>
        <time>2022-06-17T15:15:21.000Z</time>
      </trkpt>
      <trkpt lat="49.84342" lon="4.85573">
        <ele>271</ele>
        <time>2022-06-17T15:15:22.000Z</time>
      </trkpt>
      <trkpt lat="49.84339" lon="4.85572">
        <ele>271</ele>
        <time>2022-06-17T15:15:23.000Z</time>
      </trkpt>
      <trkpt lat="49.84335" lon="4.85572">
        <ele>271</ele>
        <time>2022-06-17T15:15:24.000Z</time>
      </trkpt>
      <trkpt lat="49.84332" lon="4.85572">
        <ele>271</ele>
        <time>2022-06-17T15:15:25.000Z</time>
      </trkpt>
      <trkpt lat="49.84329" lon="4.85571">
        <ele>271</ele>
        <time>2022-06-17T15:15:26.000Z</time>
      </trkpt>
      <trkpt lat="49.84325" lon="4.85572">
        <ele>272</ele>
        <time>2022-06-17T15:15:27.000Z</time>
      </trkpt>
      <trkpt lat="49.84322" lon="4.85573">
        <ele>272</ele>
        <time>2022-06-17T15:15:28.000Z</time>
      </trkpt>
      <trkpt lat="49.8432" lon="4.85574">
        <ele>272</ele>
        <time>2022-06-17T15:15:29.000Z</time>
      </trkpt>
      <trkpt lat="49.84318" lon="4.85575">
        <ele>272</ele>
        <time>2022-06-17T15:15:30.000Z</time>
      </trkpt>
      <trkpt lat="49.84316" lon="4.85576">
        <ele>272</ele>
        <time>2022-06-17T15:15:31.000Z</time>
      </trkpt>
      <trkpt lat="49.84313" lon="4.85576">
        <ele>272</ele>
        <time>2022-06-17T15:15:32.000Z</time>
      </trkpt>
      <trkpt lat="49.84311" lon="4.85577">
        <ele>273</ele>
        <time>2022-06-17T15:15:33.000Z</time>
      </trkpt>
      <trkpt lat="49.84309" lon="4.85578">
        <ele>273</ele>
        <time>2022-06-17T15:15:34.000Z</time>
      </trkpt>
      <trkpt lat="49.84307" lon="4.85579">
        <ele>273</ele>
        <time>2022-06-17T15:15:35.000Z</time>
      </trkpt>
      <trkpt lat="49.84305" lon="4.8558">
        <ele>273</ele>
        <time>2022-06-17T15:15:36.000Z</time>
      </trkpt>
      <trkpt lat="49.84301" lon="4.85582">
        <ele>274</ele>
        <time>2022-06-17T15:15:37.000Z</time>
      </trkpt>
      <trkpt lat="49.84298" lon="4.85583">
        <ele>274</ele>
        <time>2022-06-17T15:15:38.000Z</time>
      </trkpt>
      <trkpt lat="49.84295" lon="4.85585">
        <ele>274</ele>
        <time>2022-06-17T15:15:39.000Z</time>
      </trkpt>
      <trkpt lat="49.84292" lon="4.85586">
        <ele>275</ele>
        <time>2022-06-17T15:15:40.000Z</time>
      </trkpt>
      <trkpt lat="49.84289" lon="4.85588">
        <ele>275</ele>
        <time>2022-06-17T15:15:41.000Z</time>
      </trkpt>
      <trkpt lat="49.84286" lon="4.85589">
        <ele>275</ele>
        <time>2022-06-17T15:15:42.000Z</time>
      </trkpt>
      <trkpt lat="49.84283" lon="4.85589">
        <ele>276</ele>
        <time>2022-06-17T15:15:43.000Z</time>
      </trkpt>
      <trkpt lat="49.8428" lon="4.8559">
        <ele>276</ele>
        <time>2022-06-17T15:15:44.000Z</time>
      </trkpt>
      <trkpt lat="49.84277" lon="4.8559">
        <ele>276</ele>
        <time>2022-06-17T15:15:45.000Z</time>
      </trkpt>
      <trkpt lat="49.84274" lon="4.85591">
        <ele>276</ele>
        <time>2022-06-17T15:15:46.000Z</time>
      </trkpt>
      <trkpt lat="49.84271" lon="4.85592">
        <ele>276</ele>
        <time>2022-06-17T15:15:47.000Z</time>
      </trkpt>
      <trkpt lat="49.84267" lon="4.85593">
        <ele>276</ele>
        <time>2022-06-17T15:15:48.000Z</time>
      </trkpt>
      <trkpt lat="49.84264" lon="4.85594">
        <ele>276</ele>
        <time>2022-06-17T15:15:49.000Z</time>
      </trkpt>
      <trkpt lat="49.84261" lon="4.85595">
        <ele>276</ele>
        <time>2022-06-17T15:15:50.000Z</time>
      </trkpt>
      <trkpt lat="49.84258" lon="4.85596">
        <ele>277</ele>
        <time>2022-06-17T15:15:51.000Z</time>
      </trkpt>
      <trkpt lat="49.84255" lon="4.85596">
        <ele>277</ele>
        <time>2022-06-17T15:15:52.000Z</time>
      </trkpt>
      <trkpt lat="49.84251" lon="4.85596">
        <ele>277</ele>
        <time>2022-06-17T15:15:53.000Z</time>
      </trkpt>
      <trkpt lat="49.84247" lon="4.85595">
        <ele>278</ele>
        <time>2022-06-17T15:15:54.000Z</time>
      </trkpt>
      <trkpt lat="49.84244" lon="4.85595">
        <ele>278</ele>
        <time>2022-06-17T15:15:55.000Z</time>
      </trkpt>
      <trkpt lat="49.84241" lon="4.85595">
        <ele>278</ele>
        <time>2022-06-17T15:15:56.000Z</time>
      </trkpt>
      <trkpt lat="49.84239" lon="4.85595">
        <ele>278</ele>
        <time>2022-06-17T15:15:57.000Z</time>
      </trkpt>
      <trkpt lat="49.84236" lon="4.85594">
        <ele>278</ele>
        <time>2022-06-17T15:15:58.000Z</time>
      </trkpt>
      <trkpt lat="49.84233" lon="4.85593">
        <ele>278</ele>
        <time>2022-06-17T15:15:59.000Z</time>
      </trkpt>
      <trkpt lat="49.8423" lon="4.85592">
        <ele>279</ele>
        <time>2022-06-17T15:16:00.000Z</time>
      </trkpt>
      <trkpt lat="49.84227" lon="4.85591">
        <ele>279</ele>
        <time>2022-06-17T15:16:01.000Z</time>
      </trkpt>
      <trkpt lat="49.84223" lon="4.8559">
        <ele>279</ele>
        <time>2022-06-17T15:16:02.000Z</time>
      </trkpt>
      <trkpt lat="49.84221" lon="4.85589">
        <ele>279</ele>
        <time>2022-06-17T15:16:03.000Z</time>
      </trkpt>
      <trkpt lat="49.84217" lon="4.85587">
        <ele>279</ele>
        <time>2022-06-17T15:16:04.000Z</time>
      </trkpt>
      <trkpt lat="49.84214" lon="4.85587">
        <ele>279</ele>
        <time>2022-06-17T15:16:05.000Z</time>
      </trkpt>
      <trkpt lat="49.8421" lon="4.85586">
        <ele>279</ele>
        <time>2022-06-17T15:16:06.000Z</time>
      </trkpt>
      <trkpt lat="49.84207" lon="4.85584">
        <ele>280</ele>
        <time>2022-06-17T15:16:07.000Z</time>
      </trkpt>
      <trkpt lat="49.84205" lon="4.85582">
        <ele>280</ele>
        <time>2022-06-17T15:16:08.000Z</time>
      </trkpt>
      <trkpt lat="49.84202" lon="4.8558">
        <ele>280</ele>
        <time>2022-06-17T15:16:09.000Z</time>
      </trkpt>
      <trkpt lat="49.84199" lon="4.85577">
        <ele>280</ele>
        <time>2022-06-17T15:16:10.000Z</time>
      </trkpt>
      <trkpt lat="49.84196" lon="4.85574">
        <ele>280</ele>
        <time>2022-06-17T15:16:11.000Z</time>
      </trkpt>
      <trkpt lat="49.84195" lon="4.85572">
        <ele>280</ele>
        <time>2022-06-17T15:16:12.000Z</time>
      </trkpt>
      <trkpt lat="49.84193" lon="4.85569">
        <ele>280</ele>
        <time>2022-06-17T15:16:13.000Z</time>
      </trkpt>
      <trkpt lat="49.84192" lon="4.85566">
        <ele>280</ele>
        <time>2022-06-17T15:16:14.000Z</time>
      </trkpt>
      <trkpt lat="49.84191" lon="4.85563">
        <ele>281</ele>
        <time>2022-06-17T15:16:15.000Z</time>
      </trkpt>
      <trkpt lat="49.8419" lon="4.8556">
        <ele>281</ele>
        <time>2022-06-17T15:16:16.000Z</time>
      </trkpt>
      <trkpt lat="49.84188" lon="4.85557">
        <ele>281</ele>
        <time>2022-06-17T15:16:17.000Z</time>
      </trkpt>
      <trkpt lat="49.84187" lon="4.85553">
        <ele>281</ele>
        <time>2022-06-17T15:16:18.000Z</time>
      </trkpt>
      <trkpt lat="49.84186" lon="4.8555">
        <ele>281</ele>
        <time>2022-06-17T15:16:19.000Z</time>
      </trkpt>
      <trkpt lat="49.84186" lon="4.85546">
        <ele>282</ele>
        <time>2022-06-17T15:16:20.000Z</time>
      </trkpt>
      <trkpt lat="49.84185" lon="4.85543">
        <ele>282</ele>
        <time>2022-06-17T15:16:21.000Z</time>
      </trkpt>
      <trkpt lat="49.84183" lon="4.85539">
        <ele>282</ele>
        <time>2022-06-17T15:16:22.000Z</time>
      </trkpt>
      <trkpt lat="49.84182" lon="4.85535">
        <ele>282</ele>
        <time>2022-06-17T15:16:23.000Z</time>
      </trkpt>
      <trkpt lat="49.84181" lon="4.85531">
        <ele>282</ele>
        <time>2022-06-17T15:16:24.000Z</time>
      </trkpt>
      <trkpt lat="49.8418" lon="4.85527">
        <ele>283</ele>
        <time>2022-06-17T15:16:25.000Z</time>
      </trkpt>
      <trkpt lat="49.84179" lon="4.85523">
        <ele>283</ele>
        <time>2022-06-17T15:16:26.000Z</time>
      </trkpt>
      <trkpt lat="49.84178" lon="4.85519">
        <ele>283</ele>
        <time>2022-06-17T15:16:27.000Z</time>
      </trkpt>
      <trkpt lat="49.84177" lon="4.85514">
        <ele>284</ele>
        <time>2022-06-17T15:16:28.000Z</time>
      </trkpt>
      <trkpt lat="49.84176" lon="4.8551">
        <ele>284</ele>
        <time>2022-06-17T15:16:29.000Z</time>
      </trkpt>
      <trkpt lat="49.84174" lon="4.85506">
        <ele>284</ele>
        <time>2022-06-17T15:16:30.000Z</time>
      </trkpt>
      <trkpt lat="49.84173" lon="4.85501">
        <ele>285</ele>
        <time>2022-06-17T15:16:31.000Z</time>
      </trkpt>
      <trkpt lat="49.84173" lon="4.85497">
        <ele>285</ele>
        <time>2022-06-17T15:16:32.000Z</time>
      </trkpt>
      <trkpt lat="49.84172" lon="4.85492">
        <ele>285</ele>
        <time>2022-06-17T15:16:33.000Z</time>
      </trkpt>
      <trkpt lat="49.84171" lon="4.85487">
        <ele>286</ele>
        <time>2022-06-17T15:16:34.000Z</time>
      </trkpt>
      <trkpt lat="49.8417" lon="4.85482">
        <ele>286</ele>
        <time>2022-06-17T15:16:35.000Z</time>
      </trkpt>
      <trkpt lat="49.84169" lon="4.85478">
        <ele>287</ele>
        <time>2022-06-17T15:16:36.000Z</time>
      </trkpt>
      <trkpt lat="49.84167" lon="4.85473">
        <ele>287</ele>
        <time>2022-06-17T15:16:37.000Z</time>
      </trkpt>
      <trkpt lat="49.84166" lon="4.85468">
        <ele>287</ele>
        <time>2022-06-17T15:16:38.000Z</time>
      </trkpt>
      <trkpt lat="49.84165" lon="4.85464">
        <ele>287</ele>
        <time>2022-06-17T15:16:39.000Z</time>
      </trkpt>
      <trkpt lat="49.84164" lon="4.85459">
        <ele>288</ele>
        <time>2022-06-17T15:16:40.000Z</time>
      </trkpt>
      <trkpt lat="49.84164" lon="4.85454">
        <ele>288</ele>
        <time>2022-06-17T15:16:41.000Z</time>
      </trkpt>
      <trkpt lat="49.84163" lon="4.85449">
        <ele>287</ele>
        <time>2022-06-17T15:16:42.000Z</time>
      </trkpt>
      <trkpt lat="49.84162" lon="4.85443">
        <ele>287</ele>
        <time>2022-06-17T15:16:43.000Z</time>
      </trkpt>
      <trkpt lat="49.84162" lon="4.85438">
        <ele>287</ele>
        <time>2022-06-17T15:16:44.000Z</time>
      </trkpt>
      <trkpt lat="49.84161" lon="4.85433">
        <ele>287</ele>
        <time>2022-06-17T15:16:45.000Z</time>
      </trkpt>
      <trkpt lat="49.84161" lon="4.85428">
        <ele>287</ele>
        <time>2022-06-17T15:16:46.000Z</time>
      </trkpt>
      <trkpt lat="49.84161" lon="4.85423">
        <ele>287</ele>
        <time>2022-06-17T15:16:47.000Z</time>
      </trkpt>
      <trkpt lat="49.84161" lon="4.85418">
        <ele>287</ele>
        <time>2022-06-17T15:16:48.000Z</time>
      </trkpt>
      <trkpt lat="49.84161" lon="4.85413">
        <ele>288</ele>
        <time>2022-06-17T15:16:49.000Z</time>
      </trkpt>
      <trkpt lat="49.84161" lon="4.85407">
        <ele>288</ele>
        <time>2022-06-17T15:16:50.000Z</time>
      </trkpt>
      <trkpt lat="49.84161" lon="4.85403">
        <ele>288</ele>
        <time>2022-06-17T15:16:51.000Z</time>
      </trkpt>
      <trkpt lat="49.84161" lon="4.85398">
        <ele>288</ele>
        <time>2022-06-17T15:16:52.000Z</time>
      </trkpt>
      <trkpt lat="49.84161" lon="4.85394">
        <ele>288</ele>
        <time>2022-06-17T15:16:53.000Z</time>
      </trkpt>
      <trkpt lat="49.84162" lon="4.85389">
        <ele>288</ele>
        <time>2022-06-17T15:16:54.000Z</time>
      </trkpt>
      <trkpt lat="49.84162" lon="4.85385">
        <ele>288</ele>
        <time>2022-06-17T15:16:55.000Z</time>
      </trkpt>
      <trkpt lat="49.84162" lon="4.8538">
        <ele>288</ele>
        <time>2022-06-17T15:16:56.000Z</time>
      </trkpt>
      <trkpt lat="49.84162" lon="4.85376">
        <ele>288</ele>
        <time>2022-06-17T15:16:57.000Z</time>
      </trkpt>
      <trkpt lat="49.84162" lon="4.85371">
        <ele>288</ele>
        <time>2022-06-17T15:16:58.000Z</time>
      </trkpt>
      <trkpt lat="49.84162" lon="4.85367">
        <ele>288</ele>
        <time>2022-06-17T15:16:59.000Z</time>
      </trkpt>
      <trkpt lat="49.84162" lon="4.85362">
        <ele>288</ele>
        <time>2022-06-17T15:17:00.000Z</time>
      </trkpt>
      <trkpt lat="49.84162" lon="4.85358">
        <ele>288</ele>
        <time>2022-06-17T15:17:01.000Z</time>
      </trkpt>
      <trkpt lat="49.84162" lon="4.85353">
        <ele>289</ele>
        <time>2022-06-17T15:17:02.000Z</time>
      </trkpt>
      <trkpt lat="49.84162" lon="4.85348">
        <ele>289</ele>
        <time>2022-06-17T15:17:03.000Z</time>
      </trkpt>
      <trkpt lat="49.84162" lon="4.85344">
        <ele>289</ele>
        <time>2022-06-17T15:17:04.000Z</time>
      </trkpt>
      <trkpt lat="49.84162" lon="4.8534">
        <ele>289</ele>
        <time>2022-06-17T15:17:05.000Z</time>
      </trkpt>
      <trkpt lat="49.84162" lon="4.85335">
        <ele>289</ele>
        <time>2022-06-17T15:17:06.000Z</time>
      </trkpt>
      <trkpt lat="49.84163" lon="4.85329">
        <ele>289</ele>
        <time>2022-06-17T15:17:07.000Z</time>
      </trkpt>
      <trkpt lat="49.84163" lon="4.85325">
        <ele>290</ele>
        <time>2022-06-17T15:17:08.000Z</time>
      </trkpt>
      <trkpt lat="49.84164" lon="4.8532">
        <ele>290</ele>
        <time>2022-06-17T15:17:09.000Z</time>
      </trkpt>
      <trkpt lat="49.84165" lon="4.85315">
        <ele>290</ele>
        <time>2022-06-17T15:17:10.000Z</time>
      </trkpt>
      <trkpt lat="49.84166" lon="4.8531">
        <ele>290</ele>
        <time>2022-06-17T15:17:11.000Z</time>
      </trkpt>
      <trkpt lat="49.84167" lon="4.85306">
        <ele>291</ele>
        <time>2022-06-17T15:17:12.000Z</time>
      </trkpt>
      <trkpt lat="49.84167" lon="4.85301">
        <ele>291</ele>
        <time>2022-06-17T15:17:13.000Z</time>
      </trkpt>
      <trkpt lat="49.84168" lon="4.85297">
        <ele>291</ele>
        <time>2022-06-17T15:17:14.000Z</time>
      </trkpt>
      <trkpt lat="49.84169" lon="4.85292">
        <ele>292</ele>
        <time>2022-06-17T15:17:15.000Z</time>
      </trkpt>
      <trkpt lat="49.8417" lon="4.85287">
        <ele>292</ele>
        <time>2022-06-17T15:17:16.000Z</time>
      </trkpt>
      <trkpt lat="49.8417" lon="4.85282">
        <ele>292</ele>
        <time>2022-06-17T15:17:17.000Z</time>
      </trkpt>
      <trkpt lat="49.8417" lon="4.85278">
        <ele>293</ele>
        <time>2022-06-17T15:17:18.000Z</time>
      </trkpt>
      <trkpt lat="49.8417" lon="4.85273">
        <ele>293</ele>
        <time>2022-06-17T15:17:19.000Z</time>
      </trkpt>
      <trkpt lat="49.8417" lon="4.85269">
        <ele>293</ele>
        <time>2022-06-17T15:17:20.000Z</time>
      </trkpt>
      <trkpt lat="49.8417" lon="4.85264">
        <ele>294</ele>
        <time>2022-06-17T15:17:21.000Z</time>
      </trkpt>
      <trkpt lat="49.8417" lon="4.8526">
        <ele>294</ele>
        <time>2022-06-17T15:17:22.000Z</time>
      </trkpt>
      <trkpt lat="49.8417" lon="4.85256">
        <ele>294</ele>
        <time>2022-06-17T15:17:23.000Z</time>
      </trkpt>
      <trkpt lat="49.84169" lon="4.85252">
        <ele>295</ele>
        <time>2022-06-17T15:17:24.000Z</time>
      </trkpt>
      <trkpt lat="49.84168" lon="4.85249">
        <ele>295</ele>
        <time>2022-06-17T15:17:25.000Z</time>
      </trkpt>
      <trkpt lat="49.84168" lon="4.85245">
        <ele>296</ele>
        <time>2022-06-17T15:17:26.000Z</time>
      </trkpt>
      <trkpt lat="49.84167" lon="4.85241">
        <ele>296</ele>
        <time>2022-06-17T15:17:27.000Z</time>
      </trkpt>
      <trkpt lat="49.84166" lon="4.85237">
        <ele>296</ele>
        <time>2022-06-17T15:17:28.000Z</time>
      </trkpt>
      <trkpt lat="49.84165" lon="4.85233">
        <ele>297</ele>
        <time>2022-06-17T15:17:29.000Z</time>
      </trkpt>
      <trkpt lat="49.84165" lon="4.85229">
        <ele>297</ele>
        <time>2022-06-17T15:17:30.000Z</time>
      </trkpt>
      <trkpt lat="49.84164" lon="4.85224">
        <ele>297</ele>
        <time>2022-06-17T15:17:31.000Z</time>
      </trkpt>
      <trkpt lat="49.84163" lon="4.85219">
        <ele>297</ele>
        <time>2022-06-17T15:17:32.000Z</time>
      </trkpt>
      <trkpt lat="49.84162" lon="4.85215">
        <ele>298</ele>
        <time>2022-06-17T15:17:33.000Z</time>
      </trkpt>
      <trkpt lat="49.84161" lon="4.8521">
        <ele>298</ele>
        <time>2022-06-17T15:17:34.000Z</time>
      </trkpt>
      <trkpt lat="49.84161" lon="4.85206">
        <ele>298</ele>
        <time>2022-06-17T15:17:35.000Z</time>
      </trkpt>
      <trkpt lat="49.8416" lon="4.85201">
        <ele>298</ele>
        <time>2022-06-17T15:17:36.000Z</time>
      </trkpt>
      <trkpt lat="49.84159" lon="4.85197">
        <ele>298</ele>
        <time>2022-06-17T15:17:37.000Z</time>
      </trkpt>
      <trkpt lat="49.84158" lon="4.85192">
        <ele>299</ele>
        <time>2022-06-17T15:17:38.000Z</time>
      </trkpt>
      <trkpt lat="49.84156" lon="4.85187">
        <ele>299</ele>
        <time>2022-06-17T15:17:39.000Z</time>
      </trkpt>
      <trkpt lat="49.84156" lon="4.85182">
        <ele>299</ele>
        <time>2022-06-17T15:17:40.000Z</time>
      </trkpt>
      <trkpt lat="49.84156" lon="4.85178">
        <ele>299</ele>
        <time>2022-06-17T15:17:41.000Z</time>
      </trkpt>
      <trkpt lat="49.84155" lon="4.85174">
        <ele>299</ele>
        <time>2022-06-17T15:17:42.000Z</time>
      </trkpt>
      <trkpt lat="49.84155" lon="4.8517">
        <ele>299</ele>
        <time>2022-06-17T15:17:43.000Z</time>
      </trkpt>
      <trkpt lat="49.84154" lon="4.85165">
        <ele>299</ele>
        <time>2022-06-17T15:17:44.000Z</time>
      </trkpt>
      <trkpt lat="49.84153" lon="4.85161">
        <ele>300</ele>
        <time>2022-06-17T15:17:45.000Z</time>
      </trkpt>
      <trkpt lat="49.84151" lon="4.85156">
        <ele>300</ele>
        <time>2022-06-17T15:17:46.000Z</time>
      </trkpt>
      <trkpt lat="49.8415" lon="4.85153">
        <ele>300</ele>
        <time>2022-06-17T15:17:47.000Z</time>
      </trkpt>
      <trkpt lat="49.8415" lon="4.8515">
        <ele>300</ele>
        <time>2022-06-17T15:17:48.000Z</time>
      </trkpt>
      <trkpt lat="49.84149" lon="4.85146">
        <ele>300</ele>
        <time>2022-06-17T15:17:49.000Z</time>
      </trkpt>
      <trkpt lat="49.84149" lon="4.85142">
        <ele>300</ele>
        <time>2022-06-17T15:17:50.000Z</time>
      </trkpt>
      <trkpt lat="49.84149" lon="4.85138">
        <ele>300</ele>
        <time>2022-06-17T15:17:51.000Z</time>
      </trkpt>
      <trkpt lat="49.84148" lon="4.85133">
        <ele>300</ele>
        <time>2022-06-17T15:17:52.000Z</time>
      </trkpt>
      <trkpt lat="49.84148" lon="4.85129">
        <ele>301</ele>
        <time>2022-06-17T15:17:53.000Z</time>
      </trkpt>
      <trkpt lat="49.84147" lon="4.85124">
        <ele>301</ele>
        <time>2022-06-17T15:17:54.000Z</time>
      </trkpt>
      <trkpt lat="49.84146" lon="4.85119">
        <ele>301</ele>
        <time>2022-06-17T15:17:55.000Z</time>
      </trkpt>
      <trkpt lat="49.84145" lon="4.85114">
        <ele>301</ele>
        <time>2022-06-17T15:17:56.000Z</time>
      </trkpt>
      <trkpt lat="49.84145" lon="4.85109">
        <ele>301</ele>
        <time>2022-06-17T15:17:57.000Z</time>
      </trkpt>
      <trkpt lat="49.84145" lon="4.85104">
        <ele>301</ele>
        <time>2022-06-17T15:17:58.000Z</time>
      </trkpt>
      <trkpt lat="49.84144" lon="4.85099">
        <ele>302</ele>
        <time>2022-06-17T15:17:59.000Z</time>
      </trkpt>
      <trkpt lat="49.84144" lon="4.85094">
        <ele>302</ele>
        <time>2022-06-17T15:18:00.000Z</time>
      </trkpt>
      <trkpt lat="49.84143" lon="4.85089">
        <ele>302</ele>
        <time>2022-06-17T15:18:01.000Z</time>
      </trkpt>
      <trkpt lat="49.84143" lon="4.85084">
        <ele>302</ele>
        <time>2022-06-17T15:18:02.000Z</time>
      </trkpt>
      <trkpt lat="49.84142" lon="4.8508">
        <ele>302</ele>
        <time>2022-06-17T15:18:03.000Z</time>
      </trkpt>
      <trkpt lat="49.84142" lon="4.85075">
        <ele>302</ele>
        <time>2022-06-17T15:18:04.000Z</time>
      </trkpt>
      <trkpt lat="49.84142" lon="4.8507">
        <ele>303</ele>
        <time>2022-06-17T15:18:05.000Z</time>
      </trkpt>
      <trkpt lat="49.84142" lon="4.85066">
        <ele>303</ele>
        <time>2022-06-17T15:18:06.000Z</time>
      </trkpt>
      <trkpt lat="49.84141" lon="4.85061">
        <ele>303</ele>
        <time>2022-06-17T15:18:07.000Z</time>
      </trkpt>
      <trkpt lat="49.8414" lon="4.85056">
        <ele>303</ele>
        <time>2022-06-17T15:18:08.000Z</time>
      </trkpt>
      <trkpt lat="49.84139" lon="4.85052">
        <ele>303</ele>
        <time>2022-06-17T15:18:09.000Z</time>
      </trkpt>
      <trkpt lat="49.84138" lon="4.85047">
        <ele>303</ele>
        <time>2022-06-17T15:18:10.000Z</time>
      </trkpt>
      <trkpt lat="49.84137" lon="4.85042">
        <ele>304</ele>
        <time>2022-06-17T15:18:11.000Z</time>
      </trkpt>
      <trkpt lat="49.84136" lon="4.85038">
        <ele>304</ele>
        <time>2022-06-17T15:18:12.000Z</time>
      </trkpt>
      <trkpt lat="49.84135" lon="4.85034">
        <ele>304</ele>
        <time>2022-06-17T15:18:13.000Z</time>
      </trkpt>
      <trkpt lat="49.84134" lon="4.85029">
        <ele>304</ele>
        <time>2022-06-17T15:18:14.000Z</time>
      </trkpt>
      <trkpt lat="49.84133" lon="4.85025">
        <ele>305</ele>
        <time>2022-06-17T15:18:15.000Z</time>
      </trkpt>
      <trkpt lat="49.84132" lon="4.85021">
        <ele>305</ele>
        <time>2022-06-17T15:18:16.000Z</time>
      </trkpt>
      <trkpt lat="49.84132" lon="4.85017">
        <ele>305</ele>
        <time>2022-06-17T15:18:17.000Z</time>
      </trkpt>
      <trkpt lat="49.84131" lon="4.85013">
        <ele>305</ele>
        <time>2022-06-17T15:18:18.000Z</time>
      </trkpt>
      <trkpt lat="49.8413" lon="4.85008">
        <ele>306</ele>
        <time>2022-06-17T15:18:19.000Z</time>
      </trkpt>
      <trkpt lat="49.8413" lon="4.85004">
        <ele>306</ele>
        <time>2022-06-17T15:18:20.000Z</time>
      </trkpt>
      <trkpt lat="49.84129" lon="4.85">
        <ele>306</ele>
        <time>2022-06-17T15:18:21.000Z</time>
      </trkpt>
      <trkpt lat="49.84129" lon="4.84996">
        <ele>306</ele>
        <time>2022-06-17T15:18:22.000Z</time>
      </trkpt>
      <trkpt lat="49.84128" lon="4.84991">
        <ele>307</ele>
        <time>2022-06-17T15:18:23.000Z</time>
      </trkpt>
      <trkpt lat="49.84128" lon="4.84986">
        <ele>307</ele>
        <time>2022-06-17T15:18:24.000Z</time>
      </trkpt>
      <trkpt lat="49.84127" lon="4.84982">
        <ele>307</ele>
        <time>2022-06-17T15:18:25.000Z</time>
      </trkpt>
      <trkpt lat="49.84127" lon="4.84977">
        <ele>307</ele>
        <time>2022-06-17T15:18:26.000Z</time>
      </trkpt>
      <trkpt lat="49.84126" lon="4.84973">
        <ele>308</ele>
        <time>2022-06-17T15:18:27.000Z</time>
      </trkpt>
      <trkpt lat="49.84126" lon="4.84968">
        <ele>308</ele>
        <time>2022-06-17T15:18:28.000Z</time>
      </trkpt>
      <trkpt lat="49.84125" lon="4.84963">
        <ele>308</ele>
        <time>2022-06-17T15:18:29.000Z</time>
      </trkpt>
      <trkpt lat="49.84124" lon="4.84959">
        <ele>308</ele>
        <time>2022-06-17T15:18:30.000Z</time>
      </trkpt>
      <trkpt lat="49.84124" lon="4.84955">
        <ele>309</ele>
        <time>2022-06-17T15:18:31.000Z</time>
      </trkpt>
      <trkpt lat="49.84124" lon="4.84951">
        <ele>309</ele>
        <time>2022-06-17T15:18:32.000Z</time>
      </trkpt>
      <trkpt lat="49.84124" lon="4.84947">
        <ele>309</ele>
        <time>2022-06-17T15:18:33.000Z</time>
      </trkpt>
      <trkpt lat="49.84123" lon="4.84943">
        <ele>309</ele>
        <time>2022-06-17T15:18:34.000Z</time>
      </trkpt>
      <trkpt lat="49.84123" lon="4.84938">
        <ele>309</ele>
        <time>2022-06-17T15:18:35.000Z</time>
      </trkpt>
      <trkpt lat="49.84123" lon="4.84933">
        <ele>309</ele>
        <time>2022-06-17T15:18:36.000Z</time>
      </trkpt>
      <trkpt lat="49.84122" lon="4.84928">
        <ele>310</ele>
        <time>2022-06-17T15:18:37.000Z</time>
      </trkpt>
      <trkpt lat="49.84122" lon="4.84924">
        <ele>310</ele>
        <time>2022-06-17T15:18:38.000Z</time>
      </trkpt>
      <trkpt lat="49.84122" lon="4.84919">
        <ele>310</ele>
        <time>2022-06-17T15:18:39.000Z</time>
      </trkpt>
      <trkpt lat="49.84121" lon="4.84915">
        <ele>310</ele>
        <time>2022-06-17T15:18:40.000Z</time>
      </trkpt>
      <trkpt lat="49.84121" lon="4.8491">
        <ele>311</ele>
        <time>2022-06-17T15:18:41.000Z</time>
      </trkpt>
      <trkpt lat="49.84121" lon="4.84906">
        <ele>311</ele>
        <time>2022-06-17T15:18:42.000Z</time>
      </trkpt>
      <trkpt lat="49.84122" lon="4.84901">
        <ele>311</ele>
        <time>2022-06-17T15:18:43.000Z</time>
      </trkpt>
      <trkpt lat="49.84122" lon="4.84897">
        <ele>311</ele>
        <time>2022-06-17T15:18:44.000Z</time>
      </trkpt>
      <trkpt lat="49.84122" lon="4.84893">
        <ele>311</ele>
        <time>2022-06-17T15:18:45.000Z</time>
      </trkpt>
      <trkpt lat="49.84122" lon="4.8489">
        <ele>312</ele>
        <time>2022-06-17T15:18:46.000Z</time>
      </trkpt>
      <trkpt lat="49.84122" lon="4.84886">
        <ele>312</ele>
        <time>2022-06-17T15:18:47.000Z</time>
      </trkpt>
      <trkpt lat="49.84122" lon="4.84882">
        <ele>312</ele>
        <time>2022-06-17T15:18:48.000Z</time>
      </trkpt>
      <trkpt lat="49.84122" lon="4.84877">
        <ele>312</ele>
        <time>2022-06-17T15:18:49.000Z</time>
      </trkpt>
      <trkpt lat="49.84122" lon="4.84873">
        <ele>313</ele>
        <time>2022-06-17T15:18:50.000Z</time>
      </trkpt>
      <trkpt lat="49.84122" lon="4.84869">
        <ele>313</ele>
        <time>2022-06-17T15:18:51.000Z</time>
      </trkpt>
      <trkpt lat="49.84122" lon="4.84865">
        <ele>313</ele>
        <time>2022-06-17T15:18:52.000Z</time>
      </trkpt>
      <trkpt lat="49.84121" lon="4.84861">
        <ele>313</ele>
        <time>2022-06-17T15:18:53.000Z</time>
      </trkpt>
      <trkpt lat="49.84121" lon="4.84857">
        <ele>314</ele>
        <time>2022-06-17T15:18:54.000Z</time>
      </trkpt>
      <trkpt lat="49.8412" lon="4.84853">
        <ele>314</ele>
        <time>2022-06-17T15:18:55.000Z</time>
      </trkpt>
      <trkpt lat="49.84119" lon="4.84849">
        <ele>314</ele>
        <time>2022-06-17T15:18:56.000Z</time>
      </trkpt>
      <trkpt lat="49.84119" lon="4.84845">
        <ele>314</ele>
        <time>2022-06-17T15:18:57.000Z</time>
      </trkpt>
      <trkpt lat="49.84119" lon="4.8484">
        <ele>315</ele>
        <time>2022-06-17T15:18:58.000Z</time>
      </trkpt>
      <trkpt lat="49.84118" lon="4.84835">
        <ele>315</ele>
        <time>2022-06-17T15:18:59.000Z</time>
      </trkpt>
      <trkpt lat="49.84118" lon="4.84831">
        <ele>315</ele>
        <time>2022-06-17T15:19:00.000Z</time>
      </trkpt>
      <trkpt lat="49.84117" lon="4.84826">
        <ele>316</ele>
        <time>2022-06-17T15:19:01.000Z</time>
      </trkpt>
      <trkpt lat="49.84117" lon="4.84822">
        <ele>316</ele>
        <time>2022-06-17T15:19:02.000Z</time>
      </trkpt>
      <trkpt lat="49.84116" lon="4.84818">
        <ele>316</ele>
        <time>2022-06-17T15:19:03.000Z</time>
      </trkpt>
      <trkpt lat="49.84115" lon="4.84814">
        <ele>317</ele>
        <time>2022-06-17T15:19:04.000Z</time>
      </trkpt>
      <trkpt lat="49.84115" lon="4.8481">
        <ele>317</ele>
        <time>2022-06-17T15:19:05.000Z</time>
      </trkpt>
      <trkpt lat="49.84114" lon="4.84806">
        <ele>317</ele>
        <time>2022-06-17T15:19:06.000Z</time>
      </trkpt>
      <trkpt lat="49.84114" lon="4.84801">
        <ele>318</ele>
        <time>2022-06-17T15:19:07.000Z</time>
      </trkpt>
      <trkpt lat="49.84113" lon="4.84797">
        <ele>318</ele>
        <time>2022-06-17T15:19:08.000Z</time>
      </trkpt>
      <trkpt lat="49.84113" lon="4.84793">
        <ele>318</ele>
        <time>2022-06-17T15:19:09.000Z</time>
      </trkpt>
      <trkpt lat="49.84112" lon="4.84788">
        <ele>318</ele>
        <time>2022-06-17T15:19:10.000Z</time>
      </trkpt>
      <trkpt lat="49.84111" lon="4.84784">
        <ele>319</ele>
        <time>2022-06-17T15:19:11.000Z</time>
      </trkpt>
      <trkpt lat="49.8411" lon="4.8478">
        <ele>319</ele>
        <time>2022-06-17T15:19:12.000Z</time>
      </trkpt>
      <trkpt lat="49.84109" lon="4.84775">
        <ele>320</ele>
        <time>2022-06-17T15:19:13.000Z</time>
      </trkpt>
      <trkpt lat="49.84108" lon="4.84771">
        <ele>320</ele>
        <time>2022-06-17T15:19:14.000Z</time>
      </trkpt>
      <trkpt lat="49.84107" lon="4.84767">
        <ele>320</ele>
        <time>2022-06-17T15:19:15.000Z</time>
      </trkpt>
      <trkpt lat="49.84106" lon="4.84763">
        <ele>321</ele>
        <time>2022-06-17T15:19:16.000Z</time>
      </trkpt>
      <trkpt lat="49.84105" lon="4.84759">
        <ele>321</ele>
        <time>2022-06-17T15:19:17.000Z</time>
      </trkpt>
      <trkpt lat="49.84104" lon="4.84755">
        <ele>322</ele>
        <time>2022-06-17T15:19:18.000Z</time>
      </trkpt>
      <trkpt lat="49.84102" lon="4.84751">
        <ele>322</ele>
        <time>2022-06-17T15:19:19.000Z</time>
      </trkpt>
      <trkpt lat="49.84101" lon="4.84748">
        <ele>322</ele>
        <time>2022-06-17T15:19:20.000Z</time>
      </trkpt>
      <trkpt lat="49.84099" lon="4.84745">
        <ele>323</ele>
        <time>2022-06-17T15:19:21.000Z</time>
      </trkpt>
      <trkpt lat="49.84098" lon="4.84742">
        <ele>323</ele>
        <time>2022-06-17T15:19:22.000Z</time>
      </trkpt>
      <trkpt lat="49.84097" lon="4.84739">
        <ele>323</ele>
        <time>2022-06-17T15:19:23.000Z</time>
      </trkpt>
      <trkpt lat="49.84096" lon="4.84736">
        <ele>323</ele>
        <time>2022-06-17T15:19:24.000Z</time>
      </trkpt>
      <trkpt lat="49.84095" lon="4.84732">
        <ele>323</ele>
        <time>2022-06-17T15:19:25.000Z</time>
      </trkpt>
      <trkpt lat="49.84093" lon="4.84729">
        <ele>323</ele>
        <time>2022-06-17T15:19:26.000Z</time>
      </trkpt>
      <trkpt lat="49.84093" lon="4.84727">
        <ele>323</ele>
        <time>2022-06-17T15:19:27.000Z</time>
      </trkpt>
      <trkpt lat="49.84091" lon="4.84724">
        <ele>323</ele>
        <time>2022-06-17T15:19:28.000Z</time>
      </trkpt>
      <trkpt lat="49.8409" lon="4.84721">
        <ele>323</ele>
        <time>2022-06-17T15:19:29.000Z</time>
      </trkpt>
      <trkpt lat="49.84088" lon="4.84718">
        <ele>323</ele>
        <time>2022-06-17T15:19:30.000Z</time>
      </trkpt>
      <trkpt lat="49.84086" lon="4.84715">
        <ele>323</ele>
        <time>2022-06-17T15:19:31.000Z</time>
      </trkpt>
      <trkpt lat="49.84084" lon="4.84711">
        <ele>323</ele>
        <time>2022-06-17T15:19:32.000Z</time>
      </trkpt>
      <trkpt lat="49.84082" lon="4.84708">
        <ele>323</ele>
        <time>2022-06-17T15:19:33.000Z</time>
      </trkpt>
      <trkpt lat="49.8408" lon="4.84705">
        <ele>323</ele>
        <time>2022-06-17T15:19:34.000Z</time>
      </trkpt>
      <trkpt lat="49.84078" lon="4.84702">
        <ele>323</ele>
        <time>2022-06-17T15:19:35.000Z</time>
      </trkpt>
      <trkpt lat="49.84076" lon="4.84699">
        <ele>323</ele>
        <time>2022-06-17T15:19:36.000Z</time>
      </trkpt>
      <trkpt lat="49.84075" lon="4.84697">
        <ele>323</ele>
        <time>2022-06-17T15:19:37.000Z</time>
      </trkpt>
      <trkpt lat="49.84073" lon="4.84694">
        <ele>323</ele>
        <time>2022-06-17T15:19:38.000Z</time>
      </trkpt>
      <trkpt lat="49.84071" lon="4.84691">
        <ele>322</ele>
        <time>2022-06-17T15:19:39.000Z</time>
      </trkpt>
      <trkpt lat="49.84069" lon="4.84688">
        <ele>322</ele>
        <time>2022-06-17T15:19:40.000Z</time>
      </trkpt>
      <trkpt lat="49.84067" lon="4.84685">
        <ele>322</ele>
        <time>2022-06-17T15:19:41.000Z</time>
      </trkpt>
      <trkpt lat="49.84065" lon="4.84681">
        <ele>322</ele>
        <time>2022-06-17T15:19:42.000Z</time>
      </trkpt>
      <trkpt lat="49.84063" lon="4.84679">
        <ele>322</ele>
        <time>2022-06-17T15:19:43.000Z</time>
      </trkpt>
      <trkpt lat="49.8406" lon="4.84675">
        <ele>322</ele>
        <time>2022-06-17T15:19:44.000Z</time>
      </trkpt>
      <trkpt lat="49.84058" lon="4.84672">
        <ele>322</ele>
        <time>2022-06-17T15:19:45.000Z</time>
      </trkpt>
      <trkpt lat="49.84055" lon="4.84668">
        <ele>322</ele>
        <time>2022-06-17T15:19:46.000Z</time>
      </trkpt>
      <trkpt lat="49.84053" lon="4.84665">
        <ele>323</ele>
        <time>2022-06-17T15:19:47.000Z</time>
      </trkpt>
      <trkpt lat="49.8405" lon="4.84661">
        <ele>323</ele>
        <time>2022-06-17T15:19:48.000Z</time>
      </trkpt>
      <trkpt lat="49.84048" lon="4.84658">
        <ele>323</ele>
        <time>2022-06-17T15:19:49.000Z</time>
      </trkpt>
      <trkpt lat="49.84046" lon="4.84655">
        <ele>323</ele>
        <time>2022-06-17T15:19:50.000Z</time>
      </trkpt>
      <trkpt lat="49.84043" lon="4.84651">
        <ele>323</ele>
        <time>2022-06-17T15:19:51.000Z</time>
      </trkpt>
      <trkpt lat="49.84041" lon="4.84648">
        <ele>323</ele>
        <time>2022-06-17T15:19:52.000Z</time>
      </trkpt>
      <trkpt lat="49.84039" lon="4.84645">
        <ele>323</ele>
        <time>2022-06-17T15:19:53.000Z</time>
      </trkpt>
      <trkpt lat="49.84036" lon="4.84642">
        <ele>323</ele>
        <time>2022-06-17T15:19:54.000Z</time>
      </trkpt>
      <trkpt lat="49.84034" lon="4.84639">
        <ele>323</ele>
        <time>2022-06-17T15:19:55.000Z</time>
      </trkpt>
      <trkpt lat="49.84032" lon="4.84636">
        <ele>323</ele>
        <time>2022-06-17T15:19:56.000Z</time>
      </trkpt>
      <trkpt lat="49.84029" lon="4.84633">
        <ele>323</ele>
        <time>2022-06-17T15:19:57.000Z</time>
      </trkpt>
      <trkpt lat="49.84027" lon="4.84631">
        <ele>323</ele>
        <time>2022-06-17T15:19:58.000Z</time>
      </trkpt>
      <trkpt lat="49.84025" lon="4.84628">
        <ele>323</ele>
        <time>2022-06-17T15:19:59.000Z</time>
      </trkpt>
      <trkpt lat="49.84023" lon="4.84625">
        <ele>323</ele>
        <time>2022-06-17T15:20:00.000Z</time>
      </trkpt>
      <trkpt lat="49.84021" lon="4.84623">
        <ele>323</ele>
        <time>2022-06-17T15:20:01.000Z</time>
      </trkpt>
      <trkpt lat="49.84019" lon="4.8462">
        <ele>323</ele>
        <time>2022-06-17T15:20:02.000Z</time>
      </trkpt>
      <trkpt lat="49.84016" lon="4.84618">
        <ele>323</ele>
        <time>2022-06-17T15:20:03.000Z</time>
      </trkpt>
      <trkpt lat="49.84014" lon="4.84615">
        <ele>323</ele>
        <time>2022-06-17T15:20:04.000Z</time>
      </trkpt>
      <trkpt lat="49.84012" lon="4.84612">
        <ele>323</ele>
        <time>2022-06-17T15:20:05.000Z</time>
      </trkpt>
      <trkpt lat="49.8401" lon="4.8461">
        <ele>323</ele>
        <time>2022-06-17T15:20:06.000Z</time>
      </trkpt>
      <trkpt lat="49.84007" lon="4.84608">
        <ele>323</ele>
        <time>2022-06-17T15:20:07.000Z</time>
      </trkpt>
      <trkpt lat="49.84005" lon="4.84606">
        <ele>323</ele>
        <time>2022-06-17T15:20:08.000Z</time>
      </trkpt>
      <trkpt lat="49.84002" lon="4.84604">
        <ele>323</ele>
        <time>2022-06-17T15:20:09.000Z</time>
      </trkpt>
      <trkpt lat="49.84" lon="4.84602">
        <ele>323</ele>
        <time>2022-06-17T15:20:10.000Z</time>
      </trkpt>
      <trkpt lat="49.83998" lon="4.84599">
        <ele>323</ele>
        <time>2022-06-17T15:20:11.000Z</time>
      </trkpt>
      <trkpt lat="49.83995" lon="4.84597">
        <ele>323</ele>
        <time>2022-06-17T15:20:12.000Z</time>
      </trkpt>
      <trkpt lat="49.83992" lon="4.84595">
        <ele>323</ele>
        <time>2022-06-17T15:20:13.000Z</time>
      </trkpt>
      <trkpt lat="49.83989" lon="4.84591">
        <ele>323</ele>
        <time>2022-06-17T15:20:14.000Z</time>
      </trkpt>
      <trkpt lat="49.83986" lon="4.84588">
        <ele>323</ele>
        <time>2022-06-17T15:20:15.000Z</time>
      </trkpt>
      <trkpt lat="49.83984" lon="4.84585">
        <ele>323</ele>
        <time>2022-06-17T15:20:16.000Z</time>
      </trkpt>
      <trkpt lat="49.83981" lon="4.84581">
        <ele>323</ele>
        <time>2022-06-17T15:20:17.000Z</time>
      </trkpt>
      <trkpt lat="49.83979" lon="4.84578">
        <ele>323</ele>
        <time>2022-06-17T15:20:18.000Z</time>
      </trkpt>
      <trkpt lat="49.83976" lon="4.84575">
        <ele>323</ele>
        <time>2022-06-17T15:20:19.000Z</time>
      </trkpt>
      <trkpt lat="49.83973" lon="4.84572">
        <ele>323</ele>
        <time>2022-06-17T15:20:20.000Z</time>
      </trkpt>
      <trkpt lat="49.8397" lon="4.84569">
        <ele>323</ele>
        <time>2022-06-17T15:20:21.000Z</time>
      </trkpt>
      <trkpt lat="49.83968" lon="4.84566">
        <ele>323</ele>
        <time>2022-06-17T15:20:22.000Z</time>
      </trkpt>
      <trkpt lat="49.83965" lon="4.84563">
        <ele>324</ele>
        <time>2022-06-17T15:20:23.000Z</time>
      </trkpt>
      <trkpt lat="49.83963" lon="4.84561">
        <ele>324</ele>
        <time>2022-06-17T15:20:24.000Z</time>
      </trkpt>
      <trkpt lat="49.83961" lon="4.84559">
        <ele>324</ele>
        <time>2022-06-17T15:20:25.000Z</time>
      </trkpt>
      <trkpt lat="49.83959" lon="4.84556">
        <ele>324</ele>
        <time>2022-06-17T15:20:26.000Z</time>
      </trkpt>
      <trkpt lat="49.83956" lon="4.84553">
        <ele>324</ele>
        <time>2022-06-17T15:20:27.000Z</time>
      </trkpt>
      <trkpt lat="49.83953" lon="4.84551">
        <ele>324</ele>
        <time>2022-06-17T15:20:28.000Z</time>
      </trkpt>
      <trkpt lat="49.8395" lon="4.84548">
        <ele>324</ele>
        <time>2022-06-17T15:20:29.000Z</time>
      </trkpt>
      <trkpt lat="49.83947" lon="4.84546">
        <ele>324</ele>
        <time>2022-06-17T15:20:30.000Z</time>
      </trkpt>
      <trkpt lat="49.83944" lon="4.84544">
        <ele>325</ele>
        <time>2022-06-17T15:20:31.000Z</time>
      </trkpt>
      <trkpt lat="49.83941" lon="4.84541">
        <ele>325</ele>
        <time>2022-06-17T15:20:32.000Z</time>
      </trkpt>
      <trkpt lat="49.83938" lon="4.84539">
        <ele>325</ele>
        <time>2022-06-17T15:20:33.000Z</time>
      </trkpt>
      <trkpt lat="49.83935" lon="4.84537">
        <ele>325</ele>
        <time>2022-06-17T15:20:34.000Z</time>
      </trkpt>
      <trkpt lat="49.83932" lon="4.84535">
        <ele>325</ele>
        <time>2022-06-17T15:20:35.000Z</time>
      </trkpt>
      <trkpt lat="49.83929" lon="4.84533">
        <ele>325</ele>
        <time>2022-06-17T15:20:36.000Z</time>
      </trkpt>
      <trkpt lat="49.83927" lon="4.8453">
        <ele>325</ele>
        <time>2022-06-17T15:20:37.000Z</time>
      </trkpt>
      <trkpt lat="49.83924" lon="4.84528">
        <ele>325</ele>
        <time>2022-06-17T15:20:38.000Z</time>
      </trkpt>
      <trkpt lat="49.83921" lon="4.84525">
        <ele>325</ele>
        <time>2022-06-17T15:20:39.000Z</time>
      </trkpt>
      <trkpt lat="49.83919" lon="4.84523">
        <ele>325</ele>
        <time>2022-06-17T15:20:40.000Z</time>
      </trkpt>
      <trkpt lat="49.83916" lon="4.8452">
        <ele>325</ele>
        <time>2022-06-17T15:20:41.000Z</time>
      </trkpt>
      <trkpt lat="49.83914" lon="4.84518">
        <ele>325</ele>
        <time>2022-06-17T15:20:42.000Z</time>
      </trkpt>
      <trkpt lat="49.83912" lon="4.84516">
        <ele>325</ele>
        <time>2022-06-17T15:20:43.000Z</time>
      </trkpt>
      <trkpt lat="49.83909" lon="4.84514">
        <ele>325</ele>
        <time>2022-06-17T15:20:44.000Z</time>
      </trkpt>
      <trkpt lat="49.83907" lon="4.84511">
        <ele>325</ele>
        <time>2022-06-17T15:20:45.000Z</time>
      </trkpt>
      <trkpt lat="49.83904" lon="4.84508">
        <ele>326</ele>
        <time>2022-06-17T15:20:46.000Z</time>
      </trkpt>
      <trkpt lat="49.83901" lon="4.84506">
        <ele>326</ele>
        <time>2022-06-17T15:20:47.000Z</time>
      </trkpt>
      <trkpt lat="49.83899" lon="4.84504">
        <ele>326</ele>
        <time>2022-06-17T15:20:48.000Z</time>
      </trkpt>
      <trkpt lat="49.83897" lon="4.84501">
        <ele>326</ele>
        <time>2022-06-17T15:20:49.000Z</time>
      </trkpt>
      <trkpt lat="49.83894" lon="4.84499">
        <ele>326</ele>
        <time>2022-06-17T15:20:50.000Z</time>
      </trkpt>
      <trkpt lat="49.83892" lon="4.84497">
        <ele>326</ele>
        <time>2022-06-17T15:20:51.000Z</time>
      </trkpt>
      <trkpt lat="49.8389" lon="4.84495">
        <ele>326</ele>
        <time>2022-06-17T15:20:52.000Z</time>
      </trkpt>
      <trkpt lat="49.83887" lon="4.84493">
        <ele>326</ele>
        <time>2022-06-17T15:20:53.000Z</time>
      </trkpt>
      <trkpt lat="49.83885" lon="4.84491">
        <ele>326</ele>
        <time>2022-06-17T15:20:54.000Z</time>
      </trkpt>
      <trkpt lat="49.83882" lon="4.84488">
        <ele>326</ele>
        <time>2022-06-17T15:20:55.000Z</time>
      </trkpt>
      <trkpt lat="49.83879" lon="4.84486">
        <ele>326</ele>
        <time>2022-06-17T15:20:56.000Z</time>
      </trkpt>
      <trkpt lat="49.83876" lon="4.84484">
        <ele>326</ele>
        <time>2022-06-17T15:20:57.000Z</time>
      </trkpt>
      <trkpt lat="49.83873" lon="4.84482">
        <ele>327</ele>
        <time>2022-06-17T15:20:58.000Z</time>
      </trkpt>
      <trkpt lat="49.8387" lon="4.8448">
        <ele>327</ele>
        <time>2022-06-17T15:20:59.000Z</time>
      </trkpt>
      <trkpt lat="49.83867" lon="4.84478">
        <ele>327</ele>
        <time>2022-06-17T15:21:00.000Z</time>
      </trkpt>
      <trkpt lat="49.83865" lon="4.84476">
        <ele>327</ele>
        <time>2022-06-17T15:21:01.000Z</time>
      </trkpt>
      <trkpt lat="49.83862" lon="4.84474">
        <ele>327</ele>
        <time>2022-06-17T15:21:02.000Z</time>
      </trkpt>
      <trkpt lat="49.83858" lon="4.84472">
        <ele>328</ele>
        <time>2022-06-17T15:21:03.000Z</time>
      </trkpt>
      <trkpt lat="49.83856" lon="4.84471">
        <ele>328</ele>
        <time>2022-06-17T15:21:04.000Z</time>
      </trkpt>
      <trkpt lat="49.83854" lon="4.8447">
        <ele>328</ele>
        <time>2022-06-17T15:21:05.000Z</time>
      </trkpt>
      <trkpt lat="49.83851" lon="4.84468">
        <ele>328</ele>
        <time>2022-06-17T15:21:06.000Z</time>
      </trkpt>
      <trkpt lat="49.83848" lon="4.84466">
        <ele>328</ele>
        <time>2022-06-17T15:21:07.000Z</time>
      </trkpt>
      <trkpt lat="49.83846" lon="4.84464">
        <ele>329</ele>
        <time>2022-06-17T15:21:08.000Z</time>
      </trkpt>
      <trkpt lat="49.83843" lon="4.84462">
        <ele>329</ele>
        <time>2022-06-17T15:21:09.000Z</time>
      </trkpt>
      <trkpt lat="49.8384" lon="4.8446">
        <ele>329</ele>
        <time>2022-06-17T15:21:10.000Z</time>
      </trkpt>
      <trkpt lat="49.83837" lon="4.84459">
        <ele>329</ele>
        <time>2022-06-17T15:21:11.000Z</time>
      </trkpt>
      <trkpt lat="49.83834" lon="4.84458">
        <ele>329</ele>
        <time>2022-06-17T15:21:12.000Z</time>
      </trkpt>
      <trkpt lat="49.83831" lon="4.84457">
        <ele>329</ele>
        <time>2022-06-17T15:21:13.000Z</time>
      </trkpt>
      <trkpt lat="49.83828" lon="4.84455">
        <ele>329</ele>
        <time>2022-06-17T15:21:14.000Z</time>
      </trkpt>
      <trkpt lat="49.83825" lon="4.84453">
        <ele>329</ele>
        <time>2022-06-17T15:21:15.000Z</time>
      </trkpt>
      <trkpt lat="49.83821" lon="4.84452">
        <ele>330</ele>
        <time>2022-06-17T15:21:16.000Z</time>
      </trkpt>
      <trkpt lat="49.83818" lon="4.8445">
        <ele>330</ele>
        <time>2022-06-17T15:21:17.000Z</time>
      </trkpt>
      <trkpt lat="49.83815" lon="4.84449">
        <ele>330</ele>
        <time>2022-06-17T15:21:18.000Z</time>
      </trkpt>
      <trkpt lat="49.83812" lon="4.84448">
        <ele>330</ele>
        <time>2022-06-17T15:21:19.000Z</time>
      </trkpt>
      <trkpt lat="49.83809" lon="4.84447">
        <ele>331</ele>
        <time>2022-06-17T15:21:20.000Z</time>
      </trkpt>
      <trkpt lat="49.83806" lon="4.84446">
        <ele>331</ele>
        <time>2022-06-17T15:21:21.000Z</time>
      </trkpt>
      <trkpt lat="49.83802" lon="4.84445">
        <ele>331</ele>
        <time>2022-06-17T15:21:22.000Z</time>
      </trkpt>
      <trkpt lat="49.83798" lon="4.84443">
        <ele>331</ele>
        <time>2022-06-17T15:21:23.000Z</time>
      </trkpt>
      <trkpt lat="49.83795" lon="4.84443">
        <ele>332</ele>
        <time>2022-06-17T15:21:24.000Z</time>
      </trkpt>
      <trkpt lat="49.83791" lon="4.84442">
        <ele>332</ele>
        <time>2022-06-17T15:21:25.000Z</time>
      </trkpt>
      <trkpt lat="49.83788" lon="4.8444">
        <ele>332</ele>
        <time>2022-06-17T15:21:26.000Z</time>
      </trkpt>
      <trkpt lat="49.83785" lon="4.84439">
        <ele>332</ele>
        <time>2022-06-17T15:21:27.000Z</time>
      </trkpt>
      <trkpt lat="49.83782" lon="4.84437">
        <ele>332</ele>
        <time>2022-06-17T15:21:28.000Z</time>
      </trkpt>
      <trkpt lat="49.8378" lon="4.84436">
        <ele>332</ele>
        <time>2022-06-17T15:21:29.000Z</time>
      </trkpt>
      <trkpt lat="49.83777" lon="4.84434">
        <ele>333</ele>
        <time>2022-06-17T15:21:30.000Z</time>
      </trkpt>
      <trkpt lat="49.83775" lon="4.84433">
        <ele>333</ele>
        <time>2022-06-17T15:21:31.000Z</time>
      </trkpt>
      <trkpt lat="49.83772" lon="4.84431">
        <ele>333</ele>
        <time>2022-06-17T15:21:32.000Z</time>
      </trkpt>
      <trkpt lat="49.83769" lon="4.8443">
        <ele>333</ele>
        <time>2022-06-17T15:21:33.000Z</time>
      </trkpt>
      <trkpt lat="49.83767" lon="4.84428">
        <ele>333</ele>
        <time>2022-06-17T15:21:34.000Z</time>
      </trkpt>
      <trkpt lat="49.83764" lon="4.84425">
        <ele>334</ele>
        <time>2022-06-17T15:21:35.000Z</time>
      </trkpt>
      <trkpt lat="49.83761" lon="4.84423">
        <ele>334</ele>
        <time>2022-06-17T15:21:36.000Z</time>
      </trkpt>
      <trkpt lat="49.83758" lon="4.84421">
        <ele>334</ele>
        <time>2022-06-17T15:21:37.000Z</time>
      </trkpt>
      <trkpt lat="49.83755" lon="4.84418">
        <ele>334</ele>
        <time>2022-06-17T15:21:38.000Z</time>
      </trkpt>
      <trkpt lat="49.83753" lon="4.84415">
        <ele>334</ele>
        <time>2022-06-17T15:21:39.000Z</time>
      </trkpt>
      <trkpt lat="49.8375" lon="4.84412">
        <ele>335</ele>
        <time>2022-06-17T15:21:40.000Z</time>
      </trkpt>
      <trkpt lat="49.83747" lon="4.8441">
        <ele>335</ele>
        <time>2022-06-17T15:21:41.000Z</time>
      </trkpt>
      <trkpt lat="49.83745" lon="4.84407">
        <ele>335</ele>
        <time>2022-06-17T15:21:42.000Z</time>
      </trkpt>
      <trkpt lat="49.83743" lon="4.84404">
        <ele>335</ele>
        <time>2022-06-17T15:21:43.000Z</time>
      </trkpt>
      <trkpt lat="49.83742" lon="4.84402">
        <ele>336</ele>
        <time>2022-06-17T15:21:44.000Z</time>
      </trkpt>
      <trkpt lat="49.8374" lon="4.844">
        <ele>336</ele>
        <time>2022-06-17T15:21:45.000Z</time>
      </trkpt>
      <trkpt lat="49.83738" lon="4.84397">
        <ele>336</ele>
        <time>2022-06-17T15:21:46.000Z</time>
      </trkpt>
      <trkpt lat="49.83737" lon="4.84395">
        <ele>336</ele>
        <time>2022-06-17T15:21:47.000Z</time>
      </trkpt>
      <trkpt lat="49.83735" lon="4.84393">
        <ele>336</ele>
        <time>2022-06-17T15:21:48.000Z</time>
      </trkpt>
      <trkpt lat="49.83734" lon="4.84391">
        <ele>336</ele>
        <time>2022-06-17T15:21:49.000Z</time>
      </trkpt>
      <trkpt lat="49.83732" lon="4.84388">
        <ele>337</ele>
        <time>2022-06-17T15:21:50.000Z</time>
      </trkpt>
      <trkpt lat="49.8373" lon="4.84385">
        <ele>337</ele>
        <time>2022-06-17T15:21:51.000Z</time>
      </trkpt>
      <trkpt lat="49.83728" lon="4.84382">
        <ele>337</ele>
        <time>2022-06-17T15:21:52.000Z</time>
      </trkpt>
      <trkpt lat="49.83726" lon="4.84379">
        <ele>337</ele>
        <time>2022-06-17T15:21:53.000Z</time>
      </trkpt>
      <trkpt lat="49.83723" lon="4.84376">
        <ele>337</ele>
        <time>2022-06-17T15:21:54.000Z</time>
      </trkpt>
      <trkpt lat="49.83721" lon="4.84373">
        <ele>338</ele>
        <time>2022-06-17T15:21:55.000Z</time>
      </trkpt>
      <trkpt lat="49.83719" lon="4.8437">
        <ele>338</ele>
        <time>2022-06-17T15:21:56.000Z</time>
      </trkpt>
      <trkpt lat="49.83716" lon="4.84368">
        <ele>338</ele>
        <time>2022-06-17T15:21:57.000Z</time>
      </trkpt>
      <trkpt lat="49.83713" lon="4.84366">
        <ele>339</ele>
        <time>2022-06-17T15:21:58.000Z</time>
      </trkpt>
      <trkpt lat="49.83711" lon="4.84363">
        <ele>339</ele>
        <time>2022-06-17T15:21:59.000Z</time>
      </trkpt>
      <trkpt lat="49.83709" lon="4.84362">
        <ele>340</ele>
        <time>2022-06-17T15:22:00.000Z</time>
      </trkpt>
      <trkpt lat="49.83706" lon="4.84361">
        <ele>340</ele>
        <time>2022-06-17T15:22:01.000Z</time>
      </trkpt>
      <trkpt lat="49.83704" lon="4.84358">
        <ele>340</ele>
        <time>2022-06-17T15:22:02.000Z</time>
      </trkpt>
      <trkpt lat="49.83701" lon="4.84356">
        <ele>340</ele>
        <time>2022-06-17T15:22:03.000Z</time>
      </trkpt>
      <trkpt lat="49.83698" lon="4.84356">
        <ele>341</ele>
        <time>2022-06-17T15:22:04.000Z</time>
      </trkpt>
      <trkpt lat="49.83695" lon="4.84355">
        <ele>341</ele>
        <time>2022-06-17T15:22:05.000Z</time>
      </trkpt>
      <trkpt lat="49.83692" lon="4.84354">
        <ele>341</ele>
        <time>2022-06-17T15:22:06.000Z</time>
      </trkpt>
      <trkpt lat="49.83689" lon="4.84354">
        <ele>342</ele>
        <time>2022-06-17T15:22:07.000Z</time>
      </trkpt>
      <trkpt lat="49.83686" lon="4.84353">
        <ele>342</ele>
        <time>2022-06-17T15:22:08.000Z</time>
      </trkpt>
      <trkpt lat="49.83683" lon="4.84353">
        <ele>342</ele>
        <time>2022-06-17T15:22:09.000Z</time>
      </trkpt>
      <trkpt lat="49.8368" lon="4.84353">
        <ele>342</ele>
        <time>2022-06-17T15:22:10.000Z</time>
      </trkpt>
      <trkpt lat="49.83677" lon="4.84353">
        <ele>343</ele>
        <time>2022-06-17T15:22:11.000Z</time>
      </trkpt>
      <trkpt lat="49.83674" lon="4.84352">
        <ele>343</ele>
        <time>2022-06-17T15:22:12.000Z</time>
      </trkpt>
      <trkpt lat="49.83672" lon="4.84352">
        <ele>343</ele>
        <time>2022-06-17T15:22:13.000Z</time>
      </trkpt>
      <trkpt lat="49.83669" lon="4.84352">
        <ele>343</ele>
        <time>2022-06-17T15:22:14.000Z</time>
      </trkpt>
      <trkpt lat="49.83667" lon="4.84352">
        <ele>343</ele>
        <time>2022-06-17T15:22:15.000Z</time>
      </trkpt>
      <trkpt lat="49.83665" lon="4.84351">
        <ele>344</ele>
        <time>2022-06-17T15:22:16.000Z</time>
      </trkpt>
      <trkpt lat="49.83662" lon="4.8435">
        <ele>344</ele>
        <time>2022-06-17T15:22:17.000Z</time>
      </trkpt>
      <trkpt lat="49.83659" lon="4.8435">
        <ele>344</ele>
        <time>2022-06-17T15:22:18.000Z</time>
      </trkpt>
      <trkpt lat="49.83656" lon="4.84349">
        <ele>344</ele>
        <time>2022-06-17T15:22:19.000Z</time>
      </trkpt>
      <trkpt lat="49.83653" lon="4.84348">
        <ele>345</ele>
        <time>2022-06-17T15:22:20.000Z</time>
      </trkpt>
      <trkpt lat="49.8365" lon="4.84349">
        <ele>345</ele>
        <time>2022-06-17T15:22:21.000Z</time>
      </trkpt>
      <trkpt lat="49.83647" lon="4.84349">
        <ele>345</ele>
        <time>2022-06-17T15:22:22.000Z</time>
      </trkpt>
      <trkpt lat="49.83645" lon="4.8435">
        <ele>345</ele>
        <time>2022-06-17T15:22:23.000Z</time>
      </trkpt>
      <trkpt lat="49.83643" lon="4.8435">
        <ele>345</ele>
        <time>2022-06-17T15:22:24.000Z</time>
      </trkpt>
      <trkpt lat="49.8364" lon="4.84351">
        <ele>346</ele>
        <time>2022-06-17T15:22:25.000Z</time>
      </trkpt>
      <trkpt lat="49.83637" lon="4.84351">
        <ele>346</ele>
        <time>2022-06-17T15:22:26.000Z</time>
      </trkpt>
      <trkpt lat="49.83634" lon="4.84352">
        <ele>346</ele>
        <time>2022-06-17T15:22:27.000Z</time>
      </trkpt>
      <trkpt lat="49.83631" lon="4.84354">
        <ele>347</ele>
        <time>2022-06-17T15:22:28.000Z</time>
      </trkpt>
      <trkpt lat="49.83629" lon="4.84355">
        <ele>347</ele>
        <time>2022-06-17T15:22:29.000Z</time>
      </trkpt>
      <trkpt lat="49.83627" lon="4.84357">
        <ele>347</ele>
        <time>2022-06-17T15:22:30.000Z</time>
      </trkpt>
      <trkpt lat="49.83625" lon="4.8436">
        <ele>347</ele>
        <time>2022-06-17T15:22:31.000Z</time>
      </trkpt>
      <trkpt lat="49.83623" lon="4.84362">
        <ele>347</ele>
        <time>2022-06-17T15:22:32.000Z</time>
      </trkpt>
      <trkpt lat="49.83621" lon="4.84365">
        <ele>348</ele>
        <time>2022-06-17T15:22:33.000Z</time>
      </trkpt>
      <trkpt lat="49.83618" lon="4.84368">
        <ele>348</ele>
        <time>2022-06-17T15:22:34.000Z</time>
      </trkpt>
      <trkpt lat="49.83617" lon="4.84371">
        <ele>348</ele>
        <time>2022-06-17T15:22:35.000Z</time>
      </trkpt>
      <trkpt lat="49.83615" lon="4.84374">
        <ele>348</ele>
        <time>2022-06-17T15:22:36.000Z</time>
      </trkpt>
      <trkpt lat="49.83613" lon="4.84378">
        <ele>348</ele>
        <time>2022-06-17T15:22:37.000Z</time>
      </trkpt>
      <trkpt lat="49.8361" lon="4.84381">
        <ele>349</ele>
        <time>2022-06-17T15:22:38.000Z</time>
      </trkpt>
      <trkpt lat="49.83608" lon="4.84385">
        <ele>349</ele>
        <time>2022-06-17T15:22:39.000Z</time>
      </trkpt>
      <trkpt lat="49.83606" lon="4.84389">
        <ele>349</ele>
        <time>2022-06-17T15:22:40.000Z</time>
      </trkpt>
      <trkpt lat="49.83604" lon="4.84393">
        <ele>349</ele>
        <time>2022-06-17T15:22:41.000Z</time>
      </trkpt>
      <trkpt lat="49.83602" lon="4.84397">
        <ele>349</ele>
        <time>2022-06-17T15:22:42.000Z</time>
      </trkpt>
      <trkpt lat="49.836" lon="4.844">
        <ele>349</ele>
        <time>2022-06-17T15:22:43.000Z</time>
      </trkpt>
      <trkpt lat="49.83597" lon="4.84404">
        <ele>349</ele>
        <time>2022-06-17T15:22:44.000Z</time>
      </trkpt>
      <trkpt lat="49.83595" lon="4.84407">
        <ele>349</ele>
        <time>2022-06-17T15:22:45.000Z</time>
      </trkpt>
      <trkpt lat="49.83593" lon="4.84411">
        <ele>349</ele>
        <time>2022-06-17T15:22:46.000Z</time>
      </trkpt>
      <trkpt lat="49.8359" lon="4.84415">
        <ele>349</ele>
        <time>2022-06-17T15:22:47.000Z</time>
      </trkpt>
      <trkpt lat="49.83588" lon="4.8442">
        <ele>349</ele>
        <time>2022-06-17T15:22:48.000Z</time>
      </trkpt>
      <trkpt lat="49.83587" lon="4.84424">
        <ele>349</ele>
        <time>2022-06-17T15:22:49.000Z</time>
      </trkpt>
      <trkpt lat="49.83586" lon="4.84429">
        <ele>349</ele>
        <time>2022-06-17T15:22:50.000Z</time>
      </trkpt>
      <trkpt lat="49.83585" lon="4.84434">
        <ele>349</ele>
        <time>2022-06-17T15:22:51.000Z</time>
      </trkpt>
      <trkpt lat="49.83583" lon="4.84439">
        <ele>349</ele>
        <time>2022-06-17T15:22:52.000Z</time>
      </trkpt>
      <trkpt lat="49.83582" lon="4.84445">
        <ele>349</ele>
        <time>2022-06-17T15:22:53.000Z</time>
      </trkpt>
      <trkpt lat="49.83581" lon="4.8445">
        <ele>349</ele>
        <time>2022-06-17T15:22:54.000Z</time>
      </trkpt>
      <trkpt lat="49.8358" lon="4.84456">
        <ele>348</ele>
        <time>2022-06-17T15:22:55.000Z</time>
      </trkpt>
      <trkpt lat="49.83578" lon="4.84462">
        <ele>348</ele>
        <time>2022-06-17T15:22:56.000Z</time>
      </trkpt>
      <trkpt lat="49.83576" lon="4.84467">
        <ele>348</ele>
        <time>2022-06-17T15:22:57.000Z</time>
      </trkpt>
      <trkpt lat="49.83575" lon="4.84472">
        <ele>348</ele>
        <time>2022-06-17T15:22:58.000Z</time>
      </trkpt>
      <trkpt lat="49.83575" lon="4.84476">
        <ele>348</ele>
        <time>2022-06-17T15:22:59.000Z</time>
      </trkpt>
      <trkpt lat="49.83574" lon="4.84481">
        <ele>348</ele>
        <time>2022-06-17T15:23:00.000Z</time>
      </trkpt>
      <trkpt lat="49.83574" lon="4.84486">
        <ele>348</ele>
        <time>2022-06-17T15:23:01.000Z</time>
      </trkpt>
      <trkpt lat="49.83574" lon="4.84492">
        <ele>348</ele>
        <time>2022-06-17T15:23:02.000Z</time>
      </trkpt>
      <trkpt lat="49.83573" lon="4.84497">
        <ele>348</ele>
        <time>2022-06-17T15:23:03.000Z</time>
      </trkpt>
      <trkpt lat="49.83571" lon="4.84502">
        <ele>348</ele>
        <time>2022-06-17T15:23:04.000Z</time>
      </trkpt>
      <trkpt lat="49.8357" lon="4.84506">
        <ele>348</ele>
        <time>2022-06-17T15:23:05.000Z</time>
      </trkpt>
      <trkpt lat="49.8357" lon="4.8451">
        <ele>348</ele>
        <time>2022-06-17T15:23:06.000Z</time>
      </trkpt>
      <trkpt lat="49.83569" lon="4.84515">
        <ele>348</ele>
        <time>2022-06-17T15:23:07.000Z</time>
      </trkpt>
      <trkpt lat="49.83568" lon="4.84519">
        <ele>347</ele>
        <time>2022-06-17T15:23:08.000Z</time>
      </trkpt>
      <trkpt lat="49.83567" lon="4.84524">
        <ele>347</ele>
        <time>2022-06-17T15:23:09.000Z</time>
      </trkpt>
      <trkpt lat="49.83566" lon="4.8453">
        <ele>347</ele>
        <time>2022-06-17T15:23:10.000Z</time>
      </trkpt>
      <trkpt lat="49.83565" lon="4.84535">
        <ele>347</ele>
        <time>2022-06-17T15:23:11.000Z</time>
      </trkpt>
      <trkpt lat="49.83564" lon="4.84541">
        <ele>347</ele>
        <time>2022-06-17T15:23:12.000Z</time>
      </trkpt>
      <trkpt lat="49.83563" lon="4.84547">
        <ele>347</ele>
        <time>2022-06-17T15:23:13.000Z</time>
      </trkpt>
      <trkpt lat="49.83562" lon="4.84552">
        <ele>347</ele>
        <time>2022-06-17T15:23:14.000Z</time>
      </trkpt>
      <trkpt lat="49.83561" lon="4.84556">
        <ele>346</ele>
        <time>2022-06-17T15:23:15.000Z</time>
      </trkpt>
      <trkpt lat="49.8356" lon="4.84561">
        <ele>346</ele>
        <time>2022-06-17T15:23:16.000Z</time>
      </trkpt>
      <trkpt lat="49.83559" lon="4.84566">
        <ele>346</ele>
        <time>2022-06-17T15:23:17.000Z</time>
      </trkpt>
      <trkpt lat="49.83558" lon="4.84571">
        <ele>346</ele>
        <time>2022-06-17T15:23:18.000Z</time>
      </trkpt>
      <trkpt lat="49.83556" lon="4.84576">
        <ele>346</ele>
        <time>2022-06-17T15:23:19.000Z</time>
      </trkpt>
      <trkpt lat="49.83555" lon="4.84582">
        <ele>346</ele>
        <time>2022-06-17T15:23:20.000Z</time>
      </trkpt>
      <trkpt lat="49.83554" lon="4.84588">
        <ele>346</ele>
        <time>2022-06-17T15:23:21.000Z</time>
      </trkpt>
      <trkpt lat="49.83553" lon="4.84593">
        <ele>346</ele>
        <time>2022-06-17T15:23:22.000Z</time>
      </trkpt>
      <trkpt lat="49.83552" lon="4.84598">
        <ele>346</ele>
        <time>2022-06-17T15:23:23.000Z</time>
      </trkpt>
      <trkpt lat="49.83551" lon="4.84603">
        <ele>345</ele>
        <time>2022-06-17T15:23:24.000Z</time>
      </trkpt>
      <trkpt lat="49.8355" lon="4.84609">
        <ele>345</ele>
        <time>2022-06-17T15:23:25.000Z</time>
      </trkpt>
      <trkpt lat="49.83548" lon="4.84615">
        <ele>345</ele>
        <time>2022-06-17T15:23:26.000Z</time>
      </trkpt>
      <trkpt lat="49.83547" lon="4.84622">
        <ele>345</ele>
        <time>2022-06-17T15:23:27.000Z</time>
      </trkpt>
      <trkpt lat="49.83545" lon="4.84628">
        <ele>345</ele>
        <time>2022-06-17T15:23:28.000Z</time>
      </trkpt>
      <trkpt lat="49.83544" lon="4.84635">
        <ele>345</ele>
        <time>2022-06-17T15:23:29.000Z</time>
      </trkpt>
      <trkpt lat="49.83543" lon="4.84642">
        <ele>345</ele>
        <time>2022-06-17T15:23:30.000Z</time>
      </trkpt>
      <trkpt lat="49.83541" lon="4.84649">
        <ele>345</ele>
        <time>2022-06-17T15:23:31.000Z</time>
      </trkpt>
      <trkpt lat="49.8354" lon="4.84656">
        <ele>345</ele>
        <time>2022-06-17T15:23:32.000Z</time>
      </trkpt>
      <trkpt lat="49.83538" lon="4.84663">
        <ele>345</ele>
        <time>2022-06-17T15:23:33.000Z</time>
      </trkpt>
      <trkpt lat="49.83537" lon="4.8467">
        <ele>345</ele>
        <time>2022-06-17T15:23:34.000Z</time>
      </trkpt>
      <trkpt lat="49.83536" lon="4.84678">
        <ele>345</ele>
        <time>2022-06-17T15:23:35.000Z</time>
      </trkpt>
      <trkpt lat="49.83534" lon="4.84685">
        <ele>345</ele>
        <time>2022-06-17T15:23:36.000Z</time>
      </trkpt>
      <trkpt lat="49.83533" lon="4.84692">
        <ele>345</ele>
        <time>2022-06-17T15:23:37.000Z</time>
      </trkpt>
      <trkpt lat="49.83532" lon="4.84699">
        <ele>345</ele>
        <time>2022-06-17T15:23:38.000Z</time>
      </trkpt>
      <trkpt lat="49.83531" lon="4.84705">
        <ele>345</ele>
        <time>2022-06-17T15:23:39.000Z</time>
      </trkpt>
      <trkpt lat="49.8353" lon="4.84712">
        <ele>345</ele>
        <time>2022-06-17T15:23:40.000Z</time>
      </trkpt>
      <trkpt lat="49.83529" lon="4.84719">
        <ele>345</ele>
        <time>2022-06-17T15:23:41.000Z</time>
      </trkpt>
      <trkpt lat="49.83527" lon="4.84726">
        <ele>345</ele>
        <time>2022-06-17T15:23:42.000Z</time>
      </trkpt>
      <trkpt lat="49.83526" lon="4.84733">
        <ele>345</ele>
        <time>2022-06-17T15:23:43.000Z</time>
      </trkpt>
      <trkpt lat="49.83525" lon="4.8474">
        <ele>344</ele>
        <time>2022-06-17T15:23:44.000Z</time>
      </trkpt>
      <trkpt lat="49.83524" lon="4.84746">
        <ele>344</ele>
        <time>2022-06-17T15:23:45.000Z</time>
      </trkpt>
      <trkpt lat="49.83522" lon="4.84752">
        <ele>344</ele>
        <time>2022-06-17T15:23:46.000Z</time>
      </trkpt>
      <trkpt lat="49.83521" lon="4.84758">
        <ele>344</ele>
        <time>2022-06-17T15:23:47.000Z</time>
      </trkpt>
      <trkpt lat="49.8352" lon="4.84765">
        <ele>345</ele>
        <time>2022-06-17T15:23:48.000Z</time>
      </trkpt>
      <trkpt lat="49.83519" lon="4.84771">
        <ele>345</ele>
        <time>2022-06-17T15:23:49.000Z</time>
      </trkpt>
      <trkpt lat="49.83518" lon="4.84778">
        <ele>345</ele>
        <time>2022-06-17T15:23:50.000Z</time>
      </trkpt>
      <trkpt lat="49.83517" lon="4.84785">
        <ele>345</ele>
        <time>2022-06-17T15:23:51.000Z</time>
      </trkpt>
      <trkpt lat="49.83515" lon="4.84792">
        <ele>345</ele>
        <time>2022-06-17T15:23:52.000Z</time>
      </trkpt>
      <trkpt lat="49.83514" lon="4.84799">
        <ele>345</ele>
        <time>2022-06-17T15:23:53.000Z</time>
      </trkpt>
      <trkpt lat="49.83513" lon="4.84806">
        <ele>345</ele>
        <time>2022-06-17T15:23:54.000Z</time>
      </trkpt>
      <trkpt lat="49.83512" lon="4.84813">
        <ele>345</ele>
        <time>2022-06-17T15:23:55.000Z</time>
      </trkpt>
      <trkpt lat="49.83511" lon="4.84821">
        <ele>345</ele>
        <time>2022-06-17T15:23:56.000Z</time>
      </trkpt>
      <trkpt lat="49.8351" lon="4.84828">
        <ele>345</ele>
        <time>2022-06-17T15:23:57.000Z</time>
      </trkpt>
      <trkpt lat="49.83509" lon="4.84835">
        <ele>345</ele>
        <time>2022-06-17T15:23:58.000Z</time>
      </trkpt>
      <trkpt lat="49.83508" lon="4.84842">
        <ele>345</ele>
        <time>2022-06-17T15:23:59.000Z</time>
      </trkpt>
      <trkpt lat="49.83506" lon="4.84849">
        <ele>345</ele>
        <time>2022-06-17T15:24:00.000Z</time>
      </trkpt>
      <trkpt lat="49.83505" lon="4.84856">
        <ele>345</ele>
        <time>2022-06-17T15:24:01.000Z</time>
      </trkpt>
      <trkpt lat="49.83503" lon="4.84862">
        <ele>345</ele>
        <time>2022-06-17T15:24:02.000Z</time>
      </trkpt>
      <trkpt lat="49.83502" lon="4.84869">
        <ele>346</ele>
        <time>2022-06-17T15:24:03.000Z</time>
      </trkpt>
      <trkpt lat="49.835" lon="4.84875">
        <ele>346</ele>
        <time>2022-06-17T15:24:04.000Z</time>
      </trkpt>
      <trkpt lat="49.83498" lon="4.8488">
        <ele>346</ele>
        <time>2022-06-17T15:24:05.000Z</time>
      </trkpt>
      <trkpt lat="49.83496" lon="4.84886">
        <ele>346</ele>
        <time>2022-06-17T15:24:06.000Z</time>
      </trkpt>
      <trkpt lat="49.83493" lon="4.84891">
        <ele>346</ele>
        <time>2022-06-17T15:24:07.000Z</time>
      </trkpt>
      <trkpt lat="49.83491" lon="4.84896">
        <ele>346</ele>
        <time>2022-06-17T15:24:08.000Z</time>
      </trkpt>
      <trkpt lat="49.83489" lon="4.849">
        <ele>346</ele>
        <time>2022-06-17T15:24:09.000Z</time>
      </trkpt>
      <trkpt lat="49.83486" lon="4.84905">
        <ele>346</ele>
        <time>2022-06-17T15:24:10.000Z</time>
      </trkpt>
      <trkpt lat="49.83483" lon="4.84908">
        <ele>346</ele>
        <time>2022-06-17T15:24:11.000Z</time>
      </trkpt>
      <trkpt lat="49.83481" lon="4.84912">
        <ele>346</ele>
        <time>2022-06-17T15:24:12.000Z</time>
      </trkpt>
      <trkpt lat="49.83478" lon="4.84915">
        <ele>347</ele>
        <time>2022-06-17T15:24:13.000Z</time>
      </trkpt>
      <trkpt lat="49.83475" lon="4.84918">
        <ele>347</ele>
        <time>2022-06-17T15:24:14.000Z</time>
      </trkpt>
      <trkpt lat="49.83471" lon="4.84922">
        <ele>347</ele>
        <time>2022-06-17T15:24:15.000Z</time>
      </trkpt>
      <trkpt lat="49.83468" lon="4.84925">
        <ele>347</ele>
        <time>2022-06-17T15:24:16.000Z</time>
      </trkpt>
      <trkpt lat="49.83465" lon="4.84928">
        <ele>347</ele>
        <time>2022-06-17T15:24:17.000Z</time>
      </trkpt>
      <trkpt lat="49.83462" lon="4.84931">
        <ele>347</ele>
        <time>2022-06-17T15:24:18.000Z</time>
      </trkpt>
      <trkpt lat="49.83459" lon="4.84934">
        <ele>347</ele>
        <time>2022-06-17T15:24:19.000Z</time>
      </trkpt>
      <trkpt lat="49.83456" lon="4.84938">
        <ele>347</ele>
        <time>2022-06-17T15:24:20.000Z</time>
      </trkpt>
      <trkpt lat="49.83452" lon="4.84941">
        <ele>347</ele>
        <time>2022-06-17T15:24:21.000Z</time>
      </trkpt>
      <trkpt lat="49.83449" lon="4.84944">
        <ele>347</ele>
        <time>2022-06-17T15:24:22.000Z</time>
      </trkpt>
      <trkpt lat="49.83445" lon="4.84947">
        <ele>347</ele>
        <time>2022-06-17T15:24:23.000Z</time>
      </trkpt>
      <trkpt lat="49.83442" lon="4.84951">
        <ele>347</ele>
        <time>2022-06-17T15:24:24.000Z</time>
      </trkpt>
      <trkpt lat="49.83439" lon="4.84954">
        <ele>348</ele>
        <time>2022-06-17T15:24:25.000Z</time>
      </trkpt>
      <trkpt lat="49.83435" lon="4.84957">
        <ele>348</ele>
        <time>2022-06-17T15:24:26.000Z</time>
      </trkpt>
      <trkpt lat="49.83432" lon="4.8496">
        <ele>348</ele>
        <time>2022-06-17T15:24:27.000Z</time>
      </trkpt>
      <trkpt lat="49.83429" lon="4.84963">
        <ele>348</ele>
        <time>2022-06-17T15:24:28.000Z</time>
      </trkpt>
      <trkpt lat="49.83425" lon="4.84966">
        <ele>348</ele>
        <time>2022-06-17T15:24:29.000Z</time>
      </trkpt>
      <trkpt lat="49.83422" lon="4.84969">
        <ele>348</ele>
        <time>2022-06-17T15:24:30.000Z</time>
      </trkpt>
      <trkpt lat="49.83419" lon="4.84972">
        <ele>348</ele>
        <time>2022-06-17T15:24:31.000Z</time>
      </trkpt>
      <trkpt lat="49.83416" lon="4.84975">
        <ele>348</ele>
        <time>2022-06-17T15:24:32.000Z</time>
      </trkpt>
      <trkpt lat="49.83413" lon="4.84978">
        <ele>348</ele>
        <time>2022-06-17T15:24:33.000Z</time>
      </trkpt>
      <trkpt lat="49.8341" lon="4.84981">
        <ele>348</ele>
        <time>2022-06-17T15:24:34.000Z</time>
      </trkpt>
      <trkpt lat="49.83407" lon="4.84984">
        <ele>348</ele>
        <time>2022-06-17T15:24:35.000Z</time>
      </trkpt>
      <trkpt lat="49.83405" lon="4.84986">
        <ele>349</ele>
        <time>2022-06-17T15:24:36.000Z</time>
      </trkpt>
      <trkpt lat="49.83402" lon="4.84989">
        <ele>349</ele>
        <time>2022-06-17T15:24:37.000Z</time>
      </trkpt>
      <trkpt lat="49.83399" lon="4.84992">
        <ele>349</ele>
        <time>2022-06-17T15:24:38.000Z</time>
      </trkpt>
      <trkpt lat="49.83396" lon="4.84995">
        <ele>349</ele>
        <time>2022-06-17T15:24:39.000Z</time>
      </trkpt>
      <trkpt lat="49.83393" lon="4.84998">
        <ele>349</ele>
        <time>2022-06-17T15:24:40.000Z</time>
      </trkpt>
      <trkpt lat="49.8339" lon="4.85">
        <ele>349</ele>
        <time>2022-06-17T15:24:41.000Z</time>
      </trkpt>
      <trkpt lat="49.83387" lon="4.85003">
        <ele>349</ele>
        <time>2022-06-17T15:24:42.000Z</time>
      </trkpt>
      <trkpt lat="49.83384" lon="4.85006">
        <ele>349</ele>
        <time>2022-06-17T15:24:43.000Z</time>
      </trkpt>
      <trkpt lat="49.83381" lon="4.85009">
        <ele>349</ele>
        <time>2022-06-17T15:24:44.000Z</time>
      </trkpt>
      <trkpt lat="49.83378" lon="4.85011">
        <ele>350</ele>
        <time>2022-06-17T15:24:45.000Z</time>
      </trkpt>
      <trkpt lat="49.83375" lon="4.85014">
        <ele>350</ele>
        <time>2022-06-17T15:24:46.000Z</time>
      </trkpt>
      <trkpt lat="49.83372" lon="4.85016">
        <ele>350</ele>
        <time>2022-06-17T15:24:47.000Z</time>
      </trkpt>
      <trkpt lat="49.8337" lon="4.85018">
        <ele>350</ele>
        <time>2022-06-17T15:24:48.000Z</time>
      </trkpt>
      <trkpt lat="49.83367" lon="4.8502">
        <ele>350</ele>
        <time>2022-06-17T15:24:49.000Z</time>
      </trkpt>
      <trkpt lat="49.83364" lon="4.85022">
        <ele>350</ele>
        <time>2022-06-17T15:24:50.000Z</time>
      </trkpt>
      <trkpt lat="49.83362" lon="4.85024">
        <ele>350</ele>
        <time>2022-06-17T15:24:51.000Z</time>
      </trkpt>
      <trkpt lat="49.83359" lon="4.85027">
        <ele>350</ele>
        <time>2022-06-17T15:24:52.000Z</time>
      </trkpt>
      <trkpt lat="49.83356" lon="4.85029">
        <ele>350</ele>
        <time>2022-06-17T15:24:53.000Z</time>
      </trkpt>
      <trkpt lat="49.83354" lon="4.85031">
        <ele>350</ele>
        <time>2022-06-17T15:24:54.000Z</time>
      </trkpt>
      <trkpt lat="49.83351" lon="4.85033">
        <ele>351</ele>
        <time>2022-06-17T15:24:55.000Z</time>
      </trkpt>
      <trkpt lat="49.83348" lon="4.85035">
        <ele>351</ele>
        <time>2022-06-17T15:24:56.000Z</time>
      </trkpt>
      <trkpt lat="49.83345" lon="4.85037">
        <ele>351</ele>
        <time>2022-06-17T15:24:57.000Z</time>
      </trkpt>
      <trkpt lat="49.83342" lon="4.85038">
        <ele>351</ele>
        <time>2022-06-17T15:24:58.000Z</time>
      </trkpt>
      <trkpt lat="49.8334" lon="4.85039">
        <ele>351</ele>
        <time>2022-06-17T15:24:59.000Z</time>
      </trkpt>
      <trkpt lat="49.83337" lon="4.8504">
        <ele>351</ele>
        <time>2022-06-17T15:25:00.000Z</time>
      </trkpt>
      <trkpt lat="49.83335" lon="4.85041">
        <ele>352</ele>
        <time>2022-06-17T15:25:01.000Z</time>
      </trkpt>
      <trkpt lat="49.83332" lon="4.85042">
        <ele>352</ele>
        <time>2022-06-17T15:25:02.000Z</time>
      </trkpt>
      <trkpt lat="49.8333" lon="4.85044">
        <ele>352</ele>
        <time>2022-06-17T15:25:03.000Z</time>
      </trkpt>
      <trkpt lat="49.83327" lon="4.85044">
        <ele>352</ele>
        <time>2022-06-17T15:25:04.000Z</time>
      </trkpt>
      <trkpt lat="49.83325" lon="4.85045">
        <ele>352</ele>
        <time>2022-06-17T15:25:05.000Z</time>
      </trkpt>
      <trkpt lat="49.83322" lon="4.85046">
        <ele>353</ele>
        <time>2022-06-17T15:25:06.000Z</time>
      </trkpt>
      <trkpt lat="49.8332" lon="4.85046">
        <ele>353</ele>
        <time>2022-06-17T15:25:07.000Z</time>
      </trkpt>
      <trkpt lat="49.83317" lon="4.85047">
        <ele>353</ele>
        <time>2022-06-17T15:25:08.000Z</time>
      </trkpt>
      <trkpt lat="49.83313" lon="4.85048">
        <ele>353</ele>
        <time>2022-06-17T15:25:09.000Z</time>
      </trkpt>
      <trkpt lat="49.8331" lon="4.85048">
        <ele>353</ele>
        <time>2022-06-17T15:25:10.000Z</time>
      </trkpt>
      <trkpt lat="49.83307" lon="4.85049">
        <ele>353</ele>
        <time>2022-06-17T15:25:11.000Z</time>
      </trkpt>
      <trkpt lat="49.83304" lon="4.8505">
        <ele>354</ele>
        <time>2022-06-17T15:25:12.000Z</time>
      </trkpt>
      <trkpt lat="49.83301" lon="4.85051">
        <ele>354</ele>
        <time>2022-06-17T15:25:13.000Z</time>
      </trkpt>
      <trkpt lat="49.83298" lon="4.85052">
        <ele>354</ele>
        <time>2022-06-17T15:25:14.000Z</time>
      </trkpt>
      <trkpt lat="49.83295" lon="4.85053">
        <ele>354</ele>
        <time>2022-06-17T15:25:15.000Z</time>
      </trkpt>
      <trkpt lat="49.83291" lon="4.85054">
        <ele>354</ele>
        <time>2022-06-17T15:25:16.000Z</time>
      </trkpt>
      <trkpt lat="49.83288" lon="4.85056">
        <ele>355</ele>
        <time>2022-06-17T15:25:17.000Z</time>
      </trkpt>
      <trkpt lat="49.83285" lon="4.85057">
        <ele>355</ele>
        <time>2022-06-17T15:25:18.000Z</time>
      </trkpt>
      <trkpt lat="49.83282" lon="4.85058">
        <ele>355</ele>
        <time>2022-06-17T15:25:19.000Z</time>
      </trkpt>
      <trkpt lat="49.83279" lon="4.85059">
        <ele>355</ele>
        <time>2022-06-17T15:25:20.000Z</time>
      </trkpt>
      <trkpt lat="49.83276" lon="4.85059">
        <ele>355</ele>
        <time>2022-06-17T15:25:21.000Z</time>
      </trkpt>
      <trkpt lat="49.83273" lon="4.85058">
        <ele>356</ele>
        <time>2022-06-17T15:25:22.000Z</time>
      </trkpt>
      <trkpt lat="49.8327" lon="4.85057">
        <ele>356</ele>
        <time>2022-06-17T15:25:23.000Z</time>
      </trkpt>
      <trkpt lat="49.83267" lon="4.85055">
        <ele>356</ele>
        <time>2022-06-17T15:25:24.000Z</time>
      </trkpt>
      <trkpt lat="49.83264" lon="4.85054">
        <ele>356</ele>
        <time>2022-06-17T15:25:25.000Z</time>
      </trkpt>
      <trkpt lat="49.83261" lon="4.85052">
        <ele>357</ele>
        <time>2022-06-17T15:25:26.000Z</time>
      </trkpt>
      <trkpt lat="49.83258" lon="4.85051">
        <ele>357</ele>
        <time>2022-06-17T15:25:27.000Z</time>
      </trkpt>
      <trkpt lat="49.83256" lon="4.85048">
        <ele>357</ele>
        <time>2022-06-17T15:25:28.000Z</time>
      </trkpt>
      <trkpt lat="49.83253" lon="4.85046">
        <ele>357</ele>
        <time>2022-06-17T15:25:29.000Z</time>
      </trkpt>
      <trkpt lat="49.8325" lon="4.85043">
        <ele>358</ele>
        <time>2022-06-17T15:25:30.000Z</time>
      </trkpt>
      <trkpt lat="49.83248" lon="4.85039">
        <ele>358</ele>
        <time>2022-06-17T15:25:31.000Z</time>
      </trkpt>
      <trkpt lat="49.83245" lon="4.85035">
        <ele>358</ele>
        <time>2022-06-17T15:25:32.000Z</time>
      </trkpt>
      <trkpt lat="49.83243" lon="4.85031">
        <ele>358</ele>
        <time>2022-06-17T15:25:33.000Z</time>
      </trkpt>
      <trkpt lat="49.8324" lon="4.85028">
        <ele>358</ele>
        <time>2022-06-17T15:25:34.000Z</time>
      </trkpt>
      <trkpt lat="49.83237" lon="4.85026">
        <ele>358</ele>
        <time>2022-06-17T15:25:35.000Z</time>
      </trkpt>
      <trkpt lat="49.83234" lon="4.85023">
        <ele>358</ele>
        <time>2022-06-17T15:25:36.000Z</time>
      </trkpt>
      <trkpt lat="49.8323" lon="4.85021">
        <ele>359</ele>
        <time>2022-06-17T15:25:37.000Z</time>
      </trkpt>
      <trkpt lat="49.83227" lon="4.85019">
        <ele>359</ele>
        <time>2022-06-17T15:25:38.000Z</time>
      </trkpt>
      <trkpt lat="49.83223" lon="4.85016">
        <ele>359</ele>
        <time>2022-06-17T15:25:39.000Z</time>
      </trkpt>
      <trkpt lat="49.83219" lon="4.85013">
        <ele>359</ele>
        <time>2022-06-17T15:25:40.000Z</time>
      </trkpt>
      <trkpt lat="49.83215" lon="4.8501">
        <ele>359</ele>
        <time>2022-06-17T15:25:41.000Z</time>
      </trkpt>
      <trkpt lat="49.83212" lon="4.85007">
        <ele>359</ele>
        <time>2022-06-17T15:25:42.000Z</time>
      </trkpt>
      <trkpt lat="49.83209" lon="4.85003">
        <ele>359</ele>
        <time>2022-06-17T15:25:43.000Z</time>
      </trkpt>
      <trkpt lat="49.83206" lon="4.85">
        <ele>359</ele>
        <time>2022-06-17T15:25:44.000Z</time>
      </trkpt>
      <trkpt lat="49.83203" lon="4.84998">
        <ele>359</ele>
        <time>2022-06-17T15:25:45.000Z</time>
      </trkpt>
      <trkpt lat="49.832" lon="4.84994">
        <ele>359</ele>
        <time>2022-06-17T15:25:46.000Z</time>
      </trkpt>
      <trkpt lat="49.83197" lon="4.8499">
        <ele>359</ele>
        <time>2022-06-17T15:25:47.000Z</time>
      </trkpt>
      <trkpt lat="49.83195" lon="4.84987">
        <ele>360</ele>
        <time>2022-06-17T15:25:48.000Z</time>
      </trkpt>
      <trkpt lat="49.83193" lon="4.84984">
        <ele>360</ele>
        <time>2022-06-17T15:25:49.000Z</time>
      </trkpt>
      <trkpt lat="49.8319" lon="4.84981">
        <ele>360</ele>
        <time>2022-06-17T15:25:50.000Z</time>
      </trkpt>
      <trkpt lat="49.83188" lon="4.84979">
        <ele>360</ele>
        <time>2022-06-17T15:25:51.000Z</time>
      </trkpt>
      <trkpt lat="49.83185" lon="4.84976">
        <ele>360</ele>
        <time>2022-06-17T15:25:52.000Z</time>
      </trkpt>
      <trkpt lat="49.83181" lon="4.84973">
        <ele>361</ele>
        <time>2022-06-17T15:25:53.000Z</time>
      </trkpt>
      <trkpt lat="49.83178" lon="4.8497">
        <ele>361</ele>
        <time>2022-06-17T15:25:54.000Z</time>
      </trkpt>
      <trkpt lat="49.83174" lon="4.84966">
        <ele>361</ele>
        <time>2022-06-17T15:25:55.000Z</time>
      </trkpt>
      <trkpt lat="49.8317" lon="4.84962">
        <ele>362</ele>
        <time>2022-06-17T15:25:56.000Z</time>
      </trkpt>
      <trkpt lat="49.83166" lon="4.84959">
        <ele>362</ele>
        <time>2022-06-17T15:25:57.000Z</time>
      </trkpt>
      <trkpt lat="49.83163" lon="4.84955">
        <ele>362</ele>
        <time>2022-06-17T15:25:58.000Z</time>
      </trkpt>
      <trkpt lat="49.83159" lon="4.84952">
        <ele>362</ele>
        <time>2022-06-17T15:25:59.000Z</time>
      </trkpt>
      <trkpt lat="49.83156" lon="4.84949">
        <ele>362</ele>
        <time>2022-06-17T15:26:00.000Z</time>
      </trkpt>
      <trkpt lat="49.83152" lon="4.84946">
        <ele>362</ele>
        <time>2022-06-17T15:26:01.000Z</time>
      </trkpt>
      <trkpt lat="49.83149" lon="4.84943">
        <ele>363</ele>
        <time>2022-06-17T15:26:02.000Z</time>
      </trkpt>
      <trkpt lat="49.83147" lon="4.84939">
        <ele>363</ele>
        <time>2022-06-17T15:26:03.000Z</time>
      </trkpt>
      <trkpt lat="49.83143" lon="4.84935">
        <ele>363</ele>
        <time>2022-06-17T15:26:04.000Z</time>
      </trkpt>
      <trkpt lat="49.83139" lon="4.8493">
        <ele>363</ele>
        <time>2022-06-17T15:26:05.000Z</time>
      </trkpt>
      <trkpt lat="49.83136" lon="4.84927">
        <ele>363</ele>
        <time>2022-06-17T15:26:06.000Z</time>
      </trkpt>
      <trkpt lat="49.83133" lon="4.84923">
        <ele>363</ele>
        <time>2022-06-17T15:26:07.000Z</time>
      </trkpt>
      <trkpt lat="49.8313" lon="4.8492">
        <ele>363</ele>
        <time>2022-06-17T15:26:08.000Z</time>
      </trkpt>
      <trkpt lat="49.83127" lon="4.84917">
        <ele>363</ele>
        <time>2022-06-17T15:26:09.000Z</time>
      </trkpt>
      <trkpt lat="49.83124" lon="4.84913">
        <ele>362</ele>
        <time>2022-06-17T15:26:10.000Z</time>
      </trkpt>
      <trkpt lat="49.8312" lon="4.8491">
        <ele>362</ele>
        <time>2022-06-17T15:26:11.000Z</time>
      </trkpt>
      <trkpt lat="49.83116" lon="4.84906">
        <ele>362</ele>
        <time>2022-06-17T15:26:12.000Z</time>
      </trkpt>
      <trkpt lat="49.83112" lon="4.84902">
        <ele>362</ele>
        <time>2022-06-17T15:26:13.000Z</time>
      </trkpt>
      <trkpt lat="49.83108" lon="4.84898">
        <ele>362</ele>
        <time>2022-06-17T15:26:14.000Z</time>
      </trkpt>
      <trkpt lat="49.83104" lon="4.84894">
        <ele>362</ele>
        <time>2022-06-17T15:26:15.000Z</time>
      </trkpt>
      <trkpt lat="49.83099" lon="4.8489">
        <ele>362</ele>
        <time>2022-06-17T15:26:16.000Z</time>
      </trkpt>
      <trkpt lat="49.83095" lon="4.84886">
        <ele>362</ele>
        <time>2022-06-17T15:26:17.000Z</time>
      </trkpt>
      <trkpt lat="49.8309" lon="4.84881">
        <ele>362</ele>
        <time>2022-06-17T15:26:18.000Z</time>
      </trkpt>
      <trkpt lat="49.83085" lon="4.84878">
        <ele>362</ele>
        <time>2022-06-17T15:26:19.000Z</time>
      </trkpt>
      <trkpt lat="49.8308" lon="4.84875">
        <ele>362</ele>
        <time>2022-06-17T15:26:20.000Z</time>
      </trkpt>
      <trkpt lat="49.83076" lon="4.84871">
        <ele>361</ele>
        <time>2022-06-17T15:26:21.000Z</time>
      </trkpt>
      <trkpt lat="49.83071" lon="4.84866">
        <ele>361</ele>
        <time>2022-06-17T15:26:22.000Z</time>
      </trkpt>
      <trkpt lat="49.83065" lon="4.84861">
        <ele>361</ele>
        <time>2022-06-17T15:26:23.000Z</time>
      </trkpt>
      <trkpt lat="49.8306" lon="4.84857">
        <ele>361</ele>
        <time>2022-06-17T15:26:24.000Z</time>
      </trkpt>
      <trkpt lat="49.83055" lon="4.84853">
        <ele>361</ele>
        <time>2022-06-17T15:26:25.000Z</time>
      </trkpt>
      <trkpt lat="49.8305" lon="4.84848">
        <ele>361</ele>
        <time>2022-06-17T15:26:26.000Z</time>
      </trkpt>
      <trkpt lat="49.83045" lon="4.84846">
        <ele>360</ele>
        <time>2022-06-17T15:26:27.000Z</time>
      </trkpt>
      <trkpt lat="49.83041" lon="4.84845">
        <ele>360</ele>
        <time>2022-06-17T15:26:28.000Z</time>
      </trkpt>
      <trkpt lat="49.83036" lon="4.84845">
        <ele>360</ele>
        <time>2022-06-17T15:26:29.000Z</time>
      </trkpt>
      <trkpt lat="49.83031" lon="4.84848">
        <ele>360</ele>
        <time>2022-06-17T15:26:30.000Z</time>
      </trkpt>
      <trkpt lat="49.83025" lon="4.84851">
        <ele>359</ele>
        <time>2022-06-17T15:26:31.000Z</time>
      </trkpt>
      <trkpt lat="49.83019" lon="4.84852">
        <ele>359</ele>
        <time>2022-06-17T15:26:32.000Z</time>
      </trkpt>
      <trkpt lat="49.83012" lon="4.84853">
        <ele>359</ele>
        <time>2022-06-17T15:26:33.000Z</time>
      </trkpt>
      <trkpt lat="49.83005" lon="4.84853">
        <ele>358</ele>
        <time>2022-06-17T15:26:34.000Z</time>
      </trkpt>
      <trkpt lat="49.82998" lon="4.84851">
        <ele>358</ele>
        <time>2022-06-17T15:26:35.000Z</time>
      </trkpt>
      <trkpt lat="49.82991" lon="4.84848">
        <ele>357</ele>
        <time>2022-06-17T15:26:36.000Z</time>
      </trkpt>
      <trkpt lat="49.82984" lon="4.84846">
        <ele>357</ele>
        <time>2022-06-17T15:26:37.000Z</time>
      </trkpt>
      <trkpt lat="49.82977" lon="4.84845">
        <ele>356</ele>
        <time>2022-06-17T15:26:38.000Z</time>
      </trkpt>
      <trkpt lat="49.82972" lon="4.84845">
        <ele>356</ele>
        <time>2022-06-17T15:26:39.000Z</time>
      </trkpt>
      <trkpt lat="49.82966" lon="4.84847">
        <ele>355</ele>
        <time>2022-06-17T15:26:40.000Z</time>
      </trkpt>
      <trkpt lat="49.8296" lon="4.84849">
        <ele>354</ele>
        <time>2022-06-17T15:26:41.000Z</time>
      </trkpt>
      <trkpt lat="49.82955" lon="4.84852">
        <ele>354</ele>
        <time>2022-06-17T15:26:42.000Z</time>
      </trkpt>
      <trkpt lat="49.82951" lon="4.84856">
        <ele>353</ele>
        <time>2022-06-17T15:26:43.000Z</time>
      </trkpt>
      <trkpt lat="49.82947" lon="4.84862">
        <ele>353</ele>
        <time>2022-06-17T15:26:44.000Z</time>
      </trkpt>
      <trkpt lat="49.82944" lon="4.84866">
        <ele>352</ele>
        <time>2022-06-17T15:26:45.000Z</time>
      </trkpt>
      <trkpt lat="49.82941" lon="4.8487">
        <ele>352</ele>
        <time>2022-06-17T15:26:46.000Z</time>
      </trkpt>
      <trkpt lat="49.82937" lon="4.84874">
        <ele>351</ele>
        <time>2022-06-17T15:26:47.000Z</time>
      </trkpt>
      <trkpt lat="49.82934" lon="4.84878">
        <ele>351</ele>
        <time>2022-06-17T15:26:48.000Z</time>
      </trkpt>
      <trkpt lat="49.8293" lon="4.84882">
        <ele>350</ele>
        <time>2022-06-17T15:26:49.000Z</time>
      </trkpt>
      <trkpt lat="49.82924" lon="4.84886">
        <ele>350</ele>
        <time>2022-06-17T15:26:50.000Z</time>
      </trkpt>
      <trkpt lat="49.82919" lon="4.84889">
        <ele>349</ele>
        <time>2022-06-17T15:26:51.000Z</time>
      </trkpt>
      <trkpt lat="49.82913" lon="4.84892">
        <ele>348</ele>
        <time>2022-06-17T15:26:52.000Z</time>
      </trkpt>
      <trkpt lat="49.82908" lon="4.84894">
        <ele>348</ele>
        <time>2022-06-17T15:26:53.000Z</time>
      </trkpt>
      <trkpt lat="49.82903" lon="4.84897">
        <ele>347</ele>
        <time>2022-06-17T15:26:54.000Z</time>
      </trkpt>
      <trkpt lat="49.82899" lon="4.849">
        <ele>346</ele>
        <time>2022-06-17T15:26:55.000Z</time>
      </trkpt>
      <trkpt lat="49.82895" lon="4.84902">
        <ele>346</ele>
        <time>2022-06-17T15:26:56.000Z</time>
      </trkpt>
      <trkpt lat="49.82892" lon="4.84904">
        <ele>345</ele>
        <time>2022-06-17T15:26:57.000Z</time>
      </trkpt>
      <trkpt lat="49.82891" lon="4.84907">
        <ele>344</ele>
        <time>2022-06-17T15:26:58.000Z</time>
      </trkpt>
      <trkpt lat="49.8289" lon="4.84909">
        <ele>344</ele>
        <time>2022-06-17T15:26:59.000Z</time>
      </trkpt>
      <trkpt lat="49.82889" lon="4.8491">
        <ele>343</ele>
        <time>2022-06-17T15:27:00.000Z</time>
      </trkpt>
      <trkpt lat="49.82889" lon="4.84912">
        <ele>342</ele>
        <time>2022-06-17T15:27:01.000Z</time>
      </trkpt>
      <trkpt lat="49.82889" lon="4.84914">
        <ele>342</ele>
        <time>2022-06-17T15:27:02.000Z</time>
      </trkpt>
      <trkpt lat="49.82889" lon="4.84917">
        <ele>341</ele>
        <time>2022-06-17T15:27:03.000Z</time>
      </trkpt>
      <trkpt lat="49.8289" lon="4.84918">
        <ele>340</ele>
        <time>2022-06-17T15:27:04.000Z</time>
      </trkpt>
      <trkpt lat="49.8289" lon="4.8492">
        <ele>340</ele>
        <time>2022-06-17T15:27:05.000Z</time>
      </trkpt>
      <trkpt lat="49.8289" lon="4.84923">
        <ele>339</ele>
        <time>2022-06-17T15:27:06.000Z</time>
      </trkpt>
      <trkpt lat="49.82891" lon="4.84925">
        <ele>338</ele>
        <time>2022-06-17T15:27:07.000Z</time>
      </trkpt>
      <trkpt lat="49.82892" lon="4.84928">
        <ele>338</ele>
        <time>2022-06-17T15:27:08.000Z</time>
      </trkpt>
      <trkpt lat="49.82892" lon="4.8493">
        <ele>337</ele>
        <time>2022-06-17T15:27:09.000Z</time>
      </trkpt>
      <trkpt lat="49.82893" lon="4.84933">
        <ele>337</ele>
        <time>2022-06-17T15:27:10.000Z</time>
      </trkpt>
      <trkpt lat="49.82894" lon="4.84936">
        <ele>336</ele>
        <time>2022-06-17T15:27:11.000Z</time>
      </trkpt>
      <trkpt lat="49.82895" lon="4.84939">
        <ele>336</ele>
        <time>2022-06-17T15:27:12.000Z</time>
      </trkpt>
      <trkpt lat="49.82895" lon="4.84941">
        <ele>335</ele>
        <time>2022-06-17T15:27:13.000Z</time>
      </trkpt>
      <trkpt lat="49.82896" lon="4.84944">
        <ele>335</ele>
        <time>2022-06-17T15:27:14.000Z</time>
      </trkpt>
      <trkpt lat="49.82897" lon="4.84947">
        <ele>334</ele>
        <time>2022-06-17T15:27:15.000Z</time>
      </trkpt>
      <trkpt lat="49.82898" lon="4.84949">
        <ele>334</ele>
        <time>2022-06-17T15:27:16.000Z</time>
      </trkpt>
      <trkpt lat="49.82899" lon="4.84952">
        <ele>334</ele>
        <time>2022-06-17T15:27:17.000Z</time>
      </trkpt>
      <trkpt lat="49.82899" lon="4.84955">
        <ele>333</ele>
        <time>2022-06-17T15:27:18.000Z</time>
      </trkpt>
      <trkpt lat="49.829" lon="4.84957">
        <ele>333</ele>
        <time>2022-06-17T15:27:19.000Z</time>
      </trkpt>
      <trkpt lat="49.82899" lon="4.84959">
        <ele>333</ele>
        <time>2022-06-17T15:27:20.000Z</time>
      </trkpt>
      <trkpt lat="49.829" lon="4.84961">
        <ele>333</ele>
        <time>2022-06-17T15:27:21.000Z</time>
      </trkpt>
      <trkpt lat="49.829" lon="4.84964">
        <ele>333</ele>
        <time>2022-06-17T15:27:22.000Z</time>
      </trkpt>
      <trkpt lat="49.82901" lon="4.84967">
        <ele>332</ele>
        <time>2022-06-17T15:27:23.000Z</time>
      </trkpt>
      <trkpt lat="49.82902" lon="4.8497">
        <ele>332</ele>
        <time>2022-06-17T15:27:24.000Z</time>
      </trkpt>
      <trkpt lat="49.82903" lon="4.84973">
        <ele>332</ele>
        <time>2022-06-17T15:27:25.000Z</time>
      </trkpt>
      <trkpt lat="49.82904" lon="4.84976">
        <ele>332</ele>
        <time>2022-06-17T15:27:26.000Z</time>
      </trkpt>
      <trkpt lat="49.82905" lon="4.84979">
        <ele>332</ele>
        <time>2022-06-17T15:27:27.000Z</time>
      </trkpt>
      <trkpt lat="49.82905" lon="4.84984">
        <ele>332</ele>
        <time>2022-06-17T15:27:28.000Z</time>
      </trkpt>
      <trkpt lat="49.82905" lon="4.84987">
        <ele>332</ele>
        <time>2022-06-17T15:27:29.000Z</time>
      </trkpt>
      <trkpt lat="49.82905" lon="4.84991">
        <ele>332</ele>
        <time>2022-06-17T15:27:30.000Z</time>
      </trkpt>
      <trkpt lat="49.82906" lon="4.84994">
        <ele>332</ele>
        <time>2022-06-17T15:27:31.000Z</time>
      </trkpt>
      <trkpt lat="49.82907" lon="4.84998">
        <ele>332</ele>
        <time>2022-06-17T15:27:32.000Z</time>
      </trkpt>
      <trkpt lat="49.82908" lon="4.85002">
        <ele>332</ele>
        <time>2022-06-17T15:27:33.000Z</time>
      </trkpt>
      <trkpt lat="49.82908" lon="4.85006">
        <ele>333</ele>
        <time>2022-06-17T15:27:34.000Z</time>
      </trkpt>
      <trkpt lat="49.82908" lon="4.8501">
        <ele>333</ele>
        <time>2022-06-17T15:27:35.000Z</time>
      </trkpt>
      <trkpt lat="49.82908" lon="4.85014">
        <ele>333</ele>
        <time>2022-06-17T15:27:36.000Z</time>
      </trkpt>
      <trkpt lat="49.82908" lon="4.85019">
        <ele>333</ele>
        <time>2022-06-17T15:27:37.000Z</time>
      </trkpt>
      <trkpt lat="49.82909" lon="4.85023">
        <ele>334</ele>
        <time>2022-06-17T15:27:38.000Z</time>
      </trkpt>
      <trkpt lat="49.82909" lon="4.85027">
        <ele>334</ele>
        <time>2022-06-17T15:27:39.000Z</time>
      </trkpt>
      <trkpt lat="49.82908" lon="4.85031">
        <ele>334</ele>
        <time>2022-06-17T15:27:40.000Z</time>
      </trkpt>
      <trkpt lat="49.82908" lon="4.85036">
        <ele>334</ele>
        <time>2022-06-17T15:27:41.000Z</time>
      </trkpt>
      <trkpt lat="49.82908" lon="4.85039">
        <ele>334</ele>
        <time>2022-06-17T15:27:42.000Z</time>
      </trkpt>
      <trkpt lat="49.82907" lon="4.85043">
        <ele>335</ele>
        <time>2022-06-17T15:27:43.000Z</time>
      </trkpt>
      <trkpt lat="49.82906" lon="4.85047">
        <ele>335</ele>
        <time>2022-06-17T15:27:44.000Z</time>
      </trkpt>
      <trkpt lat="49.82905" lon="4.8505">
        <ele>335</ele>
        <time>2022-06-17T15:27:45.000Z</time>
      </trkpt>
      <trkpt lat="49.82904" lon="4.85053">
        <ele>336</ele>
        <time>2022-06-17T15:27:46.000Z</time>
      </trkpt>
      <trkpt lat="49.82903" lon="4.85056">
        <ele>336</ele>
        <time>2022-06-17T15:27:47.000Z</time>
      </trkpt>
      <trkpt lat="49.82902" lon="4.85059">
        <ele>336</ele>
        <time>2022-06-17T15:27:48.000Z</time>
      </trkpt>
      <trkpt lat="49.82901" lon="4.85063">
        <ele>337</ele>
        <time>2022-06-17T15:27:49.000Z</time>
      </trkpt>
      <trkpt lat="49.82899" lon="4.85067">
        <ele>337</ele>
        <time>2022-06-17T15:27:50.000Z</time>
      </trkpt>
      <trkpt lat="49.82898" lon="4.8507">
        <ele>337</ele>
        <time>2022-06-17T15:27:51.000Z</time>
      </trkpt>
      <trkpt lat="49.82896" lon="4.85073">
        <ele>338</ele>
        <time>2022-06-17T15:27:52.000Z</time>
      </trkpt>
      <trkpt lat="49.82895" lon="4.85076">
        <ele>338</ele>
        <time>2022-06-17T15:27:53.000Z</time>
      </trkpt>
      <trkpt lat="49.82894" lon="4.85078">
        <ele>338</ele>
        <time>2022-06-17T15:27:54.000Z</time>
      </trkpt>
      <trkpt lat="49.82892" lon="4.85081">
        <ele>338</ele>
        <time>2022-06-17T15:27:55.000Z</time>
      </trkpt>
      <trkpt lat="49.8289" lon="4.85083">
        <ele>338</ele>
        <time>2022-06-17T15:27:56.000Z</time>
      </trkpt>
      <trkpt lat="49.82888" lon="4.85085">
        <ele>338</ele>
        <time>2022-06-17T15:27:57.000Z</time>
      </trkpt>
      <trkpt lat="49.82887" lon="4.85087">
        <ele>338</ele>
        <time>2022-06-17T15:27:58.000Z</time>
      </trkpt>
      <trkpt lat="49.82885" lon="4.85089">
        <ele>338</ele>
        <time>2022-06-17T15:27:59.000Z</time>
      </trkpt>
      <trkpt lat="49.82884" lon="4.85091">
        <ele>338</ele>
        <time>2022-06-17T15:28:00.000Z</time>
      </trkpt>
      <trkpt lat="49.82882" lon="4.85093">
        <ele>338</ele>
        <time>2022-06-17T15:28:01.000Z</time>
      </trkpt>
      <trkpt lat="49.82881" lon="4.85096">
        <ele>338</ele>
        <time>2022-06-17T15:28:02.000Z</time>
      </trkpt>
      <trkpt lat="49.82879" lon="4.85099">
        <ele>338</ele>
        <time>2022-06-17T15:28:03.000Z</time>
      </trkpt>
      <trkpt lat="49.82876" lon="4.85101">
        <ele>338</ele>
        <time>2022-06-17T15:28:04.000Z</time>
      </trkpt>
      <trkpt lat="49.82874" lon="4.85103">
        <ele>338</ele>
        <time>2022-06-17T15:28:05.000Z</time>
      </trkpt>
      <trkpt lat="49.82872" lon="4.85105">
        <ele>338</ele>
        <time>2022-06-17T15:28:06.000Z</time>
      </trkpt>
      <trkpt lat="49.8287" lon="4.85108">
        <ele>339</ele>
        <time>2022-06-17T15:28:07.000Z</time>
      </trkpt>
      <trkpt lat="49.82868" lon="4.8511">
        <ele>339</ele>
        <time>2022-06-17T15:28:08.000Z</time>
      </trkpt>
      <trkpt lat="49.82867" lon="4.85113">
        <ele>339</ele>
        <time>2022-06-17T15:28:09.000Z</time>
      </trkpt>
      <trkpt lat="49.82865" lon="4.85116">
        <ele>339</ele>
        <time>2022-06-17T15:28:10.000Z</time>
      </trkpt>
      <trkpt lat="49.82864" lon="4.85119">
        <ele>339</ele>
        <time>2022-06-17T15:28:11.000Z</time>
      </trkpt>
      <trkpt lat="49.82862" lon="4.85122">
        <ele>340</ele>
        <time>2022-06-17T15:28:12.000Z</time>
      </trkpt>
      <trkpt lat="49.8286" lon="4.85124">
        <ele>340</ele>
        <time>2022-06-17T15:28:13.000Z</time>
      </trkpt>
      <trkpt lat="49.82858" lon="4.85126">
        <ele>340</ele>
        <time>2022-06-17T15:28:14.000Z</time>
      </trkpt>
      <trkpt lat="49.82856" lon="4.85128">
        <ele>340</ele>
        <time>2022-06-17T15:28:15.000Z</time>
      </trkpt>
      <trkpt lat="49.82854" lon="4.85131">
        <ele>341</ele>
        <time>2022-06-17T15:28:16.000Z</time>
      </trkpt>
      <trkpt lat="49.82852" lon="4.85134">
        <ele>341</ele>
        <time>2022-06-17T15:28:17.000Z</time>
      </trkpt>
      <trkpt lat="49.8285" lon="4.85136">
        <ele>341</ele>
        <time>2022-06-17T15:28:18.000Z</time>
      </trkpt>
      <trkpt lat="49.82849" lon="4.8514">
        <ele>341</ele>
        <time>2022-06-17T15:28:19.000Z</time>
      </trkpt>
      <trkpt lat="49.82846" lon="4.85143">
        <ele>341</ele>
        <time>2022-06-17T15:28:20.000Z</time>
      </trkpt>
      <trkpt lat="49.82844" lon="4.85146">
        <ele>341</ele>
        <time>2022-06-17T15:28:21.000Z</time>
      </trkpt>
      <trkpt lat="49.82841" lon="4.85148">
        <ele>342</ele>
        <time>2022-06-17T15:28:22.000Z</time>
      </trkpt>
      <trkpt lat="49.82839" lon="4.85151">
        <ele>342</ele>
        <time>2022-06-17T15:28:23.000Z</time>
      </trkpt>
      <trkpt lat="49.82837" lon="4.85154">
        <ele>342</ele>
        <time>2022-06-17T15:28:24.000Z</time>
      </trkpt>
      <trkpt lat="49.82835" lon="4.85156">
        <ele>342</ele>
        <time>2022-06-17T15:28:25.000Z</time>
      </trkpt>
      <trkpt lat="49.82833" lon="4.85159">
        <ele>342</ele>
        <time>2022-06-17T15:28:26.000Z</time>
      </trkpt>
      <trkpt lat="49.82831" lon="4.85163">
        <ele>342</ele>
        <time>2022-06-17T15:28:27.000Z</time>
      </trkpt>
      <trkpt lat="49.82829" lon="4.85166">
        <ele>342</ele>
        <time>2022-06-17T15:28:28.000Z</time>
      </trkpt>
      <trkpt lat="49.82827" lon="4.85169">
        <ele>343</ele>
        <time>2022-06-17T15:28:29.000Z</time>
      </trkpt>
      <trkpt lat="49.82825" lon="4.85172">
        <ele>343</ele>
        <time>2022-06-17T15:28:30.000Z</time>
      </trkpt>
      <trkpt lat="49.82823" lon="4.85175">
        <ele>343</ele>
        <time>2022-06-17T15:28:31.000Z</time>
      </trkpt>
      <trkpt lat="49.82821" lon="4.85179">
        <ele>343</ele>
        <time>2022-06-17T15:28:32.000Z</time>
      </trkpt>
      <trkpt lat="49.82819" lon="4.85182">
        <ele>343</ele>
        <time>2022-06-17T15:28:33.000Z</time>
      </trkpt>
      <trkpt lat="49.82817" lon="4.85186">
        <ele>343</ele>
        <time>2022-06-17T15:28:34.000Z</time>
      </trkpt>
      <trkpt lat="49.82815" lon="4.85189">
        <ele>343</ele>
        <time>2022-06-17T15:28:35.000Z</time>
      </trkpt>
      <trkpt lat="49.82813" lon="4.85193">
        <ele>343</ele>
        <time>2022-06-17T15:28:36.000Z</time>
      </trkpt>
      <trkpt lat="49.82811" lon="4.85196">
        <ele>343</ele>
        <time>2022-06-17T15:28:37.000Z</time>
      </trkpt>
      <trkpt lat="49.82809" lon="4.852">
        <ele>343</ele>
        <time>2022-06-17T15:28:38.000Z</time>
      </trkpt>
      <trkpt lat="49.82807" lon="4.85203">
        <ele>344</ele>
        <time>2022-06-17T15:28:39.000Z</time>
      </trkpt>
      <trkpt lat="49.82806" lon="4.85208">
        <ele>344</ele>
        <time>2022-06-17T15:28:40.000Z</time>
      </trkpt>
      <trkpt lat="49.82804" lon="4.85211">
        <ele>344</ele>
        <time>2022-06-17T15:28:41.000Z</time>
      </trkpt>
      <trkpt lat="49.82802" lon="4.85214">
        <ele>344</ele>
        <time>2022-06-17T15:28:42.000Z</time>
      </trkpt>
      <trkpt lat="49.828" lon="4.85218">
        <ele>344</ele>
        <time>2022-06-17T15:28:43.000Z</time>
      </trkpt>
      <trkpt lat="49.82799" lon="4.85222">
        <ele>344</ele>
        <time>2022-06-17T15:28:44.000Z</time>
      </trkpt>
      <trkpt lat="49.82797" lon="4.85226">
        <ele>344</ele>
        <time>2022-06-17T15:28:45.000Z</time>
      </trkpt>
      <trkpt lat="49.82795" lon="4.85229">
        <ele>344</ele>
        <time>2022-06-17T15:28:46.000Z</time>
      </trkpt>
      <trkpt lat="49.82794" lon="4.85232">
        <ele>345</ele>
        <time>2022-06-17T15:28:47.000Z</time>
      </trkpt>
      <trkpt lat="49.82794" lon="4.85236">
        <ele>345</ele>
        <time>2022-06-17T15:28:48.000Z</time>
      </trkpt>
      <trkpt lat="49.82793" lon="4.85239">
        <ele>345</ele>
        <time>2022-06-17T15:28:49.000Z</time>
      </trkpt>
      <trkpt lat="49.82792" lon="4.85243">
        <ele>345</ele>
        <time>2022-06-17T15:28:50.000Z</time>
      </trkpt>
      <trkpt lat="49.8279" lon="4.85246">
        <ele>345</ele>
        <time>2022-06-17T15:28:51.000Z</time>
      </trkpt>
      <trkpt lat="49.82788" lon="4.85249">
        <ele>346</ele>
        <time>2022-06-17T15:28:52.000Z</time>
      </trkpt>
      <trkpt lat="49.82788" lon="4.85253">
        <ele>346</ele>
        <time>2022-06-17T15:28:53.000Z</time>
      </trkpt>
      <trkpt lat="49.82787" lon="4.85258">
        <ele>346</ele>
        <time>2022-06-17T15:28:54.000Z</time>
      </trkpt>
      <trkpt lat="49.82786" lon="4.85262">
        <ele>346</ele>
        <time>2022-06-17T15:28:55.000Z</time>
      </trkpt>
      <trkpt lat="49.82785" lon="4.85266">
        <ele>347</ele>
        <time>2022-06-17T15:28:56.000Z</time>
      </trkpt>
      <trkpt lat="49.82785" lon="4.8527">
        <ele>347</ele>
        <time>2022-06-17T15:28:57.000Z</time>
      </trkpt>
      <trkpt lat="49.82784" lon="4.85274">
        <ele>347</ele>
        <time>2022-06-17T15:28:58.000Z</time>
      </trkpt>
      <trkpt lat="49.82784" lon="4.85278">
        <ele>347</ele>
        <time>2022-06-17T15:28:59.000Z</time>
      </trkpt>
      <trkpt lat="49.82783" lon="4.85282">
        <ele>348</ele>
        <time>2022-06-17T15:29:00.000Z</time>
      </trkpt>
      <trkpt lat="49.82782" lon="4.85286">
        <ele>348</ele>
        <time>2022-06-17T15:29:01.000Z</time>
      </trkpt>
      <trkpt lat="49.82782" lon="4.85289">
        <ele>348</ele>
        <time>2022-06-17T15:29:02.000Z</time>
      </trkpt>
      <trkpt lat="49.82781" lon="4.85291">
        <ele>348</ele>
        <time>2022-06-17T15:29:03.000Z</time>
      </trkpt>
      <trkpt lat="49.82779" lon="4.85292">
        <ele>349</ele>
        <time>2022-06-17T15:29:04.000Z</time>
      </trkpt>
      <trkpt lat="49.82778" lon="4.85294">
        <ele>349</ele>
        <time>2022-06-17T15:29:05.000Z</time>
      </trkpt>
      <trkpt lat="49.82777" lon="4.85297">
        <ele>349</ele>
        <time>2022-06-17T15:29:06.000Z</time>
      </trkpt>
      <trkpt lat="49.82776" lon="4.853">
        <ele>349</ele>
        <time>2022-06-17T15:29:07.000Z</time>
      </trkpt>
      <trkpt lat="49.82774" lon="4.85303">
        <ele>349</ele>
        <time>2022-06-17T15:29:08.000Z</time>
      </trkpt>
      <trkpt lat="49.82773" lon="4.85307">
        <ele>349</ele>
        <time>2022-06-17T15:29:09.000Z</time>
      </trkpt>
      <trkpt lat="49.82771" lon="4.8531">
        <ele>350</ele>
        <time>2022-06-17T15:29:10.000Z</time>
      </trkpt>
      <trkpt lat="49.8277" lon="4.85313">
        <ele>350</ele>
        <time>2022-06-17T15:29:11.000Z</time>
      </trkpt>
      <trkpt lat="49.82769" lon="4.85317">
        <ele>350</ele>
        <time>2022-06-17T15:29:12.000Z</time>
      </trkpt>
      <trkpt lat="49.82768" lon="4.8532">
        <ele>350</ele>
        <time>2022-06-17T15:29:13.000Z</time>
      </trkpt>
      <trkpt lat="49.82767" lon="4.85323">
        <ele>350</ele>
        <time>2022-06-17T15:29:14.000Z</time>
      </trkpt>
      <trkpt lat="49.82765" lon="4.85326">
        <ele>350</ele>
        <time>2022-06-17T15:29:15.000Z</time>
      </trkpt>
      <trkpt lat="49.82764" lon="4.85329">
        <ele>351</ele>
        <time>2022-06-17T15:29:16.000Z</time>
      </trkpt>
      <trkpt lat="49.82762" lon="4.85332">
        <ele>351</ele>
        <time>2022-06-17T15:29:17.000Z</time>
      </trkpt>
      <trkpt lat="49.8276" lon="4.85335">
        <ele>351</ele>
        <time>2022-06-17T15:29:18.000Z</time>
      </trkpt>
      <trkpt lat="49.82758" lon="4.85338">
        <ele>351</ele>
        <time>2022-06-17T15:29:19.000Z</time>
      </trkpt>
      <trkpt lat="49.82756" lon="4.8534">
        <ele>351</ele>
        <time>2022-06-17T15:29:20.000Z</time>
      </trkpt>
      <trkpt lat="49.82753" lon="4.85343">
        <ele>351</ele>
        <time>2022-06-17T15:29:21.000Z</time>
      </trkpt>
      <trkpt lat="49.8275" lon="4.85346">
        <ele>351</ele>
        <time>2022-06-17T15:29:22.000Z</time>
      </trkpt>
      <trkpt lat="49.82747" lon="4.8535">
        <ele>352</ele>
        <time>2022-06-17T15:29:23.000Z</time>
      </trkpt>
      <trkpt lat="49.82744" lon="4.85353">
        <ele>352</ele>
        <time>2022-06-17T15:29:24.000Z</time>
      </trkpt>
      <trkpt lat="49.82741" lon="4.85355">
        <ele>352</ele>
        <time>2022-06-17T15:29:25.000Z</time>
      </trkpt>
      <trkpt lat="49.82738" lon="4.85358">
        <ele>352</ele>
        <time>2022-06-17T15:29:26.000Z</time>
      </trkpt>
      <trkpt lat="49.82735" lon="4.8536">
        <ele>352</ele>
        <time>2022-06-17T15:29:27.000Z</time>
      </trkpt>
      <trkpt lat="49.82732" lon="4.85362">
        <ele>352</ele>
        <time>2022-06-17T15:29:28.000Z</time>
      </trkpt>
      <trkpt lat="49.82729" lon="4.85363">
        <ele>352</ele>
        <time>2022-06-17T15:29:29.000Z</time>
      </trkpt>
      <trkpt lat="49.82728" lon="4.85365">
        <ele>352</ele>
        <time>2022-06-17T15:29:30.000Z</time>
      </trkpt>
      <trkpt lat="49.82726" lon="4.85367">
        <ele>352</ele>
        <time>2022-06-17T15:29:31.000Z</time>
      </trkpt>
      <trkpt lat="49.82724" lon="4.85369">
        <ele>352</ele>
        <time>2022-06-17T15:29:32.000Z</time>
      </trkpt>
      <trkpt lat="49.82722" lon="4.85371">
        <ele>352</ele>
        <time>2022-06-17T15:29:33.000Z</time>
      </trkpt>
      <trkpt lat="49.8272" lon="4.85374">
        <ele>352</ele>
        <time>2022-06-17T15:29:34.000Z</time>
      </trkpt>
      <trkpt lat="49.82718" lon="4.85375">
        <ele>352</ele>
        <time>2022-06-17T15:29:35.000Z</time>
      </trkpt>
      <trkpt lat="49.82716" lon="4.85377">
        <ele>352</ele>
        <time>2022-06-17T15:29:36.000Z</time>
      </trkpt>
      <trkpt lat="49.82713" lon="4.8538">
        <ele>352</ele>
        <time>2022-06-17T15:29:37.000Z</time>
      </trkpt>
      <trkpt lat="49.8271" lon="4.85384">
        <ele>352</ele>
        <time>2022-06-17T15:29:38.000Z</time>
      </trkpt>
      <trkpt lat="49.82706" lon="4.85387">
        <ele>352</ele>
        <time>2022-06-17T15:29:39.000Z</time>
      </trkpt>
      <trkpt lat="49.82703" lon="4.85389">
        <ele>352</ele>
        <time>2022-06-17T15:29:40.000Z</time>
      </trkpt>
      <trkpt lat="49.827" lon="4.85391">
        <ele>352</ele>
        <time>2022-06-17T15:29:41.000Z</time>
      </trkpt>
      <trkpt lat="49.82696" lon="4.85393">
        <ele>352</ele>
        <time>2022-06-17T15:29:42.000Z</time>
      </trkpt>
      <trkpt lat="49.82692" lon="4.85395">
        <ele>352</ele>
        <time>2022-06-17T15:29:43.000Z</time>
      </trkpt>
      <trkpt lat="49.82688" lon="4.85396">
        <ele>352</ele>
        <time>2022-06-17T15:29:44.000Z</time>
      </trkpt>
      <trkpt lat="49.82684" lon="4.85397">
        <ele>352</ele>
        <time>2022-06-17T15:29:45.000Z</time>
      </trkpt>
      <trkpt lat="49.82681" lon="4.85398">
        <ele>352</ele>
        <time>2022-06-17T15:29:46.000Z</time>
      </trkpt>
      <trkpt lat="49.82677" lon="4.854">
        <ele>352</ele>
        <time>2022-06-17T15:29:47.000Z</time>
      </trkpt>
      <trkpt lat="49.82672" lon="4.85403">
        <ele>351</ele>
        <time>2022-06-17T15:29:48.000Z</time>
      </trkpt>
      <trkpt lat="49.82668" lon="4.85404">
        <ele>351</ele>
        <time>2022-06-17T15:29:49.000Z</time>
      </trkpt>
      <trkpt lat="49.82663" lon="4.85405">
        <ele>351</ele>
        <time>2022-06-17T15:29:50.000Z</time>
      </trkpt>
      <trkpt lat="49.82658" lon="4.85406">
        <ele>351</ele>
        <time>2022-06-17T15:29:51.000Z</time>
      </trkpt>
      <trkpt lat="49.82654" lon="4.85406">
        <ele>351</ele>
        <time>2022-06-17T15:29:52.000Z</time>
      </trkpt>
      <trkpt lat="49.82649" lon="4.85407">
        <ele>351</ele>
        <time>2022-06-17T15:29:53.000Z</time>
      </trkpt>
      <trkpt lat="49.82646" lon="4.85408">
        <ele>351</ele>
        <time>2022-06-17T15:29:54.000Z</time>
      </trkpt>
      <trkpt lat="49.82645" lon="4.85409">
        <ele>351</ele>
        <time>2022-06-17T15:29:55.000Z</time>
      </trkpt>
      <trkpt lat="49.82644" lon="4.85409">
        <ele>351</ele>
        <time>2022-06-17T15:29:56.000Z</time>
      </trkpt>
      <trkpt lat="49.82643" lon="4.8541">
        <ele>351</ele>
        <time>2022-06-17T15:29:57.000Z</time>
      </trkpt>
      <trkpt lat="49.82643" lon="4.8541">
        <ele>351</ele>
        <time>2022-06-17T15:29:58.000Z</time>
      </trkpt>
      <trkpt lat="49.82643" lon="4.85411">
        <ele>351</ele>
        <time>2022-06-17T15:29:59.000Z</time>
      </trkpt>
      <trkpt lat="49.82643" lon="4.85412">
        <ele>351</ele>
        <time>2022-06-17T15:30:00.000Z</time>
      </trkpt>
      <trkpt lat="49.82642" lon="4.85412">
        <ele>351</ele>
        <time>2022-06-17T15:30:01.000Z</time>
      </trkpt>
      <trkpt lat="49.82641" lon="4.85413">
        <ele>351</ele>
        <time>2022-06-17T15:30:02.000Z</time>
      </trkpt>
      <trkpt lat="49.82639" lon="4.85413">
        <ele>351</ele>
        <time>2022-06-17T15:30:03.000Z</time>
      </trkpt>
      <trkpt lat="49.82637" lon="4.85414">
        <ele>352</ele>
        <time>2022-06-17T15:30:04.000Z</time>
      </trkpt>
      <trkpt lat="49.82634" lon="4.85415">
        <ele>352</ele>
        <time>2022-06-17T15:30:05.000Z</time>
      </trkpt>
      <trkpt lat="49.82631" lon="4.85416">
        <ele>352</ele>
        <time>2022-06-17T15:30:06.000Z</time>
      </trkpt>
      <trkpt lat="49.82628" lon="4.85417">
        <ele>352</ele>
        <time>2022-06-17T15:30:07.000Z</time>
      </trkpt>
      <trkpt lat="49.82624" lon="4.85418">
        <ele>352</ele>
        <time>2022-06-17T15:30:08.000Z</time>
      </trkpt>
      <trkpt lat="49.8262" lon="4.85419">
        <ele>351</ele>
        <time>2022-06-17T15:30:09.000Z</time>
      </trkpt>
      <trkpt lat="49.82616" lon="4.8542">
        <ele>351</ele>
        <time>2022-06-17T15:30:10.000Z</time>
      </trkpt>
      <trkpt lat="49.82611" lon="4.8542">
        <ele>351</ele>
        <time>2022-06-17T15:30:11.000Z</time>
      </trkpt>
      <trkpt lat="49.82607" lon="4.85421">
        <ele>351</ele>
        <time>2022-06-17T15:30:12.000Z</time>
      </trkpt>
      <trkpt lat="49.82602" lon="4.85422">
        <ele>351</ele>
        <time>2022-06-17T15:30:13.000Z</time>
      </trkpt>
      <trkpt lat="49.82598" lon="4.85423">
        <ele>351</ele>
        <time>2022-06-17T15:30:14.000Z</time>
      </trkpt>
      <trkpt lat="49.82593" lon="4.85425">
        <ele>351</ele>
        <time>2022-06-17T15:30:15.000Z</time>
      </trkpt>
      <trkpt lat="49.82588" lon="4.85425">
        <ele>351</ele>
        <time>2022-06-17T15:30:16.000Z</time>
      </trkpt>
      <trkpt lat="49.82583" lon="4.85427">
        <ele>351</ele>
        <time>2022-06-17T15:30:17.000Z</time>
      </trkpt>
      <trkpt lat="49.82577" lon="4.85428">
        <ele>350</ele>
        <time>2022-06-17T15:30:18.000Z</time>
      </trkpt>
      <trkpt lat="49.82572" lon="4.85429">
        <ele>350</ele>
        <time>2022-06-17T15:30:19.000Z</time>
      </trkpt>
      <trkpt lat="49.82566" lon="4.8543">
        <ele>350</ele>
        <time>2022-06-17T15:30:20.000Z</time>
      </trkpt>
      <trkpt lat="49.8256" lon="4.8543">
        <ele>350</ele>
        <time>2022-06-17T15:30:21.000Z</time>
      </trkpt>
      <trkpt lat="49.82554" lon="4.85431">
        <ele>350</ele>
        <time>2022-06-17T15:30:22.000Z</time>
      </trkpt>
      <trkpt lat="49.82548" lon="4.85431">
        <ele>350</ele>
        <time>2022-06-17T15:30:23.000Z</time>
      </trkpt>
      <trkpt lat="49.82542" lon="4.85431">
        <ele>349</ele>
        <time>2022-06-17T15:30:24.000Z</time>
      </trkpt>
      <trkpt lat="49.82535" lon="4.8543">
        <ele>349</ele>
        <time>2022-06-17T15:30:25.000Z</time>
      </trkpt>
      <trkpt lat="49.82529" lon="4.85429">
        <ele>349</ele>
        <time>2022-06-17T15:30:26.000Z</time>
      </trkpt>
      <trkpt lat="49.82523" lon="4.85428">
        <ele>348</ele>
        <time>2022-06-17T15:30:27.000Z</time>
      </trkpt>
      <trkpt lat="49.82517" lon="4.85428">
        <ele>348</ele>
        <time>2022-06-17T15:30:28.000Z</time>
      </trkpt>
      <trkpt lat="49.82511" lon="4.85427">
        <ele>348</ele>
        <time>2022-06-17T15:30:29.000Z</time>
      </trkpt>
      <trkpt lat="49.82506" lon="4.85426">
        <ele>348</ele>
        <time>2022-06-17T15:30:30.000Z</time>
      </trkpt>
      <trkpt lat="49.82501" lon="4.85425">
        <ele>347</ele>
        <time>2022-06-17T15:30:31.000Z</time>
      </trkpt>
      <trkpt lat="49.82497" lon="4.85424">
        <ele>347</ele>
        <time>2022-06-17T15:30:32.000Z</time>
      </trkpt>
      <trkpt lat="49.82493" lon="4.85423">
        <ele>347</ele>
        <time>2022-06-17T15:30:33.000Z</time>
      </trkpt>
      <trkpt lat="49.82489" lon="4.85421">
        <ele>347</ele>
        <time>2022-06-17T15:30:34.000Z</time>
      </trkpt>
      <trkpt lat="49.82486" lon="4.85419">
        <ele>347</ele>
        <time>2022-06-17T15:30:35.000Z</time>
      </trkpt>
      <trkpt lat="49.82483" lon="4.85417">
        <ele>347</ele>
        <time>2022-06-17T15:30:36.000Z</time>
      </trkpt>
      <trkpt lat="49.82479" lon="4.85415">
        <ele>347</ele>
        <time>2022-06-17T15:30:37.000Z</time>
      </trkpt>
      <trkpt lat="49.82475" lon="4.85414">
        <ele>346</ele>
        <time>2022-06-17T15:30:38.000Z</time>
      </trkpt>
      <trkpt lat="49.82469" lon="4.85413">
        <ele>346</ele>
        <time>2022-06-17T15:30:39.000Z</time>
      </trkpt>
      <trkpt lat="49.82465" lon="4.85414">
        <ele>346</ele>
        <time>2022-06-17T15:30:40.000Z</time>
      </trkpt>
      <trkpt lat="49.8246" lon="4.85416">
        <ele>346</ele>
        <time>2022-06-17T15:30:41.000Z</time>
      </trkpt>
      <trkpt lat="49.82456" lon="4.85418">
        <ele>346</ele>
        <time>2022-06-17T15:30:42.000Z</time>
      </trkpt>
      <trkpt lat="49.82451" lon="4.85421">
        <ele>345</ele>
        <time>2022-06-17T15:30:43.000Z</time>
      </trkpt>
      <trkpt lat="49.82446" lon="4.85423">
        <ele>345</ele>
        <time>2022-06-17T15:30:44.000Z</time>
      </trkpt>
      <trkpt lat="49.82441" lon="4.85426">
        <ele>345</ele>
        <time>2022-06-17T15:30:45.000Z</time>
      </trkpt>
      <trkpt lat="49.82436" lon="4.85428">
        <ele>345</ele>
        <time>2022-06-17T15:30:46.000Z</time>
      </trkpt>
      <trkpt lat="49.82431" lon="4.8543">
        <ele>345</ele>
        <time>2022-06-17T15:30:47.000Z</time>
      </trkpt>
      <trkpt lat="49.82425" lon="4.85432">
        <ele>345</ele>
        <time>2022-06-17T15:30:48.000Z</time>
      </trkpt>
      <trkpt lat="49.82419" lon="4.85434">
        <ele>344</ele>
        <time>2022-06-17T15:30:49.000Z</time>
      </trkpt>
      <trkpt lat="49.82414" lon="4.85436">
        <ele>344</ele>
        <time>2022-06-17T15:30:50.000Z</time>
      </trkpt>
      <trkpt lat="49.82408" lon="4.85437">
        <ele>344</ele>
        <time>2022-06-17T15:30:51.000Z</time>
      </trkpt>
      <trkpt lat="49.82403" lon="4.85437">
        <ele>344</ele>
        <time>2022-06-17T15:30:52.000Z</time>
      </trkpt>
      <trkpt lat="49.82397" lon="4.85436">
        <ele>343</ele>
        <time>2022-06-17T15:30:53.000Z</time>
      </trkpt>
      <trkpt lat="49.82391" lon="4.85435">
        <ele>343</ele>
        <time>2022-06-17T15:30:54.000Z</time>
      </trkpt>
      <trkpt lat="49.82386" lon="4.85434">
        <ele>343</ele>
        <time>2022-06-17T15:30:55.000Z</time>
      </trkpt>
      <trkpt lat="49.82381" lon="4.85433">
        <ele>343</ele>
        <time>2022-06-17T15:30:56.000Z</time>
      </trkpt>
      <trkpt lat="49.82377" lon="4.85431">
        <ele>342</ele>
        <time>2022-06-17T15:30:57.000Z</time>
      </trkpt>
      <trkpt lat="49.82373" lon="4.85429">
        <ele>342</ele>
        <time>2022-06-17T15:30:58.000Z</time>
      </trkpt>
      <trkpt lat="49.82369" lon="4.85424">
        <ele>342</ele>
        <time>2022-06-17T15:30:59.000Z</time>
      </trkpt>
      <trkpt lat="49.82365" lon="4.85418">
        <ele>341</ele>
        <time>2022-06-17T15:31:00.000Z</time>
      </trkpt>
      <trkpt lat="49.82362" lon="4.85413">
        <ele>341</ele>
        <time>2022-06-17T15:31:01.000Z</time>
      </trkpt>
      <trkpt lat="49.82361" lon="4.85409">
        <ele>341</ele>
        <time>2022-06-17T15:31:02.000Z</time>
      </trkpt>
      <trkpt lat="49.82359" lon="4.85405">
        <ele>340</ele>
        <time>2022-06-17T15:31:03.000Z</time>
      </trkpt>
      <trkpt lat="49.82358" lon="4.85402">
        <ele>340</ele>
        <time>2022-06-17T15:31:04.000Z</time>
      </trkpt>
      <trkpt lat="49.82356" lon="4.85398">
        <ele>339</ele>
        <time>2022-06-17T15:31:05.000Z</time>
      </trkpt>
      <trkpt lat="49.82354" lon="4.85392">
        <ele>339</ele>
        <time>2022-06-17T15:31:06.000Z</time>
      </trkpt>
      <trkpt lat="49.82351" lon="4.85386">
        <ele>338</ele>
        <time>2022-06-17T15:31:07.000Z</time>
      </trkpt>
      <trkpt lat="49.82348" lon="4.8538">
        <ele>338</ele>
        <time>2022-06-17T15:31:08.000Z</time>
      </trkpt>
      <trkpt lat="49.82345" lon="4.85373">
        <ele>337</ele>
        <time>2022-06-17T15:31:09.000Z</time>
      </trkpt>
      <trkpt lat="49.82341" lon="4.85367">
        <ele>337</ele>
        <time>2022-06-17T15:31:10.000Z</time>
      </trkpt>
      <trkpt lat="49.82338" lon="4.85362">
        <ele>336</ele>
        <time>2022-06-17T15:31:11.000Z</time>
      </trkpt>
      <trkpt lat="49.82335" lon="4.85357">
        <ele>336</ele>
        <time>2022-06-17T15:31:12.000Z</time>
      </trkpt>
      <trkpt lat="49.82332" lon="4.85351">
        <ele>335</ele>
        <time>2022-06-17T15:31:13.000Z</time>
      </trkpt>
      <trkpt lat="49.8233" lon="4.85345">
        <ele>335</ele>
        <time>2022-06-17T15:31:14.000Z</time>
      </trkpt>
      <trkpt lat="49.82327" lon="4.85338">
        <ele>334</ele>
        <time>2022-06-17T15:31:15.000Z</time>
      </trkpt>
      <trkpt lat="49.82324" lon="4.85331">
        <ele>334</ele>
        <time>2022-06-17T15:31:16.000Z</time>
      </trkpt>
      <trkpt lat="49.82322" lon="4.85324">
        <ele>333</ele>
        <time>2022-06-17T15:31:17.000Z</time>
      </trkpt>
      <trkpt lat="49.82321" lon="4.85317">
        <ele>332</ele>
        <time>2022-06-17T15:31:18.000Z</time>
      </trkpt>
      <trkpt lat="49.82319" lon="4.8531">
        <ele>332</ele>
        <time>2022-06-17T15:31:19.000Z</time>
      </trkpt>
      <trkpt lat="49.82317" lon="4.85302">
        <ele>331</ele>
        <time>2022-06-17T15:31:20.000Z</time>
      </trkpt>
      <trkpt lat="49.82314" lon="4.85295">
        <ele>331</ele>
        <time>2022-06-17T15:31:21.000Z</time>
      </trkpt>
      <trkpt lat="49.82312" lon="4.85287">
        <ele>330</ele>
        <time>2022-06-17T15:31:22.000Z</time>
      </trkpt>
      <trkpt lat="49.82309" lon="4.8528">
        <ele>330</ele>
        <time>2022-06-17T15:31:23.000Z</time>
      </trkpt>
      <trkpt lat="49.82307" lon="4.85273">
        <ele>329</ele>
        <time>2022-06-17T15:31:24.000Z</time>
      </trkpt>
      <trkpt lat="49.82304" lon="4.85266">
        <ele>329</ele>
        <time>2022-06-17T15:31:25.000Z</time>
      </trkpt>
      <trkpt lat="49.82302" lon="4.8526">
        <ele>328</ele>
        <time>2022-06-17T15:31:26.000Z</time>
      </trkpt>
      <trkpt lat="49.82299" lon="4.85255">
        <ele>327</ele>
        <time>2022-06-17T15:31:27.000Z</time>
      </trkpt>
      <trkpt lat="49.82296" lon="4.8525">
        <ele>326</ele>
        <time>2022-06-17T15:31:28.000Z</time>
      </trkpt>
      <trkpt lat="49.82294" lon="4.85246">
        <ele>326</ele>
        <time>2022-06-17T15:31:29.000Z</time>
      </trkpt>
      <trkpt lat="49.82291" lon="4.85241">
        <ele>325</ele>
        <time>2022-06-17T15:31:30.000Z</time>
      </trkpt>
      <trkpt lat="49.82289" lon="4.85236">
        <ele>324</ele>
        <time>2022-06-17T15:31:31.000Z</time>
      </trkpt>
      <trkpt lat="49.82287" lon="4.85231">
        <ele>323</ele>
        <time>2022-06-17T15:31:32.000Z</time>
      </trkpt>
      <trkpt lat="49.82286" lon="4.85226">
        <ele>323</ele>
        <time>2022-06-17T15:31:33.000Z</time>
      </trkpt>
      <trkpt lat="49.82284" lon="4.85221">
        <ele>322</ele>
        <time>2022-06-17T15:31:34.000Z</time>
      </trkpt>
      <trkpt lat="49.82283" lon="4.85215">
        <ele>321</ele>
        <time>2022-06-17T15:31:35.000Z</time>
      </trkpt>
      <trkpt lat="49.82281" lon="4.85207">
        <ele>321</ele>
        <time>2022-06-17T15:31:36.000Z</time>
      </trkpt>
      <trkpt lat="49.82279" lon="4.852">
        <ele>320</ele>
        <time>2022-06-17T15:31:37.000Z</time>
      </trkpt>
      <trkpt lat="49.82277" lon="4.85193">
        <ele>320</ele>
        <time>2022-06-17T15:31:38.000Z</time>
      </trkpt>
      <trkpt lat="49.82275" lon="4.85186">
        <ele>319</ele>
        <time>2022-06-17T15:31:39.000Z</time>
      </trkpt>
      <trkpt lat="49.82274" lon="4.85181">
        <ele>319</ele>
        <time>2022-06-17T15:31:40.000Z</time>
      </trkpt>
      <trkpt lat="49.82273" lon="4.85176">
        <ele>318</ele>
        <time>2022-06-17T15:31:41.000Z</time>
      </trkpt>
      <trkpt lat="49.82272" lon="4.8517">
        <ele>318</ele>
        <time>2022-06-17T15:31:42.000Z</time>
      </trkpt>
      <trkpt lat="49.8227" lon="4.85165">
        <ele>317</ele>
        <time>2022-06-17T15:31:43.000Z</time>
      </trkpt>
      <trkpt lat="49.82269" lon="4.85159">
        <ele>317</ele>
        <time>2022-06-17T15:31:44.000Z</time>
      </trkpt>
      <trkpt lat="49.82268" lon="4.85153">
        <ele>317</ele>
        <time>2022-06-17T15:31:45.000Z</time>
      </trkpt>
      <trkpt lat="49.82268" lon="4.85145">
        <ele>316</ele>
        <time>2022-06-17T15:31:46.000Z</time>
      </trkpt>
      <trkpt lat="49.82267" lon="4.85138">
        <ele>316</ele>
        <time>2022-06-17T15:31:47.000Z</time>
      </trkpt>
      <trkpt lat="49.82267" lon="4.85131">
        <ele>315</ele>
        <time>2022-06-17T15:31:48.000Z</time>
      </trkpt>
      <trkpt lat="49.82268" lon="4.85124">
        <ele>315</ele>
        <time>2022-06-17T15:31:49.000Z</time>
      </trkpt>
      <trkpt lat="49.82269" lon="4.85117">
        <ele>314</ele>
        <time>2022-06-17T15:31:50.000Z</time>
      </trkpt>
      <trkpt lat="49.8227" lon="4.85112">
        <ele>314</ele>
        <time>2022-06-17T15:31:51.000Z</time>
      </trkpt>
      <trkpt lat="49.82272" lon="4.85107">
        <ele>313</ele>
        <time>2022-06-17T15:31:52.000Z</time>
      </trkpt>
      <trkpt lat="49.82275" lon="4.85104">
        <ele>313</ele>
        <time>2022-06-17T15:31:53.000Z</time>
      </trkpt>
      <trkpt lat="49.82277" lon="4.851">
        <ele>313</ele>
        <time>2022-06-17T15:31:54.000Z</time>
      </trkpt>
      <trkpt lat="49.82279" lon="4.85097">
        <ele>312</ele>
        <time>2022-06-17T15:31:55.000Z</time>
      </trkpt>
      <trkpt lat="49.8228" lon="4.85094">
        <ele>312</ele>
        <time>2022-06-17T15:31:56.000Z</time>
      </trkpt>
      <trkpt lat="49.82281" lon="4.85091">
        <ele>311</ele>
        <time>2022-06-17T15:31:57.000Z</time>
      </trkpt>
      <trkpt lat="49.82281" lon="4.85088">
        <ele>311</ele>
        <time>2022-06-17T15:31:58.000Z</time>
      </trkpt>
      <trkpt lat="49.8228" lon="4.85085">
        <ele>310</ele>
        <time>2022-06-17T15:31:59.000Z</time>
      </trkpt>
      <trkpt lat="49.82279" lon="4.85082">
        <ele>310</ele>
        <time>2022-06-17T15:32:00.000Z</time>
      </trkpt>
      <trkpt lat="49.82278" lon="4.85077">
        <ele>309</ele>
        <time>2022-06-17T15:32:01.000Z</time>
      </trkpt>
      <trkpt lat="49.82276" lon="4.85072">
        <ele>309</ele>
        <time>2022-06-17T15:32:02.000Z</time>
      </trkpt>
      <trkpt lat="49.82273" lon="4.85066">
        <ele>308</ele>
        <time>2022-06-17T15:32:03.000Z</time>
      </trkpt>
      <trkpt lat="49.8227" lon="4.8506">
        <ele>308</ele>
        <time>2022-06-17T15:32:04.000Z</time>
      </trkpt>
      <trkpt lat="49.82267" lon="4.85053">
        <ele>307</ele>
        <time>2022-06-17T15:32:05.000Z</time>
      </trkpt>
      <trkpt lat="49.82264" lon="4.85046">
        <ele>307</ele>
        <time>2022-06-17T15:32:06.000Z</time>
      </trkpt>
      <trkpt lat="49.82261" lon="4.85037">
        <ele>307</ele>
        <time>2022-06-17T15:32:07.000Z</time>
      </trkpt>
      <trkpt lat="49.82259" lon="4.8503">
        <ele>306</ele>
        <time>2022-06-17T15:32:08.000Z</time>
      </trkpt>
      <trkpt lat="49.82258" lon="4.85022">
        <ele>306</ele>
        <time>2022-06-17T15:32:09.000Z</time>
      </trkpt>
      <trkpt lat="49.82256" lon="4.85015">
        <ele>305</ele>
        <time>2022-06-17T15:32:10.000Z</time>
      </trkpt>
      <trkpt lat="49.82255" lon="4.85009">
        <ele>304</ele>
        <time>2022-06-17T15:32:11.000Z</time>
      </trkpt>
      <trkpt lat="49.82253" lon="4.85005">
        <ele>304</ele>
        <time>2022-06-17T15:32:12.000Z</time>
      </trkpt>
      <trkpt lat="49.82251" lon="4.85">
        <ele>303</ele>
        <time>2022-06-17T15:32:13.000Z</time>
      </trkpt>
      <trkpt lat="49.8225" lon="4.84996">
        <ele>303</ele>
        <time>2022-06-17T15:32:14.000Z</time>
      </trkpt>
      <trkpt lat="49.82249" lon="4.84991">
        <ele>302</ele>
        <time>2022-06-17T15:32:15.000Z</time>
      </trkpt>
      <trkpt lat="49.82247" lon="4.84985">
        <ele>301</ele>
        <time>2022-06-17T15:32:16.000Z</time>
      </trkpt>
      <trkpt lat="49.82246" lon="4.8498">
        <ele>301</ele>
        <time>2022-06-17T15:32:17.000Z</time>
      </trkpt>
      <trkpt lat="49.82244" lon="4.84974">
        <ele>301</ele>
        <time>2022-06-17T15:32:18.000Z</time>
      </trkpt>
      <trkpt lat="49.82242" lon="4.84968">
        <ele>300</ele>
        <time>2022-06-17T15:32:19.000Z</time>
      </trkpt>
      <trkpt lat="49.82241" lon="4.84963">
        <ele>300</ele>
        <time>2022-06-17T15:32:20.000Z</time>
      </trkpt>
      <trkpt lat="49.82239" lon="4.84958">
        <ele>299</ele>
        <time>2022-06-17T15:32:21.000Z</time>
      </trkpt>
      <trkpt lat="49.82237" lon="4.84954">
        <ele>299</ele>
        <time>2022-06-17T15:32:22.000Z</time>
      </trkpt>
      <trkpt lat="49.82235" lon="4.84949">
        <ele>298</ele>
        <time>2022-06-17T15:32:23.000Z</time>
      </trkpt>
      <trkpt lat="49.82233" lon="4.84944">
        <ele>298</ele>
        <time>2022-06-17T15:32:24.000Z</time>
      </trkpt>
      <trkpt lat="49.8223" lon="4.8494">
        <ele>297</ele>
        <time>2022-06-17T15:32:25.000Z</time>
      </trkpt>
      <trkpt lat="49.82228" lon="4.84936">
        <ele>297</ele>
        <time>2022-06-17T15:32:26.000Z</time>
      </trkpt>
      <trkpt lat="49.82226" lon="4.84933">
        <ele>296</ele>
        <time>2022-06-17T15:32:27.000Z</time>
      </trkpt>
      <trkpt lat="49.82224" lon="4.84931">
        <ele>296</ele>
        <time>2022-06-17T15:32:28.000Z</time>
      </trkpt>
      <trkpt lat="49.82221" lon="4.84929">
        <ele>295</ele>
        <time>2022-06-17T15:32:29.000Z</time>
      </trkpt>
      <trkpt lat="49.82219" lon="4.84928">
        <ele>295</ele>
        <time>2022-06-17T15:32:30.000Z</time>
      </trkpt>
      <trkpt lat="49.82218" lon="4.84927">
        <ele>294</ele>
        <time>2022-06-17T15:32:31.000Z</time>
      </trkpt>
      <trkpt lat="49.82216" lon="4.84926">
        <ele>294</ele>
        <time>2022-06-17T15:32:32.000Z</time>
      </trkpt>
      <trkpt lat="49.82214" lon="4.84924">
        <ele>293</ele>
        <time>2022-06-17T15:32:33.000Z</time>
      </trkpt>
      <trkpt lat="49.82213" lon="4.84921">
        <ele>293</ele>
        <time>2022-06-17T15:32:34.000Z</time>
      </trkpt>
      <trkpt lat="49.82211" lon="4.8492">
        <ele>293</ele>
        <time>2022-06-17T15:32:35.000Z</time>
      </trkpt>
      <trkpt lat="49.8221" lon="4.84918">
        <ele>292</ele>
        <time>2022-06-17T15:32:36.000Z</time>
      </trkpt>
      <trkpt lat="49.82208" lon="4.84917">
        <ele>292</ele>
        <time>2022-06-17T15:32:37.000Z</time>
      </trkpt>
      <trkpt lat="49.82207" lon="4.84918">
        <ele>292</ele>
        <time>2022-06-17T15:32:38.000Z</time>
      </trkpt>
      <trkpt lat="49.82205" lon="4.84917">
        <ele>291</ele>
        <time>2022-06-17T15:32:39.000Z</time>
      </trkpt>
      <trkpt lat="49.82203" lon="4.84916">
        <ele>291</ele>
        <time>2022-06-17T15:32:40.000Z</time>
      </trkpt>
      <trkpt lat="49.82202" lon="4.84915">
        <ele>290</ele>
        <time>2022-06-17T15:32:41.000Z</time>
      </trkpt>
      <trkpt lat="49.822" lon="4.84914">
        <ele>290</ele>
        <time>2022-06-17T15:32:42.000Z</time>
      </trkpt>
      <trkpt lat="49.82198" lon="4.84912">
        <ele>290</ele>
        <time>2022-06-17T15:32:43.000Z</time>
      </trkpt>
      <trkpt lat="49.82196" lon="4.84911">
        <ele>290</ele>
        <time>2022-06-17T15:32:44.000Z</time>
      </trkpt>
      <trkpt lat="49.82193" lon="4.84909">
        <ele>289</ele>
        <time>2022-06-17T15:32:45.000Z</time>
      </trkpt>
      <trkpt lat="49.8219" lon="4.84908">
        <ele>289</ele>
        <time>2022-06-17T15:32:46.000Z</time>
      </trkpt>
      <trkpt lat="49.82186" lon="4.84909">
        <ele>288</ele>
        <time>2022-06-17T15:32:47.000Z</time>
      </trkpt>
      <trkpt lat="49.82183" lon="4.84909">
        <ele>288</ele>
        <time>2022-06-17T15:32:48.000Z</time>
      </trkpt>
      <trkpt lat="49.82179" lon="4.84908">
        <ele>287</ele>
        <time>2022-06-17T15:32:49.000Z</time>
      </trkpt>
      <trkpt lat="49.82175" lon="4.84907">
        <ele>286</ele>
        <time>2022-06-17T15:32:50.000Z</time>
      </trkpt>
      <trkpt lat="49.82171" lon="4.84905">
        <ele>286</ele>
        <time>2022-06-17T15:32:51.000Z</time>
      </trkpt>
      <trkpt lat="49.82167" lon="4.84903">
        <ele>285</ele>
        <time>2022-06-17T15:32:52.000Z</time>
      </trkpt>
      <trkpt lat="49.82163" lon="4.84901">
        <ele>284</ele>
        <time>2022-06-17T15:32:53.000Z</time>
      </trkpt>
      <trkpt lat="49.82159" lon="4.84899">
        <ele>284</ele>
        <time>2022-06-17T15:32:54.000Z</time>
      </trkpt>
      <trkpt lat="49.82155" lon="4.84897">
        <ele>283</ele>
        <time>2022-06-17T15:32:55.000Z</time>
      </trkpt>
      <trkpt lat="49.82151" lon="4.84895">
        <ele>282</ele>
        <time>2022-06-17T15:32:56.000Z</time>
      </trkpt>
      <trkpt lat="49.82147" lon="4.84893">
        <ele>281</ele>
        <time>2022-06-17T15:32:57.000Z</time>
      </trkpt>
      <trkpt lat="49.82143" lon="4.84891">
        <ele>281</ele>
        <time>2022-06-17T15:32:58.000Z</time>
      </trkpt>
      <trkpt lat="49.82138" lon="4.84889">
        <ele>280</ele>
        <time>2022-06-17T15:32:59.000Z</time>
      </trkpt>
      <trkpt lat="49.82135" lon="4.84887">
        <ele>279</ele>
        <time>2022-06-17T15:33:00.000Z</time>
      </trkpt>
      <trkpt lat="49.82131" lon="4.84885">
        <ele>278</ele>
        <time>2022-06-17T15:33:01.000Z</time>
      </trkpt>
      <trkpt lat="49.82128" lon="4.84883">
        <ele>278</ele>
        <time>2022-06-17T15:33:02.000Z</time>
      </trkpt>
      <trkpt lat="49.82125" lon="4.84882">
        <ele>277</ele>
        <time>2022-06-17T15:33:03.000Z</time>
      </trkpt>
      <trkpt lat="49.82122" lon="4.84879">
        <ele>276</ele>
        <time>2022-06-17T15:33:04.000Z</time>
      </trkpt>
      <trkpt lat="49.82119" lon="4.84878">
        <ele>276</ele>
        <time>2022-06-17T15:33:05.000Z</time>
      </trkpt>
      <trkpt lat="49.82116" lon="4.84875">
        <ele>275</ele>
        <time>2022-06-17T15:33:06.000Z</time>
      </trkpt>
      <trkpt lat="49.82112" lon="4.84872">
        <ele>274</ele>
        <time>2022-06-17T15:33:07.000Z</time>
      </trkpt>
      <trkpt lat="49.82109" lon="4.8487">
        <ele>273</ele>
        <time>2022-06-17T15:33:08.000Z</time>
      </trkpt>
      <trkpt lat="49.82106" lon="4.84868">
        <ele>273</ele>
        <time>2022-06-17T15:33:09.000Z</time>
      </trkpt>
      <trkpt lat="49.82102" lon="4.84866">
        <ele>272</ele>
        <time>2022-06-17T15:33:10.000Z</time>
      </trkpt>
      <trkpt lat="49.82099" lon="4.84865">
        <ele>271</ele>
        <time>2022-06-17T15:33:11.000Z</time>
      </trkpt>
      <trkpt lat="49.82095" lon="4.84862">
        <ele>271</ele>
        <time>2022-06-17T15:33:12.000Z</time>
      </trkpt>
      <trkpt lat="49.82091" lon="4.8486">
        <ele>270</ele>
        <time>2022-06-17T15:33:13.000Z</time>
      </trkpt>
      <trkpt lat="49.82087" lon="4.84857">
        <ele>269</ele>
        <time>2022-06-17T15:33:14.000Z</time>
      </trkpt>
      <trkpt lat="49.82083" lon="4.84854">
        <ele>269</ele>
        <time>2022-06-17T15:33:15.000Z</time>
      </trkpt>
      <trkpt lat="49.82078" lon="4.84851">
        <ele>268</ele>
        <time>2022-06-17T15:33:16.000Z</time>
      </trkpt>
      <trkpt lat="49.82074" lon="4.84848">
        <ele>267</ele>
        <time>2022-06-17T15:33:17.000Z</time>
      </trkpt>
      <trkpt lat="49.82069" lon="4.84845">
        <ele>267</ele>
        <time>2022-06-17T15:33:18.000Z</time>
      </trkpt>
      <trkpt lat="49.82064" lon="4.84842">
        <ele>266</ele>
        <time>2022-06-17T15:33:19.000Z</time>
      </trkpt>
      <trkpt lat="49.82059" lon="4.84839">
        <ele>265</ele>
        <time>2022-06-17T15:33:20.000Z</time>
      </trkpt>
      <trkpt lat="49.82054" lon="4.84837">
        <ele>265</ele>
        <time>2022-06-17T15:33:21.000Z</time>
      </trkpt>
      <trkpt lat="49.8205" lon="4.84834">
        <ele>264</ele>
        <time>2022-06-17T15:33:22.000Z</time>
      </trkpt>
      <trkpt lat="49.82045" lon="4.84832">
        <ele>264</ele>
        <time>2022-06-17T15:33:23.000Z</time>
      </trkpt>
      <trkpt lat="49.8204" lon="4.8483">
        <ele>264</ele>
        <time>2022-06-17T15:33:24.000Z</time>
      </trkpt>
      <trkpt lat="49.82036" lon="4.84828">
        <ele>263</ele>
        <time>2022-06-17T15:33:25.000Z</time>
      </trkpt>
      <trkpt lat="49.82032" lon="4.84827">
        <ele>263</ele>
        <time>2022-06-17T15:33:26.000Z</time>
      </trkpt>
      <trkpt lat="49.82028" lon="4.84826">
        <ele>262</ele>
        <time>2022-06-17T15:33:27.000Z</time>
      </trkpt>
      <trkpt lat="49.82023" lon="4.84824">
        <ele>262</ele>
        <time>2022-06-17T15:33:28.000Z</time>
      </trkpt>
      <trkpt lat="49.82019" lon="4.84823">
        <ele>262</ele>
        <time>2022-06-17T15:33:29.000Z</time>
      </trkpt>
      <trkpt lat="49.82015" lon="4.84822">
        <ele>261</ele>
        <time>2022-06-17T15:33:30.000Z</time>
      </trkpt>
      <trkpt lat="49.8201" lon="4.84822">
        <ele>261</ele>
        <time>2022-06-17T15:33:31.000Z</time>
      </trkpt>
      <trkpt lat="49.82005" lon="4.84822">
        <ele>260</ele>
        <time>2022-06-17T15:33:32.000Z</time>
      </trkpt>
      <trkpt lat="49.82" lon="4.84823">
        <ele>260</ele>
        <time>2022-06-17T15:33:33.000Z</time>
      </trkpt>
      <trkpt lat="49.81995" lon="4.84824">
        <ele>259</ele>
        <time>2022-06-17T15:33:34.000Z</time>
      </trkpt>
      <trkpt lat="49.81989" lon="4.84824">
        <ele>259</ele>
        <time>2022-06-17T15:33:35.000Z</time>
      </trkpt>
      <trkpt lat="49.81985" lon="4.84825">
        <ele>258</ele>
        <time>2022-06-17T15:33:36.000Z</time>
      </trkpt>
      <trkpt lat="49.81981" lon="4.84826">
        <ele>258</ele>
        <time>2022-06-17T15:33:37.000Z</time>
      </trkpt>
      <trkpt lat="49.81976" lon="4.84829">
        <ele>257</ele>
        <time>2022-06-17T15:33:38.000Z</time>
      </trkpt>
      <trkpt lat="49.81971" lon="4.84832">
        <ele>257</ele>
        <time>2022-06-17T15:33:39.000Z</time>
      </trkpt>
      <trkpt lat="49.81966" lon="4.84836">
        <ele>256</ele>
        <time>2022-06-17T15:33:40.000Z</time>
      </trkpt>
      <trkpt lat="49.81961" lon="4.84839">
        <ele>256</ele>
        <time>2022-06-17T15:33:41.000Z</time>
      </trkpt>
      <trkpt lat="49.81956" lon="4.84844">
        <ele>255</ele>
        <time>2022-06-17T15:33:42.000Z</time>
      </trkpt>
      <trkpt lat="49.81951" lon="4.84848">
        <ele>255</ele>
        <time>2022-06-17T15:33:43.000Z</time>
      </trkpt>
      <trkpt lat="49.81947" lon="4.84851">
        <ele>254</ele>
        <time>2022-06-17T15:33:44.000Z</time>
      </trkpt>
      <trkpt lat="49.81942" lon="4.84855">
        <ele>254</ele>
        <time>2022-06-17T15:33:45.000Z</time>
      </trkpt>
      <trkpt lat="49.81938" lon="4.8486">
        <ele>253</ele>
        <time>2022-06-17T15:33:46.000Z</time>
      </trkpt>
      <trkpt lat="49.81932" lon="4.84864">
        <ele>253</ele>
        <time>2022-06-17T15:33:47.000Z</time>
      </trkpt>
      <trkpt lat="49.81926" lon="4.84869">
        <ele>252</ele>
        <time>2022-06-17T15:33:48.000Z</time>
      </trkpt>
      <trkpt lat="49.81921" lon="4.84873">
        <ele>252</ele>
        <time>2022-06-17T15:33:49.000Z</time>
      </trkpt>
      <trkpt lat="49.81915" lon="4.84877">
        <ele>251</ele>
        <time>2022-06-17T15:33:50.000Z</time>
      </trkpt>
      <trkpt lat="49.81909" lon="4.84881">
        <ele>250</ele>
        <time>2022-06-17T15:33:51.000Z</time>
      </trkpt>
      <trkpt lat="49.81903" lon="4.84883">
        <ele>250</ele>
        <time>2022-06-17T15:33:52.000Z</time>
      </trkpt>
      <trkpt lat="49.81897" lon="4.84886">
        <ele>249</ele>
        <time>2022-06-17T15:33:53.000Z</time>
      </trkpt>
      <trkpt lat="49.81891" lon="4.84889">
        <ele>249</ele>
        <time>2022-06-17T15:33:54.000Z</time>
      </trkpt>
      <trkpt lat="49.81885" lon="4.84892">
        <ele>248</ele>
        <time>2022-06-17T15:33:55.000Z</time>
      </trkpt>
      <trkpt lat="49.81881" lon="4.84896">
        <ele>247</ele>
        <time>2022-06-17T15:33:56.000Z</time>
      </trkpt>
      <trkpt lat="49.81876" lon="4.84899">
        <ele>247</ele>
        <time>2022-06-17T15:33:57.000Z</time>
      </trkpt>
      <trkpt lat="49.81872" lon="4.84903">
        <ele>246</ele>
        <time>2022-06-17T15:33:58.000Z</time>
      </trkpt>
      <trkpt lat="49.81867" lon="4.84906">
        <ele>246</ele>
        <time>2022-06-17T15:33:59.000Z</time>
      </trkpt>
      <trkpt lat="49.81861" lon="4.8491">
        <ele>245</ele>
        <time>2022-06-17T15:34:00.000Z</time>
      </trkpt>
      <trkpt lat="49.81855" lon="4.84915">
        <ele>244</ele>
        <time>2022-06-17T15:34:01.000Z</time>
      </trkpt>
      <trkpt lat="49.8185" lon="4.84921">
        <ele>244</ele>
        <time>2022-06-17T15:34:02.000Z</time>
      </trkpt>
      <trkpt lat="49.81845" lon="4.84927">
        <ele>243</ele>
        <time>2022-06-17T15:34:03.000Z</time>
      </trkpt>
      <trkpt lat="49.8184" lon="4.84932">
        <ele>242</ele>
        <time>2022-06-17T15:34:04.000Z</time>
      </trkpt>
      <trkpt lat="49.81836" lon="4.84936">
        <ele>241</ele>
        <time>2022-06-17T15:34:05.000Z</time>
      </trkpt>
      <trkpt lat="49.81831" lon="4.8494">
        <ele>241</ele>
        <time>2022-06-17T15:34:06.000Z</time>
      </trkpt>
      <trkpt lat="49.81827" lon="4.84943">
        <ele>240</ele>
        <time>2022-06-17T15:34:07.000Z</time>
      </trkpt>
      <trkpt lat="49.81822" lon="4.84946">
        <ele>239</ele>
        <time>2022-06-17T15:34:08.000Z</time>
      </trkpt>
      <trkpt lat="49.81817" lon="4.84949">
        <ele>239</ele>
        <time>2022-06-17T15:34:09.000Z</time>
      </trkpt>
      <trkpt lat="49.81812" lon="4.84951">
        <ele>238</ele>
        <time>2022-06-17T15:34:10.000Z</time>
      </trkpt>
      <trkpt lat="49.81806" lon="4.84952">
        <ele>238</ele>
        <time>2022-06-17T15:34:11.000Z</time>
      </trkpt>
      <trkpt lat="49.818" lon="4.84951">
        <ele>237</ele>
        <time>2022-06-17T15:34:12.000Z</time>
      </trkpt>
      <trkpt lat="49.81793" lon="4.84951">
        <ele>236</ele>
        <time>2022-06-17T15:34:13.000Z</time>
      </trkpt>
      <trkpt lat="49.81787" lon="4.84951">
        <ele>236</ele>
        <time>2022-06-17T15:34:14.000Z</time>
      </trkpt>
      <trkpt lat="49.8178" lon="4.84952">
        <ele>235</ele>
        <time>2022-06-17T15:34:15.000Z</time>
      </trkpt>
      <trkpt lat="49.81772" lon="4.84952">
        <ele>234</ele>
        <time>2022-06-17T15:34:16.000Z</time>
      </trkpt>
      <trkpt lat="49.81765" lon="4.84953">
        <ele>234</ele>
        <time>2022-06-17T15:34:17.000Z</time>
      </trkpt>
      <trkpt lat="49.81757" lon="4.84953">
        <ele>233</ele>
        <time>2022-06-17T15:34:18.000Z</time>
      </trkpt>
      <trkpt lat="49.81749" lon="4.84953">
        <ele>232</ele>
        <time>2022-06-17T15:34:19.000Z</time>
      </trkpt>
      <trkpt lat="49.81742" lon="4.84952">
        <ele>231</ele>
        <time>2022-06-17T15:34:20.000Z</time>
      </trkpt>
      <trkpt lat="49.81734" lon="4.84952">
        <ele>231</ele>
        <time>2022-06-17T15:34:21.000Z</time>
      </trkpt>
      <trkpt lat="49.81726" lon="4.84952">
        <ele>230</ele>
        <time>2022-06-17T15:34:22.000Z</time>
      </trkpt>
      <trkpt lat="49.81718" lon="4.84951">
        <ele>229</ele>
        <time>2022-06-17T15:34:23.000Z</time>
      </trkpt>
      <trkpt lat="49.8171" lon="4.84951">
        <ele>228</ele>
        <time>2022-06-17T15:34:24.000Z</time>
      </trkpt>
      <trkpt lat="49.81701" lon="4.84951">
        <ele>227</ele>
        <time>2022-06-17T15:34:25.000Z</time>
      </trkpt>
      <trkpt lat="49.81693" lon="4.84951">
        <ele>226</ele>
        <time>2022-06-17T15:34:26.000Z</time>
      </trkpt>
      <trkpt lat="49.81685" lon="4.8495">
        <ele>225</ele>
        <time>2022-06-17T15:34:27.000Z</time>
      </trkpt>
      <trkpt lat="49.81678" lon="4.8495">
        <ele>225</ele>
        <time>2022-06-17T15:34:28.000Z</time>
      </trkpt>
      <trkpt lat="49.8167" lon="4.8495">
        <ele>224</ele>
        <time>2022-06-17T15:34:29.000Z</time>
      </trkpt>
      <trkpt lat="49.81663" lon="4.84948">
        <ele>224</ele>
        <time>2022-06-17T15:34:30.000Z</time>
      </trkpt>
      <trkpt lat="49.81656" lon="4.84947">
        <ele>223</ele>
        <time>2022-06-17T15:34:31.000Z</time>
      </trkpt>
      <trkpt lat="49.8165" lon="4.84946">
        <ele>222</ele>
        <time>2022-06-17T15:34:32.000Z</time>
      </trkpt>
      <trkpt lat="49.81643" lon="4.84945">
        <ele>222</ele>
        <time>2022-06-17T15:34:33.000Z</time>
      </trkpt>
      <trkpt lat="49.81637" lon="4.84945">
        <ele>221</ele>
        <time>2022-06-17T15:34:34.000Z</time>
      </trkpt>
      <trkpt lat="49.81631" lon="4.84944">
        <ele>221</ele>
        <time>2022-06-17T15:34:35.000Z</time>
      </trkpt>
      <trkpt lat="49.81625" lon="4.84943">
        <ele>221</ele>
        <time>2022-06-17T15:34:36.000Z</time>
      </trkpt>
      <trkpt lat="49.8162" lon="4.84943">
        <ele>221</ele>
        <time>2022-06-17T15:34:37.000Z</time>
      </trkpt>
      <trkpt lat="49.81616" lon="4.84942">
        <ele>221</ele>
        <time>2022-06-17T15:34:38.000Z</time>
      </trkpt>
      <trkpt lat="49.81611" lon="4.84941">
        <ele>220</ele>
        <time>2022-06-17T15:34:39.000Z</time>
      </trkpt>
      <trkpt lat="49.81607" lon="4.8494">
        <ele>220</ele>
        <time>2022-06-17T15:34:40.000Z</time>
      </trkpt>
      <trkpt lat="49.81603" lon="4.8494">
        <ele>220</ele>
        <time>2022-06-17T15:34:41.000Z</time>
      </trkpt>
      <trkpt lat="49.81599" lon="4.84939">
        <ele>220</ele>
        <time>2022-06-17T15:34:42.000Z</time>
      </trkpt>
      <trkpt lat="49.81595" lon="4.84938">
        <ele>220</ele>
        <time>2022-06-17T15:34:43.000Z</time>
      </trkpt>
      <trkpt lat="49.81592" lon="4.84938">
        <ele>220</ele>
        <time>2022-06-17T15:34:44.000Z</time>
      </trkpt>
      <trkpt lat="49.81588" lon="4.84937">
        <ele>220</ele>
        <time>2022-06-17T15:34:45.000Z</time>
      </trkpt>
      <trkpt lat="49.81585" lon="4.84936">
        <ele>220</ele>
        <time>2022-06-17T15:34:46.000Z</time>
      </trkpt>
      <trkpt lat="49.81581" lon="4.84935">
        <ele>220</ele>
        <time>2022-06-17T15:34:47.000Z</time>
      </trkpt>
      <trkpt lat="49.81578" lon="4.84935">
        <ele>219</ele>
        <time>2022-06-17T15:34:48.000Z</time>
      </trkpt>
      <trkpt lat="49.81576" lon="4.84935">
        <ele>219</ele>
        <time>2022-06-17T15:34:49.000Z</time>
      </trkpt>
      <trkpt lat="49.81573" lon="4.84936">
        <ele>219</ele>
        <time>2022-06-17T15:34:50.000Z</time>
      </trkpt>
      <trkpt lat="49.8157" lon="4.84937">
        <ele>219</ele>
        <time>2022-06-17T15:34:51.000Z</time>
      </trkpt>
      <trkpt lat="49.81567" lon="4.84941">
        <ele>219</ele>
        <time>2022-06-17T15:34:52.000Z</time>
      </trkpt>
      <trkpt lat="49.81565" lon="4.84946">
        <ele>219</ele>
        <time>2022-06-17T15:34:53.000Z</time>
      </trkpt>
      <trkpt lat="49.81563" lon="4.84951">
        <ele>219</ele>
        <time>2022-06-17T15:34:54.000Z</time>
      </trkpt>
      <trkpt lat="49.81561" lon="4.84956">
        <ele>219</ele>
        <time>2022-06-17T15:34:55.000Z</time>
      </trkpt>
      <trkpt lat="49.81559" lon="4.84961">
        <ele>219</ele>
        <time>2022-06-17T15:34:56.000Z</time>
      </trkpt>
      <trkpt lat="49.81557" lon="4.84966">
        <ele>219</ele>
        <time>2022-06-17T15:34:57.000Z</time>
      </trkpt>
      <trkpt lat="49.81555" lon="4.84972">
        <ele>219</ele>
        <time>2022-06-17T15:34:58.000Z</time>
      </trkpt>
      <trkpt lat="49.81553" lon="4.84977">
        <ele>219</ele>
        <time>2022-06-17T15:34:59.000Z</time>
      </trkpt>
      <trkpt lat="49.8155" lon="4.84982">
        <ele>219</ele>
        <time>2022-06-17T15:35:00.000Z</time>
      </trkpt>
      <trkpt lat="49.81547" lon="4.84985">
        <ele>219</ele>
        <time>2022-06-17T15:35:01.000Z</time>
      </trkpt>
      <trkpt lat="49.81544" lon="4.84989">
        <ele>219</ele>
        <time>2022-06-17T15:35:02.000Z</time>
      </trkpt>
      <trkpt lat="49.81541" lon="4.84992">
        <ele>220</ele>
        <time>2022-06-17T15:35:03.000Z</time>
      </trkpt>
      <trkpt lat="49.81538" lon="4.84993">
        <ele>220</ele>
        <time>2022-06-17T15:35:04.000Z</time>
      </trkpt>
      <trkpt lat="49.81535" lon="4.84993">
        <ele>220</ele>
        <time>2022-06-17T15:35:05.000Z</time>
      </trkpt>
      <trkpt lat="49.81532" lon="4.84992">
        <ele>220</ele>
        <time>2022-06-17T15:35:06.000Z</time>
      </trkpt>
      <trkpt lat="49.81529" lon="4.84991">
        <ele>221</ele>
        <time>2022-06-17T15:35:07.000Z</time>
      </trkpt>
      <trkpt lat="49.81527" lon="4.84988">
        <ele>221</ele>
        <time>2022-06-17T15:35:08.000Z</time>
      </trkpt>
      <trkpt lat="49.81526" lon="4.84984">
        <ele>221</ele>
        <time>2022-06-17T15:35:09.000Z</time>
      </trkpt>
      <trkpt lat="49.81526" lon="4.8498">
        <ele>221</ele>
        <time>2022-06-17T15:35:10.000Z</time>
      </trkpt>
      <trkpt lat="49.81527" lon="4.84976">
        <ele>221</ele>
        <time>2022-06-17T15:35:11.000Z</time>
      </trkpt>
      <trkpt lat="49.81528" lon="4.84971">
        <ele>222</ele>
        <time>2022-06-17T15:35:12.000Z</time>
      </trkpt>
      <trkpt lat="49.8153" lon="4.84965">
        <ele>222</ele>
        <time>2022-06-17T15:35:13.000Z</time>
      </trkpt>
      <trkpt lat="49.81532" lon="4.84959">
        <ele>222</ele>
        <time>2022-06-17T15:35:14.000Z</time>
      </trkpt>
      <trkpt lat="49.81533" lon="4.84953">
        <ele>222</ele>
        <time>2022-06-17T15:35:15.000Z</time>
      </trkpt>
      <trkpt lat="49.81535" lon="4.84948">
        <ele>222</ele>
        <time>2022-06-17T15:35:16.000Z</time>
      </trkpt>
      <trkpt lat="49.81536" lon="4.84942">
        <ele>222</ele>
        <time>2022-06-17T15:35:17.000Z</time>
      </trkpt>
      <trkpt lat="49.81538" lon="4.84936">
        <ele>222</ele>
        <time>2022-06-17T15:35:18.000Z</time>
      </trkpt>
      <trkpt lat="49.81539" lon="4.8493">
        <ele>222</ele>
        <time>2022-06-17T15:35:19.000Z</time>
      </trkpt>
      <trkpt lat="49.8154" lon="4.84923">
        <ele>223</ele>
        <time>2022-06-17T15:35:20.000Z</time>
      </trkpt>
      <trkpt lat="49.81541" lon="4.84917">
        <ele>223</ele>
        <time>2022-06-17T15:35:21.000Z</time>
      </trkpt>
      <trkpt lat="49.81541" lon="4.84911">
        <ele>223</ele>
        <time>2022-06-17T15:35:22.000Z</time>
      </trkpt>
      <trkpt lat="49.81542" lon="4.84906">
        <ele>223</ele>
        <time>2022-06-17T15:35:23.000Z</time>
      </trkpt>
      <trkpt lat="49.81541" lon="4.849">
        <ele>223</ele>
        <time>2022-06-17T15:35:24.000Z</time>
      </trkpt>
      <trkpt lat="49.81541" lon="4.84894">
        <ele>223</ele>
        <time>2022-06-17T15:35:25.000Z</time>
      </trkpt>
      <trkpt lat="49.8154" lon="4.84889">
        <ele>224</ele>
        <time>2022-06-17T15:35:26.000Z</time>
      </trkpt>
      <trkpt lat="49.81539" lon="4.84883">
        <ele>224</ele>
        <time>2022-06-17T15:35:27.000Z</time>
      </trkpt>
      <trkpt lat="49.81538" lon="4.84877">
        <ele>224</ele>
        <time>2022-06-17T15:35:28.000Z</time>
      </trkpt>
      <trkpt lat="49.81537" lon="4.84871">
        <ele>224</ele>
        <time>2022-06-17T15:35:29.000Z</time>
      </trkpt>
      <trkpt lat="49.81536" lon="4.84866">
        <ele>224</ele>
        <time>2022-06-17T15:35:30.000Z</time>
      </trkpt>
      <trkpt lat="49.81535" lon="4.8486">
        <ele>224</ele>
        <time>2022-06-17T15:35:31.000Z</time>
      </trkpt>
      <trkpt lat="49.81533" lon="4.84855">
        <ele>224</ele>
        <time>2022-06-17T15:35:32.000Z</time>
      </trkpt>
      <trkpt lat="49.81532" lon="4.84849">
        <ele>224</ele>
        <time>2022-06-17T15:35:33.000Z</time>
      </trkpt>
      <trkpt lat="49.81531" lon="4.84843">
        <ele>224</ele>
        <time>2022-06-17T15:35:34.000Z</time>
      </trkpt>
      <trkpt lat="49.8153" lon="4.84837">
        <ele>224</ele>
        <time>2022-06-17T15:35:35.000Z</time>
      </trkpt>
      <trkpt lat="49.81528" lon="4.84831">
        <ele>224</ele>
        <time>2022-06-17T15:35:36.000Z</time>
      </trkpt>
      <trkpt lat="49.81527" lon="4.84824">
        <ele>224</ele>
        <time>2022-06-17T15:35:37.000Z</time>
      </trkpt>
      <trkpt lat="49.81526" lon="4.84817">
        <ele>224</ele>
        <time>2022-06-17T15:35:38.000Z</time>
      </trkpt>
      <trkpt lat="49.81524" lon="4.8481">
        <ele>224</ele>
        <time>2022-06-17T15:35:39.000Z</time>
      </trkpt>
      <trkpt lat="49.81523" lon="4.84804">
        <ele>224</ele>
        <time>2022-06-17T15:35:40.000Z</time>
      </trkpt>
      <trkpt lat="49.81522" lon="4.84797">
        <ele>224</ele>
        <time>2022-06-17T15:35:41.000Z</time>
      </trkpt>
      <trkpt lat="49.8152" lon="4.8479">
        <ele>224</ele>
        <time>2022-06-17T15:35:42.000Z</time>
      </trkpt>
      <trkpt lat="49.81517" lon="4.84783">
        <ele>224</ele>
        <time>2022-06-17T15:35:43.000Z</time>
      </trkpt>
      <trkpt lat="49.81515" lon="4.84775">
        <ele>224</ele>
        <time>2022-06-17T15:35:44.000Z</time>
      </trkpt>
      <trkpt lat="49.81513" lon="4.84767">
        <ele>224</ele>
        <time>2022-06-17T15:35:45.000Z</time>
      </trkpt>
      <trkpt lat="49.81512" lon="4.84759">
        <ele>224</ele>
        <time>2022-06-17T15:35:46.000Z</time>
      </trkpt>
      <trkpt lat="49.8151" lon="4.84751">
        <ele>224</ele>
        <time>2022-06-17T15:35:47.000Z</time>
      </trkpt>
      <trkpt lat="49.81509" lon="4.84743">
        <ele>224</ele>
        <time>2022-06-17T15:35:48.000Z</time>
      </trkpt>
      <trkpt lat="49.81508" lon="4.84734">
        <ele>224</ele>
        <time>2022-06-17T15:35:49.000Z</time>
      </trkpt>
      <trkpt lat="49.81506" lon="4.84725">
        <ele>224</ele>
        <time>2022-06-17T15:35:50.000Z</time>
      </trkpt>
      <trkpt lat="49.81504" lon="4.84717">
        <ele>224</ele>
        <time>2022-06-17T15:35:51.000Z</time>
      </trkpt>
      <trkpt lat="49.81503" lon="4.84708">
        <ele>224</ele>
        <time>2022-06-17T15:35:52.000Z</time>
      </trkpt>
      <trkpt lat="49.815" lon="4.847">
        <ele>224</ele>
        <time>2022-06-17T15:35:53.000Z</time>
      </trkpt>
      <trkpt lat="49.81498" lon="4.84691">
        <ele>224</ele>
        <time>2022-06-17T15:35:54.000Z</time>
      </trkpt>
      <trkpt lat="49.81496" lon="4.84683">
        <ele>225</ele>
        <time>2022-06-17T15:35:55.000Z</time>
      </trkpt>
      <trkpt lat="49.81494" lon="4.84676">
        <ele>225</ele>
        <time>2022-06-17T15:35:56.000Z</time>
      </trkpt>
      <trkpt lat="49.81492" lon="4.84668">
        <ele>225</ele>
        <time>2022-06-17T15:35:57.000Z</time>
      </trkpt>
      <trkpt lat="49.81489" lon="4.84661">
        <ele>225</ele>
        <time>2022-06-17T15:35:58.000Z</time>
      </trkpt>
      <trkpt lat="49.81486" lon="4.84655">
        <ele>225</ele>
        <time>2022-06-17T15:35:59.000Z</time>
      </trkpt>
      <trkpt lat="49.81483" lon="4.8465">
        <ele>225</ele>
        <time>2022-06-17T15:36:00.000Z</time>
      </trkpt>
      <trkpt lat="49.81479" lon="4.84646">
        <ele>225</ele>
        <time>2022-06-17T15:36:01.000Z</time>
      </trkpt>
      <trkpt lat="49.81475" lon="4.84642">
        <ele>225</ele>
        <time>2022-06-17T15:36:02.000Z</time>
      </trkpt>
      <trkpt lat="49.81471" lon="4.84639">
        <ele>225</ele>
        <time>2022-06-17T15:36:03.000Z</time>
      </trkpt>
      <trkpt lat="49.81467" lon="4.84636">
        <ele>225</ele>
        <time>2022-06-17T15:36:04.000Z</time>
      </trkpt>
      <trkpt lat="49.81465" lon="4.84635">
        <ele>225</ele>
        <time>2022-06-17T15:36:05.000Z</time>
      </trkpt>
      <trkpt lat="49.81462" lon="4.84633">
        <ele>225</ele>
        <time>2022-06-17T15:36:06.000Z</time>
      </trkpt>
      <trkpt lat="49.81461" lon="4.84629">
        <ele>225</ele>
        <time>2022-06-17T15:36:07.000Z</time>
      </trkpt>
      <trkpt lat="49.8146" lon="4.84624">
        <ele>225</ele>
        <time>2022-06-17T15:36:08.000Z</time>
      </trkpt>
      <trkpt lat="49.8146" lon="4.84617">
        <ele>226</ele>
        <time>2022-06-17T15:36:09.000Z</time>
      </trkpt>
      <trkpt lat="49.8146" lon="4.8461">
        <ele>226</ele>
        <time>2022-06-17T15:36:10.000Z</time>
      </trkpt>
      <trkpt lat="49.81461" lon="4.84602">
        <ele>226</ele>
        <time>2022-06-17T15:36:11.000Z</time>
      </trkpt>
      <trkpt lat="49.81462" lon="4.84593">
        <ele>226</ele>
        <time>2022-06-17T15:36:12.000Z</time>
      </trkpt>
      <trkpt lat="49.81463" lon="4.84584">
        <ele>226</ele>
        <time>2022-06-17T15:36:13.000Z</time>
      </trkpt>
      <trkpt lat="49.81463" lon="4.84575">
        <ele>226</ele>
        <time>2022-06-17T15:36:14.000Z</time>
      </trkpt>
      <trkpt lat="49.81463" lon="4.84566">
        <ele>226</ele>
        <time>2022-06-17T15:36:15.000Z</time>
      </trkpt>
      <trkpt lat="49.81463" lon="4.84555">
        <ele>226</ele>
        <time>2022-06-17T15:36:16.000Z</time>
      </trkpt>
      <trkpt lat="49.81463" lon="4.84544">
        <ele>225</ele>
        <time>2022-06-17T15:36:17.000Z</time>
      </trkpt>
      <trkpt lat="49.81462" lon="4.84533">
        <ele>225</ele>
        <time>2022-06-17T15:36:18.000Z</time>
      </trkpt>
      <trkpt lat="49.81462" lon="4.8452">
        <ele>224</ele>
        <time>2022-06-17T15:36:19.000Z</time>
      </trkpt>
      <trkpt lat="49.81462" lon="4.84507">
        <ele>224</ele>
        <time>2022-06-17T15:36:20.000Z</time>
      </trkpt>
      <trkpt lat="49.81461" lon="4.84494">
        <ele>223</ele>
        <time>2022-06-17T15:36:21.000Z</time>
      </trkpt>
      <trkpt lat="49.81461" lon="4.84481">
        <ele>223</ele>
        <time>2022-06-17T15:36:22.000Z</time>
      </trkpt>
      <trkpt lat="49.81461" lon="4.84468">
        <ele>222</ele>
        <time>2022-06-17T15:36:23.000Z</time>
      </trkpt>
      <trkpt lat="49.81461" lon="4.84456">
        <ele>222</ele>
        <time>2022-06-17T15:36:24.000Z</time>
      </trkpt>
      <trkpt lat="49.8146" lon="4.84445">
        <ele>221</ele>
        <time>2022-06-17T15:36:25.000Z</time>
      </trkpt>
      <trkpt lat="49.81461" lon="4.84437">
        <ele>221</ele>
        <time>2022-06-17T15:36:26.000Z</time>
      </trkpt>
      <trkpt lat="49.81462" lon="4.8443">
        <ele>220</ele>
        <time>2022-06-17T15:36:27.000Z</time>
      </trkpt>
      <trkpt lat="49.81464" lon="4.84424">
        <ele>220</ele>
        <time>2022-06-17T15:36:28.000Z</time>
      </trkpt>
      <trkpt lat="49.81467" lon="4.8442">
        <ele>219</ele>
        <time>2022-06-17T15:36:29.000Z</time>
      </trkpt>
      <trkpt lat="49.81469" lon="4.84415">
        <ele>219</ele>
        <time>2022-06-17T15:36:30.000Z</time>
      </trkpt>
      <trkpt lat="49.81471" lon="4.8441">
        <ele>219</ele>
        <time>2022-06-17T15:36:31.000Z</time>
      </trkpt>
      <trkpt lat="49.81473" lon="4.84404">
        <ele>218</ele>
        <time>2022-06-17T15:36:32.000Z</time>
      </trkpt>
      <trkpt lat="49.81473" lon="4.84398">
        <ele>218</ele>
        <time>2022-06-17T15:36:33.000Z</time>
      </trkpt>
      <trkpt lat="49.81473" lon="4.84392">
        <ele>218</ele>
        <time>2022-06-17T15:36:34.000Z</time>
      </trkpt>
      <trkpt lat="49.81473" lon="4.84386">
        <ele>218</ele>
        <time>2022-06-17T15:36:35.000Z</time>
      </trkpt>
      <trkpt lat="49.81473" lon="4.84379">
        <ele>218</ele>
        <time>2022-06-17T15:36:36.000Z</time>
      </trkpt>
      <trkpt lat="49.81473" lon="4.84372">
        <ele>217</ele>
        <time>2022-06-17T15:36:37.000Z</time>
      </trkpt>
      <trkpt lat="49.81473" lon="4.84365">
        <ele>217</ele>
        <time>2022-06-17T15:36:38.000Z</time>
      </trkpt>
      <trkpt lat="49.81474" lon="4.84357">
        <ele>217</ele>
        <time>2022-06-17T15:36:39.000Z</time>
      </trkpt>
      <trkpt lat="49.81475" lon="4.8435">
        <ele>217</ele>
        <time>2022-06-17T15:36:40.000Z</time>
      </trkpt>
      <trkpt lat="49.81477" lon="4.84342">
        <ele>217</ele>
        <time>2022-06-17T15:36:41.000Z</time>
      </trkpt>
      <trkpt lat="49.81479" lon="4.84335">
        <ele>217</ele>
        <time>2022-06-17T15:36:42.000Z</time>
      </trkpt>
      <trkpt lat="49.81481" lon="4.84328">
        <ele>217</ele>
        <time>2022-06-17T15:36:43.000Z</time>
      </trkpt>
      <trkpt lat="49.81483" lon="4.8432">
        <ele>217</ele>
        <time>2022-06-17T15:36:44.000Z</time>
      </trkpt>
      <trkpt lat="49.81485" lon="4.84312">
        <ele>217</ele>
        <time>2022-06-17T15:36:45.000Z</time>
      </trkpt>
      <trkpt lat="49.81488" lon="4.84304">
        <ele>217</ele>
        <time>2022-06-17T15:36:46.000Z</time>
      </trkpt>
      <trkpt lat="49.8149" lon="4.84296">
        <ele>217</ele>
        <time>2022-06-17T15:36:47.000Z</time>
      </trkpt>
      <trkpt lat="49.81492" lon="4.84287">
        <ele>217</ele>
        <time>2022-06-17T15:36:48.000Z</time>
      </trkpt>
      <trkpt lat="49.81494" lon="4.84279">
        <ele>217</ele>
        <time>2022-06-17T15:36:49.000Z</time>
      </trkpt>
      <trkpt lat="49.81496" lon="4.84272">
        <ele>217</ele>
        <time>2022-06-17T15:36:50.000Z</time>
      </trkpt>
      <trkpt lat="49.81497" lon="4.84265">
        <ele>218</ele>
        <time>2022-06-17T15:36:51.000Z</time>
      </trkpt>
      <trkpt lat="49.81498" lon="4.84258">
        <ele>218</ele>
        <time>2022-06-17T15:36:52.000Z</time>
      </trkpt>
      <trkpt lat="49.81498" lon="4.84251">
        <ele>218</ele>
        <time>2022-06-17T15:36:53.000Z</time>
      </trkpt>
      <trkpt lat="49.81499" lon="4.84245">
        <ele>218</ele>
        <time>2022-06-17T15:36:54.000Z</time>
      </trkpt>
      <trkpt lat="49.81499" lon="4.84241">
        <ele>218</ele>
        <time>2022-06-17T15:36:55.000Z</time>
      </trkpt>
      <trkpt lat="49.81499" lon="4.84237">
        <ele>218</ele>
        <time>2022-06-17T15:36:56.000Z</time>
      </trkpt>
      <trkpt lat="49.81498" lon="4.84233">
        <ele>218</ele>
        <time>2022-06-17T15:36:57.000Z</time>
      </trkpt>
      <trkpt lat="49.81496" lon="4.84229">
        <ele>218</ele>
        <time>2022-06-17T15:36:58.000Z</time>
      </trkpt>
      <trkpt lat="49.81496" lon="4.84225">
        <ele>218</ele>
        <time>2022-06-17T15:36:59.000Z</time>
      </trkpt>
      <trkpt lat="49.81496" lon="4.8422">
        <ele>218</ele>
        <time>2022-06-17T15:37:00.000Z</time>
      </trkpt>
      <trkpt lat="49.81495" lon="4.84214">
        <ele>219</ele>
        <time>2022-06-17T15:37:01.000Z</time>
      </trkpt>
      <trkpt lat="49.81495" lon="4.84208">
        <ele>219</ele>
        <time>2022-06-17T15:37:02.000Z</time>
      </trkpt>
      <trkpt lat="49.81495" lon="4.84201">
        <ele>219</ele>
        <time>2022-06-17T15:37:03.000Z</time>
      </trkpt>
      <trkpt lat="49.81494" lon="4.84195">
        <ele>219</ele>
        <time>2022-06-17T15:37:04.000Z</time>
      </trkpt>
      <trkpt lat="49.81494" lon="4.84189">
        <ele>219</ele>
        <time>2022-06-17T15:37:05.000Z</time>
      </trkpt>
      <trkpt lat="49.81494" lon="4.84183">
        <ele>220</ele>
        <time>2022-06-17T15:37:06.000Z</time>
      </trkpt>
      <trkpt lat="49.81495" lon="4.84177">
        <ele>220</ele>
        <time>2022-06-17T15:37:07.000Z</time>
      </trkpt>
      <trkpt lat="49.81496" lon="4.84171">
        <ele>220</ele>
        <time>2022-06-17T15:37:08.000Z</time>
      </trkpt>
      <trkpt lat="49.81498" lon="4.84165">
        <ele>220</ele>
        <time>2022-06-17T15:37:09.000Z</time>
      </trkpt>
      <trkpt lat="49.81501" lon="4.8416">
        <ele>220</ele>
        <time>2022-06-17T15:37:10.000Z</time>
      </trkpt>
      <trkpt lat="49.81504" lon="4.84154">
        <ele>220</ele>
        <time>2022-06-17T15:37:11.000Z</time>
      </trkpt>
      <trkpt lat="49.81506" lon="4.84148">
        <ele>220</ele>
        <time>2022-06-17T15:37:12.000Z</time>
      </trkpt>
      <trkpt lat="49.81508" lon="4.84141">
        <ele>221</ele>
        <time>2022-06-17T15:37:13.000Z</time>
      </trkpt>
      <trkpt lat="49.8151" lon="4.84132">
        <ele>221</ele>
        <time>2022-06-17T15:37:14.000Z</time>
      </trkpt>
      <trkpt lat="49.8151" lon="4.84123">
        <ele>221</ele>
        <time>2022-06-17T15:37:15.000Z</time>
      </trkpt>
      <trkpt lat="49.81511" lon="4.84114">
        <ele>221</ele>
        <time>2022-06-17T15:37:16.000Z</time>
      </trkpt>
      <trkpt lat="49.81511" lon="4.84105">
        <ele>221</ele>
        <time>2022-06-17T15:37:17.000Z</time>
      </trkpt>
      <trkpt lat="49.81511" lon="4.84097">
        <ele>221</ele>
        <time>2022-06-17T15:37:18.000Z</time>
      </trkpt>
      <trkpt lat="49.8151" lon="4.84088">
        <ele>221</ele>
        <time>2022-06-17T15:37:19.000Z</time>
      </trkpt>
      <trkpt lat="49.8151" lon="4.84081">
        <ele>221</ele>
        <time>2022-06-17T15:37:20.000Z</time>
      </trkpt>
      <trkpt lat="49.8151" lon="4.84075">
        <ele>221</ele>
        <time>2022-06-17T15:37:21.000Z</time>
      </trkpt>
      <trkpt lat="49.8151" lon="4.84069">
        <ele>222</ele>
        <time>2022-06-17T15:37:22.000Z</time>
      </trkpt>
      <trkpt lat="49.81509" lon="4.84063">
        <ele>222</ele>
        <time>2022-06-17T15:37:23.000Z</time>
      </trkpt>
      <trkpt lat="49.81508" lon="4.84055">
        <ele>222</ele>
        <time>2022-06-17T15:37:24.000Z</time>
      </trkpt>
      <trkpt lat="49.81507" lon="4.84047">
        <ele>222</ele>
        <time>2022-06-17T15:37:25.000Z</time>
      </trkpt>
      <trkpt lat="49.81505" lon="4.84039">
        <ele>222</ele>
        <time>2022-06-17T15:37:26.000Z</time>
      </trkpt>
      <trkpt lat="49.81503" lon="4.8403">
        <ele>222</ele>
        <time>2022-06-17T15:37:27.000Z</time>
      </trkpt>
      <trkpt lat="49.81502" lon="4.84022">
        <ele>222</ele>
        <time>2022-06-17T15:37:28.000Z</time>
      </trkpt>
      <trkpt lat="49.81502" lon="4.84013">
        <ele>222</ele>
        <time>2022-06-17T15:37:29.000Z</time>
      </trkpt>
      <trkpt lat="49.81501" lon="4.84005">
        <ele>222</ele>
        <time>2022-06-17T15:37:30.000Z</time>
      </trkpt>
      <trkpt lat="49.81501" lon="4.83997">
        <ele>222</ele>
        <time>2022-06-17T15:37:31.000Z</time>
      </trkpt>
      <trkpt lat="49.81499" lon="4.83988">
        <ele>223</ele>
        <time>2022-06-17T15:37:32.000Z</time>
      </trkpt>
      <trkpt lat="49.81496" lon="4.8398">
        <ele>223</ele>
        <time>2022-06-17T15:37:33.000Z</time>
      </trkpt>
      <trkpt lat="49.81495" lon="4.83971">
        <ele>223</ele>
        <time>2022-06-17T15:37:34.000Z</time>
      </trkpt>
      <trkpt lat="49.81493" lon="4.83963">
        <ele>223</ele>
        <time>2022-06-17T15:37:35.000Z</time>
      </trkpt>
      <trkpt lat="49.81492" lon="4.83955">
        <ele>223</ele>
        <time>2022-06-17T15:37:36.000Z</time>
      </trkpt>
      <trkpt lat="49.81491" lon="4.83947">
        <ele>223</ele>
        <time>2022-06-17T15:37:37.000Z</time>
      </trkpt>
      <trkpt lat="49.8149" lon="4.83939">
        <ele>224</ele>
        <time>2022-06-17T15:37:38.000Z</time>
      </trkpt>
      <trkpt lat="49.81489" lon="4.8393">
        <ele>224</ele>
        <time>2022-06-17T15:37:39.000Z</time>
      </trkpt>
      <trkpt lat="49.81488" lon="4.83922">
        <ele>224</ele>
        <time>2022-06-17T15:37:40.000Z</time>
      </trkpt>
      <trkpt lat="49.81486" lon="4.83914">
        <ele>224</ele>
        <time>2022-06-17T15:37:41.000Z</time>
      </trkpt>
      <trkpt lat="49.81485" lon="4.83905">
        <ele>224</ele>
        <time>2022-06-17T15:37:42.000Z</time>
      </trkpt>
      <trkpt lat="49.81484" lon="4.83896">
        <ele>224</ele>
        <time>2022-06-17T15:37:43.000Z</time>
      </trkpt>
      <trkpt lat="49.81483" lon="4.83887">
        <ele>224</ele>
        <time>2022-06-17T15:37:44.000Z</time>
      </trkpt>
      <trkpt lat="49.81482" lon="4.8388">
        <ele>224</ele>
        <time>2022-06-17T15:37:45.000Z</time>
      </trkpt>
      <trkpt lat="49.81481" lon="4.83874">
        <ele>223</ele>
        <time>2022-06-17T15:37:46.000Z</time>
      </trkpt>
      <trkpt lat="49.81479" lon="4.8387">
        <ele>223</ele>
        <time>2022-06-17T15:37:47.000Z</time>
      </trkpt>
      <trkpt lat="49.81477" lon="4.83867">
        <ele>223</ele>
        <time>2022-06-17T15:37:48.000Z</time>
      </trkpt>
      <trkpt lat="49.81474" lon="4.83864">
        <ele>223</ele>
        <time>2022-06-17T15:37:49.000Z</time>
      </trkpt>
      <trkpt lat="49.81472" lon="4.83862">
        <ele>222</ele>
        <time>2022-06-17T15:37:50.000Z</time>
      </trkpt>
      <trkpt lat="49.8147" lon="4.83861">
        <ele>222</ele>
        <time>2022-06-17T15:37:51.000Z</time>
      </trkpt>
      <trkpt lat="49.81468" lon="4.8386">
        <ele>222</ele>
        <time>2022-06-17T15:37:52.000Z</time>
      </trkpt>
      <trkpt lat="49.81467" lon="4.8386">
        <ele>222</ele>
        <time>2022-06-17T15:37:53.000Z</time>
      </trkpt>
      <trkpt lat="49.81465" lon="4.8386">
        <ele>222</ele>
        <time>2022-06-17T15:37:54.000Z</time>
      </trkpt>
      <trkpt lat="49.81463" lon="4.8386">
        <ele>221</ele>
        <time>2022-06-17T15:37:55.000Z</time>
      </trkpt>
      <trkpt lat="49.81461" lon="4.8386">
        <ele>221</ele>
        <time>2022-06-17T15:37:56.000Z</time>
      </trkpt>
      <trkpt lat="49.81459" lon="4.8386">
        <ele>221</ele>
        <time>2022-06-17T15:37:57.000Z</time>
      </trkpt>
      <trkpt lat="49.81456" lon="4.83861">
        <ele>221</ele>
        <time>2022-06-17T15:37:58.000Z</time>
      </trkpt>
      <trkpt lat="49.81454" lon="4.83861">
        <ele>221</ele>
        <time>2022-06-17T15:37:59.000Z</time>
      </trkpt>
      <trkpt lat="49.81452" lon="4.83862">
        <ele>221</ele>
        <time>2022-06-17T15:38:00.000Z</time>
      </trkpt>
      <trkpt lat="49.8145" lon="4.83861">
        <ele>221</ele>
        <time>2022-06-17T15:38:01.000Z</time>
      </trkpt>
      <trkpt lat="49.81448" lon="4.83861">
        <ele>221</ele>
        <time>2022-06-17T15:38:02.000Z</time>
      </trkpt>
      <trkpt lat="49.81446" lon="4.83861">
        <ele>221</ele>
        <time>2022-06-17T15:38:03.000Z</time>
      </trkpt>
      <trkpt lat="49.81444" lon="4.8386">
        <ele>221</ele>
        <time>2022-06-17T15:38:04.000Z</time>
      </trkpt>
      <trkpt lat="49.81443" lon="4.83859">
        <ele>221</ele>
        <time>2022-06-17T15:38:05.000Z</time>
      </trkpt>
      <trkpt lat="49.8144" lon="4.83858">
        <ele>221</ele>
        <time>2022-06-17T15:38:06.000Z</time>
      </trkpt>
      <trkpt lat="49.81438" lon="4.83856">
        <ele>221</ele>
        <time>2022-06-17T15:38:07.000Z</time>
      </trkpt>
      <trkpt lat="49.81437" lon="4.83855">
        <ele>222</ele>
        <time>2022-06-17T15:38:08.000Z</time>
      </trkpt>
      <trkpt lat="49.81435" lon="4.83853">
        <ele>222</ele>
        <time>2022-06-17T15:38:09.000Z</time>
      </trkpt>
      <trkpt lat="49.81433" lon="4.83851">
        <ele>222</ele>
        <time>2022-06-17T15:38:10.000Z</time>
      </trkpt>
      <trkpt lat="49.81431" lon="4.83849">
        <ele>222</ele>
        <time>2022-06-17T15:38:11.000Z</time>
      </trkpt>
      <trkpt lat="49.81428" lon="4.83848">
        <ele>222</ele>
        <time>2022-06-17T15:38:12.000Z</time>
      </trkpt>
      <trkpt lat="49.81426" lon="4.83846">
        <ele>222</ele>
        <time>2022-06-17T15:38:13.000Z</time>
      </trkpt>
      <trkpt lat="49.81424" lon="4.83846">
        <ele>222</ele>
        <time>2022-06-17T15:38:14.000Z</time>
      </trkpt>
      <trkpt lat="49.81422" lon="4.83845">
        <ele>222</ele>
        <time>2022-06-17T15:38:15.000Z</time>
      </trkpt>
      <trkpt lat="49.8142" lon="4.83845">
        <ele>222</ele>
        <time>2022-06-17T15:38:16.000Z</time>
      </trkpt>
      <trkpt lat="49.81417" lon="4.83845">
        <ele>222</ele>
        <time>2022-06-17T15:38:17.000Z</time>
      </trkpt>
      <trkpt lat="49.81415" lon="4.83844">
        <ele>222</ele>
        <time>2022-06-17T15:38:18.000Z</time>
      </trkpt>
      <trkpt lat="49.81412" lon="4.83844">
        <ele>222</ele>
        <time>2022-06-17T15:38:19.000Z</time>
      </trkpt>
      <trkpt lat="49.81409" lon="4.83845">
        <ele>222</ele>
        <time>2022-06-17T15:38:20.000Z</time>
      </trkpt>
      <trkpt lat="49.81407" lon="4.83845">
        <ele>222</ele>
        <time>2022-06-17T15:38:21.000Z</time>
      </trkpt>
      <trkpt lat="49.81405" lon="4.83845">
        <ele>222</ele>
        <time>2022-06-17T15:38:22.000Z</time>
      </trkpt>
      <trkpt lat="49.81404" lon="4.83846">
        <ele>222</ele>
        <time>2022-06-17T15:38:23.000Z</time>
      </trkpt>
      <trkpt lat="49.81401" lon="4.83847">
        <ele>223</ele>
        <time>2022-06-17T15:38:24.000Z</time>
      </trkpt>
      <trkpt lat="49.81399" lon="4.83847">
        <ele>223</ele>
        <time>2022-06-17T15:38:25.000Z</time>
      </trkpt>
      <trkpt lat="49.81397" lon="4.83847">
        <ele>223</ele>
        <time>2022-06-17T15:38:26.000Z</time>
      </trkpt>
      <trkpt lat="49.81394" lon="4.83846">
        <ele>223</ele>
        <time>2022-06-17T15:38:27.000Z</time>
      </trkpt>
      <trkpt lat="49.81392" lon="4.83846">
        <ele>223</ele>
        <time>2022-06-17T15:38:28.000Z</time>
      </trkpt>
      <trkpt lat="49.81389" lon="4.83846">
        <ele>223</ele>
        <time>2022-06-17T15:38:29.000Z</time>
      </trkpt>
      <trkpt lat="49.81386" lon="4.83846">
        <ele>223</ele>
        <time>2022-06-17T15:38:30.000Z</time>
      </trkpt>
      <trkpt lat="49.81383" lon="4.83845">
        <ele>223</ele>
        <time>2022-06-17T15:38:31.000Z</time>
      </trkpt>
      <trkpt lat="49.8138" lon="4.83845">
        <ele>223</ele>
        <time>2022-06-17T15:38:32.000Z</time>
      </trkpt>
      <trkpt lat="49.81378" lon="4.83844">
        <ele>223</ele>
        <time>2022-06-17T15:38:33.000Z</time>
      </trkpt>
      <trkpt lat="49.81376" lon="4.83844">
        <ele>224</ele>
        <time>2022-06-17T15:38:34.000Z</time>
      </trkpt>
      <trkpt lat="49.81374" lon="4.83843">
        <ele>224</ele>
        <time>2022-06-17T15:38:35.000Z</time>
      </trkpt>
      <trkpt lat="49.81373" lon="4.83843">
        <ele>224</ele>
        <time>2022-06-17T15:38:36.000Z</time>
      </trkpt>
      <trkpt lat="49.81371" lon="4.83843">
        <ele>224</ele>
        <time>2022-06-17T15:38:37.000Z</time>
      </trkpt>
      <trkpt lat="49.8137" lon="4.83843">
        <ele>224</ele>
        <time>2022-06-17T15:38:38.000Z</time>
      </trkpt>
      <trkpt lat="49.81368" lon="4.83844">
        <ele>224</ele>
        <time>2022-06-17T15:38:39.000Z</time>
      </trkpt>
      <trkpt lat="49.81365" lon="4.83845">
        <ele>225</ele>
        <time>2022-06-17T15:38:40.000Z</time>
      </trkpt>
      <trkpt lat="49.81361" lon="4.83847">
        <ele>225</ele>
        <time>2022-06-17T15:38:41.000Z</time>
      </trkpt>
      <trkpt lat="49.81357" lon="4.83847">
        <ele>225</ele>
        <time>2022-06-17T15:38:42.000Z</time>
      </trkpt>
      <trkpt lat="49.81353" lon="4.83846">
        <ele>225</ele>
        <time>2022-06-17T15:38:43.000Z</time>
      </trkpt>
      <trkpt lat="49.81349" lon="4.83844">
        <ele>226</ele>
        <time>2022-06-17T15:38:44.000Z</time>
      </trkpt>
      <trkpt lat="49.81344" lon="4.83844">
        <ele>226</ele>
        <time>2022-06-17T15:38:45.000Z</time>
      </trkpt>
      <trkpt lat="49.81338" lon="4.83844">
        <ele>226</ele>
        <time>2022-06-17T15:38:46.000Z</time>
      </trkpt>
      <trkpt lat="49.81334" lon="4.83846">
        <ele>226</ele>
        <time>2022-06-17T15:38:47.000Z</time>
      </trkpt>
      <trkpt lat="49.8133" lon="4.83848">
        <ele>226</ele>
        <time>2022-06-17T15:38:48.000Z</time>
      </trkpt>
      <trkpt lat="49.81326" lon="4.83852">
        <ele>226</ele>
        <time>2022-06-17T15:38:49.000Z</time>
      </trkpt>
      <trkpt lat="49.81322" lon="4.83855">
        <ele>226</ele>
        <time>2022-06-17T15:38:50.000Z</time>
      </trkpt>
      <trkpt lat="49.81319" lon="4.83857">
        <ele>227</ele>
        <time>2022-06-17T15:38:51.000Z</time>
      </trkpt>
      <trkpt lat="49.81316" lon="4.8386">
        <ele>227</ele>
        <time>2022-06-17T15:38:52.000Z</time>
      </trkpt>
      <trkpt lat="49.81314" lon="4.83862">
        <ele>227</ele>
        <time>2022-06-17T15:38:53.000Z</time>
      </trkpt>
      <trkpt lat="49.81312" lon="4.83864">
        <ele>227</ele>
        <time>2022-06-17T15:38:54.000Z</time>
      </trkpt>
      <trkpt lat="49.81309" lon="4.83867">
        <ele>227</ele>
        <time>2022-06-17T15:38:55.000Z</time>
      </trkpt>
      <trkpt lat="49.81307" lon="4.83868">
        <ele>227</ele>
        <time>2022-06-17T15:38:56.000Z</time>
      </trkpt>
      <trkpt lat="49.81305" lon="4.83868">
        <ele>227</ele>
        <time>2022-06-17T15:38:57.000Z</time>
      </trkpt>
      <trkpt lat="49.81303" lon="4.83869">
        <ele>228</ele>
        <time>2022-06-17T15:38:58.000Z</time>
      </trkpt>
      <trkpt lat="49.813" lon="4.8387">
        <ele>228</ele>
        <time>2022-06-17T15:38:59.000Z</time>
      </trkpt>
      <trkpt lat="49.81298" lon="4.83871">
        <ele>228</ele>
        <time>2022-06-17T15:39:00.000Z</time>
      </trkpt>
      <trkpt lat="49.81296" lon="4.83871">
        <ele>228</ele>
        <time>2022-06-17T15:39:01.000Z</time>
      </trkpt>
      <trkpt lat="49.81294" lon="4.83872">
        <ele>228</ele>
        <time>2022-06-17T15:39:02.000Z</time>
      </trkpt>
      <trkpt lat="49.81292" lon="4.83873">
        <ele>228</ele>
        <time>2022-06-17T15:39:03.000Z</time>
      </trkpt>
      <trkpt lat="49.81289" lon="4.83874">
        <ele>229</ele>
        <time>2022-06-17T15:39:04.000Z</time>
      </trkpt>
      <trkpt lat="49.81287" lon="4.83875">
        <ele>229</ele>
        <time>2022-06-17T15:39:05.000Z</time>
      </trkpt>
      <trkpt lat="49.81284" lon="4.83875">
        <ele>229</ele>
        <time>2022-06-17T15:39:06.000Z</time>
      </trkpt>
      <trkpt lat="49.81281" lon="4.83876">
        <ele>229</ele>
        <time>2022-06-17T15:39:07.000Z</time>
      </trkpt>
      <trkpt lat="49.81278" lon="4.83876">
        <ele>229</ele>
        <time>2022-06-17T15:39:08.000Z</time>
      </trkpt>
      <trkpt lat="49.81276" lon="4.83877">
        <ele>229</ele>
        <time>2022-06-17T15:39:09.000Z</time>
      </trkpt>
      <trkpt lat="49.81273" lon="4.83878">
        <ele>230</ele>
        <time>2022-06-17T15:39:10.000Z</time>
      </trkpt>
      <trkpt lat="49.81269" lon="4.83879">
        <ele>230</ele>
        <time>2022-06-17T15:39:11.000Z</time>
      </trkpt>
      <trkpt lat="49.81265" lon="4.83881">
        <ele>230</ele>
        <time>2022-06-17T15:39:12.000Z</time>
      </trkpt>
      <trkpt lat="49.81262" lon="4.83882">
        <ele>230</ele>
        <time>2022-06-17T15:39:13.000Z</time>
      </trkpt>
      <trkpt lat="49.81257" lon="4.83883">
        <ele>230</ele>
        <time>2022-06-17T15:39:14.000Z</time>
      </trkpt>
      <trkpt lat="49.81253" lon="4.83883">
        <ele>230</ele>
        <time>2022-06-17T15:39:15.000Z</time>
      </trkpt>
      <trkpt lat="49.81248" lon="4.83884">
        <ele>230</ele>
        <time>2022-06-17T15:39:16.000Z</time>
      </trkpt>
      <trkpt lat="49.81244" lon="4.83885">
        <ele>230</ele>
        <time>2022-06-17T15:39:17.000Z</time>
      </trkpt>
      <trkpt lat="49.81239" lon="4.83886">
        <ele>230</ele>
        <time>2022-06-17T15:39:18.000Z</time>
      </trkpt>
      <trkpt lat="49.81236" lon="4.83886">
        <ele>230</ele>
        <time>2022-06-17T15:39:19.000Z</time>
      </trkpt>
      <trkpt lat="49.81231" lon="4.83886">
        <ele>230</ele>
        <time>2022-06-17T15:39:20.000Z</time>
      </trkpt>
      <trkpt lat="49.81226" lon="4.83887">
        <ele>230</ele>
        <time>2022-06-17T15:39:21.000Z</time>
      </trkpt>
      <trkpt lat="49.81222" lon="4.83888">
        <ele>230</ele>
        <time>2022-06-17T15:39:22.000Z</time>
      </trkpt>
      <trkpt lat="49.81217" lon="4.83888">
        <ele>230</ele>
        <time>2022-06-17T15:39:23.000Z</time>
      </trkpt>
      <trkpt lat="49.81212" lon="4.83889">
        <ele>230</ele>
        <time>2022-06-17T15:39:24.000Z</time>
      </trkpt>
      <trkpt lat="49.81208" lon="4.83889">
        <ele>230</ele>
        <time>2022-06-17T15:39:25.000Z</time>
      </trkpt>
      <trkpt lat="49.81204" lon="4.8389">
        <ele>230</ele>
        <time>2022-06-17T15:39:26.000Z</time>
      </trkpt>
      <trkpt lat="49.812" lon="4.8389">
        <ele>230</ele>
        <time>2022-06-17T15:39:27.000Z</time>
      </trkpt>
      <trkpt lat="49.81196" lon="4.83891">
        <ele>230</ele>
        <time>2022-06-17T15:39:28.000Z</time>
      </trkpt>
      <trkpt lat="49.81193" lon="4.83891">
        <ele>230</ele>
        <time>2022-06-17T15:39:29.000Z</time>
      </trkpt>
      <trkpt lat="49.81189" lon="4.83892">
        <ele>230</ele>
        <time>2022-06-17T15:39:30.000Z</time>
      </trkpt>
      <trkpt lat="49.81186" lon="4.83892">
        <ele>230</ele>
        <time>2022-06-17T15:39:31.000Z</time>
      </trkpt>
      <trkpt lat="49.81182" lon="4.83893">
        <ele>230</ele>
        <time>2022-06-17T15:39:32.000Z</time>
      </trkpt>
      <trkpt lat="49.81178" lon="4.83895">
        <ele>230</ele>
        <time>2022-06-17T15:39:33.000Z</time>
      </trkpt>
      <trkpt lat="49.81175" lon="4.83897">
        <ele>230</ele>
        <time>2022-06-17T15:39:34.000Z</time>
      </trkpt>
      <trkpt lat="49.81171" lon="4.83898">
        <ele>230</ele>
        <time>2022-06-17T15:39:35.000Z</time>
      </trkpt>
      <trkpt lat="49.81167" lon="4.83898">
        <ele>230</ele>
        <time>2022-06-17T15:39:36.000Z</time>
      </trkpt>
      <trkpt lat="49.81162" lon="4.83899">
        <ele>230</ele>
        <time>2022-06-17T15:39:37.000Z</time>
      </trkpt>
      <trkpt lat="49.81158" lon="4.83901">
        <ele>230</ele>
        <time>2022-06-17T15:39:38.000Z</time>
      </trkpt>
      <trkpt lat="49.81154" lon="4.83903">
        <ele>230</ele>
        <time>2022-06-17T15:39:39.000Z</time>
      </trkpt>
      <trkpt lat="49.8115" lon="4.83904">
        <ele>231</ele>
        <time>2022-06-17T15:39:40.000Z</time>
      </trkpt>
      <trkpt lat="49.81146" lon="4.83904">
        <ele>231</ele>
        <time>2022-06-17T15:39:41.000Z</time>
      </trkpt>
      <trkpt lat="49.81142" lon="4.83904">
        <ele>231</ele>
        <time>2022-06-17T15:39:42.000Z</time>
      </trkpt>
      <trkpt lat="49.81138" lon="4.83904">
        <ele>231</ele>
        <time>2022-06-17T15:39:43.000Z</time>
      </trkpt>
      <trkpt lat="49.81134" lon="4.83904">
        <ele>231</ele>
        <time>2022-06-17T15:39:44.000Z</time>
      </trkpt>
      <trkpt lat="49.81131" lon="4.83903">
        <ele>231</ele>
        <time>2022-06-17T15:39:45.000Z</time>
      </trkpt>
      <trkpt lat="49.81127" lon="4.83901">
        <ele>231</ele>
        <time>2022-06-17T15:39:46.000Z</time>
      </trkpt>
      <trkpt lat="49.81123" lon="4.839">
        <ele>231</ele>
        <time>2022-06-17T15:39:47.000Z</time>
      </trkpt>
      <trkpt lat="49.81119" lon="4.83899">
        <ele>231</ele>
        <time>2022-06-17T15:39:48.000Z</time>
      </trkpt>
      <trkpt lat="49.81115" lon="4.83898">
        <ele>231</ele>
        <time>2022-06-17T15:39:49.000Z</time>
      </trkpt>
      <trkpt lat="49.81111" lon="4.83897">
        <ele>231</ele>
        <time>2022-06-17T15:39:50.000Z</time>
      </trkpt>
      <trkpt lat="49.81106" lon="4.83896">
        <ele>231</ele>
        <time>2022-06-17T15:39:51.000Z</time>
      </trkpt>
      <trkpt lat="49.811" lon="4.83894">
        <ele>231</ele>
        <time>2022-06-17T15:39:52.000Z</time>
      </trkpt>
      <trkpt lat="49.81095" lon="4.83893">
        <ele>230</ele>
        <time>2022-06-17T15:39:53.000Z</time>
      </trkpt>
      <trkpt lat="49.81089" lon="4.83892">
        <ele>230</ele>
        <time>2022-06-17T15:39:54.000Z</time>
      </trkpt>
      <trkpt lat="49.81085" lon="4.83892">
        <ele>230</ele>
        <time>2022-06-17T15:39:55.000Z</time>
      </trkpt>
      <trkpt lat="49.81079" lon="4.83891">
        <ele>230</ele>
        <time>2022-06-17T15:39:56.000Z</time>
      </trkpt>
      <trkpt lat="49.81074" lon="4.8389">
        <ele>230</ele>
        <time>2022-06-17T15:39:57.000Z</time>
      </trkpt>
      <trkpt lat="49.81069" lon="4.8389">
        <ele>230</ele>
        <time>2022-06-17T15:39:58.000Z</time>
      </trkpt>
      <trkpt lat="49.81064" lon="4.8389">
        <ele>230</ele>
        <time>2022-06-17T15:39:59.000Z</time>
      </trkpt>
      <trkpt lat="49.81059" lon="4.8389">
        <ele>230</ele>
        <time>2022-06-17T15:40:00.000Z</time>
      </trkpt>
      <trkpt lat="49.81054" lon="4.8389">
        <ele>230</ele>
        <time>2022-06-17T15:40:01.000Z</time>
      </trkpt>
      <trkpt lat="49.8105" lon="4.8389">
        <ele>230</ele>
        <time>2022-06-17T15:40:02.000Z</time>
      </trkpt>
      <trkpt lat="49.81046" lon="4.8389">
        <ele>230</ele>
        <time>2022-06-17T15:40:03.000Z</time>
      </trkpt>
      <trkpt lat="49.81041" lon="4.8389">
        <ele>230</ele>
        <time>2022-06-17T15:40:04.000Z</time>
      </trkpt>
      <trkpt lat="49.81037" lon="4.83891">
        <ele>230</ele>
        <time>2022-06-17T15:40:05.000Z</time>
      </trkpt>
      <trkpt lat="49.81033" lon="4.83891">
        <ele>229</ele>
        <time>2022-06-17T15:40:06.000Z</time>
      </trkpt>
      <trkpt lat="49.81029" lon="4.83891">
        <ele>229</ele>
        <time>2022-06-17T15:40:07.000Z</time>
      </trkpt>
      <trkpt lat="49.81026" lon="4.83892">
        <ele>229</ele>
        <time>2022-06-17T15:40:08.000Z</time>
      </trkpt>
      <trkpt lat="49.81022" lon="4.83891">
        <ele>229</ele>
        <time>2022-06-17T15:40:09.000Z</time>
      </trkpt>
      <trkpt lat="49.81019" lon="4.83892">
        <ele>229</ele>
        <time>2022-06-17T15:40:10.000Z</time>
      </trkpt>
      <trkpt lat="49.81015" lon="4.83892">
        <ele>229</ele>
        <time>2022-06-17T15:40:11.000Z</time>
      </trkpt>
      <trkpt lat="49.8101" lon="4.83893">
        <ele>229</ele>
        <time>2022-06-17T15:40:12.000Z</time>
      </trkpt>
      <trkpt lat="49.81005" lon="4.83892">
        <ele>229</ele>
        <time>2022-06-17T15:40:13.000Z</time>
      </trkpt>
      <trkpt lat="49.81" lon="4.83892">
        <ele>228</ele>
        <time>2022-06-17T15:40:14.000Z</time>
      </trkpt>
      <trkpt lat="49.80994" lon="4.83892">
        <ele>228</ele>
        <time>2022-06-17T15:40:15.000Z</time>
      </trkpt>
      <trkpt lat="49.80988" lon="4.83891">
        <ele>228</ele>
        <time>2022-06-17T15:40:16.000Z</time>
      </trkpt>
      <trkpt lat="49.80983" lon="4.83891">
        <ele>228</ele>
        <time>2022-06-17T15:40:17.000Z</time>
      </trkpt>
      <trkpt lat="49.80978" lon="4.8389">
        <ele>228</ele>
        <time>2022-06-17T15:40:18.000Z</time>
      </trkpt>
      <trkpt lat="49.80972" lon="4.83889">
        <ele>228</ele>
        <time>2022-06-17T15:40:19.000Z</time>
      </trkpt>
      <trkpt lat="49.80968" lon="4.83889">
        <ele>228</ele>
        <time>2022-06-17T15:40:20.000Z</time>
      </trkpt>
      <trkpt lat="49.80962" lon="4.83888">
        <ele>228</ele>
        <time>2022-06-17T15:40:21.000Z</time>
      </trkpt>
      <trkpt lat="49.80956" lon="4.83888">
        <ele>228</ele>
        <time>2022-06-17T15:40:22.000Z</time>
      </trkpt>
      <trkpt lat="49.80951" lon="4.83888">
        <ele>228</ele>
        <time>2022-06-17T15:40:23.000Z</time>
      </trkpt>
      <trkpt lat="49.80946" lon="4.83889">
        <ele>228</ele>
        <time>2022-06-17T15:40:24.000Z</time>
      </trkpt>
      <trkpt lat="49.8094" lon="4.83889">
        <ele>227</ele>
        <time>2022-06-17T15:40:25.000Z</time>
      </trkpt>
      <trkpt lat="49.80934" lon="4.83889">
        <ele>227</ele>
        <time>2022-06-17T15:40:26.000Z</time>
      </trkpt>
      <trkpt lat="49.80929" lon="4.83889">
        <ele>227</ele>
        <time>2022-06-17T15:40:27.000Z</time>
      </trkpt>
      <trkpt lat="49.80924" lon="4.83889">
        <ele>227</ele>
        <time>2022-06-17T15:40:28.000Z</time>
      </trkpt>
      <trkpt lat="49.80919" lon="4.8389">
        <ele>227</ele>
        <time>2022-06-17T15:40:29.000Z</time>
      </trkpt>
      <trkpt lat="49.80914" lon="4.8389">
        <ele>227</ele>
        <time>2022-06-17T15:40:30.000Z</time>
      </trkpt>
      <trkpt lat="49.8091" lon="4.8389">
        <ele>227</ele>
        <time>2022-06-17T15:40:31.000Z</time>
      </trkpt>
      <trkpt lat="49.80905" lon="4.83891">
        <ele>227</ele>
        <time>2022-06-17T15:40:32.000Z</time>
      </trkpt>
      <trkpt lat="49.809" lon="4.8389">
        <ele>227</ele>
        <time>2022-06-17T15:40:33.000Z</time>
      </trkpt>
      <trkpt lat="49.80895" lon="4.83891">
        <ele>227</ele>
        <time>2022-06-17T15:40:34.000Z</time>
      </trkpt>
      <trkpt lat="49.8089" lon="4.83891">
        <ele>227</ele>
        <time>2022-06-17T15:40:35.000Z</time>
      </trkpt>
      <trkpt lat="49.80884" lon="4.83892">
        <ele>227</ele>
        <time>2022-06-17T15:40:36.000Z</time>
      </trkpt>
      <trkpt lat="49.8088" lon="4.83892">
        <ele>228</ele>
        <time>2022-06-17T15:40:37.000Z</time>
      </trkpt>
      <trkpt lat="49.80876" lon="4.83893">
        <ele>228</ele>
        <time>2022-06-17T15:40:38.000Z</time>
      </trkpt>
      <trkpt lat="49.80871" lon="4.83894">
        <ele>228</ele>
        <time>2022-06-17T15:40:39.000Z</time>
      </trkpt>
      <trkpt lat="49.80866" lon="4.83895">
        <ele>228</ele>
        <time>2022-06-17T15:40:40.000Z</time>
      </trkpt>
      <trkpt lat="49.80861" lon="4.83896">
        <ele>227</ele>
        <time>2022-06-17T15:40:41.000Z</time>
      </trkpt>
      <trkpt lat="49.80855" lon="4.83896">
        <ele>227</ele>
        <time>2022-06-17T15:40:42.000Z</time>
      </trkpt>
      <trkpt lat="49.8085" lon="4.83897">
        <ele>227</ele>
        <time>2022-06-17T15:40:43.000Z</time>
      </trkpt>
      <trkpt lat="49.80845" lon="4.83897">
        <ele>227</ele>
        <time>2022-06-17T15:40:44.000Z</time>
      </trkpt>
      <trkpt lat="49.8084" lon="4.83897">
        <ele>227</ele>
        <time>2022-06-17T15:40:45.000Z</time>
      </trkpt>
      <trkpt lat="49.80835" lon="4.83897">
        <ele>227</ele>
        <time>2022-06-17T15:40:46.000Z</time>
      </trkpt>
      <trkpt lat="49.8083" lon="4.83897">
        <ele>227</ele>
        <time>2022-06-17T15:40:47.000Z</time>
      </trkpt>
      <trkpt lat="49.80826" lon="4.83896">
        <ele>227</ele>
        <time>2022-06-17T15:40:48.000Z</time>
      </trkpt>
      <trkpt lat="49.80822" lon="4.83895">
        <ele>227</ele>
        <time>2022-06-17T15:40:49.000Z</time>
      </trkpt>
      <trkpt lat="49.80817" lon="4.83896">
        <ele>227</ele>
        <time>2022-06-17T15:40:50.000Z</time>
      </trkpt>
      <trkpt lat="49.80812" lon="4.83897">
        <ele>227</ele>
        <time>2022-06-17T15:40:51.000Z</time>
      </trkpt>
      <trkpt lat="49.80808" lon="4.83898">
        <ele>227</ele>
        <time>2022-06-17T15:40:52.000Z</time>
      </trkpt>
      <trkpt lat="49.80803" lon="4.83899">
        <ele>226</ele>
        <time>2022-06-17T15:40:53.000Z</time>
      </trkpt>
      <trkpt lat="49.80798" lon="4.839">
        <ele>226</ele>
        <time>2022-06-17T15:40:54.000Z</time>
      </trkpt>
      <trkpt lat="49.80793" lon="4.83901">
        <ele>226</ele>
        <time>2022-06-17T15:40:55.000Z</time>
      </trkpt>
      <trkpt lat="49.80788" lon="4.83902">
        <ele>226</ele>
        <time>2022-06-17T15:40:56.000Z</time>
      </trkpt>
      <trkpt lat="49.80784" lon="4.83904">
        <ele>225</ele>
        <time>2022-06-17T15:40:57.000Z</time>
      </trkpt>
      <trkpt lat="49.80779" lon="4.83906">
        <ele>225</ele>
        <time>2022-06-17T15:40:58.000Z</time>
      </trkpt>
      <trkpt lat="49.80775" lon="4.83907">
        <ele>225</ele>
        <time>2022-06-17T15:40:59.000Z</time>
      </trkpt>
      <trkpt lat="49.8077" lon="4.83908">
        <ele>225</ele>
        <time>2022-06-17T15:41:00.000Z</time>
      </trkpt>
      <trkpt lat="49.80765" lon="4.83908">
        <ele>225</ele>
        <time>2022-06-17T15:41:01.000Z</time>
      </trkpt>
      <trkpt lat="49.80761" lon="4.83909">
        <ele>225</ele>
        <time>2022-06-17T15:41:02.000Z</time>
      </trkpt>
      <trkpt lat="49.80757" lon="4.8391">
        <ele>225</ele>
        <time>2022-06-17T15:41:03.000Z</time>
      </trkpt>
      <trkpt lat="49.80752" lon="4.8391">
        <ele>224</ele>
        <time>2022-06-17T15:41:04.000Z</time>
      </trkpt>
      <trkpt lat="49.80748" lon="4.8391">
        <ele>224</ele>
        <time>2022-06-17T15:41:05.000Z</time>
      </trkpt>
      <trkpt lat="49.80744" lon="4.83911">
        <ele>224</ele>
        <time>2022-06-17T15:41:06.000Z</time>
      </trkpt>
      <trkpt lat="49.80739" lon="4.83913">
        <ele>224</ele>
        <time>2022-06-17T15:41:07.000Z</time>
      </trkpt>
      <trkpt lat="49.80736" lon="4.83913">
        <ele>224</ele>
        <time>2022-06-17T15:41:08.000Z</time>
      </trkpt>
      <trkpt lat="49.80732" lon="4.83913">
        <ele>224</ele>
        <time>2022-06-17T15:41:09.000Z</time>
      </trkpt>
      <trkpt lat="49.80729" lon="4.83914">
        <ele>224</ele>
        <time>2022-06-17T15:41:10.000Z</time>
      </trkpt>
      <trkpt lat="49.80725" lon="4.83915">
        <ele>224</ele>
        <time>2022-06-17T15:41:11.000Z</time>
      </trkpt>
      <trkpt lat="49.80721" lon="4.83916">
        <ele>224</ele>
        <time>2022-06-17T15:41:12.000Z</time>
      </trkpt>
      <trkpt lat="49.80717" lon="4.83917">
        <ele>224</ele>
        <time>2022-06-17T15:41:13.000Z</time>
      </trkpt>
      <trkpt lat="49.80712" lon="4.83917">
        <ele>223</ele>
        <time>2022-06-17T15:41:14.000Z</time>
      </trkpt>
      <trkpt lat="49.80708" lon="4.83918">
        <ele>223</ele>
        <time>2022-06-17T15:41:15.000Z</time>
      </trkpt>
      <trkpt lat="49.80703" lon="4.83919">
        <ele>223</ele>
        <time>2022-06-17T15:41:16.000Z</time>
      </trkpt>
      <trkpt lat="49.807" lon="4.8392">
        <ele>223</ele>
        <time>2022-06-17T15:41:17.000Z</time>
      </trkpt>
      <trkpt lat="49.80696" lon="4.83923">
        <ele>223</ele>
        <time>2022-06-17T15:41:18.000Z</time>
      </trkpt>
      <trkpt lat="49.80692" lon="4.83925">
        <ele>223</ele>
        <time>2022-06-17T15:41:19.000Z</time>
      </trkpt>
      <trkpt lat="49.80688" lon="4.83927">
        <ele>223</ele>
        <time>2022-06-17T15:41:20.000Z</time>
      </trkpt>
      <trkpt lat="49.80685" lon="4.83929">
        <ele>223</ele>
        <time>2022-06-17T15:41:21.000Z</time>
      </trkpt>
      <trkpt lat="49.80682" lon="4.83931">
        <ele>223</ele>
        <time>2022-06-17T15:41:22.000Z</time>
      </trkpt>
      <trkpt lat="49.8068" lon="4.83931">
        <ele>224</ele>
        <time>2022-06-17T15:41:23.000Z</time>
      </trkpt>
      <trkpt lat="49.80679" lon="4.83931">
        <ele>224</ele>
        <time>2022-06-17T15:41:24.000Z</time>
      </trkpt>
      <trkpt lat="49.80677" lon="4.8393">
        <ele>224</ele>
        <time>2022-06-17T15:41:25.000Z</time>
      </trkpt>
      <trkpt lat="49.80675" lon="4.83929">
        <ele>224</ele>
        <time>2022-06-17T15:41:26.000Z</time>
      </trkpt>
      <trkpt lat="49.80672" lon="4.83928">
        <ele>224</ele>
        <time>2022-06-17T15:41:27.000Z</time>
      </trkpt>
      <trkpt lat="49.80669" lon="4.83929">
        <ele>224</ele>
        <time>2022-06-17T15:41:28.000Z</time>
      </trkpt>
      <trkpt lat="49.80666" lon="4.83931">
        <ele>224</ele>
        <time>2022-06-17T15:41:29.000Z</time>
      </trkpt>
      <trkpt lat="49.80663" lon="4.83934">
        <ele>224</ele>
        <time>2022-06-17T15:41:30.000Z</time>
      </trkpt>
      <trkpt lat="49.80659" lon="4.83937">
        <ele>224</ele>
        <time>2022-06-17T15:41:31.000Z</time>
      </trkpt>
      <trkpt lat="49.80654" lon="4.8394">
        <ele>224</ele>
        <time>2022-06-17T15:41:32.000Z</time>
      </trkpt>
      <trkpt lat="49.8065" lon="4.83941">
        <ele>224</ele>
        <time>2022-06-17T15:41:33.000Z</time>
      </trkpt>
      <trkpt lat="49.80645" lon="4.83943">
        <ele>224</ele>
        <time>2022-06-17T15:41:34.000Z</time>
      </trkpt>
      <trkpt lat="49.8064" lon="4.83944">
        <ele>224</ele>
        <time>2022-06-17T15:41:35.000Z</time>
      </trkpt>
      <trkpt lat="49.80635" lon="4.83946">
        <ele>224</ele>
        <time>2022-06-17T15:41:36.000Z</time>
      </trkpt>
      <trkpt lat="49.80631" lon="4.83947">
        <ele>225</ele>
        <time>2022-06-17T15:41:37.000Z</time>
      </trkpt>
      <trkpt lat="49.80627" lon="4.83947">
        <ele>225</ele>
        <time>2022-06-17T15:41:38.000Z</time>
      </trkpt>
      <trkpt lat="49.80622" lon="4.83948">
        <ele>224</ele>
        <time>2022-06-17T15:41:39.000Z</time>
      </trkpt>
      <trkpt lat="49.80618" lon="4.8395">
        <ele>224</ele>
        <time>2022-06-17T15:41:40.000Z</time>
      </trkpt>
      <trkpt lat="49.80613" lon="4.83951">
        <ele>224</ele>
        <time>2022-06-17T15:41:41.000Z</time>
      </trkpt>
      <trkpt lat="49.80608" lon="4.83951">
        <ele>224</ele>
        <time>2022-06-17T15:41:42.000Z</time>
      </trkpt>
      <trkpt lat="49.80604" lon="4.83952">
        <ele>224</ele>
        <time>2022-06-17T15:41:43.000Z</time>
      </trkpt>
      <trkpt lat="49.806" lon="4.83952">
        <ele>223</ele>
        <time>2022-06-17T15:41:44.000Z</time>
      </trkpt>
      <trkpt lat="49.80597" lon="4.83952">
        <ele>223</ele>
        <time>2022-06-17T15:41:45.000Z</time>
      </trkpt>
      <trkpt lat="49.80593" lon="4.83952">
        <ele>223</ele>
        <time>2022-06-17T15:41:46.000Z</time>
      </trkpt>
      <trkpt lat="49.80589" lon="4.83952">
        <ele>223</ele>
        <time>2022-06-17T15:41:47.000Z</time>
      </trkpt>
      <trkpt lat="49.80586" lon="4.83953">
        <ele>222</ele>
        <time>2022-06-17T15:41:48.000Z</time>
      </trkpt>
      <trkpt lat="49.80582" lon="4.83953">
        <ele>222</ele>
        <time>2022-06-17T15:41:49.000Z</time>
      </trkpt>
      <trkpt lat="49.80578" lon="4.83954">
        <ele>222</ele>
        <time>2022-06-17T15:41:50.000Z</time>
      </trkpt>
      <trkpt lat="49.80575" lon="4.83955">
        <ele>222</ele>
        <time>2022-06-17T15:41:51.000Z</time>
      </trkpt>
      <trkpt lat="49.80571" lon="4.83955">
        <ele>221</ele>
        <time>2022-06-17T15:41:52.000Z</time>
      </trkpt>
      <trkpt lat="49.80568" lon="4.83955">
        <ele>221</ele>
        <time>2022-06-17T15:41:53.000Z</time>
      </trkpt>
      <trkpt lat="49.80564" lon="4.83955">
        <ele>221</ele>
        <time>2022-06-17T15:41:54.000Z</time>
      </trkpt>
      <trkpt lat="49.80561" lon="4.83956">
        <ele>220</ele>
        <time>2022-06-17T15:41:55.000Z</time>
      </trkpt>
      <trkpt lat="49.80557" lon="4.83956">
        <ele>220</ele>
        <time>2022-06-17T15:41:56.000Z</time>
      </trkpt>
      <trkpt lat="49.80554" lon="4.83956">
        <ele>220</ele>
        <time>2022-06-17T15:41:57.000Z</time>
      </trkpt>
      <trkpt lat="49.8055" lon="4.83957">
        <ele>220</ele>
        <time>2022-06-17T15:41:58.000Z</time>
      </trkpt>
      <trkpt lat="49.80547" lon="4.83957">
        <ele>220</ele>
        <time>2022-06-17T15:41:59.000Z</time>
      </trkpt>
      <trkpt lat="49.80543" lon="4.83957">
        <ele>220</ele>
        <time>2022-06-17T15:42:00.000Z</time>
      </trkpt>
      <trkpt lat="49.8054" lon="4.83957">
        <ele>220</ele>
        <time>2022-06-17T15:42:01.000Z</time>
      </trkpt>
      <trkpt lat="49.80537" lon="4.83957">
        <ele>220</ele>
        <time>2022-06-17T15:42:02.000Z</time>
      </trkpt>
      <trkpt lat="49.80534" lon="4.83957">
        <ele>220</ele>
        <time>2022-06-17T15:42:03.000Z</time>
      </trkpt>
      <trkpt lat="49.80531" lon="4.83957">
        <ele>219</ele>
        <time>2022-06-17T15:42:04.000Z</time>
      </trkpt>
      <trkpt lat="49.80528" lon="4.83958">
        <ele>219</ele>
        <time>2022-06-17T15:42:05.000Z</time>
      </trkpt>
      <trkpt lat="49.80526" lon="4.83959">
        <ele>219</ele>
        <time>2022-06-17T15:42:06.000Z</time>
      </trkpt>
      <trkpt lat="49.80524" lon="4.83959">
        <ele>219</ele>
        <time>2022-06-17T15:42:07.000Z</time>
      </trkpt>
      <trkpt lat="49.80522" lon="4.83959">
        <ele>219</ele>
        <time>2022-06-17T15:42:08.000Z</time>
      </trkpt>
      <trkpt lat="49.8052" lon="4.83959">
        <ele>219</ele>
        <time>2022-06-17T15:42:09.000Z</time>
      </trkpt>
      <trkpt lat="49.80518" lon="4.83959">
        <ele>219</ele>
        <time>2022-06-17T15:42:10.000Z</time>
      </trkpt>
      <trkpt lat="49.80516" lon="4.83959">
        <ele>219</ele>
        <time>2022-06-17T15:42:11.000Z</time>
      </trkpt>
      <trkpt lat="49.80513" lon="4.83959">
        <ele>220</ele>
        <time>2022-06-17T15:42:12.000Z</time>
      </trkpt>
      <trkpt lat="49.80511" lon="4.83959">
        <ele>220</ele>
        <time>2022-06-17T15:42:13.000Z</time>
      </trkpt>
      <trkpt lat="49.80509" lon="4.83957">
        <ele>220</ele>
        <time>2022-06-17T15:42:14.000Z</time>
      </trkpt>
      <trkpt lat="49.80507" lon="4.83955">
        <ele>220</ele>
        <time>2022-06-17T15:42:15.000Z</time>
      </trkpt>
      <trkpt lat="49.80506" lon="4.83953">
        <ele>220</ele>
        <time>2022-06-17T15:42:16.000Z</time>
      </trkpt>
      <trkpt lat="49.80503" lon="4.8395">
        <ele>220</ele>
        <time>2022-06-17T15:42:17.000Z</time>
      </trkpt>
      <trkpt lat="49.80501" lon="4.83947">
        <ele>220</ele>
        <time>2022-06-17T15:42:18.000Z</time>
      </trkpt>
      <trkpt lat="49.80498" lon="4.83943">
        <ele>220</ele>
        <time>2022-06-17T15:42:19.000Z</time>
      </trkpt>
      <trkpt lat="49.80495" lon="4.8394">
        <ele>220</ele>
        <time>2022-06-17T15:42:20.000Z</time>
      </trkpt>
      <trkpt lat="49.80492" lon="4.83937">
        <ele>220</ele>
        <time>2022-06-17T15:42:21.000Z</time>
      </trkpt>
      <trkpt lat="49.80489" lon="4.83934">
        <ele>220</ele>
        <time>2022-06-17T15:42:22.000Z</time>
      </trkpt>
      <trkpt lat="49.80486" lon="4.83931">
        <ele>220</ele>
        <time>2022-06-17T15:42:23.000Z</time>
      </trkpt>
      <trkpt lat="49.80483" lon="4.83928">
        <ele>220</ele>
        <time>2022-06-17T15:42:24.000Z</time>
      </trkpt>
      <trkpt lat="49.8048" lon="4.83925">
        <ele>220</ele>
        <time>2022-06-17T15:42:25.000Z</time>
      </trkpt>
      <trkpt lat="49.80477" lon="4.83923">
        <ele>220</ele>
        <time>2022-06-17T15:42:26.000Z</time>
      </trkpt>
      <trkpt lat="49.80474" lon="4.83921">
        <ele>220</ele>
        <time>2022-06-17T15:42:27.000Z</time>
      </trkpt>
      <trkpt lat="49.80471" lon="4.83919">
        <ele>220</ele>
        <time>2022-06-17T15:42:28.000Z</time>
      </trkpt>
      <trkpt lat="49.80469" lon="4.83918">
        <ele>220</ele>
        <time>2022-06-17T15:42:29.000Z</time>
      </trkpt>
      <trkpt lat="49.80466" lon="4.83916">
        <ele>220</ele>
        <time>2022-06-17T15:42:30.000Z</time>
      </trkpt>
      <trkpt lat="49.80466" lon="4.83916">
        <ele>220</ele>
        <time>2022-06-17T15:42:31.000Z</time>
      </trkpt>
      <trkpt lat="49.80466" lon="4.83916">
        <ele>220</ele>
        <time>2022-06-17T15:42:32.000Z</time>
      </trkpt>
      <trkpt lat="49.80466" lon="4.83917">
        <ele>220</ele>
        <time>2022-06-17T15:42:33.000Z</time>
      </trkpt>
      <trkpt lat="49.80466" lon="4.83917">
        <ele>220</ele>
        <time>2022-06-17T15:42:34.000Z</time>
      </trkpt>
      <trkpt lat="49.80466" lon="4.83917">
        <ele>220</ele>
        <time>2022-06-17T15:42:35.000Z</time>
      </trkpt>
      <trkpt lat="49.80466" lon="4.83918">
        <ele>220</ele>
        <time>2022-06-17T15:42:36.000Z</time>
      </trkpt>
      <trkpt lat="49.80466" lon="4.83918">
        <ele>220</ele>
        <time>2022-06-17T15:42:37.000Z</time>
      </trkpt>
      <trkpt lat="49.80465" lon="4.83918">
        <ele>220</ele>
        <time>2022-06-17T15:42:38.000Z</time>
      </trkpt>
      <trkpt lat="49.80464" lon="4.83917">
        <ele>220</ele>
        <time>2022-06-17T15:42:39.000Z</time>
      </trkpt>
      <trkpt lat="49.80462" lon="4.83916">
        <ele>220</ele>
        <time>2022-06-17T15:42:40.000Z</time>
      </trkpt>
      <trkpt lat="49.8046" lon="4.83915">
        <ele>220</ele>
        <time>2022-06-17T15:42:41.000Z</time>
      </trkpt>
      <trkpt lat="49.80458" lon="4.83913">
        <ele>220</ele>
        <time>2022-06-17T15:42:42.000Z</time>
      </trkpt>
      <trkpt lat="49.80456" lon="4.83911">
        <ele>220</ele>
        <time>2022-06-17T15:42:43.000Z</time>
      </trkpt>
      <trkpt lat="49.80453" lon="4.8391">
        <ele>221</ele>
        <time>2022-06-17T15:42:44.000Z</time>
      </trkpt>
      <trkpt lat="49.80449" lon="4.83909">
        <ele>221</ele>
        <time>2022-06-17T15:42:45.000Z</time>
      </trkpt>
      <trkpt lat="49.80446" lon="4.83907">
        <ele>221</ele>
        <time>2022-06-17T15:42:46.000Z</time>
      </trkpt>
      <trkpt lat="49.80443" lon="4.83906">
        <ele>221</ele>
        <time>2022-06-17T15:42:47.000Z</time>
      </trkpt>
      <trkpt lat="49.80439" lon="4.83903">
        <ele>221</ele>
        <time>2022-06-17T15:42:48.000Z</time>
      </trkpt>
      <trkpt lat="49.80435" lon="4.83901">
        <ele>221</ele>
        <time>2022-06-17T15:42:49.000Z</time>
      </trkpt>
      <trkpt lat="49.80432" lon="4.83899">
        <ele>221</ele>
        <time>2022-06-17T15:42:50.000Z</time>
      </trkpt>
      <trkpt lat="49.80429" lon="4.83896">
        <ele>221</ele>
        <time>2022-06-17T15:42:51.000Z</time>
      </trkpt>
      <trkpt lat="49.80426" lon="4.83893">
        <ele>221</ele>
        <time>2022-06-17T15:42:52.000Z</time>
      </trkpt>
      <trkpt lat="49.80422" lon="4.8389">
        <ele>221</ele>
        <time>2022-06-17T15:42:53.000Z</time>
      </trkpt>
      <trkpt lat="49.80418" lon="4.83887">
        <ele>221</ele>
        <time>2022-06-17T15:42:54.000Z</time>
      </trkpt>
      <trkpt lat="49.80415" lon="4.83884">
        <ele>221</ele>
        <time>2022-06-17T15:42:55.000Z</time>
      </trkpt>
      <trkpt lat="49.80412" lon="4.83878">
        <ele>221</ele>
        <time>2022-06-17T15:42:56.000Z</time>
      </trkpt>
      <trkpt lat="49.80408" lon="4.83872">
        <ele>221</ele>
        <time>2022-06-17T15:42:57.000Z</time>
      </trkpt>
      <trkpt lat="49.80404" lon="4.83868">
        <ele>221</ele>
        <time>2022-06-17T15:42:58.000Z</time>
      </trkpt>
      <trkpt lat="49.804" lon="4.83865">
        <ele>221</ele>
        <time>2022-06-17T15:42:59.000Z</time>
      </trkpt>
      <trkpt lat="49.80395" lon="4.83864">
        <ele>220</ele>
        <time>2022-06-17T15:43:00.000Z</time>
      </trkpt>
      <trkpt lat="49.8039" lon="4.83863">
        <ele>220</ele>
        <time>2022-06-17T15:43:01.000Z</time>
      </trkpt>
      <trkpt lat="49.80386" lon="4.83862">
        <ele>220</ele>
        <time>2022-06-17T15:43:02.000Z</time>
      </trkpt>
      <trkpt lat="49.80381" lon="4.83861">
        <ele>220</ele>
        <time>2022-06-17T15:43:03.000Z</time>
      </trkpt>
      <trkpt lat="49.80376" lon="4.8386">
        <ele>220</ele>
        <time>2022-06-17T15:43:04.000Z</time>
      </trkpt>
      <trkpt lat="49.80372" lon="4.83858">
        <ele>220</ele>
        <time>2022-06-17T15:43:05.000Z</time>
      </trkpt>
      <trkpt lat="49.80368" lon="4.83858">
        <ele>220</ele>
        <time>2022-06-17T15:43:06.000Z</time>
      </trkpt>
      <trkpt lat="49.80363" lon="4.83858">
        <ele>220</ele>
        <time>2022-06-17T15:43:07.000Z</time>
      </trkpt>
      <trkpt lat="49.80359" lon="4.83858">
        <ele>220</ele>
        <time>2022-06-17T15:43:08.000Z</time>
      </trkpt>
      <trkpt lat="49.80355" lon="4.83857">
        <ele>220</ele>
        <time>2022-06-17T15:43:09.000Z</time>
      </trkpt>
      <trkpt lat="49.80351" lon="4.83857">
        <ele>221</ele>
        <time>2022-06-17T15:43:10.000Z</time>
      </trkpt>
      <trkpt lat="49.80346" lon="4.83856">
        <ele>221</ele>
        <time>2022-06-17T15:43:11.000Z</time>
      </trkpt>
      <trkpt lat="49.80342" lon="4.83855">
        <ele>221</ele>
        <time>2022-06-17T15:43:12.000Z</time>
      </trkpt>
      <trkpt lat="49.80338" lon="4.83855">
        <ele>221</ele>
        <time>2022-06-17T15:43:13.000Z</time>
      </trkpt>
      <trkpt lat="49.80335" lon="4.83853">
        <ele>221</ele>
        <time>2022-06-17T15:43:14.000Z</time>
      </trkpt>
      <trkpt lat="49.80332" lon="4.83852">
        <ele>221</ele>
        <time>2022-06-17T15:43:15.000Z</time>
      </trkpt>
      <trkpt lat="49.80328" lon="4.83852">
        <ele>221</ele>
        <time>2022-06-17T15:43:16.000Z</time>
      </trkpt>
      <trkpt lat="49.80324" lon="4.83851">
        <ele>222</ele>
        <time>2022-06-17T15:43:17.000Z</time>
      </trkpt>
      <trkpt lat="49.8032" lon="4.83851">
        <ele>222</ele>
        <time>2022-06-17T15:43:18.000Z</time>
      </trkpt>
      <trkpt lat="49.80317" lon="4.83849">
        <ele>222</ele>
        <time>2022-06-17T15:43:19.000Z</time>
      </trkpt>
      <trkpt lat="49.80313" lon="4.83848">
        <ele>222</ele>
        <time>2022-06-17T15:43:20.000Z</time>
      </trkpt>
      <trkpt lat="49.80309" lon="4.83848">
        <ele>222</ele>
        <time>2022-06-17T15:43:21.000Z</time>
      </trkpt>
      <trkpt lat="49.80305" lon="4.83847">
        <ele>223</ele>
        <time>2022-06-17T15:43:22.000Z</time>
      </trkpt>
      <trkpt lat="49.80301" lon="4.83846">
        <ele>223</ele>
        <time>2022-06-17T15:43:23.000Z</time>
      </trkpt>
      <trkpt lat="49.80298" lon="4.83846">
        <ele>223</ele>
        <time>2022-06-17T15:43:24.000Z</time>
      </trkpt>
      <trkpt lat="49.80294" lon="4.83847">
        <ele>224</ele>
        <time>2022-06-17T15:43:25.000Z</time>
      </trkpt>
      <trkpt lat="49.80291" lon="4.83847">
        <ele>224</ele>
        <time>2022-06-17T15:43:26.000Z</time>
      </trkpt>
      <trkpt lat="49.80287" lon="4.83847">
        <ele>224</ele>
        <time>2022-06-17T15:43:27.000Z</time>
      </trkpt>
      <trkpt lat="49.80283" lon="4.83846">
        <ele>224</ele>
        <time>2022-06-17T15:43:28.000Z</time>
      </trkpt>
      <trkpt lat="49.80278" lon="4.83846">
        <ele>225</ele>
        <time>2022-06-17T15:43:29.000Z</time>
      </trkpt>
      <trkpt lat="49.80274" lon="4.83845">
        <ele>225</ele>
        <time>2022-06-17T15:43:30.000Z</time>
      </trkpt>
      <trkpt lat="49.80269" lon="4.83845">
        <ele>225</ele>
        <time>2022-06-17T15:43:31.000Z</time>
      </trkpt>
      <trkpt lat="49.80265" lon="4.83844">
        <ele>225</ele>
        <time>2022-06-17T15:43:32.000Z</time>
      </trkpt>
      <trkpt lat="49.8026" lon="4.83844">
        <ele>225</ele>
        <time>2022-06-17T15:43:33.000Z</time>
      </trkpt>
      <trkpt lat="49.80255" lon="4.83844">
        <ele>225</ele>
        <time>2022-06-17T15:43:34.000Z</time>
      </trkpt>
      <trkpt lat="49.80251" lon="4.83845">
        <ele>225</ele>
        <time>2022-06-17T15:43:35.000Z</time>
      </trkpt>
      <trkpt lat="49.80246" lon="4.83844">
        <ele>225</ele>
        <time>2022-06-17T15:43:36.000Z</time>
      </trkpt>
      <trkpt lat="49.80241" lon="4.83844">
        <ele>225</ele>
        <time>2022-06-17T15:43:37.000Z</time>
      </trkpt>
      <trkpt lat="49.80237" lon="4.83845">
        <ele>226</ele>
        <time>2022-06-17T15:43:38.000Z</time>
      </trkpt>
      <trkpt lat="49.80232" lon="4.83845">
        <ele>226</ele>
        <time>2022-06-17T15:43:39.000Z</time>
      </trkpt>
      <trkpt lat="49.80227" lon="4.83845">
        <ele>226</ele>
        <time>2022-06-17T15:43:40.000Z</time>
      </trkpt>
      <trkpt lat="49.80222" lon="4.83844">
        <ele>226</ele>
        <time>2022-06-17T15:43:41.000Z</time>
      </trkpt>
      <trkpt lat="49.80217" lon="4.83843">
        <ele>226</ele>
        <time>2022-06-17T15:43:42.000Z</time>
      </trkpt>
      <trkpt lat="49.80213" lon="4.83842">
        <ele>226</ele>
        <time>2022-06-17T15:43:43.000Z</time>
      </trkpt>
      <trkpt lat="49.80208" lon="4.83842">
        <ele>226</ele>
        <time>2022-06-17T15:43:44.000Z</time>
      </trkpt>
      <trkpt lat="49.80204" lon="4.83841">
        <ele>226</ele>
        <time>2022-06-17T15:43:45.000Z</time>
      </trkpt>
      <trkpt lat="49.80199" lon="4.8384">
        <ele>226</ele>
        <time>2022-06-17T15:43:46.000Z</time>
      </trkpt>
      <trkpt lat="49.80194" lon="4.83839">
        <ele>226</ele>
        <time>2022-06-17T15:43:47.000Z</time>
      </trkpt>
      <trkpt lat="49.8019" lon="4.83839">
        <ele>226</ele>
        <time>2022-06-17T15:43:48.000Z</time>
      </trkpt>
      <trkpt lat="49.80185" lon="4.83838">
        <ele>226</ele>
        <time>2022-06-17T15:43:49.000Z</time>
      </trkpt>
      <trkpt lat="49.8018" lon="4.83838">
        <ele>226</ele>
        <time>2022-06-17T15:43:50.000Z</time>
      </trkpt>
      <trkpt lat="49.80176" lon="4.83838">
        <ele>227</ele>
        <time>2022-06-17T15:43:51.000Z</time>
      </trkpt>
      <trkpt lat="49.80172" lon="4.83838">
        <ele>227</ele>
        <time>2022-06-17T15:43:52.000Z</time>
      </trkpt>
      <trkpt lat="49.80168" lon="4.83836">
        <ele>227</ele>
        <time>2022-06-17T15:43:53.000Z</time>
      </trkpt>
      <trkpt lat="49.80165" lon="4.83835">
        <ele>227</ele>
        <time>2022-06-17T15:43:54.000Z</time>
      </trkpt>
      <trkpt lat="49.80161" lon="4.83833">
        <ele>227</ele>
        <time>2022-06-17T15:43:55.000Z</time>
      </trkpt>
      <trkpt lat="49.80157" lon="4.83832">
        <ele>227</ele>
        <time>2022-06-17T15:43:56.000Z</time>
      </trkpt>
      <trkpt lat="49.80153" lon="4.83831">
        <ele>227</ele>
        <time>2022-06-17T15:43:57.000Z</time>
      </trkpt>
      <trkpt lat="49.80149" lon="4.8383">
        <ele>227</ele>
        <time>2022-06-17T15:43:58.000Z</time>
      </trkpt>
      <trkpt lat="49.80145" lon="4.8383">
        <ele>228</ele>
        <time>2022-06-17T15:43:59.000Z</time>
      </trkpt>
      <trkpt lat="49.80141" lon="4.83831">
        <ele>228</ele>
        <time>2022-06-17T15:44:00.000Z</time>
      </trkpt>
      <trkpt lat="49.80137" lon="4.8383">
        <ele>228</ele>
        <time>2022-06-17T15:44:01.000Z</time>
      </trkpt>
      <trkpt lat="49.80134" lon="4.83828">
        <ele>228</ele>
        <time>2022-06-17T15:44:02.000Z</time>
      </trkpt>
      <trkpt lat="49.8013" lon="4.83826">
        <ele>228</ele>
        <time>2022-06-17T15:44:03.000Z</time>
      </trkpt>
      <trkpt lat="49.80126" lon="4.83824">
        <ele>229</ele>
        <time>2022-06-17T15:44:04.000Z</time>
      </trkpt>
      <trkpt lat="49.80122" lon="4.83822">
        <ele>229</ele>
        <time>2022-06-17T15:44:05.000Z</time>
      </trkpt>
      <trkpt lat="49.80117" lon="4.8382">
        <ele>229</ele>
        <time>2022-06-17T15:44:06.000Z</time>
      </trkpt>
      <trkpt lat="49.80113" lon="4.83819">
        <ele>229</ele>
        <time>2022-06-17T15:44:07.000Z</time>
      </trkpt>
      <trkpt lat="49.80108" lon="4.83817">
        <ele>229</ele>
        <time>2022-06-17T15:44:08.000Z</time>
      </trkpt>
      <trkpt lat="49.80104" lon="4.83815">
        <ele>229</ele>
        <time>2022-06-17T15:44:09.000Z</time>
      </trkpt>
      <trkpt lat="49.801" lon="4.83814">
        <ele>229</ele>
        <time>2022-06-17T15:44:10.000Z</time>
      </trkpt>
      <trkpt lat="49.80094" lon="4.83812">
        <ele>230</ele>
        <time>2022-06-17T15:44:11.000Z</time>
      </trkpt>
      <trkpt lat="49.80088" lon="4.83811">
        <ele>230</ele>
        <time>2022-06-17T15:44:12.000Z</time>
      </trkpt>
      <trkpt lat="49.80083" lon="4.8381">
        <ele>230</ele>
        <time>2022-06-17T15:44:13.000Z</time>
      </trkpt>
      <trkpt lat="49.80078" lon="4.8381">
        <ele>230</ele>
        <time>2022-06-17T15:44:14.000Z</time>
      </trkpt>
      <trkpt lat="49.80073" lon="4.83808">
        <ele>230</ele>
        <time>2022-06-17T15:44:15.000Z</time>
      </trkpt>
      <trkpt lat="49.80069" lon="4.83806">
        <ele>230</ele>
        <time>2022-06-17T15:44:16.000Z</time>
      </trkpt>
      <trkpt lat="49.80065" lon="4.83806">
        <ele>230</ele>
        <time>2022-06-17T15:44:17.000Z</time>
      </trkpt>
      <trkpt lat="49.8006" lon="4.83806">
        <ele>231</ele>
        <time>2022-06-17T15:44:18.000Z</time>
      </trkpt>
      <trkpt lat="49.80054" lon="4.83806">
        <ele>231</ele>
        <time>2022-06-17T15:44:19.000Z</time>
      </trkpt>
      <trkpt lat="49.80049" lon="4.83805">
        <ele>231</ele>
        <time>2022-06-17T15:44:20.000Z</time>
      </trkpt>
      <trkpt lat="49.80045" lon="4.83804">
        <ele>231</ele>
        <time>2022-06-17T15:44:21.000Z</time>
      </trkpt>
      <trkpt lat="49.80041" lon="4.83803">
        <ele>231</ele>
        <time>2022-06-17T15:44:22.000Z</time>
      </trkpt>
      <trkpt lat="49.80036" lon="4.83802">
        <ele>232</ele>
        <time>2022-06-17T15:44:23.000Z</time>
      </trkpt>
      <trkpt lat="49.80032" lon="4.83801">
        <ele>232</ele>
        <time>2022-06-17T15:44:24.000Z</time>
      </trkpt>
      <trkpt lat="49.80028" lon="4.838">
        <ele>232</ele>
        <time>2022-06-17T15:44:25.000Z</time>
      </trkpt>
      <trkpt lat="49.80023" lon="4.838">
        <ele>232</ele>
        <time>2022-06-17T15:44:26.000Z</time>
      </trkpt>
      <trkpt lat="49.80019" lon="4.838">
        <ele>233</ele>
        <time>2022-06-17T15:44:27.000Z</time>
      </trkpt>
      <trkpt lat="49.80014" lon="4.83799">
        <ele>233</ele>
        <time>2022-06-17T15:44:28.000Z</time>
      </trkpt>
      <trkpt lat="49.80009" lon="4.83798">
        <ele>234</ele>
        <time>2022-06-17T15:44:29.000Z</time>
      </trkpt>
      <trkpt lat="49.80003" lon="4.83798">
        <ele>234</ele>
        <time>2022-06-17T15:44:30.000Z</time>
      </trkpt>
      <trkpt lat="49.79998" lon="4.83797">
        <ele>234</ele>
        <time>2022-06-17T15:44:31.000Z</time>
      </trkpt>
      <trkpt lat="49.79992" lon="4.83795">
        <ele>235</ele>
        <time>2022-06-17T15:44:32.000Z</time>
      </trkpt>
      <trkpt lat="49.79987" lon="4.83793">
        <ele>235</ele>
        <time>2022-06-17T15:44:33.000Z</time>
      </trkpt>
      <trkpt lat="49.79981" lon="4.83792">
        <ele>236</ele>
        <time>2022-06-17T15:44:34.000Z</time>
      </trkpt>
      <trkpt lat="49.79976" lon="4.83792">
        <ele>236</ele>
        <time>2022-06-17T15:44:35.000Z</time>
      </trkpt>
      <trkpt lat="49.7997" lon="4.83792">
        <ele>236</ele>
        <time>2022-06-17T15:44:36.000Z</time>
      </trkpt>
      <trkpt lat="49.79965" lon="4.83792">
        <ele>237</ele>
        <time>2022-06-17T15:44:37.000Z</time>
      </trkpt>
      <trkpt lat="49.79961" lon="4.83791">
        <ele>237</ele>
        <time>2022-06-17T15:44:38.000Z</time>
      </trkpt>
      <trkpt lat="49.79956" lon="4.83789">
        <ele>237</ele>
        <time>2022-06-17T15:44:39.000Z</time>
      </trkpt>
      <trkpt lat="49.79952" lon="4.83787">
        <ele>238</ele>
        <time>2022-06-17T15:44:40.000Z</time>
      </trkpt>
      <trkpt lat="49.79948" lon="4.83785">
        <ele>238</ele>
        <time>2022-06-17T15:44:41.000Z</time>
      </trkpt>
      <trkpt lat="49.79944" lon="4.83783">
        <ele>238</ele>
        <time>2022-06-17T15:44:42.000Z</time>
      </trkpt>
      <trkpt lat="49.7994" lon="4.83781">
        <ele>238</ele>
        <time>2022-06-17T15:44:43.000Z</time>
      </trkpt>
      <trkpt lat="49.79936" lon="4.83779">
        <ele>239</ele>
        <time>2022-06-17T15:44:44.000Z</time>
      </trkpt>
      <trkpt lat="49.79932" lon="4.83778">
        <ele>239</ele>
        <time>2022-06-17T15:44:45.000Z</time>
      </trkpt>
      <trkpt lat="49.79928" lon="4.83776">
        <ele>239</ele>
        <time>2022-06-17T15:44:46.000Z</time>
      </trkpt>
      <trkpt lat="49.79924" lon="4.83775">
        <ele>239</ele>
        <time>2022-06-17T15:44:47.000Z</time>
      </trkpt>
      <trkpt lat="49.7992" lon="4.83774">
        <ele>239</ele>
        <time>2022-06-17T15:44:48.000Z</time>
      </trkpt>
      <trkpt lat="49.79917" lon="4.83774">
        <ele>239</ele>
        <time>2022-06-17T15:44:49.000Z</time>
      </trkpt>
      <trkpt lat="49.79912" lon="4.83772">
        <ele>240</ele>
        <time>2022-06-17T15:44:50.000Z</time>
      </trkpt>
      <trkpt lat="49.79908" lon="4.8377">
        <ele>240</ele>
        <time>2022-06-17T15:44:51.000Z</time>
      </trkpt>
      <trkpt lat="49.79904" lon="4.83768">
        <ele>240</ele>
        <time>2022-06-17T15:44:52.000Z</time>
      </trkpt>
      <trkpt lat="49.79899" lon="4.83766">
        <ele>240</ele>
        <time>2022-06-17T15:44:53.000Z</time>
      </trkpt>
      <trkpt lat="49.79894" lon="4.83764">
        <ele>240</ele>
        <time>2022-06-17T15:44:54.000Z</time>
      </trkpt>
      <trkpt lat="49.79889" lon="4.83763">
        <ele>240</ele>
        <time>2022-06-17T15:44:55.000Z</time>
      </trkpt>
      <trkpt lat="49.79884" lon="4.83762">
        <ele>241</ele>
        <time>2022-06-17T15:44:56.000Z</time>
      </trkpt>
      <trkpt lat="49.79878" lon="4.83761">
        <ele>241</ele>
        <time>2022-06-17T15:44:57.000Z</time>
      </trkpt>
      <trkpt lat="49.79873" lon="4.83759">
        <ele>241</ele>
        <time>2022-06-17T15:44:58.000Z</time>
      </trkpt>
      <trkpt lat="49.79868" lon="4.83758">
        <ele>241</ele>
        <time>2022-06-17T15:44:59.000Z</time>
      </trkpt>
      <trkpt lat="49.79864" lon="4.83757">
        <ele>241</ele>
        <time>2022-06-17T15:45:00.000Z</time>
      </trkpt>
      <trkpt lat="49.79859" lon="4.83755">
        <ele>241</ele>
        <time>2022-06-17T15:45:01.000Z</time>
      </trkpt>
      <trkpt lat="49.79853" lon="4.83754">
        <ele>241</ele>
        <time>2022-06-17T15:45:02.000Z</time>
      </trkpt>
      <trkpt lat="49.79847" lon="4.83752">
        <ele>241</ele>
        <time>2022-06-17T15:45:03.000Z</time>
      </trkpt>
      <trkpt lat="49.79842" lon="4.83751">
        <ele>242</ele>
        <time>2022-06-17T15:45:04.000Z</time>
      </trkpt>
      <trkpt lat="49.79836" lon="4.83749">
        <ele>242</ele>
        <time>2022-06-17T15:45:05.000Z</time>
      </trkpt>
      <trkpt lat="49.7983" lon="4.83748">
        <ele>242</ele>
        <time>2022-06-17T15:45:06.000Z</time>
      </trkpt>
      <trkpt lat="49.79823" lon="4.83747">
        <ele>242</ele>
        <time>2022-06-17T15:45:07.000Z</time>
      </trkpt>
      <trkpt lat="49.79817" lon="4.83746">
        <ele>242</ele>
        <time>2022-06-17T15:45:08.000Z</time>
      </trkpt>
      <trkpt lat="49.7981" lon="4.83746">
        <ele>242</ele>
        <time>2022-06-17T15:45:09.000Z</time>
      </trkpt>
      <trkpt lat="49.79803" lon="4.83746">
        <ele>242</ele>
        <time>2022-06-17T15:45:10.000Z</time>
      </trkpt>
      <trkpt lat="49.79797" lon="4.83746">
        <ele>241</ele>
        <time>2022-06-17T15:45:11.000Z</time>
      </trkpt>
      <trkpt lat="49.7979" lon="4.83746">
        <ele>242</ele>
        <time>2022-06-17T15:45:12.000Z</time>
      </trkpt>
      <trkpt lat="49.79783" lon="4.83746">
        <ele>242</ele>
        <time>2022-06-17T15:45:13.000Z</time>
      </trkpt>
      <trkpt lat="49.79776" lon="4.83746">
        <ele>242</ele>
        <time>2022-06-17T15:45:14.000Z</time>
      </trkpt>
      <trkpt lat="49.79769" lon="4.83746">
        <ele>242</ele>
        <time>2022-06-17T15:45:15.000Z</time>
      </trkpt>
      <trkpt lat="49.79762" lon="4.83746">
        <ele>242</ele>
        <time>2022-06-17T15:45:16.000Z</time>
      </trkpt>
      <trkpt lat="49.79755" lon="4.83745">
        <ele>242</ele>
        <time>2022-06-17T15:45:17.000Z</time>
      </trkpt>
      <trkpt lat="49.79748" lon="4.83745">
        <ele>242</ele>
        <time>2022-06-17T15:45:18.000Z</time>
      </trkpt>
      <trkpt lat="49.79741" lon="4.83745">
        <ele>242</ele>
        <time>2022-06-17T15:45:19.000Z</time>
      </trkpt>
      <trkpt lat="49.79734" lon="4.83746">
        <ele>242</ele>
        <time>2022-06-17T15:45:20.000Z</time>
      </trkpt>
      <trkpt lat="49.79726" lon="4.83746">
        <ele>242</ele>
        <time>2022-06-17T15:45:21.000Z</time>
      </trkpt>
      <trkpt lat="49.79719" lon="4.83746">
        <ele>242</ele>
        <time>2022-06-17T15:45:22.000Z</time>
      </trkpt>
      <trkpt lat="49.79711" lon="4.83746">
        <ele>241</ele>
        <time>2022-06-17T15:45:23.000Z</time>
      </trkpt>
      <trkpt lat="49.79704" lon="4.83746">
        <ele>241</ele>
        <time>2022-06-17T15:45:24.000Z</time>
      </trkpt>
      <trkpt lat="49.79697" lon="4.83746">
        <ele>241</ele>
        <time>2022-06-17T15:45:25.000Z</time>
      </trkpt>
      <trkpt lat="49.79689" lon="4.83746">
        <ele>241</ele>
        <time>2022-06-17T15:45:26.000Z</time>
      </trkpt>
      <trkpt lat="49.79682" lon="4.83747">
        <ele>240</ele>
        <time>2022-06-17T15:45:27.000Z</time>
      </trkpt>
      <trkpt lat="49.79675" lon="4.83748">
        <ele>240</ele>
        <time>2022-06-17T15:45:28.000Z</time>
      </trkpt>
      <trkpt lat="49.79668" lon="4.83748">
        <ele>239</ele>
        <time>2022-06-17T15:45:29.000Z</time>
      </trkpt>
      <trkpt lat="49.79662" lon="4.83749">
        <ele>239</ele>
        <time>2022-06-17T15:45:30.000Z</time>
      </trkpt>
      <trkpt lat="49.79655" lon="4.83749">
        <ele>238</ele>
        <time>2022-06-17T15:45:31.000Z</time>
      </trkpt>
      <trkpt lat="49.79649" lon="4.83749">
        <ele>237</ele>
        <time>2022-06-17T15:45:32.000Z</time>
      </trkpt>
      <trkpt lat="49.79642" lon="4.83748">
        <ele>237</ele>
        <time>2022-06-17T15:45:33.000Z</time>
      </trkpt>
      <trkpt lat="49.79635" lon="4.83748">
        <ele>236</ele>
        <time>2022-06-17T15:45:34.000Z</time>
      </trkpt>
      <trkpt lat="49.79629" lon="4.83747">
        <ele>235</ele>
        <time>2022-06-17T15:45:35.000Z</time>
      </trkpt>
      <trkpt lat="49.79622" lon="4.83747">
        <ele>235</ele>
        <time>2022-06-17T15:45:36.000Z</time>
      </trkpt>
      <trkpt lat="49.79615" lon="4.83747">
        <ele>234</ele>
        <time>2022-06-17T15:45:37.000Z</time>
      </trkpt>
      <trkpt lat="49.79608" lon="4.83747">
        <ele>234</ele>
        <time>2022-06-17T15:45:38.000Z</time>
      </trkpt>
      <trkpt lat="49.79601" lon="4.83745">
        <ele>233</ele>
        <time>2022-06-17T15:45:39.000Z</time>
      </trkpt>
      <trkpt lat="49.79594" lon="4.83745">
        <ele>233</ele>
        <time>2022-06-17T15:45:40.000Z</time>
      </trkpt>
      <trkpt lat="49.79587" lon="4.83744">
        <ele>233</ele>
        <time>2022-06-17T15:45:41.000Z</time>
      </trkpt>
      <trkpt lat="49.7958" lon="4.83743">
        <ele>232</ele>
        <time>2022-06-17T15:45:42.000Z</time>
      </trkpt>
      <trkpt lat="49.79574" lon="4.83742">
        <ele>232</ele>
        <time>2022-06-17T15:45:43.000Z</time>
      </trkpt>
      <trkpt lat="49.79567" lon="4.8374">
        <ele>232</ele>
        <time>2022-06-17T15:45:44.000Z</time>
      </trkpt>
      <trkpt lat="49.79561" lon="4.83737">
        <ele>232</ele>
        <time>2022-06-17T15:45:45.000Z</time>
      </trkpt>
      <trkpt lat="49.79554" lon="4.83735">
        <ele>231</ele>
        <time>2022-06-17T15:45:46.000Z</time>
      </trkpt>
      <trkpt lat="49.79548" lon="4.83734">
        <ele>231</ele>
        <time>2022-06-17T15:45:47.000Z</time>
      </trkpt>
      <trkpt lat="49.79541" lon="4.83733">
        <ele>231</ele>
        <time>2022-06-17T15:45:48.000Z</time>
      </trkpt>
      <trkpt lat="49.79534" lon="4.83731">
        <ele>230</ele>
        <time>2022-06-17T15:45:49.000Z</time>
      </trkpt>
      <trkpt lat="49.79528" lon="4.8373">
        <ele>230</ele>
        <time>2022-06-17T15:45:50.000Z</time>
      </trkpt>
      <trkpt lat="49.79521" lon="4.83727">
        <ele>230</ele>
        <time>2022-06-17T15:45:51.000Z</time>
      </trkpt>
      <trkpt lat="49.79515" lon="4.83725">
        <ele>229</ele>
        <time>2022-06-17T15:45:52.000Z</time>
      </trkpt>
      <trkpt lat="49.79509" lon="4.83724">
        <ele>229</ele>
        <time>2022-06-17T15:45:53.000Z</time>
      </trkpt>
      <trkpt lat="49.79504" lon="4.83723">
        <ele>229</ele>
        <time>2022-06-17T15:45:54.000Z</time>
      </trkpt>
      <trkpt lat="49.79498" lon="4.83722">
        <ele>228</ele>
        <time>2022-06-17T15:45:55.000Z</time>
      </trkpt>
      <trkpt lat="49.79493" lon="4.83721">
        <ele>228</ele>
        <time>2022-06-17T15:45:56.000Z</time>
      </trkpt>
      <trkpt lat="49.79488" lon="4.83718">
        <ele>227</ele>
        <time>2022-06-17T15:45:57.000Z</time>
      </trkpt>
      <trkpt lat="49.79482" lon="4.83717">
        <ele>227</ele>
        <time>2022-06-17T15:45:58.000Z</time>
      </trkpt>
      <trkpt lat="49.79477" lon="4.83716">
        <ele>227</ele>
        <time>2022-06-17T15:45:59.000Z</time>
      </trkpt>
      <trkpt lat="49.79471" lon="4.83715">
        <ele>226</ele>
        <time>2022-06-17T15:46:00.000Z</time>
      </trkpt>
      <trkpt lat="49.79465" lon="4.83714">
        <ele>226</ele>
        <time>2022-06-17T15:46:01.000Z</time>
      </trkpt>
      <trkpt lat="49.7946" lon="4.83712">
        <ele>226</ele>
        <time>2022-06-17T15:46:02.000Z</time>
      </trkpt>
      <trkpt lat="49.79454" lon="4.8371">
        <ele>225</ele>
        <time>2022-06-17T15:46:03.000Z</time>
      </trkpt>
      <trkpt lat="49.79447" lon="4.83708">
        <ele>225</ele>
        <time>2022-06-17T15:46:04.000Z</time>
      </trkpt>
      <trkpt lat="49.79441" lon="4.83708">
        <ele>224</ele>
        <time>2022-06-17T15:46:05.000Z</time>
      </trkpt>
      <trkpt lat="49.79434" lon="4.83707">
        <ele>224</ele>
        <time>2022-06-17T15:46:06.000Z</time>
      </trkpt>
      <trkpt lat="49.79428" lon="4.83707">
        <ele>224</ele>
        <time>2022-06-17T15:46:07.000Z</time>
      </trkpt>
      <trkpt lat="49.79421" lon="4.83707">
        <ele>223</ele>
        <time>2022-06-17T15:46:08.000Z</time>
      </trkpt>
      <trkpt lat="49.79416" lon="4.83707">
        <ele>223</ele>
        <time>2022-06-17T15:46:09.000Z</time>
      </trkpt>
      <trkpt lat="49.7941" lon="4.83707">
        <ele>223</ele>
        <time>2022-06-17T15:46:10.000Z</time>
      </trkpt>
      <trkpt lat="49.79404" lon="4.83706">
        <ele>223</ele>
        <time>2022-06-17T15:46:11.000Z</time>
      </trkpt>
      <trkpt lat="49.79399" lon="4.83705">
        <ele>223</ele>
        <time>2022-06-17T15:46:12.000Z</time>
      </trkpt>
      <trkpt lat="49.79393" lon="4.83704">
        <ele>223</ele>
        <time>2022-06-17T15:46:13.000Z</time>
      </trkpt>
      <trkpt lat="49.79389" lon="4.83703">
        <ele>222</ele>
        <time>2022-06-17T15:46:14.000Z</time>
      </trkpt>
      <trkpt lat="49.79385" lon="4.83701">
        <ele>222</ele>
        <time>2022-06-17T15:46:15.000Z</time>
      </trkpt>
      <trkpt lat="49.79381" lon="4.83701">
        <ele>222</ele>
        <time>2022-06-17T15:46:16.000Z</time>
      </trkpt>
      <trkpt lat="49.79378" lon="4.83702">
        <ele>222</ele>
        <time>2022-06-17T15:46:17.000Z</time>
      </trkpt>
      <trkpt lat="49.79375" lon="4.83704">
        <ele>222</ele>
        <time>2022-06-17T15:46:18.000Z</time>
      </trkpt>
      <trkpt lat="49.79371" lon="4.83705">
        <ele>222</ele>
        <time>2022-06-17T15:46:19.000Z</time>
      </trkpt>
      <trkpt lat="49.79367" lon="4.83708">
        <ele>222</ele>
        <time>2022-06-17T15:46:20.000Z</time>
      </trkpt>
      <trkpt lat="49.79363" lon="4.83713">
        <ele>223</ele>
        <time>2022-06-17T15:46:21.000Z</time>
      </trkpt>
      <trkpt lat="49.79359" lon="4.83719">
        <ele>223</ele>
        <time>2022-06-17T15:46:22.000Z</time>
      </trkpt>
      <trkpt lat="49.79355" lon="4.83724">
        <ele>223</ele>
        <time>2022-06-17T15:46:23.000Z</time>
      </trkpt>
      <trkpt lat="49.79351" lon="4.83729">
        <ele>223</ele>
        <time>2022-06-17T15:46:24.000Z</time>
      </trkpt>
      <trkpt lat="49.79346" lon="4.83735">
        <ele>223</ele>
        <time>2022-06-17T15:46:25.000Z</time>
      </trkpt>
      <trkpt lat="49.79342" lon="4.8374">
        <ele>223</ele>
        <time>2022-06-17T15:46:26.000Z</time>
      </trkpt>
      <trkpt lat="49.79338" lon="4.83746">
        <ele>223</ele>
        <time>2022-06-17T15:46:27.000Z</time>
      </trkpt>
      <trkpt lat="49.79334" lon="4.83753">
        <ele>223</ele>
        <time>2022-06-17T15:46:28.000Z</time>
      </trkpt>
      <trkpt lat="49.79329" lon="4.83759">
        <ele>223</ele>
        <time>2022-06-17T15:46:29.000Z</time>
      </trkpt>
      <trkpt lat="49.79325" lon="4.83766">
        <ele>223</ele>
        <time>2022-06-17T15:46:30.000Z</time>
      </trkpt>
      <trkpt lat="49.79321" lon="4.83773">
        <ele>223</ele>
        <time>2022-06-17T15:46:31.000Z</time>
      </trkpt>
      <trkpt lat="49.79317" lon="4.8378">
        <ele>223</ele>
        <time>2022-06-17T15:46:32.000Z</time>
      </trkpt>
      <trkpt lat="49.79312" lon="4.83786">
        <ele>223</ele>
        <time>2022-06-17T15:46:33.000Z</time>
      </trkpt>
      <trkpt lat="49.79308" lon="4.83793">
        <ele>223</ele>
        <time>2022-06-17T15:46:34.000Z</time>
      </trkpt>
      <trkpt lat="49.79303" lon="4.838">
        <ele>223</ele>
        <time>2022-06-17T15:46:35.000Z</time>
      </trkpt>
      <trkpt lat="49.793" lon="4.83808">
        <ele>223</ele>
        <time>2022-06-17T15:46:36.000Z</time>
      </trkpt>
      <trkpt lat="49.79297" lon="4.83816">
        <ele>223</ele>
        <time>2022-06-17T15:46:37.000Z</time>
      </trkpt>
      <trkpt lat="49.79293" lon="4.83824">
        <ele>223</ele>
        <time>2022-06-17T15:46:38.000Z</time>
      </trkpt>
      <trkpt lat="49.7929" lon="4.8383">
        <ele>223</ele>
        <time>2022-06-17T15:46:39.000Z</time>
      </trkpt>
      <trkpt lat="49.79286" lon="4.83837">
        <ele>224</ele>
        <time>2022-06-17T15:46:40.000Z</time>
      </trkpt>
      <trkpt lat="49.79283" lon="4.83844">
        <ele>224</ele>
        <time>2022-06-17T15:46:41.000Z</time>
      </trkpt>
      <trkpt lat="49.7928" lon="4.8385">
        <ele>224</ele>
        <time>2022-06-17T15:46:42.000Z</time>
      </trkpt>
      <trkpt lat="49.79277" lon="4.83858">
        <ele>224</ele>
        <time>2022-06-17T15:46:43.000Z</time>
      </trkpt>
      <trkpt lat="49.79273" lon="4.83865">
        <ele>224</ele>
        <time>2022-06-17T15:46:44.000Z</time>
      </trkpt>
      <trkpt lat="49.7927" lon="4.83872">
        <ele>224</ele>
        <time>2022-06-17T15:46:45.000Z</time>
      </trkpt>
      <trkpt lat="49.79266" lon="4.83879">
        <ele>224</ele>
        <time>2022-06-17T15:46:46.000Z</time>
      </trkpt>
      <trkpt lat="49.79262" lon="4.83885">
        <ele>224</ele>
        <time>2022-06-17T15:46:47.000Z</time>
      </trkpt>
      <trkpt lat="49.79259" lon="4.83893">
        <ele>224</ele>
        <time>2022-06-17T15:46:48.000Z</time>
      </trkpt>
      <trkpt lat="49.79255" lon="4.839">
        <ele>224</ele>
        <time>2022-06-17T15:46:49.000Z</time>
      </trkpt>
      <trkpt lat="49.79251" lon="4.83908">
        <ele>224</ele>
        <time>2022-06-17T15:46:50.000Z</time>
      </trkpt>
      <trkpt lat="49.79247" lon="4.83915">
        <ele>223</ele>
        <time>2022-06-17T15:46:51.000Z</time>
      </trkpt>
      <trkpt lat="49.79244" lon="4.83923">
        <ele>223</ele>
        <time>2022-06-17T15:46:52.000Z</time>
      </trkpt>
      <trkpt lat="49.79241" lon="4.83931">
        <ele>223</ele>
        <time>2022-06-17T15:46:53.000Z</time>
      </trkpt>
      <trkpt lat="49.79238" lon="4.83939">
        <ele>223</ele>
        <time>2022-06-17T15:46:54.000Z</time>
      </trkpt>
      <trkpt lat="49.79234" lon="4.83946">
        <ele>223</ele>
        <time>2022-06-17T15:46:55.000Z</time>
      </trkpt>
      <trkpt lat="49.7923" lon="4.83953">
        <ele>224</ele>
        <time>2022-06-17T15:46:56.000Z</time>
      </trkpt>
      <trkpt lat="49.79227" lon="4.83961">
        <ele>224</ele>
        <time>2022-06-17T15:46:57.000Z</time>
      </trkpt>
      <trkpt lat="49.79223" lon="4.83969">
        <ele>224</ele>
        <time>2022-06-17T15:46:58.000Z</time>
      </trkpt>
      <trkpt lat="49.7922" lon="4.83976">
        <ele>224</ele>
        <time>2022-06-17T15:46:59.000Z</time>
      </trkpt>
      <trkpt lat="49.79216" lon="4.83984">
        <ele>224</ele>
        <time>2022-06-17T15:47:00.000Z</time>
      </trkpt>
      <trkpt lat="49.79212" lon="4.83991">
        <ele>224</ele>
        <time>2022-06-17T15:47:01.000Z</time>
      </trkpt>
      <trkpt lat="49.79209" lon="4.83999">
        <ele>224</ele>
        <time>2022-06-17T15:47:02.000Z</time>
      </trkpt>
      <trkpt lat="49.79205" lon="4.84005">
        <ele>224</ele>
        <time>2022-06-17T15:47:03.000Z</time>
      </trkpt>
      <trkpt lat="49.79201" lon="4.84011">
        <ele>224</ele>
        <time>2022-06-17T15:47:04.000Z</time>
      </trkpt>
      <trkpt lat="49.79198" lon="4.84018">
        <ele>224</ele>
        <time>2022-06-17T15:47:05.000Z</time>
      </trkpt>
      <trkpt lat="49.79194" lon="4.84025">
        <ele>224</ele>
        <time>2022-06-17T15:47:06.000Z</time>
      </trkpt>
      <trkpt lat="49.7919" lon="4.84033">
        <ele>224</ele>
        <time>2022-06-17T15:47:07.000Z</time>
      </trkpt>
      <trkpt lat="49.79187" lon="4.8404">
        <ele>224</ele>
        <time>2022-06-17T15:47:08.000Z</time>
      </trkpt>
      <trkpt lat="49.79183" lon="4.84047">
        <ele>225</ele>
        <time>2022-06-17T15:47:09.000Z</time>
      </trkpt>
      <trkpt lat="49.7918" lon="4.84054">
        <ele>225</ele>
        <time>2022-06-17T15:47:10.000Z</time>
      </trkpt>
      <trkpt lat="49.79176" lon="4.84061">
        <ele>225</ele>
        <time>2022-06-17T15:47:11.000Z</time>
      </trkpt>
      <trkpt lat="49.79173" lon="4.84069">
        <ele>225</ele>
        <time>2022-06-17T15:47:12.000Z</time>
      </trkpt>
      <trkpt lat="49.7917" lon="4.84076">
        <ele>224</ele>
        <time>2022-06-17T15:47:13.000Z</time>
      </trkpt>
      <trkpt lat="49.79166" lon="4.84083">
        <ele>224</ele>
        <time>2022-06-17T15:47:14.000Z</time>
      </trkpt>
      <trkpt lat="49.79162" lon="4.8409">
        <ele>224</ele>
        <time>2022-06-17T15:47:15.000Z</time>
      </trkpt>
      <trkpt lat="49.79159" lon="4.84097">
        <ele>224</ele>
        <time>2022-06-17T15:47:16.000Z</time>
      </trkpt>
      <trkpt lat="49.79155" lon="4.84103">
        <ele>224</ele>
        <time>2022-06-17T15:47:17.000Z</time>
      </trkpt>
      <trkpt lat="49.79151" lon="4.8411">
        <ele>224</ele>
        <time>2022-06-17T15:47:18.000Z</time>
      </trkpt>
      <trkpt lat="49.79146" lon="4.84116">
        <ele>224</ele>
        <time>2022-06-17T15:47:19.000Z</time>
      </trkpt>
      <trkpt lat="49.79142" lon="4.84123">
        <ele>224</ele>
        <time>2022-06-17T15:47:20.000Z</time>
      </trkpt>
      <trkpt lat="49.79137" lon="4.84129">
        <ele>224</ele>
        <time>2022-06-17T15:47:21.000Z</time>
      </trkpt>
      <trkpt lat="49.79133" lon="4.84135">
        <ele>224</ele>
        <time>2022-06-17T15:47:22.000Z</time>
      </trkpt>
      <trkpt lat="49.7913" lon="4.84141">
        <ele>224</ele>
        <time>2022-06-17T15:47:23.000Z</time>
      </trkpt>
      <trkpt lat="49.79126" lon="4.84145">
        <ele>224</ele>
        <time>2022-06-17T15:47:24.000Z</time>
      </trkpt>
      <trkpt lat="49.79122" lon="4.84151">
        <ele>224</ele>
        <time>2022-06-17T15:47:25.000Z</time>
      </trkpt>
      <trkpt lat="49.79118" lon="4.84156">
        <ele>224</ele>
        <time>2022-06-17T15:47:26.000Z</time>
      </trkpt>
      <trkpt lat="49.79114" lon="4.84162">
        <ele>224</ele>
        <time>2022-06-17T15:47:27.000Z</time>
      </trkpt>
      <trkpt lat="49.79111" lon="4.84168">
        <ele>224</ele>
        <time>2022-06-17T15:47:28.000Z</time>
      </trkpt>
      <trkpt lat="49.79106" lon="4.84174">
        <ele>224</ele>
        <time>2022-06-17T15:47:29.000Z</time>
      </trkpt>
      <trkpt lat="49.79101" lon="4.84179">
        <ele>224</ele>
        <time>2022-06-17T15:47:30.000Z</time>
      </trkpt>
      <trkpt lat="49.79097" lon="4.84183">
        <ele>224</ele>
        <time>2022-06-17T15:47:31.000Z</time>
      </trkpt>
      <trkpt lat="49.79093" lon="4.84187">
        <ele>224</ele>
        <time>2022-06-17T15:47:32.000Z</time>
      </trkpt>
      <trkpt lat="49.79088" lon="4.84192">
        <ele>223</ele>
        <time>2022-06-17T15:47:33.000Z</time>
      </trkpt>
      <trkpt lat="49.79083" lon="4.84197">
        <ele>223</ele>
        <time>2022-06-17T15:47:34.000Z</time>
      </trkpt>
      <trkpt lat="49.79079" lon="4.84203">
        <ele>223</ele>
        <time>2022-06-17T15:47:35.000Z</time>
      </trkpt>
      <trkpt lat="49.79074" lon="4.84209">
        <ele>223</ele>
        <time>2022-06-17T15:47:36.000Z</time>
      </trkpt>
      <trkpt lat="49.7907" lon="4.84214">
        <ele>223</ele>
        <time>2022-06-17T15:47:37.000Z</time>
      </trkpt>
      <trkpt lat="49.79066" lon="4.8422">
        <ele>223</ele>
        <time>2022-06-17T15:47:38.000Z</time>
      </trkpt>
      <trkpt lat="49.79062" lon="4.84225">
        <ele>223</ele>
        <time>2022-06-17T15:47:39.000Z</time>
      </trkpt>
      <trkpt lat="49.79057" lon="4.8423">
        <ele>223</ele>
        <time>2022-06-17T15:47:40.000Z</time>
      </trkpt>
      <trkpt lat="49.79052" lon="4.84235">
        <ele>223</ele>
        <time>2022-06-17T15:47:41.000Z</time>
      </trkpt>
      <trkpt lat="49.79048" lon="4.84239">
        <ele>223</ele>
        <time>2022-06-17T15:47:42.000Z</time>
      </trkpt>
      <trkpt lat="49.79043" lon="4.84243">
        <ele>222</ele>
        <time>2022-06-17T15:47:43.000Z</time>
      </trkpt>
      <trkpt lat="49.79037" lon="4.84247">
        <ele>222</ele>
        <time>2022-06-17T15:47:44.000Z</time>
      </trkpt>
      <trkpt lat="49.79032" lon="4.84253">
        <ele>222</ele>
        <time>2022-06-17T15:47:45.000Z</time>
      </trkpt>
      <trkpt lat="49.79026" lon="4.84259">
        <ele>222</ele>
        <time>2022-06-17T15:47:46.000Z</time>
      </trkpt>
      <trkpt lat="49.79021" lon="4.84263">
        <ele>222</ele>
        <time>2022-06-17T15:47:47.000Z</time>
      </trkpt>
      <trkpt lat="49.79014" lon="4.84267">
        <ele>222</ele>
        <time>2022-06-17T15:47:48.000Z</time>
      </trkpt>
      <trkpt lat="49.79007" lon="4.84271">
        <ele>221</ele>
        <time>2022-06-17T15:47:49.000Z</time>
      </trkpt>
      <trkpt lat="49.79" lon="4.84274">
        <ele>221</ele>
        <time>2022-06-17T15:47:50.000Z</time>
      </trkpt>
      <trkpt lat="49.78993" lon="4.84277">
        <ele>220</ele>
        <time>2022-06-17T15:47:51.000Z</time>
      </trkpt>
      <trkpt lat="49.78987" lon="4.84281">
        <ele>220</ele>
        <time>2022-06-17T15:47:52.000Z</time>
      </trkpt>
      <trkpt lat="49.78981" lon="4.84284">
        <ele>220</ele>
        <time>2022-06-17T15:47:53.000Z</time>
      </trkpt>
      <trkpt lat="49.78977" lon="4.84287">
        <ele>220</ele>
        <time>2022-06-17T15:47:54.000Z</time>
      </trkpt>
      <trkpt lat="49.78973" lon="4.84289">
        <ele>220</ele>
        <time>2022-06-17T15:47:55.000Z</time>
      </trkpt>
      <trkpt lat="49.78968" lon="4.8429">
        <ele>219</ele>
        <time>2022-06-17T15:47:56.000Z</time>
      </trkpt>
      <trkpt lat="49.78963" lon="4.84294">
        <ele>219</ele>
        <time>2022-06-17T15:47:57.000Z</time>
      </trkpt>
      <trkpt lat="49.78957" lon="4.84297">
        <ele>219</ele>
        <time>2022-06-17T15:47:58.000Z</time>
      </trkpt>
      <trkpt lat="49.78951" lon="4.84302">
        <ele>219</ele>
        <time>2022-06-17T15:47:59.000Z</time>
      </trkpt>
      <trkpt lat="49.78945" lon="4.84305">
        <ele>219</ele>
        <time>2022-06-17T15:48:00.000Z</time>
      </trkpt>
      <trkpt lat="49.78939" lon="4.84308">
        <ele>219</ele>
        <time>2022-06-17T15:48:01.000Z</time>
      </trkpt>
      <trkpt lat="49.78933" lon="4.8431">
        <ele>219</ele>
        <time>2022-06-17T15:48:02.000Z</time>
      </trkpt>
      <trkpt lat="49.78926" lon="4.84313">
        <ele>218</ele>
        <time>2022-06-17T15:48:03.000Z</time>
      </trkpt>
      <trkpt lat="49.78919" lon="4.84315">
        <ele>218</ele>
        <time>2022-06-17T15:48:04.000Z</time>
      </trkpt>
      <trkpt lat="49.78912" lon="4.84318">
        <ele>218</ele>
        <time>2022-06-17T15:48:05.000Z</time>
      </trkpt>
      <trkpt lat="49.78905" lon="4.84322">
        <ele>217</ele>
        <time>2022-06-17T15:48:06.000Z</time>
      </trkpt>
      <trkpt lat="49.78898" lon="4.84325">
        <ele>217</ele>
        <time>2022-06-17T15:48:07.000Z</time>
      </trkpt>
      <trkpt lat="49.78891" lon="4.84329">
        <ele>216</ele>
        <time>2022-06-17T15:48:08.000Z</time>
      </trkpt>
      <trkpt lat="49.78883" lon="4.8433">
        <ele>216</ele>
        <time>2022-06-17T15:48:09.000Z</time>
      </trkpt>
      <trkpt lat="49.78876" lon="4.84332">
        <ele>216</ele>
        <time>2022-06-17T15:48:10.000Z</time>
      </trkpt>
      <trkpt lat="49.78869" lon="4.84332">
        <ele>215</ele>
        <time>2022-06-17T15:48:11.000Z</time>
      </trkpt>
      <trkpt lat="49.78861" lon="4.84333">
        <ele>215</ele>
        <time>2022-06-17T15:48:12.000Z</time>
      </trkpt>
      <trkpt lat="49.78854" lon="4.84334">
        <ele>214</ele>
        <time>2022-06-17T15:48:13.000Z</time>
      </trkpt>
      <trkpt lat="49.78847" lon="4.84334">
        <ele>214</ele>
        <time>2022-06-17T15:48:14.000Z</time>
      </trkpt>
      <trkpt lat="49.78839" lon="4.84334">
        <ele>214</ele>
        <time>2022-06-17T15:48:15.000Z</time>
      </trkpt>
      <trkpt lat="49.78832" lon="4.84335">
        <ele>213</ele>
        <time>2022-06-17T15:48:16.000Z</time>
      </trkpt>
      <trkpt lat="49.78824" lon="4.84335">
        <ele>213</ele>
        <time>2022-06-17T15:48:17.000Z</time>
      </trkpt>
      <trkpt lat="49.78816" lon="4.84336">
        <ele>212</ele>
        <time>2022-06-17T15:48:18.000Z</time>
      </trkpt>
      <trkpt lat="49.78809" lon="4.84336">
        <ele>212</ele>
        <time>2022-06-17T15:48:19.000Z</time>
      </trkpt>
      <trkpt lat="49.78801" lon="4.84337">
        <ele>211</ele>
        <time>2022-06-17T15:48:20.000Z</time>
      </trkpt>
      <trkpt lat="49.78794" lon="4.84337">
        <ele>211</ele>
        <time>2022-06-17T15:48:21.000Z</time>
      </trkpt>
      <trkpt lat="49.78788" lon="4.84337">
        <ele>210</ele>
        <time>2022-06-17T15:48:22.000Z</time>
      </trkpt>
      <trkpt lat="49.78781" lon="4.84337">
        <ele>210</ele>
        <time>2022-06-17T15:48:23.000Z</time>
      </trkpt>
      <trkpt lat="49.78774" lon="4.84336">
        <ele>209</ele>
        <time>2022-06-17T15:48:24.000Z</time>
      </trkpt>
      <trkpt lat="49.78767" lon="4.84334">
        <ele>209</ele>
        <time>2022-06-17T15:48:25.000Z</time>
      </trkpt>
      <trkpt lat="49.7876" lon="4.84333">
        <ele>208</ele>
        <time>2022-06-17T15:48:26.000Z</time>
      </trkpt>
      <trkpt lat="49.78753" lon="4.84332">
        <ele>208</ele>
        <time>2022-06-17T15:48:27.000Z</time>
      </trkpt>
      <trkpt lat="49.78746" lon="4.8433">
        <ele>207</ele>
        <time>2022-06-17T15:48:28.000Z</time>
      </trkpt>
      <trkpt lat="49.78738" lon="4.84329">
        <ele>207</ele>
        <time>2022-06-17T15:48:29.000Z</time>
      </trkpt>
      <trkpt lat="49.78731" lon="4.84328">
        <ele>207</ele>
        <time>2022-06-17T15:48:30.000Z</time>
      </trkpt>
      <trkpt lat="49.78724" lon="4.84328">
        <ele>206</ele>
        <time>2022-06-17T15:48:31.000Z</time>
      </trkpt>
      <trkpt lat="49.78717" lon="4.84327">
        <ele>206</ele>
        <time>2022-06-17T15:48:32.000Z</time>
      </trkpt>
      <trkpt lat="49.78709" lon="4.84327">
        <ele>206</ele>
        <time>2022-06-17T15:48:33.000Z</time>
      </trkpt>
      <trkpt lat="49.78701" lon="4.84326">
        <ele>205</ele>
        <time>2022-06-17T15:48:34.000Z</time>
      </trkpt>
      <trkpt lat="49.78694" lon="4.84325">
        <ele>205</ele>
        <time>2022-06-17T15:48:35.000Z</time>
      </trkpt>
      <trkpt lat="49.78686" lon="4.84324">
        <ele>204</ele>
        <time>2022-06-17T15:48:36.000Z</time>
      </trkpt>
      <trkpt lat="49.78678" lon="4.84323">
        <ele>204</ele>
        <time>2022-06-17T15:48:37.000Z</time>
      </trkpt>
      <trkpt lat="49.7867" lon="4.84323">
        <ele>204</ele>
        <time>2022-06-17T15:48:38.000Z</time>
      </trkpt>
      <trkpt lat="49.78662" lon="4.84322">
        <ele>203</ele>
        <time>2022-06-17T15:48:39.000Z</time>
      </trkpt>
      <trkpt lat="49.78654" lon="4.84321">
        <ele>203</ele>
        <time>2022-06-17T15:48:40.000Z</time>
      </trkpt>
      <trkpt lat="49.78645" lon="4.84321">
        <ele>202</ele>
        <time>2022-06-17T15:48:41.000Z</time>
      </trkpt>
      <trkpt lat="49.78637" lon="4.8432">
        <ele>202</ele>
        <time>2022-06-17T15:48:42.000Z</time>
      </trkpt>
      <trkpt lat="49.78628" lon="4.84319">
        <ele>202</ele>
        <time>2022-06-17T15:48:43.000Z</time>
      </trkpt>
      <trkpt lat="49.7862" lon="4.84319">
        <ele>201</ele>
        <time>2022-06-17T15:48:44.000Z</time>
      </trkpt>
      <trkpt lat="49.78612" lon="4.84318">
        <ele>201</ele>
        <time>2022-06-17T15:48:45.000Z</time>
      </trkpt>
      <trkpt lat="49.78605" lon="4.84317">
        <ele>200</ele>
        <time>2022-06-17T15:48:46.000Z</time>
      </trkpt>
      <trkpt lat="49.78597" lon="4.84316">
        <ele>200</ele>
        <time>2022-06-17T15:48:47.000Z</time>
      </trkpt>
      <trkpt lat="49.78589" lon="4.84315">
        <ele>200</ele>
        <time>2022-06-17T15:48:48.000Z</time>
      </trkpt>
      <trkpt lat="49.78581" lon="4.84315">
        <ele>199</ele>
        <time>2022-06-17T15:48:49.000Z</time>
      </trkpt>
      <trkpt lat="49.78573" lon="4.84315">
        <ele>199</ele>
        <time>2022-06-17T15:48:50.000Z</time>
      </trkpt>
      <trkpt lat="49.78565" lon="4.84314">
        <ele>198</ele>
        <time>2022-06-17T15:48:51.000Z</time>
      </trkpt>
      <trkpt lat="49.78557" lon="4.84314">
        <ele>198</ele>
        <time>2022-06-17T15:48:52.000Z</time>
      </trkpt>
      <trkpt lat="49.78549" lon="4.84313">
        <ele>198</ele>
        <time>2022-06-17T15:48:53.000Z</time>
      </trkpt>
      <trkpt lat="49.78541" lon="4.84313">
        <ele>197</ele>
        <time>2022-06-17T15:48:54.000Z</time>
      </trkpt>
      <trkpt lat="49.78534" lon="4.84312">
        <ele>197</ele>
        <time>2022-06-17T15:48:55.000Z</time>
      </trkpt>
      <trkpt lat="49.78526" lon="4.84311">
        <ele>196</ele>
        <time>2022-06-17T15:48:56.000Z</time>
      </trkpt>
      <trkpt lat="49.78518" lon="4.8431">
        <ele>196</ele>
        <time>2022-06-17T15:48:57.000Z</time>
      </trkpt>
      <trkpt lat="49.78511" lon="4.84309">
        <ele>195</ele>
        <time>2022-06-17T15:48:58.000Z</time>
      </trkpt>
      <trkpt lat="49.78503" lon="4.84309">
        <ele>195</ele>
        <time>2022-06-17T15:48:59.000Z</time>
      </trkpt>
      <trkpt lat="49.78496" lon="4.84308">
        <ele>195</ele>
        <time>2022-06-17T15:49:00.000Z</time>
      </trkpt>
      <trkpt lat="49.78489" lon="4.84308">
        <ele>194</ele>
        <time>2022-06-17T15:49:01.000Z</time>
      </trkpt>
      <trkpt lat="49.78482" lon="4.84309">
        <ele>194</ele>
        <time>2022-06-17T15:49:02.000Z</time>
      </trkpt>
      <trkpt lat="49.78475" lon="4.84309">
        <ele>194</ele>
        <time>2022-06-17T15:49:03.000Z</time>
      </trkpt>
      <trkpt lat="49.78467" lon="4.84308">
        <ele>194</ele>
        <time>2022-06-17T15:49:04.000Z</time>
      </trkpt>
      <trkpt lat="49.7846" lon="4.84308">
        <ele>194</ele>
        <time>2022-06-17T15:49:05.000Z</time>
      </trkpt>
      <trkpt lat="49.78453" lon="4.84308">
        <ele>194</ele>
        <time>2022-06-17T15:49:06.000Z</time>
      </trkpt>
      <trkpt lat="49.78447" lon="4.84308">
        <ele>194</ele>
        <time>2022-06-17T15:49:07.000Z</time>
      </trkpt>
      <trkpt lat="49.78441" lon="4.84309">
        <ele>194</ele>
        <time>2022-06-17T15:49:08.000Z</time>
      </trkpt>
      <trkpt lat="49.78437" lon="4.8431">
        <ele>193</ele>
        <time>2022-06-17T15:49:09.000Z</time>
      </trkpt>
      <trkpt lat="49.78432" lon="4.84313">
        <ele>193</ele>
        <time>2022-06-17T15:49:10.000Z</time>
      </trkpt>
      <trkpt lat="49.78427" lon="4.84317">
        <ele>193</ele>
        <time>2022-06-17T15:49:11.000Z</time>
      </trkpt>
      <trkpt lat="49.78423" lon="4.84322">
        <ele>193</ele>
        <time>2022-06-17T15:49:12.000Z</time>
      </trkpt>
      <trkpt lat="49.78418" lon="4.84328">
        <ele>194</ele>
        <time>2022-06-17T15:49:13.000Z</time>
      </trkpt>
      <trkpt lat="49.78413" lon="4.84333">
        <ele>194</ele>
        <time>2022-06-17T15:49:14.000Z</time>
      </trkpt>
      <trkpt lat="49.78408" lon="4.84339">
        <ele>194</ele>
        <time>2022-06-17T15:49:15.000Z</time>
      </trkpt>
      <trkpt lat="49.78403" lon="4.84344">
        <ele>194</ele>
        <time>2022-06-17T15:49:16.000Z</time>
      </trkpt>
      <trkpt lat="49.78399" lon="4.84347">
        <ele>194</ele>
        <time>2022-06-17T15:49:17.000Z</time>
      </trkpt>
      <trkpt lat="49.78393" lon="4.84349">
        <ele>194</ele>
        <time>2022-06-17T15:49:18.000Z</time>
      </trkpt>
      <trkpt lat="49.78387" lon="4.8435">
        <ele>194</ele>
        <time>2022-06-17T15:49:19.000Z</time>
      </trkpt>
      <trkpt lat="49.78381" lon="4.8435">
        <ele>194</ele>
        <time>2022-06-17T15:49:20.000Z</time>
      </trkpt>
      <trkpt lat="49.78375" lon="4.84347">
        <ele>194</ele>
        <time>2022-06-17T15:49:21.000Z</time>
      </trkpt>
      <trkpt lat="49.78369" lon="4.84344">
        <ele>194</ele>
        <time>2022-06-17T15:49:22.000Z</time>
      </trkpt>
      <trkpt lat="49.78362" lon="4.8434">
        <ele>194</ele>
        <time>2022-06-17T15:49:23.000Z</time>
      </trkpt>
      <trkpt lat="49.78356" lon="4.84337">
        <ele>195</ele>
        <time>2022-06-17T15:49:24.000Z</time>
      </trkpt>
      <trkpt lat="49.7835" lon="4.84332">
        <ele>195</ele>
        <time>2022-06-17T15:49:25.000Z</time>
      </trkpt>
      <trkpt lat="49.78344" lon="4.84327">
        <ele>195</ele>
        <time>2022-06-17T15:49:26.000Z</time>
      </trkpt>
      <trkpt lat="49.7834" lon="4.84323">
        <ele>195</ele>
        <time>2022-06-17T15:49:27.000Z</time>
      </trkpt>
      <trkpt lat="49.78334" lon="4.84318">
        <ele>195</ele>
        <time>2022-06-17T15:49:28.000Z</time>
      </trkpt>
      <trkpt lat="49.78329" lon="4.84313">
        <ele>195</ele>
        <time>2022-06-17T15:49:29.000Z</time>
      </trkpt>
      <trkpt lat="49.78322" lon="4.84308">
        <ele>195</ele>
        <time>2022-06-17T15:49:30.000Z</time>
      </trkpt>
      <trkpt lat="49.78317" lon="4.84304">
        <ele>195</ele>
        <time>2022-06-17T15:49:31.000Z</time>
      </trkpt>
      <trkpt lat="49.78311" lon="4.84301">
        <ele>195</ele>
        <time>2022-06-17T15:49:32.000Z</time>
      </trkpt>
      <trkpt lat="49.78305" lon="4.84297">
        <ele>196</ele>
        <time>2022-06-17T15:49:33.000Z</time>
      </trkpt>
      <trkpt lat="49.78299" lon="4.84294">
        <ele>196</ele>
        <time>2022-06-17T15:49:34.000Z</time>
      </trkpt>
      <trkpt lat="49.78292" lon="4.84291">
        <ele>196</ele>
        <time>2022-06-17T15:49:35.000Z</time>
      </trkpt>
      <trkpt lat="49.78285" lon="4.84287">
        <ele>196</ele>
        <time>2022-06-17T15:49:36.000Z</time>
      </trkpt>
      <trkpt lat="49.78279" lon="4.84284">
        <ele>196</ele>
        <time>2022-06-17T15:49:37.000Z</time>
      </trkpt>
      <trkpt lat="49.78273" lon="4.84278">
        <ele>196</ele>
        <time>2022-06-17T15:49:38.000Z</time>
      </trkpt>
      <trkpt lat="49.78267" lon="4.84272">
        <ele>196</ele>
        <time>2022-06-17T15:49:39.000Z</time>
      </trkpt>
      <trkpt lat="49.78262" lon="4.84265">
        <ele>196</ele>
        <time>2022-06-17T15:49:40.000Z</time>
      </trkpt>
      <trkpt lat="49.78257" lon="4.84257">
        <ele>196</ele>
        <time>2022-06-17T15:49:41.000Z</time>
      </trkpt>
      <trkpt lat="49.78254" lon="4.84249">
        <ele>196</ele>
        <time>2022-06-17T15:49:42.000Z</time>
      </trkpt>
      <trkpt lat="49.78251" lon="4.84242">
        <ele>196</ele>
        <time>2022-06-17T15:49:43.000Z</time>
      </trkpt>
      <trkpt lat="49.78248" lon="4.84234">
        <ele>196</ele>
        <time>2022-06-17T15:49:44.000Z</time>
      </trkpt>
      <trkpt lat="49.78247" lon="4.84227">
        <ele>196</ele>
        <time>2022-06-17T15:49:45.000Z</time>
      </trkpt>
      <trkpt lat="49.78246" lon="4.8422">
        <ele>196</ele>
        <time>2022-06-17T15:49:46.000Z</time>
      </trkpt>
      <trkpt lat="49.78243" lon="4.84213">
        <ele>196</ele>
        <time>2022-06-17T15:49:47.000Z</time>
      </trkpt>
      <trkpt lat="49.78241" lon="4.84206">
        <ele>196</ele>
        <time>2022-06-17T15:49:48.000Z</time>
      </trkpt>
      <trkpt lat="49.7824" lon="4.84201">
        <ele>196</ele>
        <time>2022-06-17T15:49:49.000Z</time>
      </trkpt>
      <trkpt lat="49.78239" lon="4.84196">
        <ele>196</ele>
        <time>2022-06-17T15:49:50.000Z</time>
      </trkpt>
      <trkpt lat="49.78238" lon="4.84191">
        <ele>195</ele>
        <time>2022-06-17T15:49:51.000Z</time>
      </trkpt>
      <trkpt lat="49.78236" lon="4.84185">
        <ele>195</ele>
        <time>2022-06-17T15:49:52.000Z</time>
      </trkpt>
      <trkpt lat="49.78234" lon="4.84179">
        <ele>195</ele>
        <time>2022-06-17T15:49:53.000Z</time>
      </trkpt>
      <trkpt lat="49.78231" lon="4.84172">
        <ele>195</ele>
        <time>2022-06-17T15:49:54.000Z</time>
      </trkpt>
      <trkpt lat="49.78227" lon="4.84166">
        <ele>195</ele>
        <time>2022-06-17T15:49:55.000Z</time>
      </trkpt>
      <trkpt lat="49.78223" lon="4.8416">
        <ele>195</ele>
        <time>2022-06-17T15:49:56.000Z</time>
      </trkpt>
      <trkpt lat="49.7822" lon="4.84153">
        <ele>195</ele>
        <time>2022-06-17T15:49:57.000Z</time>
      </trkpt>
      <trkpt lat="49.78216" lon="4.84147">
        <ele>194</ele>
        <time>2022-06-17T15:49:58.000Z</time>
      </trkpt>
      <trkpt lat="49.78212" lon="4.84141">
        <ele>194</ele>
        <time>2022-06-17T15:49:59.000Z</time>
      </trkpt>
      <trkpt lat="49.78208" lon="4.84136">
        <ele>194</ele>
        <time>2022-06-17T15:50:00.000Z</time>
      </trkpt>
      <trkpt lat="49.78204" lon="4.84131">
        <ele>194</ele>
        <time>2022-06-17T15:50:01.000Z</time>
      </trkpt>
      <trkpt lat="49.782" lon="4.84127">
        <ele>193</ele>
        <time>2022-06-17T15:50:02.000Z</time>
      </trkpt>
      <trkpt lat="49.78196" lon="4.84122">
        <ele>193</ele>
        <time>2022-06-17T15:50:03.000Z</time>
      </trkpt>
      <trkpt lat="49.78192" lon="4.84119">
        <ele>193</ele>
        <time>2022-06-17T15:50:04.000Z</time>
      </trkpt>
      <trkpt lat="49.78188" lon="4.84116">
        <ele>193</ele>
        <time>2022-06-17T15:50:05.000Z</time>
      </trkpt>
      <trkpt lat="49.78185" lon="4.84114">
        <ele>192</ele>
        <time>2022-06-17T15:50:06.000Z</time>
      </trkpt>
      <trkpt lat="49.78182" lon="4.84111">
        <ele>192</ele>
        <time>2022-06-17T15:50:07.000Z</time>
      </trkpt>
      <trkpt lat="49.78179" lon="4.84109">
        <ele>192</ele>
        <time>2022-06-17T15:50:08.000Z</time>
      </trkpt>
      <trkpt lat="49.78176" lon="4.84107">
        <ele>192</ele>
        <time>2022-06-17T15:50:09.000Z</time>
      </trkpt>
      <trkpt lat="49.78172" lon="4.84105">
        <ele>192</ele>
        <time>2022-06-17T15:50:10.000Z</time>
      </trkpt>
      <trkpt lat="49.78169" lon="4.84102">
        <ele>192</ele>
        <time>2022-06-17T15:50:11.000Z</time>
      </trkpt>
      <trkpt lat="49.78165" lon="4.841">
        <ele>192</ele>
        <time>2022-06-17T15:50:12.000Z</time>
      </trkpt>
      <trkpt lat="49.78161" lon="4.84098">
        <ele>192</ele>
        <time>2022-06-17T15:50:13.000Z</time>
      </trkpt>
      <trkpt lat="49.78157" lon="4.84096">
        <ele>192</ele>
        <time>2022-06-17T15:50:14.000Z</time>
      </trkpt>
      <trkpt lat="49.78153" lon="4.84094">
        <ele>192</ele>
        <time>2022-06-17T15:50:15.000Z</time>
      </trkpt>
      <trkpt lat="49.78149" lon="4.84091">
        <ele>192</ele>
        <time>2022-06-17T15:50:16.000Z</time>
      </trkpt>
      <trkpt lat="49.78145" lon="4.8409">
        <ele>193</ele>
        <time>2022-06-17T15:50:17.000Z</time>
      </trkpt>
      <trkpt lat="49.78141" lon="4.84088">
        <ele>193</ele>
        <time>2022-06-17T15:50:18.000Z</time>
      </trkpt>
      <trkpt lat="49.78138" lon="4.84087">
        <ele>193</ele>
        <time>2022-06-17T15:50:19.000Z</time>
      </trkpt>
      <trkpt lat="49.78135" lon="4.84085">
        <ele>193</ele>
        <time>2022-06-17T15:50:20.000Z</time>
      </trkpt>
      <trkpt lat="49.78132" lon="4.84083">
        <ele>193</ele>
        <time>2022-06-17T15:50:21.000Z</time>
      </trkpt>
      <trkpt lat="49.7813" lon="4.84081">
        <ele>193</ele>
        <time>2022-06-17T15:50:22.000Z</time>
      </trkpt>
      <trkpt lat="49.78128" lon="4.84079">
        <ele>194</ele>
        <time>2022-06-17T15:50:23.000Z</time>
      </trkpt>
      <trkpt lat="49.78126" lon="4.84078">
        <ele>194</ele>
        <time>2022-06-17T15:50:24.000Z</time>
      </trkpt>
      <trkpt lat="49.78123" lon="4.84076">
        <ele>194</ele>
        <time>2022-06-17T15:50:25.000Z</time>
      </trkpt>
      <trkpt lat="49.7812" lon="4.84075">
        <ele>194</ele>
        <time>2022-06-17T15:50:26.000Z</time>
      </trkpt>
      <trkpt lat="49.78117" lon="4.84073">
        <ele>194</ele>
        <time>2022-06-17T15:50:27.000Z</time>
      </trkpt>
      <trkpt lat="49.78113" lon="4.8407">
        <ele>194</ele>
        <time>2022-06-17T15:50:28.000Z</time>
      </trkpt>
      <trkpt lat="49.7811" lon="4.84068">
        <ele>194</ele>
        <time>2022-06-17T15:50:29.000Z</time>
      </trkpt>
      <trkpt lat="49.78106" lon="4.84065">
        <ele>194</ele>
        <time>2022-06-17T15:50:30.000Z</time>
      </trkpt>
      <trkpt lat="49.78103" lon="4.84063">
        <ele>195</ele>
        <time>2022-06-17T15:50:31.000Z</time>
      </trkpt>
      <trkpt lat="49.781" lon="4.8406">
        <ele>195</ele>
        <time>2022-06-17T15:50:32.000Z</time>
      </trkpt>
      <trkpt lat="49.78096" lon="4.84059">
        <ele>195</ele>
        <time>2022-06-17T15:50:33.000Z</time>
      </trkpt>
      <trkpt lat="49.78092" lon="4.84057">
        <ele>195</ele>
        <time>2022-06-17T15:50:34.000Z</time>
      </trkpt>
      <trkpt lat="49.78089" lon="4.84056">
        <ele>195</ele>
        <time>2022-06-17T15:50:35.000Z</time>
      </trkpt>
      <trkpt lat="49.78086" lon="4.84055">
        <ele>195</ele>
        <time>2022-06-17T15:50:36.000Z</time>
      </trkpt>
      <trkpt lat="49.78083" lon="4.84053">
        <ele>195</ele>
        <time>2022-06-17T15:50:37.000Z</time>
      </trkpt>
      <trkpt lat="49.78079" lon="4.84051">
        <ele>195</ele>
        <time>2022-06-17T15:50:38.000Z</time>
      </trkpt>
      <trkpt lat="49.78074" lon="4.84048">
        <ele>196</ele>
        <time>2022-06-17T15:50:39.000Z</time>
      </trkpt>
      <trkpt lat="49.78071" lon="4.84046">
        <ele>196</ele>
        <time>2022-06-17T15:50:40.000Z</time>
      </trkpt>
      <trkpt lat="49.78067" lon="4.84044">
        <ele>196</ele>
        <time>2022-06-17T15:50:41.000Z</time>
      </trkpt>
      <trkpt lat="49.78064" lon="4.84042">
        <ele>196</ele>
        <time>2022-06-17T15:50:42.000Z</time>
      </trkpt>
      <trkpt lat="49.7806" lon="4.84039">
        <ele>196</ele>
        <time>2022-06-17T15:50:43.000Z</time>
      </trkpt>
      <trkpt lat="49.78055" lon="4.84036">
        <ele>197</ele>
        <time>2022-06-17T15:50:44.000Z</time>
      </trkpt>
      <trkpt lat="49.78051" lon="4.84034">
        <ele>197</ele>
        <time>2022-06-17T15:50:45.000Z</time>
      </trkpt>
      <trkpt lat="49.78047" lon="4.84032">
        <ele>197</ele>
        <time>2022-06-17T15:50:46.000Z</time>
      </trkpt>
      <trkpt lat="49.78043" lon="4.84029">
        <ele>197</ele>
        <time>2022-06-17T15:50:47.000Z</time>
      </trkpt>
      <trkpt lat="49.78039" lon="4.84026">
        <ele>197</ele>
        <time>2022-06-17T15:50:48.000Z</time>
      </trkpt>
      <trkpt lat="49.78034" lon="4.84024">
        <ele>198</ele>
        <time>2022-06-17T15:50:49.000Z</time>
      </trkpt>
      <trkpt lat="49.7803" lon="4.8402">
        <ele>198</ele>
        <time>2022-06-17T15:50:50.000Z</time>
      </trkpt>
      <trkpt lat="49.78026" lon="4.84017">
        <ele>198</ele>
        <time>2022-06-17T15:50:51.000Z</time>
      </trkpt>
      <trkpt lat="49.78022" lon="4.84013">
        <ele>198</ele>
        <time>2022-06-17T15:50:52.000Z</time>
      </trkpt>
      <trkpt lat="49.78018" lon="4.8401">
        <ele>198</ele>
        <time>2022-06-17T15:50:53.000Z</time>
      </trkpt>
      <trkpt lat="49.78014" lon="4.84006">
        <ele>198</ele>
        <time>2022-06-17T15:50:54.000Z</time>
      </trkpt>
      <trkpt lat="49.7801" lon="4.84002">
        <ele>198</ele>
        <time>2022-06-17T15:50:55.000Z</time>
      </trkpt>
      <trkpt lat="49.78006" lon="4.83997">
        <ele>198</ele>
        <time>2022-06-17T15:50:56.000Z</time>
      </trkpt>
      <trkpt lat="49.78001" lon="4.83992">
        <ele>198</ele>
        <time>2022-06-17T15:50:57.000Z</time>
      </trkpt>
      <trkpt lat="49.77997" lon="4.83987">
        <ele>198</ele>
        <time>2022-06-17T15:50:58.000Z</time>
      </trkpt>
      <trkpt lat="49.77993" lon="4.83982">
        <ele>198</ele>
        <time>2022-06-17T15:50:59.000Z</time>
      </trkpt>
      <trkpt lat="49.77988" lon="4.83977">
        <ele>198</ele>
        <time>2022-06-17T15:51:00.000Z</time>
      </trkpt>
      <trkpt lat="49.77984" lon="4.83972">
        <ele>198</ele>
        <time>2022-06-17T15:51:01.000Z</time>
      </trkpt>
      <trkpt lat="49.7798" lon="4.83968">
        <ele>198</ele>
        <time>2022-06-17T15:51:02.000Z</time>
      </trkpt>
      <trkpt lat="49.77976" lon="4.83963">
        <ele>198</ele>
        <time>2022-06-17T15:51:03.000Z</time>
      </trkpt>
      <trkpt lat="49.77971" lon="4.83958">
        <ele>198</ele>
        <time>2022-06-17T15:51:04.000Z</time>
      </trkpt>
      <trkpt lat="49.77967" lon="4.83953">
        <ele>198</ele>
        <time>2022-06-17T15:51:05.000Z</time>
      </trkpt>
      <trkpt lat="49.77963" lon="4.83948">
        <ele>198</ele>
        <time>2022-06-17T15:51:06.000Z</time>
      </trkpt>
      <trkpt lat="49.77959" lon="4.83942">
        <ele>198</ele>
        <time>2022-06-17T15:51:07.000Z</time>
      </trkpt>
      <trkpt lat="49.77955" lon="4.83937">
        <ele>198</ele>
        <time>2022-06-17T15:51:08.000Z</time>
      </trkpt>
      <trkpt lat="49.77952" lon="4.83933">
        <ele>198</ele>
        <time>2022-06-17T15:51:09.000Z</time>
      </trkpt>
      <trkpt lat="49.77948" lon="4.83928">
        <ele>198</ele>
        <time>2022-06-17T15:51:10.000Z</time>
      </trkpt>
      <trkpt lat="49.77945" lon="4.83924">
        <ele>198</ele>
        <time>2022-06-17T15:51:11.000Z</time>
      </trkpt>
      <trkpt lat="49.77942" lon="4.83919">
        <ele>198</ele>
        <time>2022-06-17T15:51:12.000Z</time>
      </trkpt>
      <trkpt lat="49.7794" lon="4.83913">
        <ele>198</ele>
        <time>2022-06-17T15:51:13.000Z</time>
      </trkpt>
      <trkpt lat="49.7794" lon="4.83907">
        <ele>198</ele>
        <time>2022-06-17T15:51:14.000Z</time>
      </trkpt>
      <trkpt lat="49.77943" lon="4.83901">
        <ele>198</ele>
        <time>2022-06-17T15:51:15.000Z</time>
      </trkpt>
      <trkpt lat="49.77947" lon="4.83895">
        <ele>197</ele>
        <time>2022-06-17T15:51:16.000Z</time>
      </trkpt>
      <trkpt lat="49.77953" lon="4.83889">
        <ele>197</ele>
        <time>2022-06-17T15:51:17.000Z</time>
      </trkpt>
      <trkpt lat="49.7796" lon="4.83883">
        <ele>197</ele>
        <time>2022-06-17T15:51:18.000Z</time>
      </trkpt>
      <trkpt lat="49.77966" lon="4.83877">
        <ele>196</ele>
        <time>2022-06-17T15:51:19.000Z</time>
      </trkpt>
      <trkpt lat="49.77972" lon="4.8387">
        <ele>196</ele>
        <time>2022-06-17T15:51:20.000Z</time>
      </trkpt>
      <trkpt lat="49.77978" lon="4.83863">
        <ele>196</ele>
        <time>2022-06-17T15:51:21.000Z</time>
      </trkpt>
      <trkpt lat="49.77984" lon="4.83856">
        <ele>195</ele>
        <time>2022-06-17T15:51:22.000Z</time>
      </trkpt>
      <trkpt lat="49.7799" lon="4.83851">
        <ele>195</ele>
        <time>2022-06-17T15:51:23.000Z</time>
      </trkpt>
      <trkpt lat="49.77996" lon="4.83847">
        <ele>195</ele>
        <time>2022-06-17T15:51:24.000Z</time>
      </trkpt>
      <trkpt lat="49.78002" lon="4.83846">
        <ele>195</ele>
        <time>2022-06-17T15:51:25.000Z</time>
      </trkpt>
      <trkpt lat="49.78009" lon="4.83846">
        <ele>195</ele>
        <time>2022-06-17T15:51:26.000Z</time>
      </trkpt>
      <trkpt lat="49.78016" lon="4.83846">
        <ele>194</ele>
        <time>2022-06-17T15:51:27.000Z</time>
      </trkpt>
      <trkpt lat="49.78022" lon="4.83846">
        <ele>194</ele>
        <time>2022-06-17T15:51:28.000Z</time>
      </trkpt>
      <trkpt lat="49.78028" lon="4.83845">
        <ele>194</ele>
        <time>2022-06-17T15:51:29.000Z</time>
      </trkpt>
      <trkpt lat="49.78033" lon="4.83846">
        <ele>194</ele>
        <time>2022-06-17T15:51:30.000Z</time>
      </trkpt>
      <trkpt lat="49.78039" lon="4.83846">
        <ele>193</ele>
        <time>2022-06-17T15:51:31.000Z</time>
      </trkpt>
      <trkpt lat="49.78045" lon="4.83846">
        <ele>193</ele>
        <time>2022-06-17T15:51:32.000Z</time>
      </trkpt>
      <trkpt lat="49.7805" lon="4.83846">
        <ele>193</ele>
        <time>2022-06-17T15:51:33.000Z</time>
      </trkpt>
      <trkpt lat="49.78056" lon="4.83846">
        <ele>193</ele>
        <time>2022-06-17T15:51:34.000Z</time>
      </trkpt>
      <trkpt lat="49.78061" lon="4.83847">
        <ele>193</ele>
        <time>2022-06-17T15:51:35.000Z</time>
      </trkpt>
      <trkpt lat="49.78067" lon="4.83848">
        <ele>192</ele>
        <time>2022-06-17T15:51:36.000Z</time>
      </trkpt>
      <trkpt lat="49.78072" lon="4.83848">
        <ele>192</ele>
        <time>2022-06-17T15:51:37.000Z</time>
      </trkpt>
      <trkpt lat="49.78077" lon="4.83849">
        <ele>192</ele>
        <time>2022-06-17T15:51:38.000Z</time>
      </trkpt>
      <trkpt lat="49.78082" lon="4.83849">
        <ele>192</ele>
        <time>2022-06-17T15:51:39.000Z</time>
      </trkpt>
      <trkpt lat="49.78086" lon="4.8385">
        <ele>192</ele>
        <time>2022-06-17T15:51:40.000Z</time>
      </trkpt>
      <trkpt lat="49.78091" lon="4.8385">
        <ele>192</ele>
        <time>2022-06-17T15:51:41.000Z</time>
      </trkpt>
      <trkpt lat="49.78095" lon="4.8385">
        <ele>192</ele>
        <time>2022-06-17T15:51:42.000Z</time>
      </trkpt>
      <trkpt lat="49.781" lon="4.8385">
        <ele>191</ele>
        <time>2022-06-17T15:51:43.000Z</time>
      </trkpt>
      <trkpt lat="49.78105" lon="4.83851">
        <ele>191</ele>
        <time>2022-06-17T15:51:44.000Z</time>
      </trkpt>
      <trkpt lat="49.78109" lon="4.83851">
        <ele>191</ele>
        <time>2022-06-17T15:51:45.000Z</time>
      </trkpt>
      <trkpt lat="49.78113" lon="4.83851">
        <ele>191</ele>
        <time>2022-06-17T15:51:46.000Z</time>
      </trkpt>
      <trkpt lat="49.78117" lon="4.83851">
        <ele>191</ele>
        <time>2022-06-17T15:51:47.000Z</time>
      </trkpt>
      <trkpt lat="49.78122" lon="4.8385">
        <ele>191</ele>
        <time>2022-06-17T15:51:48.000Z</time>
      </trkpt>
      <trkpt lat="49.78126" lon="4.8385">
        <ele>190</ele>
        <time>2022-06-17T15:51:49.000Z</time>
      </trkpt>
      <trkpt lat="49.78131" lon="4.8385">
        <ele>190</ele>
        <time>2022-06-17T15:51:50.000Z</time>
      </trkpt>
      <trkpt lat="49.78136" lon="4.8385">
        <ele>190</ele>
        <time>2022-06-17T15:51:51.000Z</time>
      </trkpt>
      <trkpt lat="49.78141" lon="4.8385">
        <ele>190</ele>
        <time>2022-06-17T15:51:52.000Z</time>
      </trkpt>
      <trkpt lat="49.78146" lon="4.83849">
        <ele>190</ele>
        <time>2022-06-17T15:51:53.000Z</time>
      </trkpt>
      <trkpt lat="49.7815" lon="4.83848">
        <ele>190</ele>
        <time>2022-06-17T15:51:54.000Z</time>
      </trkpt>
      <trkpt lat="49.78155" lon="4.83847">
        <ele>190</ele>
        <time>2022-06-17T15:51:55.000Z</time>
      </trkpt>
      <trkpt lat="49.7816" lon="4.83845">
        <ele>190</ele>
        <time>2022-06-17T15:51:56.000Z</time>
      </trkpt>
      <trkpt lat="49.78165" lon="4.83843">
        <ele>190</ele>
        <time>2022-06-17T15:51:57.000Z</time>
      </trkpt>
      <trkpt lat="49.78169" lon="4.83841">
        <ele>190</ele>
        <time>2022-06-17T15:51:58.000Z</time>
      </trkpt>
      <trkpt lat="49.78173" lon="4.83839">
        <ele>190</ele>
        <time>2022-06-17T15:51:59.000Z</time>
      </trkpt>
      <trkpt lat="49.78176" lon="4.83837">
        <ele>190</ele>
        <time>2022-06-17T15:52:00.000Z</time>
      </trkpt>
      <trkpt lat="49.78179" lon="4.83835">
        <ele>190</ele>
        <time>2022-06-17T15:52:01.000Z</time>
      </trkpt>
      <trkpt lat="49.78182" lon="4.83832">
        <ele>190</ele>
        <time>2022-06-17T15:52:02.000Z</time>
      </trkpt>
      <trkpt lat="49.78184" lon="4.8383">
        <ele>190</ele>
        <time>2022-06-17T15:52:03.000Z</time>
      </trkpt>
      <trkpt lat="49.78186" lon="4.83828">
        <ele>190</ele>
        <time>2022-06-17T15:52:04.000Z</time>
      </trkpt>
      <trkpt lat="49.78188" lon="4.83825">
        <ele>190</ele>
        <time>2022-06-17T15:52:05.000Z</time>
      </trkpt>
      <trkpt lat="49.7819" lon="4.83822">
        <ele>190</ele>
        <time>2022-06-17T15:52:06.000Z</time>
      </trkpt>
      <trkpt lat="49.78192" lon="4.83819">
        <ele>190</ele>
        <time>2022-06-17T15:52:07.000Z</time>
      </trkpt>
      <trkpt lat="49.78194" lon="4.83816">
        <ele>190</ele>
        <time>2022-06-17T15:52:08.000Z</time>
      </trkpt>
      <trkpt lat="49.78197" lon="4.83813">
        <ele>190</ele>
        <time>2022-06-17T15:52:09.000Z</time>
      </trkpt>
      <trkpt lat="49.78199" lon="4.83811">
        <ele>190</ele>
        <time>2022-06-17T15:52:10.000Z</time>
      </trkpt>
      <trkpt lat="49.78202" lon="4.83808">
        <ele>190</ele>
        <time>2022-06-17T15:52:11.000Z</time>
      </trkpt>
      <trkpt lat="49.78205" lon="4.83805">
        <ele>190</ele>
        <time>2022-06-17T15:52:12.000Z</time>
      </trkpt>
      <trkpt lat="49.78208" lon="4.83803">
        <ele>190</ele>
        <time>2022-06-17T15:52:13.000Z</time>
      </trkpt>
      <trkpt lat="49.78211" lon="4.83801">
        <ele>190</ele>
        <time>2022-06-17T15:52:14.000Z</time>
      </trkpt>
      <trkpt lat="49.78213" lon="4.83799">
        <ele>190</ele>
        <time>2022-06-17T15:52:15.000Z</time>
      </trkpt>
      <trkpt lat="49.78215" lon="4.83797">
        <ele>190</ele>
        <time>2022-06-17T15:52:16.000Z</time>
      </trkpt>
      <trkpt lat="49.78217" lon="4.83795">
        <ele>190</ele>
        <time>2022-06-17T15:52:17.000Z</time>
      </trkpt>
      <trkpt lat="49.78218" lon="4.83793">
        <ele>190</ele>
        <time>2022-06-17T15:52:18.000Z</time>
      </trkpt>
      <trkpt lat="49.78218" lon="4.83791">
        <ele>190</ele>
        <time>2022-06-17T15:52:19.000Z</time>
      </trkpt>
      <trkpt lat="49.78218" lon="4.83789">
        <ele>190</ele>
        <time>2022-06-17T15:52:20.000Z</time>
      </trkpt>
      <trkpt lat="49.78218" lon="4.83787">
        <ele>190</ele>
        <time>2022-06-17T15:52:21.000Z</time>
      </trkpt>
      <trkpt lat="49.78217" lon="4.83784">
        <ele>191</ele>
        <time>2022-06-17T15:52:22.000Z</time>
      </trkpt>
      <trkpt lat="49.78217" lon="4.83781">
        <ele>191</ele>
        <time>2022-06-17T15:52:23.000Z</time>
      </trkpt>
      <trkpt lat="49.78218" lon="4.83777">
        <ele>191</ele>
        <time>2022-06-17T15:52:24.000Z</time>
      </trkpt>
      <trkpt lat="49.78219" lon="4.83773">
        <ele>192</ele>
        <time>2022-06-17T15:52:25.000Z</time>
      </trkpt>
      <trkpt lat="49.7822" lon="4.83769">
        <ele>192</ele>
        <time>2022-06-17T15:52:26.000Z</time>
      </trkpt>
      <trkpt lat="49.7822" lon="4.83765">
        <ele>192</ele>
        <time>2022-06-17T15:52:27.000Z</time>
      </trkpt>
      <trkpt lat="49.7822" lon="4.83762">
        <ele>193</ele>
        <time>2022-06-17T15:52:28.000Z</time>
      </trkpt>
      <trkpt lat="49.78219" lon="4.83758">
        <ele>193</ele>
        <time>2022-06-17T15:52:29.000Z</time>
      </trkpt>
      <trkpt lat="49.7822" lon="4.83754">
        <ele>194</ele>
        <time>2022-06-17T15:52:30.000Z</time>
      </trkpt>
      <trkpt lat="49.7822" lon="4.83751">
        <ele>194</ele>
        <time>2022-06-17T15:52:31.000Z</time>
      </trkpt>
      <trkpt lat="49.78221" lon="4.83748">
        <ele>194</ele>
        <time>2022-06-17T15:52:32.000Z</time>
      </trkpt>
      <trkpt lat="49.78222" lon="4.83744">
        <ele>194</ele>
        <time>2022-06-17T15:52:33.000Z</time>
      </trkpt>
      <trkpt lat="49.78223" lon="4.83739">
        <ele>195</ele>
        <time>2022-06-17T15:52:34.000Z</time>
      </trkpt>
      <trkpt lat="49.78223" lon="4.83735">
        <ele>195</ele>
        <time>2022-06-17T15:52:35.000Z</time>
      </trkpt>
      <trkpt lat="49.78224" lon="4.83731">
        <ele>195</ele>
        <time>2022-06-17T15:52:36.000Z</time>
      </trkpt>
      <trkpt lat="49.78224" lon="4.83727">
        <ele>195</ele>
        <time>2022-06-17T15:52:37.000Z</time>
      </trkpt>
      <trkpt lat="49.78224" lon="4.83723">
        <ele>196</ele>
        <time>2022-06-17T15:52:38.000Z</time>
      </trkpt>
      <trkpt lat="49.78223" lon="4.83719">
        <ele>196</ele>
        <time>2022-06-17T15:52:39.000Z</time>
      </trkpt>
      <trkpt lat="49.78222" lon="4.83716">
        <ele>196</ele>
        <time>2022-06-17T15:52:40.000Z</time>
      </trkpt>
      <trkpt lat="49.78221" lon="4.83713">
        <ele>197</ele>
        <time>2022-06-17T15:52:41.000Z</time>
      </trkpt>
      <trkpt lat="49.7822" lon="4.83709">
        <ele>197</ele>
        <time>2022-06-17T15:52:42.000Z</time>
      </trkpt>
      <trkpt lat="49.78218" lon="4.83706">
        <ele>197</ele>
        <time>2022-06-17T15:52:43.000Z</time>
      </trkpt>
      <trkpt lat="49.78217" lon="4.83703">
        <ele>198</ele>
        <time>2022-06-17T15:52:44.000Z</time>
      </trkpt>
      <trkpt lat="49.78215" lon="4.837">
        <ele>198</ele>
        <time>2022-06-17T15:52:45.000Z</time>
      </trkpt>
      <trkpt lat="49.78215" lon="4.83696">
        <ele>198</ele>
        <time>2022-06-17T15:52:46.000Z</time>
      </trkpt>
      <trkpt lat="49.78213" lon="4.83693">
        <ele>199</ele>
        <time>2022-06-17T15:52:47.000Z</time>
      </trkpt>
      <trkpt lat="49.78212" lon="4.83689">
        <ele>199</ele>
        <time>2022-06-17T15:52:48.000Z</time>
      </trkpt>
      <trkpt lat="49.78212" lon="4.83686">
        <ele>199</ele>
        <time>2022-06-17T15:52:49.000Z</time>
      </trkpt>
      <trkpt lat="49.78211" lon="4.83683">
        <ele>200</ele>
        <time>2022-06-17T15:52:50.000Z</time>
      </trkpt>
      <trkpt lat="49.7821" lon="4.83679">
        <ele>200</ele>
        <time>2022-06-17T15:52:51.000Z</time>
      </trkpt>
      <trkpt lat="49.7821" lon="4.83676">
        <ele>200</ele>
        <time>2022-06-17T15:52:52.000Z</time>
      </trkpt>
      <trkpt lat="49.7821" lon="4.83672">
        <ele>201</ele>
        <time>2022-06-17T15:52:53.000Z</time>
      </trkpt>
      <trkpt lat="49.78211" lon="4.83668">
        <ele>201</ele>
        <time>2022-06-17T15:52:54.000Z</time>
      </trkpt>
      <trkpt lat="49.78212" lon="4.83665">
        <ele>201</ele>
        <time>2022-06-17T15:52:55.000Z</time>
      </trkpt>
      <trkpt lat="49.78212" lon="4.83662">
        <ele>202</ele>
        <time>2022-06-17T15:52:56.000Z</time>
      </trkpt>
      <trkpt lat="49.78212" lon="4.83658">
        <ele>202</ele>
        <time>2022-06-17T15:52:57.000Z</time>
      </trkpt>
      <trkpt lat="49.78212" lon="4.83654">
        <ele>202</ele>
        <time>2022-06-17T15:52:58.000Z</time>
      </trkpt>
      <trkpt lat="49.78212" lon="4.83649">
        <ele>202</ele>
        <time>2022-06-17T15:52:59.000Z</time>
      </trkpt>
      <trkpt lat="49.78211" lon="4.83645">
        <ele>203</ele>
        <time>2022-06-17T15:53:00.000Z</time>
      </trkpt>
      <trkpt lat="49.78211" lon="4.83642">
        <ele>203</ele>
        <time>2022-06-17T15:53:01.000Z</time>
      </trkpt>
      <trkpt lat="49.7821" lon="4.83638">
        <ele>203</ele>
        <time>2022-06-17T15:53:02.000Z</time>
      </trkpt>
      <trkpt lat="49.78209" lon="4.83635">
        <ele>203</ele>
        <time>2022-06-17T15:53:03.000Z</time>
      </trkpt>
      <trkpt lat="49.78208" lon="4.83632">
        <ele>204</ele>
        <time>2022-06-17T15:53:04.000Z</time>
      </trkpt>
      <trkpt lat="49.78207" lon="4.83628">
        <ele>204</ele>
        <time>2022-06-17T15:53:05.000Z</time>
      </trkpt>
      <trkpt lat="49.78206" lon="4.83624">
        <ele>204</ele>
        <time>2022-06-17T15:53:06.000Z</time>
      </trkpt>
      <trkpt lat="49.78204" lon="4.83621">
        <ele>204</ele>
        <time>2022-06-17T15:53:07.000Z</time>
      </trkpt>
      <trkpt lat="49.78203" lon="4.83618">
        <ele>205</ele>
        <time>2022-06-17T15:53:08.000Z</time>
      </trkpt>
      <trkpt lat="49.78201" lon="4.83615">
        <ele>205</ele>
        <time>2022-06-17T15:53:09.000Z</time>
      </trkpt>
      <trkpt lat="49.78199" lon="4.83613">
        <ele>205</ele>
        <time>2022-06-17T15:53:10.000Z</time>
      </trkpt>
      <trkpt lat="49.78197" lon="4.83612">
        <ele>205</ele>
        <time>2022-06-17T15:53:11.000Z</time>
      </trkpt>
      <trkpt lat="49.78195" lon="4.8361">
        <ele>206</ele>
        <time>2022-06-17T15:53:12.000Z</time>
      </trkpt>
      <trkpt lat="49.78193" lon="4.83606">
        <ele>206</ele>
        <time>2022-06-17T15:53:13.000Z</time>
      </trkpt>
      <trkpt lat="49.78192" lon="4.83602">
        <ele>206</ele>
        <time>2022-06-17T15:53:14.000Z</time>
      </trkpt>
      <trkpt lat="49.78191" lon="4.83597">
        <ele>206</ele>
        <time>2022-06-17T15:53:15.000Z</time>
      </trkpt>
      <trkpt lat="49.78189" lon="4.83592">
        <ele>206</ele>
        <time>2022-06-17T15:53:16.000Z</time>
      </trkpt>
      <trkpt lat="49.78188" lon="4.83589">
        <ele>206</ele>
        <time>2022-06-17T15:53:17.000Z</time>
      </trkpt>
      <trkpt lat="49.78186" lon="4.83587">
        <ele>206</ele>
        <time>2022-06-17T15:53:18.000Z</time>
      </trkpt>
      <trkpt lat="49.78183" lon="4.83584">
        <ele>206</ele>
        <time>2022-06-17T15:53:19.000Z</time>
      </trkpt>
      <trkpt lat="49.78181" lon="4.83582">
        <ele>207</ele>
        <time>2022-06-17T15:53:20.000Z</time>
      </trkpt>
      <trkpt lat="49.78179" lon="4.83579">
        <ele>207</ele>
        <time>2022-06-17T15:53:21.000Z</time>
      </trkpt>
      <trkpt lat="49.78176" lon="4.83576">
        <ele>207</ele>
        <time>2022-06-17T15:53:22.000Z</time>
      </trkpt>
      <trkpt lat="49.78174" lon="4.83573">
        <ele>207</ele>
        <time>2022-06-17T15:53:23.000Z</time>
      </trkpt>
      <trkpt lat="49.78172" lon="4.8357">
        <ele>207</ele>
        <time>2022-06-17T15:53:24.000Z</time>
      </trkpt>
      <trkpt lat="49.7817" lon="4.83568">
        <ele>207</ele>
        <time>2022-06-17T15:53:25.000Z</time>
      </trkpt>
      <trkpt lat="49.78168" lon="4.83566">
        <ele>207</ele>
        <time>2022-06-17T15:53:26.000Z</time>
      </trkpt>
      <trkpt lat="49.78167" lon="4.83563">
        <ele>207</ele>
        <time>2022-06-17T15:53:27.000Z</time>
      </trkpt>
      <trkpt lat="49.78165" lon="4.8356">
        <ele>208</ele>
        <time>2022-06-17T15:53:28.000Z</time>
      </trkpt>
      <trkpt lat="49.78163" lon="4.83558">
        <ele>208</ele>
        <time>2022-06-17T15:53:29.000Z</time>
      </trkpt>
      <trkpt lat="49.78162" lon="4.83555">
        <ele>208</ele>
        <time>2022-06-17T15:53:30.000Z</time>
      </trkpt>
      <trkpt lat="49.7816" lon="4.83552">
        <ele>208</ele>
        <time>2022-06-17T15:53:31.000Z</time>
      </trkpt>
      <trkpt lat="49.78159" lon="4.83549">
        <ele>208</ele>
        <time>2022-06-17T15:53:32.000Z</time>
      </trkpt>
      <trkpt lat="49.78158" lon="4.83546">
        <ele>208</ele>
        <time>2022-06-17T15:53:33.000Z</time>
      </trkpt>
      <trkpt lat="49.78157" lon="4.83543">
        <ele>208</ele>
        <time>2022-06-17T15:53:34.000Z</time>
      </trkpt>
      <trkpt lat="49.78156" lon="4.8354">
        <ele>209</ele>
        <time>2022-06-17T15:53:35.000Z</time>
      </trkpt>
      <trkpt lat="49.78155" lon="4.83537">
        <ele>209</ele>
        <time>2022-06-17T15:53:36.000Z</time>
      </trkpt>
      <trkpt lat="49.78154" lon="4.83534">
        <ele>209</ele>
        <time>2022-06-17T15:53:37.000Z</time>
      </trkpt>
      <trkpt lat="49.78154" lon="4.83531">
        <ele>209</ele>
        <time>2022-06-17T15:53:38.000Z</time>
      </trkpt>
      <trkpt lat="49.78154" lon="4.83528">
        <ele>209</ele>
        <time>2022-06-17T15:53:39.000Z</time>
      </trkpt>
      <trkpt lat="49.78154" lon="4.83524">
        <ele>209</ele>
        <time>2022-06-17T15:53:40.000Z</time>
      </trkpt>
      <trkpt lat="49.78154" lon="4.8352">
        <ele>209</ele>
        <time>2022-06-17T15:53:41.000Z</time>
      </trkpt>
      <trkpt lat="49.78154" lon="4.83516">
        <ele>209</ele>
        <time>2022-06-17T15:53:42.000Z</time>
      </trkpt>
      <trkpt lat="49.78155" lon="4.83513">
        <ele>210</ele>
        <time>2022-06-17T15:53:43.000Z</time>
      </trkpt>
      <trkpt lat="49.78156" lon="4.83509">
        <ele>210</ele>
        <time>2022-06-17T15:53:44.000Z</time>
      </trkpt>
      <trkpt lat="49.78157" lon="4.83506">
        <ele>210</ele>
        <time>2022-06-17T15:53:45.000Z</time>
      </trkpt>
      <trkpt lat="49.78159" lon="4.83502">
        <ele>210</ele>
        <time>2022-06-17T15:53:46.000Z</time>
      </trkpt>
      <trkpt lat="49.78161" lon="4.83499">
        <ele>211</ele>
        <time>2022-06-17T15:53:47.000Z</time>
      </trkpt>
      <trkpt lat="49.78161" lon="4.83496">
        <ele>211</ele>
        <time>2022-06-17T15:53:48.000Z</time>
      </trkpt>
      <trkpt lat="49.78162" lon="4.83493">
        <ele>211</ele>
        <time>2022-06-17T15:53:49.000Z</time>
      </trkpt>
      <trkpt lat="49.78162" lon="4.83491">
        <ele>211</ele>
        <time>2022-06-17T15:53:50.000Z</time>
      </trkpt>
      <trkpt lat="49.78162" lon="4.83489">
        <ele>212</ele>
        <time>2022-06-17T15:53:51.000Z</time>
      </trkpt>
      <trkpt lat="49.78162" lon="4.83486">
        <ele>212</ele>
        <time>2022-06-17T15:53:52.000Z</time>
      </trkpt>
      <trkpt lat="49.78163" lon="4.83483">
        <ele>212</ele>
        <time>2022-06-17T15:53:53.000Z</time>
      </trkpt>
      <trkpt lat="49.78164" lon="4.8348">
        <ele>212</ele>
        <time>2022-06-17T15:53:54.000Z</time>
      </trkpt>
      <trkpt lat="49.78164" lon="4.83477">
        <ele>212</ele>
        <time>2022-06-17T15:53:55.000Z</time>
      </trkpt>
      <trkpt lat="49.78165" lon="4.83473">
        <ele>212</ele>
        <time>2022-06-17T15:53:56.000Z</time>
      </trkpt>
      <trkpt lat="49.78165" lon="4.8347">
        <ele>213</ele>
        <time>2022-06-17T15:53:57.000Z</time>
      </trkpt>
      <trkpt lat="49.78166" lon="4.83467">
        <ele>213</ele>
        <time>2022-06-17T15:53:58.000Z</time>
      </trkpt>
      <trkpt lat="49.78167" lon="4.83464">
        <ele>213</ele>
        <time>2022-06-17T15:53:59.000Z</time>
      </trkpt>
      <trkpt lat="49.78167" lon="4.83462">
        <ele>213</ele>
        <time>2022-06-17T15:54:00.000Z</time>
      </trkpt>
      <trkpt lat="49.78168" lon="4.83459">
        <ele>213</ele>
        <time>2022-06-17T15:54:01.000Z</time>
      </trkpt>
      <trkpt lat="49.78168" lon="4.83455">
        <ele>213</ele>
        <time>2022-06-17T15:54:02.000Z</time>
      </trkpt>
      <trkpt lat="49.78168" lon="4.83452">
        <ele>213</ele>
        <time>2022-06-17T15:54:03.000Z</time>
      </trkpt>
      <trkpt lat="49.78169" lon="4.83449">
        <ele>214</ele>
        <time>2022-06-17T15:54:04.000Z</time>
      </trkpt>
      <trkpt lat="49.78169" lon="4.83445">
        <ele>214</ele>
        <time>2022-06-17T15:54:05.000Z</time>
      </trkpt>
      <trkpt lat="49.78168" lon="4.83442">
        <ele>214</ele>
        <time>2022-06-17T15:54:06.000Z</time>
      </trkpt>
      <trkpt lat="49.78168" lon="4.83438">
        <ele>214</ele>
        <time>2022-06-17T15:54:07.000Z</time>
      </trkpt>
      <trkpt lat="49.78168" lon="4.83434">
        <ele>214</ele>
        <time>2022-06-17T15:54:08.000Z</time>
      </trkpt>
      <trkpt lat="49.78167" lon="4.8343">
        <ele>214</ele>
        <time>2022-06-17T15:54:09.000Z</time>
      </trkpt>
      <trkpt lat="49.78167" lon="4.83425">
        <ele>214</ele>
        <time>2022-06-17T15:54:10.000Z</time>
      </trkpt>
      <trkpt lat="49.78167" lon="4.83421">
        <ele>214</ele>
        <time>2022-06-17T15:54:11.000Z</time>
      </trkpt>
      <trkpt lat="49.78167" lon="4.83417">
        <ele>214</ele>
        <time>2022-06-17T15:54:12.000Z</time>
      </trkpt>
      <trkpt lat="49.78166" lon="4.83414">
        <ele>215</ele>
        <time>2022-06-17T15:54:13.000Z</time>
      </trkpt>
      <trkpt lat="49.78165" lon="4.8341">
        <ele>215</ele>
        <time>2022-06-17T15:54:14.000Z</time>
      </trkpt>
      <trkpt lat="49.78164" lon="4.83407">
        <ele>215</ele>
        <time>2022-06-17T15:54:15.000Z</time>
      </trkpt>
      <trkpt lat="49.78162" lon="4.83403">
        <ele>215</ele>
        <time>2022-06-17T15:54:16.000Z</time>
      </trkpt>
      <trkpt lat="49.78162" lon="4.834">
        <ele>215</ele>
        <time>2022-06-17T15:54:17.000Z</time>
      </trkpt>
      <trkpt lat="49.7816" lon="4.83397">
        <ele>216</ele>
        <time>2022-06-17T15:54:18.000Z</time>
      </trkpt>
      <trkpt lat="49.78158" lon="4.83393">
        <ele>216</ele>
        <time>2022-06-17T15:54:19.000Z</time>
      </trkpt>
      <trkpt lat="49.78156" lon="4.83389">
        <ele>216</ele>
        <time>2022-06-17T15:54:20.000Z</time>
      </trkpt>
      <trkpt lat="49.78155" lon="4.83385">
        <ele>217</ele>
        <time>2022-06-17T15:54:21.000Z</time>
      </trkpt>
      <trkpt lat="49.78153" lon="4.83381">
        <ele>217</ele>
        <time>2022-06-17T15:54:22.000Z</time>
      </trkpt>
      <trkpt lat="49.78151" lon="4.83377">
        <ele>217</ele>
        <time>2022-06-17T15:54:23.000Z</time>
      </trkpt>
      <trkpt lat="49.78149" lon="4.83373">
        <ele>217</ele>
        <time>2022-06-17T15:54:24.000Z</time>
      </trkpt>
      <trkpt lat="49.78148" lon="4.8337">
        <ele>217</ele>
        <time>2022-06-17T15:54:25.000Z</time>
      </trkpt>
      <trkpt lat="49.78146" lon="4.83366">
        <ele>218</ele>
        <time>2022-06-17T15:54:26.000Z</time>
      </trkpt>
      <trkpt lat="49.78144" lon="4.83363">
        <ele>218</ele>
        <time>2022-06-17T15:54:27.000Z</time>
      </trkpt>
      <trkpt lat="49.78143" lon="4.83361">
        <ele>218</ele>
        <time>2022-06-17T15:54:28.000Z</time>
      </trkpt>
      <trkpt lat="49.78141" lon="4.83358">
        <ele>218</ele>
        <time>2022-06-17T15:54:29.000Z</time>
      </trkpt>
      <trkpt lat="49.7814" lon="4.83354">
        <ele>218</ele>
        <time>2022-06-17T15:54:30.000Z</time>
      </trkpt>
      <trkpt lat="49.78138" lon="4.83351">
        <ele>218</ele>
        <time>2022-06-17T15:54:31.000Z</time>
      </trkpt>
      <trkpt lat="49.78137" lon="4.83348">
        <ele>218</ele>
        <time>2022-06-17T15:54:32.000Z</time>
      </trkpt>
      <trkpt lat="49.78135" lon="4.83344">
        <ele>219</ele>
        <time>2022-06-17T15:54:33.000Z</time>
      </trkpt>
      <trkpt lat="49.78134" lon="4.83341">
        <ele>219</ele>
        <time>2022-06-17T15:54:34.000Z</time>
      </trkpt>
      <trkpt lat="49.78133" lon="4.83339">
        <ele>219</ele>
        <time>2022-06-17T15:54:35.000Z</time>
      </trkpt>
      <trkpt lat="49.78132" lon="4.83336">
        <ele>219</ele>
        <time>2022-06-17T15:54:36.000Z</time>
      </trkpt>
      <trkpt lat="49.78131" lon="4.83333">
        <ele>219</ele>
        <time>2022-06-17T15:54:37.000Z</time>
      </trkpt>
      <trkpt lat="49.7813" lon="4.83331">
        <ele>219</ele>
        <time>2022-06-17T15:54:38.000Z</time>
      </trkpt>
      <trkpt lat="49.78129" lon="4.83329">
        <ele>219</ele>
        <time>2022-06-17T15:54:39.000Z</time>
      </trkpt>
      <trkpt lat="49.78128" lon="4.83326">
        <ele>219</ele>
        <time>2022-06-17T15:54:40.000Z</time>
      </trkpt>
      <trkpt lat="49.78126" lon="4.83324">
        <ele>220</ele>
        <time>2022-06-17T15:54:41.000Z</time>
      </trkpt>
      <trkpt lat="49.78125" lon="4.83321">
        <ele>220</ele>
        <time>2022-06-17T15:54:42.000Z</time>
      </trkpt>
      <trkpt lat="49.78124" lon="4.83319">
        <ele>220</ele>
        <time>2022-06-17T15:54:43.000Z</time>
      </trkpt>
      <trkpt lat="49.78123" lon="4.83316">
        <ele>220</ele>
        <time>2022-06-17T15:54:44.000Z</time>
      </trkpt>
      <trkpt lat="49.78121" lon="4.83313">
        <ele>220</ele>
        <time>2022-06-17T15:54:45.000Z</time>
      </trkpt>
      <trkpt lat="49.7812" lon="4.8331">
        <ele>220</ele>
        <time>2022-06-17T15:54:46.000Z</time>
      </trkpt>
      <trkpt lat="49.78118" lon="4.83307">
        <ele>221</ele>
        <time>2022-06-17T15:54:47.000Z</time>
      </trkpt>
      <trkpt lat="49.78116" lon="4.83304">
        <ele>221</ele>
        <time>2022-06-17T15:54:48.000Z</time>
      </trkpt>
      <trkpt lat="49.78115" lon="4.83301">
        <ele>221</ele>
        <time>2022-06-17T15:54:49.000Z</time>
      </trkpt>
      <trkpt lat="49.78114" lon="4.83298">
        <ele>221</ele>
        <time>2022-06-17T15:54:50.000Z</time>
      </trkpt>
      <trkpt lat="49.78112" lon="4.83295">
        <ele>221</ele>
        <time>2022-06-17T15:54:51.000Z</time>
      </trkpt>
      <trkpt lat="49.78111" lon="4.83292">
        <ele>221</ele>
        <time>2022-06-17T15:54:52.000Z</time>
      </trkpt>
      <trkpt lat="49.78109" lon="4.83289">
        <ele>222</ele>
        <time>2022-06-17T15:54:53.000Z</time>
      </trkpt>
      <trkpt lat="49.78108" lon="4.83285">
        <ele>222</ele>
        <time>2022-06-17T15:54:54.000Z</time>
      </trkpt>
      <trkpt lat="49.78107" lon="4.83282">
        <ele>222</ele>
        <time>2022-06-17T15:54:55.000Z</time>
      </trkpt>
      <trkpt lat="49.78105" lon="4.83279">
        <ele>222</ele>
        <time>2022-06-17T15:54:56.000Z</time>
      </trkpt>
      <trkpt lat="49.78104" lon="4.83275">
        <ele>222</ele>
        <time>2022-06-17T15:54:57.000Z</time>
      </trkpt>
      <trkpt lat="49.78102" lon="4.83272">
        <ele>222</ele>
        <time>2022-06-17T15:54:58.000Z</time>
      </trkpt>
      <trkpt lat="49.78101" lon="4.8327">
        <ele>222</ele>
        <time>2022-06-17T15:54:59.000Z</time>
      </trkpt>
      <trkpt lat="49.781" lon="4.83268">
        <ele>222</ele>
        <time>2022-06-17T15:55:00.000Z</time>
      </trkpt>
      <trkpt lat="49.78099" lon="4.83266">
        <ele>222</ele>
        <time>2022-06-17T15:55:01.000Z</time>
      </trkpt>
      <trkpt lat="49.78098" lon="4.83263">
        <ele>223</ele>
        <time>2022-06-17T15:55:02.000Z</time>
      </trkpt>
      <trkpt lat="49.78098" lon="4.83261">
        <ele>223</ele>
        <time>2022-06-17T15:55:03.000Z</time>
      </trkpt>
      <trkpt lat="49.78096" lon="4.83259">
        <ele>223</ele>
        <time>2022-06-17T15:55:04.000Z</time>
      </trkpt>
      <trkpt lat="49.78095" lon="4.83257">
        <ele>223</ele>
        <time>2022-06-17T15:55:05.000Z</time>
      </trkpt>
      <trkpt lat="49.78094" lon="4.83254">
        <ele>223</ele>
        <time>2022-06-17T15:55:06.000Z</time>
      </trkpt>
      <trkpt lat="49.78093" lon="4.83252">
        <ele>223</ele>
        <time>2022-06-17T15:55:07.000Z</time>
      </trkpt>
      <trkpt lat="49.78091" lon="4.83249">
        <ele>223</ele>
        <time>2022-06-17T15:55:08.000Z</time>
      </trkpt>
      <trkpt lat="49.7809" lon="4.83247">
        <ele>224</ele>
        <time>2022-06-17T15:55:09.000Z</time>
      </trkpt>
      <trkpt lat="49.78089" lon="4.83244">
        <ele>224</ele>
        <time>2022-06-17T15:55:10.000Z</time>
      </trkpt>
      <trkpt lat="49.78088" lon="4.83242">
        <ele>224</ele>
        <time>2022-06-17T15:55:11.000Z</time>
      </trkpt>
      <trkpt lat="49.78087" lon="4.83239">
        <ele>224</ele>
        <time>2022-06-17T15:55:12.000Z</time>
      </trkpt>
      <trkpt lat="49.78086" lon="4.83237">
        <ele>224</ele>
        <time>2022-06-17T15:55:13.000Z</time>
      </trkpt>
      <trkpt lat="49.78085" lon="4.83234">
        <ele>224</ele>
        <time>2022-06-17T15:55:14.000Z</time>
      </trkpt>
      <trkpt lat="49.78084" lon="4.83232">
        <ele>224</ele>
        <time>2022-06-17T15:55:15.000Z</time>
      </trkpt>
      <trkpt lat="49.78083" lon="4.83229">
        <ele>224</ele>
        <time>2022-06-17T15:55:16.000Z</time>
      </trkpt>
      <trkpt lat="49.78082" lon="4.83226">
        <ele>224</ele>
        <time>2022-06-17T15:55:17.000Z</time>
      </trkpt>
      <trkpt lat="49.78082" lon="4.83224">
        <ele>224</ele>
        <time>2022-06-17T15:55:18.000Z</time>
      </trkpt>
      <trkpt lat="49.78081" lon="4.83222">
        <ele>224</ele>
        <time>2022-06-17T15:55:19.000Z</time>
      </trkpt>
      <trkpt lat="49.7808" lon="4.8322">
        <ele>224</ele>
        <time>2022-06-17T15:55:20.000Z</time>
      </trkpt>
      <trkpt lat="49.78079" lon="4.83218">
        <ele>224</ele>
        <time>2022-06-17T15:55:21.000Z</time>
      </trkpt>
      <trkpt lat="49.78077" lon="4.83218">
        <ele>224</ele>
        <time>2022-06-17T15:55:22.000Z</time>
      </trkpt>
      <trkpt lat="49.78075" lon="4.83218">
        <ele>224</ele>
        <time>2022-06-17T15:55:23.000Z</time>
      </trkpt>
      <trkpt lat="49.78073" lon="4.83218">
        <ele>224</ele>
        <time>2022-06-17T15:55:24.000Z</time>
      </trkpt>
      <trkpt lat="49.78071" lon="4.83219">
        <ele>224</ele>
        <time>2022-06-17T15:55:25.000Z</time>
      </trkpt>
      <trkpt lat="49.78069" lon="4.83219">
        <ele>225</ele>
        <time>2022-06-17T15:55:26.000Z</time>
      </trkpt>
      <trkpt lat="49.78067" lon="4.8322">
        <ele>225</ele>
        <time>2022-06-17T15:55:27.000Z</time>
      </trkpt>
      <trkpt lat="49.78064" lon="4.8322">
        <ele>225</ele>
        <time>2022-06-17T15:55:28.000Z</time>
      </trkpt>
      <trkpt lat="49.78062" lon="4.83221">
        <ele>225</ele>
        <time>2022-06-17T15:55:29.000Z</time>
      </trkpt>
      <trkpt lat="49.7806" lon="4.83222">
        <ele>225</ele>
        <time>2022-06-17T15:55:30.000Z</time>
      </trkpt>
      <trkpt lat="49.78058" lon="4.83223">
        <ele>225</ele>
        <time>2022-06-17T15:55:31.000Z</time>
      </trkpt>
      <trkpt lat="49.78055" lon="4.83224">
        <ele>225</ele>
        <time>2022-06-17T15:55:32.000Z</time>
      </trkpt>
      <trkpt lat="49.78053" lon="4.83225">
        <ele>225</ele>
        <time>2022-06-17T15:55:33.000Z</time>
      </trkpt>
      <trkpt lat="49.7805" lon="4.83226">
        <ele>226</ele>
        <time>2022-06-17T15:55:34.000Z</time>
      </trkpt>
      <trkpt lat="49.78047" lon="4.83227">
        <ele>226</ele>
        <time>2022-06-17T15:55:35.000Z</time>
      </trkpt>
      <trkpt lat="49.78044" lon="4.83229">
        <ele>226</ele>
        <time>2022-06-17T15:55:36.000Z</time>
      </trkpt>
      <trkpt lat="49.78041" lon="4.8323">
        <ele>226</ele>
        <time>2022-06-17T15:55:37.000Z</time>
      </trkpt>
      <trkpt lat="49.78038" lon="4.83231">
        <ele>226</ele>
        <time>2022-06-17T15:55:38.000Z</time>
      </trkpt>
      <trkpt lat="49.78034" lon="4.83233">
        <ele>226</ele>
        <time>2022-06-17T15:55:39.000Z</time>
      </trkpt>
      <trkpt lat="49.7803" lon="4.83235">
        <ele>226</ele>
        <time>2022-06-17T15:55:40.000Z</time>
      </trkpt>
      <trkpt lat="49.78027" lon="4.83237">
        <ele>226</ele>
        <time>2022-06-17T15:55:41.000Z</time>
      </trkpt>
      <trkpt lat="49.78023" lon="4.83239">
        <ele>226</ele>
        <time>2022-06-17T15:55:42.000Z</time>
      </trkpt>
      <trkpt lat="49.78019" lon="4.83241">
        <ele>226</ele>
        <time>2022-06-17T15:55:43.000Z</time>
      </trkpt>
      <trkpt lat="49.78014" lon="4.83243">
        <ele>225</ele>
        <time>2022-06-17T15:55:44.000Z</time>
      </trkpt>
      <trkpt lat="49.7801" lon="4.83243">
        <ele>225</ele>
        <time>2022-06-17T15:55:45.000Z</time>
      </trkpt>
      <trkpt lat="49.78005" lon="4.83243">
        <ele>225</ele>
        <time>2022-06-17T15:55:46.000Z</time>
      </trkpt>
      <trkpt lat="49.78" lon="4.83241">
        <ele>225</ele>
        <time>2022-06-17T15:55:47.000Z</time>
      </trkpt>
      <trkpt lat="49.77996" lon="4.83237">
        <ele>225</ele>
        <time>2022-06-17T15:55:48.000Z</time>
      </trkpt>
      <trkpt lat="49.77991" lon="4.83233">
        <ele>224</ele>
        <time>2022-06-17T15:55:49.000Z</time>
      </trkpt>
      <trkpt lat="49.77987" lon="4.83227">
        <ele>224</ele>
        <time>2022-06-17T15:55:50.000Z</time>
      </trkpt>
      <trkpt lat="49.77982" lon="4.83222">
        <ele>224</ele>
        <time>2022-06-17T15:55:51.000Z</time>
      </trkpt>
      <trkpt lat="49.77978" lon="4.83217">
        <ele>224</ele>
        <time>2022-06-17T15:55:52.000Z</time>
      </trkpt>
      <trkpt lat="49.77973" lon="4.83212">
        <ele>224</ele>
        <time>2022-06-17T15:55:53.000Z</time>
      </trkpt>
      <trkpt lat="49.77968" lon="4.83207">
        <ele>223</ele>
        <time>2022-06-17T15:55:54.000Z</time>
      </trkpt>
      <trkpt lat="49.77963" lon="4.83201">
        <ele>223</ele>
        <time>2022-06-17T15:55:55.000Z</time>
      </trkpt>
      <trkpt lat="49.77958" lon="4.83196">
        <ele>223</ele>
        <time>2022-06-17T15:55:56.000Z</time>
      </trkpt>
      <trkpt lat="49.77953" lon="4.83192">
        <ele>222</ele>
        <time>2022-06-17T15:55:57.000Z</time>
      </trkpt>
      <trkpt lat="49.77949" lon="4.83189">
        <ele>222</ele>
        <time>2022-06-17T15:55:58.000Z</time>
      </trkpt>
      <trkpt lat="49.77945" lon="4.83187">
        <ele>222</ele>
        <time>2022-06-17T15:55:59.000Z</time>
      </trkpt>
      <trkpt lat="49.77941" lon="4.83185">
        <ele>221</ele>
        <time>2022-06-17T15:56:00.000Z</time>
      </trkpt>
      <trkpt lat="49.77937" lon="4.83182">
        <ele>221</ele>
        <time>2022-06-17T15:56:01.000Z</time>
      </trkpt>
      <trkpt lat="49.77932" lon="4.83178">
        <ele>221</ele>
        <time>2022-06-17T15:56:02.000Z</time>
      </trkpt>
      <trkpt lat="49.77926" lon="4.83175">
        <ele>220</ele>
        <time>2022-06-17T15:56:03.000Z</time>
      </trkpt>
      <trkpt lat="49.7792" lon="4.8317">
        <ele>220</ele>
        <time>2022-06-17T15:56:04.000Z</time>
      </trkpt>
      <trkpt lat="49.77915" lon="4.83164">
        <ele>220</ele>
        <time>2022-06-17T15:56:05.000Z</time>
      </trkpt>
      <trkpt lat="49.77911" lon="4.83158">
        <ele>220</ele>
        <time>2022-06-17T15:56:06.000Z</time>
      </trkpt>
      <trkpt lat="49.77906" lon="4.83153">
        <ele>219</ele>
        <time>2022-06-17T15:56:07.000Z</time>
      </trkpt>
      <trkpt lat="49.77903" lon="4.83147">
        <ele>219</ele>
        <time>2022-06-17T15:56:08.000Z</time>
      </trkpt>
      <trkpt lat="49.77899" lon="4.83142">
        <ele>219</ele>
        <time>2022-06-17T15:56:09.000Z</time>
      </trkpt>
      <trkpt lat="49.77896" lon="4.83137">
        <ele>219</ele>
        <time>2022-06-17T15:56:10.000Z</time>
      </trkpt>
      <trkpt lat="49.77893" lon="4.83133">
        <ele>219</ele>
        <time>2022-06-17T15:56:11.000Z</time>
      </trkpt>
      <trkpt lat="49.7789" lon="4.83128">
        <ele>219</ele>
        <time>2022-06-17T15:56:12.000Z</time>
      </trkpt>
      <trkpt lat="49.77887" lon="4.83123">
        <ele>219</ele>
        <time>2022-06-17T15:56:13.000Z</time>
      </trkpt>
      <trkpt lat="49.77885" lon="4.83118">
        <ele>219</ele>
        <time>2022-06-17T15:56:14.000Z</time>
      </trkpt>
      <trkpt lat="49.77882" lon="4.83113">
        <ele>219</ele>
        <time>2022-06-17T15:56:15.000Z</time>
      </trkpt>
      <trkpt lat="49.77879" lon="4.83107">
        <ele>219</ele>
        <time>2022-06-17T15:56:16.000Z</time>
      </trkpt>
      <trkpt lat="49.77876" lon="4.83101">
        <ele>219</ele>
        <time>2022-06-17T15:56:17.000Z</time>
      </trkpt>
      <trkpt lat="49.77873" lon="4.83095">
        <ele>219</ele>
        <time>2022-06-17T15:56:18.000Z</time>
      </trkpt>
      <trkpt lat="49.77871" lon="4.8309">
        <ele>219</ele>
        <time>2022-06-17T15:56:19.000Z</time>
      </trkpt>
      <trkpt lat="49.77869" lon="4.83086">
        <ele>219</ele>
        <time>2022-06-17T15:56:20.000Z</time>
      </trkpt>
      <trkpt lat="49.77866" lon="4.83082">
        <ele>219</ele>
        <time>2022-06-17T15:56:21.000Z</time>
      </trkpt>
      <trkpt lat="49.77864" lon="4.83078">
        <ele>219</ele>
        <time>2022-06-17T15:56:22.000Z</time>
      </trkpt>
      <trkpt lat="49.77862" lon="4.83073">
        <ele>219</ele>
        <time>2022-06-17T15:56:23.000Z</time>
      </trkpt>
      <trkpt lat="49.77859" lon="4.83067">
        <ele>219</ele>
        <time>2022-06-17T15:56:24.000Z</time>
      </trkpt>
      <trkpt lat="49.77857" lon="4.83062">
        <ele>219</ele>
        <time>2022-06-17T15:56:25.000Z</time>
      </trkpt>
      <trkpt lat="49.77855" lon="4.83059">
        <ele>219</ele>
        <time>2022-06-17T15:56:26.000Z</time>
      </trkpt>
      <trkpt lat="49.77853" lon="4.83055">
        <ele>220</ele>
        <time>2022-06-17T15:56:27.000Z</time>
      </trkpt>
      <trkpt lat="49.77852" lon="4.83051">
        <ele>220</ele>
        <time>2022-06-17T15:56:28.000Z</time>
      </trkpt>
      <trkpt lat="49.7785" lon="4.83048">
        <ele>220</ele>
        <time>2022-06-17T15:56:29.000Z</time>
      </trkpt>
      <trkpt lat="49.77848" lon="4.83044">
        <ele>220</ele>
        <time>2022-06-17T15:56:30.000Z</time>
      </trkpt>
      <trkpt lat="49.77845" lon="4.8304">
        <ele>220</ele>
        <time>2022-06-17T15:56:31.000Z</time>
      </trkpt>
      <trkpt lat="49.77842" lon="4.83034">
        <ele>220</ele>
        <time>2022-06-17T15:56:32.000Z</time>
      </trkpt>
      <trkpt lat="49.7784" lon="4.83029">
        <ele>220</ele>
        <time>2022-06-17T15:56:33.000Z</time>
      </trkpt>
      <trkpt lat="49.77837" lon="4.83024">
        <ele>220</ele>
        <time>2022-06-17T15:56:34.000Z</time>
      </trkpt>
      <trkpt lat="49.77835" lon="4.83019">
        <ele>220</ele>
        <time>2022-06-17T15:56:35.000Z</time>
      </trkpt>
      <trkpt lat="49.77833" lon="4.83014">
        <ele>220</ele>
        <time>2022-06-17T15:56:36.000Z</time>
      </trkpt>
      <trkpt lat="49.7783" lon="4.8301">
        <ele>221</ele>
        <time>2022-06-17T15:56:37.000Z</time>
      </trkpt>
      <trkpt lat="49.77827" lon="4.83006">
        <ele>221</ele>
        <time>2022-06-17T15:56:38.000Z</time>
      </trkpt>
      <trkpt lat="49.77825" lon="4.83002">
        <ele>221</ele>
        <time>2022-06-17T15:56:39.000Z</time>
      </trkpt>
      <trkpt lat="49.77822" lon="4.82998">
        <ele>221</ele>
        <time>2022-06-17T15:56:40.000Z</time>
      </trkpt>
      <trkpt lat="49.77819" lon="4.82993">
        <ele>221</ele>
        <time>2022-06-17T15:56:41.000Z</time>
      </trkpt>
      <trkpt lat="49.77816" lon="4.82989">
        <ele>221</ele>
        <time>2022-06-17T15:56:42.000Z</time>
      </trkpt>
      <trkpt lat="49.77813" lon="4.82985">
        <ele>221</ele>
        <time>2022-06-17T15:56:43.000Z</time>
      </trkpt>
      <trkpt lat="49.77809" lon="4.8298">
        <ele>221</ele>
        <time>2022-06-17T15:56:44.000Z</time>
      </trkpt>
      <trkpt lat="49.77805" lon="4.82975">
        <ele>221</ele>
        <time>2022-06-17T15:56:45.000Z</time>
      </trkpt>
      <trkpt lat="49.77802" lon="4.82969">
        <ele>221</ele>
        <time>2022-06-17T15:56:46.000Z</time>
      </trkpt>
      <trkpt lat="49.77798" lon="4.82965">
        <ele>221</ele>
        <time>2022-06-17T15:56:47.000Z</time>
      </trkpt>
      <trkpt lat="49.77795" lon="4.82962">
        <ele>220</ele>
        <time>2022-06-17T15:56:48.000Z</time>
      </trkpt>
      <trkpt lat="49.77791" lon="4.82959">
        <ele>220</ele>
        <time>2022-06-17T15:56:49.000Z</time>
      </trkpt>
      <trkpt lat="49.77787" lon="4.82957">
        <ele>220</ele>
        <time>2022-06-17T15:56:50.000Z</time>
      </trkpt>
      <trkpt lat="49.77783" lon="4.82954">
        <ele>220</ele>
        <time>2022-06-17T15:56:51.000Z</time>
      </trkpt>
      <trkpt lat="49.7778" lon="4.82952">
        <ele>220</ele>
        <time>2022-06-17T15:56:52.000Z</time>
      </trkpt>
      <trkpt lat="49.77776" lon="4.82948">
        <ele>219</ele>
        <time>2022-06-17T15:56:53.000Z</time>
      </trkpt>
      <trkpt lat="49.77772" lon="4.82945">
        <ele>219</ele>
        <time>2022-06-17T15:56:54.000Z</time>
      </trkpt>
      <trkpt lat="49.77768" lon="4.82941">
        <ele>219</ele>
        <time>2022-06-17T15:56:55.000Z</time>
      </trkpt>
      <trkpt lat="49.77764" lon="4.82937">
        <ele>219</ele>
        <time>2022-06-17T15:56:56.000Z</time>
      </trkpt>
      <trkpt lat="49.7776" lon="4.82934">
        <ele>219</ele>
        <time>2022-06-17T15:56:57.000Z</time>
      </trkpt>
      <trkpt lat="49.77756" lon="4.8293">
        <ele>219</ele>
        <time>2022-06-17T15:56:58.000Z</time>
      </trkpt>
      <trkpt lat="49.77753" lon="4.82927">
        <ele>219</ele>
        <time>2022-06-17T15:56:59.000Z</time>
      </trkpt>
      <trkpt lat="49.77749" lon="4.82923">
        <ele>219</ele>
        <time>2022-06-17T15:57:00.000Z</time>
      </trkpt>
      <trkpt lat="49.77745" lon="4.82919">
        <ele>219</ele>
        <time>2022-06-17T15:57:01.000Z</time>
      </trkpt>
      <trkpt lat="49.77742" lon="4.82915">
        <ele>219</ele>
        <time>2022-06-17T15:57:02.000Z</time>
      </trkpt>
      <trkpt lat="49.77737" lon="4.8291">
        <ele>219</ele>
        <time>2022-06-17T15:57:03.000Z</time>
      </trkpt>
      <trkpt lat="49.77733" lon="4.82907">
        <ele>219</ele>
        <time>2022-06-17T15:57:04.000Z</time>
      </trkpt>
      <trkpt lat="49.77729" lon="4.82903">
        <ele>219</ele>
        <time>2022-06-17T15:57:05.000Z</time>
      </trkpt>
      <trkpt lat="49.77725" lon="4.82899">
        <ele>219</ele>
        <time>2022-06-17T15:57:06.000Z</time>
      </trkpt>
      <trkpt lat="49.77722" lon="4.82894">
        <ele>220</ele>
        <time>2022-06-17T15:57:07.000Z</time>
      </trkpt>
      <trkpt lat="49.77719" lon="4.8289">
        <ele>220</ele>
        <time>2022-06-17T15:57:08.000Z</time>
      </trkpt>
      <trkpt lat="49.77715" lon="4.82886">
        <ele>220</ele>
        <time>2022-06-17T15:57:09.000Z</time>
      </trkpt>
      <trkpt lat="49.77711" lon="4.82882">
        <ele>220</ele>
        <time>2022-06-17T15:57:10.000Z</time>
      </trkpt>
      <trkpt lat="49.77708" lon="4.82877">
        <ele>220</ele>
        <time>2022-06-17T15:57:11.000Z</time>
      </trkpt>
      <trkpt lat="49.77703" lon="4.82873">
        <ele>220</ele>
        <time>2022-06-17T15:57:12.000Z</time>
      </trkpt>
      <trkpt lat="49.777" lon="4.82868">
        <ele>220</ele>
        <time>2022-06-17T15:57:13.000Z</time>
      </trkpt>
      <trkpt lat="49.77696" lon="4.82864">
        <ele>220</ele>
        <time>2022-06-17T15:57:14.000Z</time>
      </trkpt>
      <trkpt lat="49.77693" lon="4.82859">
        <ele>220</ele>
        <time>2022-06-17T15:57:15.000Z</time>
      </trkpt>
      <trkpt lat="49.7769" lon="4.82855">
        <ele>220</ele>
        <time>2022-06-17T15:57:16.000Z</time>
      </trkpt>
      <trkpt lat="49.77687" lon="4.82851">
        <ele>220</ele>
        <time>2022-06-17T15:57:17.000Z</time>
      </trkpt>
      <trkpt lat="49.77684" lon="4.82846">
        <ele>220</ele>
        <time>2022-06-17T15:57:18.000Z</time>
      </trkpt>
      <trkpt lat="49.77681" lon="4.82841">
        <ele>220</ele>
        <time>2022-06-17T15:57:19.000Z</time>
      </trkpt>
      <trkpt lat="49.77678" lon="4.82836">
        <ele>220</ele>
        <time>2022-06-17T15:57:20.000Z</time>
      </trkpt>
      <trkpt lat="49.77675" lon="4.8283">
        <ele>220</ele>
        <time>2022-06-17T15:57:21.000Z</time>
      </trkpt>
      <trkpt lat="49.77672" lon="4.82824">
        <ele>220</ele>
        <time>2022-06-17T15:57:22.000Z</time>
      </trkpt>
      <trkpt lat="49.77669" lon="4.82817">
        <ele>220</ele>
        <time>2022-06-17T15:57:23.000Z</time>
      </trkpt>
      <trkpt lat="49.77666" lon="4.82812">
        <ele>220</ele>
        <time>2022-06-17T15:57:24.000Z</time>
      </trkpt>
      <trkpt lat="49.77664" lon="4.82806">
        <ele>220</ele>
        <time>2022-06-17T15:57:25.000Z</time>
      </trkpt>
      <trkpt lat="49.7766" lon="4.82801">
        <ele>220</ele>
        <time>2022-06-17T15:57:26.000Z</time>
      </trkpt>
      <trkpt lat="49.77658" lon="4.82796">
        <ele>220</ele>
        <time>2022-06-17T15:57:27.000Z</time>
      </trkpt>
      <trkpt lat="49.77656" lon="4.82792">
        <ele>220</ele>
        <time>2022-06-17T15:57:28.000Z</time>
      </trkpt>
      <trkpt lat="49.77654" lon="4.82787">
        <ele>220</ele>
        <time>2022-06-17T15:57:29.000Z</time>
      </trkpt>
      <trkpt lat="49.77652" lon="4.82783">
        <ele>221</ele>
        <time>2022-06-17T15:57:30.000Z</time>
      </trkpt>
      <trkpt lat="49.77649" lon="4.82778">
        <ele>221</ele>
        <time>2022-06-17T15:57:31.000Z</time>
      </trkpt>
      <trkpt lat="49.77646" lon="4.82772">
        <ele>221</ele>
        <time>2022-06-17T15:57:32.000Z</time>
      </trkpt>
      <trkpt lat="49.77643" lon="4.82767">
        <ele>221</ele>
        <time>2022-06-17T15:57:33.000Z</time>
      </trkpt>
      <trkpt lat="49.7764" lon="4.82762">
        <ele>221</ele>
        <time>2022-06-17T15:57:34.000Z</time>
      </trkpt>
      <trkpt lat="49.77637" lon="4.82757">
        <ele>221</ele>
        <time>2022-06-17T15:57:35.000Z</time>
      </trkpt>
      <trkpt lat="49.77634" lon="4.82752">
        <ele>221</ele>
        <time>2022-06-17T15:57:36.000Z</time>
      </trkpt>
      <trkpt lat="49.7763" lon="4.82747">
        <ele>222</ele>
        <time>2022-06-17T15:57:37.000Z</time>
      </trkpt>
      <trkpt lat="49.77626" lon="4.82741">
        <ele>222</ele>
        <time>2022-06-17T15:57:38.000Z</time>
      </trkpt>
      <trkpt lat="49.77622" lon="4.82734">
        <ele>222</ele>
        <time>2022-06-17T15:57:39.000Z</time>
      </trkpt>
      <trkpt lat="49.77619" lon="4.82728">
        <ele>222</ele>
        <time>2022-06-17T15:57:40.000Z</time>
      </trkpt>
      <trkpt lat="49.77615" lon="4.82722">
        <ele>222</ele>
        <time>2022-06-17T15:57:41.000Z</time>
      </trkpt>
      <trkpt lat="49.77611" lon="4.82717">
        <ele>222</ele>
        <time>2022-06-17T15:57:42.000Z</time>
      </trkpt>
      <trkpt lat="49.77608" lon="4.82711">
        <ele>222</ele>
        <time>2022-06-17T15:57:43.000Z</time>
      </trkpt>
      <trkpt lat="49.77606" lon="4.82705">
        <ele>222</ele>
        <time>2022-06-17T15:57:44.000Z</time>
      </trkpt>
      <trkpt lat="49.77604" lon="4.82699">
        <ele>222</ele>
        <time>2022-06-17T15:57:45.000Z</time>
      </trkpt>
      <trkpt lat="49.77601" lon="4.82694">
        <ele>222</ele>
        <time>2022-06-17T15:57:46.000Z</time>
      </trkpt>
      <trkpt lat="49.77598" lon="4.82688">
        <ele>222</ele>
        <time>2022-06-17T15:57:47.000Z</time>
      </trkpt>
      <trkpt lat="49.77595" lon="4.82682">
        <ele>222</ele>
        <time>2022-06-17T15:57:48.000Z</time>
      </trkpt>
      <trkpt lat="49.77592" lon="4.82676">
        <ele>222</ele>
        <time>2022-06-17T15:57:49.000Z</time>
      </trkpt>
      <trkpt lat="49.7759" lon="4.8267">
        <ele>222</ele>
        <time>2022-06-17T15:57:50.000Z</time>
      </trkpt>
      <trkpt lat="49.77587" lon="4.82664">
        <ele>222</ele>
        <time>2022-06-17T15:57:51.000Z</time>
      </trkpt>
      <trkpt lat="49.77584" lon="4.82657">
        <ele>222</ele>
        <time>2022-06-17T15:57:52.000Z</time>
      </trkpt>
      <trkpt lat="49.77581" lon="4.8265">
        <ele>222</ele>
        <time>2022-06-17T15:57:53.000Z</time>
      </trkpt>
      <trkpt lat="49.77579" lon="4.82643">
        <ele>222</ele>
        <time>2022-06-17T15:57:54.000Z</time>
      </trkpt>
      <trkpt lat="49.77576" lon="4.82637">
        <ele>222</ele>
        <time>2022-06-17T15:57:55.000Z</time>
      </trkpt>
      <trkpt lat="49.77573" lon="4.82629">
        <ele>222</ele>
        <time>2022-06-17T15:57:56.000Z</time>
      </trkpt>
      <trkpt lat="49.7757" lon="4.82622">
        <ele>222</ele>
        <time>2022-06-17T15:57:57.000Z</time>
      </trkpt>
      <trkpt lat="49.77568" lon="4.82615">
        <ele>222</ele>
        <time>2022-06-17T15:57:58.000Z</time>
      </trkpt>
      <trkpt lat="49.77566" lon="4.82608">
        <ele>222</ele>
        <time>2022-06-17T15:57:59.000Z</time>
      </trkpt>
      <trkpt lat="49.77564" lon="4.82602">
        <ele>222</ele>
        <time>2022-06-17T15:58:00.000Z</time>
      </trkpt>
      <trkpt lat="49.77562" lon="4.82595">
        <ele>222</ele>
        <time>2022-06-17T15:58:01.000Z</time>
      </trkpt>
      <trkpt lat="49.7756" lon="4.82588">
        <ele>222</ele>
        <time>2022-06-17T15:58:02.000Z</time>
      </trkpt>
      <trkpt lat="49.77557" lon="4.8258">
        <ele>222</ele>
        <time>2022-06-17T15:58:03.000Z</time>
      </trkpt>
      <trkpt lat="49.77554" lon="4.82574">
        <ele>222</ele>
        <time>2022-06-17T15:58:04.000Z</time>
      </trkpt>
      <trkpt lat="49.77551" lon="4.82568">
        <ele>222</ele>
        <time>2022-06-17T15:58:05.000Z</time>
      </trkpt>
      <trkpt lat="49.77547" lon="4.82562">
        <ele>222</ele>
        <time>2022-06-17T15:58:06.000Z</time>
      </trkpt>
      <trkpt lat="49.77543" lon="4.82556">
        <ele>222</ele>
        <time>2022-06-17T15:58:07.000Z</time>
      </trkpt>
      <trkpt lat="49.7754" lon="4.82549">
        <ele>222</ele>
        <time>2022-06-17T15:58:08.000Z</time>
      </trkpt>
      <trkpt lat="49.77538" lon="4.82544">
        <ele>222</ele>
        <time>2022-06-17T15:58:09.000Z</time>
      </trkpt>
      <trkpt lat="49.77535" lon="4.82539">
        <ele>222</ele>
        <time>2022-06-17T15:58:10.000Z</time>
      </trkpt>
      <trkpt lat="49.77532" lon="4.82536">
        <ele>222</ele>
        <time>2022-06-17T15:58:11.000Z</time>
      </trkpt>
      <trkpt lat="49.77528" lon="4.82533">
        <ele>222</ele>
        <time>2022-06-17T15:58:12.000Z</time>
      </trkpt>
      <trkpt lat="49.77524" lon="4.8253">
        <ele>222</ele>
        <time>2022-06-17T15:58:13.000Z</time>
      </trkpt>
      <trkpt lat="49.7752" lon="4.82526">
        <ele>222</ele>
        <time>2022-06-17T15:58:14.000Z</time>
      </trkpt>
      <trkpt lat="49.77515" lon="4.82523">
        <ele>222</ele>
        <time>2022-06-17T15:58:15.000Z</time>
      </trkpt>
      <trkpt lat="49.77511" lon="4.82521">
        <ele>222</ele>
        <time>2022-06-17T15:58:16.000Z</time>
      </trkpt>
      <trkpt lat="49.77506" lon="4.82518">
        <ele>222</ele>
        <time>2022-06-17T15:58:17.000Z</time>
      </trkpt>
      <trkpt lat="49.77502" lon="4.82515">
        <ele>222</ele>
        <time>2022-06-17T15:58:18.000Z</time>
      </trkpt>
      <trkpt lat="49.77497" lon="4.82513">
        <ele>222</ele>
        <time>2022-06-17T15:58:19.000Z</time>
      </trkpt>
      <trkpt lat="49.77492" lon="4.8251">
        <ele>222</ele>
        <time>2022-06-17T15:58:20.000Z</time>
      </trkpt>
      <trkpt lat="49.77488" lon="4.82507">
        <ele>222</ele>
        <time>2022-06-17T15:58:21.000Z</time>
      </trkpt>
      <trkpt lat="49.77483" lon="4.82504">
        <ele>222</ele>
        <time>2022-06-17T15:58:22.000Z</time>
      </trkpt>
      <trkpt lat="49.77478" lon="4.825">
        <ele>222</ele>
        <time>2022-06-17T15:58:23.000Z</time>
      </trkpt>
      <trkpt lat="49.77474" lon="4.82498">
        <ele>222</ele>
        <time>2022-06-17T15:58:24.000Z</time>
      </trkpt>
      <trkpt lat="49.77469" lon="4.82495">
        <ele>222</ele>
        <time>2022-06-17T15:58:25.000Z</time>
      </trkpt>
      <trkpt lat="49.77465" lon="4.82492">
        <ele>222</ele>
        <time>2022-06-17T15:58:26.000Z</time>
      </trkpt>
      <trkpt lat="49.77461" lon="4.8249">
        <ele>222</ele>
        <time>2022-06-17T15:58:27.000Z</time>
      </trkpt>
      <trkpt lat="49.77457" lon="4.82488">
        <ele>222</ele>
        <time>2022-06-17T15:58:28.000Z</time>
      </trkpt>
      <trkpt lat="49.77453" lon="4.82485">
        <ele>222</ele>
        <time>2022-06-17T15:58:29.000Z</time>
      </trkpt>
      <trkpt lat="49.77448" lon="4.82483">
        <ele>221</ele>
        <time>2022-06-17T15:58:30.000Z</time>
      </trkpt>
      <trkpt lat="49.77444" lon="4.82481">
        <ele>222</ele>
        <time>2022-06-17T15:58:31.000Z</time>
      </trkpt>
      <trkpt lat="49.7744" lon="4.82479">
        <ele>221</ele>
        <time>2022-06-17T15:58:32.000Z</time>
      </trkpt>
      <trkpt lat="49.77436" lon="4.82477">
        <ele>221</ele>
        <time>2022-06-17T15:58:33.000Z</time>
      </trkpt>
      <trkpt lat="49.77431" lon="4.82475">
        <ele>221</ele>
        <time>2022-06-17T15:58:34.000Z</time>
      </trkpt>
      <trkpt lat="49.77427" lon="4.82473">
        <ele>221</ele>
        <time>2022-06-17T15:58:35.000Z</time>
      </trkpt>
      <trkpt lat="49.77423" lon="4.8247">
        <ele>221</ele>
        <time>2022-06-17T15:58:36.000Z</time>
      </trkpt>
      <trkpt lat="49.77419" lon="4.82468">
        <ele>221</ele>
        <time>2022-06-17T15:58:37.000Z</time>
      </trkpt>
      <trkpt lat="49.77415" lon="4.82467">
        <ele>221</ele>
        <time>2022-06-17T15:58:38.000Z</time>
      </trkpt>
      <trkpt lat="49.77411" lon="4.82465">
        <ele>221</ele>
        <time>2022-06-17T15:58:39.000Z</time>
      </trkpt>
      <trkpt lat="49.77407" lon="4.82463">
        <ele>221</ele>
        <time>2022-06-17T15:58:40.000Z</time>
      </trkpt>
      <trkpt lat="49.77402" lon="4.82461">
        <ele>221</ele>
        <time>2022-06-17T15:58:41.000Z</time>
      </trkpt>
      <trkpt lat="49.77398" lon="4.82459">
        <ele>221</ele>
        <time>2022-06-17T15:58:42.000Z</time>
      </trkpt>
      <trkpt lat="49.77394" lon="4.82458">
        <ele>221</ele>
        <time>2022-06-17T15:58:43.000Z</time>
      </trkpt>
      <trkpt lat="49.7739" lon="4.82457">
        <ele>221</ele>
        <time>2022-06-17T15:58:44.000Z</time>
      </trkpt>
      <trkpt lat="49.77386" lon="4.82455">
        <ele>221</ele>
        <time>2022-06-17T15:58:45.000Z</time>
      </trkpt>
      <trkpt lat="49.77382" lon="4.82453">
        <ele>221</ele>
        <time>2022-06-17T15:58:46.000Z</time>
      </trkpt>
      <trkpt lat="49.77376" lon="4.82451">
        <ele>221</ele>
        <time>2022-06-17T15:58:47.000Z</time>
      </trkpt>
      <trkpt lat="49.77371" lon="4.82451">
        <ele>221</ele>
        <time>2022-06-17T15:58:48.000Z</time>
      </trkpt>
      <trkpt lat="49.77366" lon="4.8245">
        <ele>221</ele>
        <time>2022-06-17T15:58:49.000Z</time>
      </trkpt>
      <trkpt lat="49.77361" lon="4.82448">
        <ele>221</ele>
        <time>2022-06-17T15:58:50.000Z</time>
      </trkpt>
      <trkpt lat="49.77356" lon="4.82447">
        <ele>221</ele>
        <time>2022-06-17T15:58:51.000Z</time>
      </trkpt>
      <trkpt lat="49.77351" lon="4.82445">
        <ele>221</ele>
        <time>2022-06-17T15:58:52.000Z</time>
      </trkpt>
      <trkpt lat="49.77345" lon="4.82443">
        <ele>221</ele>
        <time>2022-06-17T15:58:53.000Z</time>
      </trkpt>
      <trkpt lat="49.7734" lon="4.82442">
        <ele>221</ele>
        <time>2022-06-17T15:58:54.000Z</time>
      </trkpt>
      <trkpt lat="49.77335" lon="4.8244">
        <ele>221</ele>
        <time>2022-06-17T15:58:55.000Z</time>
      </trkpt>
      <trkpt lat="49.7733" lon="4.82438">
        <ele>221</ele>
        <time>2022-06-17T15:58:56.000Z</time>
      </trkpt>
      <trkpt lat="49.77326" lon="4.82437">
        <ele>220</ele>
        <time>2022-06-17T15:58:57.000Z</time>
      </trkpt>
      <trkpt lat="49.77321" lon="4.82435">
        <ele>220</ele>
        <time>2022-06-17T15:58:58.000Z</time>
      </trkpt>
      <trkpt lat="49.77316" lon="4.82433">
        <ele>220</ele>
        <time>2022-06-17T15:58:59.000Z</time>
      </trkpt>
      <trkpt lat="49.77312" lon="4.82432">
        <ele>220</ele>
        <time>2022-06-17T15:59:00.000Z</time>
      </trkpt>
      <trkpt lat="49.77308" lon="4.82432">
        <ele>220</ele>
        <time>2022-06-17T15:59:01.000Z</time>
      </trkpt>
      <trkpt lat="49.77305" lon="4.82431">
        <ele>220</ele>
        <time>2022-06-17T15:59:02.000Z</time>
      </trkpt>
      <trkpt lat="49.77301" lon="4.82429">
        <ele>220</ele>
        <time>2022-06-17T15:59:03.000Z</time>
      </trkpt>
      <trkpt lat="49.77298" lon="4.82428">
        <ele>221</ele>
        <time>2022-06-17T15:59:04.000Z</time>
      </trkpt>
      <trkpt lat="49.77296" lon="4.82427">
        <ele>221</ele>
        <time>2022-06-17T15:59:05.000Z</time>
      </trkpt>
      <trkpt lat="49.77294" lon="4.82425">
        <ele>221</ele>
        <time>2022-06-17T15:59:06.000Z</time>
      </trkpt>
      <trkpt lat="49.77292" lon="4.82425">
        <ele>221</ele>
        <time>2022-06-17T15:59:07.000Z</time>
      </trkpt>
      <trkpt lat="49.77289" lon="4.82425">
        <ele>221</ele>
        <time>2022-06-17T15:59:08.000Z</time>
      </trkpt>
      <trkpt lat="49.77286" lon="4.82424">
        <ele>221</ele>
        <time>2022-06-17T15:59:09.000Z</time>
      </trkpt>
      <trkpt lat="49.77283" lon="4.82423">
        <ele>222</ele>
        <time>2022-06-17T15:59:10.000Z</time>
      </trkpt>
      <trkpt lat="49.77279" lon="4.82422">
        <ele>222</ele>
        <time>2022-06-17T15:59:11.000Z</time>
      </trkpt>
      <trkpt lat="49.77275" lon="4.82421">
        <ele>222</ele>
        <time>2022-06-17T15:59:12.000Z</time>
      </trkpt>
      <trkpt lat="49.77271" lon="4.8242">
        <ele>222</ele>
        <time>2022-06-17T15:59:13.000Z</time>
      </trkpt>
      <trkpt lat="49.77268" lon="4.82419">
        <ele>223</ele>
        <time>2022-06-17T15:59:14.000Z</time>
      </trkpt>
      <trkpt lat="49.77264" lon="4.82418">
        <ele>223</ele>
        <time>2022-06-17T15:59:15.000Z</time>
      </trkpt>
      <trkpt lat="49.77261" lon="4.82417">
        <ele>223</ele>
        <time>2022-06-17T15:59:16.000Z</time>
      </trkpt>
      <trkpt lat="49.77257" lon="4.82416">
        <ele>223</ele>
        <time>2022-06-17T15:59:17.000Z</time>
      </trkpt>
      <trkpt lat="49.77252" lon="4.82416">
        <ele>223</ele>
        <time>2022-06-17T15:59:18.000Z</time>
      </trkpt>
      <trkpt lat="49.77247" lon="4.82414">
        <ele>224</ele>
        <time>2022-06-17T15:59:19.000Z</time>
      </trkpt>
      <trkpt lat="49.77242" lon="4.82413">
        <ele>224</ele>
        <time>2022-06-17T15:59:20.000Z</time>
      </trkpt>
      <trkpt lat="49.77237" lon="4.82413">
        <ele>224</ele>
        <time>2022-06-17T15:59:21.000Z</time>
      </trkpt>
      <trkpt lat="49.77232" lon="4.82413">
        <ele>224</ele>
        <time>2022-06-17T15:59:22.000Z</time>
      </trkpt>
      <trkpt lat="49.77226" lon="4.82412">
        <ele>224</ele>
        <time>2022-06-17T15:59:23.000Z</time>
      </trkpt>
      <trkpt lat="49.77221" lon="4.82411">
        <ele>224</ele>
        <time>2022-06-17T15:59:24.000Z</time>
      </trkpt>
      <trkpt lat="49.77215" lon="4.82409">
        <ele>224</ele>
        <time>2022-06-17T15:59:25.000Z</time>
      </trkpt>
      <trkpt lat="49.7721" lon="4.82407">
        <ele>224</ele>
        <time>2022-06-17T15:59:26.000Z</time>
      </trkpt>
      <trkpt lat="49.77205" lon="4.82405">
        <ele>224</ele>
        <time>2022-06-17T15:59:27.000Z</time>
      </trkpt>
      <trkpt lat="49.772" lon="4.82404">
        <ele>225</ele>
        <time>2022-06-17T15:59:28.000Z</time>
      </trkpt>
      <trkpt lat="49.77195" lon="4.82402">
        <ele>225</ele>
        <time>2022-06-17T15:59:29.000Z</time>
      </trkpt>
      <trkpt lat="49.77191" lon="4.82401">
        <ele>225</ele>
        <time>2022-06-17T15:59:30.000Z</time>
      </trkpt>
      <trkpt lat="49.77187" lon="4.824">
        <ele>225</ele>
        <time>2022-06-17T15:59:31.000Z</time>
      </trkpt>
      <trkpt lat="49.77184" lon="4.824">
        <ele>225</ele>
        <time>2022-06-17T15:59:32.000Z</time>
      </trkpt>
      <trkpt lat="49.7718" lon="4.82399">
        <ele>225</ele>
        <time>2022-06-17T15:59:33.000Z</time>
      </trkpt>
      <trkpt lat="49.77176" lon="4.82397">
        <ele>225</ele>
        <time>2022-06-17T15:59:34.000Z</time>
      </trkpt>
      <trkpt lat="49.77173" lon="4.82394">
        <ele>225</ele>
        <time>2022-06-17T15:59:35.000Z</time>
      </trkpt>
      <trkpt lat="49.77169" lon="4.82391">
        <ele>225</ele>
        <time>2022-06-17T15:59:36.000Z</time>
      </trkpt>
      <trkpt lat="49.77165" lon="4.82389">
        <ele>225</ele>
        <time>2022-06-17T15:59:37.000Z</time>
      </trkpt>
      <trkpt lat="49.77161" lon="4.82388">
        <ele>225</ele>
        <time>2022-06-17T15:59:38.000Z</time>
      </trkpt>
      <trkpt lat="49.77157" lon="4.82387">
        <ele>225</ele>
        <time>2022-06-17T15:59:39.000Z</time>
      </trkpt>
      <trkpt lat="49.77153" lon="4.82385">
        <ele>225</ele>
        <time>2022-06-17T15:59:40.000Z</time>
      </trkpt>
      <trkpt lat="49.77149" lon="4.82384">
        <ele>225</ele>
        <time>2022-06-17T15:59:41.000Z</time>
      </trkpt>
      <trkpt lat="49.77145" lon="4.82383">
        <ele>225</ele>
        <time>2022-06-17T15:59:42.000Z</time>
      </trkpt>
      <trkpt lat="49.77141" lon="4.82382">
        <ele>225</ele>
        <time>2022-06-17T15:59:43.000Z</time>
      </trkpt>
      <trkpt lat="49.77137" lon="4.82381">
        <ele>226</ele>
        <time>2022-06-17T15:59:44.000Z</time>
      </trkpt>
      <trkpt lat="49.77133" lon="4.82379">
        <ele>226</ele>
        <time>2022-06-17T15:59:45.000Z</time>
      </trkpt>
      <trkpt lat="49.77129" lon="4.82379">
        <ele>226</ele>
        <time>2022-06-17T15:59:46.000Z</time>
      </trkpt>
      <trkpt lat="49.77125" lon="4.82378">
        <ele>226</ele>
        <time>2022-06-17T15:59:47.000Z</time>
      </trkpt>
      <trkpt lat="49.77122" lon="4.82377">
        <ele>226</ele>
        <time>2022-06-17T15:59:48.000Z</time>
      </trkpt>
      <trkpt lat="49.77118" lon="4.82376">
        <ele>226</ele>
        <time>2022-06-17T15:59:49.000Z</time>
      </trkpt>
      <trkpt lat="49.77114" lon="4.82376">
        <ele>227</ele>
        <time>2022-06-17T15:59:50.000Z</time>
      </trkpt>
      <trkpt lat="49.7711" lon="4.82376">
        <ele>227</ele>
        <time>2022-06-17T15:59:51.000Z</time>
      </trkpt>
      <trkpt lat="49.77105" lon="4.82375">
        <ele>227</ele>
        <time>2022-06-17T15:59:52.000Z</time>
      </trkpt>
      <trkpt lat="49.77101" lon="4.82376">
        <ele>227</ele>
        <time>2022-06-17T15:59:53.000Z</time>
      </trkpt>
      <trkpt lat="49.77096" lon="4.82377">
        <ele>227</ele>
        <time>2022-06-17T15:59:54.000Z</time>
      </trkpt>
      <trkpt lat="49.7709" lon="4.82379">
        <ele>228</ele>
        <time>2022-06-17T15:59:55.000Z</time>
      </trkpt>
      <trkpt lat="49.77085" lon="4.82379">
        <ele>228</ele>
        <time>2022-06-17T15:59:56.000Z</time>
      </trkpt>
      <trkpt lat="49.77079" lon="4.8238">
        <ele>228</ele>
        <time>2022-06-17T15:59:57.000Z</time>
      </trkpt>
      <trkpt lat="49.77073" lon="4.82382">
        <ele>229</ele>
        <time>2022-06-17T15:59:58.000Z</time>
      </trkpt>
      <trkpt lat="49.77067" lon="4.82383">
        <ele>229</ele>
        <time>2022-06-17T15:59:59.000Z</time>
      </trkpt>
      <trkpt lat="49.77061" lon="4.82384">
        <ele>229</ele>
        <time>2022-06-17T16:00:00.000Z</time>
      </trkpt>
      <trkpt lat="49.77055" lon="4.82385">
        <ele>229</ele>
        <time>2022-06-17T16:00:01.000Z</time>
      </trkpt>
      <trkpt lat="49.77049" lon="4.82385">
        <ele>229</ele>
        <time>2022-06-17T16:00:02.000Z</time>
      </trkpt>
      <trkpt lat="49.77044" lon="4.82386">
        <ele>229</ele>
        <time>2022-06-17T16:00:03.000Z</time>
      </trkpt>
      <trkpt lat="49.77039" lon="4.82387">
        <ele>229</ele>
        <time>2022-06-17T16:00:04.000Z</time>
      </trkpt>
      <trkpt lat="49.77035" lon="4.82388">
        <ele>229</ele>
        <time>2022-06-17T16:00:05.000Z</time>
      </trkpt>
      <trkpt lat="49.7703" lon="4.82388">
        <ele>229</ele>
        <time>2022-06-17T16:00:06.000Z</time>
      </trkpt>
      <trkpt lat="49.77025" lon="4.82388">
        <ele>229</ele>
        <time>2022-06-17T16:00:07.000Z</time>
      </trkpt>
      <trkpt lat="49.77021" lon="4.82388">
        <ele>229</ele>
        <time>2022-06-17T16:00:08.000Z</time>
      </trkpt>
      <trkpt lat="49.77017" lon="4.82389">
        <ele>229</ele>
        <time>2022-06-17T16:00:09.000Z</time>
      </trkpt>
      <trkpt lat="49.77014" lon="4.82388">
        <ele>229</ele>
        <time>2022-06-17T16:00:10.000Z</time>
      </trkpt>
      <trkpt lat="49.77011" lon="4.82388">
        <ele>229</ele>
        <time>2022-06-17T16:00:11.000Z</time>
      </trkpt>
      <trkpt lat="49.77008" lon="4.82387">
        <ele>229</ele>
        <time>2022-06-17T16:00:12.000Z</time>
      </trkpt>
      <trkpt lat="49.77006" lon="4.82386">
        <ele>229</ele>
        <time>2022-06-17T16:00:13.000Z</time>
      </trkpt>
      <trkpt lat="49.77004" lon="4.82384">
        <ele>229</ele>
        <time>2022-06-17T16:00:14.000Z</time>
      </trkpt>
      <trkpt lat="49.77002" lon="4.82382">
        <ele>229</ele>
        <time>2022-06-17T16:00:15.000Z</time>
      </trkpt>
      <trkpt lat="49.77" lon="4.82379">
        <ele>229</ele>
        <time>2022-06-17T16:00:16.000Z</time>
      </trkpt>
      <trkpt lat="49.76998" lon="4.82376">
        <ele>230</ele>
        <time>2022-06-17T16:00:17.000Z</time>
      </trkpt>
      <trkpt lat="49.76995" lon="4.82373">
        <ele>230</ele>
        <time>2022-06-17T16:00:18.000Z</time>
      </trkpt>
      <trkpt lat="49.76992" lon="4.8237">
        <ele>230</ele>
        <time>2022-06-17T16:00:19.000Z</time>
      </trkpt>
      <trkpt lat="49.7699" lon="4.82368">
        <ele>230</ele>
        <time>2022-06-17T16:00:20.000Z</time>
      </trkpt>
      <trkpt lat="49.76987" lon="4.82365">
        <ele>230</ele>
        <time>2022-06-17T16:00:21.000Z</time>
      </trkpt>
      <trkpt lat="49.76983" lon="4.82362">
        <ele>230</ele>
        <time>2022-06-17T16:00:22.000Z</time>
      </trkpt>
      <trkpt lat="49.76981" lon="4.82359">
        <ele>230</ele>
        <time>2022-06-17T16:00:23.000Z</time>
      </trkpt>
      <trkpt lat="49.76977" lon="4.82356">
        <ele>230</ele>
        <time>2022-06-17T16:00:24.000Z</time>
      </trkpt>
      <trkpt lat="49.76973" lon="4.82351">
        <ele>230</ele>
        <time>2022-06-17T16:00:25.000Z</time>
      </trkpt>
      <trkpt lat="49.76969" lon="4.82346">
        <ele>230</ele>
        <time>2022-06-17T16:00:26.000Z</time>
      </trkpt>
      <trkpt lat="49.76965" lon="4.82341">
        <ele>230</ele>
        <time>2022-06-17T16:00:27.000Z</time>
      </trkpt>
      <trkpt lat="49.7696" lon="4.82336">
        <ele>230</ele>
        <time>2022-06-17T16:00:28.000Z</time>
      </trkpt>
      <trkpt lat="49.76955" lon="4.82331">
        <ele>230</ele>
        <time>2022-06-17T16:00:29.000Z</time>
      </trkpt>
      <trkpt lat="49.76951" lon="4.82326">
        <ele>230</ele>
        <time>2022-06-17T16:00:30.000Z</time>
      </trkpt>
      <trkpt lat="49.76946" lon="4.82321">
        <ele>230</ele>
        <time>2022-06-17T16:00:31.000Z</time>
      </trkpt>
      <trkpt lat="49.76942" lon="4.82316">
        <ele>230</ele>
        <time>2022-06-17T16:00:32.000Z</time>
      </trkpt>
      <trkpt lat="49.76938" lon="4.82311">
        <ele>230</ele>
        <time>2022-06-17T16:00:33.000Z</time>
      </trkpt>
      <trkpt lat="49.76934" lon="4.82306">
        <ele>230</ele>
        <time>2022-06-17T16:00:34.000Z</time>
      </trkpt>
      <trkpt lat="49.7693" lon="4.82302">
        <ele>230</ele>
        <time>2022-06-17T16:00:35.000Z</time>
      </trkpt>
      <trkpt lat="49.76927" lon="4.82298">
        <ele>230</ele>
        <time>2022-06-17T16:00:36.000Z</time>
      </trkpt>
      <trkpt lat="49.76924" lon="4.82294">
        <ele>230</ele>
        <time>2022-06-17T16:00:37.000Z</time>
      </trkpt>
      <trkpt lat="49.76922" lon="4.8229">
        <ele>230</ele>
        <time>2022-06-17T16:00:38.000Z</time>
      </trkpt>
      <trkpt lat="49.76918" lon="4.82287">
        <ele>230</ele>
        <time>2022-06-17T16:00:39.000Z</time>
      </trkpt>
      <trkpt lat="49.76914" lon="4.82282">
        <ele>230</ele>
        <time>2022-06-17T16:00:40.000Z</time>
      </trkpt>
      <trkpt lat="49.7691" lon="4.82278">
        <ele>230</ele>
        <time>2022-06-17T16:00:41.000Z</time>
      </trkpt>
      <trkpt lat="49.76906" lon="4.82273">
        <ele>230</ele>
        <time>2022-06-17T16:00:42.000Z</time>
      </trkpt>
      <trkpt lat="49.76903" lon="4.82268">
        <ele>231</ele>
        <time>2022-06-17T16:00:43.000Z</time>
      </trkpt>
      <trkpt lat="49.76899" lon="4.82263">
        <ele>231</ele>
        <time>2022-06-17T16:00:44.000Z</time>
      </trkpt>
      <trkpt lat="49.76896" lon="4.82257">
        <ele>231</ele>
        <time>2022-06-17T16:00:45.000Z</time>
      </trkpt>
      <trkpt lat="49.76892" lon="4.8225">
        <ele>231</ele>
        <time>2022-06-17T16:00:46.000Z</time>
      </trkpt>
      <trkpt lat="49.76889" lon="4.82243">
        <ele>231</ele>
        <time>2022-06-17T16:00:47.000Z</time>
      </trkpt>
      <trkpt lat="49.76885" lon="4.82236">
        <ele>231</ele>
        <time>2022-06-17T16:00:48.000Z</time>
      </trkpt>
      <trkpt lat="49.76882" lon="4.82229">
        <ele>232</ele>
        <time>2022-06-17T16:00:49.000Z</time>
      </trkpt>
      <trkpt lat="49.76879" lon="4.82222">
        <ele>232</ele>
        <time>2022-06-17T16:00:50.000Z</time>
      </trkpt>
      <trkpt lat="49.76876" lon="4.82215">
        <ele>232</ele>
        <time>2022-06-17T16:00:51.000Z</time>
      </trkpt>
      <trkpt lat="49.76873" lon="4.82208">
        <ele>232</ele>
        <time>2022-06-17T16:00:52.000Z</time>
      </trkpt>
      <trkpt lat="49.7687" lon="4.82201">
        <ele>232</ele>
        <time>2022-06-17T16:00:53.000Z</time>
      </trkpt>
      <trkpt lat="49.76867" lon="4.82194">
        <ele>232</ele>
        <time>2022-06-17T16:00:54.000Z</time>
      </trkpt>
      <trkpt lat="49.76864" lon="4.82188">
        <ele>233</ele>
        <time>2022-06-17T16:00:55.000Z</time>
      </trkpt>
      <trkpt lat="49.76861" lon="4.82181">
        <ele>233</ele>
        <time>2022-06-17T16:00:56.000Z</time>
      </trkpt>
      <trkpt lat="49.76859" lon="4.82175">
        <ele>233</ele>
        <time>2022-06-17T16:00:57.000Z</time>
      </trkpt>
      <trkpt lat="49.76857" lon="4.82168">
        <ele>233</ele>
        <time>2022-06-17T16:00:58.000Z</time>
      </trkpt>
      <trkpt lat="49.76854" lon="4.82162">
        <ele>233</ele>
        <time>2022-06-17T16:00:59.000Z</time>
      </trkpt>
      <trkpt lat="49.76852" lon="4.82155">
        <ele>233</ele>
        <time>2022-06-17T16:01:00.000Z</time>
      </trkpt>
      <trkpt lat="49.76849" lon="4.82149">
        <ele>233</ele>
        <time>2022-06-17T16:01:01.000Z</time>
      </trkpt>
      <trkpt lat="49.76847" lon="4.82142">
        <ele>233</ele>
        <time>2022-06-17T16:01:02.000Z</time>
      </trkpt>
      <trkpt lat="49.76844" lon="4.82135">
        <ele>233</ele>
        <time>2022-06-17T16:01:03.000Z</time>
      </trkpt>
      <trkpt lat="49.76842" lon="4.82128">
        <ele>233</ele>
        <time>2022-06-17T16:01:04.000Z</time>
      </trkpt>
      <trkpt lat="49.76839" lon="4.82121">
        <ele>233</ele>
        <time>2022-06-17T16:01:05.000Z</time>
      </trkpt>
      <trkpt lat="49.76836" lon="4.82113">
        <ele>233</ele>
        <time>2022-06-17T16:01:06.000Z</time>
      </trkpt>
      <trkpt lat="49.76834" lon="4.82106">
        <ele>233</ele>
        <time>2022-06-17T16:01:07.000Z</time>
      </trkpt>
      <trkpt lat="49.76832" lon="4.82098">
        <ele>233</ele>
        <time>2022-06-17T16:01:08.000Z</time>
      </trkpt>
      <trkpt lat="49.76829" lon="4.82091">
        <ele>233</ele>
        <time>2022-06-17T16:01:09.000Z</time>
      </trkpt>
      <trkpt lat="49.76827" lon="4.82084">
        <ele>233</ele>
        <time>2022-06-17T16:01:10.000Z</time>
      </trkpt>
      <trkpt lat="49.76825" lon="4.82077">
        <ele>233</ele>
        <time>2022-06-17T16:01:11.000Z</time>
      </trkpt>
      <trkpt lat="49.76822" lon="4.8207">
        <ele>233</ele>
        <time>2022-06-17T16:01:12.000Z</time>
      </trkpt>
      <trkpt lat="49.7682" lon="4.82063">
        <ele>233</ele>
        <time>2022-06-17T16:01:13.000Z</time>
      </trkpt>
      <trkpt lat="49.76818" lon="4.82056">
        <ele>233</ele>
        <time>2022-06-17T16:01:14.000Z</time>
      </trkpt>
      <trkpt lat="49.76815" lon="4.82048">
        <ele>233</ele>
        <time>2022-06-17T16:01:15.000Z</time>
      </trkpt>
      <trkpt lat="49.76813" lon="4.8204">
        <ele>233</ele>
        <time>2022-06-17T16:01:16.000Z</time>
      </trkpt>
      <trkpt lat="49.7681" lon="4.82033">
        <ele>233</ele>
        <time>2022-06-17T16:01:17.000Z</time>
      </trkpt>
      <trkpt lat="49.76808" lon="4.82025">
        <ele>233</ele>
        <time>2022-06-17T16:01:18.000Z</time>
      </trkpt>
      <trkpt lat="49.76805" lon="4.82017">
        <ele>233</ele>
        <time>2022-06-17T16:01:19.000Z</time>
      </trkpt>
      <trkpt lat="49.76803" lon="4.8201">
        <ele>233</ele>
        <time>2022-06-17T16:01:20.000Z</time>
      </trkpt>
      <trkpt lat="49.768" lon="4.82002">
        <ele>233</ele>
        <time>2022-06-17T16:01:21.000Z</time>
      </trkpt>
      <trkpt lat="49.76797" lon="4.81994">
        <ele>233</ele>
        <time>2022-06-17T16:01:22.000Z</time>
      </trkpt>
      <trkpt lat="49.76795" lon="4.81987">
        <ele>233</ele>
        <time>2022-06-17T16:01:23.000Z</time>
      </trkpt>
      <trkpt lat="49.76793" lon="4.8198">
        <ele>233</ele>
        <time>2022-06-17T16:01:24.000Z</time>
      </trkpt>
      <trkpt lat="49.7679" lon="4.81972">
        <ele>233</ele>
        <time>2022-06-17T16:01:25.000Z</time>
      </trkpt>
      <trkpt lat="49.76787" lon="4.81966">
        <ele>233</ele>
        <time>2022-06-17T16:01:26.000Z</time>
      </trkpt>
      <trkpt lat="49.76784" lon="4.8196">
        <ele>233</ele>
        <time>2022-06-17T16:01:27.000Z</time>
      </trkpt>
      <trkpt lat="49.7678" lon="4.81954">
        <ele>233</ele>
        <time>2022-06-17T16:01:28.000Z</time>
      </trkpt>
      <trkpt lat="49.76776" lon="4.8195">
        <ele>233</ele>
        <time>2022-06-17T16:01:29.000Z</time>
      </trkpt>
      <trkpt lat="49.76772" lon="4.81944">
        <ele>233</ele>
        <time>2022-06-17T16:01:30.000Z</time>
      </trkpt>
      <trkpt lat="49.76768" lon="4.81939">
        <ele>233</ele>
        <time>2022-06-17T16:01:31.000Z</time>
      </trkpt>
      <trkpt lat="49.76765" lon="4.81932">
        <ele>233</ele>
        <time>2022-06-17T16:01:32.000Z</time>
      </trkpt>
      <trkpt lat="49.76763" lon="4.81925">
        <ele>233</ele>
        <time>2022-06-17T16:01:33.000Z</time>
      </trkpt>
      <trkpt lat="49.7676" lon="4.81917">
        <ele>233</ele>
        <time>2022-06-17T16:01:34.000Z</time>
      </trkpt>
      <trkpt lat="49.76758" lon="4.8191">
        <ele>233</ele>
        <time>2022-06-17T16:01:35.000Z</time>
      </trkpt>
      <trkpt lat="49.76756" lon="4.81902">
        <ele>233</ele>
        <time>2022-06-17T16:01:36.000Z</time>
      </trkpt>
      <trkpt lat="49.76754" lon="4.81894">
        <ele>233</ele>
        <time>2022-06-17T16:01:37.000Z</time>
      </trkpt>
      <trkpt lat="49.76752" lon="4.81886">
        <ele>233</ele>
        <time>2022-06-17T16:01:38.000Z</time>
      </trkpt>
      <trkpt lat="49.7675" lon="4.81878">
        <ele>234</ele>
        <time>2022-06-17T16:01:39.000Z</time>
      </trkpt>
      <trkpt lat="49.76748" lon="4.8187">
        <ele>234</ele>
        <time>2022-06-17T16:01:40.000Z</time>
      </trkpt>
      <trkpt lat="49.76746" lon="4.81863">
        <ele>234</ele>
        <time>2022-06-17T16:01:41.000Z</time>
      </trkpt>
      <trkpt lat="49.76745" lon="4.81855">
        <ele>234</ele>
        <time>2022-06-17T16:01:42.000Z</time>
      </trkpt>
      <trkpt lat="49.76743" lon="4.81847">
        <ele>234</ele>
        <time>2022-06-17T16:01:43.000Z</time>
      </trkpt>
      <trkpt lat="49.76741" lon="4.8184">
        <ele>234</ele>
        <time>2022-06-17T16:01:44.000Z</time>
      </trkpt>
      <trkpt lat="49.7674" lon="4.81833">
        <ele>234</ele>
        <time>2022-06-17T16:01:45.000Z</time>
      </trkpt>
      <trkpt lat="49.76738" lon="4.81825">
        <ele>234</ele>
        <time>2022-06-17T16:01:46.000Z</time>
      </trkpt>
      <trkpt lat="49.76736" lon="4.81818">
        <ele>234</ele>
        <time>2022-06-17T16:01:47.000Z</time>
      </trkpt>
      <trkpt lat="49.76735" lon="4.81812">
        <ele>234</ele>
        <time>2022-06-17T16:01:48.000Z</time>
      </trkpt>
      <trkpt lat="49.76733" lon="4.81805">
        <ele>234</ele>
        <time>2022-06-17T16:01:49.000Z</time>
      </trkpt>
      <trkpt lat="49.7673" lon="4.818">
        <ele>234</ele>
        <time>2022-06-17T16:01:50.000Z</time>
      </trkpt>
      <trkpt lat="49.76727" lon="4.81795">
        <ele>234</ele>
        <time>2022-06-17T16:01:51.000Z</time>
      </trkpt>
      <trkpt lat="49.76724" lon="4.81791">
        <ele>234</ele>
        <time>2022-06-17T16:01:52.000Z</time>
      </trkpt>
      <trkpt lat="49.7672" lon="4.81786">
        <ele>235</ele>
        <time>2022-06-17T16:01:53.000Z</time>
      </trkpt>
      <trkpt lat="49.76717" lon="4.81782">
        <ele>235</ele>
        <time>2022-06-17T16:01:54.000Z</time>
      </trkpt>
      <trkpt lat="49.76714" lon="4.81778">
        <ele>235</ele>
        <time>2022-06-17T16:01:55.000Z</time>
      </trkpt>
      <trkpt lat="49.76711" lon="4.81774">
        <ele>235</ele>
        <time>2022-06-17T16:01:56.000Z</time>
      </trkpt>
      <trkpt lat="49.76708" lon="4.8177">
        <ele>236</ele>
        <time>2022-06-17T16:01:57.000Z</time>
      </trkpt>
      <trkpt lat="49.76705" lon="4.81766">
        <ele>236</ele>
        <time>2022-06-17T16:01:58.000Z</time>
      </trkpt>
      <trkpt lat="49.76702" lon="4.81761">
        <ele>236</ele>
        <time>2022-06-17T16:01:59.000Z</time>
      </trkpt>
      <trkpt lat="49.767" lon="4.81755">
        <ele>236</ele>
        <time>2022-06-17T16:02:00.000Z</time>
      </trkpt>
      <trkpt lat="49.76697" lon="4.8175">
        <ele>236</ele>
        <time>2022-06-17T16:02:01.000Z</time>
      </trkpt>
      <trkpt lat="49.76695" lon="4.81744">
        <ele>236</ele>
        <time>2022-06-17T16:02:02.000Z</time>
      </trkpt>
      <trkpt lat="49.76693" lon="4.81738">
        <ele>236</ele>
        <time>2022-06-17T16:02:03.000Z</time>
      </trkpt>
      <trkpt lat="49.76692" lon="4.81731">
        <ele>236</ele>
        <time>2022-06-17T16:02:04.000Z</time>
      </trkpt>
      <trkpt lat="49.76691" lon="4.81724">
        <ele>236</ele>
        <time>2022-06-17T16:02:05.000Z</time>
      </trkpt>
      <trkpt lat="49.7669" lon="4.81718">
        <ele>236</ele>
        <time>2022-06-17T16:02:06.000Z</time>
      </trkpt>
      <trkpt lat="49.76688" lon="4.81711">
        <ele>236</ele>
        <time>2022-06-17T16:02:07.000Z</time>
      </trkpt>
      <trkpt lat="49.76685" lon="4.81705">
        <ele>236</ele>
        <time>2022-06-17T16:02:08.000Z</time>
      </trkpt>
      <trkpt lat="49.76681" lon="4.817">
        <ele>236</ele>
        <time>2022-06-17T16:02:09.000Z</time>
      </trkpt>
      <trkpt lat="49.76677" lon="4.81695">
        <ele>236</ele>
        <time>2022-06-17T16:02:10.000Z</time>
      </trkpt>
      <trkpt lat="49.76674" lon="4.8169">
        <ele>236</ele>
        <time>2022-06-17T16:02:11.000Z</time>
      </trkpt>
      <trkpt lat="49.7667" lon="4.81686">
        <ele>236</ele>
        <time>2022-06-17T16:02:12.000Z</time>
      </trkpt>
      <trkpt lat="49.76666" lon="4.81681">
        <ele>236</ele>
        <time>2022-06-17T16:02:13.000Z</time>
      </trkpt>
      <trkpt lat="49.76662" lon="4.81677">
        <ele>236</ele>
        <time>2022-06-17T16:02:14.000Z</time>
      </trkpt>
      <trkpt lat="49.76659" lon="4.81672">
        <ele>237</ele>
        <time>2022-06-17T16:02:15.000Z</time>
      </trkpt>
      <trkpt lat="49.76655" lon="4.81668">
        <ele>237</ele>
        <time>2022-06-17T16:02:16.000Z</time>
      </trkpt>
      <trkpt lat="49.76651" lon="4.81664">
        <ele>237</ele>
        <time>2022-06-17T16:02:17.000Z</time>
      </trkpt>
      <trkpt lat="49.76647" lon="4.81662">
        <ele>237</ele>
        <time>2022-06-17T16:02:18.000Z</time>
      </trkpt>
      <trkpt lat="49.76643" lon="4.81664">
        <ele>237</ele>
        <time>2022-06-17T16:02:19.000Z</time>
      </trkpt>
      <trkpt lat="49.7664" lon="4.81666">
        <ele>237</ele>
        <time>2022-06-17T16:02:20.000Z</time>
      </trkpt>
      <trkpt lat="49.76637" lon="4.81669">
        <ele>238</ele>
        <time>2022-06-17T16:02:21.000Z</time>
      </trkpt>
      <trkpt lat="49.76634" lon="4.81673">
        <ele>238</ele>
        <time>2022-06-17T16:02:22.000Z</time>
      </trkpt>
      <trkpt lat="49.76632" lon="4.81676">
        <ele>238</ele>
        <time>2022-06-17T16:02:23.000Z</time>
      </trkpt>
      <trkpt lat="49.76631" lon="4.81678">
        <ele>238</ele>
        <time>2022-06-17T16:02:24.000Z</time>
      </trkpt>
      <trkpt lat="49.76629" lon="4.81681">
        <ele>238</ele>
        <time>2022-06-17T16:02:25.000Z</time>
      </trkpt>
      <trkpt lat="49.76628" lon="4.81684">
        <ele>238</ele>
        <time>2022-06-17T16:02:26.000Z</time>
      </trkpt>
      <trkpt lat="49.76626" lon="4.81687">
        <ele>238</ele>
        <time>2022-06-17T16:02:27.000Z</time>
      </trkpt>
      <trkpt lat="49.76625" lon="4.8169">
        <ele>238</ele>
        <time>2022-06-17T16:02:28.000Z</time>
      </trkpt>
      <trkpt lat="49.76623" lon="4.81693">
        <ele>239</ele>
        <time>2022-06-17T16:02:29.000Z</time>
      </trkpt>
      <trkpt lat="49.76622" lon="4.81696">
        <ele>239</ele>
        <time>2022-06-17T16:02:30.000Z</time>
      </trkpt>
      <trkpt lat="49.76621" lon="4.81699">
        <ele>239</ele>
        <time>2022-06-17T16:02:31.000Z</time>
      </trkpt>
      <trkpt lat="49.76619" lon="4.81702">
        <ele>239</ele>
        <time>2022-06-17T16:02:32.000Z</time>
      </trkpt>
      <trkpt lat="49.76618" lon="4.81705">
        <ele>239</ele>
        <time>2022-06-17T16:02:33.000Z</time>
      </trkpt>
      <trkpt lat="49.76616" lon="4.81708">
        <ele>239</ele>
        <time>2022-06-17T16:02:34.000Z</time>
      </trkpt>
      <trkpt lat="49.76615" lon="4.81711">
        <ele>239</ele>
        <time>2022-06-17T16:02:35.000Z</time>
      </trkpt>
      <trkpt lat="49.76613" lon="4.81714">
        <ele>239</ele>
        <time>2022-06-17T16:02:36.000Z</time>
      </trkpt>
      <trkpt lat="49.76612" lon="4.81717">
        <ele>240</ele>
        <time>2022-06-17T16:02:37.000Z</time>
      </trkpt>
      <trkpt lat="49.7661" lon="4.81721">
        <ele>240</ele>
        <time>2022-06-17T16:02:38.000Z</time>
      </trkpt>
      <trkpt lat="49.76609" lon="4.81724">
        <ele>240</ele>
        <time>2022-06-17T16:02:39.000Z</time>
      </trkpt>
      <trkpt lat="49.76607" lon="4.81728">
        <ele>240</ele>
        <time>2022-06-17T16:02:40.000Z</time>
      </trkpt>
      <trkpt lat="49.76605" lon="4.81731">
        <ele>241</ele>
        <time>2022-06-17T16:02:41.000Z</time>
      </trkpt>
      <trkpt lat="49.76604" lon="4.81735">
        <ele>241</ele>
        <time>2022-06-17T16:02:42.000Z</time>
      </trkpt>
      <trkpt lat="49.76602" lon="4.81738">
        <ele>241</ele>
        <time>2022-06-17T16:02:43.000Z</time>
      </trkpt>
      <trkpt lat="49.76601" lon="4.81741">
        <ele>241</ele>
        <time>2022-06-17T16:02:44.000Z</time>
      </trkpt>
      <trkpt lat="49.76599" lon="4.81744">
        <ele>241</ele>
        <time>2022-06-17T16:02:45.000Z</time>
      </trkpt>
      <trkpt lat="49.76598" lon="4.81748">
        <ele>241</ele>
        <time>2022-06-17T16:02:46.000Z</time>
      </trkpt>
      <trkpt lat="49.76596" lon="4.81751">
        <ele>242</ele>
        <time>2022-06-17T16:02:47.000Z</time>
      </trkpt>
      <trkpt lat="49.76595" lon="4.81755">
        <ele>242</ele>
        <time>2022-06-17T16:02:48.000Z</time>
      </trkpt>
      <trkpt lat="49.76594" lon="4.81759">
        <ele>242</ele>
        <time>2022-06-17T16:02:49.000Z</time>
      </trkpt>
      <trkpt lat="49.76592" lon="4.81763">
        <ele>242</ele>
        <time>2022-06-17T16:02:50.000Z</time>
      </trkpt>
      <trkpt lat="49.76591" lon="4.81766">
        <ele>242</ele>
        <time>2022-06-17T16:02:51.000Z</time>
      </trkpt>
      <trkpt lat="49.76589" lon="4.81769">
        <ele>243</ele>
        <time>2022-06-17T16:02:52.000Z</time>
      </trkpt>
      <trkpt lat="49.76587" lon="4.81772">
        <ele>243</ele>
        <time>2022-06-17T16:02:53.000Z</time>
      </trkpt>
      <trkpt lat="49.76586" lon="4.81775">
        <ele>243</ele>
        <time>2022-06-17T16:02:54.000Z</time>
      </trkpt>
      <trkpt lat="49.76585" lon="4.81778">
        <ele>243</ele>
        <time>2022-06-17T16:02:55.000Z</time>
      </trkpt>
      <trkpt lat="49.76583" lon="4.81782">
        <ele>243</ele>
        <time>2022-06-17T16:02:56.000Z</time>
      </trkpt>
      <trkpt lat="49.76581" lon="4.81785">
        <ele>244</ele>
        <time>2022-06-17T16:02:57.000Z</time>
      </trkpt>
      <trkpt lat="49.7658" lon="4.81788">
        <ele>244</ele>
        <time>2022-06-17T16:02:58.000Z</time>
      </trkpt>
      <trkpt lat="49.76578" lon="4.81792">
        <ele>244</ele>
        <time>2022-06-17T16:02:59.000Z</time>
      </trkpt>
      <trkpt lat="49.76577" lon="4.81795">
        <ele>244</ele>
        <time>2022-06-17T16:03:00.000Z</time>
      </trkpt>
      <trkpt lat="49.76575" lon="4.81798">
        <ele>244</ele>
        <time>2022-06-17T16:03:01.000Z</time>
      </trkpt>
      <trkpt lat="49.76573" lon="4.81801">
        <ele>244</ele>
        <time>2022-06-17T16:03:02.000Z</time>
      </trkpt>
      <trkpt lat="49.76572" lon="4.81804">
        <ele>245</ele>
        <time>2022-06-17T16:03:03.000Z</time>
      </trkpt>
      <trkpt lat="49.7657" lon="4.81806">
        <ele>245</ele>
        <time>2022-06-17T16:03:04.000Z</time>
      </trkpt>
      <trkpt lat="49.76569" lon="4.8181">
        <ele>245</ele>
        <time>2022-06-17T16:03:05.000Z</time>
      </trkpt>
      <trkpt lat="49.76567" lon="4.81813">
        <ele>245</ele>
        <time>2022-06-17T16:03:06.000Z</time>
      </trkpt>
      <trkpt lat="49.76565" lon="4.81816">
        <ele>246</ele>
        <time>2022-06-17T16:03:07.000Z</time>
      </trkpt>
      <trkpt lat="49.76563" lon="4.81819">
        <ele>246</ele>
        <time>2022-06-17T16:03:08.000Z</time>
      </trkpt>
      <trkpt lat="49.76561" lon="4.81822">
        <ele>246</ele>
        <time>2022-06-17T16:03:09.000Z</time>
      </trkpt>
      <trkpt lat="49.76559" lon="4.81825">
        <ele>246</ele>
        <time>2022-06-17T16:03:10.000Z</time>
      </trkpt>
      <trkpt lat="49.76557" lon="4.81827">
        <ele>247</ele>
        <time>2022-06-17T16:03:11.000Z</time>
      </trkpt>
      <trkpt lat="49.76555" lon="4.8183">
        <ele>247</ele>
        <time>2022-06-17T16:03:12.000Z</time>
      </trkpt>
      <trkpt lat="49.76553" lon="4.81832">
        <ele>247</ele>
        <time>2022-06-17T16:03:13.000Z</time>
      </trkpt>
      <trkpt lat="49.7655" lon="4.81834">
        <ele>247</ele>
        <time>2022-06-17T16:03:14.000Z</time>
      </trkpt>
      <trkpt lat="49.76548" lon="4.81835">
        <ele>247</ele>
        <time>2022-06-17T16:03:15.000Z</time>
      </trkpt>
      <trkpt lat="49.76546" lon="4.81837">
        <ele>247</ele>
        <time>2022-06-17T16:03:16.000Z</time>
      </trkpt>
      <trkpt lat="49.76543" lon="4.81838">
        <ele>248</ele>
        <time>2022-06-17T16:03:17.000Z</time>
      </trkpt>
      <trkpt lat="49.7654" lon="4.81839">
        <ele>248</ele>
        <time>2022-06-17T16:03:18.000Z</time>
      </trkpt>
      <trkpt lat="49.76537" lon="4.81839">
        <ele>248</ele>
        <time>2022-06-17T16:03:19.000Z</time>
      </trkpt>
      <trkpt lat="49.76535" lon="4.8184">
        <ele>248</ele>
        <time>2022-06-17T16:03:20.000Z</time>
      </trkpt>
      <trkpt lat="49.76532" lon="4.8184">
        <ele>248</ele>
        <time>2022-06-17T16:03:21.000Z</time>
      </trkpt>
      <trkpt lat="49.76529" lon="4.81839">
        <ele>249</ele>
        <time>2022-06-17T16:03:22.000Z</time>
      </trkpt>
      <trkpt lat="49.76526" lon="4.81839">
        <ele>249</ele>
        <time>2022-06-17T16:03:23.000Z</time>
      </trkpt>
      <trkpt lat="49.76523" lon="4.81838">
        <ele>249</ele>
        <time>2022-06-17T16:03:24.000Z</time>
      </trkpt>
      <trkpt lat="49.7652" lon="4.81838">
        <ele>249</ele>
        <time>2022-06-17T16:03:25.000Z</time>
      </trkpt>
      <trkpt lat="49.76517" lon="4.81837">
        <ele>249</ele>
        <time>2022-06-17T16:03:26.000Z</time>
      </trkpt>
      <trkpt lat="49.76514" lon="4.81837">
        <ele>249</ele>
        <time>2022-06-17T16:03:27.000Z</time>
      </trkpt>
      <trkpt lat="49.76511" lon="4.81836">
        <ele>250</ele>
        <time>2022-06-17T16:03:28.000Z</time>
      </trkpt>
      <trkpt lat="49.76509" lon="4.81836">
        <ele>250</ele>
        <time>2022-06-17T16:03:29.000Z</time>
      </trkpt>
      <trkpt lat="49.76506" lon="4.81835">
        <ele>250</ele>
        <time>2022-06-17T16:03:30.000Z</time>
      </trkpt>
      <trkpt lat="49.76504" lon="4.81835">
        <ele>250</ele>
        <time>2022-06-17T16:03:31.000Z</time>
      </trkpt>
      <trkpt lat="49.76502" lon="4.81835">
        <ele>251</ele>
        <time>2022-06-17T16:03:32.000Z</time>
      </trkpt>
      <trkpt lat="49.765" lon="4.81834">
        <ele>251</ele>
        <time>2022-06-17T16:03:33.000Z</time>
      </trkpt>
      <trkpt lat="49.76498" lon="4.81834">
        <ele>251</ele>
        <time>2022-06-17T16:03:34.000Z</time>
      </trkpt>
      <trkpt lat="49.76496" lon="4.81834">
        <ele>251</ele>
        <time>2022-06-17T16:03:35.000Z</time>
      </trkpt>
      <trkpt lat="49.76493" lon="4.81834">
        <ele>251</ele>
        <time>2022-06-17T16:03:36.000Z</time>
      </trkpt>
      <trkpt lat="49.76491" lon="4.81832">
        <ele>251</ele>
        <time>2022-06-17T16:03:37.000Z</time>
      </trkpt>
      <trkpt lat="49.7649" lon="4.8183">
        <ele>252</ele>
        <time>2022-06-17T16:03:38.000Z</time>
      </trkpt>
      <trkpt lat="49.76488" lon="4.81828">
        <ele>252</ele>
        <time>2022-06-17T16:03:39.000Z</time>
      </trkpt>
      <trkpt lat="49.76487" lon="4.81824">
        <ele>252</ele>
        <time>2022-06-17T16:03:40.000Z</time>
      </trkpt>
      <trkpt lat="49.76485" lon="4.81821">
        <ele>252</ele>
        <time>2022-06-17T16:03:41.000Z</time>
      </trkpt>
      <trkpt lat="49.76484" lon="4.81817">
        <ele>252</ele>
        <time>2022-06-17T16:03:42.000Z</time>
      </trkpt>
      <trkpt lat="49.76483" lon="4.81813">
        <ele>252</ele>
        <time>2022-06-17T16:03:43.000Z</time>
      </trkpt>
      <trkpt lat="49.76482" lon="4.81809">
        <ele>252</ele>
        <time>2022-06-17T16:03:44.000Z</time>
      </trkpt>
      <trkpt lat="49.76481" lon="4.81805">
        <ele>253</ele>
        <time>2022-06-17T16:03:45.000Z</time>
      </trkpt>
      <trkpt lat="49.7648" lon="4.81801">
        <ele>253</ele>
        <time>2022-06-17T16:03:46.000Z</time>
      </trkpt>
      <trkpt lat="49.76479" lon="4.81796">
        <ele>253</ele>
        <time>2022-06-17T16:03:47.000Z</time>
      </trkpt>
      <trkpt lat="49.76478" lon="4.81792">
        <ele>253</ele>
        <time>2022-06-17T16:03:48.000Z</time>
      </trkpt>
      <trkpt lat="49.76477" lon="4.81789">
        <ele>253</ele>
        <time>2022-06-17T16:03:49.000Z</time>
      </trkpt>
      <trkpt lat="49.76476" lon="4.81785">
        <ele>254</ele>
        <time>2022-06-17T16:03:50.000Z</time>
      </trkpt>
      <trkpt lat="49.76475" lon="4.81781">
        <ele>254</ele>
        <time>2022-06-17T16:03:51.000Z</time>
      </trkpt>
      <trkpt lat="49.76474" lon="4.81776">
        <ele>254</ele>
        <time>2022-06-17T16:03:52.000Z</time>
      </trkpt>
      <trkpt lat="49.76473" lon="4.81772">
        <ele>254</ele>
        <time>2022-06-17T16:03:53.000Z</time>
      </trkpt>
      <trkpt lat="49.76472" lon="4.81768">
        <ele>254</ele>
        <time>2022-06-17T16:03:54.000Z</time>
      </trkpt>
      <trkpt lat="49.7647" lon="4.81764">
        <ele>255</ele>
        <time>2022-06-17T16:03:55.000Z</time>
      </trkpt>
      <trkpt lat="49.76469" lon="4.81761">
        <ele>255</ele>
        <time>2022-06-17T16:03:56.000Z</time>
      </trkpt>
      <trkpt lat="49.76468" lon="4.81757">
        <ele>255</ele>
        <time>2022-06-17T16:03:57.000Z</time>
      </trkpt>
      <trkpt lat="49.76467" lon="4.81752">
        <ele>255</ele>
        <time>2022-06-17T16:03:58.000Z</time>
      </trkpt>
      <trkpt lat="49.76467" lon="4.81749">
        <ele>256</ele>
        <time>2022-06-17T16:03:59.000Z</time>
      </trkpt>
      <trkpt lat="49.76466" lon="4.81745">
        <ele>256</ele>
        <time>2022-06-17T16:04:00.000Z</time>
      </trkpt>
      <trkpt lat="49.76465" lon="4.81741">
        <ele>256</ele>
        <time>2022-06-17T16:04:01.000Z</time>
      </trkpt>
      <trkpt lat="49.76464" lon="4.81737">
        <ele>256</ele>
        <time>2022-06-17T16:04:02.000Z</time>
      </trkpt>
      <trkpt lat="49.76463" lon="4.81733">
        <ele>256</ele>
        <time>2022-06-17T16:04:03.000Z</time>
      </trkpt>
      <trkpt lat="49.76462" lon="4.81729">
        <ele>256</ele>
        <time>2022-06-17T16:04:04.000Z</time>
      </trkpt>
      <trkpt lat="49.76461" lon="4.81725">
        <ele>257</ele>
        <time>2022-06-17T16:04:05.000Z</time>
      </trkpt>
      <trkpt lat="49.7646" lon="4.81721">
        <ele>257</ele>
        <time>2022-06-17T16:04:06.000Z</time>
      </trkpt>
      <trkpt lat="49.76459" lon="4.81717">
        <ele>257</ele>
        <time>2022-06-17T16:04:07.000Z</time>
      </trkpt>
      <trkpt lat="49.76458" lon="4.81713">
        <ele>257</ele>
        <time>2022-06-17T16:04:08.000Z</time>
      </trkpt>
      <trkpt lat="49.76457" lon="4.81709">
        <ele>257</ele>
        <time>2022-06-17T16:04:09.000Z</time>
      </trkpt>
      <trkpt lat="49.76456" lon="4.81706">
        <ele>258</ele>
        <time>2022-06-17T16:04:10.000Z</time>
      </trkpt>
      <trkpt lat="49.76455" lon="4.81702">
        <ele>258</ele>
        <time>2022-06-17T16:04:11.000Z</time>
      </trkpt>
      <trkpt lat="49.76454" lon="4.81699">
        <ele>258</ele>
        <time>2022-06-17T16:04:12.000Z</time>
      </trkpt>
      <trkpt lat="49.76453" lon="4.81695">
        <ele>258</ele>
        <time>2022-06-17T16:04:13.000Z</time>
      </trkpt>
      <trkpt lat="49.76452" lon="4.81691">
        <ele>258</ele>
        <time>2022-06-17T16:04:14.000Z</time>
      </trkpt>
      <trkpt lat="49.76451" lon="4.81687">
        <ele>258</ele>
        <time>2022-06-17T16:04:15.000Z</time>
      </trkpt>
      <trkpt lat="49.7645" lon="4.81683">
        <ele>258</ele>
        <time>2022-06-17T16:04:16.000Z</time>
      </trkpt>
      <trkpt lat="49.76449" lon="4.8168">
        <ele>259</ele>
        <time>2022-06-17T16:04:17.000Z</time>
      </trkpt>
      <trkpt lat="49.76449" lon="4.81676">
        <ele>259</ele>
        <time>2022-06-17T16:04:18.000Z</time>
      </trkpt>
      <trkpt lat="49.76448" lon="4.81673">
        <ele>259</ele>
        <time>2022-06-17T16:04:19.000Z</time>
      </trkpt>
      <trkpt lat="49.76447" lon="4.81669">
        <ele>259</ele>
        <time>2022-06-17T16:04:20.000Z</time>
      </trkpt>
      <trkpt lat="49.76446" lon="4.81665">
        <ele>259</ele>
        <time>2022-06-17T16:04:21.000Z</time>
      </trkpt>
      <trkpt lat="49.76445" lon="4.81662">
        <ele>259</ele>
        <time>2022-06-17T16:04:22.000Z</time>
      </trkpt>
      <trkpt lat="49.76444" lon="4.81658">
        <ele>259</ele>
        <time>2022-06-17T16:04:23.000Z</time>
      </trkpt>
      <trkpt lat="49.76442" lon="4.81654">
        <ele>259</ele>
        <time>2022-06-17T16:04:24.000Z</time>
      </trkpt>
      <trkpt lat="49.76441" lon="4.8165">
        <ele>259</ele>
        <time>2022-06-17T16:04:25.000Z</time>
      </trkpt>
      <trkpt lat="49.76441" lon="4.81646">
        <ele>259</ele>
        <time>2022-06-17T16:04:26.000Z</time>
      </trkpt>
      <trkpt lat="49.7644" lon="4.81642">
        <ele>259</ele>
        <time>2022-06-17T16:04:27.000Z</time>
      </trkpt>
      <trkpt lat="49.76439" lon="4.81639">
        <ele>259</ele>
        <time>2022-06-17T16:04:28.000Z</time>
      </trkpt>
      <trkpt lat="49.76438" lon="4.81635">
        <ele>260</ele>
        <time>2022-06-17T16:04:29.000Z</time>
      </trkpt>
      <trkpt lat="49.76437" lon="4.81632">
        <ele>260</ele>
        <time>2022-06-17T16:04:30.000Z</time>
      </trkpt>
      <trkpt lat="49.76437" lon="4.81629">
        <ele>260</ele>
        <time>2022-06-17T16:04:31.000Z</time>
      </trkpt>
      <trkpt lat="49.76436" lon="4.81626">
        <ele>260</ele>
        <time>2022-06-17T16:04:32.000Z</time>
      </trkpt>
      <trkpt lat="49.76436" lon="4.81623">
        <ele>261</ele>
        <time>2022-06-17T16:04:33.000Z</time>
      </trkpt>
      <trkpt lat="49.76435" lon="4.8162">
        <ele>261</ele>
        <time>2022-06-17T16:04:34.000Z</time>
      </trkpt>
      <trkpt lat="49.76434" lon="4.81617">
        <ele>261</ele>
        <time>2022-06-17T16:04:35.000Z</time>
      </trkpt>
      <trkpt lat="49.76433" lon="4.81615">
        <ele>262</ele>
        <time>2022-06-17T16:04:36.000Z</time>
      </trkpt>
      <trkpt lat="49.76433" lon="4.81612">
        <ele>262</ele>
        <time>2022-06-17T16:04:37.000Z</time>
      </trkpt>
      <trkpt lat="49.76433" lon="4.8161">
        <ele>262</ele>
        <time>2022-06-17T16:04:38.000Z</time>
      </trkpt>
      <trkpt lat="49.76433" lon="4.81607">
        <ele>262</ele>
        <time>2022-06-17T16:04:39.000Z</time>
      </trkpt>
      <trkpt lat="49.76433" lon="4.81606">
        <ele>262</ele>
        <time>2022-06-17T16:04:40.000Z</time>
      </trkpt>
      <trkpt lat="49.76434" lon="4.81604">
        <ele>262</ele>
        <time>2022-06-17T16:04:41.000Z</time>
      </trkpt>
      <trkpt lat="49.76434" lon="4.81602">
        <ele>263</ele>
        <time>2022-06-17T16:04:42.000Z</time>
      </trkpt>
      <trkpt lat="49.76434" lon="4.816">
        <ele>263</ele>
        <time>2022-06-17T16:04:43.000Z</time>
      </trkpt>
      <trkpt lat="49.76434" lon="4.81598">
        <ele>263</ele>
        <time>2022-06-17T16:04:44.000Z</time>
      </trkpt>
      <trkpt lat="49.76434" lon="4.81596">
        <ele>263</ele>
        <time>2022-06-17T16:04:45.000Z</time>
      </trkpt>
      <trkpt lat="49.76434" lon="4.81594">
        <ele>263</ele>
        <time>2022-06-17T16:04:46.000Z</time>
      </trkpt>
      <trkpt lat="49.76433" lon="4.81591">
        <ele>264</ele>
        <time>2022-06-17T16:04:47.000Z</time>
      </trkpt>
      <trkpt lat="49.76432" lon="4.81589">
        <ele>264</ele>
        <time>2022-06-17T16:04:48.000Z</time>
      </trkpt>
      <trkpt lat="49.76432" lon="4.81586">
        <ele>264</ele>
        <time>2022-06-17T16:04:49.000Z</time>
      </trkpt>
      <trkpt lat="49.76431" lon="4.81584">
        <ele>264</ele>
        <time>2022-06-17T16:04:50.000Z</time>
      </trkpt>
      <trkpt lat="49.76431" lon="4.81582">
        <ele>264</ele>
        <time>2022-06-17T16:04:51.000Z</time>
      </trkpt>
      <trkpt lat="49.7643" lon="4.8158">
        <ele>265</ele>
        <time>2022-06-17T16:04:52.000Z</time>
      </trkpt>
      <trkpt lat="49.7643" lon="4.81578">
        <ele>265</ele>
        <time>2022-06-17T16:04:53.000Z</time>
      </trkpt>
      <trkpt lat="49.7643" lon="4.81576">
        <ele>265</ele>
        <time>2022-06-17T16:04:54.000Z</time>
      </trkpt>
      <trkpt lat="49.76429" lon="4.81575">
        <ele>265</ele>
        <time>2022-06-17T16:04:55.000Z</time>
      </trkpt>
      <trkpt lat="49.76429" lon="4.81575">
        <ele>265</ele>
        <time>2022-06-17T16:04:56.000Z</time>
      </trkpt>
      <trkpt lat="49.76429" lon="4.81575">
        <ele>266</ele>
        <time>2022-06-17T16:04:57.000Z</time>
      </trkpt>
      <trkpt lat="49.76428" lon="4.81575">
        <ele>266</ele>
        <time>2022-06-17T16:04:58.000Z</time>
      </trkpt>
      <trkpt lat="49.76428" lon="4.81574">
        <ele>266</ele>
        <time>2022-06-17T16:04:59.000Z</time>
      </trkpt>
      <trkpt lat="49.76428" lon="4.81574">
        <ele>266</ele>
        <time>2022-06-17T16:05:00.000Z</time>
      </trkpt>
      <trkpt lat="49.76428" lon="4.81574">
        <ele>266</ele>
        <time>2022-06-17T16:05:01.000Z</time>
      </trkpt>
      <trkpt lat="49.76427" lon="4.81574">
        <ele>266</ele>
        <time>2022-06-17T16:05:02.000Z</time>
      </trkpt>
      <trkpt lat="49.76427" lon="4.81574">
        <ele>266</ele>
        <time>2022-06-17T16:05:03.000Z</time>
      </trkpt>
      <trkpt lat="49.76427" lon="4.81573">
        <ele>266</ele>
        <time>2022-06-17T16:05:04.000Z</time>
      </trkpt>
      <trkpt lat="49.76426" lon="4.81572">
        <ele>267</ele>
        <time>2022-06-17T16:05:05.000Z</time>
      </trkpt>
      <trkpt lat="49.76425" lon="4.8157">
        <ele>267</ele>
        <time>2022-06-17T16:05:06.000Z</time>
      </trkpt>
      <trkpt lat="49.76424" lon="4.81568">
        <ele>267</ele>
        <time>2022-06-17T16:05:07.000Z</time>
      </trkpt>
      <trkpt lat="49.76424" lon="4.81567">
        <ele>267</ele>
        <time>2022-06-17T16:05:08.000Z</time>
      </trkpt>
      <trkpt lat="49.76423" lon="4.81566">
        <ele>267</ele>
        <time>2022-06-17T16:05:09.000Z</time>
      </trkpt>
      <trkpt lat="49.76422" lon="4.81564">
        <ele>268</ele>
        <time>2022-06-17T16:05:10.000Z</time>
      </trkpt>
      <trkpt lat="49.76421" lon="4.81561">
        <ele>268</ele>
        <time>2022-06-17T16:05:11.000Z</time>
      </trkpt>
      <trkpt lat="49.7642" lon="4.81559">
        <ele>268</ele>
        <time>2022-06-17T16:05:12.000Z</time>
      </trkpt>
      <trkpt lat="49.76419" lon="4.81557">
        <ele>268</ele>
        <time>2022-06-17T16:05:13.000Z</time>
      </trkpt>
      <trkpt lat="49.76418" lon="4.81555">
        <ele>268</ele>
        <time>2022-06-17T16:05:14.000Z</time>
      </trkpt>
      <trkpt lat="49.76417" lon="4.81552">
        <ele>268</ele>
        <time>2022-06-17T16:05:15.000Z</time>
      </trkpt>
      <trkpt lat="49.76416" lon="4.8155">
        <ele>269</ele>
        <time>2022-06-17T16:05:16.000Z</time>
      </trkpt>
      <trkpt lat="49.76415" lon="4.81548">
        <ele>269</ele>
        <time>2022-06-17T16:05:17.000Z</time>
      </trkpt>
      <trkpt lat="49.76413" lon="4.81546">
        <ele>269</ele>
        <time>2022-06-17T16:05:18.000Z</time>
      </trkpt>
      <trkpt lat="49.76412" lon="4.81544">
        <ele>269</ele>
        <time>2022-06-17T16:05:19.000Z</time>
      </trkpt>
      <trkpt lat="49.76411" lon="4.81542">
        <ele>269</ele>
        <time>2022-06-17T16:05:20.000Z</time>
      </trkpt>
      <trkpt lat="49.7641" lon="4.81541">
        <ele>269</ele>
        <time>2022-06-17T16:05:21.000Z</time>
      </trkpt>
      <trkpt lat="49.76409" lon="4.81539">
        <ele>269</ele>
        <time>2022-06-17T16:05:22.000Z</time>
      </trkpt>
      <trkpt lat="49.76408" lon="4.81537">
        <ele>269</ele>
        <time>2022-06-17T16:05:23.000Z</time>
      </trkpt>
      <trkpt lat="49.76407" lon="4.81535">
        <ele>269</ele>
        <time>2022-06-17T16:05:24.000Z</time>
      </trkpt>
      <trkpt lat="49.76406" lon="4.81533">
        <ele>269</ele>
        <time>2022-06-17T16:05:25.000Z</time>
      </trkpt>
      <trkpt lat="49.76405" lon="4.81531">
        <ele>270</ele>
        <time>2022-06-17T16:05:26.000Z</time>
      </trkpt>
      <trkpt lat="49.76404" lon="4.81529">
        <ele>270</ele>
        <time>2022-06-17T16:05:27.000Z</time>
      </trkpt>
      <trkpt lat="49.76403" lon="4.81527">
        <ele>270</ele>
        <time>2022-06-17T16:05:28.000Z</time>
      </trkpt>
      <trkpt lat="49.76402" lon="4.81525">
        <ele>270</ele>
        <time>2022-06-17T16:05:29.000Z</time>
      </trkpt>
      <trkpt lat="49.76401" lon="4.81523">
        <ele>270</ele>
        <time>2022-06-17T16:05:30.000Z</time>
      </trkpt>
      <trkpt lat="49.764" lon="4.81521">
        <ele>270</ele>
        <time>2022-06-17T16:05:31.000Z</time>
      </trkpt>
      <trkpt lat="49.76399" lon="4.81518">
        <ele>271</ele>
        <time>2022-06-17T16:05:32.000Z</time>
      </trkpt>
      <trkpt lat="49.76398" lon="4.81516">
        <ele>271</ele>
        <time>2022-06-17T16:05:33.000Z</time>
      </trkpt>
      <trkpt lat="49.76397" lon="4.81514">
        <ele>271</ele>
        <time>2022-06-17T16:05:34.000Z</time>
      </trkpt>
      <trkpt lat="49.76396" lon="4.81513">
        <ele>271</ele>
        <time>2022-06-17T16:05:35.000Z</time>
      </trkpt>
      <trkpt lat="49.76395" lon="4.81511">
        <ele>271</ele>
        <time>2022-06-17T16:05:36.000Z</time>
      </trkpt>
      <trkpt lat="49.76394" lon="4.81509">
        <ele>271</ele>
        <time>2022-06-17T16:05:37.000Z</time>
      </trkpt>
      <trkpt lat="49.76393" lon="4.81507">
        <ele>272</ele>
        <time>2022-06-17T16:05:38.000Z</time>
      </trkpt>
      <trkpt lat="49.76391" lon="4.81504">
        <ele>272</ele>
        <time>2022-06-17T16:05:39.000Z</time>
      </trkpt>
      <trkpt lat="49.7639" lon="4.81501">
        <ele>272</ele>
        <time>2022-06-17T16:05:40.000Z</time>
      </trkpt>
      <trkpt lat="49.76388" lon="4.81498">
        <ele>272</ele>
        <time>2022-06-17T16:05:41.000Z</time>
      </trkpt>
      <trkpt lat="49.76387" lon="4.81496">
        <ele>273</ele>
        <time>2022-06-17T16:05:42.000Z</time>
      </trkpt>
      <trkpt lat="49.76386" lon="4.81494">
        <ele>273</ele>
        <time>2022-06-17T16:05:43.000Z</time>
      </trkpt>
      <trkpt lat="49.76385" lon="4.81492">
        <ele>273</ele>
        <time>2022-06-17T16:05:44.000Z</time>
      </trkpt>
      <trkpt lat="49.76384" lon="4.8149">
        <ele>273</ele>
        <time>2022-06-17T16:05:45.000Z</time>
      </trkpt>
      <trkpt lat="49.76382" lon="4.81488">
        <ele>273</ele>
        <time>2022-06-17T16:05:46.000Z</time>
      </trkpt>
      <trkpt lat="49.76381" lon="4.81486">
        <ele>273</ele>
        <time>2022-06-17T16:05:47.000Z</time>
      </trkpt>
      <trkpt lat="49.7638" lon="4.81484">
        <ele>274</ele>
        <time>2022-06-17T16:05:48.000Z</time>
      </trkpt>
      <trkpt lat="49.76379" lon="4.81482">
        <ele>274</ele>
        <time>2022-06-17T16:05:49.000Z</time>
      </trkpt>
      <trkpt lat="49.76378" lon="4.8148">
        <ele>274</ele>
        <time>2022-06-17T16:05:50.000Z</time>
      </trkpt>
      <trkpt lat="49.76376" lon="4.81478">
        <ele>274</ele>
        <time>2022-06-17T16:05:51.000Z</time>
      </trkpt>
      <trkpt lat="49.76375" lon="4.81477">
        <ele>275</ele>
        <time>2022-06-17T16:05:52.000Z</time>
      </trkpt>
      <trkpt lat="49.76373" lon="4.81476">
        <ele>275</ele>
        <time>2022-06-17T16:05:53.000Z</time>
      </trkpt>
      <trkpt lat="49.76371" lon="4.81474">
        <ele>275</ele>
        <time>2022-06-17T16:05:54.000Z</time>
      </trkpt>
      <trkpt lat="49.7637" lon="4.81473">
        <ele>275</ele>
        <time>2022-06-17T16:05:55.000Z</time>
      </trkpt>
      <trkpt lat="49.76367" lon="4.81472">
        <ele>276</ele>
        <time>2022-06-17T16:05:56.000Z</time>
      </trkpt>
      <trkpt lat="49.76365" lon="4.8147">
        <ele>276</ele>
        <time>2022-06-17T16:05:57.000Z</time>
      </trkpt>
      <trkpt lat="49.76363" lon="4.81469">
        <ele>276</ele>
        <time>2022-06-17T16:05:58.000Z</time>
      </trkpt>
      <trkpt lat="49.7636" lon="4.81468">
        <ele>276</ele>
        <time>2022-06-17T16:05:59.000Z</time>
      </trkpt>
      <trkpt lat="49.76358" lon="4.81467">
        <ele>277</ele>
        <time>2022-06-17T16:06:00.000Z</time>
      </trkpt>
      <trkpt lat="49.76355" lon="4.81466">
        <ele>277</ele>
        <time>2022-06-17T16:06:01.000Z</time>
      </trkpt>
      <trkpt lat="49.76353" lon="4.81465">
        <ele>277</ele>
        <time>2022-06-17T16:06:02.000Z</time>
      </trkpt>
      <trkpt lat="49.7635" lon="4.81464">
        <ele>277</ele>
        <time>2022-06-17T16:06:03.000Z</time>
      </trkpt>
      <trkpt lat="49.76347" lon="4.81464">
        <ele>278</ele>
        <time>2022-06-17T16:06:04.000Z</time>
      </trkpt>
      <trkpt lat="49.76345" lon="4.81463">
        <ele>278</ele>
        <time>2022-06-17T16:06:05.000Z</time>
      </trkpt>
      <trkpt lat="49.76342" lon="4.81462">
        <ele>278</ele>
        <time>2022-06-17T16:06:06.000Z</time>
      </trkpt>
      <trkpt lat="49.76339" lon="4.81461">
        <ele>278</ele>
        <time>2022-06-17T16:06:07.000Z</time>
      </trkpt>
      <trkpt lat="49.76336" lon="4.8146">
        <ele>278</ele>
        <time>2022-06-17T16:06:08.000Z</time>
      </trkpt>
      <trkpt lat="49.76334" lon="4.8146">
        <ele>278</ele>
        <time>2022-06-17T16:06:09.000Z</time>
      </trkpt>
      <trkpt lat="49.76331" lon="4.81459">
        <ele>278</ele>
        <time>2022-06-17T16:06:10.000Z</time>
      </trkpt>
      <trkpt lat="49.76328" lon="4.81459">
        <ele>278</ele>
        <time>2022-06-17T16:06:11.000Z</time>
      </trkpt>
      <trkpt lat="49.76325" lon="4.81459">
        <ele>278</ele>
        <time>2022-06-17T16:06:12.000Z</time>
      </trkpt>
      <trkpt lat="49.76321" lon="4.81458">
        <ele>278</ele>
        <time>2022-06-17T16:06:13.000Z</time>
      </trkpt>
      <trkpt lat="49.76318" lon="4.81457">
        <ele>278</ele>
        <time>2022-06-17T16:06:14.000Z</time>
      </trkpt>
      <trkpt lat="49.76314" lon="4.81457">
        <ele>278</ele>
        <time>2022-06-17T16:06:15.000Z</time>
      </trkpt>
      <trkpt lat="49.7631" lon="4.81456">
        <ele>278</ele>
        <time>2022-06-17T16:06:16.000Z</time>
      </trkpt>
      <trkpt lat="49.76306" lon="4.81455">
        <ele>278</ele>
        <time>2022-06-17T16:06:17.000Z</time>
      </trkpt>
      <trkpt lat="49.76302" lon="4.81454">
        <ele>278</ele>
        <time>2022-06-17T16:06:18.000Z</time>
      </trkpt>
      <trkpt lat="49.76296" lon="4.81454">
        <ele>277</ele>
        <time>2022-06-17T16:06:19.000Z</time>
      </trkpt>
      <trkpt lat="49.76291" lon="4.81453">
        <ele>277</ele>
        <time>2022-06-17T16:06:20.000Z</time>
      </trkpt>
      <trkpt lat="49.76285" lon="4.81453">
        <ele>277</ele>
        <time>2022-06-17T16:06:21.000Z</time>
      </trkpt>
      <trkpt lat="49.76278" lon="4.81452">
        <ele>277</ele>
        <time>2022-06-17T16:06:22.000Z</time>
      </trkpt>
      <trkpt lat="49.76272" lon="4.81451">
        <ele>277</ele>
        <time>2022-06-17T16:06:23.000Z</time>
      </trkpt>
      <trkpt lat="49.76265" lon="4.81449">
        <ele>277</ele>
        <time>2022-06-17T16:06:24.000Z</time>
      </trkpt>
      <trkpt lat="49.76258" lon="4.81448">
        <ele>277</ele>
        <time>2022-06-17T16:06:25.000Z</time>
      </trkpt>
      <trkpt lat="49.76251" lon="4.81447">
        <ele>277</ele>
        <time>2022-06-17T16:06:26.000Z</time>
      </trkpt>
      <trkpt lat="49.76244" lon="4.81445">
        <ele>276</ele>
        <time>2022-06-17T16:06:27.000Z</time>
      </trkpt>
      <trkpt lat="49.76237" lon="4.81444">
        <ele>276</ele>
        <time>2022-06-17T16:06:28.000Z</time>
      </trkpt>
      <trkpt lat="49.76229" lon="4.81444">
        <ele>276</ele>
        <time>2022-06-17T16:06:29.000Z</time>
      </trkpt>
      <trkpt lat="49.76222" lon="4.81444">
        <ele>276</ele>
        <time>2022-06-17T16:06:30.000Z</time>
      </trkpt>
      <trkpt lat="49.76215" lon="4.81444">
        <ele>275</ele>
        <time>2022-06-17T16:06:31.000Z</time>
      </trkpt>
      <trkpt lat="49.76207" lon="4.81445">
        <ele>275</ele>
        <time>2022-06-17T16:06:32.000Z</time>
      </trkpt>
      <trkpt lat="49.762" lon="4.81445">
        <ele>275</ele>
        <time>2022-06-17T16:06:33.000Z</time>
      </trkpt>
      <trkpt lat="49.76193" lon="4.81444">
        <ele>274</ele>
        <time>2022-06-17T16:06:34.000Z</time>
      </trkpt>
      <trkpt lat="49.76186" lon="4.81443">
        <ele>274</ele>
        <time>2022-06-17T16:06:35.000Z</time>
      </trkpt>
      <trkpt lat="49.76178" lon="4.81443">
        <ele>274</ele>
        <time>2022-06-17T16:06:36.000Z</time>
      </trkpt>
      <trkpt lat="49.76171" lon="4.81441">
        <ele>273</ele>
        <time>2022-06-17T16:06:37.000Z</time>
      </trkpt>
      <trkpt lat="49.76164" lon="4.81439">
        <ele>273</ele>
        <time>2022-06-17T16:06:38.000Z</time>
      </trkpt>
      <trkpt lat="49.76157" lon="4.81437">
        <ele>273</ele>
        <time>2022-06-17T16:06:39.000Z</time>
      </trkpt>
      <trkpt lat="49.7615" lon="4.81436">
        <ele>272</ele>
        <time>2022-06-17T16:06:40.000Z</time>
      </trkpt>
      <trkpt lat="49.76143" lon="4.81436">
        <ele>272</ele>
        <time>2022-06-17T16:06:41.000Z</time>
      </trkpt>
      <trkpt lat="49.76136" lon="4.81434">
        <ele>271</ele>
        <time>2022-06-17T16:06:42.000Z</time>
      </trkpt>
      <trkpt lat="49.7613" lon="4.81434">
        <ele>271</ele>
        <time>2022-06-17T16:06:43.000Z</time>
      </trkpt>
      <trkpt lat="49.76124" lon="4.81434">
        <ele>271</ele>
        <time>2022-06-17T16:06:44.000Z</time>
      </trkpt>
      <trkpt lat="49.76118" lon="4.81434">
        <ele>271</ele>
        <time>2022-06-17T16:06:45.000Z</time>
      </trkpt>
      <trkpt lat="49.76112" lon="4.81432">
        <ele>270</ele>
        <time>2022-06-17T16:06:46.000Z</time>
      </trkpt>
      <trkpt lat="49.76106" lon="4.8143">
        <ele>270</ele>
        <time>2022-06-17T16:06:47.000Z</time>
      </trkpt>
      <trkpt lat="49.761" lon="4.81427">
        <ele>270</ele>
        <time>2022-06-17T16:06:48.000Z</time>
      </trkpt>
      <trkpt lat="49.76095" lon="4.81424">
        <ele>270</ele>
        <time>2022-06-17T16:06:49.000Z</time>
      </trkpt>
      <trkpt lat="49.76089" lon="4.8142">
        <ele>269</ele>
        <time>2022-06-17T16:06:50.000Z</time>
      </trkpt>
      <trkpt lat="49.76084" lon="4.81416">
        <ele>269</ele>
        <time>2022-06-17T16:06:51.000Z</time>
      </trkpt>
      <trkpt lat="49.76079" lon="4.81412">
        <ele>268</ele>
        <time>2022-06-17T16:06:52.000Z</time>
      </trkpt>
      <trkpt lat="49.76075" lon="4.81408">
        <ele>268</ele>
        <time>2022-06-17T16:06:53.000Z</time>
      </trkpt>
      <trkpt lat="49.7607" lon="4.81405">
        <ele>268</ele>
        <time>2022-06-17T16:06:54.000Z</time>
      </trkpt>
      <trkpt lat="49.76065" lon="4.81401">
        <ele>267</ele>
        <time>2022-06-17T16:06:55.000Z</time>
      </trkpt>
      <trkpt lat="49.7606" lon="4.81397">
        <ele>267</ele>
        <time>2022-06-17T16:06:56.000Z</time>
      </trkpt>
      <trkpt lat="49.76055" lon="4.81393">
        <ele>266</ele>
        <time>2022-06-17T16:06:57.000Z</time>
      </trkpt>
      <trkpt lat="49.76049" lon="4.81389">
        <ele>266</ele>
        <time>2022-06-17T16:06:58.000Z</time>
      </trkpt>
      <trkpt lat="49.76044" lon="4.81386">
        <ele>266</ele>
        <time>2022-06-17T16:06:59.000Z</time>
      </trkpt>
      <trkpt lat="49.76039" lon="4.81382">
        <ele>266</ele>
        <time>2022-06-17T16:07:00.000Z</time>
      </trkpt>
      <trkpt lat="49.76033" lon="4.81379">
        <ele>266</ele>
        <time>2022-06-17T16:07:01.000Z</time>
      </trkpt>
      <trkpt lat="49.76028" lon="4.81375">
        <ele>265</ele>
        <time>2022-06-17T16:07:02.000Z</time>
      </trkpt>
      <trkpt lat="49.76023" lon="4.81372">
        <ele>265</ele>
        <time>2022-06-17T16:07:03.000Z</time>
      </trkpt>
      <trkpt lat="49.76018" lon="4.81369">
        <ele>265</ele>
        <time>2022-06-17T16:07:04.000Z</time>
      </trkpt>
      <trkpt lat="49.76013" lon="4.81366">
        <ele>265</ele>
        <time>2022-06-17T16:07:05.000Z</time>
      </trkpt>
      <trkpt lat="49.76008" lon="4.81364">
        <ele>265</ele>
        <time>2022-06-17T16:07:06.000Z</time>
      </trkpt>
      <trkpt lat="49.76002" lon="4.81361">
        <ele>265</ele>
        <time>2022-06-17T16:07:07.000Z</time>
      </trkpt>
      <trkpt lat="49.75997" lon="4.81358">
        <ele>265</ele>
        <time>2022-06-17T16:07:08.000Z</time>
      </trkpt>
      <trkpt lat="49.75992" lon="4.81355">
        <ele>265</ele>
        <time>2022-06-17T16:07:09.000Z</time>
      </trkpt>
      <trkpt lat="49.75986" lon="4.81352">
        <ele>265</ele>
        <time>2022-06-17T16:07:10.000Z</time>
      </trkpt>
      <trkpt lat="49.75981" lon="4.8135">
        <ele>265</ele>
        <time>2022-06-17T16:07:11.000Z</time>
      </trkpt>
      <trkpt lat="49.75975" lon="4.81347">
        <ele>264</ele>
        <time>2022-06-17T16:07:12.000Z</time>
      </trkpt>
      <trkpt lat="49.7597" lon="4.81345">
        <ele>264</ele>
        <time>2022-06-17T16:07:13.000Z</time>
      </trkpt>
      <trkpt lat="49.75964" lon="4.81343">
        <ele>264</ele>
        <time>2022-06-17T16:07:14.000Z</time>
      </trkpt>
      <trkpt lat="49.75959" lon="4.81341">
        <ele>264</ele>
        <time>2022-06-17T16:07:15.000Z</time>
      </trkpt>
      <trkpt lat="49.75953" lon="4.81339">
        <ele>264</ele>
        <time>2022-06-17T16:07:16.000Z</time>
      </trkpt>
      <trkpt lat="49.75948" lon="4.81336">
        <ele>264</ele>
        <time>2022-06-17T16:07:17.000Z</time>
      </trkpt>
      <trkpt lat="49.75942" lon="4.81335">
        <ele>264</ele>
        <time>2022-06-17T16:07:18.000Z</time>
      </trkpt>
      <trkpt lat="49.75937" lon="4.81334">
        <ele>264</ele>
        <time>2022-06-17T16:07:19.000Z</time>
      </trkpt>
      <trkpt lat="49.75931" lon="4.81332">
        <ele>263</ele>
        <time>2022-06-17T16:07:20.000Z</time>
      </trkpt>
      <trkpt lat="49.75926" lon="4.8133">
        <ele>263</ele>
        <time>2022-06-17T16:07:21.000Z</time>
      </trkpt>
      <trkpt lat="49.75921" lon="4.81329">
        <ele>263</ele>
        <time>2022-06-17T16:07:22.000Z</time>
      </trkpt>
      <trkpt lat="49.75916" lon="4.81329">
        <ele>263</ele>
        <time>2022-06-17T16:07:23.000Z</time>
      </trkpt>
      <trkpt lat="49.75911" lon="4.81328">
        <ele>263</ele>
        <time>2022-06-17T16:07:24.000Z</time>
      </trkpt>
      <trkpt lat="49.75906" lon="4.81329">
        <ele>263</ele>
        <time>2022-06-17T16:07:25.000Z</time>
      </trkpt>
      <trkpt lat="49.759" lon="4.8133">
        <ele>263</ele>
        <time>2022-06-17T16:07:26.000Z</time>
      </trkpt>
      <trkpt lat="49.75895" lon="4.81333">
        <ele>263</ele>
        <time>2022-06-17T16:07:27.000Z</time>
      </trkpt>
      <trkpt lat="49.7589" lon="4.81336">
        <ele>263</ele>
        <time>2022-06-17T16:07:28.000Z</time>
      </trkpt>
      <trkpt lat="49.75885" lon="4.81339">
        <ele>263</ele>
        <time>2022-06-17T16:07:29.000Z</time>
      </trkpt>
      <trkpt lat="49.7588" lon="4.81342">
        <ele>263</ele>
        <time>2022-06-17T16:07:30.000Z</time>
      </trkpt>
      <trkpt lat="49.75875" lon="4.81345">
        <ele>263</ele>
        <time>2022-06-17T16:07:31.000Z</time>
      </trkpt>
      <trkpt lat="49.7587" lon="4.81348">
        <ele>262</ele>
        <time>2022-06-17T16:07:32.000Z</time>
      </trkpt>
      <trkpt lat="49.75865" lon="4.8135">
        <ele>262</ele>
        <time>2022-06-17T16:07:33.000Z</time>
      </trkpt>
      <trkpt lat="49.7586" lon="4.81353">
        <ele>262</ele>
        <time>2022-06-17T16:07:34.000Z</time>
      </trkpt>
      <trkpt lat="49.75855" lon="4.81356">
        <ele>262</ele>
        <time>2022-06-17T16:07:35.000Z</time>
      </trkpt>
      <trkpt lat="49.7585" lon="4.8136">
        <ele>262</ele>
        <time>2022-06-17T16:07:36.000Z</time>
      </trkpt>
      <trkpt lat="49.75845" lon="4.81365">
        <ele>262</ele>
        <time>2022-06-17T16:07:37.000Z</time>
      </trkpt>
      <trkpt lat="49.7584" lon="4.8137">
        <ele>262</ele>
        <time>2022-06-17T16:07:38.000Z</time>
      </trkpt>
      <trkpt lat="49.75836" lon="4.81375">
        <ele>262</ele>
        <time>2022-06-17T16:07:39.000Z</time>
      </trkpt>
      <trkpt lat="49.75833" lon="4.81379">
        <ele>262</ele>
        <time>2022-06-17T16:07:40.000Z</time>
      </trkpt>
      <trkpt lat="49.7583" lon="4.81383">
        <ele>261</ele>
        <time>2022-06-17T16:07:41.000Z</time>
      </trkpt>
      <trkpt lat="49.75829" lon="4.81387">
        <ele>261</ele>
        <time>2022-06-17T16:07:42.000Z</time>
      </trkpt>
      <trkpt lat="49.75828" lon="4.81389">
        <ele>261</ele>
        <time>2022-06-17T16:07:43.000Z</time>
      </trkpt>
      <trkpt lat="49.75827" lon="4.81391">
        <ele>261</ele>
        <time>2022-06-17T16:07:44.000Z</time>
      </trkpt>
      <trkpt lat="49.75827" lon="4.81392">
        <ele>261</ele>
        <time>2022-06-17T16:07:45.000Z</time>
      </trkpt>
      <trkpt lat="49.75826" lon="4.81393">
        <ele>261</ele>
        <time>2022-06-17T16:07:46.000Z</time>
      </trkpt>
      <trkpt lat="49.75826" lon="4.81393">
        <ele>261</ele>
        <time>2022-06-17T16:07:47.000Z</time>
      </trkpt>
      <trkpt lat="49.75826" lon="4.81394">
        <ele>261</ele>
        <time>2022-06-17T16:07:48.000Z</time>
      </trkpt>
      <trkpt lat="49.75826" lon="4.81395">
        <ele>261</ele>
        <time>2022-06-17T16:07:49.000Z</time>
      </trkpt>
      <trkpt lat="49.75825" lon="4.81395">
        <ele>261</ele>
        <time>2022-06-17T16:07:50.000Z</time>
      </trkpt>
      <trkpt lat="49.75825" lon="4.81395">
        <ele>262</ele>
        <time>2022-06-17T16:07:51.000Z</time>
      </trkpt>
      <trkpt lat="49.75825" lon="4.81395">
        <ele>262</ele>
        <time>2022-06-17T16:07:52.000Z</time>
      </trkpt>
      <trkpt lat="49.75825" lon="4.81396">
        <ele>262</ele>
        <time>2022-06-17T16:07:53.000Z</time>
      </trkpt>
      <trkpt lat="49.75825" lon="4.81396">
        <ele>262</ele>
        <time>2022-06-17T16:07:54.000Z</time>
      </trkpt>
      <trkpt lat="49.75824" lon="4.81396">
        <ele>262</ele>
        <time>2022-06-17T16:07:55.000Z</time>
      </trkpt>
      <trkpt lat="49.75824" lon="4.81396">
        <ele>262</ele>
        <time>2022-06-17T16:07:56.000Z</time>
      </trkpt>
      <trkpt lat="49.75824" lon="4.81396">
        <ele>262</ele>
        <time>2022-06-17T16:07:57.000Z</time>
      </trkpt>
      <trkpt lat="49.75824" lon="4.81397">
        <ele>262</ele>
        <time>2022-06-17T16:07:58.000Z</time>
      </trkpt>
      <trkpt lat="49.75823" lon="4.81399">
        <ele>262</ele>
        <time>2022-06-17T16:07:59.000Z</time>
      </trkpt>
      <trkpt lat="49.75822" lon="4.81401">
        <ele>262</ele>
        <time>2022-06-17T16:08:00.000Z</time>
      </trkpt>
      <trkpt lat="49.75822" lon="4.81403">
        <ele>261</ele>
        <time>2022-06-17T16:08:01.000Z</time>
      </trkpt>
      <trkpt lat="49.75821" lon="4.81406">
        <ele>261</ele>
        <time>2022-06-17T16:08:02.000Z</time>
      </trkpt>
      <trkpt lat="49.75821" lon="4.81408">
        <ele>261</ele>
        <time>2022-06-17T16:08:03.000Z</time>
      </trkpt>
      <trkpt lat="49.7582" lon="4.81411">
        <ele>261</ele>
        <time>2022-06-17T16:08:04.000Z</time>
      </trkpt>
      <trkpt lat="49.7582" lon="4.81413">
        <ele>261</ele>
        <time>2022-06-17T16:08:05.000Z</time>
      </trkpt>
      <trkpt lat="49.75819" lon="4.81414">
        <ele>261</ele>
        <time>2022-06-17T16:08:06.000Z</time>
      </trkpt>
      <trkpt lat="49.75818" lon="4.81417">
        <ele>261</ele>
        <time>2022-06-17T16:08:07.000Z</time>
      </trkpt>
      <trkpt lat="49.75817" lon="4.81419">
        <ele>261</ele>
        <time>2022-06-17T16:08:08.000Z</time>
      </trkpt>
      <trkpt lat="49.75816" lon="4.81422">
        <ele>261</ele>
        <time>2022-06-17T16:08:09.000Z</time>
      </trkpt>
      <trkpt lat="49.75815" lon="4.81426">
        <ele>261</ele>
        <time>2022-06-17T16:08:10.000Z</time>
      </trkpt>
      <trkpt lat="49.75814" lon="4.81431">
        <ele>260</ele>
        <time>2022-06-17T16:08:11.000Z</time>
      </trkpt>
      <trkpt lat="49.75812" lon="4.81437">
        <ele>260</ele>
        <time>2022-06-17T16:08:12.000Z</time>
      </trkpt>
      <trkpt lat="49.75811" lon="4.81442">
        <ele>260</ele>
        <time>2022-06-17T16:08:13.000Z</time>
      </trkpt>
      <trkpt lat="49.7581" lon="4.81447">
        <ele>260</ele>
        <time>2022-06-17T16:08:14.000Z</time>
      </trkpt>
      <trkpt lat="49.75808" lon="4.81452">
        <ele>260</ele>
        <time>2022-06-17T16:08:15.000Z</time>
      </trkpt>
      <trkpt lat="49.75807" lon="4.81458">
        <ele>259</ele>
        <time>2022-06-17T16:08:16.000Z</time>
      </trkpt>
      <trkpt lat="49.75806" lon="4.81464">
        <ele>259</ele>
        <time>2022-06-17T16:08:17.000Z</time>
      </trkpt>
      <trkpt lat="49.75804" lon="4.81471">
        <ele>259</ele>
        <time>2022-06-17T16:08:18.000Z</time>
      </trkpt>
      <trkpt lat="49.75803" lon="4.81478">
        <ele>259</ele>
        <time>2022-06-17T16:08:19.000Z</time>
      </trkpt>
      <trkpt lat="49.75801" lon="4.81483">
        <ele>258</ele>
        <time>2022-06-17T16:08:20.000Z</time>
      </trkpt>
      <trkpt lat="49.758" lon="4.81488">
        <ele>258</ele>
        <time>2022-06-17T16:08:21.000Z</time>
      </trkpt>
      <trkpt lat="49.75798" lon="4.81493">
        <ele>258</ele>
        <time>2022-06-17T16:08:22.000Z</time>
      </trkpt>
      <trkpt lat="49.75796" lon="4.81497">
        <ele>258</ele>
        <time>2022-06-17T16:08:23.000Z</time>
      </trkpt>
      <trkpt lat="49.75795" lon="4.81501">
        <ele>257</ele>
        <time>2022-06-17T16:08:24.000Z</time>
      </trkpt>
      <trkpt lat="49.75794" lon="4.81506">
        <ele>257</ele>
        <time>2022-06-17T16:08:25.000Z</time>
      </trkpt>
      <trkpt lat="49.75793" lon="4.81509">
        <ele>257</ele>
        <time>2022-06-17T16:08:26.000Z</time>
      </trkpt>
      <trkpt lat="49.75791" lon="4.81512">
        <ele>257</ele>
        <time>2022-06-17T16:08:27.000Z</time>
      </trkpt>
      <trkpt lat="49.75789" lon="4.81514">
        <ele>256</ele>
        <time>2022-06-17T16:08:28.000Z</time>
      </trkpt>
      <trkpt lat="49.75787" lon="4.81516">
        <ele>256</ele>
        <time>2022-06-17T16:08:29.000Z</time>
      </trkpt>
      <trkpt lat="49.75786" lon="4.81518">
        <ele>256</ele>
        <time>2022-06-17T16:08:30.000Z</time>
      </trkpt>
      <trkpt lat="49.75784" lon="4.81519">
        <ele>256</ele>
        <time>2022-06-17T16:08:31.000Z</time>
      </trkpt>
      <trkpt lat="49.75783" lon="4.81521">
        <ele>255</ele>
        <time>2022-06-17T16:08:32.000Z</time>
      </trkpt>
      <trkpt lat="49.75781" lon="4.81522">
        <ele>255</ele>
        <time>2022-06-17T16:08:33.000Z</time>
      </trkpt>
      <trkpt lat="49.7578" lon="4.81524">
        <ele>255</ele>
        <time>2022-06-17T16:08:34.000Z</time>
      </trkpt>
      <trkpt lat="49.75778" lon="4.81527">
        <ele>254</ele>
        <time>2022-06-17T16:08:35.000Z</time>
      </trkpt>
      <trkpt lat="49.75777" lon="4.81529">
        <ele>254</ele>
        <time>2022-06-17T16:08:36.000Z</time>
      </trkpt>
      <trkpt lat="49.75775" lon="4.81531">
        <ele>254</ele>
        <time>2022-06-17T16:08:37.000Z</time>
      </trkpt>
      <trkpt lat="49.75774" lon="4.81533">
        <ele>253</ele>
        <time>2022-06-17T16:08:38.000Z</time>
      </trkpt>
      <trkpt lat="49.75773" lon="4.81536">
        <ele>253</ele>
        <time>2022-06-17T16:08:39.000Z</time>
      </trkpt>
      <trkpt lat="49.75772" lon="4.8154">
        <ele>253</ele>
        <time>2022-06-17T16:08:40.000Z</time>
      </trkpt>
      <trkpt lat="49.75771" lon="4.81543">
        <ele>252</ele>
        <time>2022-06-17T16:08:41.000Z</time>
      </trkpt>
      <trkpt lat="49.75771" lon="4.81546">
        <ele>252</ele>
        <time>2022-06-17T16:08:42.000Z</time>
      </trkpt>
      <trkpt lat="49.7577" lon="4.81547">
        <ele>252</ele>
        <time>2022-06-17T16:08:43.000Z</time>
      </trkpt>
      <trkpt lat="49.7577" lon="4.81548">
        <ele>251</ele>
        <time>2022-06-17T16:08:44.000Z</time>
      </trkpt>
      <trkpt lat="49.75769" lon="4.8155">
        <ele>251</ele>
        <time>2022-06-17T16:08:45.000Z</time>
      </trkpt>
      <trkpt lat="49.75768" lon="4.81551">
        <ele>251</ele>
        <time>2022-06-17T16:08:46.000Z</time>
      </trkpt>
      <trkpt lat="49.75768" lon="4.81553">
        <ele>250</ele>
        <time>2022-06-17T16:08:47.000Z</time>
      </trkpt>
      <trkpt lat="49.75767" lon="4.81554">
        <ele>250</ele>
        <time>2022-06-17T16:08:48.000Z</time>
      </trkpt>
      <trkpt lat="49.75767" lon="4.81556">
        <ele>250</ele>
        <time>2022-06-17T16:08:49.000Z</time>
      </trkpt>
      <trkpt lat="49.75766" lon="4.81556">
        <ele>249</ele>
        <time>2022-06-17T16:08:50.000Z</time>
      </trkpt>
      <trkpt lat="49.75766" lon="4.81557">
        <ele>249</ele>
        <time>2022-06-17T16:08:51.000Z</time>
      </trkpt>
      <trkpt lat="49.75765" lon="4.81558">
        <ele>249</ele>
        <time>2022-06-17T16:08:52.000Z</time>
      </trkpt>
      <trkpt lat="49.75765" lon="4.81559">
        <ele>249</ele>
        <time>2022-06-17T16:08:53.000Z</time>
      </trkpt>
      <trkpt lat="49.75765" lon="4.81559">
        <ele>249</ele>
        <time>2022-06-17T16:08:54.000Z</time>
      </trkpt>
      <trkpt lat="49.75765" lon="4.8156">
        <ele>249</ele>
        <time>2022-06-17T16:08:55.000Z</time>
      </trkpt>
      <trkpt lat="49.75764" lon="4.81561">
        <ele>248</ele>
        <time>2022-06-17T16:08:56.000Z</time>
      </trkpt>
      <trkpt lat="49.75764" lon="4.81562">
        <ele>248</ele>
        <time>2022-06-17T16:08:57.000Z</time>
      </trkpt>
      <trkpt lat="49.75763" lon="4.81563">
        <ele>248</ele>
        <time>2022-06-17T16:08:58.000Z</time>
      </trkpt>
      <trkpt lat="49.75763" lon="4.81564">
        <ele>248</ele>
        <time>2022-06-17T16:08:59.000Z</time>
      </trkpt>
      <trkpt lat="49.75762" lon="4.81565">
        <ele>248</ele>
        <time>2022-06-17T16:09:00.000Z</time>
      </trkpt>
      <trkpt lat="49.75761" lon="4.81566">
        <ele>248</ele>
        <time>2022-06-17T16:09:01.000Z</time>
      </trkpt>
      <trkpt lat="49.7576" lon="4.81567">
        <ele>248</ele>
        <time>2022-06-17T16:09:02.000Z</time>
      </trkpt>
      <trkpt lat="49.7576" lon="4.81568">
        <ele>248</ele>
        <time>2022-06-17T16:09:03.000Z</time>
      </trkpt>
      <trkpt lat="49.75759" lon="4.81569">
        <ele>247</ele>
        <time>2022-06-17T16:09:04.000Z</time>
      </trkpt>
      <trkpt lat="49.75759" lon="4.81569">
        <ele>247</ele>
        <time>2022-06-17T16:09:05.000Z</time>
      </trkpt>
      <trkpt lat="49.75758" lon="4.8157">
        <ele>247</ele>
        <time>2022-06-17T16:09:06.000Z</time>
      </trkpt>
      <trkpt lat="49.75758" lon="4.81571">
        <ele>247</ele>
        <time>2022-06-17T16:09:07.000Z</time>
      </trkpt>
      <trkpt lat="49.75758" lon="4.81572">
        <ele>247</ele>
        <time>2022-06-17T16:09:08.000Z</time>
      </trkpt>
      <trkpt lat="49.75757" lon="4.81574">
        <ele>247</ele>
        <time>2022-06-17T16:09:09.000Z</time>
      </trkpt>
      <trkpt lat="49.75757" lon="4.81576">
        <ele>246</ele>
        <time>2022-06-17T16:09:10.000Z</time>
      </trkpt>
      <trkpt lat="49.75756" lon="4.81578">
        <ele>246</ele>
        <time>2022-06-17T16:09:11.000Z</time>
      </trkpt>
      <trkpt lat="49.75756" lon="4.81579">
        <ele>246</ele>
        <time>2022-06-17T16:09:12.000Z</time>
      </trkpt>
      <trkpt lat="49.75755" lon="4.8158">
        <ele>246</ele>
        <time>2022-06-17T16:09:13.000Z</time>
      </trkpt>
      <trkpt lat="49.75753" lon="4.81583">
        <ele>246</ele>
        <time>2022-06-17T16:09:14.000Z</time>
      </trkpt>
      <trkpt lat="49.75752" lon="4.81586">
        <ele>246</ele>
        <time>2022-06-17T16:09:15.000Z</time>
      </trkpt>
      <trkpt lat="49.75751" lon="4.81588">
        <ele>246</ele>
        <time>2022-06-17T16:09:16.000Z</time>
      </trkpt>
      <trkpt lat="49.7575" lon="4.8159">
        <ele>246</ele>
        <time>2022-06-17T16:09:17.000Z</time>
      </trkpt>
      <trkpt lat="49.7575" lon="4.81591">
        <ele>245</ele>
        <time>2022-06-17T16:09:18.000Z</time>
      </trkpt>
      <trkpt lat="49.7575" lon="4.81591">
        <ele>245</ele>
        <time>2022-06-17T16:09:19.000Z</time>
      </trkpt>
      <trkpt lat="49.75749" lon="4.81592">
        <ele>245</ele>
        <time>2022-06-17T16:09:20.000Z</time>
      </trkpt>
      <trkpt lat="49.75749" lon="4.81593">
        <ele>245</ele>
        <time>2022-06-17T16:09:21.000Z</time>
      </trkpt>
      <trkpt lat="49.75748" lon="4.81593">
        <ele>245</ele>
        <time>2022-06-17T16:09:22.000Z</time>
      </trkpt>
      <trkpt lat="49.75747" lon="4.81594">
        <ele>244</ele>
        <time>2022-06-17T16:09:23.000Z</time>
      </trkpt>
      <trkpt lat="49.75746" lon="4.81597">
        <ele>244</ele>
        <time>2022-06-17T16:09:24.000Z</time>
      </trkpt>
      <trkpt lat="49.75744" lon="4.816">
        <ele>244</ele>
        <time>2022-06-17T16:09:25.000Z</time>
      </trkpt>
      <trkpt lat="49.75743" lon="4.81603">
        <ele>244</ele>
        <time>2022-06-17T16:09:26.000Z</time>
      </trkpt>
      <trkpt lat="49.75742" lon="4.81607">
        <ele>243</ele>
        <time>2022-06-17T16:09:27.000Z</time>
      </trkpt>
      <trkpt lat="49.75739" lon="4.8161">
        <ele>243</ele>
        <time>2022-06-17T16:09:28.000Z</time>
      </trkpt>
      <trkpt lat="49.75737" lon="4.81614">
        <ele>243</ele>
        <time>2022-06-17T16:09:29.000Z</time>
      </trkpt>
      <trkpt lat="49.75735" lon="4.81616">
        <ele>242</ele>
        <time>2022-06-17T16:09:30.000Z</time>
      </trkpt>
      <trkpt lat="49.75733" lon="4.81618">
        <ele>242</ele>
        <time>2022-06-17T16:09:31.000Z</time>
      </trkpt>
      <trkpt lat="49.75733" lon="4.81619">
        <ele>242</ele>
        <time>2022-06-17T16:09:32.000Z</time>
      </trkpt>
      <trkpt lat="49.75732" lon="4.8162">
        <ele>241</ele>
        <time>2022-06-17T16:09:33.000Z</time>
      </trkpt>
      <trkpt lat="49.75732" lon="4.81621">
        <ele>241</ele>
        <time>2022-06-17T16:09:34.000Z</time>
      </trkpt>
      <trkpt lat="49.75731" lon="4.81622">
        <ele>241</ele>
        <time>2022-06-17T16:09:35.000Z</time>
      </trkpt>
      <trkpt lat="49.7573" lon="4.81623">
        <ele>240</ele>
        <time>2022-06-17T16:09:36.000Z</time>
      </trkpt>
      <trkpt lat="49.7573" lon="4.81624">
        <ele>240</ele>
        <time>2022-06-17T16:09:37.000Z</time>
      </trkpt>
      <trkpt lat="49.7573" lon="4.81625">
        <ele>240</ele>
        <time>2022-06-17T16:09:38.000Z</time>
      </trkpt>
      <trkpt lat="49.75729" lon="4.81626">
        <ele>240</ele>
        <time>2022-06-17T16:09:39.000Z</time>
      </trkpt>
      <trkpt lat="49.75728" lon="4.81629">
        <ele>239</ele>
        <time>2022-06-17T16:09:40.000Z</time>
      </trkpt>
      <trkpt lat="49.75727" lon="4.81631">
        <ele>239</ele>
        <time>2022-06-17T16:09:41.000Z</time>
      </trkpt>
      <trkpt lat="49.75724" lon="4.81633">
        <ele>239</ele>
        <time>2022-06-17T16:09:42.000Z</time>
      </trkpt>
      <trkpt lat="49.75721" lon="4.81635">
        <ele>238</ele>
        <time>2022-06-17T16:09:43.000Z</time>
      </trkpt>
      <trkpt lat="49.75718" lon="4.81637">
        <ele>238</ele>
        <time>2022-06-17T16:09:44.000Z</time>
      </trkpt>
      <trkpt lat="49.75714" lon="4.81638">
        <ele>238</ele>
        <time>2022-06-17T16:09:45.000Z</time>
      </trkpt>
      <trkpt lat="49.75711" lon="4.8164">
        <ele>237</ele>
        <time>2022-06-17T16:09:46.000Z</time>
      </trkpt>
      <trkpt lat="49.75706" lon="4.81643">
        <ele>237</ele>
        <time>2022-06-17T16:09:47.000Z</time>
      </trkpt>
      <trkpt lat="49.75701" lon="4.81646">
        <ele>236</ele>
        <time>2022-06-17T16:09:48.000Z</time>
      </trkpt>
      <trkpt lat="49.75697" lon="4.81649">
        <ele>236</ele>
        <time>2022-06-17T16:09:49.000Z</time>
      </trkpt>
      <trkpt lat="49.75693" lon="4.81652">
        <ele>235</ele>
        <time>2022-06-17T16:09:50.000Z</time>
      </trkpt>
      <trkpt lat="49.75689" lon="4.81656">
        <ele>234</ele>
        <time>2022-06-17T16:09:51.000Z</time>
      </trkpt>
      <trkpt lat="49.75686" lon="4.81659">
        <ele>234</ele>
        <time>2022-06-17T16:09:52.000Z</time>
      </trkpt>
      <trkpt lat="49.75683" lon="4.81661">
        <ele>233</ele>
        <time>2022-06-17T16:09:53.000Z</time>
      </trkpt>
      <trkpt lat="49.75681" lon="4.81664">
        <ele>232</ele>
        <time>2022-06-17T16:09:54.000Z</time>
      </trkpt>
      <trkpt lat="49.75679" lon="4.81668">
        <ele>232</ele>
        <time>2022-06-17T16:09:55.000Z</time>
      </trkpt>
      <trkpt lat="49.75677" lon="4.8167">
        <ele>231</ele>
        <time>2022-06-17T16:09:56.000Z</time>
      </trkpt>
      <trkpt lat="49.75675" lon="4.81672">
        <ele>230</ele>
        <time>2022-06-17T16:09:57.000Z</time>
      </trkpt>
      <trkpt lat="49.75673" lon="4.81674">
        <ele>229</ele>
        <time>2022-06-17T16:09:58.000Z</time>
      </trkpt>
      <trkpt lat="49.75671" lon="4.81676">
        <ele>229</ele>
        <time>2022-06-17T16:09:59.000Z</time>
      </trkpt>
      <trkpt lat="49.75669" lon="4.81677">
        <ele>228</ele>
        <time>2022-06-17T16:10:00.000Z</time>
      </trkpt>
      <trkpt lat="49.75667" lon="4.81677">
        <ele>228</ele>
        <time>2022-06-17T16:10:01.000Z</time>
      </trkpt>
      <trkpt lat="49.75666" lon="4.81678">
        <ele>227</ele>
        <time>2022-06-17T16:10:02.000Z</time>
      </trkpt>
      <trkpt lat="49.75665" lon="4.8168">
        <ele>227</ele>
        <time>2022-06-17T16:10:03.000Z</time>
      </trkpt>
      <trkpt lat="49.75665" lon="4.81681">
        <ele>226</ele>
        <time>2022-06-17T16:10:04.000Z</time>
      </trkpt>
      <trkpt lat="49.75664" lon="4.81682">
        <ele>226</ele>
        <time>2022-06-17T16:10:05.000Z</time>
      </trkpt>
      <trkpt lat="49.75663" lon="4.81684">
        <ele>225</ele>
        <time>2022-06-17T16:10:06.000Z</time>
      </trkpt>
      <trkpt lat="49.75663" lon="4.81686">
        <ele>225</ele>
        <time>2022-06-17T16:10:07.000Z</time>
      </trkpt>
      <trkpt lat="49.75662" lon="4.81688">
        <ele>225</ele>
        <time>2022-06-17T16:10:08.000Z</time>
      </trkpt>
      <trkpt lat="49.75662" lon="4.81691">
        <ele>224</ele>
        <time>2022-06-17T16:10:09.000Z</time>
      </trkpt>
      <trkpt lat="49.7566" lon="4.81694">
        <ele>224</ele>
        <time>2022-06-17T16:10:10.000Z</time>
      </trkpt>
      <trkpt lat="49.75659" lon="4.81696">
        <ele>223</ele>
        <time>2022-06-17T16:10:11.000Z</time>
      </trkpt>
      <trkpt lat="49.75657" lon="4.81699">
        <ele>223</ele>
        <time>2022-06-17T16:10:12.000Z</time>
      </trkpt>
      <trkpt lat="49.75655" lon="4.81702">
        <ele>222</ele>
        <time>2022-06-17T16:10:13.000Z</time>
      </trkpt>
      <trkpt lat="49.75653" lon="4.81706">
        <ele>222</ele>
        <time>2022-06-17T16:10:14.000Z</time>
      </trkpt>
      <trkpt lat="49.7565" lon="4.8171">
        <ele>221</ele>
        <time>2022-06-17T16:10:15.000Z</time>
      </trkpt>
      <trkpt lat="49.75646" lon="4.81714">
        <ele>221</ele>
        <time>2022-06-17T16:10:16.000Z</time>
      </trkpt>
      <trkpt lat="49.75642" lon="4.81719">
        <ele>220</ele>
        <time>2022-06-17T16:10:17.000Z</time>
      </trkpt>
      <trkpt lat="49.75639" lon="4.81724">
        <ele>219</ele>
        <time>2022-06-17T16:10:18.000Z</time>
      </trkpt>
      <trkpt lat="49.75635" lon="4.8173">
        <ele>219</ele>
        <time>2022-06-17T16:10:19.000Z</time>
      </trkpt>
      <trkpt lat="49.7563" lon="4.81736">
        <ele>218</ele>
        <time>2022-06-17T16:10:20.000Z</time>
      </trkpt>
      <trkpt lat="49.75626" lon="4.81743">
        <ele>218</ele>
        <time>2022-06-17T16:10:21.000Z</time>
      </trkpt>
      <trkpt lat="49.75622" lon="4.8175">
        <ele>217</ele>
        <time>2022-06-17T16:10:22.000Z</time>
      </trkpt>
      <trkpt lat="49.75618" lon="4.81757">
        <ele>216</ele>
        <time>2022-06-17T16:10:23.000Z</time>
      </trkpt>
      <trkpt lat="49.75614" lon="4.81765">
        <ele>216</ele>
        <time>2022-06-17T16:10:24.000Z</time>
      </trkpt>
      <trkpt lat="49.7561" lon="4.81772">
        <ele>215</ele>
        <time>2022-06-17T16:10:25.000Z</time>
      </trkpt>
      <trkpt lat="49.75606" lon="4.8178">
        <ele>215</ele>
        <time>2022-06-17T16:10:26.000Z</time>
      </trkpt>
      <trkpt lat="49.75602" lon="4.81788">
        <ele>214</ele>
        <time>2022-06-17T16:10:27.000Z</time>
      </trkpt>
      <trkpt lat="49.75599" lon="4.81795">
        <ele>213</ele>
        <time>2022-06-17T16:10:28.000Z</time>
      </trkpt>
      <trkpt lat="49.75595" lon="4.81804">
        <ele>212</ele>
        <time>2022-06-17T16:10:29.000Z</time>
      </trkpt>
      <trkpt lat="49.75591" lon="4.81812">
        <ele>211</ele>
        <time>2022-06-17T16:10:30.000Z</time>
      </trkpt>
      <trkpt lat="49.75587" lon="4.81821">
        <ele>211</ele>
        <time>2022-06-17T16:10:31.000Z</time>
      </trkpt>
      <trkpt lat="49.75582" lon="4.81829">
        <ele>210</ele>
        <time>2022-06-17T16:10:32.000Z</time>
      </trkpt>
      <trkpt lat="49.75578" lon="4.81838">
        <ele>209</ele>
        <time>2022-06-17T16:10:33.000Z</time>
      </trkpt>
      <trkpt lat="49.75573" lon="4.81847">
        <ele>208</ele>
        <time>2022-06-17T16:10:34.000Z</time>
      </trkpt>
      <trkpt lat="49.75568" lon="4.81856">
        <ele>207</ele>
        <time>2022-06-17T16:10:35.000Z</time>
      </trkpt>
      <trkpt lat="49.75564" lon="4.81865">
        <ele>206</ele>
        <time>2022-06-17T16:10:36.000Z</time>
      </trkpt>
      <trkpt lat="49.7556" lon="4.81875">
        <ele>206</ele>
        <time>2022-06-17T16:10:37.000Z</time>
      </trkpt>
      <trkpt lat="49.75556" lon="4.81884">
        <ele>205</ele>
        <time>2022-06-17T16:10:38.000Z</time>
      </trkpt>
      <trkpt lat="49.75552" lon="4.81893">
        <ele>204</ele>
        <time>2022-06-17T16:10:39.000Z</time>
      </trkpt>
      <trkpt lat="49.75548" lon="4.81902">
        <ele>204</ele>
        <time>2022-06-17T16:10:40.000Z</time>
      </trkpt>
      <trkpt lat="49.75543" lon="4.8191">
        <ele>203</ele>
        <time>2022-06-17T16:10:41.000Z</time>
      </trkpt>
      <trkpt lat="49.75539" lon="4.81919">
        <ele>203</ele>
        <time>2022-06-17T16:10:42.000Z</time>
      </trkpt>
      <trkpt lat="49.75534" lon="4.81927">
        <ele>202</ele>
        <time>2022-06-17T16:10:43.000Z</time>
      </trkpt>
      <trkpt lat="49.7553" lon="4.81935">
        <ele>202</ele>
        <time>2022-06-17T16:10:44.000Z</time>
      </trkpt>
      <trkpt lat="49.75526" lon="4.81942">
        <ele>201</ele>
        <time>2022-06-17T16:10:45.000Z</time>
      </trkpt>
      <trkpt lat="49.75523" lon="4.81949">
        <ele>201</ele>
        <time>2022-06-17T16:10:46.000Z</time>
      </trkpt>
      <trkpt lat="49.75519" lon="4.81956">
        <ele>200</ele>
        <time>2022-06-17T16:10:47.000Z</time>
      </trkpt>
      <trkpt lat="49.75515" lon="4.81962">
        <ele>200</ele>
        <time>2022-06-17T16:10:48.000Z</time>
      </trkpt>
      <trkpt lat="49.75511" lon="4.81969">
        <ele>200</ele>
        <time>2022-06-17T16:10:49.000Z</time>
      </trkpt>
      <trkpt lat="49.75507" lon="4.81977">
        <ele>199</ele>
        <time>2022-06-17T16:10:50.000Z</time>
      </trkpt>
      <trkpt lat="49.75503" lon="4.81985">
        <ele>199</ele>
        <time>2022-06-17T16:10:51.000Z</time>
      </trkpt>
      <trkpt lat="49.75498" lon="4.81994">
        <ele>199</ele>
        <time>2022-06-17T16:10:52.000Z</time>
      </trkpt>
      <trkpt lat="49.75494" lon="4.82003">
        <ele>198</ele>
        <time>2022-06-17T16:10:53.000Z</time>
      </trkpt>
      <trkpt lat="49.75489" lon="4.82012">
        <ele>198</ele>
        <time>2022-06-17T16:10:54.000Z</time>
      </trkpt>
      <trkpt lat="49.75484" lon="4.82021">
        <ele>197</ele>
        <time>2022-06-17T16:10:55.000Z</time>
      </trkpt>
      <trkpt lat="49.7548" lon="4.8203">
        <ele>197</ele>
        <time>2022-06-17T16:10:56.000Z</time>
      </trkpt>
      <trkpt lat="49.75475" lon="4.8204">
        <ele>196</ele>
        <time>2022-06-17T16:10:57.000Z</time>
      </trkpt>
      <trkpt lat="49.75471" lon="4.82049">
        <ele>196</ele>
        <time>2022-06-17T16:10:58.000Z</time>
      </trkpt>
      <trkpt lat="49.75467" lon="4.82058">
        <ele>195</ele>
        <time>2022-06-17T16:10:59.000Z</time>
      </trkpt>
      <trkpt lat="49.75463" lon="4.82065">
        <ele>195</ele>
        <time>2022-06-17T16:11:00.000Z</time>
      </trkpt>
      <trkpt lat="49.7546" lon="4.82072">
        <ele>195</ele>
        <time>2022-06-17T16:11:01.000Z</time>
      </trkpt>
      <trkpt lat="49.75458" lon="4.82077">
        <ele>195</ele>
        <time>2022-06-17T16:11:02.000Z</time>
      </trkpt>
      <trkpt lat="49.75457" lon="4.82083">
        <ele>195</ele>
        <time>2022-06-17T16:11:03.000Z</time>
      </trkpt>
      <trkpt lat="49.75457" lon="4.82088">
        <ele>194</ele>
        <time>2022-06-17T16:11:04.000Z</time>
      </trkpt>
      <trkpt lat="49.75457" lon="4.82094">
        <ele>194</ele>
        <time>2022-06-17T16:11:05.000Z</time>
      </trkpt>
      <trkpt lat="49.75459" lon="4.82099">
        <ele>194</ele>
        <time>2022-06-17T16:11:06.000Z</time>
      </trkpt>
      <trkpt lat="49.75462" lon="4.82104">
        <ele>194</ele>
        <time>2022-06-17T16:11:07.000Z</time>
      </trkpt>
      <trkpt lat="49.75465" lon="4.82109">
        <ele>193</ele>
        <time>2022-06-17T16:11:08.000Z</time>
      </trkpt>
      <trkpt lat="49.75468" lon="4.82114">
        <ele>193</ele>
        <time>2022-06-17T16:11:09.000Z</time>
      </trkpt>
      <trkpt lat="49.75472" lon="4.82119">
        <ele>193</ele>
        <time>2022-06-17T16:11:10.000Z</time>
      </trkpt>
      <trkpt lat="49.75475" lon="4.82125">
        <ele>193</ele>
        <time>2022-06-17T16:11:11.000Z</time>
      </trkpt>
      <trkpt lat="49.75479" lon="4.8213">
        <ele>193</ele>
        <time>2022-06-17T16:11:12.000Z</time>
      </trkpt>
      <trkpt lat="49.75483" lon="4.82136">
        <ele>193</ele>
        <time>2022-06-17T16:11:13.000Z</time>
      </trkpt>
      <trkpt lat="49.75486" lon="4.82141">
        <ele>192</ele>
        <time>2022-06-17T16:11:14.000Z</time>
      </trkpt>
      <trkpt lat="49.7549" lon="4.82147">
        <ele>192</ele>
        <time>2022-06-17T16:11:15.000Z</time>
      </trkpt>
      <trkpt lat="49.75494" lon="4.82153">
        <ele>192</ele>
        <time>2022-06-17T16:11:16.000Z</time>
      </trkpt>
      <trkpt lat="49.75498" lon="4.82159">
        <ele>192</ele>
        <time>2022-06-17T16:11:17.000Z</time>
      </trkpt>
      <trkpt lat="49.75502" lon="4.82165">
        <ele>192</ele>
        <time>2022-06-17T16:11:18.000Z</time>
      </trkpt>
      <trkpt lat="49.75505" lon="4.82171">
        <ele>192</ele>
        <time>2022-06-17T16:11:19.000Z</time>
      </trkpt>
      <trkpt lat="49.75508" lon="4.82178">
        <ele>192</ele>
        <time>2022-06-17T16:11:20.000Z</time>
      </trkpt>
      <trkpt lat="49.75511" lon="4.82184">
        <ele>192</ele>
        <time>2022-06-17T16:11:21.000Z</time>
      </trkpt>
      <trkpt lat="49.75514" lon="4.82191">
        <ele>191</ele>
        <time>2022-06-17T16:11:22.000Z</time>
      </trkpt>
      <trkpt lat="49.75518" lon="4.82197">
        <ele>191</ele>
        <time>2022-06-17T16:11:23.000Z</time>
      </trkpt>
      <trkpt lat="49.75521" lon="4.82204">
        <ele>191</ele>
        <time>2022-06-17T16:11:24.000Z</time>
      </trkpt>
      <trkpt lat="49.75524" lon="4.82211">
        <ele>191</ele>
        <time>2022-06-17T16:11:25.000Z</time>
      </trkpt>
      <trkpt lat="49.75528" lon="4.82217">
        <ele>191</ele>
        <time>2022-06-17T16:11:26.000Z</time>
      </trkpt>
      <trkpt lat="49.75531" lon="4.82224">
        <ele>191</ele>
        <time>2022-06-17T16:11:27.000Z</time>
      </trkpt>
      <trkpt lat="49.75535" lon="4.82231">
        <ele>191</ele>
        <time>2022-06-17T16:11:28.000Z</time>
      </trkpt>
      <trkpt lat="49.75538" lon="4.82238">
        <ele>190</ele>
        <time>2022-06-17T16:11:29.000Z</time>
      </trkpt>
      <trkpt lat="49.75541" lon="4.82245">
        <ele>190</ele>
        <time>2022-06-17T16:11:30.000Z</time>
      </trkpt>
      <trkpt lat="49.75545" lon="4.82252">
        <ele>190</ele>
        <time>2022-06-17T16:11:31.000Z</time>
      </trkpt>
      <trkpt lat="49.75547" lon="4.82259">
        <ele>190</ele>
        <time>2022-06-17T16:11:32.000Z</time>
      </trkpt>
      <trkpt lat="49.75547" lon="4.82268">
        <ele>190</ele>
        <time>2022-06-17T16:11:33.000Z</time>
      </trkpt>
      <trkpt lat="49.75545" lon="4.82275">
        <ele>190</ele>
        <time>2022-06-17T16:11:34.000Z</time>
      </trkpt>
      <trkpt lat="49.75542" lon="4.8228">
        <ele>189</ele>
        <time>2022-06-17T16:11:35.000Z</time>
      </trkpt>
      <trkpt lat="49.75536" lon="4.82281">
        <ele>189</ele>
        <time>2022-06-17T16:11:36.000Z</time>
      </trkpt>
      <trkpt lat="49.75531" lon="4.82279">
        <ele>189</ele>
        <time>2022-06-17T16:11:37.000Z</time>
      </trkpt>
      <trkpt lat="49.75526" lon="4.82277">
        <ele>189</ele>
        <time>2022-06-17T16:11:38.000Z</time>
      </trkpt>
      <trkpt lat="49.7552" lon="4.82274">
        <ele>189</ele>
        <time>2022-06-17T16:11:39.000Z</time>
      </trkpt>
      <trkpt lat="49.75515" lon="4.82271">
        <ele>189</ele>
        <time>2022-06-17T16:11:40.000Z</time>
      </trkpt>
      <trkpt lat="49.75509" lon="4.82268">
        <ele>188</ele>
        <time>2022-06-17T16:11:41.000Z</time>
      </trkpt>
      <trkpt lat="49.75504" lon="4.82265">
        <ele>188</ele>
        <time>2022-06-17T16:11:42.000Z</time>
      </trkpt>
      <trkpt lat="49.75498" lon="4.82262">
        <ele>188</ele>
        <time>2022-06-17T16:11:43.000Z</time>
      </trkpt>
      <trkpt lat="49.75493" lon="4.82258">
        <ele>188</ele>
        <time>2022-06-17T16:11:44.000Z</time>
      </trkpt>
      <trkpt lat="49.75488" lon="4.82254">
        <ele>188</ele>
        <time>2022-06-17T16:11:45.000Z</time>
      </trkpt>
      <trkpt lat="49.75483" lon="4.8225">
        <ele>188</ele>
        <time>2022-06-17T16:11:46.000Z</time>
      </trkpt>
      <trkpt lat="49.75478" lon="4.82245">
        <ele>188</ele>
        <time>2022-06-17T16:11:47.000Z</time>
      </trkpt>
      <trkpt lat="49.75474" lon="4.8224">
        <ele>188</ele>
        <time>2022-06-17T16:11:48.000Z</time>
      </trkpt>
      <trkpt lat="49.7547" lon="4.82235">
        <ele>188</ele>
        <time>2022-06-17T16:11:49.000Z</time>
      </trkpt>
      <trkpt lat="49.75465" lon="4.8223">
        <ele>188</ele>
        <time>2022-06-17T16:11:50.000Z</time>
      </trkpt>
      <trkpt lat="49.75461" lon="4.82226">
        <ele>188</ele>
        <time>2022-06-17T16:11:51.000Z</time>
      </trkpt>
      <trkpt lat="49.75456" lon="4.82224">
        <ele>188</ele>
        <time>2022-06-17T16:11:52.000Z</time>
      </trkpt>
      <trkpt lat="49.75452" lon="4.82222">
        <ele>188</ele>
        <time>2022-06-17T16:11:53.000Z</time>
      </trkpt>
      <trkpt lat="49.75448" lon="4.82219">
        <ele>188</ele>
        <time>2022-06-17T16:11:54.000Z</time>
      </trkpt>
      <trkpt lat="49.75444" lon="4.82217">
        <ele>188</ele>
        <time>2022-06-17T16:11:55.000Z</time>
      </trkpt>
      <trkpt lat="49.7544" lon="4.82214">
        <ele>188</ele>
        <time>2022-06-17T16:11:56.000Z</time>
      </trkpt>
      <trkpt lat="49.75436" lon="4.82211">
        <ele>188</ele>
        <time>2022-06-17T16:11:57.000Z</time>
      </trkpt>
      <trkpt lat="49.75432" lon="4.82209">
        <ele>188</ele>
        <time>2022-06-17T16:11:58.000Z</time>
      </trkpt>
      <trkpt lat="49.75428" lon="4.82207">
        <ele>188</ele>
        <time>2022-06-17T16:11:59.000Z</time>
      </trkpt>
      <trkpt lat="49.75424" lon="4.82205">
        <ele>188</ele>
        <time>2022-06-17T16:12:00.000Z</time>
      </trkpt>
      <trkpt lat="49.7542" lon="4.82203">
        <ele>188</ele>
        <time>2022-06-17T16:12:01.000Z</time>
      </trkpt>
      <trkpt lat="49.75416" lon="4.82201">
        <ele>188</ele>
        <time>2022-06-17T16:12:02.000Z</time>
      </trkpt>
      <trkpt lat="49.75412" lon="4.82199">
        <ele>188</ele>
        <time>2022-06-17T16:12:03.000Z</time>
      </trkpt>
      <trkpt lat="49.75408" lon="4.82197">
        <ele>188</ele>
        <time>2022-06-17T16:12:04.000Z</time>
      </trkpt>
      <trkpt lat="49.75404" lon="4.82196">
        <ele>188</ele>
        <time>2022-06-17T16:12:05.000Z</time>
      </trkpt>
      <trkpt lat="49.754" lon="4.82194">
        <ele>188</ele>
        <time>2022-06-17T16:12:06.000Z</time>
      </trkpt>
      <trkpt lat="49.75396" lon="4.82194">
        <ele>188</ele>
        <time>2022-06-17T16:12:07.000Z</time>
      </trkpt>
      <trkpt lat="49.75392" lon="4.82193">
        <ele>188</ele>
        <time>2022-06-17T16:12:08.000Z</time>
      </trkpt>
      <trkpt lat="49.75388" lon="4.82194">
        <ele>188</ele>
        <time>2022-06-17T16:12:09.000Z</time>
      </trkpt>
      <trkpt lat="49.75386" lon="4.82197">
        <ele>188</ele>
        <time>2022-06-17T16:12:10.000Z</time>
      </trkpt>
      <trkpt lat="49.75383" lon="4.822">
        <ele>188</ele>
        <time>2022-06-17T16:12:11.000Z</time>
      </trkpt>
      <trkpt lat="49.75381" lon="4.82202">
        <ele>188</ele>
        <time>2022-06-17T16:12:12.000Z</time>
      </trkpt>
      <trkpt lat="49.7538" lon="4.82204">
        <ele>188</ele>
        <time>2022-06-17T16:12:13.000Z</time>
      </trkpt>
      <trkpt lat="49.75379" lon="4.82206">
        <ele>188</ele>
        <time>2022-06-17T16:12:14.000Z</time>
      </trkpt>
      <trkpt lat="49.75379" lon="4.82206">
        <ele>188</ele>
        <time>2022-06-17T16:12:15.000Z</time>
      </trkpt>
    </trkseg>
  </trk>
</gpx>